<?xml version="1.0" encoding="UTF-8" standalone="no" ?>
<gpx xmlns="http://www.topografix.com/GPX/1/1" xmlns:xsi="http://www.w3.org/2001/XMLSchema-instance" xsi:schemaLocation="http://www.topografix.com/GPX/1/1 http://www.topografix.com/GPX/1/1/gpx.xsd" version="1.1" creator="VisuGPX - https://www.visugpx.com">
  <metadata>
    <name>Course à pied le matin</name>
  </metadata>
  <trk>
    <name><![CDATA[Course à pied le matin_1]]></name>
    <trkseg>
      <trkpt lat="43.5617" lon="1.44702">
        <ele>241</ele>
        <time>2025-02-15T08:10:16Z</time>
      </trkpt>
      <trkpt lat="43.5617" lon="1.44702">
        <ele>241</ele>
        <time>2025-02-15T08:10:17Z</time>
      </trkpt>
      <trkpt lat="43.56173" lon="1.447">
        <ele>241</ele>
        <time>2025-02-15T08:10:18Z</time>
      </trkpt>
      <trkpt lat="43.56175" lon="1.44699">
        <ele>242</ele>
        <time>2025-02-15T08:10:19Z</time>
      </trkpt>
      <trkpt lat="43.56176" lon="1.44699">
        <ele>242</ele>
        <time>2025-02-15T08:10:20Z</time>
      </trkpt>
      <trkpt lat="43.56178" lon="1.44698">
        <ele>242</ele>
        <time>2025-02-15T08:10:21Z</time>
      </trkpt>
      <trkpt lat="43.56181" lon="1.44695">
        <ele>242</ele>
        <time>2025-02-15T08:10:23Z</time>
      </trkpt>
      <trkpt lat="43.56183" lon="1.44694">
        <ele>242</ele>
        <time>2025-02-15T08:10:24Z</time>
      </trkpt>
      <trkpt lat="43.56185" lon="1.44692">
        <ele>242</ele>
        <time>2025-02-15T08:10:25Z</time>
      </trkpt>
      <trkpt lat="43.56187" lon="1.44691">
        <ele>242</ele>
        <time>2025-02-15T08:10:26Z</time>
      </trkpt>
      <trkpt lat="43.56189" lon="1.44689">
        <ele>242</ele>
        <time>2025-02-15T08:10:27Z</time>
      </trkpt>
      <trkpt lat="43.56191" lon="1.44688">
        <ele>242</ele>
        <time>2025-02-15T08:10:28Z</time>
      </trkpt>
      <trkpt lat="43.56195" lon="1.44687">
        <ele>242</ele>
        <time>2025-02-15T08:10:29Z</time>
      </trkpt>
      <trkpt lat="43.56196" lon="1.44686">
        <ele>242</ele>
        <time>2025-02-15T08:10:30Z</time>
      </trkpt>
      <trkpt lat="43.56198" lon="1.44685">
        <ele>242</ele>
        <time>2025-02-15T08:10:31Z</time>
      </trkpt>
      <trkpt lat="43.562" lon="1.44684">
        <ele>242</ele>
        <time>2025-02-15T08:10:32Z</time>
      </trkpt>
      <trkpt lat="43.56203" lon="1.44684">
        <ele>243</ele>
        <time>2025-02-15T08:10:33Z</time>
      </trkpt>
      <trkpt lat="43.56206" lon="1.44684">
        <ele>243</ele>
        <time>2025-02-15T08:10:34Z</time>
      </trkpt>
      <trkpt lat="43.56207" lon="1.44684">
        <ele>243</ele>
        <time>2025-02-15T08:10:35Z</time>
      </trkpt>
      <trkpt lat="43.56211" lon="1.44684">
        <ele>243</ele>
        <time>2025-02-15T08:10:36Z</time>
      </trkpt>
      <trkpt lat="43.56212" lon="1.44684">
        <ele>243</ele>
        <time>2025-02-15T08:10:37Z</time>
      </trkpt>
      <trkpt lat="43.56216" lon="1.44683">
        <ele>243</ele>
        <time>2025-02-15T08:10:38Z</time>
      </trkpt>
      <trkpt lat="43.56217" lon="1.44683">
        <ele>244</ele>
        <time>2025-02-15T08:10:39Z</time>
      </trkpt>
      <trkpt lat="43.56219" lon="1.44682">
        <ele>244</ele>
        <time>2025-02-15T08:10:40Z</time>
      </trkpt>
      <trkpt lat="43.56222" lon="1.4468">
        <ele>244</ele>
        <time>2025-02-15T08:10:41Z</time>
      </trkpt>
      <trkpt lat="43.56223" lon="1.44679">
        <ele>243</ele>
        <time>2025-02-15T08:10:42Z</time>
      </trkpt>
      <trkpt lat="43.56226" lon="1.44678">
        <ele>243</ele>
        <time>2025-02-15T08:10:43Z</time>
      </trkpt>
      <trkpt lat="43.56228" lon="1.44677">
        <ele>243</ele>
        <time>2025-02-15T08:10:44Z</time>
      </trkpt>
      <trkpt lat="43.5623" lon="1.44676">
        <ele>243</ele>
        <time>2025-02-15T08:10:45Z</time>
      </trkpt>
      <trkpt lat="43.56234" lon="1.44675">
        <ele>243</ele>
        <time>2025-02-15T08:10:46Z</time>
      </trkpt>
      <trkpt lat="43.56235" lon="1.44675">
        <ele>243</ele>
        <time>2025-02-15T08:10:47Z</time>
      </trkpt>
      <trkpt lat="43.56239" lon="1.44673">
        <ele>243</ele>
        <time>2025-02-15T08:10:48Z</time>
      </trkpt>
      <trkpt lat="43.5624" lon="1.44673">
        <ele>243</ele>
        <time>2025-02-15T08:10:49Z</time>
      </trkpt>
      <trkpt lat="43.56242" lon="1.44672">
        <ele>243</ele>
        <time>2025-02-15T08:10:50Z</time>
      </trkpt>
      <trkpt lat="43.56245" lon="1.44672">
        <ele>243</ele>
        <time>2025-02-15T08:10:51Z</time>
      </trkpt>
      <trkpt lat="43.56247" lon="1.44671">
        <ele>243</ele>
        <time>2025-02-15T08:10:52Z</time>
      </trkpt>
      <trkpt lat="43.56251" lon="1.44671">
        <ele>243</ele>
        <time>2025-02-15T08:10:53Z</time>
      </trkpt>
      <trkpt lat="43.56252" lon="1.44671">
        <ele>243</ele>
        <time>2025-02-15T08:10:54Z</time>
      </trkpt>
      <trkpt lat="43.56254" lon="1.4467">
        <ele>243</ele>
        <time>2025-02-15T08:10:55Z</time>
      </trkpt>
      <trkpt lat="43.56256" lon="1.44669">
        <ele>243</ele>
        <time>2025-02-15T08:10:56Z</time>
      </trkpt>
      <trkpt lat="43.56259" lon="1.44667">
        <ele>243</ele>
        <time>2025-02-15T08:10:57Z</time>
      </trkpt>
      <trkpt lat="43.5626" lon="1.44666">
        <ele>243</ele>
        <time>2025-02-15T08:10:58Z</time>
      </trkpt>
      <trkpt lat="43.56264" lon="1.44664">
        <ele>243</ele>
        <time>2025-02-15T08:10:59Z</time>
      </trkpt>
      <trkpt lat="43.56265" lon="1.44663">
        <ele>243</ele>
        <time>2025-02-15T08:11:00Z</time>
      </trkpt>
      <trkpt lat="43.56268" lon="1.44662">
        <ele>243</ele>
        <time>2025-02-15T08:11:01Z</time>
      </trkpt>
      <trkpt lat="43.56269" lon="1.44661">
        <ele>243</ele>
        <time>2025-02-15T08:11:02Z</time>
      </trkpt>
      <trkpt lat="43.56272" lon="1.44659">
        <ele>243</ele>
        <time>2025-02-15T08:11:03Z</time>
      </trkpt>
      <trkpt lat="43.56274" lon="1.44658">
        <ele>243</ele>
        <time>2025-02-15T08:11:04Z</time>
      </trkpt>
      <trkpt lat="43.56276" lon="1.44657">
        <ele>243</ele>
        <time>2025-02-15T08:11:05Z</time>
      </trkpt>
      <trkpt lat="43.56279" lon="1.44655">
        <ele>243</ele>
        <time>2025-02-15T08:11:06Z</time>
      </trkpt>
      <trkpt lat="43.5628" lon="1.44654">
        <ele>243</ele>
        <time>2025-02-15T08:11:07Z</time>
      </trkpt>
      <trkpt lat="43.56282" lon="1.44653">
        <ele>243</ele>
        <time>2025-02-15T08:11:08Z</time>
      </trkpt>
      <trkpt lat="43.56283" lon="1.44652">
        <ele>243</ele>
        <time>2025-02-15T08:11:09Z</time>
      </trkpt>
      <trkpt lat="43.56286" lon="1.44651">
        <ele>243</ele>
        <time>2025-02-15T08:11:10Z</time>
      </trkpt>
      <trkpt lat="43.56288" lon="1.44649">
        <ele>243</ele>
        <time>2025-02-15T08:11:11Z</time>
      </trkpt>
      <trkpt lat="43.56291" lon="1.44647">
        <ele>243</ele>
        <time>2025-02-15T08:11:12Z</time>
      </trkpt>
      <trkpt lat="43.56292" lon="1.44647">
        <ele>243</ele>
        <time>2025-02-15T08:11:13Z</time>
      </trkpt>
      <trkpt lat="43.56294" lon="1.44646">
        <ele>243</ele>
        <time>2025-02-15T08:11:14Z</time>
      </trkpt>
      <trkpt lat="43.56296" lon="1.44644">
        <ele>243</ele>
        <time>2025-02-15T08:11:15Z</time>
      </trkpt>
      <trkpt lat="43.563" lon="1.44642">
        <ele>243</ele>
        <time>2025-02-15T08:11:16Z</time>
      </trkpt>
      <trkpt lat="43.563" lon="1.44641">
        <ele>242</ele>
        <time>2025-02-15T08:11:17Z</time>
      </trkpt>
      <trkpt lat="43.56304" lon="1.44639">
        <ele>242</ele>
        <time>2025-02-15T08:11:18Z</time>
      </trkpt>
      <trkpt lat="43.56305" lon="1.44638">
        <ele>242</ele>
        <time>2025-02-15T08:11:19Z</time>
      </trkpt>
      <trkpt lat="43.56308" lon="1.44634">
        <ele>242</ele>
        <time>2025-02-15T08:11:20Z</time>
      </trkpt>
      <trkpt lat="43.56309" lon="1.44633">
        <ele>242</ele>
        <time>2025-02-15T08:11:21Z</time>
      </trkpt>
      <trkpt lat="43.56312" lon="1.4463">
        <ele>242</ele>
        <time>2025-02-15T08:11:22Z</time>
      </trkpt>
      <trkpt lat="43.56312" lon="1.44629">
        <ele>242</ele>
        <time>2025-02-15T08:11:23Z</time>
      </trkpt>
      <trkpt lat="43.56314" lon="1.44626">
        <ele>242</ele>
        <time>2025-02-15T08:11:24Z</time>
      </trkpt>
      <trkpt lat="43.56316" lon="1.44625">
        <ele>242</ele>
        <time>2025-02-15T08:11:25Z</time>
      </trkpt>
      <trkpt lat="43.56318" lon="1.44623">
        <ele>242</ele>
        <time>2025-02-15T08:11:26Z</time>
      </trkpt>
      <trkpt lat="43.56321" lon="1.44621">
        <ele>242</ele>
        <time>2025-02-15T08:11:27Z</time>
      </trkpt>
      <trkpt lat="43.56322" lon="1.4462">
        <ele>242</ele>
        <time>2025-02-15T08:11:28Z</time>
      </trkpt>
      <trkpt lat="43.56325" lon="1.44618">
        <ele>242</ele>
        <time>2025-02-15T08:11:29Z</time>
      </trkpt>
      <trkpt lat="43.56326" lon="1.44617">
        <ele>241</ele>
        <time>2025-02-15T08:11:30Z</time>
      </trkpt>
      <trkpt lat="43.5633" lon="1.44614">
        <ele>241</ele>
        <time>2025-02-15T08:11:31Z</time>
      </trkpt>
      <trkpt lat="43.56331" lon="1.44614">
        <ele>240</ele>
        <time>2025-02-15T08:11:32Z</time>
      </trkpt>
      <trkpt lat="43.56333" lon="1.44611">
        <ele>240</ele>
        <time>2025-02-15T08:11:33Z</time>
      </trkpt>
      <trkpt lat="43.56335" lon="1.44609">
        <ele>240</ele>
        <time>2025-02-15T08:11:34Z</time>
      </trkpt>
      <trkpt lat="43.56337" lon="1.44605">
        <ele>240</ele>
        <time>2025-02-15T08:11:35Z</time>
      </trkpt>
      <trkpt lat="43.56338" lon="1.44604">
        <ele>239</ele>
        <time>2025-02-15T08:11:36Z</time>
      </trkpt>
      <trkpt lat="43.56341" lon="1.44602">
        <ele>239</ele>
        <time>2025-02-15T08:11:37Z</time>
      </trkpt>
      <trkpt lat="43.56342" lon="1.44601">
        <ele>239</ele>
        <time>2025-02-15T08:11:38Z</time>
      </trkpt>
      <trkpt lat="43.56343" lon="1.44599">
        <ele>239</ele>
        <time>2025-02-15T08:11:39Z</time>
      </trkpt>
      <trkpt lat="43.56346" lon="1.44598">
        <ele>239</ele>
        <time>2025-02-15T08:11:40Z</time>
      </trkpt>
      <trkpt lat="43.56349" lon="1.44595">
        <ele>239</ele>
        <time>2025-02-15T08:11:41Z</time>
      </trkpt>
      <trkpt lat="43.5635" lon="1.44594">
        <ele>239</ele>
        <time>2025-02-15T08:11:42Z</time>
      </trkpt>
      <trkpt lat="43.56353" lon="1.44591">
        <ele>239</ele>
        <time>2025-02-15T08:11:43Z</time>
      </trkpt>
      <trkpt lat="43.56354" lon="1.4459">
        <ele>239</ele>
        <time>2025-02-15T08:11:44Z</time>
      </trkpt>
      <trkpt lat="43.56356" lon="1.44587">
        <ele>239</ele>
        <time>2025-02-15T08:11:45Z</time>
      </trkpt>
      <trkpt lat="43.56358" lon="1.44585">
        <ele>239</ele>
        <time>2025-02-15T08:11:46Z</time>
      </trkpt>
      <trkpt lat="43.5636" lon="1.44583">
        <ele>239</ele>
        <time>2025-02-15T08:11:47Z</time>
      </trkpt>
      <trkpt lat="43.56363" lon="1.4458">
        <ele>239</ele>
        <time>2025-02-15T08:11:48Z</time>
      </trkpt>
      <trkpt lat="43.56364" lon="1.44579">
        <ele>240</ele>
        <time>2025-02-15T08:11:49Z</time>
      </trkpt>
      <trkpt lat="43.56367" lon="1.44577">
        <ele>240</ele>
        <time>2025-02-15T08:11:50Z</time>
      </trkpt>
      <trkpt lat="43.56367" lon="1.44576">
        <ele>240</ele>
        <time>2025-02-15T08:11:51Z</time>
      </trkpt>
      <trkpt lat="43.5637" lon="1.44574">
        <ele>240</ele>
        <time>2025-02-15T08:11:52Z</time>
      </trkpt>
      <trkpt lat="43.56371" lon="1.44573">
        <ele>239</ele>
        <time>2025-02-15T08:11:53Z</time>
      </trkpt>
      <trkpt lat="43.56373" lon="1.44571">
        <ele>240</ele>
        <time>2025-02-15T08:11:54Z</time>
      </trkpt>
      <trkpt lat="43.56375" lon="1.44569">
        <ele>240</ele>
        <time>2025-02-15T08:11:55Z</time>
      </trkpt>
      <trkpt lat="43.56378" lon="1.44567">
        <ele>240</ele>
        <time>2025-02-15T08:11:56Z</time>
      </trkpt>
      <trkpt lat="43.56381" lon="1.44565">
        <ele>240</ele>
        <time>2025-02-15T08:11:57Z</time>
      </trkpt>
      <trkpt lat="43.56382" lon="1.44564">
        <ele>239</ele>
        <time>2025-02-15T08:11:58Z</time>
      </trkpt>
      <trkpt lat="43.56385" lon="1.44561">
        <ele>239</ele>
        <time>2025-02-15T08:11:59Z</time>
      </trkpt>
      <trkpt lat="43.56386" lon="1.4456">
        <ele>239</ele>
        <time>2025-02-15T08:12:00Z</time>
      </trkpt>
      <trkpt lat="43.5639" lon="1.44558">
        <ele>239</ele>
        <time>2025-02-15T08:12:01Z</time>
      </trkpt>
      <trkpt lat="43.56391" lon="1.44557">
        <ele>239</ele>
        <time>2025-02-15T08:12:02Z</time>
      </trkpt>
      <trkpt lat="43.56394" lon="1.44554">
        <ele>239</ele>
        <time>2025-02-15T08:12:03Z</time>
      </trkpt>
      <trkpt lat="43.56395" lon="1.44553">
        <ele>239</ele>
        <time>2025-02-15T08:12:04Z</time>
      </trkpt>
      <trkpt lat="43.56398" lon="1.44551">
        <ele>239</ele>
        <time>2025-02-15T08:12:05Z</time>
      </trkpt>
      <trkpt lat="43.564" lon="1.4455">
        <ele>239</ele>
        <time>2025-02-15T08:12:06Z</time>
      </trkpt>
      <trkpt lat="43.56402" lon="1.44548">
        <ele>240</ele>
        <time>2025-02-15T08:12:07Z</time>
      </trkpt>
      <trkpt lat="43.56404" lon="1.44547">
        <ele>240</ele>
        <time>2025-02-15T08:12:08Z</time>
      </trkpt>
      <trkpt lat="43.56407" lon="1.44545">
        <ele>240</ele>
        <time>2025-02-15T08:12:09Z</time>
      </trkpt>
      <trkpt lat="43.56409" lon="1.44543">
        <ele>240</ele>
        <time>2025-02-15T08:12:10Z</time>
      </trkpt>
      <trkpt lat="43.56411" lon="1.44542">
        <ele>241</ele>
        <time>2025-02-15T08:12:11Z</time>
      </trkpt>
      <trkpt lat="43.56413" lon="1.44541">
        <ele>241</ele>
        <time>2025-02-15T08:12:12Z</time>
      </trkpt>
      <trkpt lat="43.56416" lon="1.44538">
        <ele>241</ele>
        <time>2025-02-15T08:12:13Z</time>
      </trkpt>
      <trkpt lat="43.56417" lon="1.44537">
        <ele>241</ele>
        <time>2025-02-15T08:12:14Z</time>
      </trkpt>
      <trkpt lat="43.56421" lon="1.44535">
        <ele>241</ele>
        <time>2025-02-15T08:12:15Z</time>
      </trkpt>
      <trkpt lat="43.56422" lon="1.44534">
        <ele>241</ele>
        <time>2025-02-15T08:12:16Z</time>
      </trkpt>
      <trkpt lat="43.56424" lon="1.44533">
        <ele>241</ele>
        <time>2025-02-15T08:12:17Z</time>
      </trkpt>
      <trkpt lat="43.56427" lon="1.44531">
        <ele>241</ele>
        <time>2025-02-15T08:12:18Z</time>
      </trkpt>
      <trkpt lat="43.56428" lon="1.4453">
        <ele>241</ele>
        <time>2025-02-15T08:12:19Z</time>
      </trkpt>
      <trkpt lat="43.5643" lon="1.44528">
        <ele>241</ele>
        <time>2025-02-15T08:12:20Z</time>
      </trkpt>
      <trkpt lat="43.56432" lon="1.44526">
        <ele>241</ele>
        <time>2025-02-15T08:12:21Z</time>
      </trkpt>
      <trkpt lat="43.56435" lon="1.44524">
        <ele>241</ele>
        <time>2025-02-15T08:12:22Z</time>
      </trkpt>
      <trkpt lat="43.56436" lon="1.44523">
        <ele>241</ele>
        <time>2025-02-15T08:12:23Z</time>
      </trkpt>
      <trkpt lat="43.5644" lon="1.4452">
        <ele>241</ele>
        <time>2025-02-15T08:12:24Z</time>
      </trkpt>
      <trkpt lat="43.56441" lon="1.44519">
        <ele>241</ele>
        <time>2025-02-15T08:12:25Z</time>
      </trkpt>
      <trkpt lat="43.56443" lon="1.44518">
        <ele>241</ele>
        <time>2025-02-15T08:12:26Z</time>
      </trkpt>
      <trkpt lat="43.56445" lon="1.44516">
        <ele>241</ele>
        <time>2025-02-15T08:12:27Z</time>
      </trkpt>
      <trkpt lat="43.56449" lon="1.44514">
        <ele>241</ele>
        <time>2025-02-15T08:12:28Z</time>
      </trkpt>
      <trkpt lat="43.5645" lon="1.44513">
        <ele>241</ele>
        <time>2025-02-15T08:12:29Z</time>
      </trkpt>
      <trkpt lat="43.56451" lon="1.44512">
        <ele>241</ele>
        <time>2025-02-15T08:12:30Z</time>
      </trkpt>
      <trkpt lat="43.56454" lon="1.4451">
        <ele>241</ele>
        <time>2025-02-15T08:12:31Z</time>
      </trkpt>
      <trkpt lat="43.56456" lon="1.4451">
        <ele>239</ele>
        <time>2025-02-15T08:14:02Z</time>
      </trkpt>
      <trkpt lat="43.56457" lon="1.44509">
        <ele>240</ele>
        <time>2025-02-15T08:14:03Z</time>
      </trkpt>
      <trkpt lat="43.56458" lon="1.44508">
        <ele>240</ele>
        <time>2025-02-15T08:14:04Z</time>
      </trkpt>
      <trkpt lat="43.5646" lon="1.44508">
        <ele>240</ele>
        <time>2025-02-15T08:14:05Z</time>
      </trkpt>
      <trkpt lat="43.56462" lon="1.44506">
        <ele>239</ele>
        <time>2025-02-15T08:14:06Z</time>
      </trkpt>
      <trkpt lat="43.56464" lon="1.44504">
        <ele>239</ele>
        <time>2025-02-15T08:14:07Z</time>
      </trkpt>
      <trkpt lat="43.56466" lon="1.44502">
        <ele>239</ele>
        <time>2025-02-15T08:14:08Z</time>
      </trkpt>
      <trkpt lat="43.5647" lon="1.44499">
        <ele>239</ele>
        <time>2025-02-15T08:14:09Z</time>
      </trkpt>
      <trkpt lat="43.56471" lon="1.44498">
        <ele>239</ele>
        <time>2025-02-15T08:14:10Z</time>
      </trkpt>
      <trkpt lat="43.56475" lon="1.44495">
        <ele>239</ele>
        <time>2025-02-15T08:14:11Z</time>
      </trkpt>
      <trkpt lat="43.56476" lon="1.44494">
        <ele>239</ele>
        <time>2025-02-15T08:14:12Z</time>
      </trkpt>
      <trkpt lat="43.5648" lon="1.44491">
        <ele>239</ele>
        <time>2025-02-15T08:14:13Z</time>
      </trkpt>
      <trkpt lat="43.56481" lon="1.4449">
        <ele>239</ele>
        <time>2025-02-15T08:14:14Z</time>
      </trkpt>
      <trkpt lat="43.56485" lon="1.44487">
        <ele>239</ele>
        <time>2025-02-15T08:14:15Z</time>
      </trkpt>
      <trkpt lat="43.56486" lon="1.44486">
        <ele>239</ele>
        <time>2025-02-15T08:14:16Z</time>
      </trkpt>
      <trkpt lat="43.56488" lon="1.44484">
        <ele>239</ele>
        <time>2025-02-15T08:14:17Z</time>
      </trkpt>
      <trkpt lat="43.56491" lon="1.44483">
        <ele>239</ele>
        <time>2025-02-15T08:14:18Z</time>
      </trkpt>
      <trkpt lat="43.56493" lon="1.44481">
        <ele>239</ele>
        <time>2025-02-15T08:14:19Z</time>
      </trkpt>
      <trkpt lat="43.56495" lon="1.44479">
        <ele>239</ele>
        <time>2025-02-15T08:14:20Z</time>
      </trkpt>
      <trkpt lat="43.56498" lon="1.44478">
        <ele>239</ele>
        <time>2025-02-15T08:14:21Z</time>
      </trkpt>
      <trkpt lat="43.565" lon="1.44476">
        <ele>239</ele>
        <time>2025-02-15T08:14:22Z</time>
      </trkpt>
      <trkpt lat="43.56503" lon="1.44474">
        <ele>238</ele>
        <time>2025-02-15T08:14:23Z</time>
      </trkpt>
      <trkpt lat="43.56506" lon="1.44471">
        <ele>238</ele>
        <time>2025-02-15T08:14:24Z</time>
      </trkpt>
      <trkpt lat="43.56509" lon="1.44468">
        <ele>238</ele>
        <time>2025-02-15T08:14:25Z</time>
      </trkpt>
      <trkpt lat="43.5651" lon="1.44467">
        <ele>238</ele>
        <time>2025-02-15T08:14:26Z</time>
      </trkpt>
      <trkpt lat="43.56513" lon="1.44466">
        <ele>238</ele>
        <time>2025-02-15T08:14:27Z</time>
      </trkpt>
      <trkpt lat="43.56515" lon="1.44464">
        <ele>238</ele>
        <time>2025-02-15T08:14:28Z</time>
      </trkpt>
      <trkpt lat="43.56518" lon="1.44461">
        <ele>238</ele>
        <time>2025-02-15T08:14:29Z</time>
      </trkpt>
      <trkpt lat="43.5652" lon="1.44459">
        <ele>238</ele>
        <time>2025-02-15T08:14:30Z</time>
      </trkpt>
      <trkpt lat="43.56522" lon="1.44457">
        <ele>238</ele>
        <time>2025-02-15T08:14:31Z</time>
      </trkpt>
      <trkpt lat="43.56524" lon="1.44454">
        <ele>238</ele>
        <time>2025-02-15T08:14:32Z</time>
      </trkpt>
      <trkpt lat="43.56526" lon="1.44451">
        <ele>238</ele>
        <time>2025-02-15T08:14:33Z</time>
      </trkpt>
      <trkpt lat="43.56527" lon="1.4445">
        <ele>238</ele>
        <time>2025-02-15T08:14:34Z</time>
      </trkpt>
      <trkpt lat="43.56529" lon="1.44448">
        <ele>238</ele>
        <time>2025-02-15T08:14:35Z</time>
      </trkpt>
      <trkpt lat="43.56532" lon="1.44446">
        <ele>238</ele>
        <time>2025-02-15T08:14:36Z</time>
      </trkpt>
      <trkpt lat="43.56534" lon="1.44445">
        <ele>238</ele>
        <time>2025-02-15T08:14:37Z</time>
      </trkpt>
      <trkpt lat="43.56536" lon="1.44443">
        <ele>238</ele>
        <time>2025-02-15T08:14:38Z</time>
      </trkpt>
      <trkpt lat="43.56538" lon="1.44442">
        <ele>238</ele>
        <time>2025-02-15T08:14:39Z</time>
      </trkpt>
      <trkpt lat="43.56541" lon="1.4444">
        <ele>238</ele>
        <time>2025-02-15T08:14:40Z</time>
      </trkpt>
      <trkpt lat="43.56542" lon="1.44439">
        <ele>238</ele>
        <time>2025-02-15T08:14:41Z</time>
      </trkpt>
      <trkpt lat="43.56546" lon="1.44436">
        <ele>238</ele>
        <time>2025-02-15T08:14:42Z</time>
      </trkpt>
      <trkpt lat="43.56547" lon="1.44436">
        <ele>238</ele>
        <time>2025-02-15T08:14:43Z</time>
      </trkpt>
      <trkpt lat="43.56549" lon="1.44434">
        <ele>237</ele>
        <time>2025-02-15T08:14:44Z</time>
      </trkpt>
      <trkpt lat="43.56551" lon="1.44432">
        <ele>237</ele>
        <time>2025-02-15T08:14:45Z</time>
      </trkpt>
      <trkpt lat="43.56554" lon="1.4443">
        <ele>237</ele>
        <time>2025-02-15T08:14:46Z</time>
      </trkpt>
      <trkpt lat="43.56557" lon="1.44428">
        <ele>237</ele>
        <time>2025-02-15T08:14:47Z</time>
      </trkpt>
      <trkpt lat="43.56558" lon="1.44426">
        <ele>237</ele>
        <time>2025-02-15T08:14:48Z</time>
      </trkpt>
      <trkpt lat="43.56562" lon="1.44424">
        <ele>237</ele>
        <time>2025-02-15T08:14:49Z</time>
      </trkpt>
      <trkpt lat="43.56563" lon="1.44423">
        <ele>237</ele>
        <time>2025-02-15T08:14:50Z</time>
      </trkpt>
      <trkpt lat="43.56567" lon="1.44421">
        <ele>237</ele>
        <time>2025-02-15T08:14:51Z</time>
      </trkpt>
      <trkpt lat="43.56568" lon="1.4442">
        <ele>237</ele>
        <time>2025-02-15T08:14:52Z</time>
      </trkpt>
      <trkpt lat="43.56571" lon="1.44418">
        <ele>237</ele>
        <time>2025-02-15T08:14:53Z</time>
      </trkpt>
      <trkpt lat="43.56573" lon="1.44417">
        <ele>237</ele>
        <time>2025-02-15T08:14:54Z</time>
      </trkpt>
      <trkpt lat="43.56575" lon="1.44416">
        <ele>237</ele>
        <time>2025-02-15T08:14:55Z</time>
      </trkpt>
      <trkpt lat="43.56578" lon="1.44414">
        <ele>237</ele>
        <time>2025-02-15T08:14:56Z</time>
      </trkpt>
      <trkpt lat="43.5658" lon="1.44412">
        <ele>237</ele>
        <time>2025-02-15T08:14:57Z</time>
      </trkpt>
      <trkpt lat="43.56582" lon="1.44411">
        <ele>237</ele>
        <time>2025-02-15T08:14:58Z</time>
      </trkpt>
      <trkpt lat="43.56585" lon="1.44409">
        <ele>237</ele>
        <time>2025-02-15T08:14:59Z</time>
      </trkpt>
      <trkpt lat="43.56587" lon="1.44407">
        <ele>236</ele>
        <time>2025-02-15T08:15:00Z</time>
      </trkpt>
      <trkpt lat="43.5659" lon="1.44405">
        <ele>236</ele>
        <time>2025-02-15T08:15:01Z</time>
      </trkpt>
      <trkpt lat="43.56592" lon="1.44403">
        <ele>236</ele>
        <time>2025-02-15T08:15:02Z</time>
      </trkpt>
      <trkpt lat="43.56595" lon="1.44399">
        <ele>236</ele>
        <time>2025-02-15T08:15:03Z</time>
      </trkpt>
      <trkpt lat="43.56596" lon="1.44398">
        <ele>236</ele>
        <time>2025-02-15T08:15:04Z</time>
      </trkpt>
      <trkpt lat="43.56598" lon="1.44394">
        <ele>236</ele>
        <time>2025-02-15T08:15:05Z</time>
      </trkpt>
      <trkpt lat="43.56599" lon="1.44393">
        <ele>235</ele>
        <time>2025-02-15T08:15:06Z</time>
      </trkpt>
      <trkpt lat="43.566" lon="1.4439">
        <ele>235</ele>
        <time>2025-02-15T08:15:07Z</time>
      </trkpt>
      <trkpt lat="43.56601" lon="1.44386">
        <ele>235</ele>
        <time>2025-02-15T08:15:08Z</time>
      </trkpt>
      <trkpt lat="43.56602" lon="1.44383">
        <ele>235</ele>
        <time>2025-02-15T08:15:09Z</time>
      </trkpt>
      <trkpt lat="43.56603" lon="1.44378">
        <ele>235</ele>
        <time>2025-02-15T08:15:10Z</time>
      </trkpt>
      <trkpt lat="43.56604" lon="1.44377">
        <ele>234</ele>
        <time>2025-02-15T08:15:11Z</time>
      </trkpt>
      <trkpt lat="43.56605" lon="1.44374">
        <ele>234</ele>
        <time>2025-02-15T08:15:12Z</time>
      </trkpt>
      <trkpt lat="43.56606" lon="1.4437">
        <ele>234</ele>
        <time>2025-02-15T08:15:13Z</time>
      </trkpt>
      <trkpt lat="43.56607" lon="1.44366">
        <ele>234</ele>
        <time>2025-02-15T08:15:14Z</time>
      </trkpt>
      <trkpt lat="43.56608" lon="1.44361">
        <ele>234</ele>
        <time>2025-02-15T08:15:15Z</time>
      </trkpt>
      <trkpt lat="43.56608" lon="1.44359">
        <ele>233</ele>
        <time>2025-02-15T08:15:16Z</time>
      </trkpt>
      <trkpt lat="43.56609" lon="1.44355">
        <ele>233</ele>
        <time>2025-02-15T08:15:17Z</time>
      </trkpt>
      <trkpt lat="43.5661" lon="1.44352">
        <ele>233</ele>
        <time>2025-02-15T08:15:18Z</time>
      </trkpt>
      <trkpt lat="43.56611" lon="1.44348">
        <ele>232</ele>
        <time>2025-02-15T08:15:19Z</time>
      </trkpt>
      <trkpt lat="43.56612" lon="1.44345">
        <ele>232</ele>
        <time>2025-02-15T08:15:20Z</time>
      </trkpt>
      <trkpt lat="43.56613" lon="1.44341">
        <ele>232</ele>
        <time>2025-02-15T08:15:21Z</time>
      </trkpt>
      <trkpt lat="43.56614" lon="1.44336">
        <ele>232</ele>
        <time>2025-02-15T08:15:22Z</time>
      </trkpt>
      <trkpt lat="43.56615" lon="1.44334">
        <ele>230</ele>
        <time>2025-02-15T08:15:23Z</time>
      </trkpt>
      <trkpt lat="43.56616" lon="1.44328">
        <ele>230</ele>
        <time>2025-02-15T08:15:24Z</time>
      </trkpt>
      <trkpt lat="43.56616" lon="1.44327">
        <ele>230</ele>
        <time>2025-02-15T08:15:25Z</time>
      </trkpt>
      <trkpt lat="43.56617" lon="1.44323">
        <ele>230</ele>
        <time>2025-02-15T08:15:26Z</time>
      </trkpt>
      <trkpt lat="43.56617" lon="1.44319">
        <ele>230</ele>
        <time>2025-02-15T08:15:27Z</time>
      </trkpt>
      <trkpt lat="43.56619" lon="1.44314">
        <ele>230</ele>
        <time>2025-02-15T08:15:28Z</time>
      </trkpt>
      <trkpt lat="43.56619" lon="1.44312">
        <ele>229</ele>
        <time>2025-02-15T08:15:29Z</time>
      </trkpt>
      <trkpt lat="43.56621" lon="1.44307">
        <ele>229</ele>
        <time>2025-02-15T08:15:30Z</time>
      </trkpt>
      <trkpt lat="43.56621" lon="1.44305">
        <ele>228</ele>
        <time>2025-02-15T08:15:31Z</time>
      </trkpt>
      <trkpt lat="43.56622" lon="1.44302">
        <ele>228</ele>
        <time>2025-02-15T08:15:32Z</time>
      </trkpt>
      <trkpt lat="43.56624" lon="1.44299">
        <ele>228</ele>
        <time>2025-02-15T08:15:33Z</time>
      </trkpt>
      <trkpt lat="43.56625" lon="1.44296">
        <ele>228</ele>
        <time>2025-02-15T08:15:34Z</time>
      </trkpt>
      <trkpt lat="43.56628" lon="1.44291">
        <ele>228</ele>
        <time>2025-02-15T08:15:35Z</time>
      </trkpt>
      <trkpt lat="43.56629" lon="1.4429">
        <ele>227</ele>
        <time>2025-02-15T08:15:36Z</time>
      </trkpt>
      <trkpt lat="43.56632" lon="1.44286">
        <ele>227</ele>
        <time>2025-02-15T08:15:37Z</time>
      </trkpt>
      <trkpt lat="43.56632" lon="1.44284">
        <ele>227</ele>
        <time>2025-02-15T08:15:38Z</time>
      </trkpt>
      <trkpt lat="43.56635" lon="1.4428">
        <ele>227</ele>
        <time>2025-02-15T08:15:39Z</time>
      </trkpt>
      <trkpt lat="43.56636" lon="1.44279">
        <ele>227</ele>
        <time>2025-02-15T08:15:40Z</time>
      </trkpt>
      <trkpt lat="43.56638" lon="1.44276">
        <ele>226</ele>
        <time>2025-02-15T08:15:41Z</time>
      </trkpt>
      <trkpt lat="43.56639" lon="1.44273">
        <ele>226</ele>
        <time>2025-02-15T08:15:42Z</time>
      </trkpt>
      <trkpt lat="43.56641" lon="1.4427">
        <ele>226</ele>
        <time>2025-02-15T08:15:43Z</time>
      </trkpt>
      <trkpt lat="43.56644" lon="1.44266">
        <ele>226</ele>
        <time>2025-02-15T08:15:44Z</time>
      </trkpt>
      <trkpt lat="43.56644" lon="1.44264">
        <ele>226</ele>
        <time>2025-02-15T08:15:45Z</time>
      </trkpt>
      <trkpt lat="43.56646" lon="1.44262">
        <ele>226</ele>
        <time>2025-02-15T08:15:46Z</time>
      </trkpt>
      <trkpt lat="43.56648" lon="1.44259">
        <ele>226</ele>
        <time>2025-02-15T08:15:47Z</time>
      </trkpt>
      <trkpt lat="43.5665" lon="1.44257">
        <ele>226</ele>
        <time>2025-02-15T08:15:48Z</time>
      </trkpt>
      <trkpt lat="43.56652" lon="1.44252">
        <ele>226</ele>
        <time>2025-02-15T08:15:49Z</time>
      </trkpt>
      <trkpt lat="43.56653" lon="1.44251">
        <ele>226</ele>
        <time>2025-02-15T08:15:50Z</time>
      </trkpt>
      <trkpt lat="43.56655" lon="1.44248">
        <ele>225</ele>
        <time>2025-02-15T08:15:51Z</time>
      </trkpt>
      <trkpt lat="43.56657" lon="1.44246">
        <ele>225</ele>
        <time>2025-02-15T08:15:52Z</time>
      </trkpt>
      <trkpt lat="43.56659" lon="1.44243">
        <ele>225</ele>
        <time>2025-02-15T08:15:53Z</time>
      </trkpt>
      <trkpt lat="43.56661" lon="1.44239">
        <ele>225</ele>
        <time>2025-02-15T08:15:54Z</time>
      </trkpt>
      <trkpt lat="43.56662" lon="1.44238">
        <ele>225</ele>
        <time>2025-02-15T08:15:55Z</time>
      </trkpt>
      <trkpt lat="43.56664" lon="1.44233">
        <ele>225</ele>
        <time>2025-02-15T08:15:56Z</time>
      </trkpt>
      <trkpt lat="43.56665" lon="1.44232">
        <ele>224</ele>
        <time>2025-02-15T08:15:57Z</time>
      </trkpt>
      <trkpt lat="43.56667" lon="1.44227">
        <ele>224</ele>
        <time>2025-02-15T08:15:58Z</time>
      </trkpt>
      <trkpt lat="43.56668" lon="1.44226">
        <ele>223</ele>
        <time>2025-02-15T08:15:59Z</time>
      </trkpt>
      <trkpt lat="43.56668" lon="1.44223">
        <ele>223</ele>
        <time>2025-02-15T08:16:00Z</time>
      </trkpt>
      <trkpt lat="43.56669" lon="1.4422">
        <ele>223</ele>
        <time>2025-02-15T08:16:01Z</time>
      </trkpt>
      <trkpt lat="43.56669" lon="1.4422">
        <ele>222</ele>
        <time>2025-02-15T08:16:02Z</time>
      </trkpt>
      <trkpt lat="43.56668" lon="1.44217">
        <ele>222</ele>
        <time>2025-02-15T08:16:03Z</time>
      </trkpt>
      <trkpt lat="43.56668" lon="1.44217">
        <ele>222</ele>
        <time>2025-02-15T08:16:04Z</time>
      </trkpt>
      <trkpt lat="43.56668" lon="1.44217">
        <ele>222</ele>
        <time>2025-02-15T08:16:06Z</time>
      </trkpt>
      <trkpt lat="43.56668" lon="1.44217">
        <ele>222</ele>
        <time>2025-02-15T08:16:07Z</time>
      </trkpt>
      <trkpt lat="43.56668" lon="1.44217">
        <ele>222</ele>
        <time>2025-02-15T08:16:08Z</time>
      </trkpt>
      <trkpt lat="43.5667" lon="1.44215">
        <ele>222</ele>
        <time>2025-02-15T08:16:09Z</time>
      </trkpt>
      <trkpt lat="43.56672" lon="1.44214">
        <ele>222</ele>
        <time>2025-02-15T08:16:10Z</time>
      </trkpt>
      <trkpt lat="43.56672" lon="1.44214">
        <ele>222</ele>
        <time>2025-02-15T08:16:11Z</time>
      </trkpt>
      <trkpt lat="43.56675" lon="1.44214">
        <ele>222</ele>
        <time>2025-02-15T08:16:12Z</time>
      </trkpt>
      <trkpt lat="43.56675" lon="1.44214">
        <ele>221</ele>
        <time>2025-02-15T08:16:13Z</time>
      </trkpt>
      <trkpt lat="43.56679" lon="1.44212">
        <ele>221</ele>
        <time>2025-02-15T08:16:14Z</time>
      </trkpt>
      <trkpt lat="43.56682" lon="1.44212">
        <ele>221</ele>
        <time>2025-02-15T08:16:15Z</time>
      </trkpt>
      <trkpt lat="43.56684" lon="1.44211">
        <ele>222</ele>
        <time>2025-02-15T08:16:16Z</time>
      </trkpt>
      <trkpt lat="43.56686" lon="1.44211">
        <ele>222</ele>
        <time>2025-02-15T08:16:17Z</time>
      </trkpt>
      <trkpt lat="43.56688" lon="1.44211">
        <ele>221</ele>
        <time>2025-02-15T08:16:18Z</time>
      </trkpt>
      <trkpt lat="43.56692" lon="1.44211">
        <ele>221</ele>
        <time>2025-02-15T08:16:19Z</time>
      </trkpt>
      <trkpt lat="43.56693" lon="1.44211">
        <ele>221</ele>
        <time>2025-02-15T08:16:20Z</time>
      </trkpt>
      <trkpt lat="43.56696" lon="1.44211">
        <ele>221</ele>
        <time>2025-02-15T08:16:21Z</time>
      </trkpt>
      <trkpt lat="43.56697" lon="1.44211">
        <ele>221</ele>
        <time>2025-02-15T08:16:22Z</time>
      </trkpt>
      <trkpt lat="43.567" lon="1.4421">
        <ele>221</ele>
        <time>2025-02-15T08:16:23Z</time>
      </trkpt>
      <trkpt lat="43.56702" lon="1.4421">
        <ele>222</ele>
        <time>2025-02-15T08:16:24Z</time>
      </trkpt>
      <trkpt lat="43.56704" lon="1.4421">
        <ele>222</ele>
        <time>2025-02-15T08:16:25Z</time>
      </trkpt>
      <trkpt lat="43.56708" lon="1.44211">
        <ele>222</ele>
        <time>2025-02-15T08:16:26Z</time>
      </trkpt>
      <trkpt lat="43.5671" lon="1.44211">
        <ele>222</ele>
        <time>2025-02-15T08:16:27Z</time>
      </trkpt>
      <trkpt lat="43.56714" lon="1.44211">
        <ele>222</ele>
        <time>2025-02-15T08:16:28Z</time>
      </trkpt>
      <trkpt lat="43.56715" lon="1.44211">
        <ele>222</ele>
        <time>2025-02-15T08:16:29Z</time>
      </trkpt>
      <trkpt lat="43.56718" lon="1.44211">
        <ele>222</ele>
        <time>2025-02-15T08:16:30Z</time>
      </trkpt>
      <trkpt lat="43.56721" lon="1.44212">
        <ele>222</ele>
        <time>2025-02-15T08:16:31Z</time>
      </trkpt>
      <trkpt lat="43.56724" lon="1.44212">
        <ele>222</ele>
        <time>2025-02-15T08:16:32Z</time>
      </trkpt>
      <trkpt lat="43.56727" lon="1.44211">
        <ele>222</ele>
        <time>2025-02-15T08:16:33Z</time>
      </trkpt>
      <trkpt lat="43.5673" lon="1.44211">
        <ele>222</ele>
        <time>2025-02-15T08:16:34Z</time>
      </trkpt>
      <trkpt lat="43.56733" lon="1.44212">
        <ele>222</ele>
        <time>2025-02-15T08:16:35Z</time>
      </trkpt>
      <trkpt lat="43.56736" lon="1.44212">
        <ele>222</ele>
        <time>2025-02-15T08:16:36Z</time>
      </trkpt>
      <trkpt lat="43.56738" lon="1.44213">
        <ele>222</ele>
        <time>2025-02-15T08:16:37Z</time>
      </trkpt>
      <trkpt lat="43.56742" lon="1.44214">
        <ele>222</ele>
        <time>2025-02-15T08:16:38Z</time>
      </trkpt>
      <trkpt lat="43.56743" lon="1.44214">
        <ele>223</ele>
        <time>2025-02-15T08:16:39Z</time>
      </trkpt>
      <trkpt lat="43.56747" lon="1.44214">
        <ele>223</ele>
        <time>2025-02-15T08:16:40Z</time>
      </trkpt>
      <trkpt lat="43.56749" lon="1.44215">
        <ele>223</ele>
        <time>2025-02-15T08:16:41Z</time>
      </trkpt>
      <trkpt lat="43.56751" lon="1.44215">
        <ele>223</ele>
        <time>2025-02-15T08:16:42Z</time>
      </trkpt>
      <trkpt lat="43.56754" lon="1.44216">
        <ele>223</ele>
        <time>2025-02-15T08:16:43Z</time>
      </trkpt>
      <trkpt lat="43.56756" lon="1.44216">
        <ele>223</ele>
        <time>2025-02-15T08:16:44Z</time>
      </trkpt>
      <trkpt lat="43.56761" lon="1.44216">
        <ele>223</ele>
        <time>2025-02-15T08:16:45Z</time>
      </trkpt>
      <trkpt lat="43.56762" lon="1.44217">
        <ele>223</ele>
        <time>2025-02-15T08:16:46Z</time>
      </trkpt>
      <trkpt lat="43.56766" lon="1.44218">
        <ele>223</ele>
        <time>2025-02-15T08:16:47Z</time>
      </trkpt>
      <trkpt lat="43.56767" lon="1.44218">
        <ele>224</ele>
        <time>2025-02-15T08:16:48Z</time>
      </trkpt>
      <trkpt lat="43.5677" lon="1.44218">
        <ele>224</ele>
        <time>2025-02-15T08:16:49Z</time>
      </trkpt>
      <trkpt lat="43.56772" lon="1.44219">
        <ele>224</ele>
        <time>2025-02-15T08:16:50Z</time>
      </trkpt>
      <trkpt lat="43.56775" lon="1.4422">
        <ele>225</ele>
        <time>2025-02-15T08:16:51Z</time>
      </trkpt>
      <trkpt lat="43.56777" lon="1.44221">
        <ele>225</ele>
        <time>2025-02-15T08:16:52Z</time>
      </trkpt>
      <trkpt lat="43.5678" lon="1.44222">
        <ele>225</ele>
        <time>2025-02-15T08:16:53Z</time>
      </trkpt>
      <trkpt lat="43.56782" lon="1.44223">
        <ele>225</ele>
        <time>2025-02-15T08:16:54Z</time>
      </trkpt>
      <trkpt lat="43.56785" lon="1.44224">
        <ele>225</ele>
        <time>2025-02-15T08:16:55Z</time>
      </trkpt>
      <trkpt lat="43.56787" lon="1.44224">
        <ele>225</ele>
        <time>2025-02-15T08:16:56Z</time>
      </trkpt>
      <trkpt lat="43.5679" lon="1.44225">
        <ele>225</ele>
        <time>2025-02-15T08:16:57Z</time>
      </trkpt>
      <trkpt lat="43.56791" lon="1.44226">
        <ele>225</ele>
        <time>2025-02-15T08:16:58Z</time>
      </trkpt>
      <trkpt lat="43.56795" lon="1.44227">
        <ele>225</ele>
        <time>2025-02-15T08:16:59Z</time>
      </trkpt>
      <trkpt lat="43.56797" lon="1.44227">
        <ele>226</ele>
        <time>2025-02-15T08:17:00Z</time>
      </trkpt>
      <trkpt lat="43.56799" lon="1.44228">
        <ele>226</ele>
        <time>2025-02-15T08:17:01Z</time>
      </trkpt>
      <trkpt lat="43.56801" lon="1.44228">
        <ele>226</ele>
        <time>2025-02-15T08:17:02Z</time>
      </trkpt>
      <trkpt lat="43.56804" lon="1.44229">
        <ele>226</ele>
        <time>2025-02-15T08:17:03Z</time>
      </trkpt>
      <trkpt lat="43.56808" lon="1.4423">
        <ele>226</ele>
        <time>2025-02-15T08:17:04Z</time>
      </trkpt>
      <trkpt lat="43.56809" lon="1.4423">
        <ele>226</ele>
        <time>2025-02-15T08:17:05Z</time>
      </trkpt>
      <trkpt lat="43.56813" lon="1.44231">
        <ele>226</ele>
        <time>2025-02-15T08:17:06Z</time>
      </trkpt>
      <trkpt lat="43.56814" lon="1.44232">
        <ele>227</ele>
        <time>2025-02-15T08:17:07Z</time>
      </trkpt>
      <trkpt lat="43.56816" lon="1.44231">
        <ele>227</ele>
        <time>2025-02-15T08:17:08Z</time>
      </trkpt>
      <trkpt lat="43.56819" lon="1.4423">
        <ele>227</ele>
        <time>2025-02-15T08:17:09Z</time>
      </trkpt>
      <trkpt lat="43.56821" lon="1.4423">
        <ele>226</ele>
        <time>2025-02-15T08:17:10Z</time>
      </trkpt>
      <trkpt lat="43.56824" lon="1.44229">
        <ele>226</ele>
        <time>2025-02-15T08:17:11Z</time>
      </trkpt>
      <trkpt lat="43.56826" lon="1.44228">
        <ele>226</ele>
        <time>2025-02-15T08:17:12Z</time>
      </trkpt>
      <trkpt lat="43.56829" lon="1.44227">
        <ele>226</ele>
        <time>2025-02-15T08:17:13Z</time>
      </trkpt>
      <trkpt lat="43.56831" lon="1.44225">
        <ele>226</ele>
        <time>2025-02-15T08:17:14Z</time>
      </trkpt>
      <trkpt lat="43.56833" lon="1.44224">
        <ele>226</ele>
        <time>2025-02-15T08:17:15Z</time>
      </trkpt>
      <trkpt lat="43.56837" lon="1.44223">
        <ele>226</ele>
        <time>2025-02-15T08:17:16Z</time>
      </trkpt>
      <trkpt lat="43.56838" lon="1.44222">
        <ele>226</ele>
        <time>2025-02-15T08:17:17Z</time>
      </trkpt>
      <trkpt lat="43.56842" lon="1.4422">
        <ele>226</ele>
        <time>2025-02-15T08:17:18Z</time>
      </trkpt>
      <trkpt lat="43.56843" lon="1.44219">
        <ele>225</ele>
        <time>2025-02-15T08:17:19Z</time>
      </trkpt>
      <trkpt lat="43.56846" lon="1.44218">
        <ele>225</ele>
        <time>2025-02-15T08:17:20Z</time>
      </trkpt>
      <trkpt lat="43.56849" lon="1.44217">
        <ele>225</ele>
        <time>2025-02-15T08:17:21Z</time>
      </trkpt>
      <trkpt lat="43.56852" lon="1.44217">
        <ele>225</ele>
        <time>2025-02-15T08:17:22Z</time>
      </trkpt>
      <trkpt lat="43.56856" lon="1.44216">
        <ele>225</ele>
        <time>2025-02-15T08:17:23Z</time>
      </trkpt>
      <trkpt lat="43.56857" lon="1.44216">
        <ele>225</ele>
        <time>2025-02-15T08:17:24Z</time>
      </trkpt>
      <trkpt lat="43.56861" lon="1.44215">
        <ele>225</ele>
        <time>2025-02-15T08:17:25Z</time>
      </trkpt>
      <trkpt lat="43.56862" lon="1.44214">
        <ele>225</ele>
        <time>2025-02-15T08:17:26Z</time>
      </trkpt>
      <trkpt lat="43.56865" lon="1.44214">
        <ele>225</ele>
        <time>2025-02-15T08:17:27Z</time>
      </trkpt>
      <trkpt lat="43.56867" lon="1.44213">
        <ele>224</ele>
        <time>2025-02-15T08:17:28Z</time>
      </trkpt>
      <trkpt lat="43.5687" lon="1.44213">
        <ele>224</ele>
        <time>2025-02-15T08:17:29Z</time>
      </trkpt>
      <trkpt lat="43.56872" lon="1.44212">
        <ele>224</ele>
        <time>2025-02-15T08:17:30Z</time>
      </trkpt>
      <trkpt lat="43.56875" lon="1.44212">
        <ele>224</ele>
        <time>2025-02-15T08:17:31Z</time>
      </trkpt>
      <trkpt lat="43.56878" lon="1.44211">
        <ele>224</ele>
        <time>2025-02-15T08:17:32Z</time>
      </trkpt>
      <trkpt lat="43.56881" lon="1.44211">
        <ele>224</ele>
        <time>2025-02-15T08:17:33Z</time>
      </trkpt>
      <trkpt lat="43.56884" lon="1.4421">
        <ele>223</ele>
        <time>2025-02-15T08:17:34Z</time>
      </trkpt>
      <trkpt lat="43.56888" lon="1.4421">
        <ele>223</ele>
        <time>2025-02-15T08:17:35Z</time>
      </trkpt>
      <trkpt lat="43.56889" lon="1.4421">
        <ele>222</ele>
        <time>2025-02-15T08:17:36Z</time>
      </trkpt>
      <trkpt lat="43.56893" lon="1.44209">
        <ele>222</ele>
        <time>2025-02-15T08:17:37Z</time>
      </trkpt>
      <trkpt lat="43.56894" lon="1.44208">
        <ele>221</ele>
        <time>2025-02-15T08:17:38Z</time>
      </trkpt>
      <trkpt lat="43.56898" lon="1.44207">
        <ele>221</ele>
        <time>2025-02-15T08:17:39Z</time>
      </trkpt>
      <trkpt lat="43.56899" lon="1.44207">
        <ele>221</ele>
        <time>2025-02-15T08:17:40Z</time>
      </trkpt>
      <trkpt lat="43.56902" lon="1.44206">
        <ele>221</ele>
        <time>2025-02-15T08:17:41Z</time>
      </trkpt>
      <trkpt lat="43.56904" lon="1.44206">
        <ele>221</ele>
        <time>2025-02-15T08:17:42Z</time>
      </trkpt>
      <trkpt lat="43.56908" lon="1.44205">
        <ele>221</ele>
        <time>2025-02-15T08:17:43Z</time>
      </trkpt>
      <trkpt lat="43.56909" lon="1.44205">
        <ele>220</ele>
        <time>2025-02-15T08:17:44Z</time>
      </trkpt>
      <trkpt lat="43.56914" lon="1.44204">
        <ele>220</ele>
        <time>2025-02-15T08:17:45Z</time>
      </trkpt>
      <trkpt lat="43.56915" lon="1.44204">
        <ele>220</ele>
        <time>2025-02-15T08:17:46Z</time>
      </trkpt>
      <trkpt lat="43.56917" lon="1.44203">
        <ele>220</ele>
        <time>2025-02-15T08:17:47Z</time>
      </trkpt>
      <trkpt lat="43.5692" lon="1.44203">
        <ele>220</ele>
        <time>2025-02-15T08:17:48Z</time>
      </trkpt>
      <trkpt lat="43.56922" lon="1.44202">
        <ele>219</ele>
        <time>2025-02-15T08:17:49Z</time>
      </trkpt>
      <trkpt lat="43.56925" lon="1.44201">
        <ele>219</ele>
        <time>2025-02-15T08:17:50Z</time>
      </trkpt>
      <trkpt lat="43.56925" lon="1.44201">
        <ele>219</ele>
        <time>2025-02-15T08:17:51Z</time>
      </trkpt>
      <trkpt lat="43.56929" lon="1.44201">
        <ele>219</ele>
        <time>2025-02-15T08:17:52Z</time>
      </trkpt>
      <trkpt lat="43.56932" lon="1.44201">
        <ele>218</ele>
        <time>2025-02-15T08:17:53Z</time>
      </trkpt>
      <trkpt lat="43.56934" lon="1.44201">
        <ele>217</ele>
        <time>2025-02-15T08:17:54Z</time>
      </trkpt>
      <trkpt lat="43.56937" lon="1.44201">
        <ele>217</ele>
        <time>2025-02-15T08:17:55Z</time>
      </trkpt>
      <trkpt lat="43.56941" lon="1.44201">
        <ele>217</ele>
        <time>2025-02-15T08:17:56Z</time>
      </trkpt>
      <trkpt lat="43.56942" lon="1.44202">
        <ele>217</ele>
        <time>2025-02-15T08:17:57Z</time>
      </trkpt>
      <trkpt lat="43.56945" lon="1.44201">
        <ele>217</ele>
        <time>2025-02-15T08:17:58Z</time>
      </trkpt>
      <trkpt lat="43.56947" lon="1.44201">
        <ele>216</ele>
        <time>2025-02-15T08:17:59Z</time>
      </trkpt>
      <trkpt lat="43.56949" lon="1.44201">
        <ele>216</ele>
        <time>2025-02-15T08:18:00Z</time>
      </trkpt>
      <trkpt lat="43.56952" lon="1.44201">
        <ele>215</ele>
        <time>2025-02-15T08:18:01Z</time>
      </trkpt>
      <trkpt lat="43.56954" lon="1.44201">
        <ele>215</ele>
        <time>2025-02-15T08:18:02Z</time>
      </trkpt>
      <trkpt lat="43.56958" lon="1.44201">
        <ele>215</ele>
        <time>2025-02-15T08:18:03Z</time>
      </trkpt>
      <trkpt lat="43.56959" lon="1.44201">
        <ele>215</ele>
        <time>2025-02-15T08:18:04Z</time>
      </trkpt>
      <trkpt lat="43.56963" lon="1.442">
        <ele>215</ele>
        <time>2025-02-15T08:18:05Z</time>
      </trkpt>
      <trkpt lat="43.56965" lon="1.442">
        <ele>215</ele>
        <time>2025-02-15T08:18:06Z</time>
      </trkpt>
      <trkpt lat="43.56967" lon="1.44199">
        <ele>215</ele>
        <time>2025-02-15T08:18:07Z</time>
      </trkpt>
      <trkpt lat="43.5697" lon="1.44198">
        <ele>214</ele>
        <time>2025-02-15T08:18:08Z</time>
      </trkpt>
      <trkpt lat="43.56972" lon="1.44197">
        <ele>214</ele>
        <time>2025-02-15T08:18:09Z</time>
      </trkpt>
      <trkpt lat="43.56975" lon="1.44197">
        <ele>214</ele>
        <time>2025-02-15T08:18:10Z</time>
      </trkpt>
      <trkpt lat="43.56977" lon="1.44196">
        <ele>214</ele>
        <time>2025-02-15T08:18:11Z</time>
      </trkpt>
      <trkpt lat="43.56981" lon="1.44194">
        <ele>214</ele>
        <time>2025-02-15T08:18:12Z</time>
      </trkpt>
      <trkpt lat="43.56982" lon="1.44194">
        <ele>213</ele>
        <time>2025-02-15T08:18:13Z</time>
      </trkpt>
      <trkpt lat="43.56984" lon="1.44194">
        <ele>213</ele>
        <time>2025-02-15T08:18:14Z</time>
      </trkpt>
      <trkpt lat="43.56987" lon="1.44194">
        <ele>213</ele>
        <time>2025-02-15T08:18:15Z</time>
      </trkpt>
      <trkpt lat="43.5699" lon="1.44194">
        <ele>213</ele>
        <time>2025-02-15T08:18:16Z</time>
      </trkpt>
      <trkpt lat="43.56993" lon="1.44195">
        <ele>213</ele>
        <time>2025-02-15T08:18:17Z</time>
      </trkpt>
      <trkpt lat="43.56994" lon="1.44195">
        <ele>213</ele>
        <time>2025-02-15T08:18:18Z</time>
      </trkpt>
      <trkpt lat="43.56998" lon="1.44195">
        <ele>213</ele>
        <time>2025-02-15T08:18:19Z</time>
      </trkpt>
      <trkpt lat="43.56999" lon="1.44195">
        <ele>212</ele>
        <time>2025-02-15T08:18:20Z</time>
      </trkpt>
      <trkpt lat="43.57002" lon="1.44195">
        <ele>212</ele>
        <time>2025-02-15T08:18:21Z</time>
      </trkpt>
      <trkpt lat="43.57004" lon="1.44195">
        <ele>212</ele>
        <time>2025-02-15T08:18:22Z</time>
      </trkpt>
      <trkpt lat="43.57006" lon="1.44195">
        <ele>212</ele>
        <time>2025-02-15T08:18:23Z</time>
      </trkpt>
      <trkpt lat="43.5701" lon="1.44195">
        <ele>212</ele>
        <time>2025-02-15T08:18:24Z</time>
      </trkpt>
      <trkpt lat="43.57011" lon="1.44195">
        <ele>211</ele>
        <time>2025-02-15T08:18:25Z</time>
      </trkpt>
      <trkpt lat="43.57015" lon="1.44194">
        <ele>211</ele>
        <time>2025-02-15T08:18:26Z</time>
      </trkpt>
      <trkpt lat="43.57016" lon="1.44194">
        <ele>211</ele>
        <time>2025-02-15T08:18:27Z</time>
      </trkpt>
      <trkpt lat="43.5702" lon="1.44194">
        <ele>211</ele>
        <time>2025-02-15T08:18:28Z</time>
      </trkpt>
      <trkpt lat="43.57021" lon="1.44194">
        <ele>210</ele>
        <time>2025-02-15T08:18:29Z</time>
      </trkpt>
      <trkpt lat="43.57025" lon="1.44193">
        <ele>210</ele>
        <time>2025-02-15T08:18:30Z</time>
      </trkpt>
      <trkpt lat="43.57026" lon="1.44193">
        <ele>210</ele>
        <time>2025-02-15T08:18:31Z</time>
      </trkpt>
      <trkpt lat="43.5703" lon="1.44193">
        <ele>210</ele>
        <time>2025-02-15T08:18:32Z</time>
      </trkpt>
      <trkpt lat="43.57031" lon="1.44193">
        <ele>209</ele>
        <time>2025-02-15T08:18:33Z</time>
      </trkpt>
      <trkpt lat="43.57035" lon="1.44193">
        <ele>209</ele>
        <time>2025-02-15T08:18:34Z</time>
      </trkpt>
      <trkpt lat="43.5704" lon="1.44192">
        <ele>209</ele>
        <time>2025-02-15T08:18:35Z</time>
      </trkpt>
      <trkpt lat="43.57041" lon="1.44191">
        <ele>208</ele>
        <time>2025-02-15T08:18:36Z</time>
      </trkpt>
      <trkpt lat="43.57044" lon="1.44191">
        <ele>208</ele>
        <time>2025-02-15T08:18:37Z</time>
      </trkpt>
      <trkpt lat="43.57049" lon="1.44188">
        <ele>206</ele>
        <time>2025-02-15T08:19:10Z</time>
      </trkpt>
      <trkpt lat="43.57051" lon="1.44187">
        <ele>206</ele>
        <time>2025-02-15T08:19:11Z</time>
      </trkpt>
      <trkpt lat="43.57055" lon="1.44185">
        <ele>206</ele>
        <time>2025-02-15T08:19:12Z</time>
      </trkpt>
      <trkpt lat="43.57056" lon="1.44184">
        <ele>206</ele>
        <time>2025-02-15T08:19:13Z</time>
      </trkpt>
      <trkpt lat="43.5706" lon="1.44181">
        <ele>206</ele>
        <time>2025-02-15T08:19:14Z</time>
      </trkpt>
      <trkpt lat="43.57061" lon="1.44181">
        <ele>205</ele>
        <time>2025-02-15T08:19:15Z</time>
      </trkpt>
      <trkpt lat="43.57064" lon="1.44179">
        <ele>205</ele>
        <time>2025-02-15T08:19:16Z</time>
      </trkpt>
      <trkpt lat="43.57066" lon="1.44177">
        <ele>205</ele>
        <time>2025-02-15T08:19:17Z</time>
      </trkpt>
      <trkpt lat="43.57069" lon="1.44175">
        <ele>205</ele>
        <time>2025-02-15T08:19:18Z</time>
      </trkpt>
      <trkpt lat="43.57073" lon="1.44174">
        <ele>205</ele>
        <time>2025-02-15T08:19:19Z</time>
      </trkpt>
      <trkpt lat="43.57074" lon="1.44173">
        <ele>204</ele>
        <time>2025-02-15T08:19:20Z</time>
      </trkpt>
      <trkpt lat="43.57079" lon="1.44171">
        <ele>204</ele>
        <time>2025-02-15T08:19:21Z</time>
      </trkpt>
      <trkpt lat="43.5708" lon="1.44171">
        <ele>203</ele>
        <time>2025-02-15T08:19:22Z</time>
      </trkpt>
      <trkpt lat="43.57083" lon="1.44169">
        <ele>203</ele>
        <time>2025-02-15T08:19:23Z</time>
      </trkpt>
      <trkpt lat="43.57087" lon="1.44168">
        <ele>203</ele>
        <time>2025-02-15T08:19:24Z</time>
      </trkpt>
      <trkpt lat="43.57089" lon="1.44167">
        <ele>202</ele>
        <time>2025-02-15T08:19:25Z</time>
      </trkpt>
      <trkpt lat="43.57093" lon="1.44166">
        <ele>202</ele>
        <time>2025-02-15T08:19:26Z</time>
      </trkpt>
      <trkpt lat="43.57095" lon="1.44166">
        <ele>203</ele>
        <time>2025-02-15T08:19:27Z</time>
      </trkpt>
      <trkpt lat="43.57098" lon="1.44165">
        <ele>203</ele>
        <time>2025-02-15T08:19:28Z</time>
      </trkpt>
      <trkpt lat="43.57102" lon="1.44164">
        <ele>203</ele>
        <time>2025-02-15T08:19:29Z</time>
      </trkpt>
      <trkpt lat="43.57103" lon="1.44164">
        <ele>201</ele>
        <time>2025-02-15T08:19:30Z</time>
      </trkpt>
      <trkpt lat="43.57106" lon="1.44163">
        <ele>201</ele>
        <time>2025-02-15T08:19:31Z</time>
      </trkpt>
      <trkpt lat="43.57109" lon="1.44162">
        <ele>200</ele>
        <time>2025-02-15T08:19:32Z</time>
      </trkpt>
      <trkpt lat="43.57112" lon="1.44161">
        <ele>200</ele>
        <time>2025-02-15T08:19:33Z</time>
      </trkpt>
      <trkpt lat="43.57113" lon="1.4416">
        <ele>200</ele>
        <time>2025-02-15T08:19:34Z</time>
      </trkpt>
      <trkpt lat="43.57117" lon="1.44159">
        <ele>200</ele>
        <time>2025-02-15T08:19:35Z</time>
      </trkpt>
      <trkpt lat="43.57118" lon="1.44158">
        <ele>200</ele>
        <time>2025-02-15T08:19:36Z</time>
      </trkpt>
      <trkpt lat="43.57121" lon="1.44158">
        <ele>199</ele>
        <time>2025-02-15T08:19:37Z</time>
      </trkpt>
      <trkpt lat="43.57124" lon="1.44158">
        <ele>198</ele>
        <time>2025-02-15T08:19:38Z</time>
      </trkpt>
      <trkpt lat="43.57128" lon="1.44158">
        <ele>198</ele>
        <time>2025-02-15T08:19:39Z</time>
      </trkpt>
      <trkpt lat="43.57129" lon="1.44158">
        <ele>198</ele>
        <time>2025-02-15T08:19:40Z</time>
      </trkpt>
      <trkpt lat="43.57134" lon="1.44155">
        <ele>198</ele>
        <time>2025-02-15T08:19:41Z</time>
      </trkpt>
      <trkpt lat="43.57135" lon="1.44155">
        <ele>197</ele>
        <time>2025-02-15T08:19:42Z</time>
      </trkpt>
      <trkpt lat="43.57138" lon="1.44152">
        <ele>197</ele>
        <time>2025-02-15T08:19:43Z</time>
      </trkpt>
      <trkpt lat="43.57141" lon="1.4415">
        <ele>197</ele>
        <time>2025-02-15T08:19:44Z</time>
      </trkpt>
      <trkpt lat="43.57144" lon="1.44148">
        <ele>196</ele>
        <time>2025-02-15T08:19:45Z</time>
      </trkpt>
      <trkpt lat="43.57149" lon="1.44145">
        <ele>196</ele>
        <time>2025-02-15T08:19:46Z</time>
      </trkpt>
      <trkpt lat="43.5715" lon="1.44144">
        <ele>195</ele>
        <time>2025-02-15T08:19:47Z</time>
      </trkpt>
      <trkpt lat="43.57155" lon="1.44144">
        <ele>195</ele>
        <time>2025-02-15T08:19:48Z</time>
      </trkpt>
      <trkpt lat="43.57157" lon="1.44144">
        <ele>193</ele>
        <time>2025-02-15T08:19:49Z</time>
      </trkpt>
      <trkpt lat="43.57162" lon="1.44144">
        <ele>193</ele>
        <time>2025-02-15T08:19:50Z</time>
      </trkpt>
      <trkpt lat="43.57164" lon="1.44145">
        <ele>192</ele>
        <time>2025-02-15T08:19:51Z</time>
      </trkpt>
      <trkpt lat="43.57167" lon="1.44145">
        <ele>191</ele>
        <time>2025-02-15T08:19:52Z</time>
      </trkpt>
      <trkpt lat="43.5717" lon="1.44145">
        <ele>191</ele>
        <time>2025-02-15T08:19:53Z</time>
      </trkpt>
      <trkpt lat="43.57175" lon="1.44145">
        <ele>191</ele>
        <time>2025-02-15T08:19:54Z</time>
      </trkpt>
      <trkpt lat="43.57176" lon="1.44145">
        <ele>191</ele>
        <time>2025-02-15T08:19:55Z</time>
      </trkpt>
      <trkpt lat="43.5718" lon="1.44145">
        <ele>191</ele>
        <time>2025-02-15T08:19:56Z</time>
      </trkpt>
      <trkpt lat="43.57182" lon="1.44145">
        <ele>189</ele>
        <time>2025-02-15T08:19:57Z</time>
      </trkpt>
      <trkpt lat="43.57185" lon="1.44144">
        <ele>189</ele>
        <time>2025-02-15T08:19:58Z</time>
      </trkpt>
      <trkpt lat="43.57189" lon="1.44144">
        <ele>189</ele>
        <time>2025-02-15T08:19:59Z</time>
      </trkpt>
      <trkpt lat="43.57193" lon="1.44143">
        <ele>189</ele>
        <time>2025-02-15T08:20:00Z</time>
      </trkpt>
      <trkpt lat="43.57195" lon="1.44142">
        <ele>188</ele>
        <time>2025-02-15T08:20:01Z</time>
      </trkpt>
      <trkpt lat="43.57199" lon="1.44141">
        <ele>188</ele>
        <time>2025-02-15T08:20:02Z</time>
      </trkpt>
      <trkpt lat="43.57201" lon="1.44141">
        <ele>188</ele>
        <time>2025-02-15T08:20:03Z</time>
      </trkpt>
      <trkpt lat="43.57204" lon="1.4414">
        <ele>188</ele>
        <time>2025-02-15T08:20:04Z</time>
      </trkpt>
      <trkpt lat="43.57207" lon="1.44139">
        <ele>188</ele>
        <time>2025-02-15T08:20:05Z</time>
      </trkpt>
      <trkpt lat="43.5721" lon="1.44138">
        <ele>188</ele>
        <time>2025-02-15T08:20:06Z</time>
      </trkpt>
      <trkpt lat="43.57214" lon="1.44136">
        <ele>188</ele>
        <time>2025-02-15T08:20:07Z</time>
      </trkpt>
      <trkpt lat="43.57215" lon="1.44136">
        <ele>187</ele>
        <time>2025-02-15T08:20:08Z</time>
      </trkpt>
      <trkpt lat="43.57218" lon="1.44135">
        <ele>187</ele>
        <time>2025-02-15T08:20:09Z</time>
      </trkpt>
      <trkpt lat="43.57221" lon="1.44135">
        <ele>187</ele>
        <time>2025-02-15T08:20:10Z</time>
      </trkpt>
      <trkpt lat="43.57226" lon="1.44135">
        <ele>187</ele>
        <time>2025-02-15T08:20:11Z</time>
      </trkpt>
      <trkpt lat="43.57227" lon="1.44135">
        <ele>187</ele>
        <time>2025-02-15T08:20:12Z</time>
      </trkpt>
      <trkpt lat="43.5723" lon="1.44136">
        <ele>187</ele>
        <time>2025-02-15T08:20:13Z</time>
      </trkpt>
      <trkpt lat="43.57233" lon="1.44137">
        <ele>187</ele>
        <time>2025-02-15T08:20:14Z</time>
      </trkpt>
      <trkpt lat="43.57236" lon="1.44137">
        <ele>187</ele>
        <time>2025-02-15T08:20:15Z</time>
      </trkpt>
      <trkpt lat="43.5724" lon="1.44137">
        <ele>187</ele>
        <time>2025-02-15T08:20:16Z</time>
      </trkpt>
      <trkpt lat="43.57242" lon="1.44137">
        <ele>186</ele>
        <time>2025-02-15T08:20:17Z</time>
      </trkpt>
      <trkpt lat="43.57246" lon="1.44138">
        <ele>186</ele>
        <time>2025-02-15T08:20:18Z</time>
      </trkpt>
      <trkpt lat="43.57247" lon="1.44138">
        <ele>185</ele>
        <time>2025-02-15T08:20:19Z</time>
      </trkpt>
      <trkpt lat="43.5725" lon="1.44139">
        <ele>185</ele>
        <time>2025-02-15T08:20:20Z</time>
      </trkpt>
      <trkpt lat="43.57253" lon="1.4414">
        <ele>185</ele>
        <time>2025-02-15T08:20:21Z</time>
      </trkpt>
      <trkpt lat="43.57256" lon="1.4414">
        <ele>185</ele>
        <time>2025-02-15T08:20:22Z</time>
      </trkpt>
      <trkpt lat="43.5726" lon="1.44141">
        <ele>185</ele>
        <time>2025-02-15T08:20:23Z</time>
      </trkpt>
      <trkpt lat="43.57261" lon="1.44141">
        <ele>185</ele>
        <time>2025-02-15T08:20:24Z</time>
      </trkpt>
      <trkpt lat="43.57264" lon="1.44141">
        <ele>185</ele>
        <time>2025-02-15T08:20:25Z</time>
      </trkpt>
      <trkpt lat="43.57267" lon="1.44141">
        <ele>185</ele>
        <time>2025-02-15T08:20:26Z</time>
      </trkpt>
      <trkpt lat="43.5727" lon="1.44141">
        <ele>185</ele>
        <time>2025-02-15T08:20:27Z</time>
      </trkpt>
      <trkpt lat="43.57274" lon="1.4414">
        <ele>185</ele>
        <time>2025-02-15T08:20:28Z</time>
      </trkpt>
      <trkpt lat="43.57275" lon="1.4414">
        <ele>185</ele>
        <time>2025-02-15T08:20:29Z</time>
      </trkpt>
      <trkpt lat="43.5728" lon="1.44139">
        <ele>185</ele>
        <time>2025-02-15T08:20:30Z</time>
      </trkpt>
      <trkpt lat="43.57281" lon="1.44138">
        <ele>184</ele>
        <time>2025-02-15T08:20:31Z</time>
      </trkpt>
      <trkpt lat="43.57284" lon="1.44137">
        <ele>184</ele>
        <time>2025-02-15T08:20:32Z</time>
      </trkpt>
      <trkpt lat="43.57287" lon="1.44136">
        <ele>184</ele>
        <time>2025-02-15T08:20:33Z</time>
      </trkpt>
      <trkpt lat="43.5729" lon="1.44135">
        <ele>184</ele>
        <time>2025-02-15T08:20:34Z</time>
      </trkpt>
      <trkpt lat="43.57295" lon="1.44135">
        <ele>184</ele>
        <time>2025-02-15T08:20:35Z</time>
      </trkpt>
      <trkpt lat="43.57297" lon="1.44135">
        <ele>183</ele>
        <time>2025-02-15T08:20:36Z</time>
      </trkpt>
      <trkpt lat="43.573" lon="1.44134">
        <ele>182</ele>
        <time>2025-02-15T08:20:37Z</time>
      </trkpt>
      <trkpt lat="43.57303" lon="1.44133">
        <ele>182</ele>
        <time>2025-02-15T08:20:38Z</time>
      </trkpt>
      <trkpt lat="43.57306" lon="1.44132">
        <ele>182</ele>
        <time>2025-02-15T08:20:39Z</time>
      </trkpt>
      <trkpt lat="43.57309" lon="1.44131">
        <ele>182</ele>
        <time>2025-02-15T08:20:40Z</time>
      </trkpt>
      <trkpt lat="43.57312" lon="1.44129">
        <ele>182</ele>
        <time>2025-02-15T08:20:41Z</time>
      </trkpt>
      <trkpt lat="43.57316" lon="1.44127">
        <ele>182</ele>
        <time>2025-02-15T08:20:42Z</time>
      </trkpt>
      <trkpt lat="43.57317" lon="1.44126">
        <ele>181</ele>
        <time>2025-02-15T08:20:43Z</time>
      </trkpt>
      <trkpt lat="43.5732" lon="1.44125">
        <ele>181</ele>
        <time>2025-02-15T08:20:44Z</time>
      </trkpt>
      <trkpt lat="43.57323" lon="1.44124">
        <ele>181</ele>
        <time>2025-02-15T08:20:45Z</time>
      </trkpt>
      <trkpt lat="43.57326" lon="1.44123">
        <ele>180</ele>
        <time>2025-02-15T08:20:46Z</time>
      </trkpt>
      <trkpt lat="43.5733" lon="1.44121">
        <ele>178</ele>
        <time>2025-02-15T08:20:47Z</time>
      </trkpt>
      <trkpt lat="43.57333" lon="1.44118">
        <ele>177</ele>
        <time>2025-02-15T08:20:48Z</time>
      </trkpt>
      <trkpt lat="43.57337" lon="1.44114">
        <ele>177</ele>
        <time>2025-02-15T08:20:49Z</time>
      </trkpt>
      <trkpt lat="43.57339" lon="1.44112">
        <ele>177</ele>
        <time>2025-02-15T08:20:50Z</time>
      </trkpt>
      <trkpt lat="43.57344" lon="1.44108">
        <ele>177</ele>
        <time>2025-02-15T08:20:51Z</time>
      </trkpt>
      <trkpt lat="43.57345" lon="1.44107">
        <ele>176</ele>
        <time>2025-02-15T08:20:52Z</time>
      </trkpt>
      <trkpt lat="43.57349" lon="1.44104">
        <ele>175</ele>
        <time>2025-02-15T08:20:53Z</time>
      </trkpt>
      <trkpt lat="43.57352" lon="1.44102">
        <ele>174</ele>
        <time>2025-02-15T08:20:54Z</time>
      </trkpt>
      <trkpt lat="43.57356" lon="1.44101">
        <ele>173</ele>
        <time>2025-02-15T08:20:55Z</time>
      </trkpt>
      <trkpt lat="43.57361" lon="1.44101">
        <ele>173</ele>
        <time>2025-02-15T08:20:56Z</time>
      </trkpt>
      <trkpt lat="43.57363" lon="1.44101">
        <ele>172</ele>
        <time>2025-02-15T08:20:57Z</time>
      </trkpt>
      <trkpt lat="43.57366" lon="1.441">
        <ele>172</ele>
        <time>2025-02-15T08:20:58Z</time>
      </trkpt>
      <trkpt lat="43.57369" lon="1.44099">
        <ele>172</ele>
        <time>2025-02-15T08:20:59Z</time>
      </trkpt>
      <trkpt lat="43.57373" lon="1.44098">
        <ele>172</ele>
        <time>2025-02-15T08:21:00Z</time>
      </trkpt>
      <trkpt lat="43.57378" lon="1.44097">
        <ele>172</ele>
        <time>2025-02-15T08:21:01Z</time>
      </trkpt>
      <trkpt lat="43.5738" lon="1.44097">
        <ele>172</ele>
        <time>2025-02-15T08:21:02Z</time>
      </trkpt>
      <trkpt lat="43.57383" lon="1.44096">
        <ele>171</ele>
        <time>2025-02-15T08:21:03Z</time>
      </trkpt>
      <trkpt lat="43.57388" lon="1.44096">
        <ele>171</ele>
        <time>2025-02-15T08:21:04Z</time>
      </trkpt>
      <trkpt lat="43.5739" lon="1.44096">
        <ele>170</ele>
        <time>2025-02-15T08:21:05Z</time>
      </trkpt>
      <trkpt lat="43.57393" lon="1.44098">
        <ele>170</ele>
        <time>2025-02-15T08:21:06Z</time>
      </trkpt>
      <trkpt lat="43.57396" lon="1.44101">
        <ele>170</ele>
        <time>2025-02-15T08:21:07Z</time>
      </trkpt>
      <trkpt lat="43.574" lon="1.44108">
        <ele>170</ele>
        <time>2025-02-15T08:21:08Z</time>
      </trkpt>
      <trkpt lat="43.57401" lon="1.4411">
        <ele>170</ele>
        <time>2025-02-15T08:21:09Z</time>
      </trkpt>
      <trkpt lat="43.57405" lon="1.44114">
        <ele>170</ele>
        <time>2025-02-15T08:21:10Z</time>
      </trkpt>
      <trkpt lat="43.57406" lon="1.44116">
        <ele>169</ele>
        <time>2025-02-15T08:21:11Z</time>
      </trkpt>
      <trkpt lat="43.57411" lon="1.44119">
        <ele>169</ele>
        <time>2025-02-15T08:21:12Z</time>
      </trkpt>
      <trkpt lat="43.57412" lon="1.4412">
        <ele>167</ele>
        <time>2025-02-15T08:21:13Z</time>
      </trkpt>
      <trkpt lat="43.57416" lon="1.44124">
        <ele>167</ele>
        <time>2025-02-15T08:21:14Z</time>
      </trkpt>
      <trkpt lat="43.57417" lon="1.44125">
        <ele>165</ele>
        <time>2025-02-15T08:21:15Z</time>
      </trkpt>
      <trkpt lat="43.5742" lon="1.44129">
        <ele>165</ele>
        <time>2025-02-15T08:21:16Z</time>
      </trkpt>
      <trkpt lat="43.57422" lon="1.44133">
        <ele>164</ele>
        <time>2025-02-15T08:21:17Z</time>
      </trkpt>
      <trkpt lat="43.57424" lon="1.44137">
        <ele>164</ele>
        <time>2025-02-15T08:21:18Z</time>
      </trkpt>
      <trkpt lat="43.57427" lon="1.44141">
        <ele>164</ele>
        <time>2025-02-15T08:21:19Z</time>
      </trkpt>
      <trkpt lat="43.57429" lon="1.44143">
        <ele>163</ele>
        <time>2025-02-15T08:21:20Z</time>
      </trkpt>
      <trkpt lat="43.57432" lon="1.44147">
        <ele>163</ele>
        <time>2025-02-15T08:21:21Z</time>
      </trkpt>
      <trkpt lat="43.57433" lon="1.44149">
        <ele>162</ele>
        <time>2025-02-15T08:21:22Z</time>
      </trkpt>
      <trkpt lat="43.57437" lon="1.44154">
        <ele>162</ele>
        <time>2025-02-15T08:21:23Z</time>
      </trkpt>
      <trkpt lat="43.57438" lon="1.44156">
        <ele>161</ele>
        <time>2025-02-15T08:21:24Z</time>
      </trkpt>
      <trkpt lat="43.57441" lon="1.44158">
        <ele>161</ele>
        <time>2025-02-15T08:21:25Z</time>
      </trkpt>
      <trkpt lat="43.57444" lon="1.44161">
        <ele>160</ele>
        <time>2025-02-15T08:21:26Z</time>
      </trkpt>
      <trkpt lat="43.57449" lon="1.44164">
        <ele>160</ele>
        <time>2025-02-15T08:21:27Z</time>
      </trkpt>
      <trkpt lat="43.5745" lon="1.44165">
        <ele>158</ele>
        <time>2025-02-15T08:21:28Z</time>
      </trkpt>
      <trkpt lat="43.57452" lon="1.44167">
        <ele>158</ele>
        <time>2025-02-15T08:21:29Z</time>
      </trkpt>
      <trkpt lat="43.57455" lon="1.4417">
        <ele>157</ele>
        <time>2025-02-15T08:21:30Z</time>
      </trkpt>
      <trkpt lat="43.57458" lon="1.44172">
        <ele>156</ele>
        <time>2025-02-15T08:21:31Z</time>
      </trkpt>
      <trkpt lat="43.57463" lon="1.44177">
        <ele>156</ele>
        <time>2025-02-15T08:21:32Z</time>
      </trkpt>
      <trkpt lat="43.57464" lon="1.44178">
        <ele>155</ele>
        <time>2025-02-15T08:21:33Z</time>
      </trkpt>
      <trkpt lat="43.57468" lon="1.44183">
        <ele>155</ele>
        <time>2025-02-15T08:21:34Z</time>
      </trkpt>
      <trkpt lat="43.5747" lon="1.44184">
        <ele>154</ele>
        <time>2025-02-15T08:21:35Z</time>
      </trkpt>
      <trkpt lat="43.57472" lon="1.44188">
        <ele>153</ele>
        <time>2025-02-15T08:21:36Z</time>
      </trkpt>
      <trkpt lat="43.57473" lon="1.44192">
        <ele>152</ele>
        <time>2025-02-15T08:21:37Z</time>
      </trkpt>
      <trkpt lat="43.57475" lon="1.44196">
        <ele>152</ele>
        <time>2025-02-15T08:21:38Z</time>
      </trkpt>
      <trkpt lat="43.57478" lon="1.44201">
        <ele>152</ele>
        <time>2025-02-15T08:21:39Z</time>
      </trkpt>
      <trkpt lat="43.57479" lon="1.44203">
        <ele>151</ele>
        <time>2025-02-15T08:21:40Z</time>
      </trkpt>
      <trkpt lat="43.57481" lon="1.44205">
        <ele>151</ele>
        <time>2025-02-15T08:21:41Z</time>
      </trkpt>
      <trkpt lat="43.57484" lon="1.44209">
        <ele>150</ele>
        <time>2025-02-15T08:21:42Z</time>
      </trkpt>
      <trkpt lat="43.57486" lon="1.44212">
        <ele>150</ele>
        <time>2025-02-15T08:21:43Z</time>
      </trkpt>
      <trkpt lat="43.5749" lon="1.44217">
        <ele>150</ele>
        <time>2025-02-15T08:21:44Z</time>
      </trkpt>
      <trkpt lat="43.57491" lon="1.44218">
        <ele>149</ele>
        <time>2025-02-15T08:21:45Z</time>
      </trkpt>
      <trkpt lat="43.57494" lon="1.44224">
        <ele>149</ele>
        <time>2025-02-15T08:21:46Z</time>
      </trkpt>
      <trkpt lat="43.57495" lon="1.44225">
        <ele>148</ele>
        <time>2025-02-15T08:21:47Z</time>
      </trkpt>
      <trkpt lat="43.57498" lon="1.44229">
        <ele>147</ele>
        <time>2025-02-15T08:21:48Z</time>
      </trkpt>
      <trkpt lat="43.57499" lon="1.44233">
        <ele>147</ele>
        <time>2025-02-15T08:21:49Z</time>
      </trkpt>
      <trkpt lat="43.575" lon="1.44236">
        <ele>146</ele>
        <time>2025-02-15T08:21:50Z</time>
      </trkpt>
      <trkpt lat="43.57503" lon="1.44241">
        <ele>146</ele>
        <time>2025-02-15T08:21:51Z</time>
      </trkpt>
      <trkpt lat="43.57503" lon="1.44243">
        <ele>146</ele>
        <time>2025-02-15T08:21:52Z</time>
      </trkpt>
      <trkpt lat="43.57505" lon="1.44247">
        <ele>146</ele>
        <time>2025-02-15T08:21:53Z</time>
      </trkpt>
      <trkpt lat="43.57506" lon="1.44248">
        <ele>146</ele>
        <time>2025-02-15T08:21:54Z</time>
      </trkpt>
      <trkpt lat="43.57507" lon="1.44251">
        <ele>146</ele>
        <time>2025-02-15T08:21:55Z</time>
      </trkpt>
      <trkpt lat="43.57509" lon="1.44254">
        <ele>146</ele>
        <time>2025-02-15T08:21:56Z</time>
      </trkpt>
      <trkpt lat="43.57511" lon="1.44257">
        <ele>146</ele>
        <time>2025-02-15T08:21:57Z</time>
      </trkpt>
      <trkpt lat="43.57513" lon="1.4426">
        <ele>146</ele>
        <time>2025-02-15T08:21:58Z</time>
      </trkpt>
      <trkpt lat="43.57515" lon="1.44262">
        <ele>145</ele>
        <time>2025-02-15T08:21:59Z</time>
      </trkpt>
      <trkpt lat="43.57517" lon="1.44265">
        <ele>145</ele>
        <time>2025-02-15T08:22:00Z</time>
      </trkpt>
      <trkpt lat="43.5752" lon="1.44269">
        <ele>145</ele>
        <time>2025-02-15T08:22:01Z</time>
      </trkpt>
      <trkpt lat="43.5752" lon="1.4427">
        <ele>145</ele>
        <time>2025-02-15T08:22:02Z</time>
      </trkpt>
      <trkpt lat="43.57523" lon="1.44275">
        <ele>145</ele>
        <time>2025-02-15T08:22:03Z</time>
      </trkpt>
      <trkpt lat="43.57523" lon="1.44276">
        <ele>145</ele>
        <time>2025-02-15T08:22:04Z</time>
      </trkpt>
      <trkpt lat="43.57525" lon="1.44279">
        <ele>144</ele>
        <time>2025-02-15T08:22:05Z</time>
      </trkpt>
      <trkpt lat="43.57527" lon="1.44281">
        <ele>144</ele>
        <time>2025-02-15T08:22:06Z</time>
      </trkpt>
      <trkpt lat="43.57528" lon="1.44284">
        <ele>144</ele>
        <time>2025-02-15T08:22:07Z</time>
      </trkpt>
      <trkpt lat="43.57531" lon="1.44288">
        <ele>144</ele>
        <time>2025-02-15T08:22:08Z</time>
      </trkpt>
      <trkpt lat="43.57532" lon="1.44289">
        <ele>145</ele>
        <time>2025-02-15T08:22:09Z</time>
      </trkpt>
      <trkpt lat="43.57534" lon="1.44292">
        <ele>145</ele>
        <time>2025-02-15T08:22:10Z</time>
      </trkpt>
      <trkpt lat="43.57535" lon="1.44294">
        <ele>145</ele>
        <time>2025-02-15T08:22:11Z</time>
      </trkpt>
      <trkpt lat="43.57537" lon="1.44298">
        <ele>145</ele>
        <time>2025-02-15T08:22:12Z</time>
      </trkpt>
      <trkpt lat="43.57538" lon="1.443">
        <ele>145</ele>
        <time>2025-02-15T08:22:13Z</time>
      </trkpt>
      <trkpt lat="43.57538" lon="1.443">
        <ele>143</ele>
        <time>2025-02-15T08:22:14Z</time>
      </trkpt>
      <trkpt lat="43.57538" lon="1.443">
        <ele>143</ele>
        <time>2025-02-15T08:22:15Z</time>
      </trkpt>
      <trkpt lat="43.57534" lon="1.44302">
        <ele>143</ele>
        <time>2025-02-15T08:22:16Z</time>
      </trkpt>
      <trkpt lat="43.57534" lon="1.44302">
        <ele>144</ele>
        <time>2025-02-15T08:22:17Z</time>
      </trkpt>
      <trkpt lat="43.57532" lon="1.44299">
        <ele>144</ele>
        <time>2025-02-15T08:22:18Z</time>
      </trkpt>
      <trkpt lat="43.57532" lon="1.44299">
        <ele>144</ele>
        <time>2025-02-15T08:22:19Z</time>
      </trkpt>
      <trkpt lat="43.5753" lon="1.44297">
        <ele>144</ele>
        <time>2025-02-15T08:22:20Z</time>
      </trkpt>
      <trkpt lat="43.5753" lon="1.44297">
        <ele>144</ele>
        <time>2025-02-15T08:22:21Z</time>
      </trkpt>
      <trkpt lat="43.57529" lon="1.44294">
        <ele>144</ele>
        <time>2025-02-15T08:22:22Z</time>
      </trkpt>
      <trkpt lat="43.57529" lon="1.44294">
        <ele>144</ele>
        <time>2025-02-15T08:22:23Z</time>
      </trkpt>
      <trkpt lat="43.57527" lon="1.44292">
        <ele>144</ele>
        <time>2025-02-15T08:22:24Z</time>
      </trkpt>
      <trkpt lat="43.57527" lon="1.44292">
        <ele>143</ele>
        <time>2025-02-15T08:22:25Z</time>
      </trkpt>
      <trkpt lat="43.57526" lon="1.4429">
        <ele>143</ele>
        <time>2025-02-15T08:22:26Z</time>
      </trkpt>
      <trkpt lat="43.57526" lon="1.4429">
        <ele>143</ele>
        <time>2025-02-15T08:22:27Z</time>
      </trkpt>
      <trkpt lat="43.57524" lon="1.44289">
        <ele>143</ele>
        <time>2025-02-15T08:22:28Z</time>
      </trkpt>
      <trkpt lat="43.57524" lon="1.44289">
        <ele>144</ele>
        <time>2025-02-15T08:22:29Z</time>
      </trkpt>
      <trkpt lat="43.57523" lon="1.44286">
        <ele>144</ele>
        <time>2025-02-15T08:22:30Z</time>
      </trkpt>
      <trkpt lat="43.57521" lon="1.44283">
        <ele>144</ele>
        <time>2025-02-15T08:22:32Z</time>
      </trkpt>
      <trkpt lat="43.57521" lon="1.44283">
        <ele>144</ele>
        <time>2025-02-15T08:22:34Z</time>
      </trkpt>
      <trkpt lat="43.57519" lon="1.4428">
        <ele>144</ele>
        <time>2025-02-15T08:22:35Z</time>
      </trkpt>
      <trkpt lat="43.57519" lon="1.4428">
        <ele>144</ele>
        <time>2025-02-15T08:22:36Z</time>
      </trkpt>
      <trkpt lat="43.57517" lon="1.44278">
        <ele>144</ele>
        <time>2025-02-15T08:22:37Z</time>
      </trkpt>
      <trkpt lat="43.57515" lon="1.44275">
        <ele>144</ele>
        <time>2025-02-15T08:22:39Z</time>
      </trkpt>
      <trkpt lat="43.57515" lon="1.44275">
        <ele>144</ele>
        <time>2025-02-15T08:22:40Z</time>
      </trkpt>
      <trkpt lat="43.57513" lon="1.44272">
        <ele>144</ele>
        <time>2025-02-15T08:22:41Z</time>
      </trkpt>
      <trkpt lat="43.57512" lon="1.4427">
        <ele>144</ele>
        <time>2025-02-15T08:22:42Z</time>
      </trkpt>
      <trkpt lat="43.5751" lon="1.44268">
        <ele>144</ele>
        <time>2025-02-15T08:22:43Z</time>
      </trkpt>
      <trkpt lat="43.57509" lon="1.44266">
        <ele>144</ele>
        <time>2025-02-15T08:22:44Z</time>
      </trkpt>
      <trkpt lat="43.57506" lon="1.44261">
        <ele>144</ele>
        <time>2025-02-15T08:22:45Z</time>
      </trkpt>
      <trkpt lat="43.57505" lon="1.4426">
        <ele>144</ele>
        <time>2025-02-15T08:22:46Z</time>
      </trkpt>
      <trkpt lat="43.57502" lon="1.44257">
        <ele>144</ele>
        <time>2025-02-15T08:22:47Z</time>
      </trkpt>
      <trkpt lat="43.575" lon="1.44253">
        <ele>144</ele>
        <time>2025-02-15T08:22:48Z</time>
      </trkpt>
      <trkpt lat="43.57499" lon="1.4425">
        <ele>144</ele>
        <time>2025-02-15T08:22:49Z</time>
      </trkpt>
      <trkpt lat="43.57496" lon="1.44246">
        <ele>144</ele>
        <time>2025-02-15T08:22:50Z</time>
      </trkpt>
      <trkpt lat="43.57495" lon="1.44244">
        <ele>144</ele>
        <time>2025-02-15T08:22:51Z</time>
      </trkpt>
      <trkpt lat="43.57492" lon="1.4424">
        <ele>144</ele>
        <time>2025-02-15T08:22:52Z</time>
      </trkpt>
      <trkpt lat="43.57491" lon="1.44239">
        <ele>145</ele>
        <time>2025-02-15T08:22:53Z</time>
      </trkpt>
      <trkpt lat="43.5749" lon="1.44237">
        <ele>145</ele>
        <time>2025-02-15T08:22:54Z</time>
      </trkpt>
      <trkpt lat="43.57489" lon="1.44235">
        <ele>145</ele>
        <time>2025-02-15T08:22:55Z</time>
      </trkpt>
      <trkpt lat="43.57489" lon="1.44235">
        <ele>145</ele>
        <time>2025-02-15T08:22:56Z</time>
      </trkpt>
      <trkpt lat="43.57487" lon="1.44231">
        <ele>145</ele>
        <time>2025-02-15T08:22:57Z</time>
      </trkpt>
      <trkpt lat="43.57487" lon="1.44231">
        <ele>145</ele>
        <time>2025-02-15T08:22:58Z</time>
      </trkpt>
      <trkpt lat="43.57485" lon="1.44228">
        <ele>145</ele>
        <time>2025-02-15T08:22:59Z</time>
      </trkpt>
      <trkpt lat="43.57485" lon="1.44228">
        <ele>145</ele>
        <time>2025-02-15T08:23:00Z</time>
      </trkpt>
      <trkpt lat="43.57483" lon="1.44225">
        <ele>145</ele>
        <time>2025-02-15T08:23:01Z</time>
      </trkpt>
      <trkpt lat="43.5748" lon="1.44222">
        <ele>146</ele>
        <time>2025-02-15T08:23:03Z</time>
      </trkpt>
      <trkpt lat="43.57478" lon="1.44219">
        <ele>146</ele>
        <time>2025-02-15T08:23:05Z</time>
      </trkpt>
      <trkpt lat="43.57478" lon="1.44219">
        <ele>146</ele>
        <time>2025-02-15T08:23:06Z</time>
      </trkpt>
      <trkpt lat="43.57476" lon="1.44215">
        <ele>147</ele>
        <time>2025-02-15T08:23:07Z</time>
      </trkpt>
      <trkpt lat="43.57476" lon="1.44215">
        <ele>147</ele>
        <time>2025-02-15T08:23:08Z</time>
      </trkpt>
      <trkpt lat="43.57473" lon="1.44212">
        <ele>147</ele>
        <time>2025-02-15T08:23:09Z</time>
      </trkpt>
      <trkpt lat="43.57473" lon="1.44212">
        <ele>147</ele>
        <time>2025-02-15T08:23:10Z</time>
      </trkpt>
      <trkpt lat="43.5747" lon="1.44208">
        <ele>147</ele>
        <time>2025-02-15T08:23:11Z</time>
      </trkpt>
      <trkpt lat="43.57469" lon="1.44208">
        <ele>148</ele>
        <time>2025-02-15T08:23:12Z</time>
      </trkpt>
      <trkpt lat="43.57469" lon="1.44208">
        <ele>148</ele>
        <time>2025-02-15T08:23:13Z</time>
      </trkpt>
      <trkpt lat="43.57467" lon="1.44204">
        <ele>148</ele>
        <time>2025-02-15T08:23:14Z</time>
      </trkpt>
      <trkpt lat="43.57467" lon="1.44204">
        <ele>149</ele>
        <time>2025-02-15T08:23:15Z</time>
      </trkpt>
      <trkpt lat="43.57465" lon="1.442">
        <ele>149</ele>
        <time>2025-02-15T08:23:16Z</time>
      </trkpt>
      <trkpt lat="43.57465" lon="1.442">
        <ele>149</ele>
        <time>2025-02-15T08:23:17Z</time>
      </trkpt>
      <trkpt lat="43.57463" lon="1.44197">
        <ele>149</ele>
        <time>2025-02-15T08:23:18Z</time>
      </trkpt>
      <trkpt lat="43.57463" lon="1.44197">
        <ele>149</ele>
        <time>2025-02-15T08:23:19Z</time>
      </trkpt>
      <trkpt lat="43.57462" lon="1.44193">
        <ele>150</ele>
        <time>2025-02-15T08:23:20Z</time>
      </trkpt>
      <trkpt lat="43.5746" lon="1.44189">
        <ele>151</ele>
        <time>2025-02-15T08:23:22Z</time>
      </trkpt>
      <trkpt lat="43.5746" lon="1.44189">
        <ele>151</ele>
        <time>2025-02-15T08:23:23Z</time>
      </trkpt>
      <trkpt lat="43.57457" lon="1.44186">
        <ele>151</ele>
        <time>2025-02-15T08:23:24Z</time>
      </trkpt>
      <trkpt lat="43.57457" lon="1.44186">
        <ele>151</ele>
        <time>2025-02-15T08:23:25Z</time>
      </trkpt>
      <trkpt lat="43.57455" lon="1.44183">
        <ele>151</ele>
        <time>2025-02-15T08:23:26Z</time>
      </trkpt>
      <trkpt lat="43.57455" lon="1.44183">
        <ele>152</ele>
        <time>2025-02-15T08:23:27Z</time>
      </trkpt>
      <trkpt lat="43.57453" lon="1.44181">
        <ele>152</ele>
        <time>2025-02-15T08:23:28Z</time>
      </trkpt>
      <trkpt lat="43.57451" lon="1.44179">
        <ele>152</ele>
        <time>2025-02-15T08:23:30Z</time>
      </trkpt>
      <trkpt lat="43.57449" lon="1.44178">
        <ele>153</ele>
        <time>2025-02-15T08:23:32Z</time>
      </trkpt>
      <trkpt lat="43.57449" lon="1.44178">
        <ele>153</ele>
        <time>2025-02-15T08:23:33Z</time>
      </trkpt>
      <trkpt lat="43.57446" lon="1.44176">
        <ele>154</ele>
        <time>2025-02-15T08:23:34Z</time>
      </trkpt>
      <trkpt lat="43.57445" lon="1.44175">
        <ele>154</ele>
        <time>2025-02-15T08:23:35Z</time>
      </trkpt>
      <trkpt lat="43.57444" lon="1.44173">
        <ele>154</ele>
        <time>2025-02-15T08:23:36Z</time>
      </trkpt>
      <trkpt lat="43.57442" lon="1.44172">
        <ele>154</ele>
        <time>2025-02-15T08:23:37Z</time>
      </trkpt>
      <trkpt lat="43.57441" lon="1.44171">
        <ele>154</ele>
        <time>2025-02-15T08:23:38Z</time>
      </trkpt>
      <trkpt lat="43.57441" lon="1.44171">
        <ele>155</ele>
        <time>2025-02-15T08:23:39Z</time>
      </trkpt>
      <trkpt lat="43.57439" lon="1.44167">
        <ele>155</ele>
        <time>2025-02-15T08:23:40Z</time>
      </trkpt>
      <trkpt lat="43.57439" lon="1.44167">
        <ele>155</ele>
        <time>2025-02-15T08:23:41Z</time>
      </trkpt>
      <trkpt lat="43.57436" lon="1.44165">
        <ele>155</ele>
        <time>2025-02-15T08:23:42Z</time>
      </trkpt>
      <trkpt lat="43.57436" lon="1.44165">
        <ele>156</ele>
        <time>2025-02-15T08:23:43Z</time>
      </trkpt>
      <trkpt lat="43.57433" lon="1.44164">
        <ele>156</ele>
        <time>2025-02-15T08:23:44Z</time>
      </trkpt>
      <trkpt lat="43.5743" lon="1.44162">
        <ele>156</ele>
        <time>2025-02-15T08:23:46Z</time>
      </trkpt>
      <trkpt lat="43.57428" lon="1.44162">
        <ele>157</ele>
        <time>2025-02-15T08:23:48Z</time>
      </trkpt>
      <trkpt lat="43.57428" lon="1.44162">
        <ele>157</ele>
        <time>2025-02-15T08:23:49Z</time>
      </trkpt>
      <trkpt lat="43.57425" lon="1.44161">
        <ele>158</ele>
        <time>2025-02-15T08:23:50Z</time>
      </trkpt>
      <trkpt lat="43.57425" lon="1.44161">
        <ele>158</ele>
        <time>2025-02-15T08:23:51Z</time>
      </trkpt>
      <trkpt lat="43.57423" lon="1.44158">
        <ele>158</ele>
        <time>2025-02-15T08:23:52Z</time>
      </trkpt>
      <trkpt lat="43.57423" lon="1.44158">
        <ele>158</ele>
        <time>2025-02-15T08:23:53Z</time>
      </trkpt>
      <trkpt lat="43.5742" lon="1.44155">
        <ele>158</ele>
        <time>2025-02-15T08:23:54Z</time>
      </trkpt>
      <trkpt lat="43.5742" lon="1.44155">
        <ele>159</ele>
        <time>2025-02-15T08:23:55Z</time>
      </trkpt>
      <trkpt lat="43.57418" lon="1.44153">
        <ele>160</ele>
        <time>2025-02-15T08:23:56Z</time>
      </trkpt>
      <trkpt lat="43.57418" lon="1.44153">
        <ele>160</ele>
        <time>2025-02-15T08:23:57Z</time>
      </trkpt>
      <trkpt lat="43.57416" lon="1.4415">
        <ele>160</ele>
        <time>2025-02-15T08:23:58Z</time>
      </trkpt>
      <trkpt lat="43.57416" lon="1.4415">
        <ele>161</ele>
        <time>2025-02-15T08:23:59Z</time>
      </trkpt>
      <trkpt lat="43.57414" lon="1.44146">
        <ele>161</ele>
        <time>2025-02-15T08:24:00Z</time>
      </trkpt>
      <trkpt lat="43.57413" lon="1.44142">
        <ele>161</ele>
        <time>2025-02-15T08:24:02Z</time>
      </trkpt>
      <trkpt lat="43.57412" lon="1.4414">
        <ele>162</ele>
        <time>2025-02-15T08:24:03Z</time>
      </trkpt>
      <trkpt lat="43.57412" lon="1.4414">
        <ele>162</ele>
        <time>2025-02-15T08:24:04Z</time>
      </trkpt>
      <trkpt lat="43.5741" lon="1.44137">
        <ele>162</ele>
        <time>2025-02-15T08:24:05Z</time>
      </trkpt>
      <trkpt lat="43.5741" lon="1.44137">
        <ele>162</ele>
        <time>2025-02-15T08:24:06Z</time>
      </trkpt>
      <trkpt lat="43.57408" lon="1.44133">
        <ele>162</ele>
        <time>2025-02-15T08:24:07Z</time>
      </trkpt>
      <trkpt lat="43.57408" lon="1.44133">
        <ele>163</ele>
        <time>2025-02-15T08:24:08Z</time>
      </trkpt>
      <trkpt lat="43.57406" lon="1.4413">
        <ele>163</ele>
        <time>2025-02-15T08:24:09Z</time>
      </trkpt>
      <trkpt lat="43.57406" lon="1.4413">
        <ele>163</ele>
        <time>2025-02-15T08:24:10Z</time>
      </trkpt>
      <trkpt lat="43.57405" lon="1.44128">
        <ele>163</ele>
        <time>2025-02-15T08:24:11Z</time>
      </trkpt>
      <trkpt lat="43.57405" lon="1.44128">
        <ele>164</ele>
        <time>2025-02-15T08:24:12Z</time>
      </trkpt>
      <trkpt lat="43.57403" lon="1.44125">
        <ele>164</ele>
        <time>2025-02-15T08:24:13Z</time>
      </trkpt>
      <trkpt lat="43.574" lon="1.44123">
        <ele>165</ele>
        <time>2025-02-15T08:24:15Z</time>
      </trkpt>
      <trkpt lat="43.57398" lon="1.4412">
        <ele>165</ele>
        <time>2025-02-15T08:24:17Z</time>
      </trkpt>
      <trkpt lat="43.57395" lon="1.44117">
        <ele>165</ele>
        <time>2025-02-15T08:24:19Z</time>
      </trkpt>
      <trkpt lat="43.57395" lon="1.44117">
        <ele>166</ele>
        <time>2025-02-15T08:24:20Z</time>
      </trkpt>
      <trkpt lat="43.57393" lon="1.44114">
        <ele>166</ele>
        <time>2025-02-15T08:24:21Z</time>
      </trkpt>
      <trkpt lat="43.57393" lon="1.44114">
        <ele>166</ele>
        <time>2025-02-15T08:24:22Z</time>
      </trkpt>
      <trkpt lat="43.57391" lon="1.44111">
        <ele>166</ele>
        <time>2025-02-15T08:24:23Z</time>
      </trkpt>
      <trkpt lat="43.57391" lon="1.44111">
        <ele>167</ele>
        <time>2025-02-15T08:24:24Z</time>
      </trkpt>
      <trkpt lat="43.57389" lon="1.44107">
        <ele>167</ele>
        <time>2025-02-15T08:24:25Z</time>
      </trkpt>
      <trkpt lat="43.57389" lon="1.44107">
        <ele>167</ele>
        <time>2025-02-15T08:24:26Z</time>
      </trkpt>
      <trkpt lat="43.57387" lon="1.44105">
        <ele>167</ele>
        <time>2025-02-15T08:24:27Z</time>
      </trkpt>
      <trkpt lat="43.57387" lon="1.44105">
        <ele>167</ele>
        <time>2025-02-15T08:24:28Z</time>
      </trkpt>
      <trkpt lat="43.57385" lon="1.44104">
        <ele>167</ele>
        <time>2025-02-15T08:24:29Z</time>
      </trkpt>
      <trkpt lat="43.57385" lon="1.44104">
        <ele>168</ele>
        <time>2025-02-15T08:24:30Z</time>
      </trkpt>
      <trkpt lat="43.57382" lon="1.44104">
        <ele>168</ele>
        <time>2025-02-15T08:24:31Z</time>
      </trkpt>
      <trkpt lat="43.57382" lon="1.44104">
        <ele>168</ele>
        <time>2025-02-15T08:24:32Z</time>
      </trkpt>
      <trkpt lat="43.57379" lon="1.44104">
        <ele>168</ele>
        <time>2025-02-15T08:24:33Z</time>
      </trkpt>
      <trkpt lat="43.57378" lon="1.44104">
        <ele>168</ele>
        <time>2025-02-15T08:24:34Z</time>
      </trkpt>
      <trkpt lat="43.57374" lon="1.44106">
        <ele>168</ele>
        <time>2025-02-15T08:24:36Z</time>
      </trkpt>
      <trkpt lat="43.57372" lon="1.44106">
        <ele>169</ele>
        <time>2025-02-15T08:24:37Z</time>
      </trkpt>
      <trkpt lat="43.57371" lon="1.44107">
        <ele>170</ele>
        <time>2025-02-15T08:24:38Z</time>
      </trkpt>
      <trkpt lat="43.57368" lon="1.44108">
        <ele>170</ele>
        <time>2025-02-15T08:24:39Z</time>
      </trkpt>
      <trkpt lat="43.57366" lon="1.44108">
        <ele>170</ele>
        <time>2025-02-15T08:24:40Z</time>
      </trkpt>
      <trkpt lat="43.57364" lon="1.44109">
        <ele>170</ele>
        <time>2025-02-15T08:24:41Z</time>
      </trkpt>
      <trkpt lat="43.57361" lon="1.4411">
        <ele>170</ele>
        <time>2025-02-15T08:24:42Z</time>
      </trkpt>
      <trkpt lat="43.5736" lon="1.4411">
        <ele>171</ele>
        <time>2025-02-15T08:24:43Z</time>
      </trkpt>
      <trkpt lat="43.57358" lon="1.44111">
        <ele>171</ele>
        <time>2025-02-15T08:24:44Z</time>
      </trkpt>
      <trkpt lat="43.57358" lon="1.44111">
        <ele>171</ele>
        <time>2025-02-15T08:24:45Z</time>
      </trkpt>
      <trkpt lat="43.57355" lon="1.44112">
        <ele>171</ele>
        <time>2025-02-15T08:24:46Z</time>
      </trkpt>
      <trkpt lat="43.57355" lon="1.44112">
        <ele>171</ele>
        <time>2025-02-15T08:24:47Z</time>
      </trkpt>
      <trkpt lat="43.57353" lon="1.44114">
        <ele>171</ele>
        <time>2025-02-15T08:24:48Z</time>
      </trkpt>
      <trkpt lat="43.57348" lon="1.44117">
        <ele>171</ele>
        <time>2025-02-15T08:24:50Z</time>
      </trkpt>
      <trkpt lat="43.57347" lon="1.44118">
        <ele>171</ele>
        <time>2025-02-15T08:24:52Z</time>
      </trkpt>
      <trkpt lat="43.57345" lon="1.44119">
        <ele>171</ele>
        <time>2025-02-15T08:24:53Z</time>
      </trkpt>
      <trkpt lat="43.57345" lon="1.44119">
        <ele>171</ele>
        <time>2025-02-15T08:24:54Z</time>
      </trkpt>
      <trkpt lat="43.57343" lon="1.44121">
        <ele>171</ele>
        <time>2025-02-15T08:24:55Z</time>
      </trkpt>
      <trkpt lat="43.57341" lon="1.44123">
        <ele>172</ele>
        <time>2025-02-15T08:24:57Z</time>
      </trkpt>
      <trkpt lat="43.57338" lon="1.44126">
        <ele>173</ele>
        <time>2025-02-15T08:24:59Z</time>
      </trkpt>
      <trkpt lat="43.57338" lon="1.44126">
        <ele>173</ele>
        <time>2025-02-15T08:25:00Z</time>
      </trkpt>
      <trkpt lat="43.57336" lon="1.44127">
        <ele>173</ele>
        <time>2025-02-15T08:25:01Z</time>
      </trkpt>
      <trkpt lat="43.57336" lon="1.44127">
        <ele>174</ele>
        <time>2025-02-15T08:25:02Z</time>
      </trkpt>
      <trkpt lat="43.57334" lon="1.44129">
        <ele>174</ele>
        <time>2025-02-15T08:25:03Z</time>
      </trkpt>
      <trkpt lat="43.57334" lon="1.44129">
        <ele>175</ele>
        <time>2025-02-15T08:25:04Z</time>
      </trkpt>
      <trkpt lat="43.57332" lon="1.44131">
        <ele>175</ele>
        <time>2025-02-15T08:25:05Z</time>
      </trkpt>
      <trkpt lat="43.57329" lon="1.44132">
        <ele>176</ele>
        <time>2025-02-15T08:25:07Z</time>
      </trkpt>
      <trkpt lat="43.57326" lon="1.44134">
        <ele>176</ele>
        <time>2025-02-15T08:25:09Z</time>
      </trkpt>
      <trkpt lat="43.57326" lon="1.44134">
        <ele>177</ele>
        <time>2025-02-15T08:25:10Z</time>
      </trkpt>
      <trkpt lat="43.57322" lon="1.44136">
        <ele>177</ele>
        <time>2025-02-15T08:25:11Z</time>
      </trkpt>
      <trkpt lat="43.57321" lon="1.44136">
        <ele>177</ele>
        <time>2025-02-15T08:25:12Z</time>
      </trkpt>
      <trkpt lat="43.57321" lon="1.44136">
        <ele>177</ele>
        <time>2025-02-15T08:25:13Z</time>
      </trkpt>
      <trkpt lat="43.57318" lon="1.44137">
        <ele>177</ele>
        <time>2025-02-15T08:25:14Z</time>
      </trkpt>
      <trkpt lat="43.57315" lon="1.44138">
        <ele>177</ele>
        <time>2025-02-15T08:25:16Z</time>
      </trkpt>
      <trkpt lat="43.57312" lon="1.44139">
        <ele>178</ele>
        <time>2025-02-15T08:25:18Z</time>
      </trkpt>
      <trkpt lat="43.57312" lon="1.44139">
        <ele>179</ele>
        <time>2025-02-15T08:25:19Z</time>
      </trkpt>
      <trkpt lat="43.5731" lon="1.4414">
        <ele>179</ele>
        <time>2025-02-15T08:25:20Z</time>
      </trkpt>
      <trkpt lat="43.5731" lon="1.4414">
        <ele>179</ele>
        <time>2025-02-15T08:25:21Z</time>
      </trkpt>
      <trkpt lat="43.57307" lon="1.44141">
        <ele>179</ele>
        <time>2025-02-15T08:25:22Z</time>
      </trkpt>
      <trkpt lat="43.57307" lon="1.44141">
        <ele>179</ele>
        <time>2025-02-15T08:25:23Z</time>
      </trkpt>
      <trkpt lat="43.57305" lon="1.44141">
        <ele>179</ele>
        <time>2025-02-15T08:25:24Z</time>
      </trkpt>
      <trkpt lat="43.57305" lon="1.44141">
        <ele>179</ele>
        <time>2025-02-15T08:25:25Z</time>
      </trkpt>
      <trkpt lat="43.57302" lon="1.44142">
        <ele>179</ele>
        <time>2025-02-15T08:25:26Z</time>
      </trkpt>
      <trkpt lat="43.573" lon="1.44142">
        <ele>179</ele>
        <time>2025-02-15T08:25:27Z</time>
      </trkpt>
      <trkpt lat="43.573" lon="1.44142">
        <ele>179</ele>
        <time>2025-02-15T08:25:28Z</time>
      </trkpt>
      <trkpt lat="43.57297" lon="1.44142">
        <ele>179</ele>
        <time>2025-02-15T08:25:29Z</time>
      </trkpt>
      <trkpt lat="43.57297" lon="1.44142">
        <ele>180</ele>
        <time>2025-02-15T08:25:30Z</time>
      </trkpt>
      <trkpt lat="43.57294" lon="1.44143">
        <ele>180</ele>
        <time>2025-02-15T08:25:31Z</time>
      </trkpt>
      <trkpt lat="43.57294" lon="1.44143">
        <ele>180</ele>
        <time>2025-02-15T08:25:32Z</time>
      </trkpt>
      <trkpt lat="43.57291" lon="1.44143">
        <ele>180</ele>
        <time>2025-02-15T08:25:33Z</time>
      </trkpt>
      <trkpt lat="43.57291" lon="1.44143">
        <ele>181</ele>
        <time>2025-02-15T08:25:34Z</time>
      </trkpt>
      <trkpt lat="43.57288" lon="1.44144">
        <ele>181</ele>
        <time>2025-02-15T08:25:35Z</time>
      </trkpt>
      <trkpt lat="43.57288" lon="1.44144">
        <ele>182</ele>
        <time>2025-02-15T08:25:36Z</time>
      </trkpt>
      <trkpt lat="43.57285" lon="1.44145">
        <ele>182</ele>
        <time>2025-02-15T08:25:37Z</time>
      </trkpt>
      <trkpt lat="43.57285" lon="1.44145">
        <ele>182</ele>
        <time>2025-02-15T08:25:38Z</time>
      </trkpt>
      <trkpt lat="43.57281" lon="1.44146">
        <ele>182</ele>
        <time>2025-02-15T08:25:39Z</time>
      </trkpt>
      <trkpt lat="43.57278" lon="1.44147">
        <ele>182</ele>
        <time>2025-02-15T08:25:41Z</time>
      </trkpt>
      <trkpt lat="43.57278" lon="1.44147">
        <ele>183</ele>
        <time>2025-02-15T08:25:43Z</time>
      </trkpt>
      <trkpt lat="43.57278" lon="1.44147">
        <ele>183</ele>
        <time>2025-02-15T08:25:44Z</time>
      </trkpt>
      <trkpt lat="43.57275" lon="1.44148">
        <ele>183</ele>
        <time>2025-02-15T08:25:45Z</time>
      </trkpt>
      <trkpt lat="43.57273" lon="1.44148">
        <ele>183</ele>
        <time>2025-02-15T08:25:46Z</time>
      </trkpt>
      <trkpt lat="43.57269" lon="1.44149">
        <ele>183</ele>
        <time>2025-02-15T08:25:47Z</time>
      </trkpt>
      <trkpt lat="43.57268" lon="1.44149">
        <ele>183</ele>
        <time>2025-02-15T08:25:48Z</time>
      </trkpt>
      <trkpt lat="43.57264" lon="1.4415">
        <ele>183</ele>
        <time>2025-02-15T08:25:49Z</time>
      </trkpt>
      <trkpt lat="43.57263" lon="1.4415">
        <ele>183</ele>
        <time>2025-02-15T08:25:50Z</time>
      </trkpt>
      <trkpt lat="43.57258" lon="1.4415">
        <ele>183</ele>
        <time>2025-02-15T08:25:51Z</time>
      </trkpt>
      <trkpt lat="43.57257" lon="1.4415">
        <ele>183</ele>
        <time>2025-02-15T08:25:52Z</time>
      </trkpt>
      <trkpt lat="43.57254" lon="1.4415">
        <ele>183</ele>
        <time>2025-02-15T08:25:53Z</time>
      </trkpt>
      <trkpt lat="43.57252" lon="1.44149">
        <ele>183</ele>
        <time>2025-02-15T08:25:54Z</time>
      </trkpt>
      <trkpt lat="43.57249" lon="1.44149">
        <ele>184</ele>
        <time>2025-02-15T08:25:55Z</time>
      </trkpt>
      <trkpt lat="43.57245" lon="1.44148">
        <ele>184</ele>
        <time>2025-02-15T08:25:56Z</time>
      </trkpt>
      <trkpt lat="43.57244" lon="1.44147">
        <ele>184</ele>
        <time>2025-02-15T08:25:57Z</time>
      </trkpt>
      <trkpt lat="43.5724" lon="1.44146">
        <ele>184</ele>
        <time>2025-02-15T08:25:58Z</time>
      </trkpt>
      <trkpt lat="43.57239" lon="1.44146">
        <ele>185</ele>
        <time>2025-02-15T08:25:59Z</time>
      </trkpt>
      <trkpt lat="43.57235" lon="1.44145">
        <ele>185</ele>
        <time>2025-02-15T08:26:00Z</time>
      </trkpt>
      <trkpt lat="43.57234" lon="1.44145">
        <ele>185</ele>
        <time>2025-02-15T08:26:01Z</time>
      </trkpt>
      <trkpt lat="43.57231" lon="1.44145">
        <ele>185</ele>
        <time>2025-02-15T08:26:02Z</time>
      </trkpt>
      <trkpt lat="43.57228" lon="1.44145">
        <ele>185</ele>
        <time>2025-02-15T08:26:03Z</time>
      </trkpt>
      <trkpt lat="43.57226" lon="1.44144">
        <ele>186</ele>
        <time>2025-02-15T08:26:04Z</time>
      </trkpt>
      <trkpt lat="43.57222" lon="1.44144">
        <ele>186</ele>
        <time>2025-02-15T08:26:05Z</time>
      </trkpt>
      <trkpt lat="43.57221" lon="1.44144">
        <ele>187</ele>
        <time>2025-02-15T08:26:06Z</time>
      </trkpt>
      <trkpt lat="43.57218" lon="1.44144">
        <ele>187</ele>
        <time>2025-02-15T08:26:07Z</time>
      </trkpt>
      <trkpt lat="43.57216" lon="1.44144">
        <ele>187</ele>
        <time>2025-02-15T08:26:08Z</time>
      </trkpt>
      <trkpt lat="43.57213" lon="1.44145">
        <ele>187</ele>
        <time>2025-02-15T08:26:09Z</time>
      </trkpt>
      <trkpt lat="43.57211" lon="1.44145">
        <ele>187</ele>
        <time>2025-02-15T08:26:10Z</time>
      </trkpt>
      <trkpt lat="43.57209" lon="1.44146">
        <ele>187</ele>
        <time>2025-02-15T08:26:11Z</time>
      </trkpt>
      <trkpt lat="43.57205" lon="1.44147">
        <ele>187</ele>
        <time>2025-02-15T08:26:12Z</time>
      </trkpt>
      <trkpt lat="43.57204" lon="1.44147">
        <ele>187</ele>
        <time>2025-02-15T08:26:13Z</time>
      </trkpt>
      <trkpt lat="43.572" lon="1.44147">
        <ele>187</ele>
        <time>2025-02-15T08:26:14Z</time>
      </trkpt>
      <trkpt lat="43.57199" lon="1.44148">
        <ele>188</ele>
        <time>2025-02-15T08:26:15Z</time>
      </trkpt>
      <trkpt lat="43.57196" lon="1.44148">
        <ele>188</ele>
        <time>2025-02-15T08:26:16Z</time>
      </trkpt>
      <trkpt lat="43.57193" lon="1.44148">
        <ele>188</ele>
        <time>2025-02-15T08:26:17Z</time>
      </trkpt>
      <trkpt lat="43.57192" lon="1.44149">
        <ele>189</ele>
        <time>2025-02-15T08:26:18Z</time>
      </trkpt>
      <trkpt lat="43.57188" lon="1.4415">
        <ele>189</ele>
        <time>2025-02-15T08:26:19Z</time>
      </trkpt>
      <trkpt lat="43.57187" lon="1.4415">
        <ele>189</ele>
        <time>2025-02-15T08:26:20Z</time>
      </trkpt>
      <trkpt lat="43.57187" lon="1.4415">
        <ele>189</ele>
        <time>2025-02-15T08:26:21Z</time>
      </trkpt>
      <trkpt lat="43.57184" lon="1.44152">
        <ele>189</ele>
        <time>2025-02-15T08:26:22Z</time>
      </trkpt>
      <trkpt lat="43.57182" lon="1.44152">
        <ele>189</ele>
        <time>2025-02-15T08:26:23Z</time>
      </trkpt>
      <trkpt lat="43.57181" lon="1.44152">
        <ele>189</ele>
        <time>2025-02-15T08:26:24Z</time>
      </trkpt>
      <trkpt lat="43.57179" lon="1.44153">
        <ele>189</ele>
        <time>2025-02-15T08:26:25Z</time>
      </trkpt>
      <trkpt lat="43.57176" lon="1.44153">
        <ele>189</ele>
        <time>2025-02-15T08:26:27Z</time>
      </trkpt>
      <trkpt lat="43.57176" lon="1.44153">
        <ele>189</ele>
        <time>2025-02-15T08:26:28Z</time>
      </trkpt>
      <trkpt lat="43.57173" lon="1.44153">
        <ele>189</ele>
        <time>2025-02-15T08:26:29Z</time>
      </trkpt>
      <trkpt lat="43.57173" lon="1.44153">
        <ele>189</ele>
        <time>2025-02-15T08:26:30Z</time>
      </trkpt>
      <trkpt lat="43.57171" lon="1.44153">
        <ele>189</ele>
        <time>2025-02-15T08:26:31Z</time>
      </trkpt>
      <trkpt lat="43.57171" lon="1.44153">
        <ele>189</ele>
        <time>2025-02-15T08:26:32Z</time>
      </trkpt>
      <trkpt lat="43.57168" lon="1.44153">
        <ele>189</ele>
        <time>2025-02-15T08:26:33Z</time>
      </trkpt>
      <trkpt lat="43.57168" lon="1.44153">
        <ele>190</ele>
        <time>2025-02-15T08:26:34Z</time>
      </trkpt>
      <trkpt lat="43.57164" lon="1.44153">
        <ele>190</ele>
        <time>2025-02-15T08:26:35Z</time>
      </trkpt>
      <trkpt lat="43.57164" lon="1.44153">
        <ele>191</ele>
        <time>2025-02-15T08:26:36Z</time>
      </trkpt>
      <trkpt lat="43.57161" lon="1.44152">
        <ele>191</ele>
        <time>2025-02-15T08:26:37Z</time>
      </trkpt>
      <trkpt lat="43.57158" lon="1.44152">
        <ele>191</ele>
        <time>2025-02-15T08:26:39Z</time>
      </trkpt>
      <trkpt lat="43.57155" lon="1.44151">
        <ele>192</ele>
        <time>2025-02-15T08:26:41Z</time>
      </trkpt>
      <trkpt lat="43.57155" lon="1.44151">
        <ele>192</ele>
        <time>2025-02-15T08:26:42Z</time>
      </trkpt>
      <trkpt lat="43.57152" lon="1.44152">
        <ele>192</ele>
        <time>2025-02-15T08:26:43Z</time>
      </trkpt>
      <trkpt lat="43.57152" lon="1.44152">
        <ele>192</ele>
        <time>2025-02-15T08:26:44Z</time>
      </trkpt>
      <trkpt lat="43.5715" lon="1.44152">
        <ele>192</ele>
        <time>2025-02-15T08:26:45Z</time>
      </trkpt>
      <trkpt lat="43.5715" lon="1.44152">
        <ele>192</ele>
        <time>2025-02-15T08:26:46Z</time>
      </trkpt>
      <trkpt lat="43.57146" lon="1.44153">
        <ele>193</ele>
        <time>2025-02-15T08:26:47Z</time>
      </trkpt>
      <trkpt lat="43.57145" lon="1.44154">
        <ele>193</ele>
        <time>2025-02-15T08:26:48Z</time>
      </trkpt>
      <trkpt lat="43.57145" lon="1.44154">
        <ele>193</ele>
        <time>2025-02-15T08:26:49Z</time>
      </trkpt>
      <trkpt lat="43.57142" lon="1.44155">
        <ele>194</ele>
        <time>2025-02-15T08:26:50Z</time>
      </trkpt>
      <trkpt lat="43.57142" lon="1.44155">
        <ele>194</ele>
        <time>2025-02-15T08:26:51Z</time>
      </trkpt>
      <trkpt lat="43.57139" lon="1.44157">
        <ele>195</ele>
        <time>2025-02-15T08:26:52Z</time>
      </trkpt>
      <trkpt lat="43.57136" lon="1.44159">
        <ele>195</ele>
        <time>2025-02-15T08:26:54Z</time>
      </trkpt>
      <trkpt lat="43.57134" lon="1.44161">
        <ele>195</ele>
        <time>2025-02-15T08:26:56Z</time>
      </trkpt>
      <trkpt lat="43.57134" lon="1.44161">
        <ele>196</ele>
        <time>2025-02-15T08:26:57Z</time>
      </trkpt>
      <trkpt lat="43.5713" lon="1.44163">
        <ele>196</ele>
        <time>2025-02-15T08:26:58Z</time>
      </trkpt>
      <trkpt lat="43.57129" lon="1.44163">
        <ele>196</ele>
        <time>2025-02-15T08:26:59Z</time>
      </trkpt>
      <trkpt lat="43.57126" lon="1.44163">
        <ele>196</ele>
        <time>2025-02-15T08:27:01Z</time>
      </trkpt>
      <trkpt lat="43.57122" lon="1.44163">
        <ele>196</ele>
        <time>2025-02-15T08:27:03Z</time>
      </trkpt>
      <trkpt lat="43.57121" lon="1.44163">
        <ele>197</ele>
        <time>2025-02-15T08:27:04Z</time>
      </trkpt>
      <trkpt lat="43.57118" lon="1.44163">
        <ele>197</ele>
        <time>2025-02-15T08:27:06Z</time>
      </trkpt>
      <trkpt lat="43.57118" lon="1.44163">
        <ele>197</ele>
        <time>2025-02-15T08:27:07Z</time>
      </trkpt>
      <trkpt lat="43.57115" lon="1.44164">
        <ele>197</ele>
        <time>2025-02-15T08:27:08Z</time>
      </trkpt>
      <trkpt lat="43.57112" lon="1.44166">
        <ele>198</ele>
        <time>2025-02-15T08:27:10Z</time>
      </trkpt>
      <trkpt lat="43.5711" lon="1.44166">
        <ele>198</ele>
        <time>2025-02-15T08:27:11Z</time>
      </trkpt>
      <trkpt lat="43.5711" lon="1.44166">
        <ele>198</ele>
        <time>2025-02-15T08:27:12Z</time>
      </trkpt>
      <trkpt lat="43.57107" lon="1.44166">
        <ele>199</ele>
        <time>2025-02-15T08:27:13Z</time>
      </trkpt>
      <trkpt lat="43.57105" lon="1.44167">
        <ele>199</ele>
        <time>2025-02-15T08:27:14Z</time>
      </trkpt>
      <trkpt lat="43.57103" lon="1.44167">
        <ele>199</ele>
        <time>2025-02-15T08:27:15Z</time>
      </trkpt>
      <trkpt lat="43.571" lon="1.44168">
        <ele>199</ele>
        <time>2025-02-15T08:27:17Z</time>
      </trkpt>
      <trkpt lat="43.57098" lon="1.44169">
        <ele>199</ele>
        <time>2025-02-15T08:27:19Z</time>
      </trkpt>
      <trkpt lat="43.57098" lon="1.44169">
        <ele>200</ele>
        <time>2025-02-15T08:27:20Z</time>
      </trkpt>
      <trkpt lat="43.57094" lon="1.4417">
        <ele>200</ele>
        <time>2025-02-15T08:27:21Z</time>
      </trkpt>
      <trkpt lat="43.57094" lon="1.4417">
        <ele>200</ele>
        <time>2025-02-15T08:27:22Z</time>
      </trkpt>
      <trkpt lat="43.57091" lon="1.44171">
        <ele>200</ele>
        <time>2025-02-15T08:27:23Z</time>
      </trkpt>
      <trkpt lat="43.57091" lon="1.44171">
        <ele>201</ele>
        <time>2025-02-15T08:27:24Z</time>
      </trkpt>
      <trkpt lat="43.57088" lon="1.44172">
        <ele>201</ele>
        <time>2025-02-15T08:27:25Z</time>
      </trkpt>
      <trkpt lat="43.57086" lon="1.44172">
        <ele>201</ele>
        <time>2025-02-15T08:27:26Z</time>
      </trkpt>
      <trkpt lat="43.57084" lon="1.44173">
        <ele>201</ele>
        <time>2025-02-15T08:27:27Z</time>
      </trkpt>
      <trkpt lat="43.57081" lon="1.44174">
        <ele>201</ele>
        <time>2025-02-15T08:27:29Z</time>
      </trkpt>
      <trkpt lat="43.57078" lon="1.44174">
        <ele>201</ele>
        <time>2025-02-15T08:27:31Z</time>
      </trkpt>
      <trkpt lat="43.57078" lon="1.44174">
        <ele>201</ele>
        <time>2025-02-15T08:27:32Z</time>
      </trkpt>
      <trkpt lat="43.57075" lon="1.44175">
        <ele>201</ele>
        <time>2025-02-15T08:27:33Z</time>
      </trkpt>
      <trkpt lat="43.57075" lon="1.44175">
        <ele>202</ele>
        <time>2025-02-15T08:27:34Z</time>
      </trkpt>
      <trkpt lat="43.57073" lon="1.44177">
        <ele>202</ele>
        <time>2025-02-15T08:27:35Z</time>
      </trkpt>
      <trkpt lat="43.57073" lon="1.44177">
        <ele>202</ele>
        <time>2025-02-15T08:27:36Z</time>
      </trkpt>
      <trkpt lat="43.5707" lon="1.44178">
        <ele>202</ele>
        <time>2025-02-15T08:27:37Z</time>
      </trkpt>
      <trkpt lat="43.5707" lon="1.44178">
        <ele>202</ele>
        <time>2025-02-15T08:27:38Z</time>
      </trkpt>
      <trkpt lat="43.57067" lon="1.44179">
        <ele>203</ele>
        <time>2025-02-15T08:27:39Z</time>
      </trkpt>
      <trkpt lat="43.57067" lon="1.44179">
        <ele>203</ele>
        <time>2025-02-15T08:27:40Z</time>
      </trkpt>
      <trkpt lat="43.57064" lon="1.4418">
        <ele>203</ele>
        <time>2025-02-15T08:27:41Z</time>
      </trkpt>
      <trkpt lat="43.57061" lon="1.44182">
        <ele>203</ele>
        <time>2025-02-15T08:27:43Z</time>
      </trkpt>
      <trkpt lat="43.57061" lon="1.44182">
        <ele>203</ele>
        <time>2025-02-15T08:27:44Z</time>
      </trkpt>
      <trkpt lat="43.57058" lon="1.44184">
        <ele>203</ele>
        <time>2025-02-15T08:27:45Z</time>
      </trkpt>
      <trkpt lat="43.57058" lon="1.44184">
        <ele>203</ele>
        <time>2025-02-15T08:27:46Z</time>
      </trkpt>
      <trkpt lat="43.57056" lon="1.44186">
        <ele>203</ele>
        <time>2025-02-15T08:27:47Z</time>
      </trkpt>
      <trkpt lat="43.57056" lon="1.44186">
        <ele>204</ele>
        <time>2025-02-15T08:27:48Z</time>
      </trkpt>
      <trkpt lat="43.57052" lon="1.44188">
        <ele>204</ele>
        <time>2025-02-15T08:27:49Z</time>
      </trkpt>
      <trkpt lat="43.57052" lon="1.44188">
        <ele>205</ele>
        <time>2025-02-15T08:27:50Z</time>
      </trkpt>
      <trkpt lat="43.57049" lon="1.44189">
        <ele>205</ele>
        <time>2025-02-15T08:27:51Z</time>
      </trkpt>
      <trkpt lat="43.57049" lon="1.44189">
        <ele>205</ele>
        <time>2025-02-15T08:27:52Z</time>
      </trkpt>
      <trkpt lat="43.57046" lon="1.44191">
        <ele>205</ele>
        <time>2025-02-15T08:27:53Z</time>
      </trkpt>
      <trkpt lat="43.57044" lon="1.44193">
        <ele>205</ele>
        <time>2025-02-15T08:27:55Z</time>
      </trkpt>
      <trkpt lat="43.57041" lon="1.44195">
        <ele>205</ele>
        <time>2025-02-15T08:27:57Z</time>
      </trkpt>
      <trkpt lat="43.57041" lon="1.44195">
        <ele>206</ele>
        <time>2025-02-15T08:27:58Z</time>
      </trkpt>
      <trkpt lat="43.57038" lon="1.44196">
        <ele>206</ele>
        <time>2025-02-15T08:27:59Z</time>
      </trkpt>
      <trkpt lat="43.57038" lon="1.44196">
        <ele>207</ele>
        <time>2025-02-15T08:28:00Z</time>
      </trkpt>
      <trkpt lat="43.57035" lon="1.44197">
        <ele>207</ele>
        <time>2025-02-15T08:28:01Z</time>
      </trkpt>
      <trkpt lat="43.57035" lon="1.44197">
        <ele>207</ele>
        <time>2025-02-15T08:28:02Z</time>
      </trkpt>
      <trkpt lat="43.57032" lon="1.44198">
        <ele>207</ele>
        <time>2025-02-15T08:28:03Z</time>
      </trkpt>
      <trkpt lat="43.57032" lon="1.44198">
        <ele>207</ele>
        <time>2025-02-15T08:28:04Z</time>
      </trkpt>
      <trkpt lat="43.57029" lon="1.44198">
        <ele>208</ele>
        <time>2025-02-15T08:28:05Z</time>
      </trkpt>
      <trkpt lat="43.57026" lon="1.44198">
        <ele>208</ele>
        <time>2025-02-15T08:28:07Z</time>
      </trkpt>
      <trkpt lat="43.57023" lon="1.44199">
        <ele>208</ele>
        <time>2025-02-15T08:28:09Z</time>
      </trkpt>
      <trkpt lat="43.57023" lon="1.44199">
        <ele>208</ele>
        <time>2025-02-15T08:28:10Z</time>
      </trkpt>
      <trkpt lat="43.5702" lon="1.44199">
        <ele>208</ele>
        <time>2025-02-15T08:28:11Z</time>
      </trkpt>
      <trkpt lat="43.5702" lon="1.44199">
        <ele>208</ele>
        <time>2025-02-15T08:28:12Z</time>
      </trkpt>
      <trkpt lat="43.57017" lon="1.442">
        <ele>208</ele>
        <time>2025-02-15T08:28:13Z</time>
      </trkpt>
      <trkpt lat="43.57015" lon="1.442">
        <ele>208</ele>
        <time>2025-02-15T08:28:14Z</time>
      </trkpt>
      <trkpt lat="43.57011" lon="1.442">
        <ele>208</ele>
        <time>2025-02-15T08:28:15Z</time>
      </trkpt>
      <trkpt lat="43.5701" lon="1.442">
        <ele>209</ele>
        <time>2025-02-15T08:28:16Z</time>
      </trkpt>
      <trkpt lat="43.57008" lon="1.442">
        <ele>209</ele>
        <time>2025-02-15T08:28:17Z</time>
      </trkpt>
      <trkpt lat="43.57005" lon="1.442">
        <ele>209</ele>
        <time>2025-02-15T08:28:18Z</time>
      </trkpt>
      <trkpt lat="43.57003" lon="1.44199">
        <ele>210</ele>
        <time>2025-02-15T08:28:19Z</time>
      </trkpt>
      <trkpt lat="43.57" lon="1.44199">
        <ele>210</ele>
        <time>2025-02-15T08:28:20Z</time>
      </trkpt>
      <trkpt lat="43.56998" lon="1.44199">
        <ele>210</ele>
        <time>2025-02-15T08:28:21Z</time>
      </trkpt>
      <trkpt lat="43.56995" lon="1.44199">
        <ele>211</ele>
        <time>2025-02-15T08:28:22Z</time>
      </trkpt>
      <trkpt lat="43.56993" lon="1.44199">
        <ele>211</ele>
        <time>2025-02-15T08:28:23Z</time>
      </trkpt>
      <trkpt lat="43.56991" lon="1.44199">
        <ele>211</ele>
        <time>2025-02-15T08:28:24Z</time>
      </trkpt>
      <trkpt lat="43.56987" lon="1.44198">
        <ele>211</ele>
        <time>2025-02-15T08:28:25Z</time>
      </trkpt>
      <trkpt lat="43.56986" lon="1.44198">
        <ele>211</ele>
        <time>2025-02-15T08:28:26Z</time>
      </trkpt>
      <trkpt lat="43.56982" lon="1.44199">
        <ele>211</ele>
        <time>2025-02-15T08:28:27Z</time>
      </trkpt>
      <trkpt lat="43.56981" lon="1.44199">
        <ele>211</ele>
        <time>2025-02-15T08:28:28Z</time>
      </trkpt>
      <trkpt lat="43.56979" lon="1.44199">
        <ele>211</ele>
        <time>2025-02-15T08:28:29Z</time>
      </trkpt>
      <trkpt lat="43.56976" lon="1.442">
        <ele>212</ele>
        <time>2025-02-15T08:28:30Z</time>
      </trkpt>
      <trkpt lat="43.56974" lon="1.44201">
        <ele>212</ele>
        <time>2025-02-15T08:28:31Z</time>
      </trkpt>
      <trkpt lat="43.56971" lon="1.44202">
        <ele>212</ele>
        <time>2025-02-15T08:28:32Z</time>
      </trkpt>
      <trkpt lat="43.56969" lon="1.44202">
        <ele>213</ele>
        <time>2025-02-15T08:28:33Z</time>
      </trkpt>
      <trkpt lat="43.56965" lon="1.44203">
        <ele>213</ele>
        <time>2025-02-15T08:28:34Z</time>
      </trkpt>
      <trkpt lat="43.56964" lon="1.44203">
        <ele>213</ele>
        <time>2025-02-15T08:28:35Z</time>
      </trkpt>
      <trkpt lat="43.56962" lon="1.44204">
        <ele>213</ele>
        <time>2025-02-15T08:28:36Z</time>
      </trkpt>
      <trkpt lat="43.56959" lon="1.44204">
        <ele>213</ele>
        <time>2025-02-15T08:28:37Z</time>
      </trkpt>
      <trkpt lat="43.56956" lon="1.44204">
        <ele>214</ele>
        <time>2025-02-15T08:28:38Z</time>
      </trkpt>
      <trkpt lat="43.56954" lon="1.44204">
        <ele>214</ele>
        <time>2025-02-15T08:28:39Z</time>
      </trkpt>
      <trkpt lat="43.56952" lon="1.44204">
        <ele>214</ele>
        <time>2025-02-15T08:28:40Z</time>
      </trkpt>
      <trkpt lat="43.56949" lon="1.44205">
        <ele>214</ele>
        <time>2025-02-15T08:28:41Z</time>
      </trkpt>
      <trkpt lat="43.56945" lon="1.44205">
        <ele>214</ele>
        <time>2025-02-15T08:28:42Z</time>
      </trkpt>
      <trkpt lat="43.56944" lon="1.44205">
        <ele>214</ele>
        <time>2025-02-15T08:28:43Z</time>
      </trkpt>
      <trkpt lat="43.56941" lon="1.44204">
        <ele>214</ele>
        <time>2025-02-15T08:28:44Z</time>
      </trkpt>
      <trkpt lat="43.5694" lon="1.44204">
        <ele>215</ele>
        <time>2025-02-15T08:28:45Z</time>
      </trkpt>
      <trkpt lat="43.5694" lon="1.44204">
        <ele>215</ele>
        <time>2025-02-15T08:28:46Z</time>
      </trkpt>
      <trkpt lat="43.56937" lon="1.44205">
        <ele>215</ele>
        <time>2025-02-15T08:28:47Z</time>
      </trkpt>
      <trkpt lat="43.56935" lon="1.44205">
        <ele>215</ele>
        <time>2025-02-15T08:28:48Z</time>
      </trkpt>
      <trkpt lat="43.56931" lon="1.44205">
        <ele>216</ele>
        <time>2025-02-15T08:28:50Z</time>
      </trkpt>
      <trkpt lat="43.5693" lon="1.44205">
        <ele>216</ele>
        <time>2025-02-15T08:28:51Z</time>
      </trkpt>
      <trkpt lat="43.5693" lon="1.44205">
        <ele>216</ele>
        <time>2025-02-15T08:28:52Z</time>
      </trkpt>
      <trkpt lat="43.56927" lon="1.44205">
        <ele>216</ele>
        <time>2025-02-15T08:28:53Z</time>
      </trkpt>
      <trkpt lat="43.56927" lon="1.44205">
        <ele>216</ele>
        <time>2025-02-15T08:28:54Z</time>
      </trkpt>
      <trkpt lat="43.56924" lon="1.44206">
        <ele>216</ele>
        <time>2025-02-15T08:28:55Z</time>
      </trkpt>
      <trkpt lat="43.56921" lon="1.44207">
        <ele>217</ele>
        <time>2025-02-15T08:28:57Z</time>
      </trkpt>
      <trkpt lat="43.56918" lon="1.44207">
        <ele>218</ele>
        <time>2025-02-15T08:28:59Z</time>
      </trkpt>
      <trkpt lat="43.56918" lon="1.44207">
        <ele>218</ele>
        <time>2025-02-15T08:29:00Z</time>
      </trkpt>
      <trkpt lat="43.56915" lon="1.44208">
        <ele>218</ele>
        <time>2025-02-15T08:29:01Z</time>
      </trkpt>
      <trkpt lat="43.56913" lon="1.44209">
        <ele>218</ele>
        <time>2025-02-15T08:29:02Z</time>
      </trkpt>
      <trkpt lat="43.56911" lon="1.44209">
        <ele>218</ele>
        <time>2025-02-15T08:29:03Z</time>
      </trkpt>
      <trkpt lat="43.56909" lon="1.4421">
        <ele>218</ele>
        <time>2025-02-15T08:29:04Z</time>
      </trkpt>
      <trkpt lat="43.56906" lon="1.44211">
        <ele>218</ele>
        <time>2025-02-15T08:29:06Z</time>
      </trkpt>
      <trkpt lat="43.56906" lon="1.44211">
        <ele>219</ele>
        <time>2025-02-15T08:29:07Z</time>
      </trkpt>
      <trkpt lat="43.56904" lon="1.44211">
        <ele>219</ele>
        <time>2025-02-15T08:29:08Z</time>
      </trkpt>
      <trkpt lat="43.56904" lon="1.44211">
        <ele>220</ele>
        <time>2025-02-15T08:29:09Z</time>
      </trkpt>
      <trkpt lat="43.56901" lon="1.44212">
        <ele>220</ele>
        <time>2025-02-15T08:29:10Z</time>
      </trkpt>
      <trkpt lat="43.56901" lon="1.44212">
        <ele>220</ele>
        <time>2025-02-15T08:29:11Z</time>
      </trkpt>
      <trkpt lat="43.56898" lon="1.44213">
        <ele>220</ele>
        <time>2025-02-15T08:29:12Z</time>
      </trkpt>
      <trkpt lat="43.56898" lon="1.44213">
        <ele>220</ele>
        <time>2025-02-15T08:29:13Z</time>
      </trkpt>
      <trkpt lat="43.56894" lon="1.44213">
        <ele>219</ele>
        <time>2025-02-15T08:29:14Z</time>
      </trkpt>
      <trkpt lat="43.56891" lon="1.44214">
        <ele>219</ele>
        <time>2025-02-15T08:29:16Z</time>
      </trkpt>
      <trkpt lat="43.56888" lon="1.44214">
        <ele>219</ele>
        <time>2025-02-15T08:29:18Z</time>
      </trkpt>
      <trkpt lat="43.56888" lon="1.44214">
        <ele>220</ele>
        <time>2025-02-15T08:29:19Z</time>
      </trkpt>
      <trkpt lat="43.56885" lon="1.44215">
        <ele>220</ele>
        <time>2025-02-15T08:29:20Z</time>
      </trkpt>
      <trkpt lat="43.56883" lon="1.44215">
        <ele>220</ele>
        <time>2025-02-15T08:29:21Z</time>
      </trkpt>
      <trkpt lat="43.56882" lon="1.44215">
        <ele>220</ele>
        <time>2025-02-15T08:29:22Z</time>
      </trkpt>
      <trkpt lat="43.5688" lon="1.44215">
        <ele>220</ele>
        <time>2025-02-15T08:29:23Z</time>
      </trkpt>
      <trkpt lat="43.56877" lon="1.44216">
        <ele>220</ele>
        <time>2025-02-15T08:29:25Z</time>
      </trkpt>
      <trkpt lat="43.56877" lon="1.44216">
        <ele>220</ele>
        <time>2025-02-15T08:29:26Z</time>
      </trkpt>
      <trkpt lat="43.56874" lon="1.44216">
        <ele>220</ele>
        <time>2025-02-15T08:29:27Z</time>
      </trkpt>
      <trkpt lat="43.56874" lon="1.44216">
        <ele>220</ele>
        <time>2025-02-15T08:29:28Z</time>
      </trkpt>
      <trkpt lat="43.56871" lon="1.44216">
        <ele>220</ele>
        <time>2025-02-15T08:29:29Z</time>
      </trkpt>
      <trkpt lat="43.56871" lon="1.44216">
        <ele>221</ele>
        <time>2025-02-15T08:29:30Z</time>
      </trkpt>
      <trkpt lat="43.56868" lon="1.44217">
        <ele>221</ele>
        <time>2025-02-15T08:29:31Z</time>
      </trkpt>
      <trkpt lat="43.56868" lon="1.44217">
        <ele>222</ele>
        <time>2025-02-15T08:29:32Z</time>
      </trkpt>
      <trkpt lat="43.56865" lon="1.44217">
        <ele>222</ele>
        <time>2025-02-15T08:29:33Z</time>
      </trkpt>
      <trkpt lat="43.56865" lon="1.44217">
        <ele>222</ele>
        <time>2025-02-15T08:29:34Z</time>
      </trkpt>
      <trkpt lat="43.56862" lon="1.44217">
        <ele>222</ele>
        <time>2025-02-15T08:29:35Z</time>
      </trkpt>
      <trkpt lat="43.56859" lon="1.44218">
        <ele>222</ele>
        <time>2025-02-15T08:29:37Z</time>
      </trkpt>
      <trkpt lat="43.56859" lon="1.44218">
        <ele>222</ele>
        <time>2025-02-15T08:29:38Z</time>
      </trkpt>
      <trkpt lat="43.56856" lon="1.44218">
        <ele>222</ele>
        <time>2025-02-15T08:29:39Z</time>
      </trkpt>
      <trkpt lat="43.56856" lon="1.44218">
        <ele>222</ele>
        <time>2025-02-15T08:29:40Z</time>
      </trkpt>
      <trkpt lat="43.56853" lon="1.44219">
        <ele>222</ele>
        <time>2025-02-15T08:29:41Z</time>
      </trkpt>
      <trkpt lat="43.56853" lon="1.44219">
        <ele>222</ele>
        <time>2025-02-15T08:29:42Z</time>
      </trkpt>
      <trkpt lat="43.56849" lon="1.4422">
        <ele>222</ele>
        <time>2025-02-15T08:29:43Z</time>
      </trkpt>
      <trkpt lat="43.56847" lon="1.44221">
        <ele>223</ele>
        <time>2025-02-15T08:29:44Z</time>
      </trkpt>
      <trkpt lat="43.56844" lon="1.44222">
        <ele>223</ele>
        <time>2025-02-15T08:29:45Z</time>
      </trkpt>
      <trkpt lat="43.56843" lon="1.44223">
        <ele>223</ele>
        <time>2025-02-15T08:29:46Z</time>
      </trkpt>
      <trkpt lat="43.5684" lon="1.44224">
        <ele>224</ele>
        <time>2025-02-15T08:29:47Z</time>
      </trkpt>
      <trkpt lat="43.56838" lon="1.44226">
        <ele>224</ele>
        <time>2025-02-15T08:29:48Z</time>
      </trkpt>
      <trkpt lat="43.56835" lon="1.44227">
        <ele>224</ele>
        <time>2025-02-15T08:29:49Z</time>
      </trkpt>
      <trkpt lat="43.56832" lon="1.44228">
        <ele>224</ele>
        <time>2025-02-15T08:29:50Z</time>
      </trkpt>
      <trkpt lat="43.56831" lon="1.44228">
        <ele>224</ele>
        <time>2025-02-15T08:29:51Z</time>
      </trkpt>
      <trkpt lat="43.56827" lon="1.4423">
        <ele>224</ele>
        <time>2025-02-15T08:29:52Z</time>
      </trkpt>
      <trkpt lat="43.56826" lon="1.4423">
        <ele>224</ele>
        <time>2025-02-15T08:29:53Z</time>
      </trkpt>
      <trkpt lat="43.56823" lon="1.44231">
        <ele>224</ele>
        <time>2025-02-15T08:29:54Z</time>
      </trkpt>
      <trkpt lat="43.56821" lon="1.44232">
        <ele>224</ele>
        <time>2025-02-15T08:29:55Z</time>
      </trkpt>
      <trkpt lat="43.56816" lon="1.44232">
        <ele>224</ele>
        <time>2025-02-15T08:29:56Z</time>
      </trkpt>
      <trkpt lat="43.56815" lon="1.44232">
        <ele>224</ele>
        <time>2025-02-15T08:29:57Z</time>
      </trkpt>
      <trkpt lat="43.56811" lon="1.44231">
        <ele>224</ele>
        <time>2025-02-15T08:29:58Z</time>
      </trkpt>
      <trkpt lat="43.56809" lon="1.44231">
        <ele>224</ele>
        <time>2025-02-15T08:29:59Z</time>
      </trkpt>
      <trkpt lat="43.56806" lon="1.4423">
        <ele>224</ele>
        <time>2025-02-15T08:30:00Z</time>
      </trkpt>
      <trkpt lat="43.56802" lon="1.44229">
        <ele>224</ele>
        <time>2025-02-15T08:30:01Z</time>
      </trkpt>
      <trkpt lat="43.56801" lon="1.44229">
        <ele>224</ele>
        <time>2025-02-15T08:30:02Z</time>
      </trkpt>
      <trkpt lat="43.56796" lon="1.44228">
        <ele>224</ele>
        <time>2025-02-15T08:30:03Z</time>
      </trkpt>
      <trkpt lat="43.56795" lon="1.44228">
        <ele>224</ele>
        <time>2025-02-15T08:30:04Z</time>
      </trkpt>
      <trkpt lat="43.56792" lon="1.44227">
        <ele>224</ele>
        <time>2025-02-15T08:30:05Z</time>
      </trkpt>
      <trkpt lat="43.56789" lon="1.44227">
        <ele>224</ele>
        <time>2025-02-15T08:30:06Z</time>
      </trkpt>
      <trkpt lat="43.56786" lon="1.44226">
        <ele>224</ele>
        <time>2025-02-15T08:30:07Z</time>
      </trkpt>
      <trkpt lat="43.56782" lon="1.44225">
        <ele>224</ele>
        <time>2025-02-15T08:30:08Z</time>
      </trkpt>
      <trkpt lat="43.5678" lon="1.44225">
        <ele>223</ele>
        <time>2025-02-15T08:30:09Z</time>
      </trkpt>
      <trkpt lat="43.56776" lon="1.44224">
        <ele>223</ele>
        <time>2025-02-15T08:30:10Z</time>
      </trkpt>
      <trkpt lat="43.56774" lon="1.44224">
        <ele>223</ele>
        <time>2025-02-15T08:30:11Z</time>
      </trkpt>
      <trkpt lat="43.56772" lon="1.44224">
        <ele>223</ele>
        <time>2025-02-15T08:30:12Z</time>
      </trkpt>
      <trkpt lat="43.56769" lon="1.44224">
        <ele>223</ele>
        <time>2025-02-15T08:30:13Z</time>
      </trkpt>
      <trkpt lat="43.56766" lon="1.44223">
        <ele>223</ele>
        <time>2025-02-15T08:30:14Z</time>
      </trkpt>
      <trkpt lat="43.56762" lon="1.44223">
        <ele>223</ele>
        <time>2025-02-15T08:30:15Z</time>
      </trkpt>
      <trkpt lat="43.56761" lon="1.44223">
        <ele>222</ele>
        <time>2025-02-15T08:30:16Z</time>
      </trkpt>
      <trkpt lat="43.56758" lon="1.44222">
        <ele>222</ele>
        <time>2025-02-15T08:30:17Z</time>
      </trkpt>
      <trkpt lat="43.56755" lon="1.44222">
        <ele>222</ele>
        <time>2025-02-15T08:30:18Z</time>
      </trkpt>
      <trkpt lat="43.56751" lon="1.44221">
        <ele>222</ele>
        <time>2025-02-15T08:30:19Z</time>
      </trkpt>
      <trkpt lat="43.5675" lon="1.44221">
        <ele>222</ele>
        <time>2025-02-15T08:30:20Z</time>
      </trkpt>
      <trkpt lat="43.56747" lon="1.44221">
        <ele>222</ele>
        <time>2025-02-15T08:30:21Z</time>
      </trkpt>
      <trkpt lat="43.56744" lon="1.4422">
        <ele>222</ele>
        <time>2025-02-15T08:30:22Z</time>
      </trkpt>
      <trkpt lat="43.56741" lon="1.4422">
        <ele>222</ele>
        <time>2025-02-15T08:30:23Z</time>
      </trkpt>
      <trkpt lat="43.56736" lon="1.44219">
        <ele>222</ele>
        <time>2025-02-15T08:30:24Z</time>
      </trkpt>
      <trkpt lat="43.56735" lon="1.44219">
        <ele>220</ele>
        <time>2025-02-15T08:30:25Z</time>
      </trkpt>
      <trkpt lat="43.5673" lon="1.44219">
        <ele>220</ele>
        <time>2025-02-15T08:30:26Z</time>
      </trkpt>
      <trkpt lat="43.56728" lon="1.44219">
        <ele>220</ele>
        <time>2025-02-15T08:30:27Z</time>
      </trkpt>
      <trkpt lat="43.56725" lon="1.44219">
        <ele>220</ele>
        <time>2025-02-15T08:30:28Z</time>
      </trkpt>
      <trkpt lat="43.56723" lon="1.44218">
        <ele>220</ele>
        <time>2025-02-15T08:30:29Z</time>
      </trkpt>
      <trkpt lat="43.5672" lon="1.44218">
        <ele>220</ele>
        <time>2025-02-15T08:30:30Z</time>
      </trkpt>
      <trkpt lat="43.56716" lon="1.44217">
        <ele>220</ele>
        <time>2025-02-15T08:30:31Z</time>
      </trkpt>
      <trkpt lat="43.56715" lon="1.44216">
        <ele>220</ele>
        <time>2025-02-15T08:30:32Z</time>
      </trkpt>
      <trkpt lat="43.56713" lon="1.44216">
        <ele>220</ele>
        <time>2025-02-15T08:30:33Z</time>
      </trkpt>
      <trkpt lat="43.5671" lon="1.44215">
        <ele>220</ele>
        <time>2025-02-15T08:30:34Z</time>
      </trkpt>
      <trkpt lat="43.56707" lon="1.44214">
        <ele>220</ele>
        <time>2025-02-15T08:30:35Z</time>
      </trkpt>
      <trkpt lat="43.56704" lon="1.44214">
        <ele>220</ele>
        <time>2025-02-15T08:30:36Z</time>
      </trkpt>
      <trkpt lat="43.56702" lon="1.44214">
        <ele>220</ele>
        <time>2025-02-15T08:30:37Z</time>
      </trkpt>
      <trkpt lat="43.56699" lon="1.44214">
        <ele>220</ele>
        <time>2025-02-15T08:30:38Z</time>
      </trkpt>
      <trkpt lat="43.56697" lon="1.44214">
        <ele>221</ele>
        <time>2025-02-15T08:30:39Z</time>
      </trkpt>
      <trkpt lat="43.56694" lon="1.44215">
        <ele>221</ele>
        <time>2025-02-15T08:30:40Z</time>
      </trkpt>
      <trkpt lat="43.56691" lon="1.44215">
        <ele>221</ele>
        <time>2025-02-15T08:30:41Z</time>
      </trkpt>
      <trkpt lat="43.56688" lon="1.44215">
        <ele>221</ele>
        <time>2025-02-15T08:30:42Z</time>
      </trkpt>
      <trkpt lat="43.56684" lon="1.44215">
        <ele>221</ele>
        <time>2025-02-15T08:30:43Z</time>
      </trkpt>
      <trkpt lat="43.56683" lon="1.44215">
        <ele>221</ele>
        <time>2025-02-15T08:30:44Z</time>
      </trkpt>
      <trkpt lat="43.56681" lon="1.44214">
        <ele>221</ele>
        <time>2025-02-15T08:30:45Z</time>
      </trkpt>
      <trkpt lat="43.56679" lon="1.44215">
        <ele>221</ele>
        <time>2025-02-15T08:30:46Z</time>
      </trkpt>
      <trkpt lat="43.56677" lon="1.44215">
        <ele>221</ele>
        <time>2025-02-15T08:30:47Z</time>
      </trkpt>
      <trkpt lat="43.56677" lon="1.44215">
        <ele>220</ele>
        <time>2025-02-15T08:30:48Z</time>
      </trkpt>
      <trkpt lat="43.56674" lon="1.44217">
        <ele>220</ele>
        <time>2025-02-15T08:30:49Z</time>
      </trkpt>
      <trkpt lat="43.56672" lon="1.4422">
        <ele>220</ele>
        <time>2025-02-15T08:30:51Z</time>
      </trkpt>
      <trkpt lat="43.5667" lon="1.44221">
        <ele>220</ele>
        <time>2025-02-15T08:30:52Z</time>
      </trkpt>
      <trkpt lat="43.56668" lon="1.44223">
        <ele>220</ele>
        <time>2025-02-15T08:30:53Z</time>
      </trkpt>
      <trkpt lat="43.56666" lon="1.44224">
        <ele>220</ele>
        <time>2025-02-15T08:30:54Z</time>
      </trkpt>
      <trkpt lat="43.56663" lon="1.44225">
        <ele>220</ele>
        <time>2025-02-15T08:30:55Z</time>
      </trkpt>
      <trkpt lat="43.56661" lon="1.44226">
        <ele>220</ele>
        <time>2025-02-15T08:30:56Z</time>
      </trkpt>
      <trkpt lat="43.56659" lon="1.44227">
        <ele>220</ele>
        <time>2025-02-15T08:30:57Z</time>
      </trkpt>
      <trkpt lat="43.56657" lon="1.44229">
        <ele>220</ele>
        <time>2025-02-15T08:30:58Z</time>
      </trkpt>
      <trkpt lat="43.56655" lon="1.44231">
        <ele>220</ele>
        <time>2025-02-15T08:30:59Z</time>
      </trkpt>
      <trkpt lat="43.56653" lon="1.44233">
        <ele>220</ele>
        <time>2025-02-15T08:31:00Z</time>
      </trkpt>
      <trkpt lat="43.5665" lon="1.44234">
        <ele>220</ele>
        <time>2025-02-15T08:31:01Z</time>
      </trkpt>
      <trkpt lat="43.56648" lon="1.44236">
        <ele>220</ele>
        <time>2025-02-15T08:31:02Z</time>
      </trkpt>
      <trkpt lat="43.56645" lon="1.44237">
        <ele>220</ele>
        <time>2025-02-15T08:31:03Z</time>
      </trkpt>
      <trkpt lat="43.56643" lon="1.44238">
        <ele>220</ele>
        <time>2025-02-15T08:31:04Z</time>
      </trkpt>
      <trkpt lat="43.56639" lon="1.44241">
        <ele>220</ele>
        <time>2025-02-15T08:31:05Z</time>
      </trkpt>
      <trkpt lat="43.56638" lon="1.44242">
        <ele>220</ele>
        <time>2025-02-15T08:31:06Z</time>
      </trkpt>
      <trkpt lat="43.56634" lon="1.44243">
        <ele>220</ele>
        <time>2025-02-15T08:31:07Z</time>
      </trkpt>
      <trkpt lat="43.56633" lon="1.44244">
        <ele>220</ele>
        <time>2025-02-15T08:31:08Z</time>
      </trkpt>
      <trkpt lat="43.56631" lon="1.44246">
        <ele>220</ele>
        <time>2025-02-15T08:31:09Z</time>
      </trkpt>
      <trkpt lat="43.56628" lon="1.44247">
        <ele>220</ele>
        <time>2025-02-15T08:31:10Z</time>
      </trkpt>
      <trkpt lat="43.56625" lon="1.44249">
        <ele>220</ele>
        <time>2025-02-15T08:31:11Z</time>
      </trkpt>
      <trkpt lat="43.56622" lon="1.44252">
        <ele>220</ele>
        <time>2025-02-15T08:31:12Z</time>
      </trkpt>
      <trkpt lat="43.56621" lon="1.44253">
        <ele>220</ele>
        <time>2025-02-15T08:31:13Z</time>
      </trkpt>
      <trkpt lat="43.56617" lon="1.44256">
        <ele>220</ele>
        <time>2025-02-15T08:31:14Z</time>
      </trkpt>
      <trkpt lat="43.56615" lon="1.44257">
        <ele>219</ele>
        <time>2025-02-15T08:31:15Z</time>
      </trkpt>
      <trkpt lat="43.56611" lon="1.44259">
        <ele>219</ele>
        <time>2025-02-15T08:31:16Z</time>
      </trkpt>
      <trkpt lat="43.56609" lon="1.44259">
        <ele>220</ele>
        <time>2025-02-15T08:31:17Z</time>
      </trkpt>
      <trkpt lat="43.56607" lon="1.44261">
        <ele>220</ele>
        <time>2025-02-15T08:31:18Z</time>
      </trkpt>
      <trkpt lat="43.56603" lon="1.44264">
        <ele>220</ele>
        <time>2025-02-15T08:31:19Z</time>
      </trkpt>
      <trkpt lat="43.56602" lon="1.44266">
        <ele>219</ele>
        <time>2025-02-15T08:31:20Z</time>
      </trkpt>
      <trkpt lat="43.56599" lon="1.44268">
        <ele>219</ele>
        <time>2025-02-15T08:31:21Z</time>
      </trkpt>
      <trkpt lat="43.56596" lon="1.4427">
        <ele>218</ele>
        <time>2025-02-15T08:31:22Z</time>
      </trkpt>
      <trkpt lat="43.56593" lon="1.44271">
        <ele>217</ele>
        <time>2025-02-15T08:31:23Z</time>
      </trkpt>
      <trkpt lat="43.5659" lon="1.44273">
        <ele>217</ele>
        <time>2025-02-15T08:31:24Z</time>
      </trkpt>
      <trkpt lat="43.56588" lon="1.44274">
        <ele>216</ele>
        <time>2025-02-15T08:31:25Z</time>
      </trkpt>
      <trkpt lat="43.56584" lon="1.44277">
        <ele>216</ele>
        <time>2025-02-15T08:31:26Z</time>
      </trkpt>
      <trkpt lat="43.56583" lon="1.44278">
        <ele>216</ele>
        <time>2025-02-15T08:31:27Z</time>
      </trkpt>
      <trkpt lat="43.56579" lon="1.44282">
        <ele>216</ele>
        <time>2025-02-15T08:31:28Z</time>
      </trkpt>
      <trkpt lat="43.56578" lon="1.44283">
        <ele>215</ele>
        <time>2025-02-15T08:31:29Z</time>
      </trkpt>
      <trkpt lat="43.56576" lon="1.44285">
        <ele>215</ele>
        <time>2025-02-15T08:31:30Z</time>
      </trkpt>
      <trkpt lat="43.56572" lon="1.44288">
        <ele>215</ele>
        <time>2025-02-15T08:31:31Z</time>
      </trkpt>
      <trkpt lat="43.56571" lon="1.44289">
        <ele>215</ele>
        <time>2025-02-15T08:31:32Z</time>
      </trkpt>
      <trkpt lat="43.56567" lon="1.44292">
        <ele>215</ele>
        <time>2025-02-15T08:31:33Z</time>
      </trkpt>
      <trkpt lat="43.56566" lon="1.44292">
        <ele>214</ele>
        <time>2025-02-15T08:31:34Z</time>
      </trkpt>
      <trkpt lat="43.56562" lon="1.44296">
        <ele>214</ele>
        <time>2025-02-15T08:31:35Z</time>
      </trkpt>
      <trkpt lat="43.56561" lon="1.44297">
        <ele>214</ele>
        <time>2025-02-15T08:31:36Z</time>
      </trkpt>
      <trkpt lat="43.56559" lon="1.44299">
        <ele>214</ele>
        <time>2025-02-15T08:31:37Z</time>
      </trkpt>
      <trkpt lat="43.56556" lon="1.44301">
        <ele>214</ele>
        <time>2025-02-15T08:31:38Z</time>
      </trkpt>
      <trkpt lat="43.56554" lon="1.44303">
        <ele>214</ele>
        <time>2025-02-15T08:31:39Z</time>
      </trkpt>
      <trkpt lat="43.56551" lon="1.44306">
        <ele>214</ele>
        <time>2025-02-15T08:31:40Z</time>
      </trkpt>
      <trkpt lat="43.5655" lon="1.44307">
        <ele>214</ele>
        <time>2025-02-15T08:31:41Z</time>
      </trkpt>
      <trkpt lat="43.56546" lon="1.44308">
        <ele>214</ele>
        <time>2025-02-15T08:31:42Z</time>
      </trkpt>
      <trkpt lat="43.56544" lon="1.44308">
        <ele>214</ele>
        <time>2025-02-15T08:31:43Z</time>
      </trkpt>
      <trkpt lat="43.56541" lon="1.44309">
        <ele>214</ele>
        <time>2025-02-15T08:31:44Z</time>
      </trkpt>
      <trkpt lat="43.56537" lon="1.44309">
        <ele>214</ele>
        <time>2025-02-15T08:31:45Z</time>
      </trkpt>
      <trkpt lat="43.56533" lon="1.44309">
        <ele>214</ele>
        <time>2025-02-15T08:31:46Z</time>
      </trkpt>
      <trkpt lat="43.56528" lon="1.4431">
        <ele>214</ele>
        <time>2025-02-15T08:31:47Z</time>
      </trkpt>
      <trkpt lat="43.56527" lon="1.44311">
        <ele>212</ele>
        <time>2025-02-15T08:31:48Z</time>
      </trkpt>
      <trkpt lat="43.56523" lon="1.44311">
        <ele>212</ele>
        <time>2025-02-15T08:31:49Z</time>
      </trkpt>
      <trkpt lat="43.5652" lon="1.44312">
        <ele>212</ele>
        <time>2025-02-15T08:31:50Z</time>
      </trkpt>
      <trkpt lat="43.56517" lon="1.44313">
        <ele>211</ele>
        <time>2025-02-15T08:31:51Z</time>
      </trkpt>
      <trkpt lat="43.56513" lon="1.44314">
        <ele>211</ele>
        <time>2025-02-15T08:31:52Z</time>
      </trkpt>
      <trkpt lat="43.56511" lon="1.44314">
        <ele>211</ele>
        <time>2025-02-15T08:31:53Z</time>
      </trkpt>
      <trkpt lat="43.56507" lon="1.44315">
        <ele>211</ele>
        <time>2025-02-15T08:31:54Z</time>
      </trkpt>
      <trkpt lat="43.56506" lon="1.44315">
        <ele>211</ele>
        <time>2025-02-15T08:31:55Z</time>
      </trkpt>
      <trkpt lat="43.56504" lon="1.44316">
        <ele>210</ele>
        <time>2025-02-15T08:31:56Z</time>
      </trkpt>
      <trkpt lat="43.56501" lon="1.44317">
        <ele>210</ele>
        <time>2025-02-15T08:31:57Z</time>
      </trkpt>
      <trkpt lat="43.56498" lon="1.44317">
        <ele>210</ele>
        <time>2025-02-15T08:31:58Z</time>
      </trkpt>
      <trkpt lat="43.56495" lon="1.44319">
        <ele>210</ele>
        <time>2025-02-15T08:31:59Z</time>
      </trkpt>
      <trkpt lat="43.56494" lon="1.44319">
        <ele>210</ele>
        <time>2025-02-15T08:32:00Z</time>
      </trkpt>
      <trkpt lat="43.5649" lon="1.44321">
        <ele>210</ele>
        <time>2025-02-15T08:32:01Z</time>
      </trkpt>
      <trkpt lat="43.56489" lon="1.44322">
        <ele>209</ele>
        <time>2025-02-15T08:32:02Z</time>
      </trkpt>
      <trkpt lat="43.56486" lon="1.44323">
        <ele>209</ele>
        <time>2025-02-15T08:32:03Z</time>
      </trkpt>
      <trkpt lat="43.56484" lon="1.44324">
        <ele>209</ele>
        <time>2025-02-15T08:32:04Z</time>
      </trkpt>
      <trkpt lat="43.56481" lon="1.44325">
        <ele>209</ele>
        <time>2025-02-15T08:32:05Z</time>
      </trkpt>
      <trkpt lat="43.56477" lon="1.44327">
        <ele>209</ele>
        <time>2025-02-15T08:32:06Z</time>
      </trkpt>
      <trkpt lat="43.56476" lon="1.44327">
        <ele>209</ele>
        <time>2025-02-15T08:32:07Z</time>
      </trkpt>
      <trkpt lat="43.56473" lon="1.44329">
        <ele>209</ele>
        <time>2025-02-15T08:32:08Z</time>
      </trkpt>
      <trkpt lat="43.5647" lon="1.4433">
        <ele>210</ele>
        <time>2025-02-15T08:32:09Z</time>
      </trkpt>
      <trkpt lat="43.56467" lon="1.44331">
        <ele>209</ele>
        <time>2025-02-15T08:32:10Z</time>
      </trkpt>
      <trkpt lat="43.56464" lon="1.44332">
        <ele>209</ele>
        <time>2025-02-15T08:32:11Z</time>
      </trkpt>
      <trkpt lat="43.56461" lon="1.44333">
        <ele>209</ele>
        <time>2025-02-15T08:32:12Z</time>
      </trkpt>
      <trkpt lat="43.56457" lon="1.44335">
        <ele>209</ele>
        <time>2025-02-15T08:32:13Z</time>
      </trkpt>
      <trkpt lat="43.56456" lon="1.44336">
        <ele>208</ele>
        <time>2025-02-15T08:32:14Z</time>
      </trkpt>
      <trkpt lat="43.56452" lon="1.44339">
        <ele>208</ele>
        <time>2025-02-15T08:32:15Z</time>
      </trkpt>
      <trkpt lat="43.5645" lon="1.44339">
        <ele>207</ele>
        <time>2025-02-15T08:32:16Z</time>
      </trkpt>
      <trkpt lat="43.56448" lon="1.44341">
        <ele>206</ele>
        <time>2025-02-15T08:32:17Z</time>
      </trkpt>
      <trkpt lat="43.56445" lon="1.44342">
        <ele>206</ele>
        <time>2025-02-15T08:32:18Z</time>
      </trkpt>
      <trkpt lat="43.56443" lon="1.44343">
        <ele>206</ele>
        <time>2025-02-15T08:32:19Z</time>
      </trkpt>
      <trkpt lat="43.56439" lon="1.44345">
        <ele>206</ele>
        <time>2025-02-15T08:32:20Z</time>
      </trkpt>
      <trkpt lat="43.56438" lon="1.44345">
        <ele>206</ele>
        <time>2025-02-15T08:32:21Z</time>
      </trkpt>
      <trkpt lat="43.56434" lon="1.44347">
        <ele>206</ele>
        <time>2025-02-15T08:32:22Z</time>
      </trkpt>
      <trkpt lat="43.56433" lon="1.44347">
        <ele>206</ele>
        <time>2025-02-15T08:32:23Z</time>
      </trkpt>
      <trkpt lat="43.5643" lon="1.44348">
        <ele>206</ele>
        <time>2025-02-15T08:32:24Z</time>
      </trkpt>
      <trkpt lat="43.56427" lon="1.44349">
        <ele>206</ele>
        <time>2025-02-15T08:32:25Z</time>
      </trkpt>
      <trkpt lat="43.56424" lon="1.4435">
        <ele>206</ele>
        <time>2025-02-15T08:32:26Z</time>
      </trkpt>
      <trkpt lat="43.56422" lon="1.44351">
        <ele>206</ele>
        <time>2025-02-15T08:32:27Z</time>
      </trkpt>
      <trkpt lat="43.56418" lon="1.44352">
        <ele>206</ele>
        <time>2025-02-15T08:32:28Z</time>
      </trkpt>
      <trkpt lat="43.56416" lon="1.44353">
        <ele>205</ele>
        <time>2025-02-15T08:32:29Z</time>
      </trkpt>
      <trkpt lat="43.56413" lon="1.44354">
        <ele>205</ele>
        <time>2025-02-15T08:32:30Z</time>
      </trkpt>
      <trkpt lat="43.56413" lon="1.44354">
        <ele>205</ele>
        <time>2025-02-15T08:32:31Z</time>
      </trkpt>
      <trkpt lat="43.56407" lon="1.44355">
        <ele>205</ele>
        <time>2025-02-15T08:32:32Z</time>
      </trkpt>
      <trkpt lat="43.56404" lon="1.44356">
        <ele>205</ele>
        <time>2025-02-15T08:32:33Z</time>
      </trkpt>
      <trkpt lat="43.564" lon="1.44357">
        <ele>204</ele>
        <time>2025-02-15T08:32:34Z</time>
      </trkpt>
      <trkpt lat="43.56396" lon="1.44357">
        <ele>204</ele>
        <time>2025-02-15T08:32:35Z</time>
      </trkpt>
      <trkpt lat="43.56395" lon="1.44358">
        <ele>203</ele>
        <time>2025-02-15T08:32:36Z</time>
      </trkpt>
      <trkpt lat="43.56391" lon="1.4436">
        <ele>203</ele>
        <time>2025-02-15T08:32:37Z</time>
      </trkpt>
      <trkpt lat="43.5639" lon="1.4436">
        <ele>202</ele>
        <time>2025-02-15T08:32:38Z</time>
      </trkpt>
      <trkpt lat="43.56388" lon="1.44362">
        <ele>202</ele>
        <time>2025-02-15T08:32:39Z</time>
      </trkpt>
      <trkpt lat="43.56386" lon="1.44363">
        <ele>202</ele>
        <time>2025-02-15T08:32:40Z</time>
      </trkpt>
      <trkpt lat="43.56384" lon="1.44364">
        <ele>202</ele>
        <time>2025-02-15T08:32:41Z</time>
      </trkpt>
      <trkpt lat="43.56383" lon="1.44365">
        <ele>202</ele>
        <time>2025-02-15T08:32:42Z</time>
      </trkpt>
      <trkpt lat="43.56382" lon="1.44367">
        <ele>202</ele>
        <time>2025-02-15T08:32:43Z</time>
      </trkpt>
      <trkpt lat="43.5638" lon="1.44368">
        <ele>203</ele>
        <time>2025-02-15T08:32:44Z</time>
      </trkpt>
      <trkpt lat="43.56377" lon="1.44369">
        <ele>203</ele>
        <time>2025-02-15T08:32:45Z</time>
      </trkpt>
      <trkpt lat="43.56376" lon="1.44369">
        <ele>203</ele>
        <time>2025-02-15T08:32:46Z</time>
      </trkpt>
      <trkpt lat="43.56375" lon="1.44369">
        <ele>203</ele>
        <time>2025-02-15T08:32:47Z</time>
      </trkpt>
      <trkpt lat="43.56375" lon="1.44369">
        <ele>203</ele>
        <time>2025-02-15T08:32:48Z</time>
      </trkpt>
      <trkpt lat="43.56372" lon="1.44369">
        <ele>203</ele>
        <time>2025-02-15T08:32:49Z</time>
      </trkpt>
      <trkpt lat="43.56372" lon="1.44369">
        <ele>202</ele>
        <time>2025-02-15T08:32:50Z</time>
      </trkpt>
      <trkpt lat="43.5637" lon="1.44372">
        <ele>201</ele>
        <time>2025-02-15T08:32:52Z</time>
      </trkpt>
      <trkpt lat="43.56369" lon="1.44374">
        <ele>201</ele>
        <time>2025-02-15T08:32:53Z</time>
      </trkpt>
      <trkpt lat="43.56368" lon="1.44377">
        <ele>202</ele>
        <time>2025-02-15T08:32:54Z</time>
      </trkpt>
      <trkpt lat="43.56367" lon="1.44379">
        <ele>202</ele>
        <time>2025-02-15T08:32:55Z</time>
      </trkpt>
      <trkpt lat="43.56366" lon="1.44382">
        <ele>202</ele>
        <time>2025-02-15T08:32:56Z</time>
      </trkpt>
      <trkpt lat="43.56364" lon="1.44384">
        <ele>202</ele>
        <time>2025-02-15T08:32:57Z</time>
      </trkpt>
      <trkpt lat="43.56363" lon="1.44386">
        <ele>202</ele>
        <time>2025-02-15T08:32:58Z</time>
      </trkpt>
      <trkpt lat="43.56361" lon="1.44388">
        <ele>203</ele>
        <time>2025-02-15T08:32:59Z</time>
      </trkpt>
      <trkpt lat="43.56359" lon="1.44391">
        <ele>203</ele>
        <time>2025-02-15T08:33:00Z</time>
      </trkpt>
      <trkpt lat="43.56359" lon="1.44392">
        <ele>203</ele>
        <time>2025-02-15T08:33:01Z</time>
      </trkpt>
      <trkpt lat="43.56357" lon="1.44395">
        <ele>203</ele>
        <time>2025-02-15T08:33:02Z</time>
      </trkpt>
      <trkpt lat="43.56356" lon="1.44398">
        <ele>203</ele>
        <time>2025-02-15T08:33:03Z</time>
      </trkpt>
      <trkpt lat="43.56354" lon="1.444">
        <ele>204</ele>
        <time>2025-02-15T08:33:04Z</time>
      </trkpt>
      <trkpt lat="43.56353" lon="1.44403">
        <ele>204</ele>
        <time>2025-02-15T08:33:05Z</time>
      </trkpt>
      <trkpt lat="43.56351" lon="1.44406">
        <ele>204</ele>
        <time>2025-02-15T08:33:06Z</time>
      </trkpt>
      <trkpt lat="43.56349" lon="1.44409">
        <ele>204</ele>
        <time>2025-02-15T08:33:07Z</time>
      </trkpt>
      <trkpt lat="43.56348" lon="1.44412">
        <ele>204</ele>
        <time>2025-02-15T08:33:08Z</time>
      </trkpt>
      <trkpt lat="43.56346" lon="1.44414">
        <ele>205</ele>
        <time>2025-02-15T08:33:09Z</time>
      </trkpt>
      <trkpt lat="43.56344" lon="1.44418">
        <ele>205</ele>
        <time>2025-02-15T08:33:10Z</time>
      </trkpt>
      <trkpt lat="43.56343" lon="1.4442">
        <ele>206</ele>
        <time>2025-02-15T08:33:11Z</time>
      </trkpt>
      <trkpt lat="43.56341" lon="1.44423">
        <ele>206</ele>
        <time>2025-02-15T08:33:12Z</time>
      </trkpt>
      <trkpt lat="43.5634" lon="1.44425">
        <ele>206</ele>
        <time>2025-02-15T08:33:13Z</time>
      </trkpt>
      <trkpt lat="43.56338" lon="1.44428">
        <ele>206</ele>
        <time>2025-02-15T08:33:14Z</time>
      </trkpt>
      <trkpt lat="43.56337" lon="1.44432">
        <ele>206</ele>
        <time>2025-02-15T08:33:15Z</time>
      </trkpt>
      <trkpt lat="43.56336" lon="1.44433">
        <ele>207</ele>
        <time>2025-02-15T08:33:16Z</time>
      </trkpt>
      <trkpt lat="43.56335" lon="1.44435">
        <ele>207</ele>
        <time>2025-02-15T08:33:17Z</time>
      </trkpt>
      <trkpt lat="43.56333" lon="1.44438">
        <ele>207</ele>
        <time>2025-02-15T08:33:18Z</time>
      </trkpt>
      <trkpt lat="43.56332" lon="1.4444">
        <ele>207</ele>
        <time>2025-02-15T08:33:19Z</time>
      </trkpt>
      <trkpt lat="43.56331" lon="1.44442">
        <ele>207</ele>
        <time>2025-02-15T08:33:20Z</time>
      </trkpt>
      <trkpt lat="43.56329" lon="1.44443">
        <ele>208</ele>
        <time>2025-02-15T08:33:21Z</time>
      </trkpt>
      <trkpt lat="43.56327" lon="1.44447">
        <ele>208</ele>
        <time>2025-02-15T08:33:23Z</time>
      </trkpt>
      <trkpt lat="43.56326" lon="1.44449">
        <ele>208</ele>
        <time>2025-02-15T08:33:24Z</time>
      </trkpt>
      <trkpt lat="43.56326" lon="1.44449">
        <ele>208</ele>
        <time>2025-02-15T08:33:25Z</time>
      </trkpt>
      <trkpt lat="43.56325" lon="1.44453">
        <ele>208</ele>
        <time>2025-02-15T08:33:26Z</time>
      </trkpt>
      <trkpt lat="43.56325" lon="1.44453">
        <ele>208</ele>
        <time>2025-02-15T08:33:27Z</time>
      </trkpt>
      <trkpt lat="43.56323" lon="1.44456">
        <ele>209</ele>
        <time>2025-02-15T08:33:28Z</time>
      </trkpt>
      <trkpt lat="43.56321" lon="1.44458">
        <ele>209</ele>
        <time>2025-02-15T08:33:30Z</time>
      </trkpt>
      <trkpt lat="43.56319" lon="1.44462">
        <ele>210</ele>
        <time>2025-02-15T08:33:32Z</time>
      </trkpt>
      <trkpt lat="43.56319" lon="1.44462">
        <ele>210</ele>
        <time>2025-02-15T08:33:33Z</time>
      </trkpt>
      <trkpt lat="43.56318" lon="1.44465">
        <ele>210</ele>
        <time>2025-02-15T08:33:34Z</time>
      </trkpt>
      <trkpt lat="43.56318" lon="1.44465">
        <ele>210</ele>
        <time>2025-02-15T08:33:35Z</time>
      </trkpt>
      <trkpt lat="43.56316" lon="1.44467">
        <ele>210</ele>
        <time>2025-02-15T08:33:36Z</time>
      </trkpt>
      <trkpt lat="43.56316" lon="1.44467">
        <ele>211</ele>
        <time>2025-02-15T08:33:37Z</time>
      </trkpt>
      <trkpt lat="43.56313" lon="1.44469">
        <ele>211</ele>
        <time>2025-02-15T08:33:38Z</time>
      </trkpt>
      <trkpt lat="43.56313" lon="1.44469">
        <ele>211</ele>
        <time>2025-02-15T08:33:39Z</time>
      </trkpt>
      <trkpt lat="43.56311" lon="1.44472">
        <ele>211</ele>
        <time>2025-02-15T08:33:40Z</time>
      </trkpt>
      <trkpt lat="43.5631" lon="1.44475">
        <ele>211</ele>
        <time>2025-02-15T08:33:42Z</time>
      </trkpt>
      <trkpt lat="43.56307" lon="1.44478">
        <ele>211</ele>
        <time>2025-02-15T08:33:44Z</time>
      </trkpt>
      <trkpt lat="43.56307" lon="1.44478">
        <ele>212</ele>
        <time>2025-02-15T08:33:45Z</time>
      </trkpt>
      <trkpt lat="43.56306" lon="1.4448">
        <ele>212</ele>
        <time>2025-02-15T08:33:46Z</time>
      </trkpt>
      <trkpt lat="43.56306" lon="1.4448">
        <ele>213</ele>
        <time>2025-02-15T08:33:47Z</time>
      </trkpt>
      <trkpt lat="43.56304" lon="1.44483">
        <ele>213</ele>
        <time>2025-02-15T08:33:48Z</time>
      </trkpt>
      <trkpt lat="43.56304" lon="1.44483">
        <ele>213</ele>
        <time>2025-02-15T08:33:49Z</time>
      </trkpt>
      <trkpt lat="43.56302" lon="1.44486">
        <ele>213</ele>
        <time>2025-02-15T08:33:50Z</time>
      </trkpt>
      <trkpt lat="43.56302" lon="1.44486">
        <ele>213</ele>
        <time>2025-02-15T08:33:51Z</time>
      </trkpt>
      <trkpt lat="43.56301" lon="1.44488">
        <ele>213</ele>
        <time>2025-02-15T08:33:52Z</time>
      </trkpt>
      <trkpt lat="43.56301" lon="1.44488">
        <ele>213</ele>
        <time>2025-02-15T08:33:53Z</time>
      </trkpt>
      <trkpt lat="43.56299" lon="1.44491">
        <ele>213</ele>
        <time>2025-02-15T08:33:54Z</time>
      </trkpt>
      <trkpt lat="43.56297" lon="1.44493">
        <ele>213</ele>
        <time>2025-02-15T08:33:56Z</time>
      </trkpt>
      <trkpt lat="43.56295" lon="1.44495">
        <ele>214</ele>
        <time>2025-02-15T08:33:58Z</time>
      </trkpt>
      <trkpt lat="43.56295" lon="1.44495">
        <ele>214</ele>
        <time>2025-02-15T08:33:59Z</time>
      </trkpt>
      <trkpt lat="43.56294" lon="1.44497">
        <ele>215</ele>
        <time>2025-02-15T08:34:00Z</time>
      </trkpt>
      <trkpt lat="43.56294" lon="1.44497">
        <ele>215</ele>
        <time>2025-02-15T08:34:01Z</time>
      </trkpt>
      <trkpt lat="43.56293" lon="1.44501">
        <ele>215</ele>
        <time>2025-02-15T08:34:02Z</time>
      </trkpt>
      <trkpt lat="43.56292" lon="1.44503">
        <ele>215</ele>
        <time>2025-02-15T08:34:03Z</time>
      </trkpt>
      <trkpt lat="43.56292" lon="1.44503">
        <ele>215</ele>
        <time>2025-02-15T08:34:04Z</time>
      </trkpt>
      <trkpt lat="43.56291" lon="1.44505">
        <ele>215</ele>
        <time>2025-02-15T08:34:05Z</time>
      </trkpt>
      <trkpt lat="43.56291" lon="1.44505">
        <ele>215</ele>
        <time>2025-02-15T08:34:06Z</time>
      </trkpt>
      <trkpt lat="43.56289" lon="1.44508">
        <ele>215</ele>
        <time>2025-02-15T08:34:07Z</time>
      </trkpt>
      <trkpt lat="43.56289" lon="1.44508">
        <ele>216</ele>
        <time>2025-02-15T08:34:08Z</time>
      </trkpt>
      <trkpt lat="43.56287" lon="1.44511">
        <ele>216</ele>
        <time>2025-02-15T08:34:09Z</time>
      </trkpt>
      <trkpt lat="43.56287" lon="1.44511">
        <ele>216</ele>
        <time>2025-02-15T08:34:10Z</time>
      </trkpt>
      <trkpt lat="43.56285" lon="1.44514">
        <ele>216</ele>
        <time>2025-02-15T08:34:11Z</time>
      </trkpt>
      <trkpt lat="43.56285" lon="1.44514">
        <ele>217</ele>
        <time>2025-02-15T08:34:12Z</time>
      </trkpt>
      <trkpt lat="43.56283" lon="1.44517">
        <ele>217</ele>
        <time>2025-02-15T08:34:13Z</time>
      </trkpt>
      <trkpt lat="43.56282" lon="1.44518">
        <ele>217</ele>
        <time>2025-02-15T08:34:14Z</time>
      </trkpt>
      <trkpt lat="43.56282" lon="1.44518">
        <ele>217</ele>
        <time>2025-02-15T08:34:15Z</time>
      </trkpt>
      <trkpt lat="43.56279" lon="1.44519">
        <ele>217</ele>
        <time>2025-02-15T08:34:16Z</time>
      </trkpt>
      <trkpt lat="43.56279" lon="1.44519">
        <ele>217</ele>
        <time>2025-02-15T08:34:17Z</time>
      </trkpt>
      <trkpt lat="43.56277" lon="1.44521">
        <ele>218</ele>
        <time>2025-02-15T08:34:18Z</time>
      </trkpt>
      <trkpt lat="43.56275" lon="1.44524">
        <ele>218</ele>
        <time>2025-02-15T08:34:20Z</time>
      </trkpt>
      <trkpt lat="43.56273" lon="1.44526">
        <ele>218</ele>
        <time>2025-02-15T08:34:22Z</time>
      </trkpt>
      <trkpt lat="43.56273" lon="1.44526">
        <ele>219</ele>
        <time>2025-02-15T08:34:23Z</time>
      </trkpt>
      <trkpt lat="43.56271" lon="1.44529">
        <ele>219</ele>
        <time>2025-02-15T08:34:24Z</time>
      </trkpt>
      <trkpt lat="43.56271" lon="1.44529">
        <ele>219</ele>
        <time>2025-02-15T08:34:25Z</time>
      </trkpt>
      <trkpt lat="43.56269" lon="1.44532">
        <ele>219</ele>
        <time>2025-02-15T08:34:26Z</time>
      </trkpt>
      <trkpt lat="43.56269" lon="1.44532">
        <ele>220</ele>
        <time>2025-02-15T08:34:27Z</time>
      </trkpt>
      <trkpt lat="43.56268" lon="1.44535">
        <ele>220</ele>
        <time>2025-02-15T08:34:28Z</time>
      </trkpt>
      <trkpt lat="43.56268" lon="1.44535">
        <ele>220</ele>
        <time>2025-02-15T08:34:29Z</time>
      </trkpt>
      <trkpt lat="43.56266" lon="1.44538">
        <ele>220</ele>
        <time>2025-02-15T08:34:30Z</time>
      </trkpt>
      <trkpt lat="43.56266" lon="1.44538">
        <ele>220</ele>
        <time>2025-02-15T08:34:31Z</time>
      </trkpt>
      <trkpt lat="43.56265" lon="1.4454">
        <ele>220</ele>
        <time>2025-02-15T08:34:32Z</time>
      </trkpt>
      <trkpt lat="43.56264" lon="1.44542">
        <ele>220</ele>
        <time>2025-02-15T08:34:34Z</time>
      </trkpt>
      <trkpt lat="43.56264" lon="1.44542">
        <ele>221</ele>
        <time>2025-02-15T08:34:36Z</time>
      </trkpt>
      <trkpt lat="43.56264" lon="1.44546">
        <ele>221</ele>
        <time>2025-02-15T08:34:37Z</time>
      </trkpt>
      <trkpt lat="43.56264" lon="1.44546">
        <ele>221</ele>
        <time>2025-02-15T08:34:38Z</time>
      </trkpt>
      <trkpt lat="43.56265" lon="1.44549">
        <ele>221</ele>
        <time>2025-02-15T08:34:39Z</time>
      </trkpt>
      <trkpt lat="43.56265" lon="1.44553">
        <ele>221</ele>
        <time>2025-02-15T08:34:41Z</time>
      </trkpt>
      <trkpt lat="43.56265" lon="1.44553">
        <ele>221</ele>
        <time>2025-02-15T08:34:42Z</time>
      </trkpt>
      <trkpt lat="43.56266" lon="1.44557">
        <ele>221</ele>
        <time>2025-02-15T08:34:43Z</time>
      </trkpt>
      <trkpt lat="43.56266" lon="1.44557">
        <ele>221</ele>
        <time>2025-02-15T08:34:44Z</time>
      </trkpt>
      <trkpt lat="43.56269" lon="1.44559">
        <ele>221</ele>
        <time>2025-02-15T08:34:45Z</time>
      </trkpt>
      <trkpt lat="43.56269" lon="1.44559">
        <ele>222</ele>
        <time>2025-02-15T08:34:46Z</time>
      </trkpt>
      <trkpt lat="43.56271" lon="1.4456">
        <ele>222</ele>
        <time>2025-02-15T08:34:47Z</time>
      </trkpt>
      <trkpt lat="43.56271" lon="1.4456">
        <ele>223</ele>
        <time>2025-02-15T08:34:48Z</time>
      </trkpt>
      <trkpt lat="43.56273" lon="1.44562">
        <ele>223</ele>
        <time>2025-02-15T08:34:49Z</time>
      </trkpt>
      <trkpt lat="43.56273" lon="1.44562">
        <ele>223</ele>
        <time>2025-02-15T08:34:50Z</time>
      </trkpt>
      <trkpt lat="43.56275" lon="1.44565">
        <ele>223</ele>
        <time>2025-02-15T08:34:51Z</time>
      </trkpt>
      <trkpt lat="43.56275" lon="1.44565">
        <ele>224</ele>
        <time>2025-02-15T08:34:52Z</time>
      </trkpt>
      <trkpt lat="43.56278" lon="1.44567">
        <ele>224</ele>
        <time>2025-02-15T08:34:53Z</time>
      </trkpt>
      <trkpt lat="43.56278" lon="1.44567">
        <ele>224</ele>
        <time>2025-02-15T08:34:54Z</time>
      </trkpt>
      <trkpt lat="43.5628" lon="1.4457">
        <ele>224</ele>
        <time>2025-02-15T08:34:55Z</time>
      </trkpt>
      <trkpt lat="43.5628" lon="1.4457">
        <ele>225</ele>
        <time>2025-02-15T08:34:56Z</time>
      </trkpt>
      <trkpt lat="43.56281" lon="1.44572">
        <ele>225</ele>
        <time>2025-02-15T08:34:57Z</time>
      </trkpt>
      <trkpt lat="43.56281" lon="1.44572">
        <ele>226</ele>
        <time>2025-02-15T08:34:58Z</time>
      </trkpt>
      <trkpt lat="43.56282" lon="1.44575">
        <ele>226</ele>
        <time>2025-02-15T08:34:59Z</time>
      </trkpt>
      <trkpt lat="43.56284" lon="1.44577">
        <ele>226</ele>
        <time>2025-02-15T08:35:01Z</time>
      </trkpt>
      <trkpt lat="43.56286" lon="1.4458">
        <ele>227</ele>
        <time>2025-02-15T08:35:03Z</time>
      </trkpt>
      <trkpt lat="43.56288" lon="1.44583">
        <ele>227</ele>
        <time>2025-02-15T08:35:05Z</time>
      </trkpt>
      <trkpt lat="43.56288" lon="1.44583">
        <ele>227</ele>
        <time>2025-02-15T08:35:06Z</time>
      </trkpt>
      <trkpt lat="43.56289" lon="1.44586">
        <ele>227</ele>
        <time>2025-02-15T08:35:07Z</time>
      </trkpt>
      <trkpt lat="43.56289" lon="1.44586">
        <ele>227</ele>
        <time>2025-02-15T08:35:08Z</time>
      </trkpt>
      <trkpt lat="43.5629" lon="1.44589">
        <ele>228</ele>
        <time>2025-02-15T08:35:09Z</time>
      </trkpt>
      <trkpt lat="43.5629" lon="1.44589">
        <ele>228</ele>
        <time>2025-02-15T08:35:10Z</time>
      </trkpt>
      <trkpt lat="43.56292" lon="1.44592">
        <ele>228</ele>
        <time>2025-02-15T08:35:11Z</time>
      </trkpt>
      <trkpt lat="43.56292" lon="1.44592">
        <ele>229</ele>
        <time>2025-02-15T08:35:12Z</time>
      </trkpt>
      <trkpt lat="43.56294" lon="1.44594">
        <ele>229</ele>
        <time>2025-02-15T08:35:13Z</time>
      </trkpt>
      <trkpt lat="43.56294" lon="1.44594">
        <ele>229</ele>
        <time>2025-02-15T08:35:14Z</time>
      </trkpt>
      <trkpt lat="43.56296" lon="1.44595">
        <ele>230</ele>
        <time>2025-02-15T08:35:15Z</time>
      </trkpt>
      <trkpt lat="43.56296" lon="1.44595">
        <ele>230</ele>
        <time>2025-02-15T08:35:16Z</time>
      </trkpt>
      <trkpt lat="43.56298" lon="1.44598">
        <ele>230</ele>
        <time>2025-02-15T08:35:17Z</time>
      </trkpt>
      <trkpt lat="43.56299" lon="1.44601">
        <ele>231</ele>
        <time>2025-02-15T08:35:19Z</time>
      </trkpt>
      <trkpt lat="43.56299" lon="1.44601">
        <ele>232</ele>
        <time>2025-02-15T08:35:20Z</time>
      </trkpt>
      <trkpt lat="43.563" lon="1.44603">
        <ele>232</ele>
        <time>2025-02-15T08:35:21Z</time>
      </trkpt>
      <trkpt lat="43.563" lon="1.44603">
        <ele>232</ele>
        <time>2025-02-15T08:35:22Z</time>
      </trkpt>
      <trkpt lat="43.56302" lon="1.44606">
        <ele>232</ele>
        <time>2025-02-15T08:35:23Z</time>
      </trkpt>
      <trkpt lat="43.56302" lon="1.44606">
        <ele>232</ele>
        <time>2025-02-15T08:35:24Z</time>
      </trkpt>
      <trkpt lat="43.56302" lon="1.44609">
        <ele>232</ele>
        <time>2025-02-15T08:35:25Z</time>
      </trkpt>
      <trkpt lat="43.56302" lon="1.44609">
        <ele>233</ele>
        <time>2025-02-15T08:35:26Z</time>
      </trkpt>
      <trkpt lat="43.56302" lon="1.44612">
        <ele>234</ele>
        <time>2025-02-15T08:35:27Z</time>
      </trkpt>
      <trkpt lat="43.56302" lon="1.44612">
        <ele>234</ele>
        <time>2025-02-15T08:35:28Z</time>
      </trkpt>
      <trkpt lat="43.56301" lon="1.44614">
        <ele>234</ele>
        <time>2025-02-15T08:35:29Z</time>
      </trkpt>
      <trkpt lat="43.56301" lon="1.44614">
        <ele>235</ele>
        <time>2025-02-15T08:35:31Z</time>
      </trkpt>
      <trkpt lat="43.563" lon="1.44618">
        <ele>235</ele>
        <time>2025-02-15T08:35:32Z</time>
      </trkpt>
      <trkpt lat="43.563" lon="1.44618">
        <ele>236</ele>
        <time>2025-02-15T08:35:33Z</time>
      </trkpt>
      <trkpt lat="43.563" lon="1.44618">
        <ele>236</ele>
        <time>2025-02-15T08:35:34Z</time>
      </trkpt>
      <trkpt lat="43.56299" lon="1.44621">
        <ele>236</ele>
        <time>2025-02-15T08:35:35Z</time>
      </trkpt>
      <trkpt lat="43.56299" lon="1.44621">
        <ele>236</ele>
        <time>2025-02-15T08:35:36Z</time>
      </trkpt>
      <trkpt lat="43.56299" lon="1.44624">
        <ele>236</ele>
        <time>2025-02-15T08:35:37Z</time>
      </trkpt>
      <trkpt lat="43.56299" lon="1.44624">
        <ele>237</ele>
        <time>2025-02-15T08:35:38Z</time>
      </trkpt>
      <trkpt lat="43.56298" lon="1.44627">
        <ele>238</ele>
        <time>2025-02-15T08:35:39Z</time>
      </trkpt>
      <trkpt lat="43.56298" lon="1.44627">
        <ele>238</ele>
        <time>2025-02-15T08:35:40Z</time>
      </trkpt>
      <trkpt lat="43.56299" lon="1.4463">
        <ele>238</ele>
        <time>2025-02-15T08:35:41Z</time>
      </trkpt>
      <trkpt lat="43.563" lon="1.44633">
        <ele>239</ele>
        <time>2025-02-15T08:35:43Z</time>
      </trkpt>
      <trkpt lat="43.56301" lon="1.44636">
        <ele>240</ele>
        <time>2025-02-15T08:35:45Z</time>
      </trkpt>
      <trkpt lat="43.56301" lon="1.44636">
        <ele>241</ele>
        <time>2025-02-15T08:35:46Z</time>
      </trkpt>
      <trkpt lat="43.56301" lon="1.44639">
        <ele>241</ele>
        <time>2025-02-15T08:35:47Z</time>
      </trkpt>
      <trkpt lat="43.56301" lon="1.44639">
        <ele>241</ele>
        <time>2025-02-15T08:35:48Z</time>
      </trkpt>
      <trkpt lat="43.563" lon="1.44642">
        <ele>241</ele>
        <time>2025-02-15T08:35:49Z</time>
      </trkpt>
      <trkpt lat="43.563" lon="1.44642">
        <ele>241</ele>
        <time>2025-02-15T08:35:50Z</time>
      </trkpt>
      <trkpt lat="43.56297" lon="1.44645">
        <ele>241</ele>
        <time>2025-02-15T08:35:51Z</time>
      </trkpt>
      <trkpt lat="43.56297" lon="1.44645">
        <ele>241</ele>
        <time>2025-02-15T08:35:52Z</time>
      </trkpt>
      <trkpt lat="43.56295" lon="1.44647">
        <ele>241</ele>
        <time>2025-02-15T08:35:53Z</time>
      </trkpt>
      <trkpt lat="43.56295" lon="1.44647">
        <ele>241</ele>
        <time>2025-02-15T08:35:54Z</time>
      </trkpt>
      <trkpt lat="43.56293" lon="1.4465">
        <ele>241</ele>
        <time>2025-02-15T08:35:55Z</time>
      </trkpt>
      <trkpt lat="43.5629" lon="1.44653">
        <ele>241</ele>
        <time>2025-02-15T08:35:57Z</time>
      </trkpt>
      <trkpt lat="43.5629" lon="1.44653">
        <ele>241</ele>
        <time>2025-02-15T08:35:58Z</time>
      </trkpt>
      <trkpt lat="43.56287" lon="1.44654">
        <ele>241</ele>
        <time>2025-02-15T08:35:59Z</time>
      </trkpt>
      <trkpt lat="43.56287" lon="1.44654">
        <ele>241</ele>
        <time>2025-02-15T08:36:00Z</time>
      </trkpt>
      <trkpt lat="43.56284" lon="1.44656">
        <ele>241</ele>
        <time>2025-02-15T08:36:01Z</time>
      </trkpt>
      <trkpt lat="43.56284" lon="1.44656">
        <ele>241</ele>
        <time>2025-02-15T08:36:02Z</time>
      </trkpt>
      <trkpt lat="43.56282" lon="1.44657">
        <ele>241</ele>
        <time>2025-02-15T08:36:03Z</time>
      </trkpt>
      <trkpt lat="43.56282" lon="1.44657">
        <ele>241</ele>
        <time>2025-02-15T08:36:04Z</time>
      </trkpt>
      <trkpt lat="43.56279" lon="1.44657">
        <ele>241</ele>
        <time>2025-02-15T08:36:05Z</time>
      </trkpt>
      <trkpt lat="43.56279" lon="1.44657">
        <ele>241</ele>
        <time>2025-02-15T08:36:06Z</time>
      </trkpt>
      <trkpt lat="43.56276" lon="1.44659">
        <ele>241</ele>
        <time>2025-02-15T08:36:07Z</time>
      </trkpt>
      <trkpt lat="43.56274" lon="1.44661">
        <ele>241</ele>
        <time>2025-02-15T08:36:09Z</time>
      </trkpt>
      <trkpt lat="43.56274" lon="1.44661">
        <ele>241</ele>
        <time>2025-02-15T08:36:10Z</time>
      </trkpt>
      <trkpt lat="43.56272" lon="1.44663">
        <ele>241</ele>
        <time>2025-02-15T08:36:11Z</time>
      </trkpt>
      <trkpt lat="43.56272" lon="1.44663">
        <ele>241</ele>
        <time>2025-02-15T08:36:12Z</time>
      </trkpt>
      <trkpt lat="43.56269" lon="1.44665">
        <ele>241</ele>
        <time>2025-02-15T08:36:13Z</time>
      </trkpt>
      <trkpt lat="43.56269" lon="1.44665">
        <ele>241</ele>
        <time>2025-02-15T08:36:14Z</time>
      </trkpt>
      <trkpt lat="43.56266" lon="1.44667">
        <ele>241</ele>
        <time>2025-02-15T08:36:15Z</time>
      </trkpt>
      <trkpt lat="43.56264" lon="1.44669">
        <ele>241</ele>
        <time>2025-02-15T08:36:16Z</time>
      </trkpt>
      <trkpt lat="43.56264" lon="1.44669">
        <ele>241</ele>
        <time>2025-02-15T08:36:17Z</time>
      </trkpt>
      <trkpt lat="43.56261" lon="1.44671">
        <ele>241</ele>
        <time>2025-02-15T08:36:18Z</time>
      </trkpt>
      <trkpt lat="43.56259" lon="1.44671">
        <ele>242</ele>
        <time>2025-02-15T08:36:19Z</time>
      </trkpt>
      <trkpt lat="43.56255" lon="1.44672">
        <ele>242</ele>
        <time>2025-02-15T08:36:20Z</time>
      </trkpt>
      <trkpt lat="43.56254" lon="1.44673">
        <ele>242</ele>
        <time>2025-02-15T08:36:21Z</time>
      </trkpt>
      <trkpt lat="43.56251" lon="1.44674">
        <ele>242</ele>
        <time>2025-02-15T08:36:22Z</time>
      </trkpt>
      <trkpt lat="43.56249" lon="1.44675">
        <ele>243</ele>
        <time>2025-02-15T08:36:23Z</time>
      </trkpt>
      <trkpt lat="43.56247" lon="1.44676">
        <ele>243</ele>
        <time>2025-02-15T08:36:24Z</time>
      </trkpt>
      <trkpt lat="43.56244" lon="1.44677">
        <ele>242</ele>
        <time>2025-02-15T08:36:25Z</time>
      </trkpt>
      <trkpt lat="43.56242" lon="1.44678">
        <ele>242</ele>
        <time>2025-02-15T08:36:26Z</time>
      </trkpt>
      <trkpt lat="43.56238" lon="1.4468">
        <ele>242</ele>
        <time>2025-02-15T08:36:27Z</time>
      </trkpt>
      <trkpt lat="43.56237" lon="1.4468">
        <ele>242</ele>
        <time>2025-02-15T08:36:28Z</time>
      </trkpt>
      <trkpt lat="43.56233" lon="1.44682">
        <ele>242</ele>
        <time>2025-02-15T08:36:29Z</time>
      </trkpt>
      <trkpt lat="43.56232" lon="1.44683">
        <ele>241</ele>
        <time>2025-02-15T08:36:30Z</time>
      </trkpt>
      <trkpt lat="43.56229" lon="1.44685">
        <ele>241</ele>
        <time>2025-02-15T08:36:31Z</time>
      </trkpt>
      <trkpt lat="43.56226" lon="1.44686">
        <ele>241</ele>
        <time>2025-02-15T08:36:32Z</time>
      </trkpt>
      <trkpt lat="43.56224" lon="1.44687">
        <ele>241</ele>
        <time>2025-02-15T08:36:33Z</time>
      </trkpt>
      <trkpt lat="43.56221" lon="1.44688">
        <ele>241</ele>
        <time>2025-02-15T08:36:34Z</time>
      </trkpt>
      <trkpt lat="43.56219" lon="1.44689">
        <ele>241</ele>
        <time>2025-02-15T08:36:35Z</time>
      </trkpt>
      <trkpt lat="43.56217" lon="1.4469">
        <ele>241</ele>
        <time>2025-02-15T08:36:36Z</time>
      </trkpt>
      <trkpt lat="43.56214" lon="1.4469">
        <ele>241</ele>
        <time>2025-02-15T08:36:37Z</time>
      </trkpt>
      <trkpt lat="43.56212" lon="1.44691">
        <ele>241</ele>
        <time>2025-02-15T08:36:38Z</time>
      </trkpt>
      <trkpt lat="43.56209" lon="1.44692">
        <ele>241</ele>
        <time>2025-02-15T08:36:39Z</time>
      </trkpt>
      <trkpt lat="43.56208" lon="1.44692">
        <ele>241</ele>
        <time>2025-02-15T08:36:40Z</time>
      </trkpt>
      <trkpt lat="43.56205" lon="1.44693">
        <ele>241</ele>
        <time>2025-02-15T08:36:41Z</time>
      </trkpt>
      <trkpt lat="43.56203" lon="1.44693">
        <ele>241</ele>
        <time>2025-02-15T08:36:42Z</time>
      </trkpt>
      <trkpt lat="43.56201" lon="1.44694">
        <ele>241</ele>
        <time>2025-02-15T08:36:43Z</time>
      </trkpt>
      <trkpt lat="43.56197" lon="1.44694">
        <ele>241</ele>
        <time>2025-02-15T08:36:44Z</time>
      </trkpt>
      <trkpt lat="43.56196" lon="1.44694">
        <ele>242</ele>
        <time>2025-02-15T08:36:45Z</time>
      </trkpt>
      <trkpt lat="43.56192" lon="1.44696">
        <ele>242</ele>
        <time>2025-02-15T08:36:46Z</time>
      </trkpt>
      <trkpt lat="43.56191" lon="1.44696">
        <ele>243</ele>
        <time>2025-02-15T08:36:47Z</time>
      </trkpt>
      <trkpt lat="43.56188" lon="1.44698">
        <ele>243</ele>
        <time>2025-02-15T08:36:48Z</time>
      </trkpt>
      <trkpt lat="43.56186" lon="1.44699">
        <ele>243</ele>
        <time>2025-02-15T08:36:49Z</time>
      </trkpt>
      <trkpt lat="43.56183" lon="1.447">
        <ele>243</ele>
        <time>2025-02-15T08:36:50Z</time>
      </trkpt>
      <trkpt lat="43.5618" lon="1.44703">
        <ele>243</ele>
        <time>2025-02-15T08:36:51Z</time>
      </trkpt>
      <trkpt lat="43.56178" lon="1.44703">
        <ele>243</ele>
        <time>2025-02-15T08:36:52Z</time>
      </trkpt>
      <trkpt lat="43.56176" lon="1.44705">
        <ele>243</ele>
        <time>2025-02-15T08:36:53Z</time>
      </trkpt>
      <trkpt lat="43.56174" lon="1.44706">
        <ele>243</ele>
        <time>2025-02-15T08:36:54Z</time>
      </trkpt>
      <trkpt lat="43.56172" lon="1.44708">
        <ele>242</ele>
        <time>2025-02-15T08:36:55Z</time>
      </trkpt>
      <trkpt lat="43.5617" lon="1.44709">
        <ele>242</ele>
        <time>2025-02-15T08:36:56Z</time>
      </trkpt>
      <trkpt lat="43.56167" lon="1.44709">
        <ele>242</ele>
        <time>2025-02-15T08:36:57Z</time>
      </trkpt>
      <trkpt lat="43.56163" lon="1.44711">
        <ele>242</ele>
        <time>2025-02-15T08:36:58Z</time>
      </trkpt>
      <trkpt lat="43.56162" lon="1.44711">
        <ele>240</ele>
        <time>2025-02-15T08:36:59Z</time>
      </trkpt>
      <trkpt lat="43.56159" lon="1.44711">
        <ele>240</ele>
        <time>2025-02-15T08:37:00Z</time>
      </trkpt>
      <trkpt lat="43.56157" lon="1.44712">
        <ele>240</ele>
        <time>2025-02-15T08:37:01Z</time>
      </trkpt>
      <trkpt lat="43.56154" lon="1.44713">
        <ele>241</ele>
        <time>2025-02-15T08:37:02Z</time>
      </trkpt>
      <trkpt lat="43.56151" lon="1.44714">
        <ele>241</ele>
        <time>2025-02-15T08:37:03Z</time>
      </trkpt>
      <trkpt lat="43.56149" lon="1.44714">
        <ele>241</ele>
        <time>2025-02-15T08:37:04Z</time>
      </trkpt>
      <trkpt lat="43.56145" lon="1.44714">
        <ele>241</ele>
        <time>2025-02-15T08:37:05Z</time>
      </trkpt>
      <trkpt lat="43.56144" lon="1.44714">
        <ele>241</ele>
        <time>2025-02-15T08:37:06Z</time>
      </trkpt>
      <trkpt lat="43.5614" lon="1.44714">
        <ele>241</ele>
        <time>2025-02-15T08:37:07Z</time>
      </trkpt>
      <trkpt lat="43.56139" lon="1.44713">
        <ele>240</ele>
        <time>2025-02-15T08:37:08Z</time>
      </trkpt>
      <trkpt lat="43.56137" lon="1.44712">
        <ele>241</ele>
        <time>2025-02-15T08:37:09Z</time>
      </trkpt>
      <trkpt lat="43.56134" lon="1.44711">
        <ele>241</ele>
        <time>2025-02-15T08:37:10Z</time>
      </trkpt>
      <trkpt lat="43.56132" lon="1.4471">
        <ele>242</ele>
        <time>2025-02-15T08:37:11Z</time>
      </trkpt>
      <trkpt lat="43.56129" lon="1.44708">
        <ele>242</ele>
        <time>2025-02-15T08:37:12Z</time>
      </trkpt>
      <trkpt lat="43.56127" lon="1.44706">
        <ele>242</ele>
        <time>2025-02-15T08:37:13Z</time>
      </trkpt>
      <trkpt lat="43.56124" lon="1.44704">
        <ele>242</ele>
        <time>2025-02-15T08:37:14Z</time>
      </trkpt>
      <trkpt lat="43.56122" lon="1.44703">
        <ele>242</ele>
        <time>2025-02-15T08:37:15Z</time>
      </trkpt>
      <trkpt lat="43.56119" lon="1.44702">
        <ele>242</ele>
        <time>2025-02-15T08:37:16Z</time>
      </trkpt>
      <trkpt lat="43.56116" lon="1.44701">
        <ele>242</ele>
        <time>2025-02-15T08:37:17Z</time>
      </trkpt>
      <trkpt lat="43.56115" lon="1.447">
        <ele>241</ele>
        <time>2025-02-15T08:37:18Z</time>
      </trkpt>
      <trkpt lat="43.56111" lon="1.44699">
        <ele>241</ele>
        <time>2025-02-15T08:37:19Z</time>
      </trkpt>
      <trkpt lat="43.5611" lon="1.44699">
        <ele>242</ele>
        <time>2025-02-15T08:37:20Z</time>
      </trkpt>
      <trkpt lat="43.56108" lon="1.44698">
        <ele>242</ele>
        <time>2025-02-15T08:37:21Z</time>
      </trkpt>
      <trkpt lat="43.56105" lon="1.44698">
        <ele>242</ele>
        <time>2025-02-15T08:37:22Z</time>
      </trkpt>
      <trkpt lat="43.56103" lon="1.44698">
        <ele>242</ele>
        <time>2025-02-15T08:37:23Z</time>
      </trkpt>
      <trkpt lat="43.56101" lon="1.44698">
        <ele>242</ele>
        <time>2025-02-15T08:37:24Z</time>
      </trkpt>
      <trkpt lat="43.56099" lon="1.44698">
        <ele>242</ele>
        <time>2025-02-15T08:37:25Z</time>
      </trkpt>
      <trkpt lat="43.56094" lon="1.44702">
        <ele>243</ele>
        <time>2025-02-15T08:37:45Z</time>
      </trkpt>
      <trkpt lat="43.56092" lon="1.44702">
        <ele>243</ele>
        <time>2025-02-15T08:37:46Z</time>
      </trkpt>
      <trkpt lat="43.56089" lon="1.44704">
        <ele>243</ele>
        <time>2025-02-15T08:37:47Z</time>
      </trkpt>
      <trkpt lat="43.56088" lon="1.44704">
        <ele>243</ele>
        <time>2025-02-15T08:37:48Z</time>
      </trkpt>
      <trkpt lat="43.56084" lon="1.44705">
        <ele>243</ele>
        <time>2025-02-15T08:37:49Z</time>
      </trkpt>
      <trkpt lat="43.56082" lon="1.44705">
        <ele>243</ele>
        <time>2025-02-15T08:37:50Z</time>
      </trkpt>
      <trkpt lat="43.5608" lon="1.44706">
        <ele>243</ele>
        <time>2025-02-15T08:37:51Z</time>
      </trkpt>
      <trkpt lat="43.56078" lon="1.44706">
        <ele>243</ele>
        <time>2025-02-15T08:37:52Z</time>
      </trkpt>
      <trkpt lat="43.56076" lon="1.44707">
        <ele>244</ele>
        <time>2025-02-15T08:37:53Z</time>
      </trkpt>
      <trkpt lat="43.56071" lon="1.44709">
        <ele>244</ele>
        <time>2025-02-15T08:37:54Z</time>
      </trkpt>
      <trkpt lat="43.5607" lon="1.44709">
        <ele>244</ele>
        <time>2025-02-15T08:37:55Z</time>
      </trkpt>
      <trkpt lat="43.56067" lon="1.44711">
        <ele>244</ele>
        <time>2025-02-15T08:37:56Z</time>
      </trkpt>
      <trkpt lat="43.56064" lon="1.44713">
        <ele>244</ele>
        <time>2025-02-15T08:37:57Z</time>
      </trkpt>
      <trkpt lat="43.56061" lon="1.44714">
        <ele>244</ele>
        <time>2025-02-15T08:37:58Z</time>
      </trkpt>
      <trkpt lat="43.56057" lon="1.44715">
        <ele>244</ele>
        <time>2025-02-15T08:37:59Z</time>
      </trkpt>
      <trkpt lat="43.56055" lon="1.44716">
        <ele>245</ele>
        <time>2025-02-15T08:38:00Z</time>
      </trkpt>
      <trkpt lat="43.56051" lon="1.44715">
        <ele>245</ele>
        <time>2025-02-15T08:38:01Z</time>
      </trkpt>
      <trkpt lat="43.5605" lon="1.44714">
        <ele>245</ele>
        <time>2025-02-15T08:38:02Z</time>
      </trkpt>
      <trkpt lat="43.56047" lon="1.44713">
        <ele>245</ele>
        <time>2025-02-15T08:38:03Z</time>
      </trkpt>
      <trkpt lat="43.56044" lon="1.44711">
        <ele>245</ele>
        <time>2025-02-15T08:38:04Z</time>
      </trkpt>
      <trkpt lat="43.56042" lon="1.44711">
        <ele>246</ele>
        <time>2025-02-15T08:38:05Z</time>
      </trkpt>
      <trkpt lat="43.5604" lon="1.44709">
        <ele>246</ele>
        <time>2025-02-15T08:38:06Z</time>
      </trkpt>
      <trkpt lat="43.56038" lon="1.44708">
        <ele>246</ele>
        <time>2025-02-15T08:38:07Z</time>
      </trkpt>
      <trkpt lat="43.56036" lon="1.44705">
        <ele>246</ele>
        <time>2025-02-15T08:38:08Z</time>
      </trkpt>
      <trkpt lat="43.56035" lon="1.44705">
        <ele>247</ele>
        <time>2025-02-15T08:38:09Z</time>
      </trkpt>
      <trkpt lat="43.56031" lon="1.44703">
        <ele>247</ele>
        <time>2025-02-15T08:38:10Z</time>
      </trkpt>
      <trkpt lat="43.5603" lon="1.44702">
        <ele>247</ele>
        <time>2025-02-15T08:38:11Z</time>
      </trkpt>
      <trkpt lat="43.56026" lon="1.447">
        <ele>247</ele>
        <time>2025-02-15T08:38:12Z</time>
      </trkpt>
      <trkpt lat="43.56025" lon="1.44699">
        <ele>247</ele>
        <time>2025-02-15T08:38:13Z</time>
      </trkpt>
      <trkpt lat="43.56023" lon="1.44697">
        <ele>248</ele>
        <time>2025-02-15T08:38:14Z</time>
      </trkpt>
      <trkpt lat="43.56021" lon="1.44695">
        <ele>248</ele>
        <time>2025-02-15T08:38:15Z</time>
      </trkpt>
      <trkpt lat="43.56019" lon="1.44693">
        <ele>248</ele>
        <time>2025-02-15T08:38:16Z</time>
      </trkpt>
      <trkpt lat="43.56017" lon="1.44692">
        <ele>248</ele>
        <time>2025-02-15T08:38:17Z</time>
      </trkpt>
      <trkpt lat="43.56014" lon="1.4469">
        <ele>248</ele>
        <time>2025-02-15T08:38:18Z</time>
      </trkpt>
      <trkpt lat="43.56011" lon="1.44689">
        <ele>248</ele>
        <time>2025-02-15T08:38:19Z</time>
      </trkpt>
      <trkpt lat="43.5601" lon="1.44689">
        <ele>249</ele>
        <time>2025-02-15T08:38:20Z</time>
      </trkpt>
      <trkpt lat="43.56006" lon="1.44687">
        <ele>249</ele>
        <time>2025-02-15T08:38:21Z</time>
      </trkpt>
      <trkpt lat="43.56005" lon="1.44687">
        <ele>249</ele>
        <time>2025-02-15T08:38:22Z</time>
      </trkpt>
      <trkpt lat="43.56001" lon="1.44685">
        <ele>249</ele>
        <time>2025-02-15T08:38:23Z</time>
      </trkpt>
      <trkpt lat="43.56" lon="1.44685">
        <ele>249</ele>
        <time>2025-02-15T08:38:24Z</time>
      </trkpt>
      <trkpt lat="43.55998" lon="1.44684">
        <ele>249</ele>
        <time>2025-02-15T08:38:25Z</time>
      </trkpt>
      <trkpt lat="43.55995" lon="1.44682">
        <ele>249</ele>
        <time>2025-02-15T08:38:26Z</time>
      </trkpt>
      <trkpt lat="43.55992" lon="1.44681">
        <ele>249</ele>
        <time>2025-02-15T08:38:27Z</time>
      </trkpt>
      <trkpt lat="43.55991" lon="1.44681">
        <ele>250</ele>
        <time>2025-02-15T08:38:28Z</time>
      </trkpt>
      <trkpt lat="43.55987" lon="1.4468">
        <ele>250</ele>
        <time>2025-02-15T08:38:29Z</time>
      </trkpt>
      <trkpt lat="43.55986" lon="1.4468">
        <ele>250</ele>
        <time>2025-02-15T08:38:30Z</time>
      </trkpt>
      <trkpt lat="43.55983" lon="1.4468">
        <ele>251</ele>
        <time>2025-02-15T08:38:31Z</time>
      </trkpt>
      <trkpt lat="43.5598" lon="1.44679">
        <ele>251</ele>
        <time>2025-02-15T08:38:32Z</time>
      </trkpt>
      <trkpt lat="43.55978" lon="1.44679">
        <ele>252</ele>
        <time>2025-02-15T08:38:33Z</time>
      </trkpt>
      <trkpt lat="43.55976" lon="1.44678">
        <ele>252</ele>
        <time>2025-02-15T08:38:34Z</time>
      </trkpt>
      <trkpt lat="43.55976" lon="1.44678">
        <ele>252</ele>
        <time>2025-02-15T08:38:35Z</time>
      </trkpt>
      <trkpt lat="43.55973" lon="1.44677">
        <ele>252</ele>
        <time>2025-02-15T08:38:36Z</time>
      </trkpt>
      <trkpt lat="43.5597" lon="1.44676">
        <ele>253</ele>
        <time>2025-02-15T08:38:38Z</time>
      </trkpt>
      <trkpt lat="43.55967" lon="1.44676">
        <ele>253</ele>
        <time>2025-02-15T08:38:40Z</time>
      </trkpt>
      <trkpt lat="43.55967" lon="1.44676">
        <ele>253</ele>
        <time>2025-02-15T08:38:41Z</time>
      </trkpt>
      <trkpt lat="43.55965" lon="1.44674">
        <ele>253</ele>
        <time>2025-02-15T08:38:42Z</time>
      </trkpt>
      <trkpt lat="43.55965" lon="1.44674">
        <ele>253</ele>
        <time>2025-02-15T08:38:43Z</time>
      </trkpt>
      <trkpt lat="43.55962" lon="1.44672">
        <ele>253</ele>
        <time>2025-02-15T08:38:44Z</time>
      </trkpt>
      <trkpt lat="43.55962" lon="1.44672">
        <ele>254</ele>
        <time>2025-02-15T08:38:45Z</time>
      </trkpt>
      <trkpt lat="43.5596" lon="1.44671">
        <ele>254</ele>
        <time>2025-02-15T08:38:46Z</time>
      </trkpt>
      <trkpt lat="43.5596" lon="1.44671">
        <ele>255</ele>
        <time>2025-02-15T08:38:47Z</time>
      </trkpt>
      <trkpt lat="43.55957" lon="1.44671">
        <ele>255</ele>
        <time>2025-02-15T08:38:48Z</time>
      </trkpt>
      <trkpt lat="43.55957" lon="1.44671">
        <ele>255</ele>
        <time>2025-02-15T08:38:49Z</time>
      </trkpt>
      <trkpt lat="43.55955" lon="1.4467">
        <ele>256</ele>
        <time>2025-02-15T08:38:50Z</time>
      </trkpt>
      <trkpt lat="43.55955" lon="1.4467">
        <ele>256</ele>
        <time>2025-02-15T08:38:51Z</time>
      </trkpt>
      <trkpt lat="43.55952" lon="1.44669">
        <ele>257</ele>
        <time>2025-02-15T08:38:52Z</time>
      </trkpt>
      <trkpt lat="43.55949" lon="1.44669">
        <ele>257</ele>
        <time>2025-02-15T08:38:54Z</time>
      </trkpt>
      <trkpt lat="43.55946" lon="1.44668">
        <ele>257</ele>
        <time>2025-02-15T08:38:56Z</time>
      </trkpt>
      <trkpt lat="43.55946" lon="1.44668">
        <ele>257</ele>
        <time>2025-02-15T08:38:57Z</time>
      </trkpt>
      <trkpt lat="43.55944" lon="1.44668">
        <ele>257</ele>
        <time>2025-02-15T08:38:58Z</time>
      </trkpt>
      <trkpt lat="43.55944" lon="1.44668">
        <ele>258</ele>
        <time>2025-02-15T08:38:59Z</time>
      </trkpt>
      <trkpt lat="43.55941" lon="1.44667">
        <ele>258</ele>
        <time>2025-02-15T08:39:00Z</time>
      </trkpt>
      <trkpt lat="43.55941" lon="1.44667">
        <ele>258</ele>
        <time>2025-02-15T08:39:01Z</time>
      </trkpt>
      <trkpt lat="43.55939" lon="1.44666">
        <ele>259</ele>
        <time>2025-02-15T08:39:02Z</time>
      </trkpt>
      <trkpt lat="43.55939" lon="1.44666">
        <ele>259</ele>
        <time>2025-02-15T08:39:03Z</time>
      </trkpt>
      <trkpt lat="43.55936" lon="1.44667">
        <ele>259</ele>
        <time>2025-02-15T08:39:04Z</time>
      </trkpt>
      <trkpt lat="43.55934" lon="1.44667">
        <ele>260</ele>
        <time>2025-02-15T08:39:06Z</time>
      </trkpt>
      <trkpt lat="43.55931" lon="1.44668">
        <ele>260</ele>
        <time>2025-02-15T08:39:08Z</time>
      </trkpt>
      <trkpt lat="43.55931" lon="1.44668">
        <ele>261</ele>
        <time>2025-02-15T08:39:09Z</time>
      </trkpt>
      <trkpt lat="43.55928" lon="1.44668">
        <ele>261</ele>
        <time>2025-02-15T08:39:10Z</time>
      </trkpt>
      <trkpt lat="43.55928" lon="1.44668">
        <ele>261</ele>
        <time>2025-02-15T08:39:11Z</time>
      </trkpt>
      <trkpt lat="43.55926" lon="1.44667">
        <ele>261</ele>
        <time>2025-02-15T08:39:12Z</time>
      </trkpt>
      <trkpt lat="43.55926" lon="1.44667">
        <ele>261</ele>
        <time>2025-02-15T08:39:13Z</time>
      </trkpt>
      <trkpt lat="43.55923" lon="1.44667">
        <ele>261</ele>
        <time>2025-02-15T08:39:14Z</time>
      </trkpt>
      <trkpt lat="43.55921" lon="1.44666">
        <ele>261</ele>
        <time>2025-02-15T08:39:16Z</time>
      </trkpt>
      <trkpt lat="43.55919" lon="1.44665">
        <ele>262</ele>
        <time>2025-02-15T08:39:18Z</time>
      </trkpt>
      <trkpt lat="43.55919" lon="1.44665">
        <ele>263</ele>
        <time>2025-02-15T08:39:19Z</time>
      </trkpt>
      <trkpt lat="43.55917" lon="1.44663">
        <ele>263</ele>
        <time>2025-02-15T08:39:20Z</time>
      </trkpt>
      <trkpt lat="43.55917" lon="1.44663">
        <ele>264</ele>
        <time>2025-02-15T08:39:21Z</time>
      </trkpt>
      <trkpt lat="43.55916" lon="1.44659">
        <ele>264</ele>
        <time>2025-02-15T08:39:22Z</time>
      </trkpt>
      <trkpt lat="43.55916" lon="1.44659">
        <ele>265</ele>
        <time>2025-02-15T08:39:23Z</time>
      </trkpt>
      <trkpt lat="43.55915" lon="1.44656">
        <ele>265</ele>
        <time>2025-02-15T08:39:24Z</time>
      </trkpt>
      <trkpt lat="43.55915" lon="1.44656">
        <ele>266</ele>
        <time>2025-02-15T08:39:25Z</time>
      </trkpt>
      <trkpt lat="43.55913" lon="1.44652">
        <ele>266</ele>
        <time>2025-02-15T08:39:26Z</time>
      </trkpt>
      <trkpt lat="43.55913" lon="1.44652">
        <ele>266</ele>
        <time>2025-02-15T08:39:27Z</time>
      </trkpt>
      <trkpt lat="43.55913" lon="1.44647">
        <ele>266</ele>
        <time>2025-02-15T08:39:28Z</time>
      </trkpt>
      <trkpt lat="43.55913" lon="1.44644">
        <ele>266</ele>
        <time>2025-02-15T08:39:29Z</time>
      </trkpt>
      <trkpt lat="43.55914" lon="1.4464">
        <ele>265</ele>
        <time>2025-02-15T08:39:30Z</time>
      </trkpt>
      <trkpt lat="43.55915" lon="1.44634">
        <ele>265</ele>
        <time>2025-02-15T08:39:31Z</time>
      </trkpt>
      <trkpt lat="43.55915" lon="1.44632">
        <ele>265</ele>
        <time>2025-02-15T08:39:32Z</time>
      </trkpt>
      <trkpt lat="43.55916" lon="1.44627">
        <ele>265</ele>
        <time>2025-02-15T08:39:33Z</time>
      </trkpt>
      <trkpt lat="43.55917" lon="1.44625">
        <ele>264</ele>
        <time>2025-02-15T08:39:34Z</time>
      </trkpt>
      <trkpt lat="43.55918" lon="1.44621">
        <ele>264</ele>
        <time>2025-02-15T08:39:35Z</time>
      </trkpt>
      <trkpt lat="43.55919" lon="1.44616">
        <ele>264</ele>
        <time>2025-02-15T08:39:36Z</time>
      </trkpt>
      <trkpt lat="43.5592" lon="1.44614">
        <ele>263</ele>
        <time>2025-02-15T08:39:37Z</time>
      </trkpt>
      <trkpt lat="43.55921" lon="1.4461">
        <ele>264</ele>
        <time>2025-02-15T08:39:38Z</time>
      </trkpt>
      <trkpt lat="43.55922" lon="1.44605">
        <ele>264</ele>
        <time>2025-02-15T08:39:39Z</time>
      </trkpt>
      <trkpt lat="43.55922" lon="1.44603">
        <ele>264</ele>
        <time>2025-02-15T08:39:40Z</time>
      </trkpt>
      <trkpt lat="43.55922" lon="1.44599">
        <ele>264</ele>
        <time>2025-02-15T08:39:41Z</time>
      </trkpt>
      <trkpt lat="43.55923" lon="1.44596">
        <ele>264</ele>
        <time>2025-02-15T08:39:42Z</time>
      </trkpt>
      <trkpt lat="43.55924" lon="1.44591">
        <ele>264</ele>
        <time>2025-02-15T08:39:43Z</time>
      </trkpt>
      <trkpt lat="43.55925" lon="1.44589">
        <ele>263</ele>
        <time>2025-02-15T08:39:44Z</time>
      </trkpt>
      <trkpt lat="43.55926" lon="1.44583">
        <ele>263</ele>
        <time>2025-02-15T08:39:45Z</time>
      </trkpt>
      <trkpt lat="43.55926" lon="1.44581">
        <ele>263</ele>
        <time>2025-02-15T08:39:46Z</time>
      </trkpt>
      <trkpt lat="43.55927" lon="1.44578">
        <ele>263</ele>
        <time>2025-02-15T08:39:47Z</time>
      </trkpt>
      <trkpt lat="43.55927" lon="1.44574">
        <ele>263</ele>
        <time>2025-02-15T08:39:48Z</time>
      </trkpt>
      <trkpt lat="43.55927" lon="1.4457">
        <ele>263</ele>
        <time>2025-02-15T08:39:49Z</time>
      </trkpt>
      <trkpt lat="43.55927" lon="1.44564">
        <ele>263</ele>
        <time>2025-02-15T08:39:50Z</time>
      </trkpt>
      <trkpt lat="43.55928" lon="1.44562">
        <ele>263</ele>
        <time>2025-02-15T08:39:51Z</time>
      </trkpt>
      <trkpt lat="43.55927" lon="1.44557">
        <ele>263</ele>
        <time>2025-02-15T08:39:52Z</time>
      </trkpt>
      <trkpt lat="43.55927" lon="1.44555">
        <ele>263</ele>
        <time>2025-02-15T08:39:53Z</time>
      </trkpt>
      <trkpt lat="43.55925" lon="1.44551">
        <ele>263</ele>
        <time>2025-02-15T08:39:54Z</time>
      </trkpt>
      <trkpt lat="43.55924" lon="1.44549">
        <ele>263</ele>
        <time>2025-02-15T08:39:55Z</time>
      </trkpt>
      <trkpt lat="43.55921" lon="1.44546">
        <ele>263</ele>
        <time>2025-02-15T08:39:56Z</time>
      </trkpt>
      <trkpt lat="43.5592" lon="1.44545">
        <ele>263</ele>
        <time>2025-02-15T08:39:57Z</time>
      </trkpt>
      <trkpt lat="43.5592" lon="1.44545">
        <ele>263</ele>
        <time>2025-02-15T08:39:58Z</time>
      </trkpt>
      <trkpt lat="43.5591" lon="1.44545">
        <ele>264</ele>
        <time>2025-02-15T08:41:14Z</time>
      </trkpt>
      <trkpt lat="43.55907" lon="1.44547">
        <ele>265</ele>
        <time>2025-02-15T08:41:15Z</time>
      </trkpt>
      <trkpt lat="43.55904" lon="1.44549">
        <ele>265</ele>
        <time>2025-02-15T08:41:16Z</time>
      </trkpt>
      <trkpt lat="43.55903" lon="1.4455">
        <ele>265</ele>
        <time>2025-02-15T08:41:17Z</time>
      </trkpt>
      <trkpt lat="43.559" lon="1.44553">
        <ele>265</ele>
        <time>2025-02-15T08:41:18Z</time>
      </trkpt>
      <trkpt lat="43.55898" lon="1.44554">
        <ele>265</ele>
        <time>2025-02-15T08:41:19Z</time>
      </trkpt>
      <trkpt lat="43.55896" lon="1.44555">
        <ele>265</ele>
        <time>2025-02-15T08:41:20Z</time>
      </trkpt>
      <trkpt lat="43.55893" lon="1.44557">
        <ele>265</ele>
        <time>2025-02-15T08:41:21Z</time>
      </trkpt>
      <trkpt lat="43.55891" lon="1.44559">
        <ele>265</ele>
        <time>2025-02-15T08:41:22Z</time>
      </trkpt>
      <trkpt lat="43.55887" lon="1.44562">
        <ele>265</ele>
        <time>2025-02-15T08:41:23Z</time>
      </trkpt>
      <trkpt lat="43.55886" lon="1.44563">
        <ele>265</ele>
        <time>2025-02-15T08:41:24Z</time>
      </trkpt>
      <trkpt lat="43.55883" lon="1.44566">
        <ele>265</ele>
        <time>2025-02-15T08:41:25Z</time>
      </trkpt>
      <trkpt lat="43.55881" lon="1.44568">
        <ele>265</ele>
        <time>2025-02-15T08:41:26Z</time>
      </trkpt>
      <trkpt lat="43.55879" lon="1.4457">
        <ele>265</ele>
        <time>2025-02-15T08:41:27Z</time>
      </trkpt>
      <trkpt lat="43.55877" lon="1.44572">
        <ele>265</ele>
        <time>2025-02-15T08:41:28Z</time>
      </trkpt>
      <trkpt lat="43.55875" lon="1.44574">
        <ele>265</ele>
        <time>2025-02-15T08:41:29Z</time>
      </trkpt>
      <trkpt lat="43.55871" lon="1.44576">
        <ele>265</ele>
        <time>2025-02-15T08:41:30Z</time>
      </trkpt>
      <trkpt lat="43.5587" lon="1.44577">
        <ele>265</ele>
        <time>2025-02-15T08:41:31Z</time>
      </trkpt>
      <trkpt lat="43.55865" lon="1.44579">
        <ele>265</ele>
        <time>2025-02-15T08:41:32Z</time>
      </trkpt>
      <trkpt lat="43.55864" lon="1.4458">
        <ele>265</ele>
        <time>2025-02-15T08:41:33Z</time>
      </trkpt>
      <trkpt lat="43.55861" lon="1.4458">
        <ele>265</ele>
        <time>2025-02-15T08:41:34Z</time>
      </trkpt>
      <trkpt lat="43.55858" lon="1.4458">
        <ele>264</ele>
        <time>2025-02-15T08:41:35Z</time>
      </trkpt>
      <trkpt lat="43.55854" lon="1.4458">
        <ele>264</ele>
        <time>2025-02-15T08:41:36Z</time>
      </trkpt>
      <trkpt lat="43.55853" lon="1.4458">
        <ele>265</ele>
        <time>2025-02-15T08:41:37Z</time>
      </trkpt>
      <trkpt lat="43.55849" lon="1.44581">
        <ele>265</ele>
        <time>2025-02-15T08:41:38Z</time>
      </trkpt>
      <trkpt lat="43.55848" lon="1.44582">
        <ele>265</ele>
        <time>2025-02-15T08:41:39Z</time>
      </trkpt>
      <trkpt lat="43.55845" lon="1.44583">
        <ele>265</ele>
        <time>2025-02-15T08:41:40Z</time>
      </trkpt>
      <trkpt lat="43.55842" lon="1.44584">
        <ele>265</ele>
        <time>2025-02-15T08:41:41Z</time>
      </trkpt>
      <trkpt lat="43.55839" lon="1.44585">
        <ele>265</ele>
        <time>2025-02-15T08:41:42Z</time>
      </trkpt>
      <trkpt lat="43.55835" lon="1.44586">
        <ele>265</ele>
        <time>2025-02-15T08:41:43Z</time>
      </trkpt>
      <trkpt lat="43.55834" lon="1.44586">
        <ele>265</ele>
        <time>2025-02-15T08:41:44Z</time>
      </trkpt>
      <trkpt lat="43.5583" lon="1.44587">
        <ele>265</ele>
        <time>2025-02-15T08:41:45Z</time>
      </trkpt>
      <trkpt lat="43.55829" lon="1.44588">
        <ele>265</ele>
        <time>2025-02-15T08:41:46Z</time>
      </trkpt>
      <trkpt lat="43.55826" lon="1.44588">
        <ele>265</ele>
        <time>2025-02-15T08:41:47Z</time>
      </trkpt>
      <trkpt lat="43.55822" lon="1.44589">
        <ele>265</ele>
        <time>2025-02-15T08:41:48Z</time>
      </trkpt>
      <trkpt lat="43.5582" lon="1.44589">
        <ele>264</ele>
        <time>2025-02-15T08:41:49Z</time>
      </trkpt>
      <trkpt lat="43.55818" lon="1.44589">
        <ele>264</ele>
        <time>2025-02-15T08:41:50Z</time>
      </trkpt>
      <trkpt lat="43.55815" lon="1.44588">
        <ele>264</ele>
        <time>2025-02-15T08:41:51Z</time>
      </trkpt>
      <trkpt lat="43.55812" lon="1.44588">
        <ele>264</ele>
        <time>2025-02-15T08:41:52Z</time>
      </trkpt>
      <trkpt lat="43.5581" lon="1.44587">
        <ele>264</ele>
        <time>2025-02-15T08:41:53Z</time>
      </trkpt>
      <trkpt lat="43.55807" lon="1.44586">
        <ele>264</ele>
        <time>2025-02-15T08:41:54Z</time>
      </trkpt>
      <trkpt lat="43.55803" lon="1.44584">
        <ele>264</ele>
        <time>2025-02-15T08:41:55Z</time>
      </trkpt>
      <trkpt lat="43.55801" lon="1.44583">
        <ele>264</ele>
        <time>2025-02-15T08:41:56Z</time>
      </trkpt>
      <trkpt lat="43.55797" lon="1.44581">
        <ele>264</ele>
        <time>2025-02-15T08:41:57Z</time>
      </trkpt>
      <trkpt lat="43.55796" lon="1.4458">
        <ele>264</ele>
        <time>2025-02-15T08:41:58Z</time>
      </trkpt>
      <trkpt lat="43.55793" lon="1.44579">
        <ele>263</ele>
        <time>2025-02-15T08:41:59Z</time>
      </trkpt>
      <trkpt lat="43.5579" lon="1.44578">
        <ele>263</ele>
        <time>2025-02-15T08:42:00Z</time>
      </trkpt>
      <trkpt lat="43.55787" lon="1.44577">
        <ele>264</ele>
        <time>2025-02-15T08:42:01Z</time>
      </trkpt>
      <trkpt lat="43.55782" lon="1.44576">
        <ele>264</ele>
        <time>2025-02-15T08:42:02Z</time>
      </trkpt>
      <trkpt lat="43.55781" lon="1.44576">
        <ele>263</ele>
        <time>2025-02-15T08:42:03Z</time>
      </trkpt>
      <trkpt lat="43.55778" lon="1.44575">
        <ele>263</ele>
        <time>2025-02-15T08:42:04Z</time>
      </trkpt>
      <trkpt lat="43.55775" lon="1.44574">
        <ele>262</ele>
        <time>2025-02-15T08:42:05Z</time>
      </trkpt>
      <trkpt lat="43.55772" lon="1.44574">
        <ele>262</ele>
        <time>2025-02-15T08:42:06Z</time>
      </trkpt>
      <trkpt lat="43.55767" lon="1.44574">
        <ele>262</ele>
        <time>2025-02-15T08:42:07Z</time>
      </trkpt>
      <trkpt lat="43.55765" lon="1.44574">
        <ele>260</ele>
        <time>2025-02-15T08:42:08Z</time>
      </trkpt>
      <trkpt lat="43.55762" lon="1.44574">
        <ele>260</ele>
        <time>2025-02-15T08:42:09Z</time>
      </trkpt>
      <trkpt lat="43.55758" lon="1.44571">
        <ele>260</ele>
        <time>2025-02-15T08:42:10Z</time>
      </trkpt>
      <trkpt lat="43.55756" lon="1.4457">
        <ele>260</ele>
        <time>2025-02-15T08:42:11Z</time>
      </trkpt>
      <trkpt lat="43.55753" lon="1.44568">
        <ele>260</ele>
        <time>2025-02-15T08:42:12Z</time>
      </trkpt>
      <trkpt lat="43.55749" lon="1.44565">
        <ele>259</ele>
        <time>2025-02-15T08:42:13Z</time>
      </trkpt>
      <trkpt lat="43.55745" lon="1.44562">
        <ele>259</ele>
        <time>2025-02-15T08:42:14Z</time>
      </trkpt>
      <trkpt lat="43.55743" lon="1.4456">
        <ele>258</ele>
        <time>2025-02-15T08:42:15Z</time>
      </trkpt>
      <trkpt lat="43.55738" lon="1.44556">
        <ele>258</ele>
        <time>2025-02-15T08:42:16Z</time>
      </trkpt>
      <trkpt lat="43.55736" lon="1.44555">
        <ele>258</ele>
        <time>2025-02-15T08:42:17Z</time>
      </trkpt>
      <trkpt lat="43.55733" lon="1.44553">
        <ele>257</ele>
        <time>2025-02-15T08:42:18Z</time>
      </trkpt>
      <trkpt lat="43.55728" lon="1.4455">
        <ele>257</ele>
        <time>2025-02-15T08:42:19Z</time>
      </trkpt>
      <trkpt lat="43.55727" lon="1.4455">
        <ele>256</ele>
        <time>2025-02-15T08:42:20Z</time>
      </trkpt>
      <trkpt lat="43.55723" lon="1.44549">
        <ele>256</ele>
        <time>2025-02-15T08:42:21Z</time>
      </trkpt>
      <trkpt lat="43.55722" lon="1.44549">
        <ele>256</ele>
        <time>2025-02-15T08:42:22Z</time>
      </trkpt>
      <trkpt lat="43.55719" lon="1.44549">
        <ele>256</ele>
        <time>2025-02-15T08:42:23Z</time>
      </trkpt>
      <trkpt lat="43.55716" lon="1.44547">
        <ele>256</ele>
        <time>2025-02-15T08:42:24Z</time>
      </trkpt>
      <trkpt lat="43.55714" lon="1.44546">
        <ele>255</ele>
        <time>2025-02-15T08:42:25Z</time>
      </trkpt>
      <trkpt lat="43.55711" lon="1.44544">
        <ele>255</ele>
        <time>2025-02-15T08:42:26Z</time>
      </trkpt>
      <trkpt lat="43.55709" lon="1.44543">
        <ele>254</ele>
        <time>2025-02-15T08:42:27Z</time>
      </trkpt>
      <trkpt lat="43.55707" lon="1.4454">
        <ele>254</ele>
        <time>2025-02-15T08:42:28Z</time>
      </trkpt>
      <trkpt lat="43.55705" lon="1.44539">
        <ele>254</ele>
        <time>2025-02-15T08:42:29Z</time>
      </trkpt>
      <trkpt lat="43.55702" lon="1.44537">
        <ele>253</ele>
        <time>2025-02-15T08:42:30Z</time>
      </trkpt>
      <trkpt lat="43.55699" lon="1.44536">
        <ele>253</ele>
        <time>2025-02-15T08:42:31Z</time>
      </trkpt>
      <trkpt lat="43.55695" lon="1.44535">
        <ele>253</ele>
        <time>2025-02-15T08:42:32Z</time>
      </trkpt>
      <trkpt lat="43.5569" lon="1.44532">
        <ele>253</ele>
        <time>2025-02-15T08:42:33Z</time>
      </trkpt>
      <trkpt lat="43.55689" lon="1.44531">
        <ele>252</ele>
        <time>2025-02-15T08:42:34Z</time>
      </trkpt>
      <trkpt lat="43.55686" lon="1.44529">
        <ele>252</ele>
        <time>2025-02-15T08:42:35Z</time>
      </trkpt>
      <trkpt lat="43.55683" lon="1.44526">
        <ele>252</ele>
        <time>2025-02-15T08:42:36Z</time>
      </trkpt>
      <trkpt lat="43.55681" lon="1.44521">
        <ele>252</ele>
        <time>2025-02-15T08:42:37Z</time>
      </trkpt>
      <trkpt lat="43.55679" lon="1.44515">
        <ele>252</ele>
        <time>2025-02-15T08:42:38Z</time>
      </trkpt>
      <trkpt lat="43.55678" lon="1.44514">
        <ele>251</ele>
        <time>2025-02-15T08:42:39Z</time>
      </trkpt>
      <trkpt lat="43.55676" lon="1.44511">
        <ele>251</ele>
        <time>2025-02-15T08:42:40Z</time>
      </trkpt>
      <trkpt lat="43.55675" lon="1.44508">
        <ele>250</ele>
        <time>2025-02-15T08:42:41Z</time>
      </trkpt>
      <trkpt lat="43.55675" lon="1.44504">
        <ele>250</ele>
        <time>2025-02-15T08:42:42Z</time>
      </trkpt>
      <trkpt lat="43.55675" lon="1.44501">
        <ele>250</ele>
        <time>2025-02-15T08:42:43Z</time>
      </trkpt>
      <trkpt lat="43.55675" lon="1.44501">
        <ele>249</ele>
        <time>2025-02-15T08:42:44Z</time>
      </trkpt>
      <trkpt lat="43.55669" lon="1.445">
        <ele>249</ele>
        <time>2025-02-15T08:42:45Z</time>
      </trkpt>
      <trkpt lat="43.55668" lon="1.445">
        <ele>248</ele>
        <time>2025-02-15T08:42:46Z</time>
      </trkpt>
      <trkpt lat="43.55664" lon="1.44498">
        <ele>247</ele>
        <time>2025-02-15T08:42:47Z</time>
      </trkpt>
      <trkpt lat="43.55659" lon="1.44494">
        <ele>247</ele>
        <time>2025-02-15T08:42:48Z</time>
      </trkpt>
      <trkpt lat="43.55657" lon="1.44493">
        <ele>246</ele>
        <time>2025-02-15T08:42:49Z</time>
      </trkpt>
      <trkpt lat="43.55654" lon="1.4449">
        <ele>246</ele>
        <time>2025-02-15T08:42:50Z</time>
      </trkpt>
      <trkpt lat="43.55651" lon="1.44488">
        <ele>245</ele>
        <time>2025-02-15T08:42:51Z</time>
      </trkpt>
      <trkpt lat="43.55647" lon="1.44484">
        <ele>245</ele>
        <time>2025-02-15T08:42:52Z</time>
      </trkpt>
      <trkpt lat="43.55645" lon="1.44483">
        <ele>243</ele>
        <time>2025-02-15T08:42:53Z</time>
      </trkpt>
      <trkpt lat="43.55642" lon="1.4448">
        <ele>243</ele>
        <time>2025-02-15T08:42:54Z</time>
      </trkpt>
      <trkpt lat="43.55638" lon="1.44476">
        <ele>243</ele>
        <time>2025-02-15T08:42:55Z</time>
      </trkpt>
      <trkpt lat="43.55636" lon="1.44475">
        <ele>241</ele>
        <time>2025-02-15T08:42:56Z</time>
      </trkpt>
      <trkpt lat="43.55631" lon="1.44471">
        <ele>241</ele>
        <time>2025-02-15T08:42:57Z</time>
      </trkpt>
      <trkpt lat="43.5563" lon="1.4447">
        <ele>240</ele>
        <time>2025-02-15T08:42:58Z</time>
      </trkpt>
      <trkpt lat="43.55626" lon="1.44467">
        <ele>239</ele>
        <time>2025-02-15T08:42:59Z</time>
      </trkpt>
      <trkpt lat="43.55623" lon="1.44465">
        <ele>239</ele>
        <time>2025-02-15T08:43:00Z</time>
      </trkpt>
      <trkpt lat="43.5562" lon="1.44463">
        <ele>238</ele>
        <time>2025-02-15T08:43:01Z</time>
      </trkpt>
      <trkpt lat="43.55618" lon="1.44461">
        <ele>238</ele>
        <time>2025-02-15T08:43:02Z</time>
      </trkpt>
      <trkpt lat="43.55615" lon="1.44459">
        <ele>237</ele>
        <time>2025-02-15T08:43:03Z</time>
      </trkpt>
      <trkpt lat="43.55611" lon="1.44455">
        <ele>237</ele>
        <time>2025-02-15T08:43:04Z</time>
      </trkpt>
      <trkpt lat="43.55609" lon="1.44454">
        <ele>236</ele>
        <time>2025-02-15T08:43:05Z</time>
      </trkpt>
      <trkpt lat="43.55606" lon="1.44452">
        <ele>235</ele>
        <time>2025-02-15T08:43:06Z</time>
      </trkpt>
      <trkpt lat="43.55602" lon="1.44449">
        <ele>235</ele>
        <time>2025-02-15T08:43:07Z</time>
      </trkpt>
      <trkpt lat="43.55601" lon="1.44448">
        <ele>235</ele>
        <time>2025-02-15T08:43:08Z</time>
      </trkpt>
      <trkpt lat="43.55596" lon="1.44445">
        <ele>235</ele>
        <time>2025-02-15T08:43:09Z</time>
      </trkpt>
      <trkpt lat="43.55595" lon="1.44444">
        <ele>234</ele>
        <time>2025-02-15T08:43:10Z</time>
      </trkpt>
      <trkpt lat="43.5559" lon="1.44441">
        <ele>234</ele>
        <time>2025-02-15T08:43:11Z</time>
      </trkpt>
      <trkpt lat="43.55588" lon="1.4444">
        <ele>234</ele>
        <time>2025-02-15T08:43:12Z</time>
      </trkpt>
      <trkpt lat="43.55585" lon="1.44438">
        <ele>233</ele>
        <time>2025-02-15T08:43:13Z</time>
      </trkpt>
      <trkpt lat="43.55582" lon="1.44435">
        <ele>233</ele>
        <time>2025-02-15T08:43:14Z</time>
      </trkpt>
      <trkpt lat="43.5558" lon="1.44433">
        <ele>232</ele>
        <time>2025-02-15T08:43:15Z</time>
      </trkpt>
      <trkpt lat="43.55576" lon="1.4443">
        <ele>232</ele>
        <time>2025-02-15T08:43:16Z</time>
      </trkpt>
      <trkpt lat="43.55574" lon="1.44429">
        <ele>231</ele>
        <time>2025-02-15T08:43:17Z</time>
      </trkpt>
      <trkpt lat="43.5557" lon="1.44426">
        <ele>231</ele>
        <time>2025-02-15T08:43:18Z</time>
      </trkpt>
      <trkpt lat="43.55569" lon="1.44425">
        <ele>231</ele>
        <time>2025-02-15T08:43:19Z</time>
      </trkpt>
      <trkpt lat="43.55566" lon="1.44423">
        <ele>231</ele>
        <time>2025-02-15T08:43:20Z</time>
      </trkpt>
      <trkpt lat="43.55563" lon="1.44421">
        <ele>230</ele>
        <time>2025-02-15T08:43:21Z</time>
      </trkpt>
      <trkpt lat="43.55559" lon="1.44418">
        <ele>230</ele>
        <time>2025-02-15T08:43:22Z</time>
      </trkpt>
      <trkpt lat="43.55558" lon="1.44417">
        <ele>230</ele>
        <time>2025-02-15T08:43:23Z</time>
      </trkpt>
      <trkpt lat="43.55555" lon="1.44415">
        <ele>230</ele>
        <time>2025-02-15T08:43:24Z</time>
      </trkpt>
      <trkpt lat="43.55552" lon="1.44413">
        <ele>229</ele>
        <time>2025-02-15T08:43:25Z</time>
      </trkpt>
      <trkpt lat="43.55548" lon="1.4441">
        <ele>229</ele>
        <time>2025-02-15T08:43:26Z</time>
      </trkpt>
      <trkpt lat="43.55547" lon="1.4441">
        <ele>228</ele>
        <time>2025-02-15T08:43:27Z</time>
      </trkpt>
      <trkpt lat="43.55544" lon="1.44408">
        <ele>228</ele>
        <time>2025-02-15T08:43:28Z</time>
      </trkpt>
      <trkpt lat="43.55541" lon="1.44406">
        <ele>228</ele>
        <time>2025-02-15T08:43:29Z</time>
      </trkpt>
      <trkpt lat="43.55537" lon="1.44403">
        <ele>228</ele>
        <time>2025-02-15T08:43:30Z</time>
      </trkpt>
      <trkpt lat="43.55535" lon="1.44402">
        <ele>226</ele>
        <time>2025-02-15T08:43:31Z</time>
      </trkpt>
      <trkpt lat="43.5553" lon="1.44399">
        <ele>226</ele>
        <time>2025-02-15T08:43:32Z</time>
      </trkpt>
      <trkpt lat="43.55529" lon="1.44398">
        <ele>225</ele>
        <time>2025-02-15T08:43:33Z</time>
      </trkpt>
      <trkpt lat="43.55526" lon="1.44396">
        <ele>225</ele>
        <time>2025-02-15T08:43:34Z</time>
      </trkpt>
      <trkpt lat="43.55523" lon="1.44394">
        <ele>225</ele>
        <time>2025-02-15T08:43:35Z</time>
      </trkpt>
      <trkpt lat="43.5552" lon="1.44392">
        <ele>224</ele>
        <time>2025-02-15T08:43:36Z</time>
      </trkpt>
      <trkpt lat="43.55515" lon="1.4439">
        <ele>224</ele>
        <time>2025-02-15T08:43:37Z</time>
      </trkpt>
      <trkpt lat="43.55513" lon="1.44389">
        <ele>223</ele>
        <time>2025-02-15T08:43:38Z</time>
      </trkpt>
      <trkpt lat="43.5551" lon="1.44387">
        <ele>221</ele>
        <time>2025-02-15T08:43:39Z</time>
      </trkpt>
      <trkpt lat="43.55507" lon="1.44385">
        <ele>220</ele>
        <time>2025-02-15T08:43:40Z</time>
      </trkpt>
      <trkpt lat="43.55504" lon="1.44382">
        <ele>220</ele>
        <time>2025-02-15T08:43:41Z</time>
      </trkpt>
      <trkpt lat="43.55499" lon="1.44379">
        <ele>220</ele>
        <time>2025-02-15T08:43:42Z</time>
      </trkpt>
      <trkpt lat="43.55498" lon="1.44378">
        <ele>219</ele>
        <time>2025-02-15T08:43:43Z</time>
      </trkpt>
      <trkpt lat="43.55495" lon="1.44376">
        <ele>219</ele>
        <time>2025-02-15T08:43:44Z</time>
      </trkpt>
      <trkpt lat="43.55492" lon="1.44374">
        <ele>219</ele>
        <time>2025-02-15T08:43:45Z</time>
      </trkpt>
      <trkpt lat="43.5549" lon="1.44372">
        <ele>218</ele>
        <time>2025-02-15T08:43:46Z</time>
      </trkpt>
      <trkpt lat="43.55487" lon="1.4437">
        <ele>218</ele>
        <time>2025-02-15T08:43:47Z</time>
      </trkpt>
      <trkpt lat="43.55484" lon="1.44368">
        <ele>218</ele>
        <time>2025-02-15T08:43:48Z</time>
      </trkpt>
      <trkpt lat="43.55481" lon="1.44365">
        <ele>218</ele>
        <time>2025-02-15T08:43:49Z</time>
      </trkpt>
      <trkpt lat="43.5548" lon="1.44364">
        <ele>217</ele>
        <time>2025-02-15T08:43:50Z</time>
      </trkpt>
      <trkpt lat="43.55476" lon="1.44362">
        <ele>217</ele>
        <time>2025-02-15T08:43:51Z</time>
      </trkpt>
      <trkpt lat="43.55474" lon="1.44361">
        <ele>216</ele>
        <time>2025-02-15T08:43:52Z</time>
      </trkpt>
      <trkpt lat="43.5547" lon="1.44359">
        <ele>216</ele>
        <time>2025-02-15T08:43:53Z</time>
      </trkpt>
      <trkpt lat="43.55469" lon="1.44358">
        <ele>216</ele>
        <time>2025-02-15T08:43:54Z</time>
      </trkpt>
      <trkpt lat="43.55465" lon="1.44356">
        <ele>216</ele>
        <time>2025-02-15T08:43:55Z</time>
      </trkpt>
      <trkpt lat="43.55464" lon="1.44355">
        <ele>215</ele>
        <time>2025-02-15T08:43:56Z</time>
      </trkpt>
      <trkpt lat="43.55461" lon="1.44354">
        <ele>214</ele>
        <time>2025-02-15T08:43:57Z</time>
      </trkpt>
      <trkpt lat="43.55459" lon="1.44352">
        <ele>214</ele>
        <time>2025-02-15T08:43:58Z</time>
      </trkpt>
      <trkpt lat="43.55456" lon="1.44351">
        <ele>214</ele>
        <time>2025-02-15T08:43:59Z</time>
      </trkpt>
      <trkpt lat="43.55453" lon="1.4435">
        <ele>214</ele>
        <time>2025-02-15T08:44:00Z</time>
      </trkpt>
      <trkpt lat="43.55452" lon="1.44349">
        <ele>214</ele>
        <time>2025-02-15T08:44:01Z</time>
      </trkpt>
      <trkpt lat="43.5545" lon="1.44348">
        <ele>214</ele>
        <time>2025-02-15T08:44:02Z</time>
      </trkpt>
      <trkpt lat="43.55449" lon="1.44346">
        <ele>213</ele>
        <time>2025-02-15T08:44:03Z</time>
      </trkpt>
      <trkpt lat="43.55446" lon="1.44344">
        <ele>214</ele>
        <time>2025-02-15T08:44:05Z</time>
      </trkpt>
      <trkpt lat="43.55446" lon="1.44344">
        <ele>214</ele>
        <time>2025-02-15T08:44:06Z</time>
      </trkpt>
      <trkpt lat="43.55443" lon="1.44342">
        <ele>214</ele>
        <time>2025-02-15T08:44:07Z</time>
      </trkpt>
      <trkpt lat="43.5544" lon="1.4434">
        <ele>214</ele>
        <time>2025-02-15T08:44:09Z</time>
      </trkpt>
      <trkpt lat="43.55438" lon="1.44339">
        <ele>214</ele>
        <time>2025-02-15T08:44:10Z</time>
      </trkpt>
      <trkpt lat="43.55438" lon="1.44339">
        <ele>214</ele>
        <time>2025-02-15T08:44:11Z</time>
      </trkpt>
      <trkpt lat="43.55436" lon="1.44337">
        <ele>214</ele>
        <time>2025-02-15T08:44:12Z</time>
      </trkpt>
      <trkpt lat="43.55436" lon="1.44337">
        <ele>214</ele>
        <time>2025-02-15T08:44:13Z</time>
      </trkpt>
      <trkpt lat="43.55433" lon="1.44336">
        <ele>214</ele>
        <time>2025-02-15T08:44:14Z</time>
      </trkpt>
      <trkpt lat="43.5543" lon="1.44333">
        <ele>215</ele>
        <time>2025-02-15T08:44:16Z</time>
      </trkpt>
      <trkpt lat="43.55427" lon="1.4433">
        <ele>215</ele>
        <time>2025-02-15T08:44:18Z</time>
      </trkpt>
      <trkpt lat="43.55427" lon="1.4433">
        <ele>215</ele>
        <time>2025-02-15T08:44:19Z</time>
      </trkpt>
      <trkpt lat="43.55423" lon="1.44327">
        <ele>215</ele>
        <time>2025-02-15T08:44:20Z</time>
      </trkpt>
      <trkpt lat="43.55422" lon="1.44326">
        <ele>216</ele>
        <time>2025-02-15T08:44:21Z</time>
      </trkpt>
      <trkpt lat="43.55421" lon="1.44324">
        <ele>216</ele>
        <time>2025-02-15T08:44:22Z</time>
      </trkpt>
      <trkpt lat="43.55419" lon="1.44323">
        <ele>216</ele>
        <time>2025-02-15T08:44:23Z</time>
      </trkpt>
      <trkpt lat="43.55419" lon="1.44323">
        <ele>216</ele>
        <time>2025-02-15T08:44:24Z</time>
      </trkpt>
      <trkpt lat="43.55417" lon="1.4432">
        <ele>216</ele>
        <time>2025-02-15T08:44:25Z</time>
      </trkpt>
      <trkpt lat="43.55417" lon="1.4432">
        <ele>216</ele>
        <time>2025-02-15T08:44:26Z</time>
      </trkpt>
      <trkpt lat="43.55415" lon="1.44315">
        <ele>216</ele>
        <time>2025-02-15T08:44:27Z</time>
      </trkpt>
      <trkpt lat="43.55415" lon="1.44315">
        <ele>217</ele>
        <time>2025-02-15T08:44:28Z</time>
      </trkpt>
      <trkpt lat="43.55414" lon="1.44312">
        <ele>217</ele>
        <time>2025-02-15T08:44:29Z</time>
      </trkpt>
      <trkpt lat="43.55414" lon="1.44312">
        <ele>217</ele>
        <time>2025-02-15T08:44:30Z</time>
      </trkpt>
      <trkpt lat="43.55412" lon="1.44309">
        <ele>217</ele>
        <time>2025-02-15T08:44:31Z</time>
      </trkpt>
      <trkpt lat="43.55412" lon="1.44309">
        <ele>218</ele>
        <time>2025-02-15T08:44:32Z</time>
      </trkpt>
      <trkpt lat="43.5541" lon="1.44306">
        <ele>218</ele>
        <time>2025-02-15T08:44:33Z</time>
      </trkpt>
      <trkpt lat="43.55407" lon="1.44303">
        <ele>218</ele>
        <time>2025-02-15T08:44:35Z</time>
      </trkpt>
      <trkpt lat="43.55404" lon="1.44302">
        <ele>218</ele>
        <time>2025-02-15T08:44:37Z</time>
      </trkpt>
      <trkpt lat="43.55404" lon="1.44302">
        <ele>218</ele>
        <time>2025-02-15T08:44:38Z</time>
      </trkpt>
      <trkpt lat="43.55402" lon="1.44301">
        <ele>219</ele>
        <time>2025-02-15T08:44:39Z</time>
      </trkpt>
      <trkpt lat="43.55402" lon="1.44301">
        <ele>221</ele>
        <time>2025-02-15T08:44:40Z</time>
      </trkpt>
      <trkpt lat="43.55399" lon="1.44301">
        <ele>221</ele>
        <time>2025-02-15T08:44:41Z</time>
      </trkpt>
      <trkpt lat="43.55397" lon="1.44301">
        <ele>221</ele>
        <time>2025-02-15T08:44:42Z</time>
      </trkpt>
      <trkpt lat="43.55395" lon="1.44301">
        <ele>221</ele>
        <time>2025-02-15T08:44:43Z</time>
      </trkpt>
      <trkpt lat="43.55395" lon="1.44301">
        <ele>221</ele>
        <time>2025-02-15T08:44:44Z</time>
      </trkpt>
      <trkpt lat="43.55392" lon="1.44301">
        <ele>221</ele>
        <time>2025-02-15T08:44:45Z</time>
      </trkpt>
      <trkpt lat="43.55389" lon="1.44301">
        <ele>220</ele>
        <time>2025-02-15T08:44:47Z</time>
      </trkpt>
      <trkpt lat="43.55386" lon="1.44302">
        <ele>220</ele>
        <time>2025-02-15T08:44:49Z</time>
      </trkpt>
      <trkpt lat="43.55386" lon="1.44302">
        <ele>221</ele>
        <time>2025-02-15T08:44:50Z</time>
      </trkpt>
      <trkpt lat="43.55382" lon="1.44302">
        <ele>221</ele>
        <time>2025-02-15T08:44:51Z</time>
      </trkpt>
      <trkpt lat="43.55379" lon="1.44303">
        <ele>221</ele>
        <time>2025-02-15T08:44:53Z</time>
      </trkpt>
      <trkpt lat="43.55376" lon="1.44303">
        <ele>221</ele>
        <time>2025-02-15T08:44:55Z</time>
      </trkpt>
      <trkpt lat="43.55376" lon="1.44303">
        <ele>221</ele>
        <time>2025-02-15T08:44:56Z</time>
      </trkpt>
      <trkpt lat="43.55373" lon="1.44303">
        <ele>221</ele>
        <time>2025-02-15T08:44:57Z</time>
      </trkpt>
      <trkpt lat="43.55373" lon="1.44303">
        <ele>221</ele>
        <time>2025-02-15T08:44:58Z</time>
      </trkpt>
      <trkpt lat="43.5537" lon="1.44303">
        <ele>221</ele>
        <time>2025-02-15T08:44:59Z</time>
      </trkpt>
      <trkpt lat="43.55366" lon="1.44303">
        <ele>221</ele>
        <time>2025-02-15T08:45:01Z</time>
      </trkpt>
      <trkpt lat="43.55366" lon="1.44303">
        <ele>222</ele>
        <time>2025-02-15T08:45:02Z</time>
      </trkpt>
      <trkpt lat="43.55364" lon="1.44303">
        <ele>222</ele>
        <time>2025-02-15T08:45:03Z</time>
      </trkpt>
      <trkpt lat="43.55362" lon="1.44302">
        <ele>222</ele>
        <time>2025-02-15T08:45:04Z</time>
      </trkpt>
      <trkpt lat="43.5536" lon="1.44302">
        <ele>222</ele>
        <time>2025-02-15T08:45:05Z</time>
      </trkpt>
      <trkpt lat="43.55359" lon="1.44301">
        <ele>222</ele>
        <time>2025-02-15T08:45:06Z</time>
      </trkpt>
      <trkpt lat="43.55355" lon="1.44301">
        <ele>222</ele>
        <time>2025-02-15T08:45:07Z</time>
      </trkpt>
      <trkpt lat="43.55354" lon="1.44301">
        <ele>222</ele>
        <time>2025-02-15T08:45:08Z</time>
      </trkpt>
      <trkpt lat="43.55351" lon="1.443">
        <ele>222</ele>
        <time>2025-02-15T08:45:09Z</time>
      </trkpt>
      <trkpt lat="43.55349" lon="1.44299">
        <ele>222</ele>
        <time>2025-02-15T08:45:10Z</time>
      </trkpt>
      <trkpt lat="43.55345" lon="1.44298">
        <ele>222</ele>
        <time>2025-02-15T08:45:11Z</time>
      </trkpt>
      <trkpt lat="43.55341" lon="1.44296">
        <ele>222</ele>
        <time>2025-02-15T08:45:12Z</time>
      </trkpt>
      <trkpt lat="43.55339" lon="1.44295">
        <ele>221</ele>
        <time>2025-02-15T08:45:13Z</time>
      </trkpt>
      <trkpt lat="43.55335" lon="1.44293">
        <ele>221</ele>
        <time>2025-02-15T08:45:14Z</time>
      </trkpt>
      <trkpt lat="43.55334" lon="1.44292">
        <ele>221</ele>
        <time>2025-02-15T08:45:15Z</time>
      </trkpt>
      <trkpt lat="43.55331" lon="1.4429">
        <ele>221</ele>
        <time>2025-02-15T08:45:16Z</time>
      </trkpt>
      <trkpt lat="43.55327" lon="1.44287">
        <ele>221</ele>
        <time>2025-02-15T08:45:17Z</time>
      </trkpt>
      <trkpt lat="43.55325" lon="1.44286">
        <ele>221</ele>
        <time>2025-02-15T08:45:18Z</time>
      </trkpt>
      <trkpt lat="43.55322" lon="1.44285">
        <ele>221</ele>
        <time>2025-02-15T08:45:19Z</time>
      </trkpt>
      <trkpt lat="43.5532" lon="1.44284">
        <ele>221</ele>
        <time>2025-02-15T08:45:20Z</time>
      </trkpt>
      <trkpt lat="43.55317" lon="1.44283">
        <ele>221</ele>
        <time>2025-02-15T08:45:21Z</time>
      </trkpt>
      <trkpt lat="43.55317" lon="1.44283">
        <ele>221</ele>
        <time>2025-02-15T08:45:22Z</time>
      </trkpt>
      <trkpt lat="43.55309" lon="1.44271">
        <ele>220</ele>
        <time>2025-02-15T08:46:12Z</time>
      </trkpt>
      <trkpt lat="43.55309" lon="1.44271">
        <ele>221</ele>
        <time>2025-02-15T08:46:13Z</time>
      </trkpt>
      <trkpt lat="43.55309" lon="1.44271">
        <ele>221</ele>
        <time>2025-02-15T08:46:14Z</time>
      </trkpt>
      <trkpt lat="43.55309" lon="1.44271">
        <ele>221</ele>
        <time>2025-02-15T08:46:15Z</time>
      </trkpt>
      <trkpt lat="43.55307" lon="1.44274">
        <ele>221</ele>
        <time>2025-02-15T08:46:16Z</time>
      </trkpt>
      <trkpt lat="43.55307" lon="1.44274">
        <ele>221</ele>
        <time>2025-02-15T08:46:17Z</time>
      </trkpt>
      <trkpt lat="43.55304" lon="1.4428">
        <ele>221</ele>
        <time>2025-02-15T08:46:18Z</time>
      </trkpt>
      <trkpt lat="43.55303" lon="1.44281">
        <ele>221</ele>
        <time>2025-02-15T08:46:19Z</time>
      </trkpt>
      <trkpt lat="43.55301" lon="1.44283">
        <ele>221</ele>
        <time>2025-02-15T08:46:20Z</time>
      </trkpt>
      <trkpt lat="43.55298" lon="1.44285">
        <ele>221</ele>
        <time>2025-02-15T08:46:21Z</time>
      </trkpt>
      <trkpt lat="43.55295" lon="1.44285">
        <ele>221</ele>
        <time>2025-02-15T08:46:22Z</time>
      </trkpt>
      <trkpt lat="43.55291" lon="1.44285">
        <ele>221</ele>
        <time>2025-02-15T08:46:23Z</time>
      </trkpt>
      <trkpt lat="43.55289" lon="1.44285">
        <ele>221</ele>
        <time>2025-02-15T08:46:24Z</time>
      </trkpt>
      <trkpt lat="43.55286" lon="1.44286">
        <ele>221</ele>
        <time>2025-02-15T08:46:25Z</time>
      </trkpt>
      <trkpt lat="43.55283" lon="1.44287">
        <ele>221</ele>
        <time>2025-02-15T08:46:26Z</time>
      </trkpt>
      <trkpt lat="43.55279" lon="1.44287">
        <ele>221</ele>
        <time>2025-02-15T08:46:27Z</time>
      </trkpt>
      <trkpt lat="43.55275" lon="1.44287">
        <ele>221</ele>
        <time>2025-02-15T08:46:28Z</time>
      </trkpt>
      <trkpt lat="43.55273" lon="1.44287">
        <ele>221</ele>
        <time>2025-02-15T08:46:29Z</time>
      </trkpt>
      <trkpt lat="43.5527" lon="1.44287">
        <ele>220</ele>
        <time>2025-02-15T08:46:30Z</time>
      </trkpt>
      <trkpt lat="43.55265" lon="1.44285">
        <ele>220</ele>
        <time>2025-02-15T08:46:31Z</time>
      </trkpt>
      <trkpt lat="43.55264" lon="1.44285">
        <ele>221</ele>
        <time>2025-02-15T08:46:32Z</time>
      </trkpt>
      <trkpt lat="43.55261" lon="1.44285">
        <ele>221</ele>
        <time>2025-02-15T08:46:33Z</time>
      </trkpt>
      <trkpt lat="43.55258" lon="1.44285">
        <ele>221</ele>
        <time>2025-02-15T08:46:34Z</time>
      </trkpt>
      <trkpt lat="43.55254" lon="1.44287">
        <ele>221</ele>
        <time>2025-02-15T08:46:35Z</time>
      </trkpt>
      <trkpt lat="43.55253" lon="1.44288">
        <ele>221</ele>
        <time>2025-02-15T08:46:36Z</time>
      </trkpt>
      <trkpt lat="43.55249" lon="1.4429">
        <ele>221</ele>
        <time>2025-02-15T08:46:37Z</time>
      </trkpt>
      <trkpt lat="43.55247" lon="1.4429">
        <ele>221</ele>
        <time>2025-02-15T08:46:38Z</time>
      </trkpt>
      <trkpt lat="43.55245" lon="1.44292">
        <ele>220</ele>
        <time>2025-02-15T08:46:39Z</time>
      </trkpt>
      <trkpt lat="43.55241" lon="1.44293">
        <ele>220</ele>
        <time>2025-02-15T08:46:40Z</time>
      </trkpt>
      <trkpt lat="43.55238" lon="1.44295">
        <ele>219</ele>
        <time>2025-02-15T08:46:41Z</time>
      </trkpt>
      <trkpt lat="43.55232" lon="1.44297">
        <ele>219</ele>
        <time>2025-02-15T08:46:42Z</time>
      </trkpt>
      <trkpt lat="43.55231" lon="1.44297">
        <ele>217</ele>
        <time>2025-02-15T08:46:43Z</time>
      </trkpt>
      <trkpt lat="43.55227" lon="1.44299">
        <ele>217</ele>
        <time>2025-02-15T08:46:44Z</time>
      </trkpt>
      <trkpt lat="43.55223" lon="1.44301">
        <ele>216</ele>
        <time>2025-02-15T08:46:45Z</time>
      </trkpt>
      <trkpt lat="43.5522" lon="1.44303">
        <ele>216</ele>
        <time>2025-02-15T08:46:46Z</time>
      </trkpt>
      <trkpt lat="43.55215" lon="1.44305">
        <ele>216</ele>
        <time>2025-02-15T08:46:47Z</time>
      </trkpt>
      <trkpt lat="43.55213" lon="1.44306">
        <ele>215</ele>
        <time>2025-02-15T08:46:48Z</time>
      </trkpt>
      <trkpt lat="43.5521" lon="1.44307">
        <ele>215</ele>
        <time>2025-02-15T08:46:49Z</time>
      </trkpt>
      <trkpt lat="43.55208" lon="1.44309">
        <ele>215</ele>
        <time>2025-02-15T08:46:50Z</time>
      </trkpt>
      <trkpt lat="43.55205" lon="1.4431">
        <ele>215</ele>
        <time>2025-02-15T08:46:51Z</time>
      </trkpt>
      <trkpt lat="43.55202" lon="1.4431">
        <ele>215</ele>
        <time>2025-02-15T08:46:52Z</time>
      </trkpt>
      <trkpt lat="43.55199" lon="1.4431">
        <ele>215</ele>
        <time>2025-02-15T08:46:53Z</time>
      </trkpt>
      <trkpt lat="43.55194" lon="1.44309">
        <ele>215</ele>
        <time>2025-02-15T08:46:54Z</time>
      </trkpt>
      <trkpt lat="43.55193" lon="1.44309">
        <ele>214</ele>
        <time>2025-02-15T08:46:55Z</time>
      </trkpt>
      <trkpt lat="43.5519" lon="1.44307">
        <ele>214</ele>
        <time>2025-02-15T08:46:56Z</time>
      </trkpt>
      <trkpt lat="43.55187" lon="1.44306">
        <ele>214</ele>
        <time>2025-02-15T08:46:57Z</time>
      </trkpt>
      <trkpt lat="43.55185" lon="1.44305">
        <ele>214</ele>
        <time>2025-02-15T08:46:58Z</time>
      </trkpt>
      <trkpt lat="43.55182" lon="1.44304">
        <ele>214</ele>
        <time>2025-02-15T08:46:59Z</time>
      </trkpt>
      <trkpt lat="43.55179" lon="1.44303">
        <ele>214</ele>
        <time>2025-02-15T08:47:00Z</time>
      </trkpt>
      <trkpt lat="43.55177" lon="1.44301">
        <ele>214</ele>
        <time>2025-02-15T08:47:01Z</time>
      </trkpt>
      <trkpt lat="43.55174" lon="1.44298">
        <ele>214</ele>
        <time>2025-02-15T08:47:02Z</time>
      </trkpt>
      <trkpt lat="43.55171" lon="1.44295">
        <ele>214</ele>
        <time>2025-02-15T08:47:03Z</time>
      </trkpt>
      <trkpt lat="43.55169" lon="1.44291">
        <ele>214</ele>
        <time>2025-02-15T08:47:04Z</time>
      </trkpt>
      <trkpt lat="43.55167" lon="1.4429">
        <ele>214</ele>
        <time>2025-02-15T08:47:05Z</time>
      </trkpt>
      <trkpt lat="43.55165" lon="1.44286">
        <ele>214</ele>
        <time>2025-02-15T08:47:06Z</time>
      </trkpt>
      <trkpt lat="43.55164" lon="1.44284">
        <ele>214</ele>
        <time>2025-02-15T08:47:07Z</time>
      </trkpt>
      <trkpt lat="43.55163" lon="1.44281">
        <ele>215</ele>
        <time>2025-02-15T08:47:08Z</time>
      </trkpt>
      <trkpt lat="43.55161" lon="1.44279">
        <ele>215</ele>
        <time>2025-02-15T08:47:10Z</time>
      </trkpt>
      <trkpt lat="43.55161" lon="1.44279">
        <ele>215</ele>
        <time>2025-02-15T08:47:11Z</time>
      </trkpt>
      <trkpt lat="43.55159" lon="1.44277">
        <ele>215</ele>
        <time>2025-02-15T08:47:12Z</time>
      </trkpt>
      <trkpt lat="43.55157" lon="1.44275">
        <ele>215</ele>
        <time>2025-02-15T08:47:13Z</time>
      </trkpt>
      <trkpt lat="43.55156" lon="1.44274">
        <ele>215</ele>
        <time>2025-02-15T08:47:14Z</time>
      </trkpt>
      <trkpt lat="43.55154" lon="1.44272">
        <ele>215</ele>
        <time>2025-02-15T08:47:15Z</time>
      </trkpt>
      <trkpt lat="43.55154" lon="1.44272">
        <ele>215</ele>
        <time>2025-02-15T08:47:16Z</time>
      </trkpt>
      <trkpt lat="43.55152" lon="1.44269">
        <ele>216</ele>
        <time>2025-02-15T08:47:17Z</time>
      </trkpt>
      <trkpt lat="43.55152" lon="1.44269">
        <ele>216</ele>
        <time>2025-02-15T08:47:18Z</time>
      </trkpt>
      <trkpt lat="43.5515" lon="1.44267">
        <ele>216</ele>
        <time>2025-02-15T08:47:19Z</time>
      </trkpt>
      <trkpt lat="43.55147" lon="1.44266">
        <ele>216</ele>
        <time>2025-02-15T08:47:21Z</time>
      </trkpt>
      <trkpt lat="43.55147" lon="1.44266">
        <ele>217</ele>
        <time>2025-02-15T08:47:22Z</time>
      </trkpt>
      <trkpt lat="43.55145" lon="1.44265">
        <ele>217</ele>
        <time>2025-02-15T08:47:23Z</time>
      </trkpt>
      <trkpt lat="43.55145" lon="1.44265">
        <ele>217</ele>
        <time>2025-02-15T08:47:24Z</time>
      </trkpt>
      <trkpt lat="43.55142" lon="1.44263">
        <ele>217</ele>
        <time>2025-02-15T08:47:25Z</time>
      </trkpt>
      <trkpt lat="43.55142" lon="1.44263">
        <ele>217</ele>
        <time>2025-02-15T08:47:26Z</time>
      </trkpt>
      <trkpt lat="43.55139" lon="1.4426">
        <ele>218</ele>
        <time>2025-02-15T08:47:27Z</time>
      </trkpt>
      <trkpt lat="43.55138" lon="1.44258">
        <ele>218</ele>
        <time>2025-02-15T08:47:28Z</time>
      </trkpt>
      <trkpt lat="43.55137" lon="1.44256">
        <ele>218</ele>
        <time>2025-02-15T08:47:29Z</time>
      </trkpt>
      <trkpt lat="43.55135" lon="1.44252">
        <ele>218</ele>
        <time>2025-02-15T08:47:31Z</time>
      </trkpt>
      <trkpt lat="43.55133" lon="1.44248">
        <ele>219</ele>
        <time>2025-02-15T08:47:33Z</time>
      </trkpt>
      <trkpt lat="43.55133" lon="1.44248">
        <ele>219</ele>
        <time>2025-02-15T08:47:34Z</time>
      </trkpt>
      <trkpt lat="43.55132" lon="1.44244">
        <ele>219</ele>
        <time>2025-02-15T08:47:35Z</time>
      </trkpt>
      <trkpt lat="43.55132" lon="1.44242">
        <ele>220</ele>
        <time>2025-02-15T08:47:36Z</time>
      </trkpt>
      <trkpt lat="43.55132" lon="1.44239">
        <ele>220</ele>
        <time>2025-02-15T08:47:37Z</time>
      </trkpt>
      <trkpt lat="43.55132" lon="1.44236">
        <ele>220</ele>
        <time>2025-02-15T08:47:38Z</time>
      </trkpt>
      <trkpt lat="43.55132" lon="1.44231">
        <ele>220</ele>
        <time>2025-02-15T08:47:40Z</time>
      </trkpt>
      <trkpt lat="43.55132" lon="1.44229">
        <ele>220</ele>
        <time>2025-02-15T08:47:41Z</time>
      </trkpt>
      <trkpt lat="43.55132" lon="1.44226">
        <ele>220</ele>
        <time>2025-02-15T08:47:42Z</time>
      </trkpt>
      <trkpt lat="43.55132" lon="1.44224">
        <ele>220</ele>
        <time>2025-02-15T08:47:43Z</time>
      </trkpt>
      <trkpt lat="43.55132" lon="1.44224">
        <ele>220</ele>
        <time>2025-02-15T08:47:44Z</time>
      </trkpt>
      <trkpt lat="43.55131" lon="1.4422">
        <ele>220</ele>
        <time>2025-02-15T08:47:45Z</time>
      </trkpt>
      <trkpt lat="43.55131" lon="1.4422">
        <ele>220</ele>
        <time>2025-02-15T08:47:46Z</time>
      </trkpt>
      <trkpt lat="43.55129" lon="1.44217">
        <ele>220</ele>
        <time>2025-02-15T08:47:47Z</time>
      </trkpt>
      <trkpt lat="43.55129" lon="1.44217">
        <ele>221</ele>
        <time>2025-02-15T08:47:48Z</time>
      </trkpt>
      <trkpt lat="43.55127" lon="1.44215">
        <ele>221</ele>
        <time>2025-02-15T08:47:49Z</time>
      </trkpt>
      <trkpt lat="43.55127" lon="1.44215">
        <ele>221</ele>
        <time>2025-02-15T08:47:50Z</time>
      </trkpt>
      <trkpt lat="43.55125" lon="1.44214">
        <ele>221</ele>
        <time>2025-02-15T08:47:51Z</time>
      </trkpt>
      <trkpt lat="43.55125" lon="1.44214">
        <ele>222</ele>
        <time>2025-02-15T08:47:52Z</time>
      </trkpt>
      <trkpt lat="43.55122" lon="1.44213">
        <ele>222</ele>
        <time>2025-02-15T08:47:53Z</time>
      </trkpt>
      <trkpt lat="43.55122" lon="1.44213">
        <ele>222</ele>
        <time>2025-02-15T08:47:54Z</time>
      </trkpt>
      <trkpt lat="43.5512" lon="1.44213">
        <ele>223</ele>
        <time>2025-02-15T08:47:55Z</time>
      </trkpt>
      <trkpt lat="43.55117" lon="1.44212">
        <ele>223</ele>
        <time>2025-02-15T08:47:57Z</time>
      </trkpt>
      <trkpt lat="43.55115" lon="1.44212">
        <ele>224</ele>
        <time>2025-02-15T08:47:59Z</time>
      </trkpt>
      <trkpt lat="43.55115" lon="1.44212">
        <ele>224</ele>
        <time>2025-02-15T08:48:00Z</time>
      </trkpt>
      <trkpt lat="43.55112" lon="1.44212">
        <ele>225</ele>
        <time>2025-02-15T08:48:01Z</time>
      </trkpt>
      <trkpt lat="43.5511" lon="1.44212">
        <ele>226</ele>
        <time>2025-02-15T08:48:02Z</time>
      </trkpt>
      <trkpt lat="43.5511" lon="1.44212">
        <ele>226</ele>
        <time>2025-02-15T08:48:03Z</time>
      </trkpt>
      <trkpt lat="43.55107" lon="1.44212">
        <ele>226</ele>
        <time>2025-02-15T08:48:04Z</time>
      </trkpt>
      <trkpt lat="43.55104" lon="1.44211">
        <ele>226</ele>
        <time>2025-02-15T08:48:06Z</time>
      </trkpt>
      <trkpt lat="43.55104" lon="1.44211">
        <ele>226</ele>
        <time>2025-02-15T08:48:07Z</time>
      </trkpt>
      <trkpt lat="43.551" lon="1.4421">
        <ele>226</ele>
        <time>2025-02-15T08:48:08Z</time>
      </trkpt>
      <trkpt lat="43.55099" lon="1.44208">
        <ele>227</ele>
        <time>2025-02-15T08:48:09Z</time>
      </trkpt>
      <trkpt lat="43.55097" lon="1.44207">
        <ele>227</ele>
        <time>2025-02-15T08:48:10Z</time>
      </trkpt>
      <trkpt lat="43.55096" lon="1.44206">
        <ele>227</ele>
        <time>2025-02-15T08:48:11Z</time>
      </trkpt>
      <trkpt lat="43.55093" lon="1.44203">
        <ele>227</ele>
        <time>2025-02-15T08:48:12Z</time>
      </trkpt>
      <trkpt lat="43.55092" lon="1.44202">
        <ele>228</ele>
        <time>2025-02-15T08:48:13Z</time>
      </trkpt>
      <trkpt lat="43.5509" lon="1.442">
        <ele>228</ele>
        <time>2025-02-15T08:48:14Z</time>
      </trkpt>
      <trkpt lat="43.55088" lon="1.44197">
        <ele>227</ele>
        <time>2025-02-15T08:48:15Z</time>
      </trkpt>
      <trkpt lat="43.55086" lon="1.44193">
        <ele>227</ele>
        <time>2025-02-15T08:48:16Z</time>
      </trkpt>
      <trkpt lat="43.55084" lon="1.44189">
        <ele>227</ele>
        <time>2025-02-15T08:48:17Z</time>
      </trkpt>
      <trkpt lat="43.55082" lon="1.44186">
        <ele>227</ele>
        <time>2025-02-15T08:48:18Z</time>
      </trkpt>
      <trkpt lat="43.5508" lon="1.44183">
        <ele>227</ele>
        <time>2025-02-15T08:48:19Z</time>
      </trkpt>
      <trkpt lat="43.55077" lon="1.44179">
        <ele>227</ele>
        <time>2025-02-15T08:48:20Z</time>
      </trkpt>
      <trkpt lat="43.55076" lon="1.44178">
        <ele>227</ele>
        <time>2025-02-15T08:48:21Z</time>
      </trkpt>
      <trkpt lat="43.55074" lon="1.44177">
        <ele>228</ele>
        <time>2025-02-15T08:48:22Z</time>
      </trkpt>
      <trkpt lat="43.55072" lon="1.44175">
        <ele>228</ele>
        <time>2025-02-15T08:48:23Z</time>
      </trkpt>
      <trkpt lat="43.5507" lon="1.44174">
        <ele>228</ele>
        <time>2025-02-15T08:48:24Z</time>
      </trkpt>
      <trkpt lat="43.55067" lon="1.44174">
        <ele>227</ele>
        <time>2025-02-15T08:48:26Z</time>
      </trkpt>
      <trkpt lat="43.55064" lon="1.4417">
        <ele>227</ele>
        <time>2025-02-15T08:50:03Z</time>
      </trkpt>
      <trkpt lat="43.55064" lon="1.4417">
        <ele>228</ele>
        <time>2025-02-15T08:50:04Z</time>
      </trkpt>
      <trkpt lat="43.55064" lon="1.4417">
        <ele>228</ele>
        <time>2025-02-15T08:50:05Z</time>
      </trkpt>
      <trkpt lat="43.55065" lon="1.44174">
        <ele>228</ele>
        <time>2025-02-15T08:50:06Z</time>
      </trkpt>
      <trkpt lat="43.55067" lon="1.44178">
        <ele>228</ele>
        <time>2025-02-15T08:50:07Z</time>
      </trkpt>
      <trkpt lat="43.55067" lon="1.4418">
        <ele>228</ele>
        <time>2025-02-15T08:50:08Z</time>
      </trkpt>
      <trkpt lat="43.5507" lon="1.44185">
        <ele>228</ele>
        <time>2025-02-15T08:50:09Z</time>
      </trkpt>
      <trkpt lat="43.55071" lon="1.44186">
        <ele>228</ele>
        <time>2025-02-15T08:50:10Z</time>
      </trkpt>
      <trkpt lat="43.55073" lon="1.44189">
        <ele>228</ele>
        <time>2025-02-15T08:50:11Z</time>
      </trkpt>
      <trkpt lat="43.55075" lon="1.44192">
        <ele>229</ele>
        <time>2025-02-15T08:50:12Z</time>
      </trkpt>
      <trkpt lat="43.55077" lon="1.44195">
        <ele>229</ele>
        <time>2025-02-15T08:50:13Z</time>
      </trkpt>
      <trkpt lat="43.5508" lon="1.442">
        <ele>229</ele>
        <time>2025-02-15T08:50:14Z</time>
      </trkpt>
      <trkpt lat="43.55081" lon="1.44202">
        <ele>229</ele>
        <time>2025-02-15T08:50:15Z</time>
      </trkpt>
      <trkpt lat="43.55083" lon="1.44206">
        <ele>229</ele>
        <time>2025-02-15T08:50:16Z</time>
      </trkpt>
      <trkpt lat="43.55084" lon="1.44208">
        <ele>229</ele>
        <time>2025-02-15T08:50:17Z</time>
      </trkpt>
      <trkpt lat="43.55086" lon="1.44211">
        <ele>229</ele>
        <time>2025-02-15T08:50:18Z</time>
      </trkpt>
      <trkpt lat="43.55088" lon="1.44214">
        <ele>229</ele>
        <time>2025-02-15T08:50:19Z</time>
      </trkpt>
      <trkpt lat="43.5509" lon="1.44218">
        <ele>228</ele>
        <time>2025-02-15T08:50:20Z</time>
      </trkpt>
      <trkpt lat="43.55092" lon="1.44221">
        <ele>228</ele>
        <time>2025-02-15T08:50:21Z</time>
      </trkpt>
      <trkpt lat="43.55093" lon="1.44224">
        <ele>228</ele>
        <time>2025-02-15T08:50:22Z</time>
      </trkpt>
      <trkpt lat="43.55094" lon="1.44228">
        <ele>228</ele>
        <time>2025-02-15T08:50:23Z</time>
      </trkpt>
      <trkpt lat="43.55095" lon="1.44231">
        <ele>228</ele>
        <time>2025-02-15T08:50:24Z</time>
      </trkpt>
      <trkpt lat="43.55095" lon="1.44235">
        <ele>228</ele>
        <time>2025-02-15T08:50:25Z</time>
      </trkpt>
      <trkpt lat="43.55096" lon="1.4424">
        <ele>228</ele>
        <time>2025-02-15T08:50:26Z</time>
      </trkpt>
      <trkpt lat="43.55096" lon="1.44242">
        <ele>228</ele>
        <time>2025-02-15T08:50:27Z</time>
      </trkpt>
      <trkpt lat="43.55096" lon="1.44247">
        <ele>228</ele>
        <time>2025-02-15T08:50:28Z</time>
      </trkpt>
      <trkpt lat="43.55096" lon="1.44248">
        <ele>228</ele>
        <time>2025-02-15T08:50:29Z</time>
      </trkpt>
      <trkpt lat="43.55098" lon="1.44254">
        <ele>228</ele>
        <time>2025-02-15T08:50:30Z</time>
      </trkpt>
      <trkpt lat="43.55099" lon="1.44256">
        <ele>228</ele>
        <time>2025-02-15T08:50:31Z</time>
      </trkpt>
      <trkpt lat="43.55101" lon="1.44263">
        <ele>228</ele>
        <time>2025-02-15T08:50:32Z</time>
      </trkpt>
      <trkpt lat="43.55101" lon="1.44265">
        <ele>227</ele>
        <time>2025-02-15T08:50:33Z</time>
      </trkpt>
      <trkpt lat="43.55104" lon="1.44272">
        <ele>227</ele>
        <time>2025-02-15T08:50:34Z</time>
      </trkpt>
      <trkpt lat="43.55105" lon="1.44274">
        <ele>225</ele>
        <time>2025-02-15T08:50:35Z</time>
      </trkpt>
      <trkpt lat="43.55106" lon="1.44279">
        <ele>225</ele>
        <time>2025-02-15T08:50:36Z</time>
      </trkpt>
      <trkpt lat="43.55107" lon="1.44286">
        <ele>225</ele>
        <time>2025-02-15T08:50:37Z</time>
      </trkpt>
      <trkpt lat="43.55108" lon="1.44288">
        <ele>224</ele>
        <time>2025-02-15T08:50:38Z</time>
      </trkpt>
      <trkpt lat="43.55108" lon="1.44292">
        <ele>224</ele>
        <time>2025-02-15T08:50:39Z</time>
      </trkpt>
      <trkpt lat="43.55108" lon="1.44294">
        <ele>223</ele>
        <time>2025-02-15T08:50:40Z</time>
      </trkpt>
      <trkpt lat="43.5511" lon="1.44301">
        <ele>223</ele>
        <time>2025-02-15T08:50:41Z</time>
      </trkpt>
      <trkpt lat="43.55111" lon="1.44303">
        <ele>222</ele>
        <time>2025-02-15T08:50:42Z</time>
      </trkpt>
      <trkpt lat="43.55111" lon="1.44307">
        <ele>222</ele>
        <time>2025-02-15T08:50:43Z</time>
      </trkpt>
      <trkpt lat="43.55111" lon="1.44311">
        <ele>222</ele>
        <time>2025-02-15T08:50:44Z</time>
      </trkpt>
      <trkpt lat="43.55112" lon="1.44317">
        <ele>222</ele>
        <time>2025-02-15T08:50:45Z</time>
      </trkpt>
      <trkpt lat="43.55113" lon="1.44319">
        <ele>222</ele>
        <time>2025-02-15T08:50:46Z</time>
      </trkpt>
      <trkpt lat="43.55114" lon="1.44325">
        <ele>222</ele>
        <time>2025-02-15T08:50:47Z</time>
      </trkpt>
      <trkpt lat="43.55114" lon="1.44327">
        <ele>222</ele>
        <time>2025-02-15T08:50:48Z</time>
      </trkpt>
      <trkpt lat="43.55115" lon="1.44331">
        <ele>222</ele>
        <time>2025-02-15T08:50:49Z</time>
      </trkpt>
      <trkpt lat="43.55116" lon="1.44337">
        <ele>222</ele>
        <time>2025-02-15T08:50:50Z</time>
      </trkpt>
      <trkpt lat="43.55117" lon="1.44338">
        <ele>222</ele>
        <time>2025-02-15T08:50:51Z</time>
      </trkpt>
      <trkpt lat="43.55118" lon="1.44344">
        <ele>222</ele>
        <time>2025-02-15T08:50:52Z</time>
      </trkpt>
      <trkpt lat="43.55119" lon="1.44345">
        <ele>222</ele>
        <time>2025-02-15T08:50:53Z</time>
      </trkpt>
      <trkpt lat="43.55121" lon="1.44349">
        <ele>222</ele>
        <time>2025-02-15T08:50:54Z</time>
      </trkpt>
      <trkpt lat="43.55122" lon="1.44352">
        <ele>222</ele>
        <time>2025-02-15T08:50:55Z</time>
      </trkpt>
      <trkpt lat="43.55124" lon="1.44355">
        <ele>222</ele>
        <time>2025-02-15T08:50:56Z</time>
      </trkpt>
      <trkpt lat="43.55126" lon="1.44359">
        <ele>222</ele>
        <time>2025-02-15T08:50:57Z</time>
      </trkpt>
      <trkpt lat="43.55127" lon="1.4436">
        <ele>222</ele>
        <time>2025-02-15T08:50:58Z</time>
      </trkpt>
      <trkpt lat="43.55129" lon="1.44363">
        <ele>222</ele>
        <time>2025-02-15T08:50:59Z</time>
      </trkpt>
      <trkpt lat="43.55131" lon="1.44365">
        <ele>221</ele>
        <time>2025-02-15T08:51:00Z</time>
      </trkpt>
      <trkpt lat="43.55132" lon="1.44367">
        <ele>221</ele>
        <time>2025-02-15T08:51:01Z</time>
      </trkpt>
      <trkpt lat="43.55137" lon="1.44372">
        <ele>222</ele>
        <time>2025-02-15T08:51:17Z</time>
      </trkpt>
      <trkpt lat="43.55137" lon="1.44372">
        <ele>221</ele>
        <time>2025-02-15T08:51:18Z</time>
      </trkpt>
      <trkpt lat="43.55137" lon="1.44375">
        <ele>221</ele>
        <time>2025-02-15T08:51:19Z</time>
      </trkpt>
      <trkpt lat="43.55137" lon="1.44375">
        <ele>221</ele>
        <time>2025-02-15T08:51:20Z</time>
      </trkpt>
      <trkpt lat="43.55137" lon="1.44379">
        <ele>222</ele>
        <time>2025-02-15T08:51:21Z</time>
      </trkpt>
      <trkpt lat="43.55137" lon="1.44382">
        <ele>222</ele>
        <time>2025-02-15T08:51:22Z</time>
      </trkpt>
      <trkpt lat="43.55137" lon="1.44385">
        <ele>222</ele>
        <time>2025-02-15T08:51:23Z</time>
      </trkpt>
      <trkpt lat="43.55137" lon="1.4439">
        <ele>222</ele>
        <time>2025-02-15T08:51:24Z</time>
      </trkpt>
      <trkpt lat="43.55137" lon="1.44392">
        <ele>222</ele>
        <time>2025-02-15T08:51:25Z</time>
      </trkpt>
      <trkpt lat="43.55136" lon="1.44398">
        <ele>222</ele>
        <time>2025-02-15T08:51:26Z</time>
      </trkpt>
      <trkpt lat="43.55135" lon="1.444">
        <ele>223</ele>
        <time>2025-02-15T08:51:27Z</time>
      </trkpt>
      <trkpt lat="43.55134" lon="1.44404">
        <ele>223</ele>
        <time>2025-02-15T08:51:28Z</time>
      </trkpt>
      <trkpt lat="43.55132" lon="1.4441">
        <ele>223</ele>
        <time>2025-02-15T08:51:29Z</time>
      </trkpt>
      <trkpt lat="43.55132" lon="1.44412">
        <ele>223</ele>
        <time>2025-02-15T08:51:30Z</time>
      </trkpt>
      <trkpt lat="43.55131" lon="1.44418">
        <ele>223</ele>
        <time>2025-02-15T08:51:31Z</time>
      </trkpt>
      <trkpt lat="43.5513" lon="1.4442">
        <ele>223</ele>
        <time>2025-02-15T08:51:32Z</time>
      </trkpt>
      <trkpt lat="43.55129" lon="1.44424">
        <ele>223</ele>
        <time>2025-02-15T08:51:33Z</time>
      </trkpt>
      <trkpt lat="43.55128" lon="1.44427">
        <ele>223</ele>
        <time>2025-02-15T08:51:34Z</time>
      </trkpt>
      <trkpt lat="43.55127" lon="1.44431">
        <ele>224</ele>
        <time>2025-02-15T08:51:35Z</time>
      </trkpt>
      <trkpt lat="43.55126" lon="1.44436">
        <ele>224</ele>
        <time>2025-02-15T08:51:36Z</time>
      </trkpt>
      <trkpt lat="43.55125" lon="1.44438">
        <ele>224</ele>
        <time>2025-02-15T08:51:37Z</time>
      </trkpt>
      <trkpt lat="43.55124" lon="1.44441">
        <ele>224</ele>
        <time>2025-02-15T08:51:38Z</time>
      </trkpt>
      <trkpt lat="43.55123" lon="1.44445">
        <ele>224</ele>
        <time>2025-02-15T08:51:39Z</time>
      </trkpt>
      <trkpt lat="43.55122" lon="1.44448">
        <ele>224</ele>
        <time>2025-02-15T08:51:40Z</time>
      </trkpt>
      <trkpt lat="43.5512" lon="1.44453">
        <ele>224</ele>
        <time>2025-02-15T08:51:41Z</time>
      </trkpt>
      <trkpt lat="43.55119" lon="1.44455">
        <ele>224</ele>
        <time>2025-02-15T08:51:42Z</time>
      </trkpt>
      <trkpt lat="43.55118" lon="1.44459">
        <ele>224</ele>
        <time>2025-02-15T08:51:43Z</time>
      </trkpt>
      <trkpt lat="43.55118" lon="1.44463">
        <ele>224</ele>
        <time>2025-02-15T08:51:44Z</time>
      </trkpt>
      <trkpt lat="43.55117" lon="1.44467">
        <ele>225</ele>
        <time>2025-02-15T08:51:45Z</time>
      </trkpt>
      <trkpt lat="43.55116" lon="1.4447">
        <ele>225</ele>
        <time>2025-02-15T08:51:46Z</time>
      </trkpt>
      <trkpt lat="43.55115" lon="1.44474">
        <ele>225</ele>
        <time>2025-02-15T08:51:47Z</time>
      </trkpt>
      <trkpt lat="43.55114" lon="1.44478">
        <ele>225</ele>
        <time>2025-02-15T08:51:48Z</time>
      </trkpt>
      <trkpt lat="43.55113" lon="1.4448">
        <ele>225</ele>
        <time>2025-02-15T08:51:49Z</time>
      </trkpt>
      <trkpt lat="43.55112" lon="1.44485">
        <ele>225</ele>
        <time>2025-02-15T08:51:50Z</time>
      </trkpt>
      <trkpt lat="43.55112" lon="1.44486">
        <ele>225</ele>
        <time>2025-02-15T08:51:51Z</time>
      </trkpt>
      <trkpt lat="43.55111" lon="1.4449">
        <ele>226</ele>
        <time>2025-02-15T08:51:52Z</time>
      </trkpt>
      <trkpt lat="43.5511" lon="1.44493">
        <ele>226</ele>
        <time>2025-02-15T08:51:53Z</time>
      </trkpt>
      <trkpt lat="43.5511" lon="1.44496">
        <ele>226</ele>
        <time>2025-02-15T08:51:54Z</time>
      </trkpt>
      <trkpt lat="43.55109" lon="1.44501">
        <ele>226</ele>
        <time>2025-02-15T08:51:55Z</time>
      </trkpt>
      <trkpt lat="43.55109" lon="1.44503">
        <ele>227</ele>
        <time>2025-02-15T08:51:56Z</time>
      </trkpt>
      <trkpt lat="43.55108" lon="1.44508">
        <ele>227</ele>
        <time>2025-02-15T08:51:57Z</time>
      </trkpt>
      <trkpt lat="43.55107" lon="1.4451">
        <ele>227</ele>
        <time>2025-02-15T08:51:58Z</time>
      </trkpt>
      <trkpt lat="43.55106" lon="1.44514">
        <ele>227</ele>
        <time>2025-02-15T08:51:59Z</time>
      </trkpt>
      <trkpt lat="43.55105" lon="1.44516">
        <ele>228</ele>
        <time>2025-02-15T08:52:00Z</time>
      </trkpt>
      <trkpt lat="43.55105" lon="1.44518">
        <ele>228</ele>
        <time>2025-02-15T08:52:01Z</time>
      </trkpt>
      <trkpt lat="43.55104" lon="1.44522">
        <ele>228</ele>
        <time>2025-02-15T08:52:02Z</time>
      </trkpt>
      <trkpt lat="43.55103" lon="1.44525">
        <ele>229</ele>
        <time>2025-02-15T08:52:03Z</time>
      </trkpt>
      <trkpt lat="43.55101" lon="1.44531">
        <ele>229</ele>
        <time>2025-02-15T08:52:04Z</time>
      </trkpt>
      <trkpt lat="43.55101" lon="1.44532">
        <ele>229</ele>
        <time>2025-02-15T08:52:05Z</time>
      </trkpt>
      <trkpt lat="43.55101" lon="1.44536">
        <ele>229</ele>
        <time>2025-02-15T08:52:06Z</time>
      </trkpt>
      <trkpt lat="43.551" lon="1.44539">
        <ele>229</ele>
        <time>2025-02-15T08:52:07Z</time>
      </trkpt>
      <trkpt lat="43.55099" lon="1.44543">
        <ele>229</ele>
        <time>2025-02-15T08:52:08Z</time>
      </trkpt>
      <trkpt lat="43.55098" lon="1.44548">
        <ele>229</ele>
        <time>2025-02-15T08:52:09Z</time>
      </trkpt>
      <trkpt lat="43.55098" lon="1.4455">
        <ele>229</ele>
        <time>2025-02-15T08:52:10Z</time>
      </trkpt>
      <trkpt lat="43.55097" lon="1.44555">
        <ele>229</ele>
        <time>2025-02-15T08:52:11Z</time>
      </trkpt>
      <trkpt lat="43.55096" lon="1.44556">
        <ele>229</ele>
        <time>2025-02-15T08:52:12Z</time>
      </trkpt>
      <trkpt lat="43.55096" lon="1.44559">
        <ele>229</ele>
        <time>2025-02-15T08:52:13Z</time>
      </trkpt>
      <trkpt lat="43.55094" lon="1.44563">
        <ele>229</ele>
        <time>2025-02-15T08:52:14Z</time>
      </trkpt>
      <trkpt lat="43.55093" lon="1.44565">
        <ele>230</ele>
        <time>2025-02-15T08:52:15Z</time>
      </trkpt>
      <trkpt lat="43.55092" lon="1.44569">
        <ele>230</ele>
        <time>2025-02-15T08:52:16Z</time>
      </trkpt>
      <trkpt lat="43.55092" lon="1.44571">
        <ele>230</ele>
        <time>2025-02-15T08:52:17Z</time>
      </trkpt>
      <trkpt lat="43.5509" lon="1.44576">
        <ele>230</ele>
        <time>2025-02-15T08:52:18Z</time>
      </trkpt>
      <trkpt lat="43.5509" lon="1.44578">
        <ele>230</ele>
        <time>2025-02-15T08:52:19Z</time>
      </trkpt>
      <trkpt lat="43.55088" lon="1.44583">
        <ele>230</ele>
        <time>2025-02-15T08:52:20Z</time>
      </trkpt>
      <trkpt lat="43.55087" lon="1.44585">
        <ele>230</ele>
        <time>2025-02-15T08:52:21Z</time>
      </trkpt>
      <trkpt lat="43.55086" lon="1.44588">
        <ele>230</ele>
        <time>2025-02-15T08:52:22Z</time>
      </trkpt>
      <trkpt lat="43.55085" lon="1.44593">
        <ele>230</ele>
        <time>2025-02-15T08:52:23Z</time>
      </trkpt>
      <trkpt lat="43.55084" lon="1.44595">
        <ele>231</ele>
        <time>2025-02-15T08:52:24Z</time>
      </trkpt>
      <trkpt lat="43.55083" lon="1.446">
        <ele>231</ele>
        <time>2025-02-15T08:52:25Z</time>
      </trkpt>
      <trkpt lat="43.55082" lon="1.44602">
        <ele>231</ele>
        <time>2025-02-15T08:52:26Z</time>
      </trkpt>
      <trkpt lat="43.55082" lon="1.44605">
        <ele>231</ele>
        <time>2025-02-15T08:52:27Z</time>
      </trkpt>
      <trkpt lat="43.55081" lon="1.44609">
        <ele>231</ele>
        <time>2025-02-15T08:52:28Z</time>
      </trkpt>
      <trkpt lat="43.5508" lon="1.44613">
        <ele>231</ele>
        <time>2025-02-15T08:52:29Z</time>
      </trkpt>
      <trkpt lat="43.55079" lon="1.44618">
        <ele>231</ele>
        <time>2025-02-15T08:52:30Z</time>
      </trkpt>
      <trkpt lat="43.55079" lon="1.44619">
        <ele>232</ele>
        <time>2025-02-15T08:52:31Z</time>
      </trkpt>
      <trkpt lat="43.55078" lon="1.44622">
        <ele>232</ele>
        <time>2025-02-15T08:52:32Z</time>
      </trkpt>
      <trkpt lat="43.55078" lon="1.44625">
        <ele>232</ele>
        <time>2025-02-15T08:52:33Z</time>
      </trkpt>
      <trkpt lat="43.55077" lon="1.44629">
        <ele>231</ele>
        <time>2025-02-15T08:52:34Z</time>
      </trkpt>
      <trkpt lat="43.55076" lon="1.44632">
        <ele>231</ele>
        <time>2025-02-15T08:52:35Z</time>
      </trkpt>
      <trkpt lat="43.55076" lon="1.44635">
        <ele>231</ele>
        <time>2025-02-15T08:52:36Z</time>
      </trkpt>
      <trkpt lat="43.55075" lon="1.4464">
        <ele>231</ele>
        <time>2025-02-15T08:52:37Z</time>
      </trkpt>
      <trkpt lat="43.55074" lon="1.44642">
        <ele>232</ele>
        <time>2025-02-15T08:52:38Z</time>
      </trkpt>
      <trkpt lat="43.55073" lon="1.44647">
        <ele>232</ele>
        <time>2025-02-15T08:52:39Z</time>
      </trkpt>
      <trkpt lat="43.55073" lon="1.44649">
        <ele>233</ele>
        <time>2025-02-15T08:52:40Z</time>
      </trkpt>
      <trkpt lat="43.55072" lon="1.44652">
        <ele>233</ele>
        <time>2025-02-15T08:52:41Z</time>
      </trkpt>
      <trkpt lat="43.5507" lon="1.44657">
        <ele>233</ele>
        <time>2025-02-15T08:52:42Z</time>
      </trkpt>
      <trkpt lat="43.55069" lon="1.44659">
        <ele>232</ele>
        <time>2025-02-15T08:52:43Z</time>
      </trkpt>
      <trkpt lat="43.55066" lon="1.44662">
        <ele>232</ele>
        <time>2025-02-15T08:52:44Z</time>
      </trkpt>
      <trkpt lat="43.55065" lon="1.44662">
        <ele>232</ele>
        <time>2025-02-15T08:52:45Z</time>
      </trkpt>
      <trkpt lat="43.55062" lon="1.44664">
        <ele>232</ele>
        <time>2025-02-15T08:52:46Z</time>
      </trkpt>
      <trkpt lat="43.5506" lon="1.44667">
        <ele>232</ele>
        <time>2025-02-15T08:52:47Z</time>
      </trkpt>
      <trkpt lat="43.55059" lon="1.44671">
        <ele>232</ele>
        <time>2025-02-15T08:52:48Z</time>
      </trkpt>
      <trkpt lat="43.55058" lon="1.44677">
        <ele>232</ele>
        <time>2025-02-15T08:52:49Z</time>
      </trkpt>
      <trkpt lat="43.55057" lon="1.44679">
        <ele>231</ele>
        <time>2025-02-15T08:52:50Z</time>
      </trkpt>
      <trkpt lat="43.55056" lon="1.44683">
        <ele>231</ele>
        <time>2025-02-15T08:52:51Z</time>
      </trkpt>
      <trkpt lat="43.55056" lon="1.44686">
        <ele>231</ele>
        <time>2025-02-15T08:52:52Z</time>
      </trkpt>
      <trkpt lat="43.55055" lon="1.4469">
        <ele>230</ele>
        <time>2025-02-15T08:52:53Z</time>
      </trkpt>
      <trkpt lat="43.55053" lon="1.44693">
        <ele>230</ele>
        <time>2025-02-15T08:52:54Z</time>
      </trkpt>
      <trkpt lat="43.55053" lon="1.44696">
        <ele>231</ele>
        <time>2025-02-15T08:52:55Z</time>
      </trkpt>
      <trkpt lat="43.55051" lon="1.44701">
        <ele>231</ele>
        <time>2025-02-15T08:52:56Z</time>
      </trkpt>
      <trkpt lat="43.55051" lon="1.44702">
        <ele>231</ele>
        <time>2025-02-15T08:52:57Z</time>
      </trkpt>
      <trkpt lat="43.5505" lon="1.44706">
        <ele>231</ele>
        <time>2025-02-15T08:52:58Z</time>
      </trkpt>
      <trkpt lat="43.55049" lon="1.44708">
        <ele>231</ele>
        <time>2025-02-15T08:52:59Z</time>
      </trkpt>
      <trkpt lat="43.55048" lon="1.4471">
        <ele>231</ele>
        <time>2025-02-15T08:53:00Z</time>
      </trkpt>
      <trkpt lat="43.55045" lon="1.4471">
        <ele>230</ele>
        <time>2025-02-15T08:53:01Z</time>
      </trkpt>
      <trkpt lat="43.55044" lon="1.44706">
        <ele>230</ele>
        <time>2025-02-15T08:53:02Z</time>
      </trkpt>
      <trkpt lat="43.55043" lon="1.44704">
        <ele>230</ele>
        <time>2025-02-15T08:53:03Z</time>
      </trkpt>
      <trkpt lat="43.55043" lon="1.44698">
        <ele>230</ele>
        <time>2025-02-15T08:53:04Z</time>
      </trkpt>
      <trkpt lat="43.55043" lon="1.44696">
        <ele>229</ele>
        <time>2025-02-15T08:53:05Z</time>
      </trkpt>
      <trkpt lat="43.55043" lon="1.44692">
        <ele>229</ele>
        <time>2025-02-15T08:53:06Z</time>
      </trkpt>
      <trkpt lat="43.55042" lon="1.44689">
        <ele>229</ele>
        <time>2025-02-15T08:53:07Z</time>
      </trkpt>
      <trkpt lat="43.55041" lon="1.44685">
        <ele>228</ele>
        <time>2025-02-15T08:53:08Z</time>
      </trkpt>
      <trkpt lat="43.55041" lon="1.44679">
        <ele>228</ele>
        <time>2025-02-15T08:53:09Z</time>
      </trkpt>
      <trkpt lat="43.5504" lon="1.44677">
        <ele>228</ele>
        <time>2025-02-15T08:53:10Z</time>
      </trkpt>
      <trkpt lat="43.55041" lon="1.44671">
        <ele>228</ele>
        <time>2025-02-15T08:53:11Z</time>
      </trkpt>
      <trkpt lat="43.55041" lon="1.44669">
        <ele>228</ele>
        <time>2025-02-15T08:53:12Z</time>
      </trkpt>
      <trkpt lat="43.55041" lon="1.44663">
        <ele>228</ele>
        <time>2025-02-15T08:53:13Z</time>
      </trkpt>
      <trkpt lat="43.55042" lon="1.44661">
        <ele>227</ele>
        <time>2025-02-15T08:53:14Z</time>
      </trkpt>
      <trkpt lat="43.55042" lon="1.44657">
        <ele>226</ele>
        <time>2025-02-15T08:53:15Z</time>
      </trkpt>
      <trkpt lat="43.55042" lon="1.44652">
        <ele>225</ele>
        <time>2025-02-15T08:53:16Z</time>
      </trkpt>
      <trkpt lat="43.55043" lon="1.44648">
        <ele>225</ele>
        <time>2025-02-15T08:53:17Z</time>
      </trkpt>
      <trkpt lat="43.55043" lon="1.44643">
        <ele>225</ele>
        <time>2025-02-15T08:53:18Z</time>
      </trkpt>
      <trkpt lat="43.55043" lon="1.44637">
        <ele>225</ele>
        <time>2025-02-15T08:53:19Z</time>
      </trkpt>
      <trkpt lat="43.55043" lon="1.44634">
        <ele>224</ele>
        <time>2025-02-15T08:53:20Z</time>
      </trkpt>
      <trkpt lat="43.55043" lon="1.44627">
        <ele>224</ele>
        <time>2025-02-15T08:53:21Z</time>
      </trkpt>
      <trkpt lat="43.55043" lon="1.44624">
        <ele>223</ele>
        <time>2025-02-15T08:53:22Z</time>
      </trkpt>
      <trkpt lat="43.55043" lon="1.4462">
        <ele>223</ele>
        <time>2025-02-15T08:53:23Z</time>
      </trkpt>
      <trkpt lat="43.55044" lon="1.44615">
        <ele>223</ele>
        <time>2025-02-15T08:53:24Z</time>
      </trkpt>
      <trkpt lat="43.55044" lon="1.44611">
        <ele>223</ele>
        <time>2025-02-15T08:53:25Z</time>
      </trkpt>
      <trkpt lat="43.55044" lon="1.44604">
        <ele>223</ele>
        <time>2025-02-15T08:53:26Z</time>
      </trkpt>
      <trkpt lat="43.55044" lon="1.44602">
        <ele>222</ele>
        <time>2025-02-15T08:53:27Z</time>
      </trkpt>
      <trkpt lat="43.55044" lon="1.44595">
        <ele>222</ele>
        <time>2025-02-15T08:53:28Z</time>
      </trkpt>
      <trkpt lat="43.55044" lon="1.44593">
        <ele>220</ele>
        <time>2025-02-15T08:53:29Z</time>
      </trkpt>
      <trkpt lat="43.55043" lon="1.44586">
        <ele>220</ele>
        <time>2025-02-15T08:53:30Z</time>
      </trkpt>
      <trkpt lat="43.55043" lon="1.44585">
        <ele>219</ele>
        <time>2025-02-15T08:53:31Z</time>
      </trkpt>
      <trkpt lat="43.55043" lon="1.44581">
        <ele>219</ele>
        <time>2025-02-15T08:53:32Z</time>
      </trkpt>
      <trkpt lat="43.55044" lon="1.44578">
        <ele>218</ele>
        <time>2025-02-15T08:53:33Z</time>
      </trkpt>
      <trkpt lat="43.55044" lon="1.44575">
        <ele>218</ele>
        <time>2025-02-15T08:53:34Z</time>
      </trkpt>
      <trkpt lat="43.55044" lon="1.44572">
        <ele>218</ele>
        <time>2025-02-15T08:53:35Z</time>
      </trkpt>
      <trkpt lat="43.55044" lon="1.44569">
        <ele>216</ele>
        <time>2025-02-15T08:53:36Z</time>
      </trkpt>
      <trkpt lat="43.55043" lon="1.44562">
        <ele>216</ele>
        <time>2025-02-15T08:53:37Z</time>
      </trkpt>
      <trkpt lat="43.55043" lon="1.44559">
        <ele>215</ele>
        <time>2025-02-15T08:53:38Z</time>
      </trkpt>
      <trkpt lat="43.55042" lon="1.44555">
        <ele>214</ele>
        <time>2025-02-15T08:53:39Z</time>
      </trkpt>
      <trkpt lat="43.55042" lon="1.44551">
        <ele>214</ele>
        <time>2025-02-15T08:53:40Z</time>
      </trkpt>
      <trkpt lat="43.55043" lon="1.44547">
        <ele>214</ele>
        <time>2025-02-15T08:53:41Z</time>
      </trkpt>
      <trkpt lat="43.55042" lon="1.44543">
        <ele>214</ele>
        <time>2025-02-15T08:53:42Z</time>
      </trkpt>
      <trkpt lat="43.55042" lon="1.44539">
        <ele>213</ele>
        <time>2025-02-15T08:53:43Z</time>
      </trkpt>
      <trkpt lat="43.55042" lon="1.44533">
        <ele>213</ele>
        <time>2025-02-15T08:53:44Z</time>
      </trkpt>
      <trkpt lat="43.55042" lon="1.44531">
        <ele>212</ele>
        <time>2025-02-15T08:53:45Z</time>
      </trkpt>
      <trkpt lat="43.55042" lon="1.44527">
        <ele>212</ele>
        <time>2025-02-15T08:53:46Z</time>
      </trkpt>
      <trkpt lat="43.55042" lon="1.44524">
        <ele>211</ele>
        <time>2025-02-15T08:53:47Z</time>
      </trkpt>
      <trkpt lat="43.55041" lon="1.44521">
        <ele>210</ele>
        <time>2025-02-15T08:53:48Z</time>
      </trkpt>
      <trkpt lat="43.55041" lon="1.44516">
        <ele>210</ele>
        <time>2025-02-15T08:53:49Z</time>
      </trkpt>
      <trkpt lat="43.55041" lon="1.44515">
        <ele>209</ele>
        <time>2025-02-15T08:53:50Z</time>
      </trkpt>
      <trkpt lat="43.5504" lon="1.44512">
        <ele>209</ele>
        <time>2025-02-15T08:53:51Z</time>
      </trkpt>
      <trkpt lat="43.5504" lon="1.44508">
        <ele>208</ele>
        <time>2025-02-15T08:53:52Z</time>
      </trkpt>
      <trkpt lat="43.55039" lon="1.44505">
        <ele>208</ele>
        <time>2025-02-15T08:53:53Z</time>
      </trkpt>
      <trkpt lat="43.55038" lon="1.44503">
        <ele>207</ele>
        <time>2025-02-15T08:53:54Z</time>
      </trkpt>
      <trkpt lat="43.55037" lon="1.445">
        <ele>206</ele>
        <time>2025-02-15T08:53:55Z</time>
      </trkpt>
      <trkpt lat="43.55037" lon="1.44495">
        <ele>206</ele>
        <time>2025-02-15T08:53:56Z</time>
      </trkpt>
      <trkpt lat="43.55037" lon="1.44493">
        <ele>206</ele>
        <time>2025-02-15T08:53:57Z</time>
      </trkpt>
      <trkpt lat="43.55038" lon="1.44489">
        <ele>206</ele>
        <time>2025-02-15T08:53:58Z</time>
      </trkpt>
      <trkpt lat="43.55038" lon="1.44485">
        <ele>205</ele>
        <time>2025-02-15T08:53:59Z</time>
      </trkpt>
      <trkpt lat="43.55037" lon="1.44481">
        <ele>205</ele>
        <time>2025-02-15T08:54:00Z</time>
      </trkpt>
      <trkpt lat="43.55037" lon="1.44476">
        <ele>205</ele>
        <time>2025-02-15T08:54:01Z</time>
      </trkpt>
      <trkpt lat="43.55036" lon="1.44475">
        <ele>204</ele>
        <time>2025-02-15T08:54:02Z</time>
      </trkpt>
      <trkpt lat="43.55036" lon="1.4447">
        <ele>204</ele>
        <time>2025-02-15T08:54:03Z</time>
      </trkpt>
      <trkpt lat="43.55037" lon="1.44468">
        <ele>203</ele>
        <time>2025-02-15T08:54:04Z</time>
      </trkpt>
      <trkpt lat="43.55037" lon="1.44464">
        <ele>202</ele>
        <time>2025-02-15T08:54:05Z</time>
      </trkpt>
      <trkpt lat="43.55037" lon="1.44461">
        <ele>201</ele>
        <time>2025-02-15T08:54:06Z</time>
      </trkpt>
      <trkpt lat="43.55037" lon="1.44457">
        <ele>201</ele>
        <time>2025-02-15T08:54:07Z</time>
      </trkpt>
      <trkpt lat="43.55036" lon="1.44452">
        <ele>201</ele>
        <time>2025-02-15T08:54:08Z</time>
      </trkpt>
      <trkpt lat="43.55036" lon="1.4445">
        <ele>200</ele>
        <time>2025-02-15T08:54:09Z</time>
      </trkpt>
      <trkpt lat="43.55036" lon="1.44445">
        <ele>200</ele>
        <time>2025-02-15T08:54:10Z</time>
      </trkpt>
      <trkpt lat="43.55036" lon="1.44441">
        <ele>200</ele>
        <time>2025-02-15T08:54:11Z</time>
      </trkpt>
      <trkpt lat="43.55036" lon="1.44437">
        <ele>200</ele>
        <time>2025-02-15T08:54:12Z</time>
      </trkpt>
      <trkpt lat="43.55035" lon="1.44433">
        <ele>199</ele>
        <time>2025-02-15T08:54:13Z</time>
      </trkpt>
      <trkpt lat="43.55035" lon="1.4443">
        <ele>198</ele>
        <time>2025-02-15T08:54:14Z</time>
      </trkpt>
      <trkpt lat="43.55034" lon="1.44424">
        <ele>198</ele>
        <time>2025-02-15T08:54:15Z</time>
      </trkpt>
      <trkpt lat="43.55033" lon="1.44422">
        <ele>197</ele>
        <time>2025-02-15T08:54:16Z</time>
      </trkpt>
      <trkpt lat="43.55033" lon="1.44419">
        <ele>197</ele>
        <time>2025-02-15T08:54:17Z</time>
      </trkpt>
      <trkpt lat="43.55033" lon="1.44415">
        <ele>196</ele>
        <time>2025-02-15T08:54:18Z</time>
      </trkpt>
      <trkpt lat="43.55032" lon="1.4441">
        <ele>195</ele>
        <time>2025-02-15T08:54:19Z</time>
      </trkpt>
      <trkpt lat="43.55032" lon="1.44404">
        <ele>195</ele>
        <time>2025-02-15T08:54:20Z</time>
      </trkpt>
      <trkpt lat="43.55031" lon="1.44402">
        <ele>194</ele>
        <time>2025-02-15T08:54:21Z</time>
      </trkpt>
      <trkpt lat="43.55031" lon="1.44396">
        <ele>194</ele>
        <time>2025-02-15T08:54:22Z</time>
      </trkpt>
      <trkpt lat="43.55031" lon="1.44394">
        <ele>194</ele>
        <time>2025-02-15T08:54:23Z</time>
      </trkpt>
      <trkpt lat="43.55031" lon="1.44391">
        <ele>194</ele>
        <time>2025-02-15T08:54:24Z</time>
      </trkpt>
      <trkpt lat="43.5503" lon="1.44387">
        <ele>194</ele>
        <time>2025-02-15T08:54:25Z</time>
      </trkpt>
      <trkpt lat="43.5503" lon="1.44384">
        <ele>194</ele>
        <time>2025-02-15T08:54:26Z</time>
      </trkpt>
      <trkpt lat="43.55029" lon="1.44382">
        <ele>194</ele>
        <time>2025-02-15T08:54:27Z</time>
      </trkpt>
      <trkpt lat="43.55028" lon="1.44379">
        <ele>194</ele>
        <time>2025-02-15T08:54:28Z</time>
      </trkpt>
      <trkpt lat="43.55028" lon="1.44376">
        <ele>194</ele>
        <time>2025-02-15T08:54:29Z</time>
      </trkpt>
      <trkpt lat="43.55027" lon="1.44374">
        <ele>194</ele>
        <time>2025-02-15T08:54:30Z</time>
      </trkpt>
      <trkpt lat="43.55027" lon="1.4437">
        <ele>194</ele>
        <time>2025-02-15T08:54:31Z</time>
      </trkpt>
      <trkpt lat="43.55026" lon="1.44368">
        <ele>194</ele>
        <time>2025-02-15T08:54:32Z</time>
      </trkpt>
      <trkpt lat="43.55025" lon="1.44365">
        <ele>193</ele>
        <time>2025-02-15T08:54:33Z</time>
      </trkpt>
      <trkpt lat="43.55023" lon="1.44361">
        <ele>193</ele>
        <time>2025-02-15T08:54:34Z</time>
      </trkpt>
      <trkpt lat="43.55023" lon="1.44359">
        <ele>193</ele>
        <time>2025-02-15T08:54:35Z</time>
      </trkpt>
      <trkpt lat="43.55022" lon="1.44356">
        <ele>193</ele>
        <time>2025-02-15T08:54:36Z</time>
      </trkpt>
      <trkpt lat="43.55022" lon="1.44353">
        <ele>192</ele>
        <time>2025-02-15T08:54:37Z</time>
      </trkpt>
      <trkpt lat="43.55022" lon="1.4435">
        <ele>192</ele>
        <time>2025-02-15T08:54:38Z</time>
      </trkpt>
      <trkpt lat="43.55023" lon="1.44346">
        <ele>191</ele>
        <time>2025-02-15T08:54:40Z</time>
      </trkpt>
      <trkpt lat="43.55023" lon="1.44343">
        <ele>191</ele>
        <time>2025-02-15T08:54:42Z</time>
      </trkpt>
      <trkpt lat="43.55023" lon="1.44343">
        <ele>191</ele>
        <time>2025-02-15T08:54:43Z</time>
      </trkpt>
      <trkpt lat="43.55023" lon="1.44339">
        <ele>191</ele>
        <time>2025-02-15T08:54:44Z</time>
      </trkpt>
      <trkpt lat="43.55022" lon="1.44337">
        <ele>191</ele>
        <time>2025-02-15T08:54:45Z</time>
      </trkpt>
      <trkpt lat="43.55022" lon="1.44334">
        <ele>191</ele>
        <time>2025-02-15T08:54:46Z</time>
      </trkpt>
      <trkpt lat="43.55021" lon="1.44332">
        <ele>191</ele>
        <time>2025-02-15T08:54:47Z</time>
      </trkpt>
      <trkpt lat="43.5502" lon="1.44327">
        <ele>191</ele>
        <time>2025-02-15T08:54:48Z</time>
      </trkpt>
      <trkpt lat="43.5502" lon="1.44326">
        <ele>191</ele>
        <time>2025-02-15T08:54:49Z</time>
      </trkpt>
      <trkpt lat="43.55018" lon="1.44321">
        <ele>191</ele>
        <time>2025-02-15T08:54:50Z</time>
      </trkpt>
      <trkpt lat="43.55017" lon="1.4432">
        <ele>189</ele>
        <time>2025-02-15T08:54:51Z</time>
      </trkpt>
      <trkpt lat="43.55016" lon="1.44317">
        <ele>189</ele>
        <time>2025-02-15T08:54:52Z</time>
      </trkpt>
      <trkpt lat="43.55015" lon="1.44314">
        <ele>189</ele>
        <time>2025-02-15T08:54:53Z</time>
      </trkpt>
      <trkpt lat="43.55013" lon="1.44311">
        <ele>189</ele>
        <time>2025-02-15T08:54:54Z</time>
      </trkpt>
      <trkpt lat="43.55011" lon="1.44308">
        <ele>189</ele>
        <time>2025-02-15T08:54:55Z</time>
      </trkpt>
      <trkpt lat="43.5501" lon="1.44305">
        <ele>188</ele>
        <time>2025-02-15T08:54:56Z</time>
      </trkpt>
      <trkpt lat="43.55008" lon="1.44302">
        <ele>188</ele>
        <time>2025-02-15T08:54:57Z</time>
      </trkpt>
      <trkpt lat="43.55007" lon="1.44297">
        <ele>188</ele>
        <time>2025-02-15T08:54:58Z</time>
      </trkpt>
      <trkpt lat="43.55007" lon="1.44295">
        <ele>188</ele>
        <time>2025-02-15T08:54:59Z</time>
      </trkpt>
      <trkpt lat="43.55006" lon="1.44292">
        <ele>188</ele>
        <time>2025-02-15T08:55:00Z</time>
      </trkpt>
      <trkpt lat="43.55004" lon="1.44289">
        <ele>187</ele>
        <time>2025-02-15T08:55:01Z</time>
      </trkpt>
      <trkpt lat="43.55003" lon="1.44286">
        <ele>187</ele>
        <time>2025-02-15T08:55:02Z</time>
      </trkpt>
      <trkpt lat="43.55001" lon="1.44283">
        <ele>187</ele>
        <time>2025-02-15T08:55:03Z</time>
      </trkpt>
      <trkpt lat="43.55" lon="1.44281">
        <ele>186</ele>
        <time>2025-02-15T08:55:04Z</time>
      </trkpt>
      <trkpt lat="43.54998" lon="1.44277">
        <ele>186</ele>
        <time>2025-02-15T08:55:05Z</time>
      </trkpt>
      <trkpt lat="43.54997" lon="1.44276">
        <ele>186</ele>
        <time>2025-02-15T08:55:06Z</time>
      </trkpt>
      <trkpt lat="43.54994" lon="1.44273">
        <ele>186</ele>
        <time>2025-02-15T08:55:07Z</time>
      </trkpt>
      <trkpt lat="43.54994" lon="1.44272">
        <ele>186</ele>
        <time>2025-02-15T08:55:08Z</time>
      </trkpt>
      <trkpt lat="43.54992" lon="1.44268">
        <ele>186</ele>
        <time>2025-02-15T08:55:09Z</time>
      </trkpt>
      <trkpt lat="43.54991" lon="1.44267">
        <ele>184</ele>
        <time>2025-02-15T08:55:10Z</time>
      </trkpt>
      <trkpt lat="43.5499" lon="1.44264">
        <ele>184</ele>
        <time>2025-02-15T08:55:11Z</time>
      </trkpt>
      <trkpt lat="43.54989" lon="1.44262">
        <ele>184</ele>
        <time>2025-02-15T08:55:12Z</time>
      </trkpt>
      <trkpt lat="43.54987" lon="1.44258">
        <ele>184</ele>
        <time>2025-02-15T08:55:13Z</time>
      </trkpt>
      <trkpt lat="43.54986" lon="1.44256">
        <ele>182</ele>
        <time>2025-02-15T08:55:14Z</time>
      </trkpt>
      <trkpt lat="43.54983" lon="1.44252">
        <ele>182</ele>
        <time>2025-02-15T08:55:15Z</time>
      </trkpt>
      <trkpt lat="43.54982" lon="1.44251">
        <ele>182</ele>
        <time>2025-02-15T08:55:16Z</time>
      </trkpt>
      <trkpt lat="43.54981" lon="1.44247">
        <ele>182</ele>
        <time>2025-02-15T08:55:17Z</time>
      </trkpt>
      <trkpt lat="43.5498" lon="1.44246">
        <ele>182</ele>
        <time>2025-02-15T08:55:18Z</time>
      </trkpt>
      <trkpt lat="43.54978" lon="1.44242">
        <ele>182</ele>
        <time>2025-02-15T08:55:19Z</time>
      </trkpt>
      <trkpt lat="43.54978" lon="1.44241">
        <ele>180</ele>
        <time>2025-02-15T08:55:20Z</time>
      </trkpt>
      <trkpt lat="43.54977" lon="1.44238">
        <ele>180</ele>
        <time>2025-02-15T08:55:21Z</time>
      </trkpt>
      <trkpt lat="43.54976" lon="1.44236">
        <ele>180</ele>
        <time>2025-02-15T08:55:22Z</time>
      </trkpt>
      <trkpt lat="43.54975" lon="1.44233">
        <ele>179</ele>
        <time>2025-02-15T08:55:23Z</time>
      </trkpt>
      <trkpt lat="43.54972" lon="1.44229">
        <ele>179</ele>
        <time>2025-02-15T08:55:24Z</time>
      </trkpt>
      <trkpt lat="43.54971" lon="1.44227">
        <ele>178</ele>
        <time>2025-02-15T08:55:25Z</time>
      </trkpt>
      <trkpt lat="43.54969" lon="1.44223">
        <ele>178</ele>
        <time>2025-02-15T08:55:26Z</time>
      </trkpt>
      <trkpt lat="43.54968" lon="1.44222">
        <ele>177</ele>
        <time>2025-02-15T08:55:27Z</time>
      </trkpt>
      <trkpt lat="43.54966" lon="1.44217">
        <ele>177</ele>
        <time>2025-02-15T08:55:28Z</time>
      </trkpt>
      <trkpt lat="43.54966" lon="1.44216">
        <ele>176</ele>
        <time>2025-02-15T08:55:29Z</time>
      </trkpt>
      <trkpt lat="43.54964" lon="1.44214">
        <ele>176</ele>
        <time>2025-02-15T08:55:30Z</time>
      </trkpt>
      <trkpt lat="43.54962" lon="1.44212">
        <ele>176</ele>
        <time>2025-02-15T08:55:31Z</time>
      </trkpt>
      <trkpt lat="43.5496" lon="1.44207">
        <ele>176</ele>
        <time>2025-02-15T08:55:32Z</time>
      </trkpt>
      <trkpt lat="43.54959" lon="1.44206">
        <ele>175</ele>
        <time>2025-02-15T08:55:33Z</time>
      </trkpt>
      <trkpt lat="43.54958" lon="1.44203">
        <ele>175</ele>
        <time>2025-02-15T08:55:34Z</time>
      </trkpt>
      <trkpt lat="43.54956" lon="1.44201">
        <ele>175</ele>
        <time>2025-02-15T08:55:35Z</time>
      </trkpt>
      <trkpt lat="43.54954" lon="1.44198">
        <ele>174</ele>
        <time>2025-02-15T08:55:36Z</time>
      </trkpt>
      <trkpt lat="43.54953" lon="1.44196">
        <ele>174</ele>
        <time>2025-02-15T08:55:37Z</time>
      </trkpt>
      <trkpt lat="43.54951" lon="1.44192">
        <ele>174</ele>
        <time>2025-02-15T08:55:38Z</time>
      </trkpt>
      <trkpt lat="43.5495" lon="1.44191">
        <ele>172</ele>
        <time>2025-02-15T08:55:39Z</time>
      </trkpt>
      <trkpt lat="43.54949" lon="1.44188">
        <ele>172</ele>
        <time>2025-02-15T08:55:40Z</time>
      </trkpt>
      <trkpt lat="43.54948" lon="1.44185">
        <ele>172</ele>
        <time>2025-02-15T08:55:41Z</time>
      </trkpt>
      <trkpt lat="43.54946" lon="1.44183">
        <ele>172</ele>
        <time>2025-02-15T08:55:42Z</time>
      </trkpt>
      <trkpt lat="43.54945" lon="1.4418">
        <ele>171</ele>
        <time>2025-02-15T08:55:43Z</time>
      </trkpt>
      <trkpt lat="43.54944" lon="1.44178">
        <ele>170</ele>
        <time>2025-02-15T08:55:44Z</time>
      </trkpt>
      <trkpt lat="43.54942" lon="1.44176">
        <ele>170</ele>
        <time>2025-02-15T08:55:45Z</time>
      </trkpt>
      <trkpt lat="43.54941" lon="1.44173">
        <ele>170</ele>
        <time>2025-02-15T08:55:46Z</time>
      </trkpt>
      <trkpt lat="43.54939" lon="1.44169">
        <ele>170</ele>
        <time>2025-02-15T08:55:47Z</time>
      </trkpt>
      <trkpt lat="43.54938" lon="1.44168">
        <ele>169</ele>
        <time>2025-02-15T08:55:48Z</time>
      </trkpt>
      <trkpt lat="43.54935" lon="1.44166">
        <ele>169</ele>
        <time>2025-02-15T08:55:49Z</time>
      </trkpt>
      <trkpt lat="43.54934" lon="1.44164">
        <ele>169</ele>
        <time>2025-02-15T08:55:50Z</time>
      </trkpt>
      <trkpt lat="43.54933" lon="1.44162">
        <ele>169</ele>
        <time>2025-02-15T08:55:51Z</time>
      </trkpt>
      <trkpt lat="43.5493" lon="1.44159">
        <ele>168</ele>
        <time>2025-02-15T08:55:52Z</time>
      </trkpt>
      <trkpt lat="43.54929" lon="1.44157">
        <ele>168</ele>
        <time>2025-02-15T08:55:53Z</time>
      </trkpt>
      <trkpt lat="43.54928" lon="1.44154">
        <ele>168</ele>
        <time>2025-02-15T08:55:54Z</time>
      </trkpt>
      <trkpt lat="43.54928" lon="1.44154">
        <ele>167</ele>
        <time>2025-02-15T08:55:55Z</time>
      </trkpt>
      <trkpt lat="43.54926" lon="1.44144">
        <ele>167</ele>
        <time>2025-02-15T08:55:56Z</time>
      </trkpt>
      <trkpt lat="43.54925" lon="1.44142">
        <ele>166</ele>
        <time>2025-02-15T08:55:57Z</time>
      </trkpt>
      <trkpt lat="43.54925" lon="1.44136">
        <ele>166</ele>
        <time>2025-02-15T08:55:58Z</time>
      </trkpt>
      <trkpt lat="43.54925" lon="1.44134">
        <ele>165</ele>
        <time>2025-02-15T08:55:59Z</time>
      </trkpt>
      <trkpt lat="43.54925" lon="1.44128">
        <ele>165</ele>
        <time>2025-02-15T08:56:00Z</time>
      </trkpt>
      <trkpt lat="43.54925" lon="1.44126">
        <ele>164</ele>
        <time>2025-02-15T08:56:01Z</time>
      </trkpt>
      <trkpt lat="43.54926" lon="1.44119">
        <ele>164</ele>
        <time>2025-02-15T08:56:02Z</time>
      </trkpt>
      <trkpt lat="43.54926" lon="1.44117">
        <ele>163</ele>
        <time>2025-02-15T08:56:03Z</time>
      </trkpt>
      <trkpt lat="43.54926" lon="1.44112">
        <ele>163</ele>
        <time>2025-02-15T08:56:04Z</time>
      </trkpt>
      <trkpt lat="43.54925" lon="1.44108">
        <ele>163</ele>
        <time>2025-02-15T08:56:05Z</time>
      </trkpt>
      <trkpt lat="43.54926" lon="1.44102">
        <ele>163</ele>
        <time>2025-02-15T08:56:06Z</time>
      </trkpt>
      <trkpt lat="43.54926" lon="1.441">
        <ele>162</ele>
        <time>2025-02-15T08:56:07Z</time>
      </trkpt>
      <trkpt lat="43.54926" lon="1.44096">
        <ele>161</ele>
        <time>2025-02-15T08:56:08Z</time>
      </trkpt>
      <trkpt lat="43.54925" lon="1.44092">
        <ele>160</ele>
        <time>2025-02-15T08:56:09Z</time>
      </trkpt>
      <trkpt lat="43.54925" lon="1.44088">
        <ele>159</ele>
        <time>2025-02-15T08:56:10Z</time>
      </trkpt>
      <trkpt lat="43.54924" lon="1.44084">
        <ele>159</ele>
        <time>2025-02-15T08:56:11Z</time>
      </trkpt>
      <trkpt lat="43.54924" lon="1.44081">
        <ele>158</ele>
        <time>2025-02-15T08:56:12Z</time>
      </trkpt>
      <trkpt lat="43.54923" lon="1.44077">
        <ele>158</ele>
        <time>2025-02-15T08:56:13Z</time>
      </trkpt>
      <trkpt lat="43.54923" lon="1.44077">
        <ele>157</ele>
        <time>2025-02-15T08:56:14Z</time>
      </trkpt>
      <trkpt lat="43.54921" lon="1.44076">
        <ele>157</ele>
        <time>2025-02-15T08:56:15Z</time>
      </trkpt>
      <trkpt lat="43.54921" lon="1.44076">
        <ele>157</ele>
        <time>2025-02-15T08:56:16Z</time>
      </trkpt>
      <trkpt lat="43.54922" lon="1.4408">
        <ele>157</ele>
        <time>2025-02-15T08:56:17Z</time>
      </trkpt>
      <trkpt lat="43.54922" lon="1.4408">
        <ele>157</ele>
        <time>2025-02-15T08:56:18Z</time>
      </trkpt>
      <trkpt lat="43.54927" lon="1.44082">
        <ele>157</ele>
        <time>2025-02-15T08:56:19Z</time>
      </trkpt>
      <trkpt lat="43.54927" lon="1.44082">
        <ele>157</ele>
        <time>2025-02-15T08:56:20Z</time>
      </trkpt>
      <trkpt lat="43.54929" lon="1.44085">
        <ele>157</ele>
        <time>2025-02-15T08:56:21Z</time>
      </trkpt>
      <trkpt lat="43.54929" lon="1.44085">
        <ele>157</ele>
        <time>2025-02-15T08:56:22Z</time>
      </trkpt>
      <trkpt lat="43.54929" lon="1.44089">
        <ele>157</ele>
        <time>2025-02-15T08:56:23Z</time>
      </trkpt>
      <trkpt lat="43.54929" lon="1.44089">
        <ele>157</ele>
        <time>2025-02-15T08:56:24Z</time>
      </trkpt>
      <trkpt lat="43.54929" lon="1.44092">
        <ele>158</ele>
        <time>2025-02-15T08:56:25Z</time>
      </trkpt>
      <trkpt lat="43.54929" lon="1.44092">
        <ele>158</ele>
        <time>2025-02-15T08:56:26Z</time>
      </trkpt>
      <trkpt lat="43.5493" lon="1.44097">
        <ele>158</ele>
        <time>2025-02-15T08:56:27Z</time>
      </trkpt>
      <trkpt lat="43.5493" lon="1.44097">
        <ele>159</ele>
        <time>2025-02-15T08:56:28Z</time>
      </trkpt>
      <trkpt lat="43.54929" lon="1.44101">
        <ele>159</ele>
        <time>2025-02-15T08:56:29Z</time>
      </trkpt>
      <trkpt lat="43.54929" lon="1.44101">
        <ele>159</ele>
        <time>2025-02-15T08:56:30Z</time>
      </trkpt>
      <trkpt lat="43.54929" lon="1.44105">
        <ele>160</ele>
        <time>2025-02-15T08:56:31Z</time>
      </trkpt>
      <trkpt lat="43.54929" lon="1.44105">
        <ele>160</ele>
        <time>2025-02-15T08:56:32Z</time>
      </trkpt>
      <trkpt lat="43.54928" lon="1.44108">
        <ele>160</ele>
        <time>2025-02-15T08:56:33Z</time>
      </trkpt>
      <trkpt lat="43.54928" lon="1.44111">
        <ele>161</ele>
        <time>2025-02-15T08:56:35Z</time>
      </trkpt>
      <trkpt lat="43.54928" lon="1.44114">
        <ele>162</ele>
        <time>2025-02-15T08:56:37Z</time>
      </trkpt>
      <trkpt lat="43.54928" lon="1.44114">
        <ele>162</ele>
        <time>2025-02-15T08:56:38Z</time>
      </trkpt>
      <trkpt lat="43.54927" lon="1.44111">
        <ele>162</ele>
        <time>2025-02-15T08:56:39Z</time>
      </trkpt>
      <trkpt lat="43.54927" lon="1.44109">
        <ele>162</ele>
        <time>2025-02-15T08:56:40Z</time>
      </trkpt>
      <trkpt lat="43.54928" lon="1.44106">
        <ele>162</ele>
        <time>2025-02-15T08:56:41Z</time>
      </trkpt>
      <trkpt lat="43.54928" lon="1.44103">
        <ele>162</ele>
        <time>2025-02-15T08:56:42Z</time>
      </trkpt>
      <trkpt lat="43.54928" lon="1.44099">
        <ele>161</ele>
        <time>2025-02-15T08:56:43Z</time>
      </trkpt>
      <trkpt lat="43.54927" lon="1.44093">
        <ele>161</ele>
        <time>2025-02-15T08:56:44Z</time>
      </trkpt>
      <trkpt lat="43.54927" lon="1.44091">
        <ele>159</ele>
        <time>2025-02-15T08:56:45Z</time>
      </trkpt>
      <trkpt lat="43.54926" lon="1.44086">
        <ele>159</ele>
        <time>2025-02-15T08:56:46Z</time>
      </trkpt>
      <trkpt lat="43.54926" lon="1.44084">
        <ele>158</ele>
        <time>2025-02-15T08:56:47Z</time>
      </trkpt>
      <trkpt lat="43.54926" lon="1.44084">
        <ele>158</ele>
        <time>2025-02-15T08:56:48Z</time>
      </trkpt>
      <trkpt lat="43.54923" lon="1.44083">
        <ele>158</ele>
        <time>2025-02-15T08:56:49Z</time>
      </trkpt>
      <trkpt lat="43.54923" lon="1.44083">
        <ele>157</ele>
        <time>2025-02-15T08:56:50Z</time>
      </trkpt>
      <trkpt lat="43.54919" lon="1.44088">
        <ele>157</ele>
        <time>2025-02-15T08:56:51Z</time>
      </trkpt>
      <trkpt lat="43.54919" lon="1.4409">
        <ele>157</ele>
        <time>2025-02-15T08:56:52Z</time>
      </trkpt>
      <trkpt lat="43.54918" lon="1.44093">
        <ele>157</ele>
        <time>2025-02-15T08:56:53Z</time>
      </trkpt>
      <trkpt lat="43.54917" lon="1.44096">
        <ele>157</ele>
        <time>2025-02-15T08:56:54Z</time>
      </trkpt>
      <trkpt lat="43.54917" lon="1.441">
        <ele>157</ele>
        <time>2025-02-15T08:56:55Z</time>
      </trkpt>
      <trkpt lat="43.54916" lon="1.44107">
        <ele>157</ele>
        <time>2025-02-15T08:56:56Z</time>
      </trkpt>
      <trkpt lat="43.54916" lon="1.44108">
        <ele>158</ele>
        <time>2025-02-15T08:56:57Z</time>
      </trkpt>
      <trkpt lat="43.54915" lon="1.44112">
        <ele>158</ele>
        <time>2025-02-15T08:56:58Z</time>
      </trkpt>
      <trkpt lat="43.54915" lon="1.44116">
        <ele>158</ele>
        <time>2025-02-15T08:56:59Z</time>
      </trkpt>
      <trkpt lat="43.54915" lon="1.44119">
        <ele>159</ele>
        <time>2025-02-15T08:57:00Z</time>
      </trkpt>
      <trkpt lat="43.54915" lon="1.44122">
        <ele>159</ele>
        <time>2025-02-15T08:57:01Z</time>
      </trkpt>
      <trkpt lat="43.54915" lon="1.44125">
        <ele>159</ele>
        <time>2025-02-15T08:57:02Z</time>
      </trkpt>
      <trkpt lat="43.54915" lon="1.4413">
        <ele>159</ele>
        <time>2025-02-15T08:57:03Z</time>
      </trkpt>
      <trkpt lat="43.54915" lon="1.44132">
        <ele>159</ele>
        <time>2025-02-15T08:57:04Z</time>
      </trkpt>
      <trkpt lat="43.54916" lon="1.44137">
        <ele>159</ele>
        <time>2025-02-15T08:57:05Z</time>
      </trkpt>
      <trkpt lat="43.54916" lon="1.44139">
        <ele>160</ele>
        <time>2025-02-15T08:57:06Z</time>
      </trkpt>
      <trkpt lat="43.54918" lon="1.44144">
        <ele>160</ele>
        <time>2025-02-15T08:57:07Z</time>
      </trkpt>
      <trkpt lat="43.54918" lon="1.44145">
        <ele>160</ele>
        <time>2025-02-15T08:57:08Z</time>
      </trkpt>
      <trkpt lat="43.5492" lon="1.4415">
        <ele>160</ele>
        <time>2025-02-15T08:57:09Z</time>
      </trkpt>
      <trkpt lat="43.5492" lon="1.44151">
        <ele>160</ele>
        <time>2025-02-15T08:57:10Z</time>
      </trkpt>
      <trkpt lat="43.54921" lon="1.44154">
        <ele>160</ele>
        <time>2025-02-15T08:57:11Z</time>
      </trkpt>
      <trkpt lat="43.54922" lon="1.44157">
        <ele>160</ele>
        <time>2025-02-15T08:57:12Z</time>
      </trkpt>
      <trkpt lat="43.54923" lon="1.44159">
        <ele>160</ele>
        <time>2025-02-15T08:57:13Z</time>
      </trkpt>
      <trkpt lat="43.54925" lon="1.44163">
        <ele>160</ele>
        <time>2025-02-15T08:57:14Z</time>
      </trkpt>
      <trkpt lat="43.54925" lon="1.44163">
        <ele>161</ele>
        <time>2025-02-15T08:57:15Z</time>
      </trkpt>
      <trkpt lat="43.54927" lon="1.4417">
        <ele>161</ele>
        <time>2025-02-15T08:57:16Z</time>
      </trkpt>
      <trkpt lat="43.54927" lon="1.44172">
        <ele>161</ele>
        <time>2025-02-15T08:57:17Z</time>
      </trkpt>
      <trkpt lat="43.54929" lon="1.44176">
        <ele>161</ele>
        <time>2025-02-15T08:57:18Z</time>
      </trkpt>
      <trkpt lat="43.54929" lon="1.44177">
        <ele>162</ele>
        <time>2025-02-15T08:57:19Z</time>
      </trkpt>
      <trkpt lat="43.5493" lon="1.4418">
        <ele>162</ele>
        <time>2025-02-15T08:57:20Z</time>
      </trkpt>
      <trkpt lat="43.54931" lon="1.44184">
        <ele>162</ele>
        <time>2025-02-15T08:57:21Z</time>
      </trkpt>
      <trkpt lat="43.54931" lon="1.44187">
        <ele>162</ele>
        <time>2025-02-15T08:57:22Z</time>
      </trkpt>
      <trkpt lat="43.54931" lon="1.44187">
        <ele>163</ele>
        <time>2025-02-15T08:57:23Z</time>
      </trkpt>
      <trkpt lat="43.54932" lon="1.44193">
        <ele>163</ele>
        <time>2025-02-15T08:57:25Z</time>
      </trkpt>
      <trkpt lat="43.54933" lon="1.442">
        <ele>163</ele>
        <time>2025-02-15T08:57:26Z</time>
      </trkpt>
      <trkpt lat="43.54932" lon="1.44202">
        <ele>163</ele>
        <time>2025-02-15T08:57:27Z</time>
      </trkpt>
      <trkpt lat="43.54932" lon="1.44204">
        <ele>163</ele>
        <time>2025-02-15T08:57:28Z</time>
      </trkpt>
      <trkpt lat="43.54931" lon="1.44206">
        <ele>163</ele>
        <time>2025-02-15T08:57:30Z</time>
      </trkpt>
      <trkpt lat="43.54931" lon="1.44207">
        <ele>163</ele>
        <time>2025-02-15T08:57:31Z</time>
      </trkpt>
      <trkpt lat="43.5493" lon="1.44212">
        <ele>163</ele>
        <time>2025-02-15T08:57:32Z</time>
      </trkpt>
      <trkpt lat="43.5493" lon="1.44212">
        <ele>164</ele>
        <time>2025-02-15T08:57:33Z</time>
      </trkpt>
      <trkpt lat="43.5493" lon="1.44212">
        <ele>164</ele>
        <time>2025-02-15T08:57:34Z</time>
      </trkpt>
      <trkpt lat="43.54932" lon="1.44217">
        <ele>165</ele>
        <time>2025-02-15T08:57:35Z</time>
      </trkpt>
      <trkpt lat="43.54932" lon="1.44219">
        <ele>165</ele>
        <time>2025-02-15T08:57:36Z</time>
      </trkpt>
      <trkpt lat="43.54932" lon="1.44221">
        <ele>165</ele>
        <time>2025-02-15T08:57:37Z</time>
      </trkpt>
      <trkpt lat="43.54933" lon="1.44223">
        <ele>165</ele>
        <time>2025-02-15T08:57:38Z</time>
      </trkpt>
      <trkpt lat="43.54933" lon="1.44227">
        <ele>165</ele>
        <time>2025-02-15T08:57:39Z</time>
      </trkpt>
      <trkpt lat="43.54933" lon="1.44227">
        <ele>165</ele>
        <time>2025-02-15T08:57:40Z</time>
      </trkpt>
      <trkpt lat="43.54933" lon="1.44231">
        <ele>165</ele>
        <time>2025-02-15T08:57:41Z</time>
      </trkpt>
      <trkpt lat="43.54933" lon="1.44231">
        <ele>165</ele>
        <time>2025-02-15T08:57:42Z</time>
      </trkpt>
      <trkpt lat="43.54932" lon="1.44235">
        <ele>165</ele>
        <time>2025-02-15T08:57:43Z</time>
      </trkpt>
      <trkpt lat="43.54932" lon="1.44235">
        <ele>166</ele>
        <time>2025-02-15T08:57:44Z</time>
      </trkpt>
      <trkpt lat="43.54932" lon="1.44239">
        <ele>166</ele>
        <time>2025-02-15T08:57:45Z</time>
      </trkpt>
      <trkpt lat="43.54932" lon="1.44239">
        <ele>166</ele>
        <time>2025-02-15T08:57:46Z</time>
      </trkpt>
      <trkpt lat="43.54931" lon="1.44243">
        <ele>167</ele>
        <time>2025-02-15T08:57:47Z</time>
      </trkpt>
      <trkpt lat="43.54932" lon="1.44247">
        <ele>168</ele>
        <time>2025-02-15T08:57:49Z</time>
      </trkpt>
      <trkpt lat="43.54932" lon="1.44247">
        <ele>168</ele>
        <time>2025-02-15T08:57:50Z</time>
      </trkpt>
      <trkpt lat="43.54933" lon="1.44251">
        <ele>168</ele>
        <time>2025-02-15T08:57:51Z</time>
      </trkpt>
      <trkpt lat="43.54933" lon="1.44251">
        <ele>168</ele>
        <time>2025-02-15T08:57:52Z</time>
      </trkpt>
      <trkpt lat="43.54933" lon="1.44255">
        <ele>168</ele>
        <time>2025-02-15T08:57:53Z</time>
      </trkpt>
      <trkpt lat="43.54933" lon="1.44255">
        <ele>168</ele>
        <time>2025-02-15T08:57:54Z</time>
      </trkpt>
      <trkpt lat="43.54933" lon="1.44258">
        <ele>168</ele>
        <time>2025-02-15T08:57:55Z</time>
      </trkpt>
      <trkpt lat="43.54933" lon="1.44258">
        <ele>168</ele>
        <time>2025-02-15T08:57:56Z</time>
      </trkpt>
      <trkpt lat="43.54934" lon="1.44262">
        <ele>168</ele>
        <time>2025-02-15T08:57:57Z</time>
      </trkpt>
      <trkpt lat="43.54934" lon="1.44262">
        <ele>169</ele>
        <time>2025-02-15T08:57:58Z</time>
      </trkpt>
      <trkpt lat="43.54934" lon="1.44266">
        <ele>169</ele>
        <time>2025-02-15T08:57:59Z</time>
      </trkpt>
      <trkpt lat="43.54934" lon="1.44266">
        <ele>169</ele>
        <time>2025-02-15T08:58:00Z</time>
      </trkpt>
      <trkpt lat="43.54934" lon="1.44269">
        <ele>169</ele>
        <time>2025-02-15T08:58:01Z</time>
      </trkpt>
      <trkpt lat="43.54935" lon="1.44272">
        <ele>170</ele>
        <time>2025-02-15T08:58:03Z</time>
      </trkpt>
      <trkpt lat="43.54935" lon="1.44272">
        <ele>170</ele>
        <time>2025-02-15T08:58:04Z</time>
      </trkpt>
      <trkpt lat="43.54935" lon="1.44275">
        <ele>170</ele>
        <time>2025-02-15T08:58:05Z</time>
      </trkpt>
      <trkpt lat="43.54935" lon="1.44275">
        <ele>171</ele>
        <time>2025-02-15T08:58:06Z</time>
      </trkpt>
      <trkpt lat="43.54935" lon="1.44279">
        <ele>171</ele>
        <time>2025-02-15T08:58:07Z</time>
      </trkpt>
      <trkpt lat="43.54935" lon="1.44279">
        <ele>171</ele>
        <time>2025-02-15T08:58:08Z</time>
      </trkpt>
      <trkpt lat="43.54936" lon="1.44281">
        <ele>171</ele>
        <time>2025-02-15T08:58:09Z</time>
      </trkpt>
      <trkpt lat="43.54935" lon="1.44284">
        <ele>172</ele>
        <time>2025-02-15T08:58:11Z</time>
      </trkpt>
      <trkpt lat="43.54936" lon="1.44287">
        <ele>172</ele>
        <time>2025-02-15T08:58:13Z</time>
      </trkpt>
      <trkpt lat="43.54936" lon="1.44287">
        <ele>173</ele>
        <time>2025-02-15T08:58:14Z</time>
      </trkpt>
      <trkpt lat="43.54936" lon="1.44291">
        <ele>173</ele>
        <time>2025-02-15T08:58:15Z</time>
      </trkpt>
      <trkpt lat="43.54936" lon="1.44291">
        <ele>174</ele>
        <time>2025-02-15T08:58:16Z</time>
      </trkpt>
      <trkpt lat="43.54936" lon="1.44295">
        <ele>174</ele>
        <time>2025-02-15T08:58:17Z</time>
      </trkpt>
      <trkpt lat="43.54936" lon="1.44295">
        <ele>174</ele>
        <time>2025-02-15T08:58:18Z</time>
      </trkpt>
      <trkpt lat="43.54938" lon="1.44298">
        <ele>174</ele>
        <time>2025-02-15T08:58:19Z</time>
      </trkpt>
      <trkpt lat="43.54938" lon="1.44298">
        <ele>175</ele>
        <time>2025-02-15T08:58:20Z</time>
      </trkpt>
      <trkpt lat="43.54939" lon="1.443">
        <ele>175</ele>
        <time>2025-02-15T08:58:21Z</time>
      </trkpt>
      <trkpt lat="43.54939" lon="1.443">
        <ele>176</ele>
        <time>2025-02-15T08:58:22Z</time>
      </trkpt>
      <trkpt lat="43.54939" lon="1.44303">
        <ele>176</ele>
        <time>2025-02-15T08:58:23Z</time>
      </trkpt>
      <trkpt lat="43.54939" lon="1.44303">
        <ele>177</ele>
        <time>2025-02-15T08:58:24Z</time>
      </trkpt>
      <trkpt lat="43.5494" lon="1.44306">
        <ele>177</ele>
        <time>2025-02-15T08:58:25Z</time>
      </trkpt>
      <trkpt lat="43.5494" lon="1.44306">
        <ele>177</ele>
        <time>2025-02-15T08:58:27Z</time>
      </trkpt>
      <trkpt lat="43.54941" lon="1.44309">
        <ele>177</ele>
        <time>2025-02-15T08:58:28Z</time>
      </trkpt>
      <trkpt lat="43.54941" lon="1.44309">
        <ele>178</ele>
        <time>2025-02-15T08:58:29Z</time>
      </trkpt>
      <trkpt lat="43.54942" lon="1.44311">
        <ele>178</ele>
        <time>2025-02-15T08:58:30Z</time>
      </trkpt>
      <trkpt lat="43.54942" lon="1.44311">
        <ele>179</ele>
        <time>2025-02-15T08:58:31Z</time>
      </trkpt>
      <trkpt lat="43.54942" lon="1.44311">
        <ele>180</ele>
        <time>2025-02-15T08:58:32Z</time>
      </trkpt>
      <trkpt lat="43.54943" lon="1.44314">
        <ele>180</ele>
        <time>2025-02-15T08:58:33Z</time>
      </trkpt>
      <trkpt lat="43.54943" lon="1.44314">
        <ele>180</ele>
        <time>2025-02-15T08:58:34Z</time>
      </trkpt>
      <trkpt lat="43.54943" lon="1.44314">
        <ele>180</ele>
        <time>2025-02-15T08:58:35Z</time>
      </trkpt>
      <trkpt lat="43.54944" lon="1.44318">
        <ele>180</ele>
        <time>2025-02-15T08:58:36Z</time>
      </trkpt>
      <trkpt lat="43.54944" lon="1.44318">
        <ele>180</ele>
        <time>2025-02-15T08:58:37Z</time>
      </trkpt>
      <trkpt lat="43.54944" lon="1.44321">
        <ele>182</ele>
        <time>2025-02-15T08:58:39Z</time>
      </trkpt>
      <trkpt lat="43.54944" lon="1.44321">
        <ele>182</ele>
        <time>2025-02-15T08:58:41Z</time>
      </trkpt>
      <trkpt lat="43.54943" lon="1.44324">
        <ele>183</ele>
        <time>2025-02-15T08:58:42Z</time>
      </trkpt>
      <trkpt lat="43.54943" lon="1.44324">
        <ele>183</ele>
        <time>2025-02-15T08:58:43Z</time>
      </trkpt>
      <trkpt lat="43.54943" lon="1.44324">
        <ele>183</ele>
        <time>2025-02-15T08:58:44Z</time>
      </trkpt>
      <trkpt lat="43.54941" lon="1.44326">
        <ele>183</ele>
        <time>2025-02-15T08:58:45Z</time>
      </trkpt>
      <trkpt lat="43.54941" lon="1.44326">
        <ele>184</ele>
        <time>2025-02-15T08:58:46Z</time>
      </trkpt>
      <trkpt lat="43.54939" lon="1.44326">
        <ele>185</ele>
        <time>2025-02-15T08:58:48Z</time>
      </trkpt>
      <trkpt lat="43.54939" lon="1.44326">
        <ele>185</ele>
        <time>2025-02-15T08:58:49Z</time>
      </trkpt>
      <trkpt lat="43.54937" lon="1.44326">
        <ele>186</ele>
        <time>2025-02-15T08:58:50Z</time>
      </trkpt>
      <trkpt lat="43.54935" lon="1.44326">
        <ele>186</ele>
        <time>2025-02-15T08:58:51Z</time>
      </trkpt>
      <trkpt lat="43.54934" lon="1.44326">
        <ele>186</ele>
        <time>2025-02-15T08:58:53Z</time>
      </trkpt>
      <trkpt lat="43.54933" lon="1.44326">
        <ele>186</ele>
        <time>2025-02-15T08:58:54Z</time>
      </trkpt>
      <trkpt lat="43.54932" lon="1.44326">
        <ele>186</ele>
        <time>2025-02-15T08:58:55Z</time>
      </trkpt>
      <trkpt lat="43.54931" lon="1.44326">
        <ele>186</ele>
        <time>2025-02-15T08:58:56Z</time>
      </trkpt>
      <trkpt lat="43.5493" lon="1.44326">
        <ele>186</ele>
        <time>2025-02-15T08:58:58Z</time>
      </trkpt>
      <trkpt lat="43.54928" lon="1.44326">
        <ele>187</ele>
        <time>2025-02-15T08:58:59Z</time>
      </trkpt>
      <trkpt lat="43.54928" lon="1.44328">
        <ele>188</ele>
        <time>2025-02-15T08:59:01Z</time>
      </trkpt>
      <trkpt lat="43.54928" lon="1.44328">
        <ele>188</ele>
        <time>2025-02-15T08:59:02Z</time>
      </trkpt>
      <trkpt lat="43.54928" lon="1.44328">
        <ele>189</ele>
        <time>2025-02-15T08:59:03Z</time>
      </trkpt>
      <trkpt lat="43.54928" lon="1.44328">
        <ele>189</ele>
        <time>2025-02-15T08:59:04Z</time>
      </trkpt>
      <trkpt lat="43.54928" lon="1.44331">
        <ele>189</ele>
        <time>2025-02-15T08:59:05Z</time>
      </trkpt>
      <trkpt lat="43.54928" lon="1.44331">
        <ele>189</ele>
        <time>2025-02-15T08:59:06Z</time>
      </trkpt>
      <trkpt lat="43.54928" lon="1.44331">
        <ele>190</ele>
        <time>2025-02-15T08:59:08Z</time>
      </trkpt>
      <trkpt lat="43.54928" lon="1.44331">
        <ele>191</ele>
        <time>2025-02-15T08:59:09Z</time>
      </trkpt>
      <trkpt lat="43.5493" lon="1.44333">
        <ele>191</ele>
        <time>2025-02-15T08:59:10Z</time>
      </trkpt>
      <trkpt lat="43.5493" lon="1.44333">
        <ele>191</ele>
        <time>2025-02-15T08:59:11Z</time>
      </trkpt>
      <trkpt lat="43.54932" lon="1.44335">
        <ele>191</ele>
        <time>2025-02-15T08:59:12Z</time>
      </trkpt>
      <trkpt lat="43.54932" lon="1.44335">
        <ele>191</ele>
        <time>2025-02-15T08:59:13Z</time>
      </trkpt>
      <trkpt lat="43.54934" lon="1.44336">
        <ele>191</ele>
        <time>2025-02-15T08:59:14Z</time>
      </trkpt>
      <trkpt lat="43.54934" lon="1.44336">
        <ele>191</ele>
        <time>2025-02-15T08:59:15Z</time>
      </trkpt>
      <trkpt lat="43.54934" lon="1.44336">
        <ele>191</ele>
        <time>2025-02-15T08:59:16Z</time>
      </trkpt>
      <trkpt lat="43.54935" lon="1.44339">
        <ele>191</ele>
        <time>2025-02-15T08:59:17Z</time>
      </trkpt>
      <trkpt lat="43.54935" lon="1.44339">
        <ele>191</ele>
        <time>2025-02-15T08:59:18Z</time>
      </trkpt>
      <trkpt lat="43.54935" lon="1.44342">
        <ele>191</ele>
        <time>2025-02-15T08:59:19Z</time>
      </trkpt>
      <trkpt lat="43.54935" lon="1.44342">
        <ele>193</ele>
        <time>2025-02-15T08:59:20Z</time>
      </trkpt>
      <trkpt lat="43.54936" lon="1.44344">
        <ele>193</ele>
        <time>2025-02-15T08:59:21Z</time>
      </trkpt>
      <trkpt lat="43.54936" lon="1.44344">
        <ele>193</ele>
        <time>2025-02-15T08:59:22Z</time>
      </trkpt>
      <trkpt lat="43.54937" lon="1.44347">
        <ele>193</ele>
        <time>2025-02-15T08:59:23Z</time>
      </trkpt>
      <trkpt lat="43.54938" lon="1.44349">
        <ele>193</ele>
        <time>2025-02-15T08:59:25Z</time>
      </trkpt>
      <trkpt lat="43.54939" lon="1.44351">
        <ele>194</ele>
        <time>2025-02-15T08:59:27Z</time>
      </trkpt>
      <trkpt lat="43.54939" lon="1.44351">
        <ele>195</ele>
        <time>2025-02-15T08:59:28Z</time>
      </trkpt>
      <trkpt lat="43.54939" lon="1.44354">
        <ele>195</ele>
        <time>2025-02-15T08:59:29Z</time>
      </trkpt>
      <trkpt lat="43.54939" lon="1.44354">
        <ele>195</ele>
        <time>2025-02-15T08:59:30Z</time>
      </trkpt>
      <trkpt lat="43.5494" lon="1.44357">
        <ele>195</ele>
        <time>2025-02-15T08:59:31Z</time>
      </trkpt>
      <trkpt lat="43.5494" lon="1.44357">
        <ele>195</ele>
        <time>2025-02-15T08:59:32Z</time>
      </trkpt>
      <trkpt lat="43.54943" lon="1.44358">
        <ele>195</ele>
        <time>2025-02-15T08:59:33Z</time>
      </trkpt>
      <trkpt lat="43.54943" lon="1.44358">
        <ele>195</ele>
        <time>2025-02-15T08:59:34Z</time>
      </trkpt>
      <trkpt lat="43.54944" lon="1.44361">
        <ele>195</ele>
        <time>2025-02-15T08:59:36Z</time>
      </trkpt>
      <trkpt lat="43.54944" lon="1.44361">
        <ele>195</ele>
        <time>2025-02-15T08:59:37Z</time>
      </trkpt>
      <trkpt lat="43.54945" lon="1.44364">
        <ele>195</ele>
        <time>2025-02-15T08:59:38Z</time>
      </trkpt>
      <trkpt lat="43.54945" lon="1.44364">
        <ele>195</ele>
        <time>2025-02-15T08:59:39Z</time>
      </trkpt>
      <trkpt lat="43.54945" lon="1.44367">
        <ele>196</ele>
        <time>2025-02-15T08:59:40Z</time>
      </trkpt>
      <trkpt lat="43.54945" lon="1.44367">
        <ele>196</ele>
        <time>2025-02-15T08:59:41Z</time>
      </trkpt>
      <trkpt lat="43.54946" lon="1.4437">
        <ele>196</ele>
        <time>2025-02-15T08:59:42Z</time>
      </trkpt>
      <trkpt lat="43.54946" lon="1.4437">
        <ele>196</ele>
        <time>2025-02-15T08:59:43Z</time>
      </trkpt>
      <trkpt lat="43.54946" lon="1.44373">
        <ele>196</ele>
        <time>2025-02-15T08:59:44Z</time>
      </trkpt>
      <trkpt lat="43.54946" lon="1.44373">
        <ele>198</ele>
        <time>2025-02-15T08:59:45Z</time>
      </trkpt>
      <trkpt lat="43.54947" lon="1.44376">
        <ele>198</ele>
        <time>2025-02-15T08:59:46Z</time>
      </trkpt>
      <trkpt lat="43.54947" lon="1.44376">
        <ele>198</ele>
        <time>2025-02-15T08:59:47Z</time>
      </trkpt>
      <trkpt lat="43.54947" lon="1.44379">
        <ele>198</ele>
        <time>2025-02-15T08:59:48Z</time>
      </trkpt>
      <trkpt lat="43.54947" lon="1.44379">
        <ele>199</ele>
        <time>2025-02-15T08:59:49Z</time>
      </trkpt>
      <trkpt lat="43.54947" lon="1.44382">
        <ele>199</ele>
        <time>2025-02-15T08:59:50Z</time>
      </trkpt>
      <trkpt lat="43.54947" lon="1.44382">
        <ele>199</ele>
        <time>2025-02-15T08:59:51Z</time>
      </trkpt>
      <trkpt lat="43.54948" lon="1.44385">
        <ele>199</ele>
        <time>2025-02-15T08:59:52Z</time>
      </trkpt>
      <trkpt lat="43.54948" lon="1.44385">
        <ele>199</ele>
        <time>2025-02-15T08:59:53Z</time>
      </trkpt>
      <trkpt lat="43.54948" lon="1.44389">
        <ele>199</ele>
        <time>2025-02-15T08:59:54Z</time>
      </trkpt>
      <trkpt lat="43.54948" lon="1.44389">
        <ele>199</ele>
        <time>2025-02-15T08:59:55Z</time>
      </trkpt>
      <trkpt lat="43.54946" lon="1.44393">
        <ele>200</ele>
        <time>2025-02-15T08:59:56Z</time>
      </trkpt>
      <trkpt lat="43.54945" lon="1.44395">
        <ele>200</ele>
        <time>2025-02-15T08:59:57Z</time>
      </trkpt>
      <trkpt lat="43.54945" lon="1.44395">
        <ele>200</ele>
        <time>2025-02-15T08:59:58Z</time>
      </trkpt>
      <trkpt lat="43.54943" lon="1.44398">
        <ele>200</ele>
        <time>2025-02-15T08:59:59Z</time>
      </trkpt>
      <trkpt lat="43.54943" lon="1.44398">
        <ele>200</ele>
        <time>2025-02-15T09:00:00Z</time>
      </trkpt>
      <trkpt lat="43.5494" lon="1.44401">
        <ele>200</ele>
        <time>2025-02-15T09:00:01Z</time>
      </trkpt>
      <trkpt lat="43.5494" lon="1.44401">
        <ele>200</ele>
        <time>2025-02-15T09:00:02Z</time>
      </trkpt>
      <trkpt lat="43.54937" lon="1.44402">
        <ele>201</ele>
        <time>2025-02-15T09:00:03Z</time>
      </trkpt>
      <trkpt lat="43.54937" lon="1.44402">
        <ele>201</ele>
        <time>2025-02-15T09:00:04Z</time>
      </trkpt>
      <trkpt lat="43.54936" lon="1.44405">
        <ele>201</ele>
        <time>2025-02-15T09:00:05Z</time>
      </trkpt>
      <trkpt lat="43.54935" lon="1.44407">
        <ele>201</ele>
        <time>2025-02-15T09:00:07Z</time>
      </trkpt>
      <trkpt lat="43.54935" lon="1.44407">
        <ele>201</ele>
        <time>2025-02-15T09:00:08Z</time>
      </trkpt>
      <trkpt lat="43.54935" lon="1.44407">
        <ele>201</ele>
        <time>2025-02-15T09:00:10Z</time>
      </trkpt>
      <trkpt lat="43.54935" lon="1.44407">
        <ele>201</ele>
        <time>2025-02-15T09:00:11Z</time>
      </trkpt>
      <trkpt lat="43.54934" lon="1.4441">
        <ele>201</ele>
        <time>2025-02-15T09:00:12Z</time>
      </trkpt>
      <trkpt lat="43.54934" lon="1.4441">
        <ele>201</ele>
        <time>2025-02-15T09:00:13Z</time>
      </trkpt>
      <trkpt lat="43.54932" lon="1.44414">
        <ele>202</ele>
        <time>2025-02-15T09:00:14Z</time>
      </trkpt>
      <trkpt lat="43.54931" lon="1.44417">
        <ele>202</ele>
        <time>2025-02-15T09:00:16Z</time>
      </trkpt>
      <trkpt lat="43.5493" lon="1.4442">
        <ele>203</ele>
        <time>2025-02-15T09:00:18Z</time>
      </trkpt>
      <trkpt lat="43.5493" lon="1.4442">
        <ele>203</ele>
        <time>2025-02-15T09:00:19Z</time>
      </trkpt>
      <trkpt lat="43.54928" lon="1.44421">
        <ele>203</ele>
        <time>2025-02-15T09:00:20Z</time>
      </trkpt>
      <trkpt lat="43.54928" lon="1.44421">
        <ele>203</ele>
        <time>2025-02-15T09:00:21Z</time>
      </trkpt>
      <trkpt lat="43.54925" lon="1.44422">
        <ele>203</ele>
        <time>2025-02-15T09:00:22Z</time>
      </trkpt>
      <trkpt lat="43.54925" lon="1.44422">
        <ele>204</ele>
        <time>2025-02-15T09:00:23Z</time>
      </trkpt>
      <trkpt lat="43.54923" lon="1.44423">
        <ele>204</ele>
        <time>2025-02-15T09:00:24Z</time>
      </trkpt>
      <trkpt lat="43.54923" lon="1.44423">
        <ele>205</ele>
        <time>2025-02-15T09:00:25Z</time>
      </trkpt>
      <trkpt lat="43.54921" lon="1.44424">
        <ele>205</ele>
        <time>2025-02-15T09:00:26Z</time>
      </trkpt>
      <trkpt lat="43.54921" lon="1.44424">
        <ele>205</ele>
        <time>2025-02-15T09:00:27Z</time>
      </trkpt>
      <trkpt lat="43.54919" lon="1.44425">
        <ele>205</ele>
        <time>2025-02-15T09:00:28Z</time>
      </trkpt>
      <trkpt lat="43.54919" lon="1.44425">
        <ele>205</ele>
        <time>2025-02-15T09:00:29Z</time>
      </trkpt>
      <trkpt lat="43.54916" lon="1.44424">
        <ele>205</ele>
        <time>2025-02-15T09:00:30Z</time>
      </trkpt>
      <trkpt lat="43.54916" lon="1.44424">
        <ele>205</ele>
        <time>2025-02-15T09:00:31Z</time>
      </trkpt>
      <trkpt lat="43.54914" lon="1.44423">
        <ele>205</ele>
        <time>2025-02-15T09:00:32Z</time>
      </trkpt>
      <trkpt lat="43.54914" lon="1.44423">
        <ele>206</ele>
        <time>2025-02-15T09:00:33Z</time>
      </trkpt>
      <trkpt lat="43.54911" lon="1.44424">
        <ele>206</ele>
        <time>2025-02-15T09:00:34Z</time>
      </trkpt>
      <trkpt lat="43.54911" lon="1.44424">
        <ele>206</ele>
        <time>2025-02-15T09:00:35Z</time>
      </trkpt>
      <trkpt lat="43.54908" lon="1.44424">
        <ele>206</ele>
        <time>2025-02-15T09:00:36Z</time>
      </trkpt>
      <trkpt lat="43.54908" lon="1.44424">
        <ele>206</ele>
        <time>2025-02-15T09:00:37Z</time>
      </trkpt>
      <trkpt lat="43.54908" lon="1.44424">
        <ele>206</ele>
        <time>2025-02-15T09:00:38Z</time>
      </trkpt>
      <trkpt lat="43.54906" lon="1.44425">
        <ele>206</ele>
        <time>2025-02-15T09:00:39Z</time>
      </trkpt>
      <trkpt lat="43.54906" lon="1.44425">
        <ele>206</ele>
        <time>2025-02-15T09:00:40Z</time>
      </trkpt>
      <trkpt lat="43.54904" lon="1.44425">
        <ele>207</ele>
        <time>2025-02-15T09:00:42Z</time>
      </trkpt>
      <trkpt lat="43.54904" lon="1.44425">
        <ele>207</ele>
        <time>2025-02-15T09:00:43Z</time>
      </trkpt>
      <trkpt lat="43.54904" lon="1.44425">
        <ele>207</ele>
        <time>2025-02-15T09:00:44Z</time>
      </trkpt>
      <trkpt lat="43.54902" lon="1.44428">
        <ele>207</ele>
        <time>2025-02-15T09:00:45Z</time>
      </trkpt>
      <trkpt lat="43.54901" lon="1.4443">
        <ele>207</ele>
        <time>2025-02-15T09:00:47Z</time>
      </trkpt>
      <trkpt lat="43.54901" lon="1.4443">
        <ele>207</ele>
        <time>2025-02-15T09:00:48Z</time>
      </trkpt>
      <trkpt lat="43.54899" lon="1.44432">
        <ele>207</ele>
        <time>2025-02-15T09:00:49Z</time>
      </trkpt>
      <trkpt lat="43.54899" lon="1.44432">
        <ele>208</ele>
        <time>2025-02-15T09:00:50Z</time>
      </trkpt>
      <trkpt lat="43.54897" lon="1.44434">
        <ele>208</ele>
        <time>2025-02-15T09:00:51Z</time>
      </trkpt>
      <trkpt lat="43.54897" lon="1.44434">
        <ele>209</ele>
        <time>2025-02-15T09:00:52Z</time>
      </trkpt>
      <trkpt lat="43.54896" lon="1.44435">
        <ele>209</ele>
        <time>2025-02-15T09:00:53Z</time>
      </trkpt>
      <trkpt lat="43.54896" lon="1.44435">
        <ele>209</ele>
        <time>2025-02-15T09:00:54Z</time>
      </trkpt>
      <trkpt lat="43.54894" lon="1.44436">
        <ele>209</ele>
        <time>2025-02-15T09:00:55Z</time>
      </trkpt>
      <trkpt lat="43.54894" lon="1.44436">
        <ele>209</ele>
        <time>2025-02-15T09:00:56Z</time>
      </trkpt>
      <trkpt lat="43.54891" lon="1.44438">
        <ele>209</ele>
        <time>2025-02-15T09:00:57Z</time>
      </trkpt>
      <trkpt lat="43.54889" lon="1.4444">
        <ele>210</ele>
        <time>2025-02-15T09:00:59Z</time>
      </trkpt>
      <trkpt lat="43.54887" lon="1.44442">
        <ele>210</ele>
        <time>2025-02-15T09:01:01Z</time>
      </trkpt>
      <trkpt lat="43.54887" lon="1.44442">
        <ele>210</ele>
        <time>2025-02-15T09:01:02Z</time>
      </trkpt>
      <trkpt lat="43.54886" lon="1.44445">
        <ele>210</ele>
        <time>2025-02-15T09:01:03Z</time>
      </trkpt>
      <trkpt lat="43.54886" lon="1.44445">
        <ele>210</ele>
        <time>2025-02-15T09:01:04Z</time>
      </trkpt>
      <trkpt lat="43.54884" lon="1.44447">
        <ele>210</ele>
        <time>2025-02-15T09:01:05Z</time>
      </trkpt>
      <trkpt lat="43.54884" lon="1.44447">
        <ele>211</ele>
        <time>2025-02-15T09:01:06Z</time>
      </trkpt>
      <trkpt lat="43.54883" lon="1.44449">
        <ele>211</ele>
        <time>2025-02-15T09:01:07Z</time>
      </trkpt>
      <trkpt lat="43.54883" lon="1.44449">
        <ele>211</ele>
        <time>2025-02-15T09:01:08Z</time>
      </trkpt>
      <trkpt lat="43.54881" lon="1.44452">
        <ele>211</ele>
        <time>2025-02-15T09:01:09Z</time>
      </trkpt>
      <trkpt lat="43.54881" lon="1.44452">
        <ele>212</ele>
        <time>2025-02-15T09:01:10Z</time>
      </trkpt>
      <trkpt lat="43.54879" lon="1.44455">
        <ele>212</ele>
        <time>2025-02-15T09:01:11Z</time>
      </trkpt>
      <trkpt lat="43.54876" lon="1.44458">
        <ele>212</ele>
        <time>2025-02-15T09:01:13Z</time>
      </trkpt>
      <trkpt lat="43.54875" lon="1.44459">
        <ele>212</ele>
        <time>2025-02-15T09:01:14Z</time>
      </trkpt>
      <trkpt lat="43.54873" lon="1.44461">
        <ele>213</ele>
        <time>2025-02-15T09:01:16Z</time>
      </trkpt>
      <trkpt lat="43.54873" lon="1.44461">
        <ele>213</ele>
        <time>2025-02-15T09:01:17Z</time>
      </trkpt>
      <trkpt lat="43.54871" lon="1.44464">
        <ele>213</ele>
        <time>2025-02-15T09:01:18Z</time>
      </trkpt>
      <trkpt lat="43.54871" lon="1.44464">
        <ele>213</ele>
        <time>2025-02-15T09:01:19Z</time>
      </trkpt>
      <trkpt lat="43.54869" lon="1.44465">
        <ele>213</ele>
        <time>2025-02-15T09:01:20Z</time>
      </trkpt>
      <trkpt lat="43.54869" lon="1.44465">
        <ele>213</ele>
        <time>2025-02-15T09:01:21Z</time>
      </trkpt>
      <trkpt lat="43.54867" lon="1.44467">
        <ele>213</ele>
        <time>2025-02-15T09:01:22Z</time>
      </trkpt>
      <trkpt lat="43.54867" lon="1.44467">
        <ele>213</ele>
        <time>2025-02-15T09:01:23Z</time>
      </trkpt>
      <trkpt lat="43.54865" lon="1.44469">
        <ele>213</ele>
        <time>2025-02-15T09:01:24Z</time>
      </trkpt>
      <trkpt lat="43.54864" lon="1.44472">
        <ele>213</ele>
        <time>2025-02-15T09:01:26Z</time>
      </trkpt>
      <trkpt lat="43.54864" lon="1.44472">
        <ele>213</ele>
        <time>2025-02-15T09:01:27Z</time>
      </trkpt>
      <trkpt lat="43.54863" lon="1.44475">
        <ele>214</ele>
        <time>2025-02-15T09:01:28Z</time>
      </trkpt>
      <trkpt lat="43.54863" lon="1.44475">
        <ele>214</ele>
        <time>2025-02-15T09:01:29Z</time>
      </trkpt>
      <trkpt lat="43.54862" lon="1.44477">
        <ele>214</ele>
        <time>2025-02-15T09:01:30Z</time>
      </trkpt>
      <trkpt lat="43.54863" lon="1.4448">
        <ele>214</ele>
        <time>2025-02-15T09:01:32Z</time>
      </trkpt>
      <trkpt lat="43.54862" lon="1.44485">
        <ele>215</ele>
        <time>2025-02-15T09:01:34Z</time>
      </trkpt>
      <trkpt lat="43.54862" lon="1.44485">
        <ele>215</ele>
        <time>2025-02-15T09:01:35Z</time>
      </trkpt>
      <trkpt lat="43.54861" lon="1.44487">
        <ele>215</ele>
        <time>2025-02-15T09:01:36Z</time>
      </trkpt>
      <trkpt lat="43.54861" lon="1.44487">
        <ele>215</ele>
        <time>2025-02-15T09:01:37Z</time>
      </trkpt>
      <trkpt lat="43.5486" lon="1.44492">
        <ele>215</ele>
        <time>2025-02-15T09:01:38Z</time>
      </trkpt>
      <trkpt lat="43.5486" lon="1.44492">
        <ele>216</ele>
        <time>2025-02-15T09:01:39Z</time>
      </trkpt>
      <trkpt lat="43.54859" lon="1.44495">
        <ele>216</ele>
        <time>2025-02-15T09:01:40Z</time>
      </trkpt>
      <trkpt lat="43.54859" lon="1.44495">
        <ele>216</ele>
        <time>2025-02-15T09:01:41Z</time>
      </trkpt>
      <trkpt lat="43.54859" lon="1.44499">
        <ele>216</ele>
        <time>2025-02-15T09:01:42Z</time>
      </trkpt>
      <trkpt lat="43.54859" lon="1.44499">
        <ele>216</ele>
        <time>2025-02-15T09:01:43Z</time>
      </trkpt>
      <trkpt lat="43.54858" lon="1.44502">
        <ele>216</ele>
        <time>2025-02-15T09:01:44Z</time>
      </trkpt>
      <trkpt lat="43.54858" lon="1.44502">
        <ele>216</ele>
        <time>2025-02-15T09:01:45Z</time>
      </trkpt>
      <trkpt lat="43.54857" lon="1.44505">
        <ele>216</ele>
        <time>2025-02-15T09:01:46Z</time>
      </trkpt>
      <trkpt lat="43.54857" lon="1.44508">
        <ele>217</ele>
        <time>2025-02-15T09:01:47Z</time>
      </trkpt>
      <trkpt lat="43.54856" lon="1.4451">
        <ele>217</ele>
        <time>2025-02-15T09:01:48Z</time>
      </trkpt>
      <trkpt lat="43.54855" lon="1.44512">
        <ele>217</ele>
        <time>2025-02-15T09:01:49Z</time>
      </trkpt>
      <trkpt lat="43.54854" lon="1.44516">
        <ele>217</ele>
        <time>2025-02-15T09:01:50Z</time>
      </trkpt>
      <trkpt lat="43.54853" lon="1.44518">
        <ele>217</ele>
        <time>2025-02-15T09:01:51Z</time>
      </trkpt>
      <trkpt lat="43.54852" lon="1.4452">
        <ele>217</ele>
        <time>2025-02-15T09:01:52Z</time>
      </trkpt>
      <trkpt lat="43.54851" lon="1.44525">
        <ele>217</ele>
        <time>2025-02-15T09:01:53Z</time>
      </trkpt>
      <trkpt lat="43.5485" lon="1.44526">
        <ele>217</ele>
        <time>2025-02-15T09:01:54Z</time>
      </trkpt>
      <trkpt lat="43.5485" lon="1.44528">
        <ele>217</ele>
        <time>2025-02-15T09:01:55Z</time>
      </trkpt>
      <trkpt lat="43.54849" lon="1.44531">
        <ele>218</ele>
        <time>2025-02-15T09:01:56Z</time>
      </trkpt>
      <trkpt lat="43.54849" lon="1.44533">
        <ele>218</ele>
        <time>2025-02-15T09:01:57Z</time>
      </trkpt>
      <trkpt lat="43.54848" lon="1.44536">
        <ele>219</ele>
        <time>2025-02-15T09:01:58Z</time>
      </trkpt>
      <trkpt lat="43.54848" lon="1.44539">
        <ele>219</ele>
        <time>2025-02-15T09:01:59Z</time>
      </trkpt>
      <trkpt lat="43.54846" lon="1.44543">
        <ele>219</ele>
        <time>2025-02-15T09:02:00Z</time>
      </trkpt>
      <trkpt lat="43.54846" lon="1.44544">
        <ele>219</ele>
        <time>2025-02-15T09:02:01Z</time>
      </trkpt>
      <trkpt lat="43.54845" lon="1.4455">
        <ele>219</ele>
        <time>2025-02-15T09:02:03Z</time>
      </trkpt>
      <trkpt lat="43.54845" lon="1.44552">
        <ele>219</ele>
        <time>2025-02-15T09:02:04Z</time>
      </trkpt>
      <trkpt lat="43.54844" lon="1.44554">
        <ele>219</ele>
        <time>2025-02-15T09:02:05Z</time>
      </trkpt>
      <trkpt lat="43.54844" lon="1.44557">
        <ele>219</ele>
        <time>2025-02-15T09:02:06Z</time>
      </trkpt>
      <trkpt lat="43.54843" lon="1.44561">
        <ele>219</ele>
        <time>2025-02-15T09:02:07Z</time>
      </trkpt>
      <trkpt lat="43.54842" lon="1.44562">
        <ele>219</ele>
        <time>2025-02-15T09:02:08Z</time>
      </trkpt>
      <trkpt lat="43.54842" lon="1.44565">
        <ele>219</ele>
        <time>2025-02-15T09:02:09Z</time>
      </trkpt>
      <trkpt lat="43.54841" lon="1.44568">
        <ele>219</ele>
        <time>2025-02-15T09:02:10Z</time>
      </trkpt>
      <trkpt lat="43.5484" lon="1.4457">
        <ele>219</ele>
        <time>2025-02-15T09:02:11Z</time>
      </trkpt>
      <trkpt lat="43.54839" lon="1.44573">
        <ele>220</ele>
        <time>2025-02-15T09:02:12Z</time>
      </trkpt>
      <trkpt lat="43.54838" lon="1.44576">
        <ele>220</ele>
        <time>2025-02-15T09:02:13Z</time>
      </trkpt>
      <trkpt lat="43.54838" lon="1.4458">
        <ele>220</ele>
        <time>2025-02-15T09:02:14Z</time>
      </trkpt>
      <trkpt lat="43.54838" lon="1.44582">
        <ele>221</ele>
        <time>2025-02-15T09:02:15Z</time>
      </trkpt>
      <trkpt lat="43.54839" lon="1.44585">
        <ele>221</ele>
        <time>2025-02-15T09:02:16Z</time>
      </trkpt>
      <trkpt lat="43.54841" lon="1.44588">
        <ele>221</ele>
        <time>2025-02-15T09:02:17Z</time>
      </trkpt>
      <trkpt lat="43.54842" lon="1.44591">
        <ele>221</ele>
        <time>2025-02-15T09:02:18Z</time>
      </trkpt>
      <trkpt lat="43.54844" lon="1.44596">
        <ele>221</ele>
        <time>2025-02-15T09:02:19Z</time>
      </trkpt>
      <trkpt lat="43.54844" lon="1.44598">
        <ele>221</ele>
        <time>2025-02-15T09:02:20Z</time>
      </trkpt>
      <trkpt lat="43.54843" lon="1.44602">
        <ele>221</ele>
        <time>2025-02-15T09:02:21Z</time>
      </trkpt>
      <trkpt lat="43.54843" lon="1.44605">
        <ele>220</ele>
        <time>2025-02-15T09:02:22Z</time>
      </trkpt>
      <trkpt lat="43.54843" lon="1.44609">
        <ele>219</ele>
        <time>2025-02-15T09:02:23Z</time>
      </trkpt>
      <trkpt lat="43.54842" lon="1.44612">
        <ele>219</ele>
        <time>2025-02-15T09:02:24Z</time>
      </trkpt>
      <trkpt lat="43.54841" lon="1.44615">
        <ele>219</ele>
        <time>2025-02-15T09:02:25Z</time>
      </trkpt>
      <trkpt lat="43.54841" lon="1.44617">
        <ele>219</ele>
        <time>2025-02-15T09:02:26Z</time>
      </trkpt>
      <trkpt lat="43.5484" lon="1.4462">
        <ele>220</ele>
        <time>2025-02-15T09:02:27Z</time>
      </trkpt>
      <trkpt lat="43.54838" lon="1.44624">
        <ele>220</ele>
        <time>2025-02-15T09:02:28Z</time>
      </trkpt>
      <trkpt lat="43.54837" lon="1.44625">
        <ele>221</ele>
        <time>2025-02-15T09:02:29Z</time>
      </trkpt>
      <trkpt lat="43.54836" lon="1.44628">
        <ele>221</ele>
        <time>2025-02-15T09:02:30Z</time>
      </trkpt>
      <trkpt lat="43.54835" lon="1.4463">
        <ele>221</ele>
        <time>2025-02-15T09:02:31Z</time>
      </trkpt>
      <trkpt lat="43.54834" lon="1.44633">
        <ele>221</ele>
        <time>2025-02-15T09:02:32Z</time>
      </trkpt>
      <trkpt lat="43.54833" lon="1.44636">
        <ele>221</ele>
        <time>2025-02-15T09:02:33Z</time>
      </trkpt>
      <trkpt lat="43.54832" lon="1.44638">
        <ele>221</ele>
        <time>2025-02-15T09:02:34Z</time>
      </trkpt>
      <trkpt lat="43.54831" lon="1.44641">
        <ele>221</ele>
        <time>2025-02-15T09:02:35Z</time>
      </trkpt>
      <trkpt lat="43.54829" lon="1.44643">
        <ele>221</ele>
        <time>2025-02-15T09:02:36Z</time>
      </trkpt>
      <trkpt lat="43.54828" lon="1.44646">
        <ele>221</ele>
        <time>2025-02-15T09:02:37Z</time>
      </trkpt>
      <trkpt lat="43.54826" lon="1.44652">
        <ele>221</ele>
        <time>2025-02-15T09:02:39Z</time>
      </trkpt>
      <trkpt lat="43.54825" lon="1.44653">
        <ele>222</ele>
        <time>2025-02-15T09:02:40Z</time>
      </trkpt>
      <trkpt lat="43.54824" lon="1.44656">
        <ele>222</ele>
        <time>2025-02-15T09:02:41Z</time>
      </trkpt>
      <trkpt lat="43.54823" lon="1.44658">
        <ele>222</ele>
        <time>2025-02-15T09:02:42Z</time>
      </trkpt>
      <trkpt lat="43.54822" lon="1.4466">
        <ele>222</ele>
        <time>2025-02-15T09:02:43Z</time>
      </trkpt>
      <trkpt lat="43.54821" lon="1.44663">
        <ele>222</ele>
        <time>2025-02-15T09:02:44Z</time>
      </trkpt>
      <trkpt lat="43.5482" lon="1.44665">
        <ele>222</ele>
        <time>2025-02-15T09:02:45Z</time>
      </trkpt>
      <trkpt lat="43.54819" lon="1.44667">
        <ele>223</ele>
        <time>2025-02-15T09:02:46Z</time>
      </trkpt>
      <trkpt lat="43.54817" lon="1.44671">
        <ele>223</ele>
        <time>2025-02-15T09:02:47Z</time>
      </trkpt>
      <trkpt lat="43.54817" lon="1.44673">
        <ele>223</ele>
        <time>2025-02-15T09:02:48Z</time>
      </trkpt>
      <trkpt lat="43.54816" lon="1.44676">
        <ele>223</ele>
        <time>2025-02-15T09:02:49Z</time>
      </trkpt>
      <trkpt lat="43.54815" lon="1.44678">
        <ele>223</ele>
        <time>2025-02-15T09:02:50Z</time>
      </trkpt>
      <trkpt lat="43.54814" lon="1.44681">
        <ele>223</ele>
        <time>2025-02-15T09:02:51Z</time>
      </trkpt>
      <trkpt lat="43.54813" lon="1.44683">
        <ele>223</ele>
        <time>2025-02-15T09:02:52Z</time>
      </trkpt>
      <trkpt lat="43.54811" lon="1.44685">
        <ele>223</ele>
        <time>2025-02-15T09:02:53Z</time>
      </trkpt>
      <trkpt lat="43.5481" lon="1.44687">
        <ele>223</ele>
        <time>2025-02-15T09:02:54Z</time>
      </trkpt>
      <trkpt lat="43.5481" lon="1.44687">
        <ele>223</ele>
        <time>2025-02-15T09:02:55Z</time>
      </trkpt>
      <trkpt lat="43.54808" lon="1.44691">
        <ele>223</ele>
        <time>2025-02-15T09:02:56Z</time>
      </trkpt>
      <trkpt lat="43.54807" lon="1.44693">
        <ele>223</ele>
        <time>2025-02-15T09:02:57Z</time>
      </trkpt>
      <trkpt lat="43.54807" lon="1.44696">
        <ele>223</ele>
        <time>2025-02-15T09:02:58Z</time>
      </trkpt>
      <trkpt lat="43.54806" lon="1.447">
        <ele>223</ele>
        <time>2025-02-15T09:02:59Z</time>
      </trkpt>
      <trkpt lat="43.54804" lon="1.44704">
        <ele>223</ele>
        <time>2025-02-15T09:03:00Z</time>
      </trkpt>
      <trkpt lat="43.54803" lon="1.44707">
        <ele>223</ele>
        <time>2025-02-15T09:03:01Z</time>
      </trkpt>
      <trkpt lat="43.54802" lon="1.4471">
        <ele>223</ele>
        <time>2025-02-15T09:03:02Z</time>
      </trkpt>
      <trkpt lat="43.54801" lon="1.44713">
        <ele>223</ele>
        <time>2025-02-15T09:03:03Z</time>
      </trkpt>
      <trkpt lat="43.54799" lon="1.44718">
        <ele>223</ele>
        <time>2025-02-15T09:03:04Z</time>
      </trkpt>
      <trkpt lat="43.54799" lon="1.44719">
        <ele>223</ele>
        <time>2025-02-15T09:03:05Z</time>
      </trkpt>
      <trkpt lat="43.54797" lon="1.44724">
        <ele>223</ele>
        <time>2025-02-15T09:03:06Z</time>
      </trkpt>
      <trkpt lat="43.54796" lon="1.44725">
        <ele>223</ele>
        <time>2025-02-15T09:03:07Z</time>
      </trkpt>
      <trkpt lat="43.54795" lon="1.44728">
        <ele>223</ele>
        <time>2025-02-15T09:03:08Z</time>
      </trkpt>
      <trkpt lat="43.54794" lon="1.44731">
        <ele>223</ele>
        <time>2025-02-15T09:03:09Z</time>
      </trkpt>
      <trkpt lat="43.54793" lon="1.44734">
        <ele>223</ele>
        <time>2025-02-15T09:03:10Z</time>
      </trkpt>
      <trkpt lat="43.54791" lon="1.44739">
        <ele>223</ele>
        <time>2025-02-15T09:03:11Z</time>
      </trkpt>
      <trkpt lat="43.5479" lon="1.4474">
        <ele>224</ele>
        <time>2025-02-15T09:03:12Z</time>
      </trkpt>
      <trkpt lat="43.54788" lon="1.44745">
        <ele>224</ele>
        <time>2025-02-15T09:03:13Z</time>
      </trkpt>
      <trkpt lat="43.54788" lon="1.44746">
        <ele>225</ele>
        <time>2025-02-15T09:03:14Z</time>
      </trkpt>
      <trkpt lat="43.54787" lon="1.44749">
        <ele>225</ele>
        <time>2025-02-15T09:03:15Z</time>
      </trkpt>
      <trkpt lat="43.54786" lon="1.44752">
        <ele>225</ele>
        <time>2025-02-15T09:03:16Z</time>
      </trkpt>
      <trkpt lat="43.54784" lon="1.44755">
        <ele>224</ele>
        <time>2025-02-15T09:03:17Z</time>
      </trkpt>
      <trkpt lat="43.54783" lon="1.44758">
        <ele>224</ele>
        <time>2025-02-15T09:03:18Z</time>
      </trkpt>
      <trkpt lat="43.54782" lon="1.44761">
        <ele>224</ele>
        <time>2025-02-15T09:03:19Z</time>
      </trkpt>
      <trkpt lat="43.54781" lon="1.44763">
        <ele>224</ele>
        <time>2025-02-15T09:03:20Z</time>
      </trkpt>
      <trkpt lat="43.54779" lon="1.44767">
        <ele>224</ele>
        <time>2025-02-15T09:03:21Z</time>
      </trkpt>
      <trkpt lat="43.54778" lon="1.44771">
        <ele>224</ele>
        <time>2025-02-15T09:03:22Z</time>
      </trkpt>
      <trkpt lat="43.54778" lon="1.44772">
        <ele>225</ele>
        <time>2025-02-15T09:03:23Z</time>
      </trkpt>
      <trkpt lat="43.54777" lon="1.44775">
        <ele>225</ele>
        <time>2025-02-15T09:03:24Z</time>
      </trkpt>
      <trkpt lat="43.54776" lon="1.44778">
        <ele>225</ele>
        <time>2025-02-15T09:03:25Z</time>
      </trkpt>
      <trkpt lat="43.54775" lon="1.4478">
        <ele>225</ele>
        <time>2025-02-15T09:03:26Z</time>
      </trkpt>
      <trkpt lat="43.54774" lon="1.44782">
        <ele>225</ele>
        <time>2025-02-15T09:03:27Z</time>
      </trkpt>
      <trkpt lat="43.54773" lon="1.44785">
        <ele>225</ele>
        <time>2025-02-15T09:03:28Z</time>
      </trkpt>
      <trkpt lat="43.54772" lon="1.44789">
        <ele>225</ele>
        <time>2025-02-15T09:03:29Z</time>
      </trkpt>
      <trkpt lat="43.54771" lon="1.44791">
        <ele>225</ele>
        <time>2025-02-15T09:03:30Z</time>
      </trkpt>
      <trkpt lat="43.5477" lon="1.44794">
        <ele>225</ele>
        <time>2025-02-15T09:03:31Z</time>
      </trkpt>
      <trkpt lat="43.54769" lon="1.44797">
        <ele>225</ele>
        <time>2025-02-15T09:03:32Z</time>
      </trkpt>
      <trkpt lat="43.54768" lon="1.448">
        <ele>225</ele>
        <time>2025-02-15T09:03:33Z</time>
      </trkpt>
      <trkpt lat="43.54766" lon="1.44804">
        <ele>225</ele>
        <time>2025-02-15T09:03:34Z</time>
      </trkpt>
      <trkpt lat="43.54765" lon="1.44805">
        <ele>225</ele>
        <time>2025-02-15T09:03:35Z</time>
      </trkpt>
      <trkpt lat="43.54763" lon="1.44809">
        <ele>225</ele>
        <time>2025-02-15T09:03:36Z</time>
      </trkpt>
      <trkpt lat="43.54763" lon="1.44811">
        <ele>226</ele>
        <time>2025-02-15T09:03:37Z</time>
      </trkpt>
      <trkpt lat="43.54761" lon="1.44815">
        <ele>226</ele>
        <time>2025-02-15T09:03:38Z</time>
      </trkpt>
      <trkpt lat="43.54761" lon="1.44817">
        <ele>226</ele>
        <time>2025-02-15T09:03:39Z</time>
      </trkpt>
      <trkpt lat="43.54759" lon="1.44822">
        <ele>226</ele>
        <time>2025-02-15T09:03:40Z</time>
      </trkpt>
      <trkpt lat="43.54757" lon="1.44829">
        <ele>226</ele>
        <time>2025-02-15T09:03:41Z</time>
      </trkpt>
      <trkpt lat="43.54756" lon="1.44831">
        <ele>226</ele>
        <time>2025-02-15T09:03:42Z</time>
      </trkpt>
      <trkpt lat="43.54754" lon="1.44837">
        <ele>226</ele>
        <time>2025-02-15T09:03:43Z</time>
      </trkpt>
      <trkpt lat="43.54753" lon="1.44839">
        <ele>227</ele>
        <time>2025-02-15T09:03:44Z</time>
      </trkpt>
      <trkpt lat="43.54752" lon="1.44843">
        <ele>227</ele>
        <time>2025-02-15T09:03:45Z</time>
      </trkpt>
      <trkpt lat="43.54751" lon="1.44845">
        <ele>227</ele>
        <time>2025-02-15T09:03:46Z</time>
      </trkpt>
      <trkpt lat="43.5475" lon="1.44848">
        <ele>227</ele>
        <time>2025-02-15T09:03:47Z</time>
      </trkpt>
      <trkpt lat="43.54748" lon="1.44853">
        <ele>227</ele>
        <time>2025-02-15T09:03:48Z</time>
      </trkpt>
      <trkpt lat="43.54748" lon="1.44855">
        <ele>226</ele>
        <time>2025-02-15T09:03:49Z</time>
      </trkpt>
      <trkpt lat="43.54746" lon="1.44859">
        <ele>226</ele>
        <time>2025-02-15T09:03:50Z</time>
      </trkpt>
      <trkpt lat="43.54745" lon="1.4486">
        <ele>226</ele>
        <time>2025-02-15T09:03:51Z</time>
      </trkpt>
      <trkpt lat="43.54744" lon="1.44863">
        <ele>226</ele>
        <time>2025-02-15T09:03:52Z</time>
      </trkpt>
      <trkpt lat="43.54743" lon="1.44867">
        <ele>226</ele>
        <time>2025-02-15T09:03:53Z</time>
      </trkpt>
      <trkpt lat="43.54742" lon="1.4487">
        <ele>226</ele>
        <time>2025-02-15T09:03:54Z</time>
      </trkpt>
      <trkpt lat="43.54741" lon="1.44874">
        <ele>226</ele>
        <time>2025-02-15T09:03:55Z</time>
      </trkpt>
      <trkpt lat="43.5474" lon="1.44876">
        <ele>226</ele>
        <time>2025-02-15T09:03:56Z</time>
      </trkpt>
      <trkpt lat="43.54739" lon="1.4488">
        <ele>226</ele>
        <time>2025-02-15T09:03:57Z</time>
      </trkpt>
      <trkpt lat="43.54738" lon="1.44881">
        <ele>226</ele>
        <time>2025-02-15T09:03:58Z</time>
      </trkpt>
      <trkpt lat="43.54737" lon="1.44884">
        <ele>226</ele>
        <time>2025-02-15T09:03:59Z</time>
      </trkpt>
      <trkpt lat="43.54736" lon="1.44886">
        <ele>226</ele>
        <time>2025-02-15T09:04:00Z</time>
      </trkpt>
      <trkpt lat="43.54736" lon="1.44889">
        <ele>226</ele>
        <time>2025-02-15T09:04:01Z</time>
      </trkpt>
      <trkpt lat="43.54736" lon="1.44892">
        <ele>226</ele>
        <time>2025-02-15T09:04:02Z</time>
      </trkpt>
      <trkpt lat="43.54735" lon="1.44894">
        <ele>226</ele>
        <time>2025-02-15T09:04:03Z</time>
      </trkpt>
      <trkpt lat="43.54735" lon="1.44897">
        <ele>227</ele>
        <time>2025-02-15T09:04:04Z</time>
      </trkpt>
      <trkpt lat="43.54734" lon="1.44901">
        <ele>227</ele>
        <time>2025-02-15T09:04:05Z</time>
      </trkpt>
      <trkpt lat="43.54734" lon="1.44905">
        <ele>227</ele>
        <time>2025-02-15T09:04:06Z</time>
      </trkpt>
      <trkpt lat="43.54733" lon="1.44912">
        <ele>227</ele>
        <time>2025-02-15T09:04:07Z</time>
      </trkpt>
      <trkpt lat="43.54733" lon="1.44914">
        <ele>227</ele>
        <time>2025-02-15T09:04:08Z</time>
      </trkpt>
      <trkpt lat="43.54732" lon="1.4492">
        <ele>227</ele>
        <time>2025-02-15T09:04:09Z</time>
      </trkpt>
      <trkpt lat="43.54732" lon="1.44922">
        <ele>227</ele>
        <time>2025-02-15T09:04:10Z</time>
      </trkpt>
      <trkpt lat="43.54733" lon="1.44926">
        <ele>226</ele>
        <time>2025-02-15T09:04:11Z</time>
      </trkpt>
      <trkpt lat="43.54733" lon="1.4493">
        <ele>226</ele>
        <time>2025-02-15T09:04:12Z</time>
      </trkpt>
      <trkpt lat="43.54733" lon="1.44933">
        <ele>227</ele>
        <time>2025-02-15T09:04:13Z</time>
      </trkpt>
      <trkpt lat="43.54735" lon="1.44937">
        <ele>227</ele>
        <time>2025-02-15T09:04:14Z</time>
      </trkpt>
      <trkpt lat="43.54735" lon="1.44939">
        <ele>227</ele>
        <time>2025-02-15T09:04:15Z</time>
      </trkpt>
      <trkpt lat="43.54736" lon="1.44942">
        <ele>227</ele>
        <time>2025-02-15T09:04:16Z</time>
      </trkpt>
      <trkpt lat="43.54736" lon="1.44944">
        <ele>227</ele>
        <time>2025-02-15T09:04:17Z</time>
      </trkpt>
      <trkpt lat="43.54735" lon="1.44948">
        <ele>227</ele>
        <time>2025-02-15T09:04:19Z</time>
      </trkpt>
      <trkpt lat="43.54735" lon="1.44948">
        <ele>226</ele>
        <time>2025-02-15T09:04:20Z</time>
      </trkpt>
      <trkpt lat="43.54735" lon="1.44948">
        <ele>226</ele>
        <time>2025-02-15T09:04:21Z</time>
      </trkpt>
      <trkpt lat="43.54735" lon="1.44948">
        <ele>226</ele>
        <time>2025-02-15T09:04:22Z</time>
      </trkpt>
      <trkpt lat="43.54735" lon="1.44948">
        <ele>226</ele>
        <time>2025-02-15T09:04:24Z</time>
      </trkpt>
      <trkpt lat="43.54735" lon="1.44948">
        <ele>226</ele>
        <time>2025-02-15T09:04:26Z</time>
      </trkpt>
      <trkpt lat="43.54735" lon="1.44948">
        <ele>226</ele>
        <time>2025-02-15T09:04:27Z</time>
      </trkpt>
      <trkpt lat="43.54735" lon="1.44948">
        <ele>226</ele>
        <time>2025-02-15T09:04:28Z</time>
      </trkpt>
      <trkpt lat="43.54735" lon="1.44948">
        <ele>226</ele>
        <time>2025-02-15T09:04:29Z</time>
      </trkpt>
      <trkpt lat="43.54735" lon="1.44948">
        <ele>226</ele>
        <time>2025-02-15T09:04:31Z</time>
      </trkpt>
      <trkpt lat="43.54735" lon="1.44948">
        <ele>226</ele>
        <time>2025-02-15T09:04:33Z</time>
      </trkpt>
      <trkpt lat="43.54735" lon="1.44948">
        <ele>226</ele>
        <time>2025-02-15T09:04:34Z</time>
      </trkpt>
      <trkpt lat="43.54735" lon="1.44948">
        <ele>226</ele>
        <time>2025-02-15T09:04:36Z</time>
      </trkpt>
      <trkpt lat="43.54735" lon="1.44948">
        <ele>226</ele>
        <time>2025-02-15T09:04:37Z</time>
      </trkpt>
      <trkpt lat="43.54735" lon="1.44948">
        <ele>226</ele>
        <time>2025-02-15T09:04:38Z</time>
      </trkpt>
      <trkpt lat="43.54735" lon="1.44948">
        <ele>226</ele>
        <time>2025-02-15T09:04:39Z</time>
      </trkpt>
      <trkpt lat="43.54735" lon="1.44948">
        <ele>226</ele>
        <time>2025-02-15T09:04:40Z</time>
      </trkpt>
      <trkpt lat="43.54735" lon="1.44949">
        <ele>226</ele>
        <time>2025-02-15T09:04:41Z</time>
      </trkpt>
      <trkpt lat="43.54735" lon="1.44952">
        <ele>226</ele>
        <time>2025-02-15T09:04:44Z</time>
      </trkpt>
      <trkpt lat="43.54737" lon="1.44955">
        <ele>226</ele>
        <time>2025-02-15T09:04:45Z</time>
      </trkpt>
      <trkpt lat="43.54737" lon="1.44955">
        <ele>226</ele>
        <time>2025-02-15T09:04:46Z</time>
      </trkpt>
      <trkpt lat="43.5474" lon="1.44958">
        <ele>226</ele>
        <time>2025-02-15T09:04:47Z</time>
      </trkpt>
      <trkpt lat="43.54742" lon="1.4496">
        <ele>226</ele>
        <time>2025-02-15T09:04:48Z</time>
      </trkpt>
      <trkpt lat="43.54745" lon="1.44963">
        <ele>226</ele>
        <time>2025-02-15T09:04:49Z</time>
      </trkpt>
      <trkpt lat="43.54746" lon="1.44965">
        <ele>226</ele>
        <time>2025-02-15T09:04:50Z</time>
      </trkpt>
      <trkpt lat="43.54748" lon="1.44966">
        <ele>226</ele>
        <time>2025-02-15T09:04:51Z</time>
      </trkpt>
      <trkpt lat="43.54748" lon="1.44966">
        <ele>226</ele>
        <time>2025-02-15T09:04:52Z</time>
      </trkpt>
      <trkpt lat="43.5475" lon="1.4497">
        <ele>226</ele>
        <time>2025-02-15T09:04:53Z</time>
      </trkpt>
      <trkpt lat="43.5475" lon="1.4497">
        <ele>226</ele>
        <time>2025-02-15T09:04:54Z</time>
      </trkpt>
      <trkpt lat="43.5475" lon="1.44974">
        <ele>226</ele>
        <time>2025-02-15T09:04:55Z</time>
      </trkpt>
      <trkpt lat="43.5475" lon="1.44978">
        <ele>226</ele>
        <time>2025-02-15T09:04:57Z</time>
      </trkpt>
      <trkpt lat="43.5475" lon="1.44983">
        <ele>226</ele>
        <time>2025-02-15T09:04:59Z</time>
      </trkpt>
      <trkpt lat="43.5475" lon="1.44986">
        <ele>226</ele>
        <time>2025-02-15T09:05:00Z</time>
      </trkpt>
      <trkpt lat="43.54749" lon="1.44989">
        <ele>226</ele>
        <time>2025-02-15T09:05:01Z</time>
      </trkpt>
      <trkpt lat="43.54747" lon="1.44993">
        <ele>226</ele>
        <time>2025-02-15T09:05:02Z</time>
      </trkpt>
      <trkpt lat="43.54745" lon="1.44997">
        <ele>226</ele>
        <time>2025-02-15T09:05:03Z</time>
      </trkpt>
      <trkpt lat="43.54744" lon="1.44999">
        <ele>226</ele>
        <time>2025-02-15T09:05:04Z</time>
      </trkpt>
      <trkpt lat="43.54743" lon="1.45003">
        <ele>226</ele>
        <time>2025-02-15T09:05:05Z</time>
      </trkpt>
      <trkpt lat="43.54742" lon="1.45004">
        <ele>226</ele>
        <time>2025-02-15T09:05:06Z</time>
      </trkpt>
      <trkpt lat="43.54741" lon="1.45008">
        <ele>226</ele>
        <time>2025-02-15T09:05:07Z</time>
      </trkpt>
      <trkpt lat="43.5474" lon="1.4501">
        <ele>226</ele>
        <time>2025-02-15T09:05:08Z</time>
      </trkpt>
      <trkpt lat="43.54738" lon="1.45014">
        <ele>226</ele>
        <time>2025-02-15T09:05:09Z</time>
      </trkpt>
      <trkpt lat="43.54737" lon="1.45015">
        <ele>227</ele>
        <time>2025-02-15T09:05:10Z</time>
      </trkpt>
      <trkpt lat="43.54735" lon="1.4502">
        <ele>227</ele>
        <time>2025-02-15T09:05:11Z</time>
      </trkpt>
      <trkpt lat="43.54734" lon="1.45022">
        <ele>227</ele>
        <time>2025-02-15T09:05:12Z</time>
      </trkpt>
      <trkpt lat="43.54733" lon="1.45025">
        <ele>227</ele>
        <time>2025-02-15T09:05:13Z</time>
      </trkpt>
      <trkpt lat="43.54731" lon="1.45028">
        <ele>227</ele>
        <time>2025-02-15T09:05:14Z</time>
      </trkpt>
      <trkpt lat="43.5473" lon="1.4503">
        <ele>227</ele>
        <time>2025-02-15T09:05:15Z</time>
      </trkpt>
      <trkpt lat="43.54729" lon="1.45033">
        <ele>227</ele>
        <time>2025-02-15T09:05:16Z</time>
      </trkpt>
      <trkpt lat="43.54729" lon="1.45033">
        <ele>227</ele>
        <time>2025-02-15T09:05:17Z</time>
      </trkpt>
      <trkpt lat="43.54727" lon="1.45039">
        <ele>227</ele>
        <time>2025-02-15T09:05:18Z</time>
      </trkpt>
      <trkpt lat="43.54726" lon="1.4504">
        <ele>228</ele>
        <time>2025-02-15T09:05:19Z</time>
      </trkpt>
      <trkpt lat="43.54725" lon="1.45043">
        <ele>228</ele>
        <time>2025-02-15T09:05:20Z</time>
      </trkpt>
      <trkpt lat="43.54723" lon="1.45046">
        <ele>228</ele>
        <time>2025-02-15T09:05:21Z</time>
      </trkpt>
      <trkpt lat="43.54721" lon="1.45051">
        <ele>228</ele>
        <time>2025-02-15T09:05:22Z</time>
      </trkpt>
      <trkpt lat="43.5472" lon="1.45052">
        <ele>229</ele>
        <time>2025-02-15T09:05:23Z</time>
      </trkpt>
      <trkpt lat="43.54718" lon="1.45055">
        <ele>229</ele>
        <time>2025-02-15T09:05:24Z</time>
      </trkpt>
      <trkpt lat="43.54716" lon="1.45058">
        <ele>229</ele>
        <time>2025-02-15T09:05:25Z</time>
      </trkpt>
      <trkpt lat="43.54713" lon="1.45063">
        <ele>229</ele>
        <time>2025-02-15T09:05:26Z</time>
      </trkpt>
      <trkpt lat="43.54712" lon="1.45064">
        <ele>229</ele>
        <time>2025-02-15T09:05:27Z</time>
      </trkpt>
      <trkpt lat="43.54711" lon="1.45067">
        <ele>229</ele>
        <time>2025-02-15T09:05:28Z</time>
      </trkpt>
      <trkpt lat="43.54709" lon="1.4507">
        <ele>229</ele>
        <time>2025-02-15T09:05:29Z</time>
      </trkpt>
      <trkpt lat="43.54707" lon="1.45073">
        <ele>229</ele>
        <time>2025-02-15T09:05:30Z</time>
      </trkpt>
      <trkpt lat="43.54704" lon="1.45077">
        <ele>229</ele>
        <time>2025-02-15T09:05:31Z</time>
      </trkpt>
      <trkpt lat="43.54704" lon="1.45078">
        <ele>229</ele>
        <time>2025-02-15T09:05:32Z</time>
      </trkpt>
      <trkpt lat="43.54701" lon="1.45081">
        <ele>229</ele>
        <time>2025-02-15T09:05:33Z</time>
      </trkpt>
      <trkpt lat="43.54699" lon="1.45084">
        <ele>229</ele>
        <time>2025-02-15T09:05:34Z</time>
      </trkpt>
      <trkpt lat="43.54697" lon="1.45087">
        <ele>229</ele>
        <time>2025-02-15T09:05:35Z</time>
      </trkpt>
      <trkpt lat="43.54694" lon="1.45092">
        <ele>229</ele>
        <time>2025-02-15T09:05:36Z</time>
      </trkpt>
      <trkpt lat="43.54693" lon="1.45093">
        <ele>229</ele>
        <time>2025-02-15T09:05:37Z</time>
      </trkpt>
      <trkpt lat="43.54691" lon="1.45097">
        <ele>229</ele>
        <time>2025-02-15T09:05:38Z</time>
      </trkpt>
      <trkpt lat="43.54689" lon="1.45098">
        <ele>229</ele>
        <time>2025-02-15T09:05:39Z</time>
      </trkpt>
      <trkpt lat="43.54687" lon="1.45101">
        <ele>230</ele>
        <time>2025-02-15T09:05:40Z</time>
      </trkpt>
      <trkpt lat="43.54684" lon="1.45106">
        <ele>230</ele>
        <time>2025-02-15T09:05:41Z</time>
      </trkpt>
      <trkpt lat="43.54683" lon="1.45108">
        <ele>230</ele>
        <time>2025-02-15T09:05:42Z</time>
      </trkpt>
      <trkpt lat="43.54682" lon="1.45112">
        <ele>230</ele>
        <time>2025-02-15T09:05:43Z</time>
      </trkpt>
      <trkpt lat="43.5468" lon="1.45115">
        <ele>230</ele>
        <time>2025-02-15T09:05:44Z</time>
      </trkpt>
      <trkpt lat="43.54677" lon="1.4512">
        <ele>230</ele>
        <time>2025-02-15T09:05:45Z</time>
      </trkpt>
      <trkpt lat="43.54675" lon="1.45122">
        <ele>230</ele>
        <time>2025-02-15T09:05:46Z</time>
      </trkpt>
      <trkpt lat="43.54674" lon="1.45124">
        <ele>230</ele>
        <time>2025-02-15T09:05:47Z</time>
      </trkpt>
      <trkpt lat="43.54671" lon="1.45128">
        <ele>230</ele>
        <time>2025-02-15T09:05:48Z</time>
      </trkpt>
      <trkpt lat="43.5467" lon="1.45131">
        <ele>230</ele>
        <time>2025-02-15T09:05:49Z</time>
      </trkpt>
      <trkpt lat="43.54667" lon="1.45135">
        <ele>230</ele>
        <time>2025-02-15T09:05:50Z</time>
      </trkpt>
      <trkpt lat="43.54666" lon="1.45136">
        <ele>230</ele>
        <time>2025-02-15T09:05:51Z</time>
      </trkpt>
      <trkpt lat="43.54663" lon="1.45141">
        <ele>230</ele>
        <time>2025-02-15T09:05:52Z</time>
      </trkpt>
      <trkpt lat="43.54662" lon="1.45142">
        <ele>230</ele>
        <time>2025-02-15T09:05:53Z</time>
      </trkpt>
      <trkpt lat="43.54661" lon="1.45145">
        <ele>230</ele>
        <time>2025-02-15T09:05:54Z</time>
      </trkpt>
      <trkpt lat="43.54659" lon="1.45148">
        <ele>230</ele>
        <time>2025-02-15T09:05:55Z</time>
      </trkpt>
      <trkpt lat="43.54657" lon="1.4515">
        <ele>230</ele>
        <time>2025-02-15T09:05:56Z</time>
      </trkpt>
      <trkpt lat="43.54655" lon="1.45154">
        <ele>230</ele>
        <time>2025-02-15T09:05:57Z</time>
      </trkpt>
      <trkpt lat="43.54654" lon="1.45156">
        <ele>231</ele>
        <time>2025-02-15T09:05:58Z</time>
      </trkpt>
      <trkpt lat="43.54652" lon="1.45159">
        <ele>231</ele>
        <time>2025-02-15T09:05:59Z</time>
      </trkpt>
      <trkpt lat="43.54651" lon="1.45162">
        <ele>232</ele>
        <time>2025-02-15T09:06:00Z</time>
      </trkpt>
      <trkpt lat="43.54649" lon="1.45166">
        <ele>231</ele>
        <time>2025-02-15T09:06:01Z</time>
      </trkpt>
      <trkpt lat="43.54648" lon="1.45168">
        <ele>231</ele>
        <time>2025-02-15T09:06:02Z</time>
      </trkpt>
      <trkpt lat="43.54645" lon="1.45173">
        <ele>231</ele>
        <time>2025-02-15T09:06:03Z</time>
      </trkpt>
      <trkpt lat="43.54644" lon="1.45175">
        <ele>231</ele>
        <time>2025-02-15T09:06:04Z</time>
      </trkpt>
      <trkpt lat="43.54642" lon="1.45179">
        <ele>231</ele>
        <time>2025-02-15T09:06:05Z</time>
      </trkpt>
      <trkpt lat="43.54641" lon="1.4518">
        <ele>231</ele>
        <time>2025-02-15T09:06:06Z</time>
      </trkpt>
      <trkpt lat="43.5464" lon="1.45183">
        <ele>231</ele>
        <time>2025-02-15T09:06:07Z</time>
      </trkpt>
      <trkpt lat="43.54638" lon="1.45186">
        <ele>231</ele>
        <time>2025-02-15T09:06:08Z</time>
      </trkpt>
      <trkpt lat="43.54636" lon="1.45189">
        <ele>231</ele>
        <time>2025-02-15T09:06:09Z</time>
      </trkpt>
      <trkpt lat="43.54634" lon="1.45194">
        <ele>231</ele>
        <time>2025-02-15T09:06:10Z</time>
      </trkpt>
      <trkpt lat="43.54633" lon="1.45195">
        <ele>231</ele>
        <time>2025-02-15T09:06:11Z</time>
      </trkpt>
      <trkpt lat="43.54631" lon="1.45199">
        <ele>231</ele>
        <time>2025-02-15T09:06:12Z</time>
      </trkpt>
      <trkpt lat="43.5463" lon="1.452">
        <ele>231</ele>
        <time>2025-02-15T09:06:13Z</time>
      </trkpt>
      <trkpt lat="43.54628" lon="1.45203">
        <ele>231</ele>
        <time>2025-02-15T09:06:14Z</time>
      </trkpt>
      <trkpt lat="43.54626" lon="1.45205">
        <ele>231</ele>
        <time>2025-02-15T09:06:15Z</time>
      </trkpt>
      <trkpt lat="43.54625" lon="1.45207">
        <ele>231</ele>
        <time>2025-02-15T09:06:16Z</time>
      </trkpt>
      <trkpt lat="43.54624" lon="1.45209">
        <ele>231</ele>
        <time>2025-02-15T09:06:17Z</time>
      </trkpt>
      <trkpt lat="43.54623" lon="1.45212">
        <ele>232</ele>
        <time>2025-02-15T09:06:18Z</time>
      </trkpt>
      <trkpt lat="43.54621" lon="1.45217">
        <ele>232</ele>
        <time>2025-02-15T09:06:19Z</time>
      </trkpt>
      <trkpt lat="43.5462" lon="1.45219">
        <ele>232</ele>
        <time>2025-02-15T09:06:20Z</time>
      </trkpt>
      <trkpt lat="43.54618" lon="1.45222">
        <ele>232</ele>
        <time>2025-02-15T09:06:21Z</time>
      </trkpt>
      <trkpt lat="43.54616" lon="1.45225">
        <ele>232</ele>
        <time>2025-02-15T09:06:22Z</time>
      </trkpt>
      <trkpt lat="43.54614" lon="1.45228">
        <ele>231</ele>
        <time>2025-02-15T09:06:23Z</time>
      </trkpt>
      <trkpt lat="43.54613" lon="1.45231">
        <ele>232</ele>
        <time>2025-02-15T09:06:24Z</time>
      </trkpt>
      <trkpt lat="43.54611" lon="1.45236">
        <ele>232</ele>
        <time>2025-02-15T09:06:25Z</time>
      </trkpt>
      <trkpt lat="43.54611" lon="1.45238">
        <ele>232</ele>
        <time>2025-02-15T09:06:26Z</time>
      </trkpt>
      <trkpt lat="43.54612" lon="1.45242">
        <ele>231</ele>
        <time>2025-02-15T09:06:27Z</time>
      </trkpt>
      <trkpt lat="43.54613" lon="1.45245">
        <ele>231</ele>
        <time>2025-02-15T09:06:28Z</time>
      </trkpt>
      <trkpt lat="43.54614" lon="1.45248">
        <ele>230</ele>
        <time>2025-02-15T09:06:29Z</time>
      </trkpt>
      <trkpt lat="43.54616" lon="1.45253">
        <ele>230</ele>
        <time>2025-02-15T09:06:30Z</time>
      </trkpt>
      <trkpt lat="43.54616" lon="1.45255">
        <ele>230</ele>
        <time>2025-02-15T09:06:31Z</time>
      </trkpt>
      <trkpt lat="43.54616" lon="1.45261">
        <ele>230</ele>
        <time>2025-02-15T09:06:32Z</time>
      </trkpt>
      <trkpt lat="43.54616" lon="1.45263">
        <ele>231</ele>
        <time>2025-02-15T09:06:33Z</time>
      </trkpt>
      <trkpt lat="43.54616" lon="1.45267">
        <ele>231</ele>
        <time>2025-02-15T09:06:34Z</time>
      </trkpt>
      <trkpt lat="43.54617" lon="1.45271">
        <ele>231</ele>
        <time>2025-02-15T09:06:35Z</time>
      </trkpt>
      <trkpt lat="43.54618" lon="1.45275">
        <ele>231</ele>
        <time>2025-02-15T09:06:36Z</time>
      </trkpt>
      <trkpt lat="43.54618" lon="1.45279">
        <ele>231</ele>
        <time>2025-02-15T09:06:37Z</time>
      </trkpt>
      <trkpt lat="43.54618" lon="1.45282">
        <ele>231</ele>
        <time>2025-02-15T09:06:38Z</time>
      </trkpt>
      <trkpt lat="43.54617" lon="1.45285">
        <ele>231</ele>
        <time>2025-02-15T09:06:39Z</time>
      </trkpt>
      <trkpt lat="43.54616" lon="1.45288">
        <ele>231</ele>
        <time>2025-02-15T09:06:40Z</time>
      </trkpt>
      <trkpt lat="43.54615" lon="1.45294">
        <ele>231</ele>
        <time>2025-02-15T09:06:41Z</time>
      </trkpt>
      <trkpt lat="43.54614" lon="1.45296">
        <ele>232</ele>
        <time>2025-02-15T09:06:42Z</time>
      </trkpt>
      <trkpt lat="43.54614" lon="1.45299">
        <ele>232</ele>
        <time>2025-02-15T09:06:43Z</time>
      </trkpt>
      <trkpt lat="43.54614" lon="1.45299">
        <ele>231</ele>
        <time>2025-02-15T09:06:44Z</time>
      </trkpt>
      <trkpt lat="43.54614" lon="1.45303">
        <ele>231</ele>
        <time>2025-02-15T09:06:45Z</time>
      </trkpt>
      <trkpt lat="43.54614" lon="1.45303">
        <ele>231</ele>
        <time>2025-02-15T09:06:46Z</time>
      </trkpt>
      <trkpt lat="43.54612" lon="1.45305">
        <ele>231</ele>
        <time>2025-02-15T09:06:47Z</time>
      </trkpt>
      <trkpt lat="43.54613" lon="1.4531">
        <ele>231</ele>
        <time>2025-02-15T09:06:49Z</time>
      </trkpt>
      <trkpt lat="43.54616" lon="1.45313">
        <ele>231</ele>
        <time>2025-02-15T09:06:50Z</time>
      </trkpt>
      <trkpt lat="43.54617" lon="1.45314">
        <ele>231</ele>
        <time>2025-02-15T09:06:51Z</time>
      </trkpt>
      <trkpt lat="43.54619" lon="1.45316">
        <ele>231</ele>
        <time>2025-02-15T09:06:52Z</time>
      </trkpt>
      <trkpt lat="43.54621" lon="1.45318">
        <ele>231</ele>
        <time>2025-02-15T09:06:53Z</time>
      </trkpt>
      <trkpt lat="43.54623" lon="1.4532">
        <ele>231</ele>
        <time>2025-02-15T09:06:54Z</time>
      </trkpt>
      <trkpt lat="43.54627" lon="1.45322">
        <ele>231</ele>
        <time>2025-02-15T09:06:55Z</time>
      </trkpt>
      <trkpt lat="43.54628" lon="1.45323">
        <ele>231</ele>
        <time>2025-02-15T09:06:56Z</time>
      </trkpt>
      <trkpt lat="43.54632" lon="1.45323">
        <ele>231</ele>
        <time>2025-02-15T09:06:57Z</time>
      </trkpt>
      <trkpt lat="43.54633" lon="1.45323">
        <ele>231</ele>
        <time>2025-02-15T09:06:58Z</time>
      </trkpt>
      <trkpt lat="43.54637" lon="1.4532">
        <ele>231</ele>
        <time>2025-02-15T09:06:59Z</time>
      </trkpt>
      <trkpt lat="43.54638" lon="1.45319">
        <ele>231</ele>
        <time>2025-02-15T09:07:00Z</time>
      </trkpt>
      <trkpt lat="43.5464" lon="1.45317">
        <ele>230</ele>
        <time>2025-02-15T09:07:01Z</time>
      </trkpt>
      <trkpt lat="43.54643" lon="1.45315">
        <ele>230</ele>
        <time>2025-02-15T09:07:02Z</time>
      </trkpt>
      <trkpt lat="43.54647" lon="1.45315">
        <ele>230</ele>
        <time>2025-02-15T09:07:03Z</time>
      </trkpt>
      <trkpt lat="43.54649" lon="1.45315">
        <ele>230</ele>
        <time>2025-02-15T09:07:04Z</time>
      </trkpt>
      <trkpt lat="43.54653" lon="1.45316">
        <ele>230</ele>
        <time>2025-02-15T09:07:05Z</time>
      </trkpt>
      <trkpt lat="43.54654" lon="1.45317">
        <ele>230</ele>
        <time>2025-02-15T09:07:06Z</time>
      </trkpt>
      <trkpt lat="43.54656" lon="1.45317">
        <ele>231</ele>
        <time>2025-02-15T09:07:07Z</time>
      </trkpt>
      <trkpt lat="43.54659" lon="1.45318">
        <ele>231</ele>
        <time>2025-02-15T09:07:08Z</time>
      </trkpt>
      <trkpt lat="43.54661" lon="1.45319">
        <ele>231</ele>
        <time>2025-02-15T09:07:09Z</time>
      </trkpt>
      <trkpt lat="43.54664" lon="1.4532">
        <ele>231</ele>
        <time>2025-02-15T09:07:10Z</time>
      </trkpt>
      <trkpt lat="43.54666" lon="1.45321">
        <ele>232</ele>
        <time>2025-02-15T09:07:11Z</time>
      </trkpt>
      <trkpt lat="43.54669" lon="1.45323">
        <ele>232</ele>
        <time>2025-02-15T09:07:12Z</time>
      </trkpt>
      <trkpt lat="43.5467" lon="1.45323">
        <ele>233</ele>
        <time>2025-02-15T09:07:13Z</time>
      </trkpt>
      <trkpt lat="43.54672" lon="1.45324">
        <ele>233</ele>
        <time>2025-02-15T09:07:14Z</time>
      </trkpt>
      <trkpt lat="43.54674" lon="1.45325">
        <ele>233</ele>
        <time>2025-02-15T09:07:15Z</time>
      </trkpt>
      <trkpt lat="43.54677" lon="1.45326">
        <ele>233</ele>
        <time>2025-02-15T09:07:16Z</time>
      </trkpt>
      <trkpt lat="43.54678" lon="1.45326">
        <ele>233</ele>
        <time>2025-02-15T09:07:17Z</time>
      </trkpt>
      <trkpt lat="43.54681" lon="1.45326">
        <ele>233</ele>
        <time>2025-02-15T09:07:18Z</time>
      </trkpt>
      <trkpt lat="43.54684" lon="1.45326">
        <ele>233</ele>
        <time>2025-02-15T09:07:19Z</time>
      </trkpt>
      <trkpt lat="43.54688" lon="1.45325">
        <ele>233</ele>
        <time>2025-02-15T09:07:20Z</time>
      </trkpt>
      <trkpt lat="43.54689" lon="1.45325">
        <ele>233</ele>
        <time>2025-02-15T09:07:21Z</time>
      </trkpt>
      <trkpt lat="43.54692" lon="1.45325">
        <ele>233</ele>
        <time>2025-02-15T09:07:22Z</time>
      </trkpt>
      <trkpt lat="43.54694" lon="1.45326">
        <ele>233</ele>
        <time>2025-02-15T09:07:23Z</time>
      </trkpt>
      <trkpt lat="43.54697" lon="1.45326">
        <ele>233</ele>
        <time>2025-02-15T09:07:24Z</time>
      </trkpt>
      <trkpt lat="43.547" lon="1.45328">
        <ele>233</ele>
        <time>2025-02-15T09:07:25Z</time>
      </trkpt>
      <trkpt lat="43.547" lon="1.45329">
        <ele>233</ele>
        <time>2025-02-15T09:07:26Z</time>
      </trkpt>
      <trkpt lat="43.54702" lon="1.4533">
        <ele>233</ele>
        <time>2025-02-15T09:07:27Z</time>
      </trkpt>
      <trkpt lat="43.54705" lon="1.45331">
        <ele>233</ele>
        <time>2025-02-15T09:07:28Z</time>
      </trkpt>
      <trkpt lat="43.54707" lon="1.45332">
        <ele>233</ele>
        <time>2025-02-15T09:07:29Z</time>
      </trkpt>
      <trkpt lat="43.5471" lon="1.45334">
        <ele>233</ele>
        <time>2025-02-15T09:07:30Z</time>
      </trkpt>
      <trkpt lat="43.54711" lon="1.45335">
        <ele>234</ele>
        <time>2025-02-15T09:07:31Z</time>
      </trkpt>
      <trkpt lat="43.54714" lon="1.45336">
        <ele>234</ele>
        <time>2025-02-15T09:07:32Z</time>
      </trkpt>
      <trkpt lat="43.54715" lon="1.45337">
        <ele>234</ele>
        <time>2025-02-15T09:07:33Z</time>
      </trkpt>
      <trkpt lat="43.54718" lon="1.45338">
        <ele>235</ele>
        <time>2025-02-15T09:07:34Z</time>
      </trkpt>
      <trkpt lat="43.54721" lon="1.4534">
        <ele>235</ele>
        <time>2025-02-15T09:07:35Z</time>
      </trkpt>
      <trkpt lat="43.54722" lon="1.4534">
        <ele>235</ele>
        <time>2025-02-15T09:07:36Z</time>
      </trkpt>
      <trkpt lat="43.54724" lon="1.45342">
        <ele>235</ele>
        <time>2025-02-15T09:07:37Z</time>
      </trkpt>
      <trkpt lat="43.54726" lon="1.45343">
        <ele>235</ele>
        <time>2025-02-15T09:07:38Z</time>
      </trkpt>
      <trkpt lat="43.54729" lon="1.45345">
        <ele>235</ele>
        <time>2025-02-15T09:07:39Z</time>
      </trkpt>
      <trkpt lat="43.5473" lon="1.45346">
        <ele>236</ele>
        <time>2025-02-15T09:07:40Z</time>
      </trkpt>
      <trkpt lat="43.54732" lon="1.45347">
        <ele>236</ele>
        <time>2025-02-15T09:07:41Z</time>
      </trkpt>
      <trkpt lat="43.54734" lon="1.45349">
        <ele>236</ele>
        <time>2025-02-15T09:07:42Z</time>
      </trkpt>
      <trkpt lat="43.54736" lon="1.4535">
        <ele>237</ele>
        <time>2025-02-15T09:07:43Z</time>
      </trkpt>
      <trkpt lat="43.5474" lon="1.45351">
        <ele>237</ele>
        <time>2025-02-15T09:07:44Z</time>
      </trkpt>
      <trkpt lat="43.54741" lon="1.45352">
        <ele>237</ele>
        <time>2025-02-15T09:07:45Z</time>
      </trkpt>
      <trkpt lat="43.54744" lon="1.45353">
        <ele>237</ele>
        <time>2025-02-15T09:07:46Z</time>
      </trkpt>
      <trkpt lat="43.54745" lon="1.45354">
        <ele>237</ele>
        <time>2025-02-15T09:07:47Z</time>
      </trkpt>
      <trkpt lat="43.54748" lon="1.45355">
        <ele>237</ele>
        <time>2025-02-15T09:07:48Z</time>
      </trkpt>
      <trkpt lat="43.5475" lon="1.45356">
        <ele>237</ele>
        <time>2025-02-15T09:07:49Z</time>
      </trkpt>
      <trkpt lat="43.54753" lon="1.45357">
        <ele>237</ele>
        <time>2025-02-15T09:07:50Z</time>
      </trkpt>
      <trkpt lat="43.54756" lon="1.45359">
        <ele>237</ele>
        <time>2025-02-15T09:07:51Z</time>
      </trkpt>
      <trkpt lat="43.54758" lon="1.45359">
        <ele>237</ele>
        <time>2025-02-15T09:07:52Z</time>
      </trkpt>
      <trkpt lat="43.5476" lon="1.4536">
        <ele>237</ele>
        <time>2025-02-15T09:07:53Z</time>
      </trkpt>
      <trkpt lat="43.54763" lon="1.45362">
        <ele>237</ele>
        <time>2025-02-15T09:07:54Z</time>
      </trkpt>
      <trkpt lat="43.54765" lon="1.45363">
        <ele>237</ele>
        <time>2025-02-15T09:07:55Z</time>
      </trkpt>
      <trkpt lat="43.54768" lon="1.45364">
        <ele>237</ele>
        <time>2025-02-15T09:07:56Z</time>
      </trkpt>
      <trkpt lat="43.54771" lon="1.45365">
        <ele>237</ele>
        <time>2025-02-15T09:07:57Z</time>
      </trkpt>
      <trkpt lat="43.54776" lon="1.45366">
        <ele>237</ele>
        <time>2025-02-15T09:07:58Z</time>
      </trkpt>
      <trkpt lat="43.54777" lon="1.45367">
        <ele>237</ele>
        <time>2025-02-15T09:07:59Z</time>
      </trkpt>
      <trkpt lat="43.54779" lon="1.45368">
        <ele>237</ele>
        <time>2025-02-15T09:08:00Z</time>
      </trkpt>
      <trkpt lat="43.54782" lon="1.45369">
        <ele>238</ele>
        <time>2025-02-15T09:08:01Z</time>
      </trkpt>
      <trkpt lat="43.54785" lon="1.4537">
        <ele>238</ele>
        <time>2025-02-15T09:08:02Z</time>
      </trkpt>
      <trkpt lat="43.54789" lon="1.45372">
        <ele>238</ele>
        <time>2025-02-15T09:08:03Z</time>
      </trkpt>
      <trkpt lat="43.5479" lon="1.45373">
        <ele>238</ele>
        <time>2025-02-15T09:08:04Z</time>
      </trkpt>
      <trkpt lat="43.54795" lon="1.45374">
        <ele>238</ele>
        <time>2025-02-15T09:08:05Z</time>
      </trkpt>
      <trkpt lat="43.54796" lon="1.45375">
        <ele>239</ele>
        <time>2025-02-15T09:08:06Z</time>
      </trkpt>
      <trkpt lat="43.54799" lon="1.45376">
        <ele>239</ele>
        <time>2025-02-15T09:08:07Z</time>
      </trkpt>
      <trkpt lat="43.54801" lon="1.45378">
        <ele>239</ele>
        <time>2025-02-15T09:08:08Z</time>
      </trkpt>
      <trkpt lat="43.54803" lon="1.45379">
        <ele>239</ele>
        <time>2025-02-15T09:08:09Z</time>
      </trkpt>
      <trkpt lat="43.54807" lon="1.4538">
        <ele>239</ele>
        <time>2025-02-15T09:08:10Z</time>
      </trkpt>
      <trkpt lat="43.54808" lon="1.4538">
        <ele>239</ele>
        <time>2025-02-15T09:08:11Z</time>
      </trkpt>
      <trkpt lat="43.5481" lon="1.45381">
        <ele>239</ele>
        <time>2025-02-15T09:08:12Z</time>
      </trkpt>
      <trkpt lat="43.5481" lon="1.45381">
        <ele>238</ele>
        <time>2025-02-15T09:08:13Z</time>
      </trkpt>
      <trkpt lat="43.54813" lon="1.4538">
        <ele>238</ele>
        <time>2025-02-15T09:08:14Z</time>
      </trkpt>
      <trkpt lat="43.54813" lon="1.4538">
        <ele>238</ele>
        <time>2025-02-15T09:08:15Z</time>
      </trkpt>
      <trkpt lat="43.5481" lon="1.45377">
        <ele>238</ele>
        <time>2025-02-15T09:08:16Z</time>
      </trkpt>
      <trkpt lat="43.54808" lon="1.45373">
        <ele>238</ele>
        <time>2025-02-15T09:08:17Z</time>
      </trkpt>
      <trkpt lat="43.54807" lon="1.45372">
        <ele>237</ele>
        <time>2025-02-15T09:08:18Z</time>
      </trkpt>
      <trkpt lat="43.54804" lon="1.45369">
        <ele>237</ele>
        <time>2025-02-15T09:08:19Z</time>
      </trkpt>
      <trkpt lat="43.54803" lon="1.45368">
        <ele>237</ele>
        <time>2025-02-15T09:08:20Z</time>
      </trkpt>
      <trkpt lat="43.54801" lon="1.45366">
        <ele>237</ele>
        <time>2025-02-15T09:08:21Z</time>
      </trkpt>
      <trkpt lat="43.54799" lon="1.45365">
        <ele>237</ele>
        <time>2025-02-15T09:08:22Z</time>
      </trkpt>
      <trkpt lat="43.54796" lon="1.45364">
        <ele>237</ele>
        <time>2025-02-15T09:08:23Z</time>
      </trkpt>
      <trkpt lat="43.54792" lon="1.45363">
        <ele>237</ele>
        <time>2025-02-15T09:08:24Z</time>
      </trkpt>
      <trkpt lat="43.54791" lon="1.45362">
        <ele>237</ele>
        <time>2025-02-15T09:08:25Z</time>
      </trkpt>
      <trkpt lat="43.54788" lon="1.45361">
        <ele>237</ele>
        <time>2025-02-15T09:08:26Z</time>
      </trkpt>
      <trkpt lat="43.54785" lon="1.4536">
        <ele>236</ele>
        <time>2025-02-15T09:08:27Z</time>
      </trkpt>
      <trkpt lat="43.54783" lon="1.45359">
        <ele>235</ele>
        <time>2025-02-15T09:08:28Z</time>
      </trkpt>
      <trkpt lat="43.5478" lon="1.45357">
        <ele>235</ele>
        <time>2025-02-15T09:08:29Z</time>
      </trkpt>
      <trkpt lat="43.54778" lon="1.45357">
        <ele>235</ele>
        <time>2025-02-15T09:08:30Z</time>
      </trkpt>
      <trkpt lat="43.54776" lon="1.45356">
        <ele>235</ele>
        <time>2025-02-15T09:08:31Z</time>
      </trkpt>
      <trkpt lat="43.54773" lon="1.45356">
        <ele>235</ele>
        <time>2025-02-15T09:08:32Z</time>
      </trkpt>
      <trkpt lat="43.5477" lon="1.45355">
        <ele>234</ele>
        <time>2025-02-15T09:08:33Z</time>
      </trkpt>
      <trkpt lat="43.54768" lon="1.45354">
        <ele>234</ele>
        <time>2025-02-15T09:08:34Z</time>
      </trkpt>
      <trkpt lat="43.54765" lon="1.45353">
        <ele>234</ele>
        <time>2025-02-15T09:08:35Z</time>
      </trkpt>
      <trkpt lat="43.54762" lon="1.45352">
        <ele>234</ele>
        <time>2025-02-15T09:08:36Z</time>
      </trkpt>
      <trkpt lat="43.54761" lon="1.45351">
        <ele>233</ele>
        <time>2025-02-15T09:08:37Z</time>
      </trkpt>
      <trkpt lat="43.54758" lon="1.45349">
        <ele>233</ele>
        <time>2025-02-15T09:08:38Z</time>
      </trkpt>
      <trkpt lat="43.54756" lon="1.45348">
        <ele>233</ele>
        <time>2025-02-15T09:08:39Z</time>
      </trkpt>
      <trkpt lat="43.54754" lon="1.45346">
        <ele>232</ele>
        <time>2025-02-15T09:08:40Z</time>
      </trkpt>
      <trkpt lat="43.54751" lon="1.45345">
        <ele>232</ele>
        <time>2025-02-15T09:08:41Z</time>
      </trkpt>
      <trkpt lat="43.54748" lon="1.45345">
        <ele>232</ele>
        <time>2025-02-15T09:08:42Z</time>
      </trkpt>
      <trkpt lat="43.54744" lon="1.45344">
        <ele>232</ele>
        <time>2025-02-15T09:08:43Z</time>
      </trkpt>
      <trkpt lat="43.54743" lon="1.45344">
        <ele>232</ele>
        <time>2025-02-15T09:08:44Z</time>
      </trkpt>
      <trkpt lat="43.5474" lon="1.45342">
        <ele>231</ele>
        <time>2025-02-15T09:08:45Z</time>
      </trkpt>
      <trkpt lat="43.54738" lon="1.4534">
        <ele>231</ele>
        <time>2025-02-15T09:08:46Z</time>
      </trkpt>
      <trkpt lat="43.54735" lon="1.45339">
        <ele>232</ele>
        <time>2025-02-15T09:08:47Z</time>
      </trkpt>
      <trkpt lat="43.54731" lon="1.45337">
        <ele>232</ele>
        <time>2025-02-15T09:08:48Z</time>
      </trkpt>
      <trkpt lat="43.5473" lon="1.45336">
        <ele>232</ele>
        <time>2025-02-15T09:08:49Z</time>
      </trkpt>
      <trkpt lat="43.54727" lon="1.45335">
        <ele>232</ele>
        <time>2025-02-15T09:08:50Z</time>
      </trkpt>
      <trkpt lat="43.54724" lon="1.45333">
        <ele>232</ele>
        <time>2025-02-15T09:08:51Z</time>
      </trkpt>
      <trkpt lat="43.54721" lon="1.45332">
        <ele>231</ele>
        <time>2025-02-15T09:08:52Z</time>
      </trkpt>
      <trkpt lat="43.54719" lon="1.45331">
        <ele>231</ele>
        <time>2025-02-15T09:08:53Z</time>
      </trkpt>
      <trkpt lat="43.54716" lon="1.45329">
        <ele>231</ele>
        <time>2025-02-15T09:08:54Z</time>
      </trkpt>
      <trkpt lat="43.54712" lon="1.45328">
        <ele>231</ele>
        <time>2025-02-15T09:08:55Z</time>
      </trkpt>
      <trkpt lat="43.5471" lon="1.45327">
        <ele>231</ele>
        <time>2025-02-15T09:08:56Z</time>
      </trkpt>
      <trkpt lat="43.54706" lon="1.45325">
        <ele>231</ele>
        <time>2025-02-15T09:08:57Z</time>
      </trkpt>
      <trkpt lat="43.54705" lon="1.45324">
        <ele>230</ele>
        <time>2025-02-15T09:08:58Z</time>
      </trkpt>
      <trkpt lat="43.54702" lon="1.45323">
        <ele>229</ele>
        <time>2025-02-15T09:08:59Z</time>
      </trkpt>
      <trkpt lat="43.54699" lon="1.45321">
        <ele>229</ele>
        <time>2025-02-15T09:09:00Z</time>
      </trkpt>
      <trkpt lat="43.54696" lon="1.45319">
        <ele>229</ele>
        <time>2025-02-15T09:09:01Z</time>
      </trkpt>
      <trkpt lat="43.54694" lon="1.45319">
        <ele>230</ele>
        <time>2025-02-15T09:09:02Z</time>
      </trkpt>
      <trkpt lat="43.54691" lon="1.45317">
        <ele>230</ele>
        <time>2025-02-15T09:09:03Z</time>
      </trkpt>
      <trkpt lat="43.54689" lon="1.45317">
        <ele>230</ele>
        <time>2025-02-15T09:09:04Z</time>
      </trkpt>
      <trkpt lat="43.54687" lon="1.45316">
        <ele>230</ele>
        <time>2025-02-15T09:09:05Z</time>
      </trkpt>
      <trkpt lat="43.54684" lon="1.45316">
        <ele>230</ele>
        <time>2025-02-15T09:09:06Z</time>
      </trkpt>
      <trkpt lat="43.54681" lon="1.45316">
        <ele>230</ele>
        <time>2025-02-15T09:09:07Z</time>
      </trkpt>
      <trkpt lat="43.54677" lon="1.45315">
        <ele>230</ele>
        <time>2025-02-15T09:09:08Z</time>
      </trkpt>
      <trkpt lat="43.54676" lon="1.45315">
        <ele>230</ele>
        <time>2025-02-15T09:09:09Z</time>
      </trkpt>
      <trkpt lat="43.54672" lon="1.45315">
        <ele>230</ele>
        <time>2025-02-15T09:09:10Z</time>
      </trkpt>
      <trkpt lat="43.54671" lon="1.45315">
        <ele>230</ele>
        <time>2025-02-15T09:09:11Z</time>
      </trkpt>
      <trkpt lat="43.54668" lon="1.45315">
        <ele>230</ele>
        <time>2025-02-15T09:09:12Z</time>
      </trkpt>
      <trkpt lat="43.54664" lon="1.45313">
        <ele>230</ele>
        <time>2025-02-15T09:09:13Z</time>
      </trkpt>
      <trkpt lat="43.54663" lon="1.45313">
        <ele>230</ele>
        <time>2025-02-15T09:09:14Z</time>
      </trkpt>
      <trkpt lat="43.54659" lon="1.45311">
        <ele>230</ele>
        <time>2025-02-15T09:09:15Z</time>
      </trkpt>
      <trkpt lat="43.54658" lon="1.45311">
        <ele>230</ele>
        <time>2025-02-15T09:09:16Z</time>
      </trkpt>
      <trkpt lat="43.54655" lon="1.4531">
        <ele>230</ele>
        <time>2025-02-15T09:09:17Z</time>
      </trkpt>
      <trkpt lat="43.54652" lon="1.45308">
        <ele>230</ele>
        <time>2025-02-15T09:09:18Z</time>
      </trkpt>
      <trkpt lat="43.54649" lon="1.45305">
        <ele>230</ele>
        <time>2025-02-15T09:09:19Z</time>
      </trkpt>
      <trkpt lat="43.54648" lon="1.45304">
        <ele>229</ele>
        <time>2025-02-15T09:09:20Z</time>
      </trkpt>
      <trkpt lat="43.54645" lon="1.45298">
        <ele>229</ele>
        <time>2025-02-15T09:09:21Z</time>
      </trkpt>
      <trkpt lat="43.54644" lon="1.45296">
        <ele>229</ele>
        <time>2025-02-15T09:09:22Z</time>
      </trkpt>
      <trkpt lat="43.54644" lon="1.45291">
        <ele>229</ele>
        <time>2025-02-15T09:09:23Z</time>
      </trkpt>
      <trkpt lat="43.54643" lon="1.45287">
        <ele>229</ele>
        <time>2025-02-15T09:09:24Z</time>
      </trkpt>
      <trkpt lat="43.54643" lon="1.45283">
        <ele>228</ele>
        <time>2025-02-15T09:09:25Z</time>
      </trkpt>
      <trkpt lat="43.54641" lon="1.45278">
        <ele>228</ele>
        <time>2025-02-15T09:09:26Z</time>
      </trkpt>
      <trkpt lat="43.5464" lon="1.45277">
        <ele>228</ele>
        <time>2025-02-15T09:09:27Z</time>
      </trkpt>
      <trkpt lat="43.54637" lon="1.45275">
        <ele>228</ele>
        <time>2025-02-15T09:09:28Z</time>
      </trkpt>
      <trkpt lat="43.54635" lon="1.45274">
        <ele>227</ele>
        <time>2025-02-15T09:09:29Z</time>
      </trkpt>
      <trkpt lat="43.54632" lon="1.45274">
        <ele>228</ele>
        <time>2025-02-15T09:09:30Z</time>
      </trkpt>
      <trkpt lat="43.5463" lon="1.45274">
        <ele>228</ele>
        <time>2025-02-15T09:09:31Z</time>
      </trkpt>
      <trkpt lat="43.54627" lon="1.45274">
        <ele>228</ele>
        <time>2025-02-15T09:09:32Z</time>
      </trkpt>
      <trkpt lat="43.54623" lon="1.45274">
        <ele>228</ele>
        <time>2025-02-15T09:09:33Z</time>
      </trkpt>
      <trkpt lat="43.54622" lon="1.45274">
        <ele>229</ele>
        <time>2025-02-15T09:09:34Z</time>
      </trkpt>
      <trkpt lat="43.54619" lon="1.45271">
        <ele>229</ele>
        <time>2025-02-15T09:09:35Z</time>
      </trkpt>
      <trkpt lat="43.54618" lon="1.4527">
        <ele>229</ele>
        <time>2025-02-15T09:09:36Z</time>
      </trkpt>
      <trkpt lat="43.54615" lon="1.45267">
        <ele>229</ele>
        <time>2025-02-15T09:09:37Z</time>
      </trkpt>
      <trkpt lat="43.54614" lon="1.45266">
        <ele>228</ele>
        <time>2025-02-15T09:09:38Z</time>
      </trkpt>
      <trkpt lat="43.54611" lon="1.45262">
        <ele>228</ele>
        <time>2025-02-15T09:09:39Z</time>
      </trkpt>
      <trkpt lat="43.5461" lon="1.45261">
        <ele>228</ele>
        <time>2025-02-15T09:09:40Z</time>
      </trkpt>
      <trkpt lat="43.54608" lon="1.45258">
        <ele>228</ele>
        <time>2025-02-15T09:09:41Z</time>
      </trkpt>
      <trkpt lat="43.54606" lon="1.45256">
        <ele>228</ele>
        <time>2025-02-15T09:09:42Z</time>
      </trkpt>
      <trkpt lat="43.54605" lon="1.45253">
        <ele>228</ele>
        <time>2025-02-15T09:09:43Z</time>
      </trkpt>
      <trkpt lat="43.54604" lon="1.45247">
        <ele>228</ele>
        <time>2025-02-15T09:09:44Z</time>
      </trkpt>
      <trkpt lat="43.54604" lon="1.45245">
        <ele>228</ele>
        <time>2025-02-15T09:09:45Z</time>
      </trkpt>
      <trkpt lat="43.54607" lon="1.4524">
        <ele>228</ele>
        <time>2025-02-15T09:09:46Z</time>
      </trkpt>
      <trkpt lat="43.54607" lon="1.45238">
        <ele>228</ele>
        <time>2025-02-15T09:09:47Z</time>
      </trkpt>
      <trkpt lat="43.5461" lon="1.45233">
        <ele>228</ele>
        <time>2025-02-15T09:09:48Z</time>
      </trkpt>
      <trkpt lat="43.54611" lon="1.45231">
        <ele>229</ele>
        <time>2025-02-15T09:09:49Z</time>
      </trkpt>
      <trkpt lat="43.54613" lon="1.45228">
        <ele>229</ele>
        <time>2025-02-15T09:09:50Z</time>
      </trkpt>
      <trkpt lat="43.54615" lon="1.45225">
        <ele>229</ele>
        <time>2025-02-15T09:09:51Z</time>
      </trkpt>
      <trkpt lat="43.54617" lon="1.4522">
        <ele>229</ele>
        <time>2025-02-15T09:09:52Z</time>
      </trkpt>
      <trkpt lat="43.54618" lon="1.45218">
        <ele>229</ele>
        <time>2025-02-15T09:09:53Z</time>
      </trkpt>
      <trkpt lat="43.54621" lon="1.45213">
        <ele>229</ele>
        <time>2025-02-15T09:09:54Z</time>
      </trkpt>
      <trkpt lat="43.54622" lon="1.45211">
        <ele>230</ele>
        <time>2025-02-15T09:09:55Z</time>
      </trkpt>
      <trkpt lat="43.54623" lon="1.45208">
        <ele>230</ele>
        <time>2025-02-15T09:09:56Z</time>
      </trkpt>
      <trkpt lat="43.54626" lon="1.45204">
        <ele>230</ele>
        <time>2025-02-15T09:09:57Z</time>
      </trkpt>
      <trkpt lat="43.54627" lon="1.45203">
        <ele>230</ele>
        <time>2025-02-15T09:09:58Z</time>
      </trkpt>
      <trkpt lat="43.5463" lon="1.45198">
        <ele>230</ele>
        <time>2025-02-15T09:09:59Z</time>
      </trkpt>
      <trkpt lat="43.5463" lon="1.45196">
        <ele>230</ele>
        <time>2025-02-15T09:10:00Z</time>
      </trkpt>
      <trkpt lat="43.54632" lon="1.45193">
        <ele>230</ele>
        <time>2025-02-15T09:10:01Z</time>
      </trkpt>
      <trkpt lat="43.54634" lon="1.45189">
        <ele>230</ele>
        <time>2025-02-15T09:10:02Z</time>
      </trkpt>
      <trkpt lat="43.54635" lon="1.45186">
        <ele>230</ele>
        <time>2025-02-15T09:10:03Z</time>
      </trkpt>
      <trkpt lat="43.54638" lon="1.45182">
        <ele>230</ele>
        <time>2025-02-15T09:10:04Z</time>
      </trkpt>
      <trkpt lat="43.54639" lon="1.45181">
        <ele>230</ele>
        <time>2025-02-15T09:10:05Z</time>
      </trkpt>
      <trkpt lat="43.5464" lon="1.45178">
        <ele>230</ele>
        <time>2025-02-15T09:10:06Z</time>
      </trkpt>
      <trkpt lat="43.54642" lon="1.45175">
        <ele>229</ele>
        <time>2025-02-15T09:10:07Z</time>
      </trkpt>
      <trkpt lat="43.54644" lon="1.45171">
        <ele>229</ele>
        <time>2025-02-15T09:10:08Z</time>
      </trkpt>
      <trkpt lat="43.54646" lon="1.45167">
        <ele>229</ele>
        <time>2025-02-15T09:10:09Z</time>
      </trkpt>
      <trkpt lat="43.54647" lon="1.45165">
        <ele>229</ele>
        <time>2025-02-15T09:10:10Z</time>
      </trkpt>
      <trkpt lat="43.54649" lon="1.45162">
        <ele>229</ele>
        <time>2025-02-15T09:10:11Z</time>
      </trkpt>
      <trkpt lat="43.54651" lon="1.45157">
        <ele>229</ele>
        <time>2025-02-15T09:10:12Z</time>
      </trkpt>
      <trkpt lat="43.54652" lon="1.45156">
        <ele>229</ele>
        <time>2025-02-15T09:10:13Z</time>
      </trkpt>
      <trkpt lat="43.54655" lon="1.45152">
        <ele>229</ele>
        <time>2025-02-15T09:10:14Z</time>
      </trkpt>
      <trkpt lat="43.54656" lon="1.4515">
        <ele>229</ele>
        <time>2025-02-15T09:10:15Z</time>
      </trkpt>
      <trkpt lat="43.54657" lon="1.45147">
        <ele>229</ele>
        <time>2025-02-15T09:10:16Z</time>
      </trkpt>
      <trkpt lat="43.54659" lon="1.45144">
        <ele>229</ele>
        <time>2025-02-15T09:10:17Z</time>
      </trkpt>
      <trkpt lat="43.54661" lon="1.45141">
        <ele>229</ele>
        <time>2025-02-15T09:10:18Z</time>
      </trkpt>
      <trkpt lat="43.54663" lon="1.45137">
        <ele>229</ele>
        <time>2025-02-15T09:10:19Z</time>
      </trkpt>
      <trkpt lat="43.54664" lon="1.45135">
        <ele>229</ele>
        <time>2025-02-15T09:10:20Z</time>
      </trkpt>
      <trkpt lat="43.54667" lon="1.4513">
        <ele>229</ele>
        <time>2025-02-15T09:10:21Z</time>
      </trkpt>
      <trkpt lat="43.54667" lon="1.45129">
        <ele>229</ele>
        <time>2025-02-15T09:10:22Z</time>
      </trkpt>
      <trkpt lat="43.54669" lon="1.45126">
        <ele>229</ele>
        <time>2025-02-15T09:10:23Z</time>
      </trkpt>
      <trkpt lat="43.54671" lon="1.45123">
        <ele>229</ele>
        <time>2025-02-15T09:10:24Z</time>
      </trkpt>
      <trkpt lat="43.54672" lon="1.4512">
        <ele>229</ele>
        <time>2025-02-15T09:10:25Z</time>
      </trkpt>
      <trkpt lat="43.54675" lon="1.45115">
        <ele>229</ele>
        <time>2025-02-15T09:10:26Z</time>
      </trkpt>
      <trkpt lat="43.54676" lon="1.45114">
        <ele>229</ele>
        <time>2025-02-15T09:10:27Z</time>
      </trkpt>
      <trkpt lat="43.54678" lon="1.45109">
        <ele>229</ele>
        <time>2025-02-15T09:10:28Z</time>
      </trkpt>
      <trkpt lat="43.54679" lon="1.45108">
        <ele>229</ele>
        <time>2025-02-15T09:10:29Z</time>
      </trkpt>
      <trkpt lat="43.54682" lon="1.45102">
        <ele>229</ele>
        <time>2025-02-15T09:10:30Z</time>
      </trkpt>
      <trkpt lat="43.54682" lon="1.45101">
        <ele>229</ele>
        <time>2025-02-15T09:10:31Z</time>
      </trkpt>
      <trkpt lat="43.54685" lon="1.45096">
        <ele>229</ele>
        <time>2025-02-15T09:10:32Z</time>
      </trkpt>
      <trkpt lat="43.54686" lon="1.45094">
        <ele>229</ele>
        <time>2025-02-15T09:10:33Z</time>
      </trkpt>
      <trkpt lat="43.54688" lon="1.45092">
        <ele>229</ele>
        <time>2025-02-15T09:10:34Z</time>
      </trkpt>
      <trkpt lat="43.5469" lon="1.45089">
        <ele>228</ele>
        <time>2025-02-15T09:10:35Z</time>
      </trkpt>
      <trkpt lat="43.54692" lon="1.45086">
        <ele>227</ele>
        <time>2025-02-15T09:10:36Z</time>
      </trkpt>
      <trkpt lat="43.54693" lon="1.45083">
        <ele>227</ele>
        <time>2025-02-15T09:10:37Z</time>
      </trkpt>
      <trkpt lat="43.54695" lon="1.4508">
        <ele>227</ele>
        <time>2025-02-15T09:10:38Z</time>
      </trkpt>
      <trkpt lat="43.54698" lon="1.45076">
        <ele>227</ele>
        <time>2025-02-15T09:10:39Z</time>
      </trkpt>
      <trkpt lat="43.54699" lon="1.45075">
        <ele>227</ele>
        <time>2025-02-15T09:10:40Z</time>
      </trkpt>
      <trkpt lat="43.54701" lon="1.45072">
        <ele>227</ele>
        <time>2025-02-15T09:10:41Z</time>
      </trkpt>
      <trkpt lat="43.54703" lon="1.45069">
        <ele>227</ele>
        <time>2025-02-15T09:10:42Z</time>
      </trkpt>
      <trkpt lat="43.54704" lon="1.45067">
        <ele>227</ele>
        <time>2025-02-15T09:10:43Z</time>
      </trkpt>
      <trkpt lat="43.54706" lon="1.45064">
        <ele>227</ele>
        <time>2025-02-15T09:10:44Z</time>
      </trkpt>
      <trkpt lat="43.54709" lon="1.4506">
        <ele>227</ele>
        <time>2025-02-15T09:10:45Z</time>
      </trkpt>
      <trkpt lat="43.5471" lon="1.45059">
        <ele>227</ele>
        <time>2025-02-15T09:10:46Z</time>
      </trkpt>
      <trkpt lat="43.54712" lon="1.45056">
        <ele>227</ele>
        <time>2025-02-15T09:10:47Z</time>
      </trkpt>
      <trkpt lat="43.54715" lon="1.45052">
        <ele>227</ele>
        <time>2025-02-15T09:10:48Z</time>
      </trkpt>
      <trkpt lat="43.54716" lon="1.4505">
        <ele>227</ele>
        <time>2025-02-15T09:10:49Z</time>
      </trkpt>
      <trkpt lat="43.54719" lon="1.45046">
        <ele>227</ele>
        <time>2025-02-15T09:10:50Z</time>
      </trkpt>
      <trkpt lat="43.5472" lon="1.45045">
        <ele>227</ele>
        <time>2025-02-15T09:10:51Z</time>
      </trkpt>
      <trkpt lat="43.54721" lon="1.45042">
        <ele>227</ele>
        <time>2025-02-15T09:10:52Z</time>
      </trkpt>
      <trkpt lat="43.54722" lon="1.45039">
        <ele>226</ele>
        <time>2025-02-15T09:10:53Z</time>
      </trkpt>
      <trkpt lat="43.54724" lon="1.45036">
        <ele>226</ele>
        <time>2025-02-15T09:10:54Z</time>
      </trkpt>
      <trkpt lat="43.54727" lon="1.45031">
        <ele>226</ele>
        <time>2025-02-15T09:10:55Z</time>
      </trkpt>
      <trkpt lat="43.54728" lon="1.4503">
        <ele>226</ele>
        <time>2025-02-15T09:10:56Z</time>
      </trkpt>
      <trkpt lat="43.54731" lon="1.45025">
        <ele>226</ele>
        <time>2025-02-15T09:10:57Z</time>
      </trkpt>
      <trkpt lat="43.54731" lon="1.45024">
        <ele>226</ele>
        <time>2025-02-15T09:10:58Z</time>
      </trkpt>
      <trkpt lat="43.54733" lon="1.45021">
        <ele>226</ele>
        <time>2025-02-15T09:10:59Z</time>
      </trkpt>
      <trkpt lat="43.54734" lon="1.45018">
        <ele>226</ele>
        <time>2025-02-15T09:11:00Z</time>
      </trkpt>
      <trkpt lat="43.54736" lon="1.45015">
        <ele>226</ele>
        <time>2025-02-15T09:11:01Z</time>
      </trkpt>
      <trkpt lat="43.54738" lon="1.45011">
        <ele>226</ele>
        <time>2025-02-15T09:11:02Z</time>
      </trkpt>
      <trkpt lat="43.54738" lon="1.4501">
        <ele>225</ele>
        <time>2025-02-15T09:11:03Z</time>
      </trkpt>
      <trkpt lat="43.5474" lon="1.45005">
        <ele>225</ele>
        <time>2025-02-15T09:11:04Z</time>
      </trkpt>
      <trkpt lat="43.54741" lon="1.45003">
        <ele>225</ele>
        <time>2025-02-15T09:11:05Z</time>
      </trkpt>
      <trkpt lat="43.54743" lon="1.45">
        <ele>225</ele>
        <time>2025-02-15T09:11:06Z</time>
      </trkpt>
      <trkpt lat="43.54745" lon="1.44995">
        <ele>225</ele>
        <time>2025-02-15T09:11:07Z</time>
      </trkpt>
      <trkpt lat="43.54746" lon="1.44994">
        <ele>224</ele>
        <time>2025-02-15T09:11:08Z</time>
      </trkpt>
      <trkpt lat="43.54747" lon="1.44988">
        <ele>224</ele>
        <time>2025-02-15T09:11:09Z</time>
      </trkpt>
      <trkpt lat="43.54747" lon="1.44987">
        <ele>224</ele>
        <time>2025-02-15T09:11:10Z</time>
      </trkpt>
      <trkpt lat="43.54747" lon="1.44983">
        <ele>224</ele>
        <time>2025-02-15T09:11:11Z</time>
      </trkpt>
      <trkpt lat="43.54746" lon="1.4498">
        <ele>224</ele>
        <time>2025-02-15T09:11:12Z</time>
      </trkpt>
      <trkpt lat="43.54745" lon="1.44977">
        <ele>224</ele>
        <time>2025-02-15T09:11:13Z</time>
      </trkpt>
      <trkpt lat="43.54743" lon="1.44975">
        <ele>224</ele>
        <time>2025-02-15T09:11:14Z</time>
      </trkpt>
      <trkpt lat="43.54742" lon="1.44974">
        <ele>224</ele>
        <time>2025-02-15T09:11:15Z</time>
      </trkpt>
      <trkpt lat="43.54739" lon="1.4497">
        <ele>224</ele>
        <time>2025-02-15T09:11:16Z</time>
      </trkpt>
      <trkpt lat="43.54738" lon="1.44969">
        <ele>224</ele>
        <time>2025-02-15T09:11:17Z</time>
      </trkpt>
      <trkpt lat="43.54736" lon="1.44966">
        <ele>224</ele>
        <time>2025-02-15T09:11:18Z</time>
      </trkpt>
      <trkpt lat="43.54734" lon="1.44964">
        <ele>224</ele>
        <time>2025-02-15T09:11:19Z</time>
      </trkpt>
      <trkpt lat="43.54732" lon="1.44962">
        <ele>224</ele>
        <time>2025-02-15T09:11:20Z</time>
      </trkpt>
      <trkpt lat="43.5473" lon="1.44959">
        <ele>224</ele>
        <time>2025-02-15T09:11:21Z</time>
      </trkpt>
      <trkpt lat="43.54729" lon="1.44958">
        <ele>224</ele>
        <time>2025-02-15T09:11:22Z</time>
      </trkpt>
      <trkpt lat="43.54727" lon="1.44953">
        <ele>224</ele>
        <time>2025-02-15T09:11:23Z</time>
      </trkpt>
      <trkpt lat="43.54727" lon="1.44951">
        <ele>224</ele>
        <time>2025-02-15T09:11:24Z</time>
      </trkpt>
      <trkpt lat="43.54725" lon="1.44946">
        <ele>224</ele>
        <time>2025-02-15T09:11:25Z</time>
      </trkpt>
      <trkpt lat="43.54725" lon="1.44944">
        <ele>224</ele>
        <time>2025-02-15T09:11:26Z</time>
      </trkpt>
      <trkpt lat="43.54723" lon="1.44939">
        <ele>224</ele>
        <time>2025-02-15T09:11:27Z</time>
      </trkpt>
      <trkpt lat="43.54723" lon="1.44938">
        <ele>225</ele>
        <time>2025-02-15T09:11:28Z</time>
      </trkpt>
      <trkpt lat="43.54722" lon="1.44932">
        <ele>225</ele>
        <time>2025-02-15T09:11:29Z</time>
      </trkpt>
      <trkpt lat="43.54722" lon="1.4493">
        <ele>225</ele>
        <time>2025-02-15T09:11:30Z</time>
      </trkpt>
      <trkpt lat="43.54722" lon="1.44925">
        <ele>225</ele>
        <time>2025-02-15T09:11:31Z</time>
      </trkpt>
      <trkpt lat="43.54722" lon="1.44921">
        <ele>225</ele>
        <time>2025-02-15T09:11:32Z</time>
      </trkpt>
      <trkpt lat="43.54722" lon="1.44917">
        <ele>225</ele>
        <time>2025-02-15T09:11:33Z</time>
      </trkpt>
      <trkpt lat="43.54723" lon="1.44912">
        <ele>225</ele>
        <time>2025-02-15T09:11:34Z</time>
      </trkpt>
      <trkpt lat="43.54723" lon="1.4491">
        <ele>225</ele>
        <time>2025-02-15T09:11:35Z</time>
      </trkpt>
      <trkpt lat="43.54724" lon="1.44905">
        <ele>225</ele>
        <time>2025-02-15T09:11:36Z</time>
      </trkpt>
      <trkpt lat="43.54725" lon="1.44903">
        <ele>225</ele>
        <time>2025-02-15T09:11:37Z</time>
      </trkpt>
      <trkpt lat="43.54726" lon="1.44899">
        <ele>225</ele>
        <time>2025-02-15T09:11:38Z</time>
      </trkpt>
      <trkpt lat="43.54727" lon="1.44896">
        <ele>225</ele>
        <time>2025-02-15T09:11:39Z</time>
      </trkpt>
      <trkpt lat="43.54729" lon="1.44892">
        <ele>225</ele>
        <time>2025-02-15T09:11:40Z</time>
      </trkpt>
      <trkpt lat="43.5473" lon="1.44889">
        <ele>225</ele>
        <time>2025-02-15T09:11:41Z</time>
      </trkpt>
      <trkpt lat="43.54731" lon="1.44886">
        <ele>226</ele>
        <time>2025-02-15T09:11:42Z</time>
      </trkpt>
      <trkpt lat="43.54733" lon="1.44882">
        <ele>226</ele>
        <time>2025-02-15T09:11:43Z</time>
      </trkpt>
      <trkpt lat="43.54734" lon="1.44879">
        <ele>226</ele>
        <time>2025-02-15T09:11:44Z</time>
      </trkpt>
      <trkpt lat="43.54736" lon="1.44874">
        <ele>226</ele>
        <time>2025-02-15T09:11:45Z</time>
      </trkpt>
      <trkpt lat="43.54737" lon="1.44872">
        <ele>226</ele>
        <time>2025-02-15T09:11:46Z</time>
      </trkpt>
      <trkpt lat="43.54739" lon="1.44866">
        <ele>226</ele>
        <time>2025-02-15T09:11:47Z</time>
      </trkpt>
      <trkpt lat="43.54739" lon="1.44865">
        <ele>225</ele>
        <time>2025-02-15T09:11:48Z</time>
      </trkpt>
      <trkpt lat="43.5474" lon="1.44862">
        <ele>225</ele>
        <time>2025-02-15T09:11:49Z</time>
      </trkpt>
      <trkpt lat="43.54742" lon="1.44858">
        <ele>226</ele>
        <time>2025-02-15T09:11:50Z</time>
      </trkpt>
      <trkpt lat="43.54743" lon="1.44855">
        <ele>226</ele>
        <time>2025-02-15T09:11:51Z</time>
      </trkpt>
      <trkpt lat="43.54745" lon="1.44851">
        <ele>226</ele>
        <time>2025-02-15T09:11:52Z</time>
      </trkpt>
      <trkpt lat="43.54746" lon="1.44849">
        <ele>226</ele>
        <time>2025-02-15T09:11:53Z</time>
      </trkpt>
      <trkpt lat="43.54748" lon="1.44844">
        <ele>226</ele>
        <time>2025-02-15T09:11:54Z</time>
      </trkpt>
      <trkpt lat="43.54749" lon="1.44842">
        <ele>226</ele>
        <time>2025-02-15T09:11:55Z</time>
      </trkpt>
      <trkpt lat="43.5475" lon="1.44838">
        <ele>226</ele>
        <time>2025-02-15T09:11:56Z</time>
      </trkpt>
      <trkpt lat="43.54751" lon="1.44835">
        <ele>225</ele>
        <time>2025-02-15T09:11:57Z</time>
      </trkpt>
      <trkpt lat="43.54753" lon="1.44832">
        <ele>225</ele>
        <time>2025-02-15T09:11:58Z</time>
      </trkpt>
      <trkpt lat="43.54754" lon="1.44827">
        <ele>225</ele>
        <time>2025-02-15T09:11:59Z</time>
      </trkpt>
      <trkpt lat="43.54754" lon="1.44825">
        <ele>225</ele>
        <time>2025-02-15T09:12:00Z</time>
      </trkpt>
      <trkpt lat="43.54756" lon="1.4482">
        <ele>225</ele>
        <time>2025-02-15T09:12:01Z</time>
      </trkpt>
      <trkpt lat="43.54757" lon="1.44818">
        <ele>225</ele>
        <time>2025-02-15T09:12:02Z</time>
      </trkpt>
      <trkpt lat="43.54759" lon="1.44813">
        <ele>225</ele>
        <time>2025-02-15T09:12:03Z</time>
      </trkpt>
      <trkpt lat="43.5476" lon="1.44812">
        <ele>224</ele>
        <time>2025-02-15T09:12:04Z</time>
      </trkpt>
      <trkpt lat="43.54761" lon="1.44808">
        <ele>224</ele>
        <time>2025-02-15T09:12:05Z</time>
      </trkpt>
      <trkpt lat="43.54763" lon="1.44804">
        <ele>224</ele>
        <time>2025-02-15T09:12:06Z</time>
      </trkpt>
      <trkpt lat="43.54764" lon="1.44802">
        <ele>224</ele>
        <time>2025-02-15T09:12:07Z</time>
      </trkpt>
      <trkpt lat="43.54766" lon="1.44799">
        <ele>224</ele>
        <time>2025-02-15T09:12:08Z</time>
      </trkpt>
      <trkpt lat="43.54766" lon="1.44798">
        <ele>224</ele>
        <time>2025-02-15T09:12:09Z</time>
      </trkpt>
      <trkpt lat="43.54768" lon="1.44795">
        <ele>224</ele>
        <time>2025-02-15T09:12:10Z</time>
      </trkpt>
      <trkpt lat="43.54769" lon="1.44791">
        <ele>224</ele>
        <time>2025-02-15T09:12:11Z</time>
      </trkpt>
      <trkpt lat="43.54771" lon="1.44788">
        <ele>224</ele>
        <time>2025-02-15T09:12:12Z</time>
      </trkpt>
      <trkpt lat="43.54773" lon="1.44782">
        <ele>224</ele>
        <time>2025-02-15T09:12:13Z</time>
      </trkpt>
      <trkpt lat="43.54774" lon="1.44781">
        <ele>224</ele>
        <time>2025-02-15T09:12:14Z</time>
      </trkpt>
      <trkpt lat="43.54776" lon="1.44776">
        <ele>224</ele>
        <time>2025-02-15T09:12:15Z</time>
      </trkpt>
      <trkpt lat="43.54776" lon="1.44774">
        <ele>223</ele>
        <time>2025-02-15T09:12:16Z</time>
      </trkpt>
      <trkpt lat="43.54778" lon="1.4477">
        <ele>223</ele>
        <time>2025-02-15T09:12:17Z</time>
      </trkpt>
      <trkpt lat="43.54779" lon="1.44767">
        <ele>223</ele>
        <time>2025-02-15T09:12:18Z</time>
      </trkpt>
      <trkpt lat="43.5478" lon="1.44763">
        <ele>223</ele>
        <time>2025-02-15T09:12:19Z</time>
      </trkpt>
      <trkpt lat="43.54782" lon="1.44759">
        <ele>223</ele>
        <time>2025-02-15T09:12:20Z</time>
      </trkpt>
      <trkpt lat="43.54783" lon="1.44756">
        <ele>223</ele>
        <time>2025-02-15T09:12:21Z</time>
      </trkpt>
      <trkpt lat="43.54785" lon="1.44752">
        <ele>223</ele>
        <time>2025-02-15T09:12:22Z</time>
      </trkpt>
      <trkpt lat="43.54787" lon="1.44747">
        <ele>223</ele>
        <time>2025-02-15T09:12:23Z</time>
      </trkpt>
      <trkpt lat="43.54788" lon="1.44745">
        <ele>223</ele>
        <time>2025-02-15T09:12:24Z</time>
      </trkpt>
      <trkpt lat="43.54789" lon="1.44741">
        <ele>223</ele>
        <time>2025-02-15T09:12:25Z</time>
      </trkpt>
      <trkpt lat="43.5479" lon="1.44737">
        <ele>223</ele>
        <time>2025-02-15T09:12:26Z</time>
      </trkpt>
      <trkpt lat="43.54791" lon="1.44733">
        <ele>223</ele>
        <time>2025-02-15T09:12:27Z</time>
      </trkpt>
      <trkpt lat="43.54793" lon="1.44728">
        <ele>223</ele>
        <time>2025-02-15T09:12:28Z</time>
      </trkpt>
      <trkpt lat="43.54794" lon="1.44726">
        <ele>222</ele>
        <time>2025-02-15T09:12:29Z</time>
      </trkpt>
      <trkpt lat="43.54796" lon="1.44721">
        <ele>222</ele>
        <time>2025-02-15T09:12:30Z</time>
      </trkpt>
      <trkpt lat="43.54796" lon="1.44719">
        <ele>222</ele>
        <time>2025-02-15T09:12:31Z</time>
      </trkpt>
      <trkpt lat="43.54797" lon="1.44715">
        <ele>222</ele>
        <time>2025-02-15T09:12:32Z</time>
      </trkpt>
      <trkpt lat="43.54799" lon="1.44712">
        <ele>222</ele>
        <time>2025-02-15T09:12:33Z</time>
      </trkpt>
      <trkpt lat="43.548" lon="1.44709">
        <ele>222</ele>
        <time>2025-02-15T09:12:34Z</time>
      </trkpt>
      <trkpt lat="43.54801" lon="1.44704">
        <ele>222</ele>
        <time>2025-02-15T09:12:35Z</time>
      </trkpt>
      <trkpt lat="43.54802" lon="1.44703">
        <ele>222</ele>
        <time>2025-02-15T09:12:36Z</time>
      </trkpt>
      <trkpt lat="43.54803" lon="1.44699">
        <ele>222</ele>
        <time>2025-02-15T09:12:37Z</time>
      </trkpt>
      <trkpt lat="43.54805" lon="1.44696">
        <ele>222</ele>
        <time>2025-02-15T09:12:38Z</time>
      </trkpt>
      <trkpt lat="43.54806" lon="1.44692">
        <ele>222</ele>
        <time>2025-02-15T09:12:39Z</time>
      </trkpt>
      <trkpt lat="43.54808" lon="1.44689">
        <ele>222</ele>
        <time>2025-02-15T09:12:40Z</time>
      </trkpt>
      <trkpt lat="43.54809" lon="1.44686">
        <ele>222</ele>
        <time>2025-02-15T09:12:41Z</time>
      </trkpt>
      <trkpt lat="43.54811" lon="1.44683">
        <ele>222</ele>
        <time>2025-02-15T09:12:42Z</time>
      </trkpt>
      <trkpt lat="43.54813" lon="1.44678">
        <ele>222</ele>
        <time>2025-02-15T09:12:43Z</time>
      </trkpt>
      <trkpt lat="43.54813" lon="1.44677">
        <ele>222</ele>
        <time>2025-02-15T09:12:44Z</time>
      </trkpt>
      <trkpt lat="43.54815" lon="1.44672">
        <ele>222</ele>
        <time>2025-02-15T09:12:45Z</time>
      </trkpt>
      <trkpt lat="43.54816" lon="1.44671">
        <ele>222</ele>
        <time>2025-02-15T09:12:46Z</time>
      </trkpt>
      <trkpt lat="43.54818" lon="1.44668">
        <ele>222</ele>
        <time>2025-02-15T09:12:47Z</time>
      </trkpt>
      <trkpt lat="43.54819" lon="1.44665">
        <ele>222</ele>
        <time>2025-02-15T09:12:48Z</time>
      </trkpt>
      <trkpt lat="43.54821" lon="1.44662">
        <ele>221</ele>
        <time>2025-02-15T09:12:49Z</time>
      </trkpt>
      <trkpt lat="43.54823" lon="1.44656">
        <ele>221</ele>
        <time>2025-02-15T09:12:50Z</time>
      </trkpt>
      <trkpt lat="43.54824" lon="1.44654">
        <ele>220</ele>
        <time>2025-02-15T09:12:51Z</time>
      </trkpt>
      <trkpt lat="43.54826" lon="1.44651">
        <ele>220</ele>
        <time>2025-02-15T09:12:52Z</time>
      </trkpt>
      <trkpt lat="43.54828" lon="1.44647">
        <ele>220</ele>
        <time>2025-02-15T09:12:53Z</time>
      </trkpt>
      <trkpt lat="43.5483" lon="1.44643">
        <ele>220</ele>
        <time>2025-02-15T09:12:54Z</time>
      </trkpt>
      <trkpt lat="43.54831" lon="1.4464">
        <ele>220</ele>
        <time>2025-02-15T09:12:55Z</time>
      </trkpt>
      <trkpt lat="43.54833" lon="1.44636">
        <ele>220</ele>
        <time>2025-02-15T09:12:56Z</time>
      </trkpt>
      <trkpt lat="43.54834" lon="1.44633">
        <ele>220</ele>
        <time>2025-02-15T09:12:57Z</time>
      </trkpt>
      <trkpt lat="43.54837" lon="1.44627">
        <ele>220</ele>
        <time>2025-02-15T09:12:58Z</time>
      </trkpt>
      <trkpt lat="43.54837" lon="1.44626">
        <ele>219</ele>
        <time>2025-02-15T09:12:59Z</time>
      </trkpt>
      <trkpt lat="43.54839" lon="1.44621">
        <ele>219</ele>
        <time>2025-02-15T09:13:00Z</time>
      </trkpt>
      <trkpt lat="43.5484" lon="1.44619">
        <ele>219</ele>
        <time>2025-02-15T09:13:01Z</time>
      </trkpt>
      <trkpt lat="43.5484" lon="1.44615">
        <ele>218</ele>
        <time>2025-02-15T09:13:02Z</time>
      </trkpt>
      <trkpt lat="43.54841" lon="1.44611">
        <ele>218</ele>
        <time>2025-02-15T09:13:03Z</time>
      </trkpt>
      <trkpt lat="43.54841" lon="1.44608">
        <ele>218</ele>
        <time>2025-02-15T09:13:04Z</time>
      </trkpt>
      <trkpt lat="43.54841" lon="1.44602">
        <ele>218</ele>
        <time>2025-02-15T09:13:05Z</time>
      </trkpt>
      <trkpt lat="43.54841" lon="1.446">
        <ele>217</ele>
        <time>2025-02-15T09:13:06Z</time>
      </trkpt>
      <trkpt lat="43.54839" lon="1.44596">
        <ele>217</ele>
        <time>2025-02-15T09:13:07Z</time>
      </trkpt>
      <trkpt lat="43.54838" lon="1.44595">
        <ele>218</ele>
        <time>2025-02-15T09:13:08Z</time>
      </trkpt>
      <trkpt lat="43.54836" lon="1.44592">
        <ele>218</ele>
        <time>2025-02-15T09:13:09Z</time>
      </trkpt>
      <trkpt lat="43.54835" lon="1.44588">
        <ele>218</ele>
        <time>2025-02-15T09:13:10Z</time>
      </trkpt>
      <trkpt lat="43.54834" lon="1.44585">
        <ele>218</ele>
        <time>2025-02-15T09:13:11Z</time>
      </trkpt>
      <trkpt lat="43.54836" lon="1.44579">
        <ele>218</ele>
        <time>2025-02-15T09:13:12Z</time>
      </trkpt>
      <trkpt lat="43.54836" lon="1.44577">
        <ele>218</ele>
        <time>2025-02-15T09:13:13Z</time>
      </trkpt>
      <trkpt lat="43.54838" lon="1.44571">
        <ele>218</ele>
        <time>2025-02-15T09:13:14Z</time>
      </trkpt>
      <trkpt lat="43.54839" lon="1.4457">
        <ele>218</ele>
        <time>2025-02-15T09:13:15Z</time>
      </trkpt>
      <trkpt lat="43.5484" lon="1.44566">
        <ele>218</ele>
        <time>2025-02-15T09:13:16Z</time>
      </trkpt>
      <trkpt lat="43.54842" lon="1.4456">
        <ele>218</ele>
        <time>2025-02-15T09:13:17Z</time>
      </trkpt>
      <trkpt lat="43.54842" lon="1.44558">
        <ele>218</ele>
        <time>2025-02-15T09:13:18Z</time>
      </trkpt>
      <trkpt lat="43.54843" lon="1.44554">
        <ele>217</ele>
        <time>2025-02-15T09:13:19Z</time>
      </trkpt>
      <trkpt lat="43.54844" lon="1.4455">
        <ele>217</ele>
        <time>2025-02-15T09:13:20Z</time>
      </trkpt>
      <trkpt lat="43.54845" lon="1.44547">
        <ele>217</ele>
        <time>2025-02-15T09:13:21Z</time>
      </trkpt>
      <trkpt lat="43.54846" lon="1.44542">
        <ele>217</ele>
        <time>2025-02-15T09:13:22Z</time>
      </trkpt>
      <trkpt lat="43.54846" lon="1.44541">
        <ele>216</ele>
        <time>2025-02-15T09:13:23Z</time>
      </trkpt>
      <trkpt lat="43.54848" lon="1.44535">
        <ele>216</ele>
        <time>2025-02-15T09:13:24Z</time>
      </trkpt>
      <trkpt lat="43.54848" lon="1.44533">
        <ele>216</ele>
        <time>2025-02-15T09:13:25Z</time>
      </trkpt>
      <trkpt lat="43.54849" lon="1.44529">
        <ele>216</ele>
        <time>2025-02-15T09:13:26Z</time>
      </trkpt>
      <trkpt lat="43.5485" lon="1.44526">
        <ele>216</ele>
        <time>2025-02-15T09:13:27Z</time>
      </trkpt>
      <trkpt lat="43.54851" lon="1.44522">
        <ele>216</ele>
        <time>2025-02-15T09:13:28Z</time>
      </trkpt>
      <trkpt lat="43.54853" lon="1.44516">
        <ele>216</ele>
        <time>2025-02-15T09:13:29Z</time>
      </trkpt>
      <trkpt lat="43.54853" lon="1.44515">
        <ele>216</ele>
        <time>2025-02-15T09:13:30Z</time>
      </trkpt>
      <trkpt lat="43.54855" lon="1.44509">
        <ele>216</ele>
        <time>2025-02-15T09:13:31Z</time>
      </trkpt>
      <trkpt lat="43.54855" lon="1.44508">
        <ele>216</ele>
        <time>2025-02-15T09:13:32Z</time>
      </trkpt>
      <trkpt lat="43.54856" lon="1.44504">
        <ele>216</ele>
        <time>2025-02-15T09:13:33Z</time>
      </trkpt>
      <trkpt lat="43.54858" lon="1.44498">
        <ele>216</ele>
        <time>2025-02-15T09:13:34Z</time>
      </trkpt>
      <trkpt lat="43.54858" lon="1.44496">
        <ele>215</ele>
        <time>2025-02-15T09:13:35Z</time>
      </trkpt>
      <trkpt lat="43.5486" lon="1.44491">
        <ele>215</ele>
        <time>2025-02-15T09:13:36Z</time>
      </trkpt>
      <trkpt lat="43.5486" lon="1.44489">
        <ele>215</ele>
        <time>2025-02-15T09:13:37Z</time>
      </trkpt>
      <trkpt lat="43.54861" lon="1.44485">
        <ele>215</ele>
        <time>2025-02-15T09:13:38Z</time>
      </trkpt>
      <trkpt lat="43.54862" lon="1.44481">
        <ele>214</ele>
        <time>2025-02-15T09:13:39Z</time>
      </trkpt>
      <trkpt lat="43.54863" lon="1.44477">
        <ele>214</ele>
        <time>2025-02-15T09:13:40Z</time>
      </trkpt>
      <trkpt lat="43.54865" lon="1.44472">
        <ele>214</ele>
        <time>2025-02-15T09:13:41Z</time>
      </trkpt>
      <trkpt lat="43.54866" lon="1.4447">
        <ele>213</ele>
        <time>2025-02-15T09:13:42Z</time>
      </trkpt>
      <trkpt lat="43.54868" lon="1.44467">
        <ele>213</ele>
        <time>2025-02-15T09:13:43Z</time>
      </trkpt>
      <trkpt lat="43.5487" lon="1.44465">
        <ele>213</ele>
        <time>2025-02-15T09:13:44Z</time>
      </trkpt>
      <trkpt lat="43.54872" lon="1.44462">
        <ele>213</ele>
        <time>2025-02-15T09:13:45Z</time>
      </trkpt>
      <trkpt lat="43.54873" lon="1.4446">
        <ele>212</ele>
        <time>2025-02-15T09:13:46Z</time>
      </trkpt>
      <trkpt lat="43.54874" lon="1.44457">
        <ele>212</ele>
        <time>2025-02-15T09:13:47Z</time>
      </trkpt>
      <trkpt lat="43.54875" lon="1.44455">
        <ele>212</ele>
        <time>2025-02-15T09:13:48Z</time>
      </trkpt>
      <trkpt lat="43.54875" lon="1.44455">
        <ele>212</ele>
        <time>2025-02-15T09:13:49Z</time>
      </trkpt>
      <trkpt lat="43.54877" lon="1.44452">
        <ele>212</ele>
        <time>2025-02-15T09:13:50Z</time>
      </trkpt>
      <trkpt lat="43.54878" lon="1.4445">
        <ele>211</ele>
        <time>2025-02-15T09:13:51Z</time>
      </trkpt>
      <trkpt lat="43.5488" lon="1.44448">
        <ele>210</ele>
        <time>2025-02-15T09:13:52Z</time>
      </trkpt>
      <trkpt lat="43.54882" lon="1.44444">
        <ele>210</ele>
        <time>2025-02-15T09:13:54Z</time>
      </trkpt>
      <trkpt lat="43.54883" lon="1.44442">
        <ele>210</ele>
        <time>2025-02-15T09:13:55Z</time>
      </trkpt>
      <trkpt lat="43.54883" lon="1.44442">
        <ele>209</ele>
        <time>2025-02-15T09:13:56Z</time>
      </trkpt>
      <trkpt lat="43.54886" lon="1.44439">
        <ele>209</ele>
        <time>2025-02-15T09:13:57Z</time>
      </trkpt>
      <trkpt lat="43.54886" lon="1.44439">
        <ele>209</ele>
        <time>2025-02-15T09:13:58Z</time>
      </trkpt>
      <trkpt lat="43.54888" lon="1.44437">
        <ele>209</ele>
        <time>2025-02-15T09:13:59Z</time>
      </trkpt>
      <trkpt lat="43.54888" lon="1.44437">
        <ele>209</ele>
        <time>2025-02-15T09:14:00Z</time>
      </trkpt>
      <trkpt lat="43.5489" lon="1.44435">
        <ele>209</ele>
        <time>2025-02-15T09:14:01Z</time>
      </trkpt>
      <trkpt lat="43.54891" lon="1.44434">
        <ele>208</ele>
        <time>2025-02-15T09:14:03Z</time>
      </trkpt>
      <trkpt lat="43.54893" lon="1.44433">
        <ele>208</ele>
        <time>2025-02-15T09:14:04Z</time>
      </trkpt>
      <trkpt lat="43.54894" lon="1.44432">
        <ele>208</ele>
        <time>2025-02-15T09:14:05Z</time>
      </trkpt>
      <trkpt lat="43.54894" lon="1.44432">
        <ele>208</ele>
        <time>2025-02-15T09:14:06Z</time>
      </trkpt>
      <trkpt lat="43.54897" lon="1.44429">
        <ele>208</ele>
        <time>2025-02-15T09:14:07Z</time>
      </trkpt>
      <trkpt lat="43.54897" lon="1.44429">
        <ele>208</ele>
        <time>2025-02-15T09:14:08Z</time>
      </trkpt>
      <trkpt lat="43.54898" lon="1.44426">
        <ele>208</ele>
        <time>2025-02-15T09:14:09Z</time>
      </trkpt>
      <trkpt lat="43.54898" lon="1.44426">
        <ele>207</ele>
        <time>2025-02-15T09:14:10Z</time>
      </trkpt>
      <trkpt lat="43.549" lon="1.44423">
        <ele>207</ele>
        <time>2025-02-15T09:14:11Z</time>
      </trkpt>
      <trkpt lat="43.549" lon="1.44423">
        <ele>207</ele>
        <time>2025-02-15T09:14:12Z</time>
      </trkpt>
      <trkpt lat="43.54903" lon="1.44421">
        <ele>207</ele>
        <time>2025-02-15T09:14:13Z</time>
      </trkpt>
      <trkpt lat="43.54905" lon="1.44419">
        <ele>206</ele>
        <time>2025-02-15T09:14:15Z</time>
      </trkpt>
      <trkpt lat="43.54905" lon="1.44419">
        <ele>206</ele>
        <time>2025-02-15T09:14:16Z</time>
      </trkpt>
      <trkpt lat="43.54908" lon="1.44419">
        <ele>206</ele>
        <time>2025-02-15T09:14:17Z</time>
      </trkpt>
      <trkpt lat="43.5491" lon="1.44418">
        <ele>205</ele>
        <time>2025-02-15T09:14:19Z</time>
      </trkpt>
      <trkpt lat="43.54913" lon="1.44418">
        <ele>205</ele>
        <time>2025-02-15T09:14:21Z</time>
      </trkpt>
      <trkpt lat="43.54913" lon="1.44418">
        <ele>204</ele>
        <time>2025-02-15T09:14:22Z</time>
      </trkpt>
      <trkpt lat="43.54916" lon="1.44418">
        <ele>204</ele>
        <time>2025-02-15T09:14:23Z</time>
      </trkpt>
      <trkpt lat="43.54916" lon="1.44418">
        <ele>204</ele>
        <time>2025-02-15T09:14:24Z</time>
      </trkpt>
      <trkpt lat="43.54918" lon="1.44418">
        <ele>204</ele>
        <time>2025-02-15T09:14:25Z</time>
      </trkpt>
      <trkpt lat="43.54918" lon="1.44418">
        <ele>204</ele>
        <time>2025-02-15T09:14:26Z</time>
      </trkpt>
      <trkpt lat="43.5492" lon="1.44418">
        <ele>204</ele>
        <time>2025-02-15T09:14:27Z</time>
      </trkpt>
      <trkpt lat="43.5492" lon="1.44418">
        <ele>204</ele>
        <time>2025-02-15T09:14:28Z</time>
      </trkpt>
      <trkpt lat="43.54923" lon="1.44418">
        <ele>204</ele>
        <time>2025-02-15T09:14:29Z</time>
      </trkpt>
      <trkpt lat="43.54925" lon="1.44418">
        <ele>204</ele>
        <time>2025-02-15T09:14:31Z</time>
      </trkpt>
      <trkpt lat="43.54928" lon="1.44416">
        <ele>204</ele>
        <time>2025-02-15T09:14:33Z</time>
      </trkpt>
      <trkpt lat="43.54928" lon="1.44416">
        <ele>203</ele>
        <time>2025-02-15T09:14:34Z</time>
      </trkpt>
      <trkpt lat="43.54929" lon="1.44413">
        <ele>203</ele>
        <time>2025-02-15T09:14:35Z</time>
      </trkpt>
      <trkpt lat="43.54929" lon="1.44413">
        <ele>202</ele>
        <time>2025-02-15T09:14:36Z</time>
      </trkpt>
      <trkpt lat="43.5493" lon="1.4441">
        <ele>202</ele>
        <time>2025-02-15T09:14:37Z</time>
      </trkpt>
      <trkpt lat="43.5493" lon="1.4441">
        <ele>202</ele>
        <time>2025-02-15T09:14:38Z</time>
      </trkpt>
      <trkpt lat="43.54932" lon="1.44407">
        <ele>201</ele>
        <time>2025-02-15T09:14:39Z</time>
      </trkpt>
      <trkpt lat="43.54933" lon="1.44403">
        <ele>201</ele>
        <time>2025-02-15T09:14:41Z</time>
      </trkpt>
      <trkpt lat="43.54934" lon="1.44401">
        <ele>201</ele>
        <time>2025-02-15T09:14:42Z</time>
      </trkpt>
      <trkpt lat="43.54935" lon="1.44399">
        <ele>200</ele>
        <time>2025-02-15T09:14:43Z</time>
      </trkpt>
      <trkpt lat="43.54935" lon="1.44399">
        <ele>200</ele>
        <time>2025-02-15T09:14:44Z</time>
      </trkpt>
      <trkpt lat="43.54938" lon="1.44396">
        <ele>200</ele>
        <time>2025-02-15T09:14:45Z</time>
      </trkpt>
      <trkpt lat="43.5494" lon="1.44395">
        <ele>200</ele>
        <time>2025-02-15T09:14:46Z</time>
      </trkpt>
      <trkpt lat="43.54941" lon="1.44393">
        <ele>200</ele>
        <time>2025-02-15T09:14:47Z</time>
      </trkpt>
      <trkpt lat="43.54943" lon="1.44392">
        <ele>200</ele>
        <time>2025-02-15T09:14:48Z</time>
      </trkpt>
      <trkpt lat="43.54944" lon="1.44389">
        <ele>200</ele>
        <time>2025-02-15T09:14:49Z</time>
      </trkpt>
      <trkpt lat="43.54944" lon="1.44389">
        <ele>200</ele>
        <time>2025-02-15T09:14:50Z</time>
      </trkpt>
      <trkpt lat="43.54945" lon="1.44385">
        <ele>200</ele>
        <time>2025-02-15T09:14:51Z</time>
      </trkpt>
      <trkpt lat="43.54945" lon="1.44381">
        <ele>199</ele>
        <time>2025-02-15T09:14:53Z</time>
      </trkpt>
      <trkpt lat="43.54945" lon="1.44381">
        <ele>199</ele>
        <time>2025-02-15T09:14:54Z</time>
      </trkpt>
      <trkpt lat="43.54945" lon="1.44377">
        <ele>199</ele>
        <time>2025-02-15T09:14:55Z</time>
      </trkpt>
      <trkpt lat="43.54946" lon="1.44374">
        <ele>198</ele>
        <time>2025-02-15T09:14:57Z</time>
      </trkpt>
      <trkpt lat="43.54946" lon="1.44374">
        <ele>198</ele>
        <time>2025-02-15T09:14:58Z</time>
      </trkpt>
      <trkpt lat="43.54945" lon="1.44371">
        <ele>197</ele>
        <time>2025-02-15T09:14:59Z</time>
      </trkpt>
      <trkpt lat="43.54944" lon="1.44368">
        <ele>197</ele>
        <time>2025-02-15T09:15:01Z</time>
      </trkpt>
      <trkpt lat="43.54944" lon="1.44368">
        <ele>197</ele>
        <time>2025-02-15T09:15:02Z</time>
      </trkpt>
      <trkpt lat="43.54943" lon="1.44364">
        <ele>197</ele>
        <time>2025-02-15T09:15:03Z</time>
      </trkpt>
      <trkpt lat="43.54943" lon="1.44364">
        <ele>195</ele>
        <time>2025-02-15T09:15:04Z</time>
      </trkpt>
      <trkpt lat="43.54941" lon="1.4436">
        <ele>195</ele>
        <time>2025-02-15T09:15:05Z</time>
      </trkpt>
      <trkpt lat="43.54941" lon="1.4436">
        <ele>195</ele>
        <time>2025-02-15T09:15:06Z</time>
      </trkpt>
      <trkpt lat="43.5494" lon="1.44357">
        <ele>195</ele>
        <time>2025-02-15T09:15:07Z</time>
      </trkpt>
      <trkpt lat="43.5494" lon="1.44357">
        <ele>195</ele>
        <time>2025-02-15T09:15:09Z</time>
      </trkpt>
      <trkpt lat="43.54939" lon="1.44354">
        <ele>195</ele>
        <time>2025-02-15T09:15:10Z</time>
      </trkpt>
      <trkpt lat="43.54939" lon="1.44354">
        <ele>195</ele>
        <time>2025-02-15T09:15:11Z</time>
      </trkpt>
      <trkpt lat="43.54938" lon="1.44352">
        <ele>194</ele>
        <time>2025-02-15T09:15:12Z</time>
      </trkpt>
      <trkpt lat="43.54938" lon="1.44352">
        <ele>194</ele>
        <time>2025-02-15T09:15:13Z</time>
      </trkpt>
      <trkpt lat="43.54937" lon="1.44348">
        <ele>194</ele>
        <time>2025-02-15T09:15:14Z</time>
      </trkpt>
      <trkpt lat="43.54935" lon="1.44345">
        <ele>193</ele>
        <time>2025-02-15T09:15:16Z</time>
      </trkpt>
      <trkpt lat="43.54935" lon="1.44341">
        <ele>192</ele>
        <time>2025-02-15T09:15:18Z</time>
      </trkpt>
      <trkpt lat="43.54934" lon="1.44339">
        <ele>191</ele>
        <time>2025-02-15T09:15:19Z</time>
      </trkpt>
      <trkpt lat="43.54933" lon="1.44336">
        <ele>191</ele>
        <time>2025-02-15T09:15:20Z</time>
      </trkpt>
      <trkpt lat="43.54932" lon="1.44334">
        <ele>191</ele>
        <time>2025-02-15T09:15:21Z</time>
      </trkpt>
      <trkpt lat="43.5493" lon="1.44331">
        <ele>190</ele>
        <time>2025-02-15T09:15:23Z</time>
      </trkpt>
      <trkpt lat="43.54929" lon="1.44328">
        <ele>190</ele>
        <time>2025-02-15T09:15:25Z</time>
      </trkpt>
      <trkpt lat="43.54929" lon="1.44328">
        <ele>190</ele>
        <time>2025-02-15T09:15:26Z</time>
      </trkpt>
      <trkpt lat="43.54929" lon="1.44326">
        <ele>190</ele>
        <time>2025-02-15T09:15:27Z</time>
      </trkpt>
      <trkpt lat="43.54929" lon="1.44326">
        <ele>189</ele>
        <time>2025-02-15T09:15:28Z</time>
      </trkpt>
      <trkpt lat="43.54929" lon="1.44323">
        <ele>189</ele>
        <time>2025-02-15T09:15:29Z</time>
      </trkpt>
      <trkpt lat="43.54929" lon="1.44323">
        <ele>189</ele>
        <time>2025-02-15T09:15:30Z</time>
      </trkpt>
      <trkpt lat="43.54929" lon="1.4432">
        <ele>188</ele>
        <time>2025-02-15T09:15:31Z</time>
      </trkpt>
      <trkpt lat="43.54929" lon="1.4432">
        <ele>188</ele>
        <time>2025-02-15T09:15:32Z</time>
      </trkpt>
      <trkpt lat="43.54931" lon="1.44319">
        <ele>187</ele>
        <time>2025-02-15T09:15:33Z</time>
      </trkpt>
      <trkpt lat="43.54934" lon="1.44319">
        <ele>186</ele>
        <time>2025-02-15T09:15:35Z</time>
      </trkpt>
      <trkpt lat="43.54937" lon="1.44319">
        <ele>185</ele>
        <time>2025-02-15T09:15:37Z</time>
      </trkpt>
      <trkpt lat="43.54937" lon="1.44319">
        <ele>185</ele>
        <time>2025-02-15T09:15:38Z</time>
      </trkpt>
      <trkpt lat="43.54937" lon="1.44319">
        <ele>185</ele>
        <time>2025-02-15T09:15:39Z</time>
      </trkpt>
      <trkpt lat="43.5494" lon="1.44319">
        <ele>185</ele>
        <time>2025-02-15T09:15:40Z</time>
      </trkpt>
      <trkpt lat="43.5494" lon="1.44319">
        <ele>185</ele>
        <time>2025-02-15T09:15:41Z</time>
      </trkpt>
      <trkpt lat="43.54941" lon="1.4432">
        <ele>185</ele>
        <time>2025-02-15T09:15:42Z</time>
      </trkpt>
      <trkpt lat="43.54941" lon="1.4432">
        <ele>185</ele>
        <time>2025-02-15T09:15:43Z</time>
      </trkpt>
      <trkpt lat="43.54941" lon="1.4432">
        <ele>185</ele>
        <time>2025-02-15T09:15:44Z</time>
      </trkpt>
      <trkpt lat="43.54943" lon="1.44319">
        <ele>185</ele>
        <time>2025-02-15T09:15:45Z</time>
      </trkpt>
      <trkpt lat="43.54943" lon="1.44319">
        <ele>185</ele>
        <time>2025-02-15T09:15:46Z</time>
      </trkpt>
      <trkpt lat="43.54944" lon="1.44317">
        <ele>184</ele>
        <time>2025-02-15T09:15:48Z</time>
      </trkpt>
      <trkpt lat="43.54944" lon="1.44317">
        <ele>183</ele>
        <time>2025-02-15T09:15:50Z</time>
      </trkpt>
      <trkpt lat="43.54944" lon="1.44314">
        <ele>183</ele>
        <time>2025-02-15T09:15:51Z</time>
      </trkpt>
      <trkpt lat="43.54944" lon="1.44314">
        <ele>182</ele>
        <time>2025-02-15T09:15:52Z</time>
      </trkpt>
      <trkpt lat="43.54944" lon="1.44311">
        <ele>181</ele>
        <time>2025-02-15T09:15:54Z</time>
      </trkpt>
      <trkpt lat="43.54944" lon="1.44311">
        <ele>180</ele>
        <time>2025-02-15T09:15:56Z</time>
      </trkpt>
      <trkpt lat="43.54943" lon="1.44308">
        <ele>180</ele>
        <time>2025-02-15T09:15:57Z</time>
      </trkpt>
      <trkpt lat="43.54943" lon="1.44308">
        <ele>180</ele>
        <time>2025-02-15T09:15:58Z</time>
      </trkpt>
      <trkpt lat="43.54943" lon="1.44308">
        <ele>179</ele>
        <time>2025-02-15T09:15:59Z</time>
      </trkpt>
      <trkpt lat="43.54941" lon="1.44305">
        <ele>179</ele>
        <time>2025-02-15T09:16:00Z</time>
      </trkpt>
      <trkpt lat="43.54941" lon="1.44305">
        <ele>179</ele>
        <time>2025-02-15T09:16:01Z</time>
      </trkpt>
      <trkpt lat="43.54941" lon="1.44301">
        <ele>179</ele>
        <time>2025-02-15T09:16:03Z</time>
      </trkpt>
      <trkpt lat="43.54941" lon="1.44301">
        <ele>178</ele>
        <time>2025-02-15T09:16:04Z</time>
      </trkpt>
      <trkpt lat="43.54941" lon="1.44298">
        <ele>178</ele>
        <time>2025-02-15T09:16:05Z</time>
      </trkpt>
      <trkpt lat="43.54941" lon="1.44298">
        <ele>177</ele>
        <time>2025-02-15T09:16:06Z</time>
      </trkpt>
      <trkpt lat="43.5494" lon="1.44295">
        <ele>177</ele>
        <time>2025-02-15T09:16:07Z</time>
      </trkpt>
      <trkpt lat="43.5494" lon="1.44295">
        <ele>176</ele>
        <time>2025-02-15T09:16:08Z</time>
      </trkpt>
      <trkpt lat="43.54941" lon="1.44292">
        <ele>176</ele>
        <time>2025-02-15T09:16:09Z</time>
      </trkpt>
      <trkpt lat="43.54941" lon="1.44292">
        <ele>176</ele>
        <time>2025-02-15T09:16:10Z</time>
      </trkpt>
      <trkpt lat="43.54941" lon="1.44287">
        <ele>175</ele>
        <time>2025-02-15T09:16:11Z</time>
      </trkpt>
      <trkpt lat="43.54941" lon="1.44282">
        <ele>175</ele>
        <time>2025-02-15T09:16:12Z</time>
      </trkpt>
      <trkpt lat="43.54941" lon="1.44281">
        <ele>174</ele>
        <time>2025-02-15T09:16:13Z</time>
      </trkpt>
      <trkpt lat="43.5494" lon="1.44279">
        <ele>174</ele>
        <time>2025-02-15T09:16:14Z</time>
      </trkpt>
      <trkpt lat="43.5494" lon="1.44279">
        <ele>173</ele>
        <time>2025-02-15T09:16:15Z</time>
      </trkpt>
      <trkpt lat="43.54941" lon="1.44274">
        <ele>173</ele>
        <time>2025-02-15T09:16:16Z</time>
      </trkpt>
      <trkpt lat="43.54941" lon="1.44274">
        <ele>172</ele>
        <time>2025-02-15T09:16:17Z</time>
      </trkpt>
      <trkpt lat="43.54942" lon="1.44269">
        <ele>172</ele>
        <time>2025-02-15T09:16:18Z</time>
      </trkpt>
      <trkpt lat="43.54942" lon="1.44266">
        <ele>172</ele>
        <time>2025-02-15T09:16:19Z</time>
      </trkpt>
      <trkpt lat="43.54941" lon="1.44264">
        <ele>171</ele>
        <time>2025-02-15T09:16:20Z</time>
      </trkpt>
      <trkpt lat="43.5494" lon="1.4426">
        <ele>171</ele>
        <time>2025-02-15T09:16:21Z</time>
      </trkpt>
      <trkpt lat="43.54939" lon="1.44259">
        <ele>170</ele>
        <time>2025-02-15T09:16:22Z</time>
      </trkpt>
      <trkpt lat="43.54938" lon="1.44256">
        <ele>170</ele>
        <time>2025-02-15T09:16:23Z</time>
      </trkpt>
      <trkpt lat="43.54937" lon="1.44253">
        <ele>170</ele>
        <time>2025-02-15T09:16:24Z</time>
      </trkpt>
      <trkpt lat="43.54937" lon="1.4425">
        <ele>170</ele>
        <time>2025-02-15T09:16:25Z</time>
      </trkpt>
      <trkpt lat="43.54936" lon="1.44247">
        <ele>170</ele>
        <time>2025-02-15T09:16:26Z</time>
      </trkpt>
      <trkpt lat="43.54935" lon="1.44244">
        <ele>170</ele>
        <time>2025-02-15T09:16:27Z</time>
      </trkpt>
      <trkpt lat="43.54935" lon="1.44241">
        <ele>169</ele>
        <time>2025-02-15T09:16:28Z</time>
      </trkpt>
      <trkpt lat="43.54935" lon="1.44238">
        <ele>169</ele>
        <time>2025-02-15T09:16:29Z</time>
      </trkpt>
      <trkpt lat="43.54935" lon="1.44233">
        <ele>169</ele>
        <time>2025-02-15T09:16:30Z</time>
      </trkpt>
      <trkpt lat="43.54935" lon="1.44231">
        <ele>167</ele>
        <time>2025-02-15T09:16:31Z</time>
      </trkpt>
      <trkpt lat="43.54934" lon="1.44228">
        <ele>167</ele>
        <time>2025-02-15T09:16:32Z</time>
      </trkpt>
      <trkpt lat="43.54934" lon="1.44225">
        <ele>167</ele>
        <time>2025-02-15T09:16:33Z</time>
      </trkpt>
      <trkpt lat="43.54933" lon="1.44222">
        <ele>167</ele>
        <time>2025-02-15T09:16:34Z</time>
      </trkpt>
      <trkpt lat="43.54931" lon="1.44219">
        <ele>166</ele>
        <time>2025-02-15T09:16:36Z</time>
      </trkpt>
      <trkpt lat="43.54929" lon="1.44214">
        <ele>166</ele>
        <time>2025-02-15T09:16:38Z</time>
      </trkpt>
      <trkpt lat="43.54929" lon="1.4421">
        <ele>166</ele>
        <time>2025-02-15T09:16:39Z</time>
      </trkpt>
      <trkpt lat="43.54928" lon="1.44207">
        <ele>165</ele>
        <time>2025-02-15T09:16:40Z</time>
      </trkpt>
      <trkpt lat="43.54928" lon="1.44203">
        <ele>165</ele>
        <time>2025-02-15T09:16:41Z</time>
      </trkpt>
      <trkpt lat="43.54928" lon="1.44198">
        <ele>165</ele>
        <time>2025-02-15T09:16:42Z</time>
      </trkpt>
      <trkpt lat="43.54928" lon="1.44197">
        <ele>164</ele>
        <time>2025-02-15T09:16:43Z</time>
      </trkpt>
      <trkpt lat="43.54927" lon="1.44194">
        <ele>164</ele>
        <time>2025-02-15T09:16:44Z</time>
      </trkpt>
      <trkpt lat="43.54927" lon="1.44194">
        <ele>163</ele>
        <time>2025-02-15T09:16:45Z</time>
      </trkpt>
      <trkpt lat="43.54927" lon="1.44187">
        <ele>162</ele>
        <time>2025-02-15T09:16:47Z</time>
      </trkpt>
      <trkpt lat="43.54926" lon="1.44181">
        <ele>162</ele>
        <time>2025-02-15T09:16:48Z</time>
      </trkpt>
      <trkpt lat="43.54925" lon="1.44177">
        <ele>162</ele>
        <time>2025-02-15T09:16:49Z</time>
      </trkpt>
      <trkpt lat="43.54924" lon="1.44173">
        <ele>162</ele>
        <time>2025-02-15T09:16:50Z</time>
      </trkpt>
      <trkpt lat="43.54923" lon="1.44169">
        <ele>162</ele>
        <time>2025-02-15T09:16:51Z</time>
      </trkpt>
      <trkpt lat="43.54923" lon="1.44169">
        <ele>161</ele>
        <time>2025-02-15T09:16:53Z</time>
      </trkpt>
      <trkpt lat="43.54919" lon="1.44154">
        <ele>161</ele>
        <time>2025-02-15T09:16:55Z</time>
      </trkpt>
      <trkpt lat="43.54919" lon="1.4415">
        <ele>161</ele>
        <time>2025-02-15T09:16:56Z</time>
      </trkpt>
      <trkpt lat="43.54918" lon="1.44146">
        <ele>161</ele>
        <time>2025-02-15T09:16:57Z</time>
      </trkpt>
      <trkpt lat="43.54917" lon="1.44142">
        <ele>161</ele>
        <time>2025-02-15T09:16:58Z</time>
      </trkpt>
      <trkpt lat="43.54917" lon="1.44135">
        <ele>160</ele>
        <time>2025-02-15T09:17:00Z</time>
      </trkpt>
      <trkpt lat="43.54917" lon="1.44129">
        <ele>160</ele>
        <time>2025-02-15T09:17:02Z</time>
      </trkpt>
      <trkpt lat="43.54916" lon="1.44122">
        <ele>160</ele>
        <time>2025-02-15T09:17:03Z</time>
      </trkpt>
      <trkpt lat="43.54917" lon="1.44118">
        <ele>160</ele>
        <time>2025-02-15T09:17:04Z</time>
      </trkpt>
      <trkpt lat="43.54917" lon="1.44113">
        <ele>160</ele>
        <time>2025-02-15T09:17:05Z</time>
      </trkpt>
      <trkpt lat="43.54918" lon="1.44109">
        <ele>159</ele>
        <time>2025-02-15T09:17:06Z</time>
      </trkpt>
      <trkpt lat="43.54918" lon="1.44105">
        <ele>159</ele>
        <time>2025-02-15T09:17:07Z</time>
      </trkpt>
      <trkpt lat="43.54919" lon="1.441">
        <ele>158</ele>
        <time>2025-02-15T09:17:08Z</time>
      </trkpt>
      <trkpt lat="43.5492" lon="1.44094">
        <ele>158</ele>
        <time>2025-02-15T09:17:09Z</time>
      </trkpt>
      <trkpt lat="43.5492" lon="1.44093">
        <ele>157</ele>
        <time>2025-02-15T09:17:10Z</time>
      </trkpt>
      <trkpt lat="43.54922" lon="1.44087">
        <ele>157</ele>
        <time>2025-02-15T09:17:11Z</time>
      </trkpt>
      <trkpt lat="43.54923" lon="1.44086">
        <ele>156</ele>
        <time>2025-02-15T09:17:12Z</time>
      </trkpt>
      <trkpt lat="43.54925" lon="1.44083">
        <ele>156</ele>
        <time>2025-02-15T09:17:13Z</time>
      </trkpt>
      <trkpt lat="43.54927" lon="1.44081">
        <ele>156</ele>
        <time>2025-02-15T09:17:14Z</time>
      </trkpt>
      <trkpt lat="43.54927" lon="1.44081">
        <ele>156</ele>
        <time>2025-02-15T09:17:15Z</time>
      </trkpt>
      <trkpt lat="43.5493" lon="1.44083">
        <ele>156</ele>
        <time>2025-02-15T09:17:16Z</time>
      </trkpt>
      <trkpt lat="43.5493" lon="1.44083">
        <ele>156</ele>
        <time>2025-02-15T09:17:17Z</time>
      </trkpt>
      <trkpt lat="43.5493" lon="1.44086">
        <ele>156</ele>
        <time>2025-02-15T09:17:18Z</time>
      </trkpt>
      <trkpt lat="43.5493" lon="1.44086">
        <ele>157</ele>
        <time>2025-02-15T09:17:19Z</time>
      </trkpt>
      <trkpt lat="43.5493" lon="1.4409">
        <ele>157</ele>
        <time>2025-02-15T09:17:20Z</time>
      </trkpt>
      <trkpt lat="43.5493" lon="1.4409">
        <ele>158</ele>
        <time>2025-02-15T09:17:21Z</time>
      </trkpt>
      <trkpt lat="43.54931" lon="1.44093">
        <ele>158</ele>
        <time>2025-02-15T09:17:22Z</time>
      </trkpt>
      <trkpt lat="43.54931" lon="1.44096">
        <ele>159</ele>
        <time>2025-02-15T09:17:24Z</time>
      </trkpt>
      <trkpt lat="43.54931" lon="1.44096">
        <ele>159</ele>
        <time>2025-02-15T09:17:25Z</time>
      </trkpt>
      <trkpt lat="43.54932" lon="1.44099">
        <ele>159</ele>
        <time>2025-02-15T09:17:26Z</time>
      </trkpt>
      <trkpt lat="43.54932" lon="1.44103">
        <ele>161</ele>
        <time>2025-02-15T09:17:28Z</time>
      </trkpt>
      <trkpt lat="43.54932" lon="1.44103">
        <ele>161</ele>
        <time>2025-02-15T09:17:29Z</time>
      </trkpt>
      <trkpt lat="43.54932" lon="1.44107">
        <ele>161</ele>
        <time>2025-02-15T09:17:30Z</time>
      </trkpt>
      <trkpt lat="43.54932" lon="1.44107">
        <ele>161</ele>
        <time>2025-02-15T09:17:31Z</time>
      </trkpt>
      <trkpt lat="43.54932" lon="1.4411">
        <ele>161</ele>
        <time>2025-02-15T09:17:32Z</time>
      </trkpt>
      <trkpt lat="43.54932" lon="1.4411">
        <ele>161</ele>
        <time>2025-02-15T09:17:33Z</time>
      </trkpt>
      <trkpt lat="43.54932" lon="1.44113">
        <ele>161</ele>
        <time>2025-02-15T09:17:34Z</time>
      </trkpt>
      <trkpt lat="43.54932" lon="1.44113">
        <ele>161</ele>
        <time>2025-02-15T09:17:35Z</time>
      </trkpt>
      <trkpt lat="43.54932" lon="1.44117">
        <ele>161</ele>
        <time>2025-02-15T09:17:36Z</time>
      </trkpt>
      <trkpt lat="43.54932" lon="1.44117">
        <ele>162</ele>
        <time>2025-02-15T09:17:37Z</time>
      </trkpt>
      <trkpt lat="43.54932" lon="1.44122">
        <ele>163</ele>
        <time>2025-02-15T09:17:38Z</time>
      </trkpt>
      <trkpt lat="43.54932" lon="1.44125">
        <ele>164</ele>
        <time>2025-02-15T09:17:40Z</time>
      </trkpt>
      <trkpt lat="43.54932" lon="1.44125">
        <ele>164</ele>
        <time>2025-02-15T09:17:41Z</time>
      </trkpt>
      <trkpt lat="43.54932" lon="1.44128">
        <ele>164</ele>
        <time>2025-02-15T09:17:42Z</time>
      </trkpt>
      <trkpt lat="43.54931" lon="1.44131">
        <ele>165</ele>
        <time>2025-02-15T09:17:44Z</time>
      </trkpt>
      <trkpt lat="43.54931" lon="1.44131">
        <ele>165</ele>
        <time>2025-02-15T09:17:45Z</time>
      </trkpt>
      <trkpt lat="43.54931" lon="1.44135">
        <ele>165</ele>
        <time>2025-02-15T09:17:46Z</time>
      </trkpt>
      <trkpt lat="43.54932" lon="1.44138">
        <ele>165</ele>
        <time>2025-02-15T09:17:48Z</time>
      </trkpt>
      <trkpt lat="43.54933" lon="1.44142">
        <ele>165</ele>
        <time>2025-02-15T09:17:50Z</time>
      </trkpt>
      <trkpt lat="43.54933" lon="1.44142">
        <ele>165</ele>
        <time>2025-02-15T09:17:51Z</time>
      </trkpt>
      <trkpt lat="43.54934" lon="1.44146">
        <ele>165</ele>
        <time>2025-02-15T09:17:52Z</time>
      </trkpt>
      <trkpt lat="43.54934" lon="1.44146">
        <ele>165</ele>
        <time>2025-02-15T09:17:53Z</time>
      </trkpt>
      <trkpt lat="43.54935" lon="1.44149">
        <ele>165</ele>
        <time>2025-02-15T09:17:54Z</time>
      </trkpt>
      <trkpt lat="43.54935" lon="1.44149">
        <ele>166</ele>
        <time>2025-02-15T09:17:55Z</time>
      </trkpt>
      <trkpt lat="43.54936" lon="1.44153">
        <ele>166</ele>
        <time>2025-02-15T09:17:56Z</time>
      </trkpt>
      <trkpt lat="43.54936" lon="1.44153">
        <ele>167</ele>
        <time>2025-02-15T09:17:57Z</time>
      </trkpt>
      <trkpt lat="43.54937" lon="1.44156">
        <ele>167</ele>
        <time>2025-02-15T09:17:58Z</time>
      </trkpt>
      <trkpt lat="43.54937" lon="1.44156">
        <ele>167</ele>
        <time>2025-02-15T09:17:59Z</time>
      </trkpt>
      <trkpt lat="43.54939" lon="1.44159">
        <ele>167</ele>
        <time>2025-02-15T09:18:00Z</time>
      </trkpt>
      <trkpt lat="43.5494" lon="1.44163">
        <ele>167</ele>
        <time>2025-02-15T09:18:02Z</time>
      </trkpt>
      <trkpt lat="43.5494" lon="1.44163">
        <ele>168</ele>
        <time>2025-02-15T09:18:03Z</time>
      </trkpt>
      <trkpt lat="43.54941" lon="1.44167">
        <ele>168</ele>
        <time>2025-02-15T09:18:04Z</time>
      </trkpt>
      <trkpt lat="43.54941" lon="1.44167">
        <ele>168</ele>
        <time>2025-02-15T09:18:05Z</time>
      </trkpt>
      <trkpt lat="43.54944" lon="1.44169">
        <ele>168</ele>
        <time>2025-02-15T09:18:06Z</time>
      </trkpt>
      <trkpt lat="43.54944" lon="1.44169">
        <ele>169</ele>
        <time>2025-02-15T09:18:07Z</time>
      </trkpt>
      <trkpt lat="43.54946" lon="1.44172">
        <ele>169</ele>
        <time>2025-02-15T09:18:08Z</time>
      </trkpt>
      <trkpt lat="43.54946" lon="1.44172">
        <ele>169</ele>
        <time>2025-02-15T09:18:09Z</time>
      </trkpt>
      <trkpt lat="43.54947" lon="1.44175">
        <ele>169</ele>
        <time>2025-02-15T09:18:10Z</time>
      </trkpt>
      <trkpt lat="43.54947" lon="1.44175">
        <ele>169</ele>
        <time>2025-02-15T09:18:11Z</time>
      </trkpt>
      <trkpt lat="43.54949" lon="1.44178">
        <ele>169</ele>
        <time>2025-02-15T09:18:12Z</time>
      </trkpt>
      <trkpt lat="43.5495" lon="1.44182">
        <ele>169</ele>
        <time>2025-02-15T09:18:14Z</time>
      </trkpt>
      <trkpt lat="43.54952" lon="1.44185">
        <ele>170</ele>
        <time>2025-02-15T09:18:16Z</time>
      </trkpt>
      <trkpt lat="43.54952" lon="1.44185">
        <ele>170</ele>
        <time>2025-02-15T09:18:17Z</time>
      </trkpt>
      <trkpt lat="43.54953" lon="1.44188">
        <ele>170</ele>
        <time>2025-02-15T09:18:18Z</time>
      </trkpt>
      <trkpt lat="43.54953" lon="1.44188">
        <ele>170</ele>
        <time>2025-02-15T09:18:19Z</time>
      </trkpt>
      <trkpt lat="43.54954" lon="1.44192">
        <ele>170</ele>
        <time>2025-02-15T09:18:20Z</time>
      </trkpt>
      <trkpt lat="43.54954" lon="1.44192">
        <ele>170</ele>
        <time>2025-02-15T09:18:21Z</time>
      </trkpt>
      <trkpt lat="43.54955" lon="1.44196">
        <ele>172</ele>
        <time>2025-02-15T09:18:22Z</time>
      </trkpt>
      <trkpt lat="43.54955" lon="1.44196">
        <ele>172</ele>
        <time>2025-02-15T09:18:23Z</time>
      </trkpt>
      <trkpt lat="43.54957" lon="1.44198">
        <ele>172</ele>
        <time>2025-02-15T09:18:24Z</time>
      </trkpt>
      <trkpt lat="43.5496" lon="1.44201">
        <ele>173</ele>
        <time>2025-02-15T09:18:26Z</time>
      </trkpt>
      <trkpt lat="43.54962" lon="1.44204">
        <ele>173</ele>
        <time>2025-02-15T09:18:28Z</time>
      </trkpt>
      <trkpt lat="43.54962" lon="1.44204">
        <ele>173</ele>
        <time>2025-02-15T09:18:29Z</time>
      </trkpt>
      <trkpt lat="43.54964" lon="1.44208">
        <ele>173</ele>
        <time>2025-02-15T09:18:30Z</time>
      </trkpt>
      <trkpt lat="43.54965" lon="1.44209">
        <ele>173</ele>
        <time>2025-02-15T09:18:31Z</time>
      </trkpt>
      <trkpt lat="43.54968" lon="1.44212">
        <ele>174</ele>
        <time>2025-02-15T09:18:33Z</time>
      </trkpt>
      <trkpt lat="43.54969" lon="1.44214">
        <ele>174</ele>
        <time>2025-02-15T09:18:35Z</time>
      </trkpt>
      <trkpt lat="43.54969" lon="1.44214">
        <ele>174</ele>
        <time>2025-02-15T09:18:36Z</time>
      </trkpt>
      <trkpt lat="43.54972" lon="1.44218">
        <ele>174</ele>
        <time>2025-02-15T09:18:37Z</time>
      </trkpt>
      <trkpt lat="43.54972" lon="1.44218">
        <ele>174</ele>
        <time>2025-02-15T09:18:38Z</time>
      </trkpt>
      <trkpt lat="43.54974" lon="1.44221">
        <ele>174</ele>
        <time>2025-02-15T09:18:39Z</time>
      </trkpt>
      <trkpt lat="43.54974" lon="1.44221">
        <ele>175</ele>
        <time>2025-02-15T09:18:40Z</time>
      </trkpt>
      <trkpt lat="43.54975" lon="1.44223">
        <ele>175</ele>
        <time>2025-02-15T09:18:41Z</time>
      </trkpt>
      <trkpt lat="43.54975" lon="1.44223">
        <ele>175</ele>
        <time>2025-02-15T09:18:42Z</time>
      </trkpt>
      <trkpt lat="43.54977" lon="1.44226">
        <ele>176</ele>
        <time>2025-02-15T09:18:43Z</time>
      </trkpt>
      <trkpt lat="43.54977" lon="1.44226">
        <ele>176</ele>
        <time>2025-02-15T09:18:44Z</time>
      </trkpt>
      <trkpt lat="43.54979" lon="1.44229">
        <ele>176</ele>
        <time>2025-02-15T09:18:45Z</time>
      </trkpt>
      <trkpt lat="43.54981" lon="1.44232">
        <ele>176</ele>
        <time>2025-02-15T09:18:47Z</time>
      </trkpt>
      <trkpt lat="43.54982" lon="1.44236">
        <ele>177</ele>
        <time>2025-02-15T09:18:49Z</time>
      </trkpt>
      <trkpt lat="43.54982" lon="1.44236">
        <ele>177</ele>
        <time>2025-02-15T09:18:50Z</time>
      </trkpt>
      <trkpt lat="43.54983" lon="1.44239">
        <ele>178</ele>
        <time>2025-02-15T09:18:51Z</time>
      </trkpt>
      <trkpt lat="43.54983" lon="1.44239">
        <ele>178</ele>
        <time>2025-02-15T09:18:52Z</time>
      </trkpt>
      <trkpt lat="43.54985" lon="1.44241">
        <ele>178</ele>
        <time>2025-02-15T09:18:53Z</time>
      </trkpt>
      <trkpt lat="43.54985" lon="1.44241">
        <ele>179</ele>
        <time>2025-02-15T09:18:54Z</time>
      </trkpt>
      <trkpt lat="43.54986" lon="1.44244">
        <ele>179</ele>
        <time>2025-02-15T09:18:55Z</time>
      </trkpt>
      <trkpt lat="43.54986" lon="1.44244">
        <ele>179</ele>
        <time>2025-02-15T09:18:56Z</time>
      </trkpt>
      <trkpt lat="43.54988" lon="1.44247">
        <ele>179</ele>
        <time>2025-02-15T09:18:57Z</time>
      </trkpt>
      <trkpt lat="43.54988" lon="1.44247">
        <ele>180</ele>
        <time>2025-02-15T09:18:58Z</time>
      </trkpt>
      <trkpt lat="43.5499" lon="1.4425">
        <ele>180</ele>
        <time>2025-02-15T09:18:59Z</time>
      </trkpt>
      <trkpt lat="43.5499" lon="1.4425">
        <ele>180</ele>
        <time>2025-02-15T09:19:00Z</time>
      </trkpt>
      <trkpt lat="43.54992" lon="1.44253">
        <ele>180</ele>
        <time>2025-02-15T09:19:01Z</time>
      </trkpt>
      <trkpt lat="43.54992" lon="1.44253">
        <ele>180</ele>
        <time>2025-02-15T09:19:02Z</time>
      </trkpt>
      <trkpt lat="43.54993" lon="1.44255">
        <ele>182</ele>
        <time>2025-02-15T09:19:04Z</time>
      </trkpt>
      <trkpt lat="43.54994" lon="1.44258">
        <ele>182</ele>
        <time>2025-02-15T09:19:06Z</time>
      </trkpt>
      <trkpt lat="43.54994" lon="1.44258">
        <ele>182</ele>
        <time>2025-02-15T09:19:07Z</time>
      </trkpt>
      <trkpt lat="43.54995" lon="1.44261">
        <ele>182</ele>
        <time>2025-02-15T09:19:08Z</time>
      </trkpt>
      <trkpt lat="43.54995" lon="1.44261">
        <ele>182</ele>
        <time>2025-02-15T09:19:09Z</time>
      </trkpt>
      <trkpt lat="43.54997" lon="1.44263">
        <ele>182</ele>
        <time>2025-02-15T09:19:10Z</time>
      </trkpt>
      <trkpt lat="43.54997" lon="1.44263">
        <ele>182</ele>
        <time>2025-02-15T09:19:11Z</time>
      </trkpt>
      <trkpt lat="43.54999" lon="1.44266">
        <ele>182</ele>
        <time>2025-02-15T09:19:12Z</time>
      </trkpt>
      <trkpt lat="43.54999" lon="1.44266">
        <ele>183</ele>
        <time>2025-02-15T09:19:13Z</time>
      </trkpt>
      <trkpt lat="43.55" lon="1.4427">
        <ele>183</ele>
        <time>2025-02-15T09:19:14Z</time>
      </trkpt>
      <trkpt lat="43.55" lon="1.4427">
        <ele>183</ele>
        <time>2025-02-15T09:19:15Z</time>
      </trkpt>
      <trkpt lat="43.55001" lon="1.44273">
        <ele>183</ele>
        <time>2025-02-15T09:19:16Z</time>
      </trkpt>
      <trkpt lat="43.55001" lon="1.44273">
        <ele>183</ele>
        <time>2025-02-15T09:19:17Z</time>
      </trkpt>
      <trkpt lat="43.55003" lon="1.44275">
        <ele>183</ele>
        <time>2025-02-15T09:19:18Z</time>
      </trkpt>
      <trkpt lat="43.55003" lon="1.44275">
        <ele>184</ele>
        <time>2025-02-15T09:19:19Z</time>
      </trkpt>
      <trkpt lat="43.55005" lon="1.44277">
        <ele>184</ele>
        <time>2025-02-15T09:19:20Z</time>
      </trkpt>
      <trkpt lat="43.55005" lon="1.44277">
        <ele>184</ele>
        <time>2025-02-15T09:19:21Z</time>
      </trkpt>
      <trkpt lat="43.55006" lon="1.4428">
        <ele>184</ele>
        <time>2025-02-15T09:19:22Z</time>
      </trkpt>
      <trkpt lat="43.55006" lon="1.4428">
        <ele>184</ele>
        <time>2025-02-15T09:19:23Z</time>
      </trkpt>
      <trkpt lat="43.55007" lon="1.44283">
        <ele>184</ele>
        <time>2025-02-15T09:19:24Z</time>
      </trkpt>
      <trkpt lat="43.55007" lon="1.44283">
        <ele>185</ele>
        <time>2025-02-15T09:19:25Z</time>
      </trkpt>
      <trkpt lat="43.55009" lon="1.44286">
        <ele>185</ele>
        <time>2025-02-15T09:19:26Z</time>
      </trkpt>
      <trkpt lat="43.55009" lon="1.44286">
        <ele>186</ele>
        <time>2025-02-15T09:19:27Z</time>
      </trkpt>
      <trkpt lat="43.5501" lon="1.44288">
        <ele>186</ele>
        <time>2025-02-15T09:19:28Z</time>
      </trkpt>
      <trkpt lat="43.5501" lon="1.44288">
        <ele>186</ele>
        <time>2025-02-15T09:19:29Z</time>
      </trkpt>
      <trkpt lat="43.55013" lon="1.44291">
        <ele>186</ele>
        <time>2025-02-15T09:19:30Z</time>
      </trkpt>
      <trkpt lat="43.55014" lon="1.44294">
        <ele>186</ele>
        <time>2025-02-15T09:19:32Z</time>
      </trkpt>
      <trkpt lat="43.55015" lon="1.44298">
        <ele>186</ele>
        <time>2025-02-15T09:19:34Z</time>
      </trkpt>
      <trkpt lat="43.55015" lon="1.44298">
        <ele>186</ele>
        <time>2025-02-15T09:19:35Z</time>
      </trkpt>
      <trkpt lat="43.55017" lon="1.443">
        <ele>186</ele>
        <time>2025-02-15T09:19:36Z</time>
      </trkpt>
      <trkpt lat="43.55018" lon="1.44304">
        <ele>186</ele>
        <time>2025-02-15T09:19:38Z</time>
      </trkpt>
      <trkpt lat="43.55019" lon="1.44306">
        <ele>186</ele>
        <time>2025-02-15T09:19:39Z</time>
      </trkpt>
      <trkpt lat="43.55019" lon="1.44306">
        <ele>187</ele>
        <time>2025-02-15T09:19:40Z</time>
      </trkpt>
      <trkpt lat="43.5502" lon="1.44309">
        <ele>187</ele>
        <time>2025-02-15T09:19:41Z</time>
      </trkpt>
      <trkpt lat="43.5502" lon="1.44309">
        <ele>187</ele>
        <time>2025-02-15T09:19:42Z</time>
      </trkpt>
      <trkpt lat="43.55022" lon="1.44313">
        <ele>187</ele>
        <time>2025-02-15T09:19:43Z</time>
      </trkpt>
      <trkpt lat="43.55022" lon="1.44313">
        <ele>189</ele>
        <time>2025-02-15T09:19:44Z</time>
      </trkpt>
      <trkpt lat="43.55023" lon="1.44316">
        <ele>189</ele>
        <time>2025-02-15T09:19:45Z</time>
      </trkpt>
      <trkpt lat="43.55023" lon="1.44316">
        <ele>189</ele>
        <time>2025-02-15T09:19:46Z</time>
      </trkpt>
      <trkpt lat="43.55025" lon="1.44319">
        <ele>189</ele>
        <time>2025-02-15T09:19:47Z</time>
      </trkpt>
      <trkpt lat="43.55025" lon="1.44319">
        <ele>190</ele>
        <time>2025-02-15T09:19:48Z</time>
      </trkpt>
      <trkpt lat="43.55026" lon="1.44323">
        <ele>190</ele>
        <time>2025-02-15T09:19:49Z</time>
      </trkpt>
      <trkpt lat="43.55027" lon="1.44326">
        <ele>190</ele>
        <time>2025-02-15T09:19:51Z</time>
      </trkpt>
      <trkpt lat="43.55027" lon="1.44326">
        <ele>189</ele>
        <time>2025-02-15T09:19:52Z</time>
      </trkpt>
      <trkpt lat="43.55028" lon="1.4433">
        <ele>189</ele>
        <time>2025-02-15T09:19:53Z</time>
      </trkpt>
      <trkpt lat="43.55028" lon="1.4433">
        <ele>190</ele>
        <time>2025-02-15T09:19:54Z</time>
      </trkpt>
      <trkpt lat="43.55027" lon="1.44332">
        <ele>190</ele>
        <time>2025-02-15T09:19:55Z</time>
      </trkpt>
      <trkpt lat="43.55027" lon="1.44334">
        <ele>190</ele>
        <time>2025-02-15T09:19:56Z</time>
      </trkpt>
      <trkpt lat="43.55027" lon="1.44336">
        <ele>191</ele>
        <time>2025-02-15T09:19:57Z</time>
      </trkpt>
      <trkpt lat="43.55027" lon="1.44339">
        <ele>191</ele>
        <time>2025-02-15T09:19:58Z</time>
      </trkpt>
      <trkpt lat="43.55028" lon="1.44341">
        <ele>191</ele>
        <time>2025-02-15T09:19:59Z</time>
      </trkpt>
      <trkpt lat="43.55028" lon="1.44343">
        <ele>191</ele>
        <time>2025-02-15T09:20:01Z</time>
      </trkpt>
      <trkpt lat="43.55029" lon="1.44345">
        <ele>191</ele>
        <time>2025-02-15T09:20:02Z</time>
      </trkpt>
      <trkpt lat="43.55029" lon="1.44347">
        <ele>191</ele>
        <time>2025-02-15T09:20:03Z</time>
      </trkpt>
      <trkpt lat="43.55029" lon="1.4435">
        <ele>192</ele>
        <time>2025-02-15T09:20:04Z</time>
      </trkpt>
      <trkpt lat="43.55029" lon="1.4435">
        <ele>192</ele>
        <time>2025-02-15T09:20:05Z</time>
      </trkpt>
      <trkpt lat="43.5503" lon="1.44353">
        <ele>192</ele>
        <time>2025-02-15T09:20:06Z</time>
      </trkpt>
      <trkpt lat="43.5503" lon="1.44356">
        <ele>192</ele>
        <time>2025-02-15T09:20:08Z</time>
      </trkpt>
      <trkpt lat="43.55031" lon="1.44359">
        <ele>192</ele>
        <time>2025-02-15T09:20:10Z</time>
      </trkpt>
      <trkpt lat="43.55031" lon="1.44359">
        <ele>192</ele>
        <time>2025-02-15T09:20:11Z</time>
      </trkpt>
      <trkpt lat="43.55032" lon="1.44363">
        <ele>192</ele>
        <time>2025-02-15T09:20:12Z</time>
      </trkpt>
      <trkpt lat="43.55032" lon="1.44363">
        <ele>192</ele>
        <time>2025-02-15T09:20:13Z</time>
      </trkpt>
      <trkpt lat="43.55031" lon="1.44366">
        <ele>192</ele>
        <time>2025-02-15T09:20:14Z</time>
      </trkpt>
      <trkpt lat="43.55031" lon="1.44366">
        <ele>192</ele>
        <time>2025-02-15T09:20:15Z</time>
      </trkpt>
      <trkpt lat="43.55032" lon="1.4437">
        <ele>192</ele>
        <time>2025-02-15T09:20:16Z</time>
      </trkpt>
      <trkpt lat="43.55032" lon="1.4437">
        <ele>192</ele>
        <time>2025-02-15T09:20:17Z</time>
      </trkpt>
      <trkpt lat="43.55034" lon="1.44374">
        <ele>192</ele>
        <time>2025-02-15T09:20:18Z</time>
      </trkpt>
      <trkpt lat="43.55034" lon="1.44374">
        <ele>192</ele>
        <time>2025-02-15T09:20:19Z</time>
      </trkpt>
      <trkpt lat="43.55034" lon="1.44377">
        <ele>192</ele>
        <time>2025-02-15T09:20:20Z</time>
      </trkpt>
      <trkpt lat="43.55035" lon="1.44381">
        <ele>193</ele>
        <time>2025-02-15T09:20:22Z</time>
      </trkpt>
      <trkpt lat="43.55035" lon="1.44381">
        <ele>194</ele>
        <time>2025-02-15T09:20:23Z</time>
      </trkpt>
      <trkpt lat="43.55037" lon="1.44385">
        <ele>194</ele>
        <time>2025-02-15T09:20:24Z</time>
      </trkpt>
      <trkpt lat="43.55037" lon="1.44385">
        <ele>194</ele>
        <time>2025-02-15T09:20:25Z</time>
      </trkpt>
      <trkpt lat="43.55037" lon="1.44389">
        <ele>194</ele>
        <time>2025-02-15T09:20:26Z</time>
      </trkpt>
      <trkpt lat="43.55037" lon="1.44389">
        <ele>194</ele>
        <time>2025-02-15T09:20:27Z</time>
      </trkpt>
      <trkpt lat="43.55037" lon="1.44392">
        <ele>194</ele>
        <time>2025-02-15T09:20:28Z</time>
      </trkpt>
      <trkpt lat="43.55037" lon="1.44392">
        <ele>194</ele>
        <time>2025-02-15T09:20:29Z</time>
      </trkpt>
      <trkpt lat="43.55039" lon="1.44397">
        <ele>194</ele>
        <time>2025-02-15T09:20:30Z</time>
      </trkpt>
      <trkpt lat="43.55039" lon="1.44397">
        <ele>195</ele>
        <time>2025-02-15T09:20:31Z</time>
      </trkpt>
      <trkpt lat="43.55039" lon="1.444">
        <ele>195</ele>
        <time>2025-02-15T09:20:32Z</time>
      </trkpt>
      <trkpt lat="43.55039" lon="1.444">
        <ele>195</ele>
        <time>2025-02-15T09:20:33Z</time>
      </trkpt>
      <trkpt lat="43.5504" lon="1.44404">
        <ele>195</ele>
        <time>2025-02-15T09:20:34Z</time>
      </trkpt>
      <trkpt lat="43.5504" lon="1.44404">
        <ele>195</ele>
        <time>2025-02-15T09:20:35Z</time>
      </trkpt>
      <trkpt lat="43.5504" lon="1.44408">
        <ele>195</ele>
        <time>2025-02-15T09:20:36Z</time>
      </trkpt>
      <trkpt lat="43.5504" lon="1.44408">
        <ele>195</ele>
        <time>2025-02-15T09:20:37Z</time>
      </trkpt>
      <trkpt lat="43.5504" lon="1.44411">
        <ele>195</ele>
        <time>2025-02-15T09:20:38Z</time>
      </trkpt>
      <trkpt lat="43.5504" lon="1.44411">
        <ele>196</ele>
        <time>2025-02-15T09:20:39Z</time>
      </trkpt>
      <trkpt lat="43.5504" lon="1.44414">
        <ele>196</ele>
        <time>2025-02-15T09:20:40Z</time>
      </trkpt>
      <trkpt lat="43.5504" lon="1.44414">
        <ele>196</ele>
        <time>2025-02-15T09:20:41Z</time>
      </trkpt>
      <trkpt lat="43.5504" lon="1.44417">
        <ele>196</ele>
        <time>2025-02-15T09:20:42Z</time>
      </trkpt>
      <trkpt lat="43.5504" lon="1.44417">
        <ele>196</ele>
        <time>2025-02-15T09:20:43Z</time>
      </trkpt>
      <trkpt lat="43.55039" lon="1.44421">
        <ele>196</ele>
        <time>2025-02-15T09:20:44Z</time>
      </trkpt>
      <trkpt lat="43.55039" lon="1.44424">
        <ele>197</ele>
        <time>2025-02-15T09:20:46Z</time>
      </trkpt>
      <trkpt lat="43.55039" lon="1.44428">
        <ele>198</ele>
        <time>2025-02-15T09:20:48Z</time>
      </trkpt>
      <trkpt lat="43.55039" lon="1.44428">
        <ele>198</ele>
        <time>2025-02-15T09:20:49Z</time>
      </trkpt>
      <trkpt lat="43.55038" lon="1.44433">
        <ele>198</ele>
        <time>2025-02-15T09:20:50Z</time>
      </trkpt>
      <trkpt lat="43.55038" lon="1.44433">
        <ele>198</ele>
        <time>2025-02-15T09:20:51Z</time>
      </trkpt>
      <trkpt lat="43.55037" lon="1.44438">
        <ele>198</ele>
        <time>2025-02-15T09:20:53Z</time>
      </trkpt>
      <trkpt lat="43.55037" lon="1.44438">
        <ele>199</ele>
        <time>2025-02-15T09:20:54Z</time>
      </trkpt>
      <trkpt lat="43.55037" lon="1.44442">
        <ele>199</ele>
        <time>2025-02-15T09:20:55Z</time>
      </trkpt>
      <trkpt lat="43.55037" lon="1.44442">
        <ele>199</ele>
        <time>2025-02-15T09:20:56Z</time>
      </trkpt>
      <trkpt lat="43.55037" lon="1.44446">
        <ele>200</ele>
        <time>2025-02-15T09:20:57Z</time>
      </trkpt>
      <trkpt lat="43.55037" lon="1.44446">
        <ele>200</ele>
        <time>2025-02-15T09:20:58Z</time>
      </trkpt>
      <trkpt lat="43.55038" lon="1.44449">
        <ele>200</ele>
        <time>2025-02-15T09:20:59Z</time>
      </trkpt>
      <trkpt lat="43.55038" lon="1.44449">
        <ele>200</ele>
        <time>2025-02-15T09:21:00Z</time>
      </trkpt>
      <trkpt lat="43.55039" lon="1.44452">
        <ele>200</ele>
        <time>2025-02-15T09:21:01Z</time>
      </trkpt>
      <trkpt lat="43.55039" lon="1.44452">
        <ele>200</ele>
        <time>2025-02-15T09:21:02Z</time>
      </trkpt>
      <trkpt lat="43.5504" lon="1.44456">
        <ele>201</ele>
        <time>2025-02-15T09:21:03Z</time>
      </trkpt>
      <trkpt lat="43.5504" lon="1.44456">
        <ele>201</ele>
        <time>2025-02-15T09:21:04Z</time>
      </trkpt>
      <trkpt lat="43.55041" lon="1.4446">
        <ele>201</ele>
        <time>2025-02-15T09:21:05Z</time>
      </trkpt>
      <trkpt lat="43.55041" lon="1.4446">
        <ele>202</ele>
        <time>2025-02-15T09:21:06Z</time>
      </trkpt>
      <trkpt lat="43.55042" lon="1.44463">
        <ele>202</ele>
        <time>2025-02-15T09:21:07Z</time>
      </trkpt>
      <trkpt lat="43.55042" lon="1.44463">
        <ele>202</ele>
        <time>2025-02-15T09:21:08Z</time>
      </trkpt>
      <trkpt lat="43.55042" lon="1.44467">
        <ele>203</ele>
        <time>2025-02-15T09:21:09Z</time>
      </trkpt>
      <trkpt lat="43.55042" lon="1.44467">
        <ele>203</ele>
        <time>2025-02-15T09:21:10Z</time>
      </trkpt>
      <trkpt lat="43.55043" lon="1.44471">
        <ele>203</ele>
        <time>2025-02-15T09:21:11Z</time>
      </trkpt>
      <trkpt lat="43.55044" lon="1.44474">
        <ele>204</ele>
        <time>2025-02-15T09:21:13Z</time>
      </trkpt>
      <trkpt lat="43.55044" lon="1.44478">
        <ele>204</ele>
        <time>2025-02-15T09:21:15Z</time>
      </trkpt>
      <trkpt lat="43.55045" lon="1.44482">
        <ele>204</ele>
        <time>2025-02-15T09:21:17Z</time>
      </trkpt>
      <trkpt lat="43.55045" lon="1.44482">
        <ele>204</ele>
        <time>2025-02-15T09:21:18Z</time>
      </trkpt>
      <trkpt lat="43.55045" lon="1.44486">
        <ele>204</ele>
        <time>2025-02-15T09:21:19Z</time>
      </trkpt>
      <trkpt lat="43.55045" lon="1.44486">
        <ele>204</ele>
        <time>2025-02-15T09:21:20Z</time>
      </trkpt>
      <trkpt lat="43.55045" lon="1.4449">
        <ele>204</ele>
        <time>2025-02-15T09:21:21Z</time>
      </trkpt>
      <trkpt lat="43.55045" lon="1.4449">
        <ele>205</ele>
        <time>2025-02-15T09:21:22Z</time>
      </trkpt>
      <trkpt lat="43.55046" lon="1.44494">
        <ele>205</ele>
        <time>2025-02-15T09:21:24Z</time>
      </trkpt>
      <trkpt lat="43.55046" lon="1.445">
        <ele>206</ele>
        <time>2025-02-15T09:21:26Z</time>
      </trkpt>
      <trkpt lat="43.55046" lon="1.44501">
        <ele>206</ele>
        <time>2025-02-15T09:21:27Z</time>
      </trkpt>
      <trkpt lat="43.55046" lon="1.44503">
        <ele>207</ele>
        <time>2025-02-15T09:21:28Z</time>
      </trkpt>
      <trkpt lat="43.55046" lon="1.44505">
        <ele>207</ele>
        <time>2025-02-15T09:21:29Z</time>
      </trkpt>
      <trkpt lat="43.55046" lon="1.44507">
        <ele>208</ele>
        <time>2025-02-15T09:21:31Z</time>
      </trkpt>
      <trkpt lat="43.55046" lon="1.44508">
        <ele>208</ele>
        <time>2025-02-15T09:21:32Z</time>
      </trkpt>
      <trkpt lat="43.55046" lon="1.4451">
        <ele>208</ele>
        <time>2025-02-15T09:21:33Z</time>
      </trkpt>
      <trkpt lat="43.55046" lon="1.44512">
        <ele>208</ele>
        <time>2025-02-15T09:21:34Z</time>
      </trkpt>
      <trkpt lat="43.55046" lon="1.44514">
        <ele>208</ele>
        <time>2025-02-15T09:21:35Z</time>
      </trkpt>
      <trkpt lat="43.55046" lon="1.44516">
        <ele>208</ele>
        <time>2025-02-15T09:21:36Z</time>
      </trkpt>
      <trkpt lat="43.55046" lon="1.44518">
        <ele>208</ele>
        <time>2025-02-15T09:21:37Z</time>
      </trkpt>
      <trkpt lat="43.55046" lon="1.44519">
        <ele>208</ele>
        <time>2025-02-15T09:21:38Z</time>
      </trkpt>
      <trkpt lat="43.55045" lon="1.44521">
        <ele>209</ele>
        <time>2025-02-15T09:21:39Z</time>
      </trkpt>
      <trkpt lat="43.55045" lon="1.44524">
        <ele>209</ele>
        <time>2025-02-15T09:21:40Z</time>
      </trkpt>
      <trkpt lat="43.55045" lon="1.44524">
        <ele>210</ele>
        <time>2025-02-15T09:21:41Z</time>
      </trkpt>
      <trkpt lat="43.55046" lon="1.44528">
        <ele>210</ele>
        <time>2025-02-15T09:21:42Z</time>
      </trkpt>
      <trkpt lat="43.55046" lon="1.44528">
        <ele>210</ele>
        <time>2025-02-15T09:21:43Z</time>
      </trkpt>
      <trkpt lat="43.55046" lon="1.44531">
        <ele>210</ele>
        <time>2025-02-15T09:21:44Z</time>
      </trkpt>
      <trkpt lat="43.55046" lon="1.44531">
        <ele>211</ele>
        <time>2025-02-15T09:21:45Z</time>
      </trkpt>
      <trkpt lat="43.55047" lon="1.44535">
        <ele>211</ele>
        <time>2025-02-15T09:21:46Z</time>
      </trkpt>
      <trkpt lat="43.55047" lon="1.44535">
        <ele>211</ele>
        <time>2025-02-15T09:21:47Z</time>
      </trkpt>
      <trkpt lat="43.55047" lon="1.44539">
        <ele>212</ele>
        <time>2025-02-15T09:21:48Z</time>
      </trkpt>
      <trkpt lat="43.55048" lon="1.44543">
        <ele>212</ele>
        <time>2025-02-15T09:21:50Z</time>
      </trkpt>
      <trkpt lat="43.55048" lon="1.44543">
        <ele>212</ele>
        <time>2025-02-15T09:21:51Z</time>
      </trkpt>
      <trkpt lat="43.55048" lon="1.44546">
        <ele>212</ele>
        <time>2025-02-15T09:21:52Z</time>
      </trkpt>
      <trkpt lat="43.55048" lon="1.44546">
        <ele>212</ele>
        <time>2025-02-15T09:21:53Z</time>
      </trkpt>
      <trkpt lat="43.55048" lon="1.4455">
        <ele>212</ele>
        <time>2025-02-15T09:21:54Z</time>
      </trkpt>
      <trkpt lat="43.55048" lon="1.4455">
        <ele>213</ele>
        <time>2025-02-15T09:21:55Z</time>
      </trkpt>
      <trkpt lat="43.55048" lon="1.44554">
        <ele>213</ele>
        <time>2025-02-15T09:21:56Z</time>
      </trkpt>
      <trkpt lat="43.55048" lon="1.44554">
        <ele>214</ele>
        <time>2025-02-15T09:21:57Z</time>
      </trkpt>
      <trkpt lat="43.55048" lon="1.44558">
        <ele>215</ele>
        <time>2025-02-15T09:21:58Z</time>
      </trkpt>
      <trkpt lat="43.55048" lon="1.44558">
        <ele>215</ele>
        <time>2025-02-15T09:21:59Z</time>
      </trkpt>
      <trkpt lat="43.55048" lon="1.44562">
        <ele>215</ele>
        <time>2025-02-15T09:22:00Z</time>
      </trkpt>
      <trkpt lat="43.55047" lon="1.44565">
        <ele>215</ele>
        <time>2025-02-15T09:22:02Z</time>
      </trkpt>
      <trkpt lat="43.55047" lon="1.44568">
        <ele>216</ele>
        <time>2025-02-15T09:22:04Z</time>
      </trkpt>
      <trkpt lat="43.55047" lon="1.44568">
        <ele>216</ele>
        <time>2025-02-15T09:22:05Z</time>
      </trkpt>
      <trkpt lat="43.55047" lon="1.44571">
        <ele>216</ele>
        <time>2025-02-15T09:22:06Z</time>
      </trkpt>
      <trkpt lat="43.55047" lon="1.44571">
        <ele>216</ele>
        <time>2025-02-15T09:22:07Z</time>
      </trkpt>
      <trkpt lat="43.55047" lon="1.44574">
        <ele>216</ele>
        <time>2025-02-15T09:22:08Z</time>
      </trkpt>
      <trkpt lat="43.55047" lon="1.44574">
        <ele>216</ele>
        <time>2025-02-15T09:22:09Z</time>
      </trkpt>
      <trkpt lat="43.55046" lon="1.44577">
        <ele>216</ele>
        <time>2025-02-15T09:22:10Z</time>
      </trkpt>
      <trkpt lat="43.55046" lon="1.44577">
        <ele>216</ele>
        <time>2025-02-15T09:22:11Z</time>
      </trkpt>
      <trkpt lat="43.55046" lon="1.44581">
        <ele>216</ele>
        <time>2025-02-15T09:22:12Z</time>
      </trkpt>
      <trkpt lat="43.55046" lon="1.44581">
        <ele>217</ele>
        <time>2025-02-15T09:22:13Z</time>
      </trkpt>
      <trkpt lat="43.55047" lon="1.44585">
        <ele>217</ele>
        <time>2025-02-15T09:22:14Z</time>
      </trkpt>
      <trkpt lat="43.55048" lon="1.44589">
        <ele>218</ele>
        <time>2025-02-15T09:22:16Z</time>
      </trkpt>
      <trkpt lat="43.55049" lon="1.44593">
        <ele>218</ele>
        <time>2025-02-15T09:22:18Z</time>
      </trkpt>
      <trkpt lat="43.55049" lon="1.44593">
        <ele>219</ele>
        <time>2025-02-15T09:22:19Z</time>
      </trkpt>
      <trkpt lat="43.5505" lon="1.44596">
        <ele>219</ele>
        <time>2025-02-15T09:22:20Z</time>
      </trkpt>
      <trkpt lat="43.5505" lon="1.44596">
        <ele>219</ele>
        <time>2025-02-15T09:22:21Z</time>
      </trkpt>
      <trkpt lat="43.5505" lon="1.446">
        <ele>219</ele>
        <time>2025-02-15T09:22:22Z</time>
      </trkpt>
      <trkpt lat="43.5505" lon="1.446">
        <ele>220</ele>
        <time>2025-02-15T09:22:23Z</time>
      </trkpt>
      <trkpt lat="43.55052" lon="1.44604">
        <ele>221</ele>
        <time>2025-02-15T09:22:24Z</time>
      </trkpt>
      <trkpt lat="43.55052" lon="1.44608">
        <ele>221</ele>
        <time>2025-02-15T09:22:26Z</time>
      </trkpt>
      <trkpt lat="43.55051" lon="1.44613">
        <ele>222</ele>
        <time>2025-02-15T09:22:28Z</time>
      </trkpt>
      <trkpt lat="43.55051" lon="1.44613">
        <ele>222</ele>
        <time>2025-02-15T09:22:29Z</time>
      </trkpt>
      <trkpt lat="43.5505" lon="1.44617">
        <ele>222</ele>
        <time>2025-02-15T09:22:30Z</time>
      </trkpt>
      <trkpt lat="43.5505" lon="1.44617">
        <ele>223</ele>
        <time>2025-02-15T09:22:31Z</time>
      </trkpt>
      <trkpt lat="43.55049" lon="1.44621">
        <ele>223</ele>
        <time>2025-02-15T09:22:32Z</time>
      </trkpt>
      <trkpt lat="43.55049" lon="1.44621">
        <ele>223</ele>
        <time>2025-02-15T09:22:33Z</time>
      </trkpt>
      <trkpt lat="43.55048" lon="1.44625">
        <ele>223</ele>
        <time>2025-02-15T09:22:34Z</time>
      </trkpt>
      <trkpt lat="43.55048" lon="1.44629">
        <ele>223</ele>
        <time>2025-02-15T09:22:36Z</time>
      </trkpt>
      <trkpt lat="43.55048" lon="1.44633">
        <ele>223</ele>
        <time>2025-02-15T09:22:38Z</time>
      </trkpt>
      <trkpt lat="43.55048" lon="1.44633">
        <ele>223</ele>
        <time>2025-02-15T09:22:39Z</time>
      </trkpt>
      <trkpt lat="43.55047" lon="1.44637">
        <ele>224</ele>
        <time>2025-02-15T09:22:40Z</time>
      </trkpt>
      <trkpt lat="43.55047" lon="1.44637">
        <ele>225</ele>
        <time>2025-02-15T09:22:41Z</time>
      </trkpt>
      <trkpt lat="43.55046" lon="1.44641">
        <ele>225</ele>
        <time>2025-02-15T09:22:42Z</time>
      </trkpt>
      <trkpt lat="43.55046" lon="1.44641">
        <ele>225</ele>
        <time>2025-02-15T09:22:43Z</time>
      </trkpt>
      <trkpt lat="43.55046" lon="1.44644">
        <ele>225</ele>
        <time>2025-02-15T09:22:44Z</time>
      </trkpt>
      <trkpt lat="43.55046" lon="1.44644">
        <ele>225</ele>
        <time>2025-02-15T09:22:45Z</time>
      </trkpt>
      <trkpt lat="43.55046" lon="1.44648">
        <ele>226</ele>
        <time>2025-02-15T09:22:46Z</time>
      </trkpt>
      <trkpt lat="43.55046" lon="1.44653">
        <ele>226</ele>
        <time>2025-02-15T09:22:48Z</time>
      </trkpt>
      <trkpt lat="43.55046" lon="1.44653">
        <ele>226</ele>
        <time>2025-02-15T09:22:49Z</time>
      </trkpt>
      <trkpt lat="43.55046" lon="1.44657">
        <ele>227</ele>
        <time>2025-02-15T09:22:50Z</time>
      </trkpt>
      <trkpt lat="43.55046" lon="1.44657">
        <ele>228</ele>
        <time>2025-02-15T09:22:51Z</time>
      </trkpt>
      <trkpt lat="43.55045" lon="1.44661">
        <ele>228</ele>
        <time>2025-02-15T09:22:52Z</time>
      </trkpt>
      <trkpt lat="43.55045" lon="1.44661">
        <ele>228</ele>
        <time>2025-02-15T09:22:53Z</time>
      </trkpt>
      <trkpt lat="43.55045" lon="1.44665">
        <ele>228</ele>
        <time>2025-02-15T09:22:54Z</time>
      </trkpt>
      <trkpt lat="43.55045" lon="1.44665">
        <ele>228</ele>
        <time>2025-02-15T09:22:55Z</time>
      </trkpt>
      <trkpt lat="43.55045" lon="1.44669">
        <ele>229</ele>
        <time>2025-02-15T09:22:56Z</time>
      </trkpt>
      <trkpt lat="43.55045" lon="1.44669">
        <ele>229</ele>
        <time>2025-02-15T09:22:57Z</time>
      </trkpt>
      <trkpt lat="43.55045" lon="1.44674">
        <ele>229</ele>
        <time>2025-02-15T09:22:58Z</time>
      </trkpt>
      <trkpt lat="43.55046" lon="1.44678">
        <ele>228</ele>
        <time>2025-02-15T09:23:00Z</time>
      </trkpt>
      <trkpt lat="43.55046" lon="1.44683">
        <ele>228</ele>
        <time>2025-02-15T09:23:02Z</time>
      </trkpt>
      <trkpt lat="43.55046" lon="1.44683">
        <ele>228</ele>
        <time>2025-02-15T09:23:03Z</time>
      </trkpt>
      <trkpt lat="43.55047" lon="1.44687">
        <ele>228</ele>
        <time>2025-02-15T09:23:04Z</time>
      </trkpt>
      <trkpt lat="43.55047" lon="1.44687">
        <ele>229</ele>
        <time>2025-02-15T09:23:05Z</time>
      </trkpt>
      <trkpt lat="43.55046" lon="1.4469">
        <ele>229</ele>
        <time>2025-02-15T09:23:06Z</time>
      </trkpt>
      <trkpt lat="43.55046" lon="1.4469">
        <ele>229</ele>
        <time>2025-02-15T09:23:07Z</time>
      </trkpt>
      <trkpt lat="43.55046" lon="1.44693">
        <ele>229</ele>
        <time>2025-02-15T09:23:08Z</time>
      </trkpt>
      <trkpt lat="43.55046" lon="1.44693">
        <ele>229</ele>
        <time>2025-02-15T09:23:09Z</time>
      </trkpt>
      <trkpt lat="43.55046" lon="1.44697">
        <ele>229</ele>
        <time>2025-02-15T09:23:10Z</time>
      </trkpt>
      <trkpt lat="43.55046" lon="1.44697">
        <ele>229</ele>
        <time>2025-02-15T09:23:11Z</time>
      </trkpt>
      <trkpt lat="43.55045" lon="1.44701">
        <ele>229</ele>
        <time>2025-02-15T09:23:12Z</time>
      </trkpt>
      <trkpt lat="43.55045" lon="1.44706">
        <ele>229</ele>
        <time>2025-02-15T09:23:14Z</time>
      </trkpt>
      <trkpt lat="43.55045" lon="1.44706">
        <ele>229</ele>
        <time>2025-02-15T09:23:15Z</time>
      </trkpt>
      <trkpt lat="43.55045" lon="1.44709">
        <ele>230</ele>
        <time>2025-02-15T09:23:16Z</time>
      </trkpt>
      <trkpt lat="43.55045" lon="1.44709">
        <ele>230</ele>
        <time>2025-02-15T09:23:17Z</time>
      </trkpt>
      <trkpt lat="43.55047" lon="1.44711">
        <ele>231</ele>
        <time>2025-02-15T09:23:18Z</time>
      </trkpt>
      <trkpt lat="43.55047" lon="1.44711">
        <ele>231</ele>
        <time>2025-02-15T09:23:19Z</time>
      </trkpt>
      <trkpt lat="43.55048" lon="1.4471">
        <ele>231</ele>
        <time>2025-02-15T09:23:20Z</time>
      </trkpt>
      <trkpt lat="43.55048" lon="1.4471">
        <ele>231</ele>
        <time>2025-02-15T09:23:21Z</time>
      </trkpt>
      <trkpt lat="43.5505" lon="1.44707">
        <ele>231</ele>
        <time>2025-02-15T09:23:22Z</time>
      </trkpt>
      <trkpt lat="43.5505" lon="1.44707">
        <ele>231</ele>
        <time>2025-02-15T09:23:23Z</time>
      </trkpt>
      <trkpt lat="43.55052" lon="1.44704">
        <ele>232</ele>
        <time>2025-02-15T09:23:24Z</time>
      </trkpt>
      <trkpt lat="43.55052" lon="1.447">
        <ele>232</ele>
        <time>2025-02-15T09:23:26Z</time>
      </trkpt>
      <trkpt lat="43.55052" lon="1.447">
        <ele>232</ele>
        <time>2025-02-15T09:23:27Z</time>
      </trkpt>
      <trkpt lat="43.55053" lon="1.44697">
        <ele>232</ele>
        <time>2025-02-15T09:23:28Z</time>
      </trkpt>
      <trkpt lat="43.55053" lon="1.44697">
        <ele>232</ele>
        <time>2025-02-15T09:23:29Z</time>
      </trkpt>
      <trkpt lat="43.55054" lon="1.44693">
        <ele>232</ele>
        <time>2025-02-15T09:23:30Z</time>
      </trkpt>
      <trkpt lat="43.55054" lon="1.44693">
        <ele>232</ele>
        <time>2025-02-15T09:23:31Z</time>
      </trkpt>
      <trkpt lat="43.55054" lon="1.4469">
        <ele>232</ele>
        <time>2025-02-15T09:23:32Z</time>
      </trkpt>
      <trkpt lat="43.55054" lon="1.4469">
        <ele>232</ele>
        <time>2025-02-15T09:23:33Z</time>
      </trkpt>
      <trkpt lat="43.55055" lon="1.44686">
        <ele>232</ele>
        <time>2025-02-15T09:23:34Z</time>
      </trkpt>
      <trkpt lat="43.55055" lon="1.44686">
        <ele>231</ele>
        <time>2025-02-15T09:23:35Z</time>
      </trkpt>
      <trkpt lat="43.55056" lon="1.44683">
        <ele>231</ele>
        <time>2025-02-15T09:23:36Z</time>
      </trkpt>
      <trkpt lat="43.55057" lon="1.44679">
        <ele>231</ele>
        <time>2025-02-15T09:23:38Z</time>
      </trkpt>
      <trkpt lat="43.55058" lon="1.44676">
        <ele>232</ele>
        <time>2025-02-15T09:23:40Z</time>
      </trkpt>
      <trkpt lat="43.55058" lon="1.44676">
        <ele>232</ele>
        <time>2025-02-15T09:23:41Z</time>
      </trkpt>
      <trkpt lat="43.55059" lon="1.44673">
        <ele>232</ele>
        <time>2025-02-15T09:23:42Z</time>
      </trkpt>
      <trkpt lat="43.55059" lon="1.44673">
        <ele>232</ele>
        <time>2025-02-15T09:23:43Z</time>
      </trkpt>
      <trkpt lat="43.55059" lon="1.4467">
        <ele>232</ele>
        <time>2025-02-15T09:23:44Z</time>
      </trkpt>
      <trkpt lat="43.55059" lon="1.4467">
        <ele>232</ele>
        <time>2025-02-15T09:23:45Z</time>
      </trkpt>
      <trkpt lat="43.5506" lon="1.44666">
        <ele>232</ele>
        <time>2025-02-15T09:23:46Z</time>
      </trkpt>
      <trkpt lat="43.5506" lon="1.44666">
        <ele>232</ele>
        <time>2025-02-15T09:23:47Z</time>
      </trkpt>
      <trkpt lat="43.55062" lon="1.44664">
        <ele>232</ele>
        <time>2025-02-15T09:23:48Z</time>
      </trkpt>
      <trkpt lat="43.55062" lon="1.44664">
        <ele>232</ele>
        <time>2025-02-15T09:23:49Z</time>
      </trkpt>
      <trkpt lat="43.55063" lon="1.44661">
        <ele>232</ele>
        <time>2025-02-15T09:23:50Z</time>
      </trkpt>
      <trkpt lat="43.55063" lon="1.44661">
        <ele>232</ele>
        <time>2025-02-15T09:23:51Z</time>
      </trkpt>
      <trkpt lat="43.55066" lon="1.4466">
        <ele>232</ele>
        <time>2025-02-15T09:23:52Z</time>
      </trkpt>
      <trkpt lat="43.55068" lon="1.44658">
        <ele>232</ele>
        <time>2025-02-15T09:23:54Z</time>
      </trkpt>
      <trkpt lat="43.5507" lon="1.44656">
        <ele>232</ele>
        <time>2025-02-15T09:23:56Z</time>
      </trkpt>
      <trkpt lat="43.5507" lon="1.44656">
        <ele>232</ele>
        <time>2025-02-15T09:23:57Z</time>
      </trkpt>
      <trkpt lat="43.55071" lon="1.44653">
        <ele>232</ele>
        <time>2025-02-15T09:23:58Z</time>
      </trkpt>
      <trkpt lat="43.55071" lon="1.44653">
        <ele>232</ele>
        <time>2025-02-15T09:23:59Z</time>
      </trkpt>
      <trkpt lat="43.55072" lon="1.44651">
        <ele>232</ele>
        <time>2025-02-15T09:24:00Z</time>
      </trkpt>
      <trkpt lat="43.55072" lon="1.44651">
        <ele>232</ele>
        <time>2025-02-15T09:24:01Z</time>
      </trkpt>
      <trkpt lat="43.55072" lon="1.44648">
        <ele>232</ele>
        <time>2025-02-15T09:24:02Z</time>
      </trkpt>
      <trkpt lat="43.55072" lon="1.44648">
        <ele>232</ele>
        <time>2025-02-15T09:24:03Z</time>
      </trkpt>
      <trkpt lat="43.55073" lon="1.44645">
        <ele>232</ele>
        <time>2025-02-15T09:24:04Z</time>
      </trkpt>
      <trkpt lat="43.55073" lon="1.44645">
        <ele>232</ele>
        <time>2025-02-15T09:24:05Z</time>
      </trkpt>
      <trkpt lat="43.55074" lon="1.44642">
        <ele>232</ele>
        <time>2025-02-15T09:24:06Z</time>
      </trkpt>
      <trkpt lat="43.55074" lon="1.44642">
        <ele>232</ele>
        <time>2025-02-15T09:24:07Z</time>
      </trkpt>
      <trkpt lat="43.55074" lon="1.44638">
        <ele>232</ele>
        <time>2025-02-15T09:24:08Z</time>
      </trkpt>
      <trkpt lat="43.55075" lon="1.44636">
        <ele>232</ele>
        <time>2025-02-15T09:24:10Z</time>
      </trkpt>
      <trkpt lat="43.55075" lon="1.44636">
        <ele>231</ele>
        <time>2025-02-15T09:24:11Z</time>
      </trkpt>
      <trkpt lat="43.55076" lon="1.44633">
        <ele>231</ele>
        <time>2025-02-15T09:24:12Z</time>
      </trkpt>
      <trkpt lat="43.55076" lon="1.44633">
        <ele>232</ele>
        <time>2025-02-15T09:24:13Z</time>
      </trkpt>
      <trkpt lat="43.55077" lon="1.44629">
        <ele>232</ele>
        <time>2025-02-15T09:24:14Z</time>
      </trkpt>
      <trkpt lat="43.55077" lon="1.44629">
        <ele>232</ele>
        <time>2025-02-15T09:24:15Z</time>
      </trkpt>
      <trkpt lat="43.55078" lon="1.44626">
        <ele>232</ele>
        <time>2025-02-15T09:24:16Z</time>
      </trkpt>
      <trkpt lat="43.55079" lon="1.44623">
        <ele>231</ele>
        <time>2025-02-15T09:24:18Z</time>
      </trkpt>
      <trkpt lat="43.55079" lon="1.4462">
        <ele>231</ele>
        <time>2025-02-15T09:24:20Z</time>
      </trkpt>
      <trkpt lat="43.55079" lon="1.4462">
        <ele>231</ele>
        <time>2025-02-15T09:24:21Z</time>
      </trkpt>
      <trkpt lat="43.5508" lon="1.44616">
        <ele>231</ele>
        <time>2025-02-15T09:24:22Z</time>
      </trkpt>
      <trkpt lat="43.5508" lon="1.44616">
        <ele>231</ele>
        <time>2025-02-15T09:24:23Z</time>
      </trkpt>
      <trkpt lat="43.55081" lon="1.44613">
        <ele>231</ele>
        <time>2025-02-15T09:24:24Z</time>
      </trkpt>
      <trkpt lat="43.55081" lon="1.44613">
        <ele>231</ele>
        <time>2025-02-15T09:24:25Z</time>
      </trkpt>
      <trkpt lat="43.55082" lon="1.44609">
        <ele>231</ele>
        <time>2025-02-15T09:24:26Z</time>
      </trkpt>
      <trkpt lat="43.55082" lon="1.44609">
        <ele>231</ele>
        <time>2025-02-15T09:24:27Z</time>
      </trkpt>
      <trkpt lat="43.55083" lon="1.44606">
        <ele>231</ele>
        <time>2025-02-15T09:24:28Z</time>
      </trkpt>
      <trkpt lat="43.55083" lon="1.44606">
        <ele>231</ele>
        <time>2025-02-15T09:24:29Z</time>
      </trkpt>
      <trkpt lat="43.55084" lon="1.44603">
        <ele>231</ele>
        <time>2025-02-15T09:24:30Z</time>
      </trkpt>
      <trkpt lat="43.55084" lon="1.44603">
        <ele>231</ele>
        <time>2025-02-15T09:24:31Z</time>
      </trkpt>
      <trkpt lat="43.55085" lon="1.44599">
        <ele>231</ele>
        <time>2025-02-15T09:24:32Z</time>
      </trkpt>
      <trkpt lat="43.55086" lon="1.44596">
        <ele>231</ele>
        <time>2025-02-15T09:24:34Z</time>
      </trkpt>
      <trkpt lat="43.55086" lon="1.44593">
        <ele>231</ele>
        <time>2025-02-15T09:24:36Z</time>
      </trkpt>
      <trkpt lat="43.55086" lon="1.44593">
        <ele>231</ele>
        <time>2025-02-15T09:24:37Z</time>
      </trkpt>
      <trkpt lat="43.55087" lon="1.4459">
        <ele>231</ele>
        <time>2025-02-15T09:24:38Z</time>
      </trkpt>
      <trkpt lat="43.55087" lon="1.4459">
        <ele>230</ele>
        <time>2025-02-15T09:24:39Z</time>
      </trkpt>
      <trkpt lat="43.55088" lon="1.44586">
        <ele>230</ele>
        <time>2025-02-15T09:24:40Z</time>
      </trkpt>
      <trkpt lat="43.55088" lon="1.44586">
        <ele>230</ele>
        <time>2025-02-15T09:24:41Z</time>
      </trkpt>
      <trkpt lat="43.55089" lon="1.44583">
        <ele>230</ele>
        <time>2025-02-15T09:24:42Z</time>
      </trkpt>
      <trkpt lat="43.55089" lon="1.44583">
        <ele>230</ele>
        <time>2025-02-15T09:24:43Z</time>
      </trkpt>
      <trkpt lat="43.5509" lon="1.44579">
        <ele>230</ele>
        <time>2025-02-15T09:24:44Z</time>
      </trkpt>
      <trkpt lat="43.5509" lon="1.44579">
        <ele>230</ele>
        <time>2025-02-15T09:24:45Z</time>
      </trkpt>
      <trkpt lat="43.55091" lon="1.44575">
        <ele>230</ele>
        <time>2025-02-15T09:24:46Z</time>
      </trkpt>
      <trkpt lat="43.55092" lon="1.44572">
        <ele>230</ele>
        <time>2025-02-15T09:24:47Z</time>
      </trkpt>
      <trkpt lat="43.55093" lon="1.44569">
        <ele>230</ele>
        <time>2025-02-15T09:24:48Z</time>
      </trkpt>
      <trkpt lat="43.55094" lon="1.44566">
        <ele>230</ele>
        <time>2025-02-15T09:24:49Z</time>
      </trkpt>
      <trkpt lat="43.55094" lon="1.44562">
        <ele>230</ele>
        <time>2025-02-15T09:24:50Z</time>
      </trkpt>
      <trkpt lat="43.55095" lon="1.44558">
        <ele>229</ele>
        <time>2025-02-15T09:24:51Z</time>
      </trkpt>
      <trkpt lat="43.55096" lon="1.44553">
        <ele>229</ele>
        <time>2025-02-15T09:24:52Z</time>
      </trkpt>
      <trkpt lat="43.55097" lon="1.44551">
        <ele>229</ele>
        <time>2025-02-15T09:24:53Z</time>
      </trkpt>
      <trkpt lat="43.55099" lon="1.44546">
        <ele>229</ele>
        <time>2025-02-15T09:24:54Z</time>
      </trkpt>
      <trkpt lat="43.55099" lon="1.44544">
        <ele>229</ele>
        <time>2025-02-15T09:24:55Z</time>
      </trkpt>
      <trkpt lat="43.551" lon="1.44541">
        <ele>229</ele>
        <time>2025-02-15T09:24:56Z</time>
      </trkpt>
      <trkpt lat="43.55101" lon="1.44538">
        <ele>229</ele>
        <time>2025-02-15T09:24:57Z</time>
      </trkpt>
      <trkpt lat="43.55102" lon="1.44534">
        <ele>229</ele>
        <time>2025-02-15T09:24:58Z</time>
      </trkpt>
      <trkpt lat="43.55102" lon="1.44531">
        <ele>229</ele>
        <time>2025-02-15T09:24:59Z</time>
      </trkpt>
      <trkpt lat="43.55103" lon="1.44528">
        <ele>229</ele>
        <time>2025-02-15T09:25:00Z</time>
      </trkpt>
      <trkpt lat="43.55103" lon="1.44524">
        <ele>229</ele>
        <time>2025-02-15T09:25:01Z</time>
      </trkpt>
      <trkpt lat="43.55104" lon="1.44521">
        <ele>229</ele>
        <time>2025-02-15T09:25:02Z</time>
      </trkpt>
      <trkpt lat="43.55105" lon="1.44517">
        <ele>228</ele>
        <time>2025-02-15T09:25:03Z</time>
      </trkpt>
      <trkpt lat="43.55106" lon="1.44512">
        <ele>228</ele>
        <time>2025-02-15T09:25:04Z</time>
      </trkpt>
      <trkpt lat="43.55106" lon="1.4451">
        <ele>228</ele>
        <time>2025-02-15T09:25:05Z</time>
      </trkpt>
      <trkpt lat="43.55107" lon="1.44507">
        <ele>228</ele>
        <time>2025-02-15T09:25:06Z</time>
      </trkpt>
      <trkpt lat="43.55107" lon="1.44503">
        <ele>228</ele>
        <time>2025-02-15T09:25:07Z</time>
      </trkpt>
      <trkpt lat="43.55108" lon="1.445">
        <ele>227</ele>
        <time>2025-02-15T09:25:08Z</time>
      </trkpt>
      <trkpt lat="43.55109" lon="1.44494">
        <ele>227</ele>
        <time>2025-02-15T09:25:09Z</time>
      </trkpt>
      <trkpt lat="43.55109" lon="1.44493">
        <ele>227</ele>
        <time>2025-02-15T09:25:10Z</time>
      </trkpt>
      <trkpt lat="43.55111" lon="1.44488">
        <ele>227</ele>
        <time>2025-02-15T09:25:11Z</time>
      </trkpt>
      <trkpt lat="43.55111" lon="1.44486">
        <ele>227</ele>
        <time>2025-02-15T09:25:12Z</time>
      </trkpt>
      <trkpt lat="43.55112" lon="1.44483">
        <ele>226</ele>
        <time>2025-02-15T09:25:13Z</time>
      </trkpt>
      <trkpt lat="43.55113" lon="1.4448">
        <ele>226</ele>
        <time>2025-02-15T09:25:14Z</time>
      </trkpt>
      <trkpt lat="43.55114" lon="1.44476">
        <ele>226</ele>
        <time>2025-02-15T09:25:15Z</time>
      </trkpt>
      <trkpt lat="43.55114" lon="1.44472">
        <ele>225</ele>
        <time>2025-02-15T09:25:16Z</time>
      </trkpt>
      <trkpt lat="43.55115" lon="1.44469">
        <ele>225</ele>
        <time>2025-02-15T09:25:17Z</time>
      </trkpt>
      <trkpt lat="43.55116" lon="1.44465">
        <ele>225</ele>
        <time>2025-02-15T09:25:18Z</time>
      </trkpt>
      <trkpt lat="43.55116" lon="1.44461">
        <ele>225</ele>
        <time>2025-02-15T09:25:19Z</time>
      </trkpt>
      <trkpt lat="43.55116" lon="1.44458">
        <ele>225</ele>
        <time>2025-02-15T09:25:20Z</time>
      </trkpt>
      <trkpt lat="43.55117" lon="1.44455">
        <ele>225</ele>
        <time>2025-02-15T09:25:21Z</time>
      </trkpt>
      <trkpt lat="43.55119" lon="1.44451">
        <ele>225</ele>
        <time>2025-02-15T09:25:22Z</time>
      </trkpt>
      <trkpt lat="43.5512" lon="1.44448">
        <ele>225</ele>
        <time>2025-02-15T09:25:23Z</time>
      </trkpt>
      <trkpt lat="43.5512" lon="1.44444">
        <ele>224</ele>
        <time>2025-02-15T09:25:24Z</time>
      </trkpt>
      <trkpt lat="43.55121" lon="1.44438">
        <ele>224</ele>
        <time>2025-02-15T09:25:25Z</time>
      </trkpt>
      <trkpt lat="43.55121" lon="1.44437">
        <ele>223</ele>
        <time>2025-02-15T09:25:26Z</time>
      </trkpt>
      <trkpt lat="43.55122" lon="1.44432">
        <ele>223</ele>
        <time>2025-02-15T09:25:27Z</time>
      </trkpt>
      <trkpt lat="43.55123" lon="1.44428">
        <ele>223</ele>
        <time>2025-02-15T09:25:28Z</time>
      </trkpt>
      <trkpt lat="43.55124" lon="1.44425">
        <ele>223</ele>
        <time>2025-02-15T09:25:29Z</time>
      </trkpt>
      <trkpt lat="43.55126" lon="1.4442">
        <ele>223</ele>
        <time>2025-02-15T09:25:30Z</time>
      </trkpt>
      <trkpt lat="43.55126" lon="1.44418">
        <ele>223</ele>
        <time>2025-02-15T09:25:31Z</time>
      </trkpt>
      <trkpt lat="43.55128" lon="1.44413">
        <ele>223</ele>
        <time>2025-02-15T09:25:32Z</time>
      </trkpt>
      <trkpt lat="43.55129" lon="1.44411">
        <ele>223</ele>
        <time>2025-02-15T09:25:33Z</time>
      </trkpt>
      <trkpt lat="43.5513" lon="1.44408">
        <ele>222</ele>
        <time>2025-02-15T09:25:34Z</time>
      </trkpt>
      <trkpt lat="43.55131" lon="1.44404">
        <ele>222</ele>
        <time>2025-02-15T09:25:35Z</time>
      </trkpt>
      <trkpt lat="43.55132" lon="1.44401">
        <ele>222</ele>
        <time>2025-02-15T09:25:36Z</time>
      </trkpt>
      <trkpt lat="43.55132" lon="1.44398">
        <ele>222</ele>
        <time>2025-02-15T09:25:37Z</time>
      </trkpt>
      <trkpt lat="43.55133" lon="1.44394">
        <ele>222</ele>
        <time>2025-02-15T09:25:38Z</time>
      </trkpt>
      <trkpt lat="43.55133" lon="1.44391">
        <ele>222</ele>
        <time>2025-02-15T09:25:39Z</time>
      </trkpt>
      <trkpt lat="43.55134" lon="1.44388">
        <ele>222</ele>
        <time>2025-02-15T09:25:40Z</time>
      </trkpt>
      <trkpt lat="43.55134" lon="1.44385">
        <ele>222</ele>
        <time>2025-02-15T09:25:41Z</time>
      </trkpt>
      <trkpt lat="43.55134" lon="1.4438">
        <ele>222</ele>
        <time>2025-02-15T09:25:42Z</time>
      </trkpt>
      <trkpt lat="43.55133" lon="1.44378">
        <ele>222</ele>
        <time>2025-02-15T09:25:43Z</time>
      </trkpt>
      <trkpt lat="43.55131" lon="1.44374">
        <ele>222</ele>
        <time>2025-02-15T09:25:44Z</time>
      </trkpt>
      <trkpt lat="43.55131" lon="1.44372">
        <ele>222</ele>
        <time>2025-02-15T09:25:45Z</time>
      </trkpt>
      <trkpt lat="43.55129" lon="1.4437">
        <ele>222</ele>
        <time>2025-02-15T09:25:46Z</time>
      </trkpt>
      <trkpt lat="43.55125" lon="1.44367">
        <ele>222</ele>
        <time>2025-02-15T09:25:47Z</time>
      </trkpt>
      <trkpt lat="43.55124" lon="1.44366">
        <ele>221</ele>
        <time>2025-02-15T09:25:48Z</time>
      </trkpt>
      <trkpt lat="43.55121" lon="1.44363">
        <ele>221</ele>
        <time>2025-02-15T09:25:49Z</time>
      </trkpt>
      <trkpt lat="43.5512" lon="1.44362">
        <ele>222</ele>
        <time>2025-02-15T09:25:50Z</time>
      </trkpt>
      <trkpt lat="43.55119" lon="1.4436">
        <ele>222</ele>
        <time>2025-02-15T09:25:51Z</time>
      </trkpt>
      <trkpt lat="43.55117" lon="1.44358">
        <ele>222</ele>
        <time>2025-02-15T09:25:52Z</time>
      </trkpt>
      <trkpt lat="43.55115" lon="1.44354">
        <ele>222</ele>
        <time>2025-02-15T09:25:53Z</time>
      </trkpt>
      <trkpt lat="43.55113" lon="1.44349">
        <ele>222</ele>
        <time>2025-02-15T09:25:54Z</time>
      </trkpt>
      <trkpt lat="43.55112" lon="1.44348">
        <ele>222</ele>
        <time>2025-02-15T09:25:55Z</time>
      </trkpt>
      <trkpt lat="43.55112" lon="1.44344">
        <ele>222</ele>
        <time>2025-02-15T09:25:56Z</time>
      </trkpt>
      <trkpt lat="43.55111" lon="1.4434">
        <ele>222</ele>
        <time>2025-02-15T09:25:57Z</time>
      </trkpt>
      <trkpt lat="43.5511" lon="1.44337">
        <ele>222</ele>
        <time>2025-02-15T09:25:58Z</time>
      </trkpt>
      <trkpt lat="43.5511" lon="1.44333">
        <ele>222</ele>
        <time>2025-02-15T09:25:59Z</time>
      </trkpt>
      <trkpt lat="43.55109" lon="1.4433">
        <ele>222</ele>
        <time>2025-02-15T09:26:00Z</time>
      </trkpt>
      <trkpt lat="43.55108" lon="1.44324">
        <ele>222</ele>
        <time>2025-02-15T09:26:01Z</time>
      </trkpt>
      <trkpt lat="43.55108" lon="1.44322">
        <ele>222</ele>
        <time>2025-02-15T09:26:02Z</time>
      </trkpt>
      <trkpt lat="43.55107" lon="1.44317">
        <ele>222</ele>
        <time>2025-02-15T09:26:03Z</time>
      </trkpt>
      <trkpt lat="43.55107" lon="1.44315">
        <ele>222</ele>
        <time>2025-02-15T09:26:04Z</time>
      </trkpt>
      <trkpt lat="43.55105" lon="1.4431">
        <ele>222</ele>
        <time>2025-02-15T09:26:05Z</time>
      </trkpt>
      <trkpt lat="43.55104" lon="1.44309">
        <ele>222</ele>
        <time>2025-02-15T09:26:06Z</time>
      </trkpt>
      <trkpt lat="43.55104" lon="1.44305">
        <ele>222</ele>
        <time>2025-02-15T09:26:07Z</time>
      </trkpt>
      <trkpt lat="43.55105" lon="1.44301">
        <ele>222</ele>
        <time>2025-02-15T09:26:08Z</time>
      </trkpt>
      <trkpt lat="43.55105" lon="1.44297">
        <ele>222</ele>
        <time>2025-02-15T09:26:09Z</time>
      </trkpt>
      <trkpt lat="43.55104" lon="1.44292">
        <ele>222</ele>
        <time>2025-02-15T09:26:10Z</time>
      </trkpt>
      <trkpt lat="43.55104" lon="1.44291">
        <ele>223</ele>
        <time>2025-02-15T09:26:11Z</time>
      </trkpt>
      <trkpt lat="43.55103" lon="1.44286">
        <ele>223</ele>
        <time>2025-02-15T09:26:12Z</time>
      </trkpt>
      <trkpt lat="43.55103" lon="1.44285">
        <ele>223</ele>
        <time>2025-02-15T09:26:13Z</time>
      </trkpt>
      <trkpt lat="43.55102" lon="1.44282">
        <ele>224</ele>
        <time>2025-02-15T09:26:14Z</time>
      </trkpt>
      <trkpt lat="43.55101" lon="1.44279">
        <ele>224</ele>
        <time>2025-02-15T09:26:15Z</time>
      </trkpt>
      <trkpt lat="43.551" lon="1.44274">
        <ele>224</ele>
        <time>2025-02-15T09:26:16Z</time>
      </trkpt>
      <trkpt lat="43.551" lon="1.44273">
        <ele>224</ele>
        <time>2025-02-15T09:26:17Z</time>
      </trkpt>
      <trkpt lat="43.55099" lon="1.4427">
        <ele>224</ele>
        <time>2025-02-15T09:26:18Z</time>
      </trkpt>
      <trkpt lat="43.55098" lon="1.44267">
        <ele>225</ele>
        <time>2025-02-15T09:26:19Z</time>
      </trkpt>
      <trkpt lat="43.55096" lon="1.44263">
        <ele>225</ele>
        <time>2025-02-15T09:26:20Z</time>
      </trkpt>
      <trkpt lat="43.55096" lon="1.44261">
        <ele>226</ele>
        <time>2025-02-15T09:26:21Z</time>
      </trkpt>
      <trkpt lat="43.55095" lon="1.44256">
        <ele>226</ele>
        <time>2025-02-15T09:26:22Z</time>
      </trkpt>
      <trkpt lat="43.55095" lon="1.44255">
        <ele>227</ele>
        <time>2025-02-15T09:26:23Z</time>
      </trkpt>
      <trkpt lat="43.55095" lon="1.44249">
        <ele>227</ele>
        <time>2025-02-15T09:26:24Z</time>
      </trkpt>
      <trkpt lat="43.55095" lon="1.44247">
        <ele>228</ele>
        <time>2025-02-15T09:26:25Z</time>
      </trkpt>
      <trkpt lat="43.55095" lon="1.44242">
        <ele>228</ele>
        <time>2025-02-15T09:26:26Z</time>
      </trkpt>
      <trkpt lat="43.55095" lon="1.4424">
        <ele>228</ele>
        <time>2025-02-15T09:26:27Z</time>
      </trkpt>
      <trkpt lat="43.55095" lon="1.44236">
        <ele>228</ele>
        <time>2025-02-15T09:26:28Z</time>
      </trkpt>
      <trkpt lat="43.55094" lon="1.44233">
        <ele>228</ele>
        <time>2025-02-15T09:26:29Z</time>
      </trkpt>
      <trkpt lat="43.55093" lon="1.44229">
        <ele>228</ele>
        <time>2025-02-15T09:26:30Z</time>
      </trkpt>
      <trkpt lat="43.55091" lon="1.44223">
        <ele>228</ele>
        <time>2025-02-15T09:26:31Z</time>
      </trkpt>
      <trkpt lat="43.5509" lon="1.44222">
        <ele>228</ele>
        <time>2025-02-15T09:26:32Z</time>
      </trkpt>
      <trkpt lat="43.55088" lon="1.44217">
        <ele>228</ele>
        <time>2025-02-15T09:26:33Z</time>
      </trkpt>
      <trkpt lat="43.55087" lon="1.44216">
        <ele>227</ele>
        <time>2025-02-15T09:26:34Z</time>
      </trkpt>
      <trkpt lat="43.55084" lon="1.44211">
        <ele>227</ele>
        <time>2025-02-15T09:26:35Z</time>
      </trkpt>
      <trkpt lat="43.55083" lon="1.44209">
        <ele>227</ele>
        <time>2025-02-15T09:26:36Z</time>
      </trkpt>
      <trkpt lat="43.55082" lon="1.44207">
        <ele>227</ele>
        <time>2025-02-15T09:26:37Z</time>
      </trkpt>
      <trkpt lat="43.5508" lon="1.44204">
        <ele>227</ele>
        <time>2025-02-15T09:26:38Z</time>
      </trkpt>
      <trkpt lat="43.55078" lon="1.44201">
        <ele>228</ele>
        <time>2025-02-15T09:26:39Z</time>
      </trkpt>
      <trkpt lat="43.55077" lon="1.44198">
        <ele>228</ele>
        <time>2025-02-15T09:26:40Z</time>
      </trkpt>
      <trkpt lat="43.55075" lon="1.44195">
        <ele>228</ele>
        <time>2025-02-15T09:26:41Z</time>
      </trkpt>
      <trkpt lat="43.55073" lon="1.44192">
        <ele>228</ele>
        <time>2025-02-15T09:26:42Z</time>
      </trkpt>
      <trkpt lat="43.55071" lon="1.44189">
        <ele>228</ele>
        <time>2025-02-15T09:26:43Z</time>
      </trkpt>
      <trkpt lat="43.55069" lon="1.44187">
        <ele>228</ele>
        <time>2025-02-15T09:26:44Z</time>
      </trkpt>
      <trkpt lat="43.55067" lon="1.44184">
        <ele>228</ele>
        <time>2025-02-15T09:26:45Z</time>
      </trkpt>
      <trkpt lat="43.55066" lon="1.44179">
        <ele>228</ele>
        <time>2025-02-15T09:26:46Z</time>
      </trkpt>
      <trkpt lat="43.55067" lon="1.44177">
        <ele>228</ele>
        <time>2025-02-15T09:26:47Z</time>
      </trkpt>
      <trkpt lat="43.5507" lon="1.44176">
        <ele>228</ele>
        <time>2025-02-15T09:26:48Z</time>
      </trkpt>
      <trkpt lat="43.55071" lon="1.44176">
        <ele>228</ele>
        <time>2025-02-15T09:26:49Z</time>
      </trkpt>
      <trkpt lat="43.55074" lon="1.44177">
        <ele>228</ele>
        <time>2025-02-15T09:26:50Z</time>
      </trkpt>
      <trkpt lat="43.55076" lon="1.44179">
        <ele>228</ele>
        <time>2025-02-15T09:26:51Z</time>
      </trkpt>
      <trkpt lat="43.55078" lon="1.4418">
        <ele>228</ele>
        <time>2025-02-15T09:26:52Z</time>
      </trkpt>
      <trkpt lat="43.55081" lon="1.44182">
        <ele>228</ele>
        <time>2025-02-15T09:26:53Z</time>
      </trkpt>
      <trkpt lat="43.55083" lon="1.44184">
        <ele>228</ele>
        <time>2025-02-15T09:26:54Z</time>
      </trkpt>
      <trkpt lat="43.55085" lon="1.44187">
        <ele>228</ele>
        <time>2025-02-15T09:26:55Z</time>
      </trkpt>
      <trkpt lat="43.55087" lon="1.4419">
        <ele>228</ele>
        <time>2025-02-15T09:26:56Z</time>
      </trkpt>
      <trkpt lat="43.55089" lon="1.44193">
        <ele>228</ele>
        <time>2025-02-15T09:26:57Z</time>
      </trkpt>
      <trkpt lat="43.55092" lon="1.44197">
        <ele>228</ele>
        <time>2025-02-15T09:26:58Z</time>
      </trkpt>
      <trkpt lat="43.55093" lon="1.44198">
        <ele>228</ele>
        <time>2025-02-15T09:26:59Z</time>
      </trkpt>
      <trkpt lat="43.55096" lon="1.44202">
        <ele>228</ele>
        <time>2025-02-15T09:27:00Z</time>
      </trkpt>
      <trkpt lat="43.55098" lon="1.44202">
        <ele>228</ele>
        <time>2025-02-15T09:27:01Z</time>
      </trkpt>
      <trkpt lat="43.551" lon="1.44204">
        <ele>228</ele>
        <time>2025-02-15T09:27:02Z</time>
      </trkpt>
      <trkpt lat="43.55103" lon="1.44208">
        <ele>228</ele>
        <time>2025-02-15T09:27:03Z</time>
      </trkpt>
      <trkpt lat="43.55105" lon="1.44209">
        <ele>228</ele>
        <time>2025-02-15T09:27:04Z</time>
      </trkpt>
      <trkpt lat="43.55107" lon="1.44211">
        <ele>228</ele>
        <time>2025-02-15T09:27:05Z</time>
      </trkpt>
      <trkpt lat="43.55108" lon="1.44212">
        <ele>228</ele>
        <time>2025-02-15T09:27:06Z</time>
      </trkpt>
      <trkpt lat="43.5511" lon="1.44213">
        <ele>228</ele>
        <time>2025-02-15T09:27:07Z</time>
      </trkpt>
      <trkpt lat="43.55113" lon="1.44213">
        <ele>227</ele>
        <time>2025-02-15T09:27:08Z</time>
      </trkpt>
      <trkpt lat="43.55115" lon="1.44214">
        <ele>227</ele>
        <time>2025-02-15T09:27:09Z</time>
      </trkpt>
      <trkpt lat="43.55119" lon="1.44213">
        <ele>227</ele>
        <time>2025-02-15T09:27:10Z</time>
      </trkpt>
      <trkpt lat="43.5512" lon="1.44213">
        <ele>225</ele>
        <time>2025-02-15T09:27:11Z</time>
      </trkpt>
      <trkpt lat="43.55122" lon="1.44213">
        <ele>225</ele>
        <time>2025-02-15T09:27:12Z</time>
      </trkpt>
      <trkpt lat="43.55125" lon="1.44214">
        <ele>225</ele>
        <time>2025-02-15T09:27:13Z</time>
      </trkpt>
      <trkpt lat="43.55126" lon="1.44215">
        <ele>225</ele>
        <time>2025-02-15T09:27:14Z</time>
      </trkpt>
      <trkpt lat="43.55129" lon="1.44217">
        <ele>225</ele>
        <time>2025-02-15T09:27:15Z</time>
      </trkpt>
      <trkpt lat="43.55131" lon="1.44219">
        <ele>224</ele>
        <time>2025-02-15T09:27:16Z</time>
      </trkpt>
      <trkpt lat="43.55134" lon="1.44226">
        <ele>224</ele>
        <time>2025-02-15T09:27:17Z</time>
      </trkpt>
      <trkpt lat="43.55135" lon="1.44228">
        <ele>223</ele>
        <time>2025-02-15T09:27:18Z</time>
      </trkpt>
      <trkpt lat="43.55136" lon="1.44234">
        <ele>223</ele>
        <time>2025-02-15T09:27:19Z</time>
      </trkpt>
      <trkpt lat="43.55136" lon="1.44236">
        <ele>222</ele>
        <time>2025-02-15T09:27:20Z</time>
      </trkpt>
      <trkpt lat="43.55137" lon="1.4424">
        <ele>222</ele>
        <time>2025-02-15T09:27:21Z</time>
      </trkpt>
      <trkpt lat="43.55138" lon="1.44244">
        <ele>222</ele>
        <time>2025-02-15T09:27:22Z</time>
      </trkpt>
      <trkpt lat="43.55138" lon="1.44246">
        <ele>221</ele>
        <time>2025-02-15T09:27:23Z</time>
      </trkpt>
      <trkpt lat="43.5514" lon="1.44251">
        <ele>221</ele>
        <time>2025-02-15T09:27:24Z</time>
      </trkpt>
      <trkpt lat="43.5514" lon="1.44253">
        <ele>221</ele>
        <time>2025-02-15T09:27:25Z</time>
      </trkpt>
      <trkpt lat="43.55141" lon="1.44256">
        <ele>221</ele>
        <time>2025-02-15T09:27:26Z</time>
      </trkpt>
      <trkpt lat="43.55142" lon="1.44258">
        <ele>220</ele>
        <time>2025-02-15T09:27:27Z</time>
      </trkpt>
      <trkpt lat="43.55144" lon="1.4426">
        <ele>220</ele>
        <time>2025-02-15T09:27:28Z</time>
      </trkpt>
      <trkpt lat="43.55146" lon="1.44261">
        <ele>220</ele>
        <time>2025-02-15T09:27:29Z</time>
      </trkpt>
      <trkpt lat="43.55148" lon="1.44262">
        <ele>219</ele>
        <time>2025-02-15T09:27:30Z</time>
      </trkpt>
      <trkpt lat="43.55151" lon="1.44263">
        <ele>219</ele>
        <time>2025-02-15T09:27:31Z</time>
      </trkpt>
      <trkpt lat="43.55154" lon="1.44265">
        <ele>218</ele>
        <time>2025-02-15T09:27:32Z</time>
      </trkpt>
      <trkpt lat="43.55157" lon="1.44268">
        <ele>218</ele>
        <time>2025-02-15T09:27:33Z</time>
      </trkpt>
      <trkpt lat="43.5516" lon="1.4427">
        <ele>218</ele>
        <time>2025-02-15T09:27:34Z</time>
      </trkpt>
      <trkpt lat="43.55162" lon="1.44273">
        <ele>218</ele>
        <time>2025-02-15T09:27:35Z</time>
      </trkpt>
      <trkpt lat="43.55165" lon="1.44276">
        <ele>218</ele>
        <time>2025-02-15T09:27:36Z</time>
      </trkpt>
      <trkpt lat="43.55168" lon="1.4428">
        <ele>217</ele>
        <time>2025-02-15T09:27:37Z</time>
      </trkpt>
      <trkpt lat="43.5517" lon="1.44283">
        <ele>216</ele>
        <time>2025-02-15T09:27:38Z</time>
      </trkpt>
      <trkpt lat="43.55174" lon="1.44288">
        <ele>216</ele>
        <time>2025-02-15T09:27:39Z</time>
      </trkpt>
      <trkpt lat="43.55175" lon="1.44289">
        <ele>215</ele>
        <time>2025-02-15T09:27:40Z</time>
      </trkpt>
      <trkpt lat="43.55178" lon="1.44292">
        <ele>215</ele>
        <time>2025-02-15T09:27:41Z</time>
      </trkpt>
      <trkpt lat="43.55181" lon="1.44297">
        <ele>215</ele>
        <time>2025-02-15T09:27:42Z</time>
      </trkpt>
      <trkpt lat="43.55182" lon="1.44298">
        <ele>215</ele>
        <time>2025-02-15T09:27:43Z</time>
      </trkpt>
      <trkpt lat="43.55185" lon="1.443">
        <ele>215</ele>
        <time>2025-02-15T09:27:44Z</time>
      </trkpt>
      <trkpt lat="43.55187" lon="1.44302">
        <ele>215</ele>
        <time>2025-02-15T09:27:45Z</time>
      </trkpt>
      <trkpt lat="43.55188" lon="1.44303">
        <ele>215</ele>
        <time>2025-02-15T09:27:46Z</time>
      </trkpt>
      <trkpt lat="43.55191" lon="1.44303">
        <ele>214</ele>
        <time>2025-02-15T09:27:47Z</time>
      </trkpt>
      <trkpt lat="43.55193" lon="1.44303">
        <ele>214</ele>
        <time>2025-02-15T09:27:48Z</time>
      </trkpt>
      <trkpt lat="43.55196" lon="1.44303">
        <ele>214</ele>
        <time>2025-02-15T09:27:49Z</time>
      </trkpt>
      <trkpt lat="43.55197" lon="1.44303">
        <ele>214</ele>
        <time>2025-02-15T09:27:50Z</time>
      </trkpt>
      <trkpt lat="43.55201" lon="1.44304">
        <ele>214</ele>
        <time>2025-02-15T09:27:51Z</time>
      </trkpt>
      <trkpt lat="43.55202" lon="1.44304">
        <ele>213</ele>
        <time>2025-02-15T09:27:52Z</time>
      </trkpt>
      <trkpt lat="43.55205" lon="1.44303">
        <ele>213</ele>
        <time>2025-02-15T09:27:53Z</time>
      </trkpt>
      <trkpt lat="43.55206" lon="1.44302">
        <ele>213</ele>
        <time>2025-02-15T09:27:54Z</time>
      </trkpt>
      <trkpt lat="43.55209" lon="1.44301">
        <ele>213</ele>
        <time>2025-02-15T09:27:55Z</time>
      </trkpt>
      <trkpt lat="43.55212" lon="1.44299">
        <ele>213</ele>
        <time>2025-02-15T09:27:56Z</time>
      </trkpt>
      <trkpt lat="43.55213" lon="1.44298">
        <ele>214</ele>
        <time>2025-02-15T09:27:57Z</time>
      </trkpt>
      <trkpt lat="43.55217" lon="1.44297">
        <ele>214</ele>
        <time>2025-02-15T09:27:58Z</time>
      </trkpt>
      <trkpt lat="43.55217" lon="1.44296">
        <ele>214</ele>
        <time>2025-02-15T09:27:59Z</time>
      </trkpt>
      <trkpt lat="43.55217" lon="1.44296">
        <ele>214</ele>
        <time>2025-02-15T09:28:00Z</time>
      </trkpt>
      <trkpt lat="43.55221" lon="1.44295">
        <ele>215</ele>
        <time>2025-02-15T09:28:01Z</time>
      </trkpt>
      <trkpt lat="43.55221" lon="1.44295">
        <ele>215</ele>
        <time>2025-02-15T09:28:02Z</time>
      </trkpt>
      <trkpt lat="43.55224" lon="1.44295">
        <ele>215</ele>
        <time>2025-02-15T09:28:03Z</time>
      </trkpt>
      <trkpt lat="43.55224" lon="1.44295">
        <ele>215</ele>
        <time>2025-02-15T09:28:04Z</time>
      </trkpt>
      <trkpt lat="43.55228" lon="1.44296">
        <ele>215</ele>
        <time>2025-02-15T09:28:05Z</time>
      </trkpt>
      <trkpt lat="43.55229" lon="1.44296">
        <ele>215</ele>
        <time>2025-02-15T09:28:06Z</time>
      </trkpt>
      <trkpt lat="43.55229" lon="1.44296">
        <ele>215</ele>
        <time>2025-02-15T09:28:07Z</time>
      </trkpt>
      <trkpt lat="43.55232" lon="1.44297">
        <ele>215</ele>
        <time>2025-02-15T09:28:08Z</time>
      </trkpt>
      <trkpt lat="43.55234" lon="1.44296">
        <ele>216</ele>
        <time>2025-02-15T09:28:09Z</time>
      </trkpt>
      <trkpt lat="43.55237" lon="1.44296">
        <ele>217</ele>
        <time>2025-02-15T09:28:11Z</time>
      </trkpt>
      <trkpt lat="43.55241" lon="1.44295">
        <ele>217</ele>
        <time>2025-02-15T09:28:13Z</time>
      </trkpt>
      <trkpt lat="43.55244" lon="1.44294">
        <ele>217</ele>
        <time>2025-02-15T09:28:15Z</time>
      </trkpt>
      <trkpt lat="43.55244" lon="1.44294">
        <ele>217</ele>
        <time>2025-02-15T09:28:16Z</time>
      </trkpt>
      <trkpt lat="43.55247" lon="1.44293">
        <ele>217</ele>
        <time>2025-02-15T09:28:17Z</time>
      </trkpt>
      <trkpt lat="43.55247" lon="1.44293">
        <ele>218</ele>
        <time>2025-02-15T09:28:18Z</time>
      </trkpt>
      <trkpt lat="43.55249" lon="1.44291">
        <ele>218</ele>
        <time>2025-02-15T09:28:19Z</time>
      </trkpt>
      <trkpt lat="43.55249" lon="1.44291">
        <ele>219</ele>
        <time>2025-02-15T09:28:20Z</time>
      </trkpt>
      <trkpt lat="43.55252" lon="1.44289">
        <ele>219</ele>
        <time>2025-02-15T09:28:21Z</time>
      </trkpt>
      <trkpt lat="43.55252" lon="1.44289">
        <ele>219</ele>
        <time>2025-02-15T09:28:22Z</time>
      </trkpt>
      <trkpt lat="43.55254" lon="1.44288">
        <ele>219</ele>
        <time>2025-02-15T09:28:23Z</time>
      </trkpt>
      <trkpt lat="43.55256" lon="1.44287">
        <ele>219</ele>
        <time>2025-02-15T09:28:24Z</time>
      </trkpt>
      <trkpt lat="43.55257" lon="1.44287">
        <ele>219</ele>
        <time>2025-02-15T09:28:25Z</time>
      </trkpt>
      <trkpt lat="43.55259" lon="1.44287">
        <ele>219</ele>
        <time>2025-02-15T09:28:26Z</time>
      </trkpt>
      <trkpt lat="43.55263" lon="1.44286">
        <ele>220</ele>
        <time>2025-02-15T09:28:28Z</time>
      </trkpt>
      <trkpt lat="43.55265" lon="1.44286">
        <ele>220</ele>
        <time>2025-02-15T09:28:30Z</time>
      </trkpt>
      <trkpt lat="43.55267" lon="1.44286">
        <ele>220</ele>
        <time>2025-02-15T09:28:31Z</time>
      </trkpt>
      <trkpt lat="43.55269" lon="1.44286">
        <ele>220</ele>
        <time>2025-02-15T09:28:32Z</time>
      </trkpt>
      <trkpt lat="43.55271" lon="1.44286">
        <ele>220</ele>
        <time>2025-02-15T09:28:33Z</time>
      </trkpt>
      <trkpt lat="43.55273" lon="1.44287">
        <ele>220</ele>
        <time>2025-02-15T09:28:34Z</time>
      </trkpt>
      <trkpt lat="43.55277" lon="1.44287">
        <ele>220</ele>
        <time>2025-02-15T09:28:35Z</time>
      </trkpt>
      <trkpt lat="43.55278" lon="1.44288">
        <ele>220</ele>
        <time>2025-02-15T09:28:36Z</time>
      </trkpt>
      <trkpt lat="43.55282" lon="1.44288">
        <ele>220</ele>
        <time>2025-02-15T09:28:37Z</time>
      </trkpt>
      <trkpt lat="43.55284" lon="1.44288">
        <ele>220</ele>
        <time>2025-02-15T09:28:38Z</time>
      </trkpt>
      <trkpt lat="43.55287" lon="1.44287">
        <ele>220</ele>
        <time>2025-02-15T09:28:39Z</time>
      </trkpt>
      <trkpt lat="43.55289" lon="1.44287">
        <ele>220</ele>
        <time>2025-02-15T09:28:40Z</time>
      </trkpt>
      <trkpt lat="43.55292" lon="1.44286">
        <ele>220</ele>
        <time>2025-02-15T09:28:41Z</time>
      </trkpt>
      <trkpt lat="43.55297" lon="1.44285">
        <ele>220</ele>
        <time>2025-02-15T09:28:42Z</time>
      </trkpt>
      <trkpt lat="43.55298" lon="1.44285">
        <ele>220</ele>
        <time>2025-02-15T09:28:43Z</time>
      </trkpt>
      <trkpt lat="43.55302" lon="1.44285">
        <ele>220</ele>
        <time>2025-02-15T09:28:44Z</time>
      </trkpt>
      <trkpt lat="43.55304" lon="1.44286">
        <ele>220</ele>
        <time>2025-02-15T09:28:45Z</time>
      </trkpt>
      <trkpt lat="43.55308" lon="1.44287">
        <ele>220</ele>
        <time>2025-02-15T09:28:46Z</time>
      </trkpt>
      <trkpt lat="43.5531" lon="1.44287">
        <ele>220</ele>
        <time>2025-02-15T09:28:47Z</time>
      </trkpt>
      <trkpt lat="43.55313" lon="1.44287">
        <ele>220</ele>
        <time>2025-02-15T09:28:48Z</time>
      </trkpt>
      <trkpt lat="43.55315" lon="1.44287">
        <ele>220</ele>
        <time>2025-02-15T09:28:49Z</time>
      </trkpt>
      <trkpt lat="43.55318" lon="1.44287">
        <ele>220</ele>
        <time>2025-02-15T09:28:50Z</time>
      </trkpt>
      <trkpt lat="43.5532" lon="1.44287">
        <ele>221</ele>
        <time>2025-02-15T09:28:51Z</time>
      </trkpt>
      <trkpt lat="43.55322" lon="1.44287">
        <ele>221</ele>
        <time>2025-02-15T09:28:52Z</time>
      </trkpt>
      <trkpt lat="43.55325" lon="1.44287">
        <ele>221</ele>
        <time>2025-02-15T09:28:53Z</time>
      </trkpt>
      <trkpt lat="43.55327" lon="1.44288">
        <ele>221</ele>
        <time>2025-02-15T09:28:54Z</time>
      </trkpt>
      <trkpt lat="43.55331" lon="1.44288">
        <ele>221</ele>
        <time>2025-02-15T09:28:55Z</time>
      </trkpt>
      <trkpt lat="43.55332" lon="1.44289">
        <ele>222</ele>
        <time>2025-02-15T09:28:56Z</time>
      </trkpt>
      <trkpt lat="43.55336" lon="1.4429">
        <ele>222</ele>
        <time>2025-02-15T09:28:57Z</time>
      </trkpt>
      <trkpt lat="43.55337" lon="1.4429">
        <ele>222</ele>
        <time>2025-02-15T09:28:58Z</time>
      </trkpt>
      <trkpt lat="43.55339" lon="1.44292">
        <ele>223</ele>
        <time>2025-02-15T09:28:59Z</time>
      </trkpt>
      <trkpt lat="43.55341" lon="1.44294">
        <ele>223</ele>
        <time>2025-02-15T09:29:00Z</time>
      </trkpt>
      <trkpt lat="43.55343" lon="1.44296">
        <ele>223</ele>
        <time>2025-02-15T09:29:01Z</time>
      </trkpt>
      <trkpt lat="43.55346" lon="1.44297">
        <ele>223</ele>
        <time>2025-02-15T09:29:02Z</time>
      </trkpt>
      <trkpt lat="43.55347" lon="1.44298">
        <ele>223</ele>
        <time>2025-02-15T09:29:03Z</time>
      </trkpt>
      <trkpt lat="43.55351" lon="1.44299">
        <ele>223</ele>
        <time>2025-02-15T09:29:04Z</time>
      </trkpt>
      <trkpt lat="43.55352" lon="1.443">
        <ele>224</ele>
        <time>2025-02-15T09:29:05Z</time>
      </trkpt>
      <trkpt lat="43.55355" lon="1.443">
        <ele>224</ele>
        <time>2025-02-15T09:29:06Z</time>
      </trkpt>
      <trkpt lat="43.55357" lon="1.443">
        <ele>224</ele>
        <time>2025-02-15T09:29:07Z</time>
      </trkpt>
      <trkpt lat="43.5536" lon="1.443">
        <ele>224</ele>
        <time>2025-02-15T09:29:08Z</time>
      </trkpt>
      <trkpt lat="43.55363" lon="1.44301">
        <ele>224</ele>
        <time>2025-02-15T09:29:09Z</time>
      </trkpt>
      <trkpt lat="43.55366" lon="1.44301">
        <ele>224</ele>
        <time>2025-02-15T09:29:10Z</time>
      </trkpt>
      <trkpt lat="43.5537" lon="1.44301">
        <ele>224</ele>
        <time>2025-02-15T09:29:11Z</time>
      </trkpt>
      <trkpt lat="43.55373" lon="1.44302">
        <ele>224</ele>
        <time>2025-02-15T09:29:12Z</time>
      </trkpt>
      <trkpt lat="43.55377" lon="1.44302">
        <ele>224</ele>
        <time>2025-02-15T09:29:13Z</time>
      </trkpt>
      <trkpt lat="43.55379" lon="1.44302">
        <ele>223</ele>
        <time>2025-02-15T09:29:14Z</time>
      </trkpt>
      <trkpt lat="43.55383" lon="1.44302">
        <ele>223</ele>
        <time>2025-02-15T09:29:15Z</time>
      </trkpt>
      <trkpt lat="43.55385" lon="1.44301">
        <ele>223</ele>
        <time>2025-02-15T09:29:16Z</time>
      </trkpt>
      <trkpt lat="43.55387" lon="1.44301">
        <ele>223</ele>
        <time>2025-02-15T09:29:17Z</time>
      </trkpt>
      <trkpt lat="43.5539" lon="1.44301">
        <ele>223</ele>
        <time>2025-02-15T09:29:18Z</time>
      </trkpt>
      <trkpt lat="43.55393" lon="1.44301">
        <ele>223</ele>
        <time>2025-02-15T09:29:19Z</time>
      </trkpt>
      <trkpt lat="43.55397" lon="1.44301">
        <ele>223</ele>
        <time>2025-02-15T09:29:20Z</time>
      </trkpt>
      <trkpt lat="43.55399" lon="1.44301">
        <ele>222</ele>
        <time>2025-02-15T09:29:21Z</time>
      </trkpt>
      <trkpt lat="43.55402" lon="1.44302">
        <ele>222</ele>
        <time>2025-02-15T09:29:22Z</time>
      </trkpt>
      <trkpt lat="43.55407" lon="1.44303">
        <ele>222</ele>
        <time>2025-02-15T09:29:23Z</time>
      </trkpt>
      <trkpt lat="43.55408" lon="1.44304">
        <ele>221</ele>
        <time>2025-02-15T09:29:24Z</time>
      </trkpt>
      <trkpt lat="43.55411" lon="1.44306">
        <ele>220</ele>
        <time>2025-02-15T09:29:25Z</time>
      </trkpt>
      <trkpt lat="43.55416" lon="1.4431">
        <ele>220</ele>
        <time>2025-02-15T09:29:26Z</time>
      </trkpt>
      <trkpt lat="43.55417" lon="1.44311">
        <ele>220</ele>
        <time>2025-02-15T09:29:27Z</time>
      </trkpt>
      <trkpt lat="43.55419" lon="1.44314">
        <ele>220</ele>
        <time>2025-02-15T09:29:28Z</time>
      </trkpt>
      <trkpt lat="43.55421" lon="1.44317">
        <ele>220</ele>
        <time>2025-02-15T09:29:29Z</time>
      </trkpt>
      <trkpt lat="43.55424" lon="1.44323">
        <ele>220</ele>
        <time>2025-02-15T09:29:30Z</time>
      </trkpt>
      <trkpt lat="43.55425" lon="1.44325">
        <ele>219</ele>
        <time>2025-02-15T09:29:31Z</time>
      </trkpt>
      <trkpt lat="43.55427" lon="1.4433">
        <ele>219</ele>
        <time>2025-02-15T09:29:32Z</time>
      </trkpt>
      <trkpt lat="43.55428" lon="1.44332">
        <ele>217</ele>
        <time>2025-02-15T09:29:33Z</time>
      </trkpt>
      <trkpt lat="43.55431" lon="1.44332">
        <ele>217</ele>
        <time>2025-02-15T09:29:34Z</time>
      </trkpt>
      <trkpt lat="43.55433" lon="1.44334">
        <ele>217</ele>
        <time>2025-02-15T09:29:35Z</time>
      </trkpt>
      <trkpt lat="43.55435" lon="1.44335">
        <ele>217</ele>
        <time>2025-02-15T09:29:36Z</time>
      </trkpt>
      <trkpt lat="43.55439" lon="1.44338">
        <ele>217</ele>
        <time>2025-02-15T09:29:37Z</time>
      </trkpt>
      <trkpt lat="43.5544" lon="1.44339">
        <ele>216</ele>
        <time>2025-02-15T09:29:38Z</time>
      </trkpt>
      <trkpt lat="43.55442" lon="1.4434">
        <ele>216</ele>
        <time>2025-02-15T09:29:39Z</time>
      </trkpt>
      <trkpt lat="43.55444" lon="1.44342">
        <ele>216</ele>
        <time>2025-02-15T09:29:40Z</time>
      </trkpt>
      <trkpt lat="43.55446" lon="1.44343">
        <ele>216</ele>
        <time>2025-02-15T09:29:41Z</time>
      </trkpt>
      <trkpt lat="43.5545" lon="1.44346">
        <ele>216</ele>
        <time>2025-02-15T09:29:42Z</time>
      </trkpt>
      <trkpt lat="43.55451" lon="1.44346">
        <ele>215</ele>
        <time>2025-02-15T09:29:43Z</time>
      </trkpt>
      <trkpt lat="43.55454" lon="1.44347">
        <ele>215</ele>
        <time>2025-02-15T09:29:44Z</time>
      </trkpt>
      <trkpt lat="43.55458" lon="1.44348">
        <ele>215</ele>
        <time>2025-02-15T09:29:45Z</time>
      </trkpt>
      <trkpt lat="43.5546" lon="1.44349">
        <ele>215</ele>
        <time>2025-02-15T09:29:46Z</time>
      </trkpt>
      <trkpt lat="43.55462" lon="1.4435">
        <ele>215</ele>
        <time>2025-02-15T09:29:47Z</time>
      </trkpt>
      <trkpt lat="43.55464" lon="1.4435">
        <ele>215</ele>
        <time>2025-02-15T09:29:48Z</time>
      </trkpt>
      <trkpt lat="43.55464" lon="1.4435">
        <ele>215</ele>
        <time>2025-02-15T09:29:49Z</time>
      </trkpt>
      <trkpt lat="43.55468" lon="1.4435">
        <ele>215</ele>
        <time>2025-02-15T09:29:50Z</time>
      </trkpt>
      <trkpt lat="43.5547" lon="1.4435">
        <ele>215</ele>
        <time>2025-02-15T09:29:51Z</time>
      </trkpt>
      <trkpt lat="43.5547" lon="1.4435">
        <ele>215</ele>
        <time>2025-02-15T09:29:52Z</time>
      </trkpt>
      <trkpt lat="43.55473" lon="1.44351">
        <ele>215</ele>
        <time>2025-02-15T09:29:53Z</time>
      </trkpt>
      <trkpt lat="43.55473" lon="1.44351">
        <ele>216</ele>
        <time>2025-02-15T09:29:54Z</time>
      </trkpt>
      <trkpt lat="43.55476" lon="1.44351">
        <ele>216</ele>
        <time>2025-02-15T09:29:55Z</time>
      </trkpt>
      <trkpt lat="43.55476" lon="1.44351">
        <ele>216</ele>
        <time>2025-02-15T09:29:56Z</time>
      </trkpt>
      <trkpt lat="43.5548" lon="1.44351">
        <ele>216</ele>
        <time>2025-02-15T09:29:57Z</time>
      </trkpt>
      <trkpt lat="43.5548" lon="1.44351">
        <ele>216</ele>
        <time>2025-02-15T09:29:58Z</time>
      </trkpt>
      <trkpt lat="43.55483" lon="1.44351">
        <ele>216</ele>
        <time>2025-02-15T09:29:59Z</time>
      </trkpt>
      <trkpt lat="43.55485" lon="1.44351">
        <ele>217</ele>
        <time>2025-02-15T09:30:01Z</time>
      </trkpt>
      <trkpt lat="43.55487" lon="1.4435">
        <ele>217</ele>
        <time>2025-02-15T09:30:02Z</time>
      </trkpt>
      <trkpt lat="43.55489" lon="1.4435">
        <ele>217</ele>
        <time>2025-02-15T09:30:03Z</time>
      </trkpt>
      <trkpt lat="43.55491" lon="1.44349">
        <ele>217</ele>
        <time>2025-02-15T09:30:04Z</time>
      </trkpt>
      <trkpt lat="43.55491" lon="1.44349">
        <ele>217</ele>
        <time>2025-02-15T09:30:05Z</time>
      </trkpt>
      <trkpt lat="43.55494" lon="1.44349">
        <ele>217</ele>
        <time>2025-02-15T09:30:06Z</time>
      </trkpt>
      <trkpt lat="43.55494" lon="1.44349">
        <ele>217</ele>
        <time>2025-02-15T09:30:07Z</time>
      </trkpt>
      <trkpt lat="43.55498" lon="1.44349">
        <ele>217</ele>
        <time>2025-02-15T09:30:08Z</time>
      </trkpt>
      <trkpt lat="43.55499" lon="1.44348">
        <ele>217</ele>
        <time>2025-02-15T09:30:09Z</time>
      </trkpt>
      <trkpt lat="43.55499" lon="1.44348">
        <ele>217</ele>
        <time>2025-02-15T09:30:10Z</time>
      </trkpt>
      <trkpt lat="43.55502" lon="1.44347">
        <ele>217</ele>
        <time>2025-02-15T09:30:11Z</time>
      </trkpt>
      <trkpt lat="43.55502" lon="1.44347">
        <ele>217</ele>
        <time>2025-02-15T09:30:12Z</time>
      </trkpt>
      <trkpt lat="43.55505" lon="1.44346">
        <ele>217</ele>
        <time>2025-02-15T09:30:13Z</time>
      </trkpt>
      <trkpt lat="43.55505" lon="1.44346">
        <ele>217</ele>
        <time>2025-02-15T09:30:14Z</time>
      </trkpt>
      <trkpt lat="43.55508" lon="1.44344">
        <ele>217</ele>
        <time>2025-02-15T09:30:15Z</time>
      </trkpt>
      <trkpt lat="43.55508" lon="1.44344">
        <ele>218</ele>
        <time>2025-02-15T09:30:16Z</time>
      </trkpt>
      <trkpt lat="43.55511" lon="1.44342">
        <ele>218</ele>
        <time>2025-02-15T09:30:17Z</time>
      </trkpt>
      <trkpt lat="43.55511" lon="1.44342">
        <ele>218</ele>
        <time>2025-02-15T09:30:18Z</time>
      </trkpt>
      <trkpt lat="43.55513" lon="1.4434">
        <ele>218</ele>
        <time>2025-02-15T09:30:19Z</time>
      </trkpt>
      <trkpt lat="43.55514" lon="1.44337">
        <ele>218</ele>
        <time>2025-02-15T09:30:21Z</time>
      </trkpt>
      <trkpt lat="43.55517" lon="1.44334">
        <ele>218</ele>
        <time>2025-02-15T09:30:23Z</time>
      </trkpt>
      <trkpt lat="43.55517" lon="1.44334">
        <ele>218</ele>
        <time>2025-02-15T09:30:24Z</time>
      </trkpt>
      <trkpt lat="43.55518" lon="1.44331">
        <ele>218</ele>
        <time>2025-02-15T09:30:25Z</time>
      </trkpt>
      <trkpt lat="43.55518" lon="1.44331">
        <ele>218</ele>
        <time>2025-02-15T09:30:26Z</time>
      </trkpt>
      <trkpt lat="43.55521" lon="1.44328">
        <ele>218</ele>
        <time>2025-02-15T09:30:27Z</time>
      </trkpt>
      <trkpt lat="43.55521" lon="1.44328">
        <ele>218</ele>
        <time>2025-02-15T09:30:28Z</time>
      </trkpt>
      <trkpt lat="43.55523" lon="1.44326">
        <ele>218</ele>
        <time>2025-02-15T09:30:29Z</time>
      </trkpt>
      <trkpt lat="43.55523" lon="1.44326">
        <ele>218</ele>
        <time>2025-02-15T09:30:30Z</time>
      </trkpt>
      <trkpt lat="43.55525" lon="1.44323">
        <ele>218</ele>
        <time>2025-02-15T09:30:31Z</time>
      </trkpt>
      <trkpt lat="43.55525" lon="1.44323">
        <ele>218</ele>
        <time>2025-02-15T09:30:32Z</time>
      </trkpt>
      <trkpt lat="43.55527" lon="1.44319">
        <ele>219</ele>
        <time>2025-02-15T09:30:33Z</time>
      </trkpt>
      <trkpt lat="43.55527" lon="1.44319">
        <ele>219</ele>
        <time>2025-02-15T09:30:34Z</time>
      </trkpt>
      <trkpt lat="43.5553" lon="1.44316">
        <ele>219</ele>
        <time>2025-02-15T09:30:35Z</time>
      </trkpt>
      <trkpt lat="43.55533" lon="1.44314">
        <ele>219</ele>
        <time>2025-02-15T09:30:37Z</time>
      </trkpt>
      <trkpt lat="43.55535" lon="1.44313">
        <ele>219</ele>
        <time>2025-02-15T09:30:38Z</time>
      </trkpt>
      <trkpt lat="43.55537" lon="1.44312">
        <ele>219</ele>
        <time>2025-02-15T09:30:39Z</time>
      </trkpt>
      <trkpt lat="43.55539" lon="1.44313">
        <ele>219</ele>
        <time>2025-02-15T09:30:40Z</time>
      </trkpt>
      <trkpt lat="43.55542" lon="1.44314">
        <ele>220</ele>
        <time>2025-02-15T09:30:42Z</time>
      </trkpt>
      <trkpt lat="43.55542" lon="1.44314">
        <ele>220</ele>
        <time>2025-02-15T09:30:43Z</time>
      </trkpt>
      <trkpt lat="43.55545" lon="1.44316">
        <ele>220</ele>
        <time>2025-02-15T09:30:44Z</time>
      </trkpt>
      <trkpt lat="43.55545" lon="1.44316">
        <ele>221</ele>
        <time>2025-02-15T09:30:45Z</time>
      </trkpt>
      <trkpt lat="43.55548" lon="1.44319">
        <ele>221</ele>
        <time>2025-02-15T09:30:46Z</time>
      </trkpt>
      <trkpt lat="43.55548" lon="1.44319">
        <ele>223</ele>
        <time>2025-02-15T09:30:47Z</time>
      </trkpt>
      <trkpt lat="43.5555" lon="1.44322">
        <ele>223</ele>
        <time>2025-02-15T09:30:48Z</time>
      </trkpt>
      <trkpt lat="43.5555" lon="1.44322">
        <ele>223</ele>
        <time>2025-02-15T09:30:49Z</time>
      </trkpt>
      <trkpt lat="43.55553" lon="1.44324">
        <ele>223</ele>
        <time>2025-02-15T09:30:50Z</time>
      </trkpt>
      <trkpt lat="43.55553" lon="1.44324">
        <ele>223</ele>
        <time>2025-02-15T09:30:51Z</time>
      </trkpt>
      <trkpt lat="43.55555" lon="1.44327">
        <ele>223</ele>
        <time>2025-02-15T09:30:52Z</time>
      </trkpt>
      <trkpt lat="43.55557" lon="1.44331">
        <ele>223</ele>
        <time>2025-02-15T09:30:54Z</time>
      </trkpt>
      <trkpt lat="43.55559" lon="1.44334">
        <ele>223</ele>
        <time>2025-02-15T09:30:56Z</time>
      </trkpt>
      <trkpt lat="43.55559" lon="1.44334">
        <ele>224</ele>
        <time>2025-02-15T09:30:57Z</time>
      </trkpt>
      <trkpt lat="43.55561" lon="1.44336">
        <ele>224</ele>
        <time>2025-02-15T09:30:58Z</time>
      </trkpt>
      <trkpt lat="43.55561" lon="1.44336">
        <ele>224</ele>
        <time>2025-02-15T09:30:59Z</time>
      </trkpt>
      <trkpt lat="43.55563" lon="1.44339">
        <ele>224</ele>
        <time>2025-02-15T09:31:00Z</time>
      </trkpt>
      <trkpt lat="43.55563" lon="1.44339">
        <ele>225</ele>
        <time>2025-02-15T09:31:01Z</time>
      </trkpt>
      <trkpt lat="43.55565" lon="1.44342">
        <ele>225</ele>
        <time>2025-02-15T09:31:02Z</time>
      </trkpt>
      <trkpt lat="43.55565" lon="1.44342">
        <ele>225</ele>
        <time>2025-02-15T09:31:03Z</time>
      </trkpt>
      <trkpt lat="43.55567" lon="1.44344">
        <ele>226</ele>
        <time>2025-02-15T09:31:04Z</time>
      </trkpt>
      <trkpt lat="43.55567" lon="1.44344">
        <ele>226</ele>
        <time>2025-02-15T09:31:05Z</time>
      </trkpt>
      <trkpt lat="43.55568" lon="1.44347">
        <ele>226</ele>
        <time>2025-02-15T09:31:06Z</time>
      </trkpt>
      <trkpt lat="43.55571" lon="1.4435">
        <ele>226</ele>
        <time>2025-02-15T09:31:08Z</time>
      </trkpt>
      <trkpt lat="43.55573" lon="1.44352">
        <ele>227</ele>
        <time>2025-02-15T09:31:10Z</time>
      </trkpt>
      <trkpt lat="43.55573" lon="1.44352">
        <ele>228</ele>
        <time>2025-02-15T09:31:11Z</time>
      </trkpt>
      <trkpt lat="43.55575" lon="1.44355">
        <ele>228</ele>
        <time>2025-02-15T09:31:12Z</time>
      </trkpt>
      <trkpt lat="43.55575" lon="1.44355">
        <ele>228</ele>
        <time>2025-02-15T09:31:13Z</time>
      </trkpt>
      <trkpt lat="43.55577" lon="1.44357">
        <ele>228</ele>
        <time>2025-02-15T09:31:14Z</time>
      </trkpt>
      <trkpt lat="43.5558" lon="1.4436">
        <ele>228</ele>
        <time>2025-02-15T09:31:16Z</time>
      </trkpt>
      <trkpt lat="43.5558" lon="1.4436">
        <ele>229</ele>
        <time>2025-02-15T09:31:17Z</time>
      </trkpt>
      <trkpt lat="43.55583" lon="1.44362">
        <ele>229</ele>
        <time>2025-02-15T09:31:18Z</time>
      </trkpt>
      <trkpt lat="43.55583" lon="1.44362">
        <ele>230</ele>
        <time>2025-02-15T09:31:19Z</time>
      </trkpt>
      <trkpt lat="43.55585" lon="1.44364">
        <ele>230</ele>
        <time>2025-02-15T09:31:20Z</time>
      </trkpt>
      <trkpt lat="43.55585" lon="1.44364">
        <ele>230</ele>
        <time>2025-02-15T09:31:21Z</time>
      </trkpt>
      <trkpt lat="43.55587" lon="1.44367">
        <ele>230</ele>
        <time>2025-02-15T09:31:22Z</time>
      </trkpt>
      <trkpt lat="43.55587" lon="1.44367">
        <ele>230</ele>
        <time>2025-02-15T09:31:23Z</time>
      </trkpt>
      <trkpt lat="43.55589" lon="1.44369">
        <ele>230</ele>
        <time>2025-02-15T09:31:24Z</time>
      </trkpt>
      <trkpt lat="43.55589" lon="1.44369">
        <ele>231</ele>
        <time>2025-02-15T09:31:25Z</time>
      </trkpt>
      <trkpt lat="43.55592" lon="1.44372">
        <ele>231</ele>
        <time>2025-02-15T09:31:26Z</time>
      </trkpt>
      <trkpt lat="43.55592" lon="1.44372">
        <ele>231</ele>
        <time>2025-02-15T09:31:27Z</time>
      </trkpt>
      <trkpt lat="43.55594" lon="1.44374">
        <ele>231</ele>
        <time>2025-02-15T09:31:28Z</time>
      </trkpt>
      <trkpt lat="43.55594" lon="1.44374">
        <ele>231</ele>
        <time>2025-02-15T09:31:29Z</time>
      </trkpt>
      <trkpt lat="43.55597" lon="1.44376">
        <ele>231</ele>
        <time>2025-02-15T09:31:30Z</time>
      </trkpt>
      <trkpt lat="43.556" lon="1.44378">
        <ele>232</ele>
        <time>2025-02-15T09:31:32Z</time>
      </trkpt>
      <trkpt lat="43.55602" lon="1.4438">
        <ele>232</ele>
        <time>2025-02-15T09:31:34Z</time>
      </trkpt>
      <trkpt lat="43.55602" lon="1.4438">
        <ele>232</ele>
        <time>2025-02-15T09:31:35Z</time>
      </trkpt>
      <trkpt lat="43.55605" lon="1.44383">
        <ele>232</ele>
        <time>2025-02-15T09:31:36Z</time>
      </trkpt>
      <trkpt lat="43.55605" lon="1.44383">
        <ele>232</ele>
        <time>2025-02-15T09:31:37Z</time>
      </trkpt>
      <trkpt lat="43.55608" lon="1.44386">
        <ele>232</ele>
        <time>2025-02-15T09:31:38Z</time>
      </trkpt>
      <trkpt lat="43.55608" lon="1.44386">
        <ele>232</ele>
        <time>2025-02-15T09:31:39Z</time>
      </trkpt>
      <trkpt lat="43.5561" lon="1.44388">
        <ele>232</ele>
        <time>2025-02-15T09:31:40Z</time>
      </trkpt>
      <trkpt lat="43.5561" lon="1.44388">
        <ele>232</ele>
        <time>2025-02-15T09:31:41Z</time>
      </trkpt>
      <trkpt lat="43.55613" lon="1.44391">
        <ele>232</ele>
        <time>2025-02-15T09:31:42Z</time>
      </trkpt>
      <trkpt lat="43.55613" lon="1.44391">
        <ele>232</ele>
        <time>2025-02-15T09:31:43Z</time>
      </trkpt>
      <trkpt lat="43.55615" lon="1.44394">
        <ele>232</ele>
        <time>2025-02-15T09:31:44Z</time>
      </trkpt>
      <trkpt lat="43.55615" lon="1.44394">
        <ele>233</ele>
        <time>2025-02-15T09:31:45Z</time>
      </trkpt>
      <trkpt lat="43.55617" lon="1.44398">
        <ele>233</ele>
        <time>2025-02-15T09:31:46Z</time>
      </trkpt>
      <trkpt lat="43.55617" lon="1.44398">
        <ele>233</ele>
        <time>2025-02-15T09:31:47Z</time>
      </trkpt>
      <trkpt lat="43.55618" lon="1.44402">
        <ele>233</ele>
        <time>2025-02-15T09:31:48Z</time>
      </trkpt>
      <trkpt lat="43.55619" lon="1.44406">
        <ele>233</ele>
        <time>2025-02-15T09:31:50Z</time>
      </trkpt>
      <trkpt lat="43.55621" lon="1.44409">
        <ele>234</ele>
        <time>2025-02-15T09:31:52Z</time>
      </trkpt>
      <trkpt lat="43.55621" lon="1.44409">
        <ele>234</ele>
        <time>2025-02-15T09:31:53Z</time>
      </trkpt>
      <trkpt lat="43.55622" lon="1.44412">
        <ele>235</ele>
        <time>2025-02-15T09:31:54Z</time>
      </trkpt>
      <trkpt lat="43.55622" lon="1.44412">
        <ele>235</ele>
        <time>2025-02-15T09:31:55Z</time>
      </trkpt>
      <trkpt lat="43.55623" lon="1.44416">
        <ele>236</ele>
        <time>2025-02-15T09:31:56Z</time>
      </trkpt>
      <trkpt lat="43.55623" lon="1.44416">
        <ele>236</ele>
        <time>2025-02-15T09:31:57Z</time>
      </trkpt>
      <trkpt lat="43.55624" lon="1.44419">
        <ele>236</ele>
        <time>2025-02-15T09:31:58Z</time>
      </trkpt>
      <trkpt lat="43.55624" lon="1.44419">
        <ele>236</ele>
        <time>2025-02-15T09:31:59Z</time>
      </trkpt>
      <trkpt lat="43.55626" lon="1.44423">
        <ele>236</ele>
        <time>2025-02-15T09:32:00Z</time>
      </trkpt>
      <trkpt lat="43.55626" lon="1.44423">
        <ele>236</ele>
        <time>2025-02-15T09:32:01Z</time>
      </trkpt>
      <trkpt lat="43.55628" lon="1.44427">
        <ele>236</ele>
        <time>2025-02-15T09:32:02Z</time>
      </trkpt>
      <trkpt lat="43.55628" lon="1.44427">
        <ele>237</ele>
        <time>2025-02-15T09:32:03Z</time>
      </trkpt>
      <trkpt lat="43.55629" lon="1.4443">
        <ele>236</ele>
        <time>2025-02-15T09:32:04Z</time>
      </trkpt>
      <trkpt lat="43.55629" lon="1.4443">
        <ele>236</ele>
        <time>2025-02-15T09:32:05Z</time>
      </trkpt>
      <trkpt lat="43.55631" lon="1.44434">
        <ele>236</ele>
        <time>2025-02-15T09:32:06Z</time>
      </trkpt>
      <trkpt lat="43.55632" lon="1.44438">
        <ele>236</ele>
        <time>2025-02-15T09:32:08Z</time>
      </trkpt>
      <trkpt lat="43.55633" lon="1.44442">
        <ele>236</ele>
        <time>2025-02-15T09:32:10Z</time>
      </trkpt>
      <trkpt lat="43.55633" lon="1.44442">
        <ele>236</ele>
        <time>2025-02-15T09:32:11Z</time>
      </trkpt>
      <trkpt lat="43.55634" lon="1.44445">
        <ele>236</ele>
        <time>2025-02-15T09:32:12Z</time>
      </trkpt>
      <trkpt lat="43.55634" lon="1.44445">
        <ele>237</ele>
        <time>2025-02-15T09:32:13Z</time>
      </trkpt>
      <trkpt lat="43.55636" lon="1.44448">
        <ele>237</ele>
        <time>2025-02-15T09:32:14Z</time>
      </trkpt>
      <trkpt lat="43.55636" lon="1.44448">
        <ele>237</ele>
        <time>2025-02-15T09:32:15Z</time>
      </trkpt>
      <trkpt lat="43.55638" lon="1.44451">
        <ele>237</ele>
        <time>2025-02-15T09:32:16Z</time>
      </trkpt>
      <trkpt lat="43.55638" lon="1.44451">
        <ele>238</ele>
        <time>2025-02-15T09:32:17Z</time>
      </trkpt>
      <trkpt lat="43.5564" lon="1.44454">
        <ele>238</ele>
        <time>2025-02-15T09:32:18Z</time>
      </trkpt>
      <trkpt lat="43.5564" lon="1.44454">
        <ele>238</ele>
        <time>2025-02-15T09:32:19Z</time>
      </trkpt>
      <trkpt lat="43.55642" lon="1.44457">
        <ele>238</ele>
        <time>2025-02-15T09:32:20Z</time>
      </trkpt>
      <trkpt lat="43.55642" lon="1.44457">
        <ele>239</ele>
        <time>2025-02-15T09:32:21Z</time>
      </trkpt>
      <trkpt lat="43.55645" lon="1.44459">
        <ele>239</ele>
        <time>2025-02-15T09:32:22Z</time>
      </trkpt>
      <trkpt lat="43.55647" lon="1.44462">
        <ele>240</ele>
        <time>2025-02-15T09:32:24Z</time>
      </trkpt>
      <trkpt lat="43.55649" lon="1.44464">
        <ele>240</ele>
        <time>2025-02-15T09:32:26Z</time>
      </trkpt>
      <trkpt lat="43.55649" lon="1.44464">
        <ele>240</ele>
        <time>2025-02-15T09:32:27Z</time>
      </trkpt>
      <trkpt lat="43.55651" lon="1.44467">
        <ele>240</ele>
        <time>2025-02-15T09:32:28Z</time>
      </trkpt>
      <trkpt lat="43.55651" lon="1.44467">
        <ele>240</ele>
        <time>2025-02-15T09:32:29Z</time>
      </trkpt>
      <trkpt lat="43.55653" lon="1.44469">
        <ele>240</ele>
        <time>2025-02-15T09:32:30Z</time>
      </trkpt>
      <trkpt lat="43.55653" lon="1.44469">
        <ele>240</ele>
        <time>2025-02-15T09:32:31Z</time>
      </trkpt>
      <trkpt lat="43.55655" lon="1.44472">
        <ele>240</ele>
        <time>2025-02-15T09:32:32Z</time>
      </trkpt>
      <trkpt lat="43.55655" lon="1.44472">
        <ele>241</ele>
        <time>2025-02-15T09:32:33Z</time>
      </trkpt>
      <trkpt lat="43.55657" lon="1.44474">
        <ele>241</ele>
        <time>2025-02-15T09:32:34Z</time>
      </trkpt>
      <trkpt lat="43.55657" lon="1.44474">
        <ele>241</ele>
        <time>2025-02-15T09:32:35Z</time>
      </trkpt>
      <trkpt lat="43.55659" lon="1.44477">
        <ele>241</ele>
        <time>2025-02-15T09:32:36Z</time>
      </trkpt>
      <trkpt lat="43.55659" lon="1.44477">
        <ele>242</ele>
        <time>2025-02-15T09:32:37Z</time>
      </trkpt>
      <trkpt lat="43.55662" lon="1.44479">
        <ele>242</ele>
        <time>2025-02-15T09:32:38Z</time>
      </trkpt>
      <trkpt lat="43.55664" lon="1.4448">
        <ele>243</ele>
        <time>2025-02-15T09:32:40Z</time>
      </trkpt>
      <trkpt lat="43.55664" lon="1.4448">
        <ele>243</ele>
        <time>2025-02-15T09:32:41Z</time>
      </trkpt>
      <trkpt lat="43.55667" lon="1.44482">
        <ele>244</ele>
        <time>2025-02-15T09:32:42Z</time>
      </trkpt>
      <trkpt lat="43.55667" lon="1.44482">
        <ele>244</ele>
        <time>2025-02-15T09:32:43Z</time>
      </trkpt>
      <trkpt lat="43.55669" lon="1.44483">
        <ele>244</ele>
        <time>2025-02-15T09:32:44Z</time>
      </trkpt>
      <trkpt lat="43.55672" lon="1.44485">
        <ele>244</ele>
        <time>2025-02-15T09:32:46Z</time>
      </trkpt>
      <trkpt lat="43.55674" lon="1.44486">
        <ele>245</ele>
        <time>2025-02-15T09:32:48Z</time>
      </trkpt>
      <trkpt lat="43.55674" lon="1.44486">
        <ele>244</ele>
        <time>2025-02-15T09:32:49Z</time>
      </trkpt>
      <trkpt lat="43.55676" lon="1.44488">
        <ele>244</ele>
        <time>2025-02-15T09:32:50Z</time>
      </trkpt>
      <trkpt lat="43.55676" lon="1.44488">
        <ele>245</ele>
        <time>2025-02-15T09:32:51Z</time>
      </trkpt>
      <trkpt lat="43.55678" lon="1.44489">
        <ele>245</ele>
        <time>2025-02-15T09:32:52Z</time>
      </trkpt>
      <trkpt lat="43.55678" lon="1.44489">
        <ele>247</ele>
        <time>2025-02-15T09:32:53Z</time>
      </trkpt>
      <trkpt lat="43.5568" lon="1.44492">
        <ele>247</ele>
        <time>2025-02-15T09:32:54Z</time>
      </trkpt>
      <trkpt lat="43.55682" lon="1.44493">
        <ele>248</ele>
        <time>2025-02-15T09:32:56Z</time>
      </trkpt>
      <trkpt lat="43.55682" lon="1.44493">
        <ele>248</ele>
        <time>2025-02-15T09:32:57Z</time>
      </trkpt>
      <trkpt lat="43.55683" lon="1.44496">
        <ele>248</ele>
        <time>2025-02-15T09:32:58Z</time>
      </trkpt>
      <trkpt lat="43.55683" lon="1.44496">
        <ele>248</ele>
        <time>2025-02-15T09:32:59Z</time>
      </trkpt>
      <trkpt lat="43.55685" lon="1.44498">
        <ele>248</ele>
        <time>2025-02-15T09:33:00Z</time>
      </trkpt>
      <trkpt lat="43.55686" lon="1.445">
        <ele>249</ele>
        <time>2025-02-15T09:33:02Z</time>
      </trkpt>
      <trkpt lat="43.55686" lon="1.445">
        <ele>250</ele>
        <time>2025-02-15T09:33:03Z</time>
      </trkpt>
      <trkpt lat="43.55688" lon="1.44503">
        <ele>250</ele>
        <time>2025-02-15T09:33:04Z</time>
      </trkpt>
      <trkpt lat="43.55688" lon="1.44503">
        <ele>250</ele>
        <time>2025-02-15T09:33:05Z</time>
      </trkpt>
      <trkpt lat="43.55689" lon="1.44506">
        <ele>251</ele>
        <time>2025-02-15T09:33:06Z</time>
      </trkpt>
      <trkpt lat="43.55689" lon="1.44506">
        <ele>251</ele>
        <time>2025-02-15T09:33:07Z</time>
      </trkpt>
      <trkpt lat="43.55691" lon="1.44509">
        <ele>251</ele>
        <time>2025-02-15T09:33:08Z</time>
      </trkpt>
      <trkpt lat="43.55691" lon="1.44509">
        <ele>251</ele>
        <time>2025-02-15T09:33:09Z</time>
      </trkpt>
      <trkpt lat="43.55693" lon="1.44512">
        <ele>251</ele>
        <time>2025-02-15T09:33:10Z</time>
      </trkpt>
      <trkpt lat="43.55693" lon="1.44512">
        <ele>251</ele>
        <time>2025-02-15T09:33:11Z</time>
      </trkpt>
      <trkpt lat="43.55695" lon="1.44514">
        <ele>251</ele>
        <time>2025-02-15T09:33:12Z</time>
      </trkpt>
      <trkpt lat="43.55697" lon="1.44516">
        <ele>251</ele>
        <time>2025-02-15T09:33:14Z</time>
      </trkpt>
      <trkpt lat="43.55697" lon="1.44516">
        <ele>252</ele>
        <time>2025-02-15T09:33:15Z</time>
      </trkpt>
      <trkpt lat="43.557" lon="1.44519">
        <ele>252</ele>
        <time>2025-02-15T09:33:16Z</time>
      </trkpt>
      <trkpt lat="43.557" lon="1.44519">
        <ele>252</ele>
        <time>2025-02-15T09:33:17Z</time>
      </trkpt>
      <trkpt lat="43.55702" lon="1.44521">
        <ele>252</ele>
        <time>2025-02-15T09:33:18Z</time>
      </trkpt>
      <trkpt lat="43.55702" lon="1.44521">
        <ele>253</ele>
        <time>2025-02-15T09:33:19Z</time>
      </trkpt>
      <trkpt lat="43.55705" lon="1.44522">
        <ele>253</ele>
        <time>2025-02-15T09:33:20Z</time>
      </trkpt>
      <trkpt lat="43.55705" lon="1.44522">
        <ele>253</ele>
        <time>2025-02-15T09:33:21Z</time>
      </trkpt>
      <trkpt lat="43.55708" lon="1.44524">
        <ele>253</ele>
        <time>2025-02-15T09:33:22Z</time>
      </trkpt>
      <trkpt lat="43.55708" lon="1.44524">
        <ele>253</ele>
        <time>2025-02-15T09:33:23Z</time>
      </trkpt>
      <trkpt lat="43.5571" lon="1.44526">
        <ele>253</ele>
        <time>2025-02-15T09:33:24Z</time>
      </trkpt>
      <trkpt lat="43.5571" lon="1.44526">
        <ele>254</ele>
        <time>2025-02-15T09:33:25Z</time>
      </trkpt>
      <trkpt lat="43.55713" lon="1.44527">
        <ele>254</ele>
        <time>2025-02-15T09:33:26Z</time>
      </trkpt>
      <trkpt lat="43.55716" lon="1.44529">
        <ele>253</ele>
        <time>2025-02-15T09:33:28Z</time>
      </trkpt>
      <trkpt lat="43.55719" lon="1.44531">
        <ele>253</ele>
        <time>2025-02-15T09:33:30Z</time>
      </trkpt>
      <trkpt lat="43.55719" lon="1.44531">
        <ele>253</ele>
        <time>2025-02-15T09:33:31Z</time>
      </trkpt>
      <trkpt lat="43.55721" lon="1.44532">
        <ele>253</ele>
        <time>2025-02-15T09:33:32Z</time>
      </trkpt>
      <trkpt lat="43.55721" lon="1.44532">
        <ele>254</ele>
        <time>2025-02-15T09:33:33Z</time>
      </trkpt>
      <trkpt lat="43.55723" lon="1.44534">
        <ele>254</ele>
        <time>2025-02-15T09:33:34Z</time>
      </trkpt>
      <trkpt lat="43.55723" lon="1.44534">
        <ele>254</ele>
        <time>2025-02-15T09:33:35Z</time>
      </trkpt>
      <trkpt lat="43.55726" lon="1.44536">
        <ele>255</ele>
        <time>2025-02-15T09:33:36Z</time>
      </trkpt>
      <trkpt lat="43.55726" lon="1.44536">
        <ele>255</ele>
        <time>2025-02-15T09:33:37Z</time>
      </trkpt>
      <trkpt lat="43.55728" lon="1.44539">
        <ele>255</ele>
        <time>2025-02-15T09:33:38Z</time>
      </trkpt>
      <trkpt lat="43.5573" lon="1.44541">
        <ele>255</ele>
        <time>2025-02-15T09:33:40Z</time>
      </trkpt>
      <trkpt lat="43.55733" lon="1.44544">
        <ele>255</ele>
        <time>2025-02-15T09:33:42Z</time>
      </trkpt>
      <trkpt lat="43.55733" lon="1.44544">
        <ele>255</ele>
        <time>2025-02-15T09:33:43Z</time>
      </trkpt>
      <trkpt lat="43.55735" lon="1.44547">
        <ele>255</ele>
        <time>2025-02-15T09:33:44Z</time>
      </trkpt>
      <trkpt lat="43.55735" lon="1.44547">
        <ele>256</ele>
        <time>2025-02-15T09:33:45Z</time>
      </trkpt>
      <trkpt lat="43.55737" lon="1.44549">
        <ele>256</ele>
        <time>2025-02-15T09:33:46Z</time>
      </trkpt>
      <trkpt lat="43.55737" lon="1.44549">
        <ele>256</ele>
        <time>2025-02-15T09:33:47Z</time>
      </trkpt>
      <trkpt lat="43.55739" lon="1.44551">
        <ele>256</ele>
        <time>2025-02-15T09:33:48Z</time>
      </trkpt>
      <trkpt lat="43.55739" lon="1.44551">
        <ele>256</ele>
        <time>2025-02-15T09:33:49Z</time>
      </trkpt>
      <trkpt lat="43.55741" lon="1.44554">
        <ele>257</ele>
        <time>2025-02-15T09:33:50Z</time>
      </trkpt>
      <trkpt lat="43.55741" lon="1.44554">
        <ele>257</ele>
        <time>2025-02-15T09:33:51Z</time>
      </trkpt>
      <trkpt lat="43.55744" lon="1.44556">
        <ele>257</ele>
        <time>2025-02-15T09:33:52Z</time>
      </trkpt>
      <trkpt lat="43.55744" lon="1.44556">
        <ele>257</ele>
        <time>2025-02-15T09:33:53Z</time>
      </trkpt>
      <trkpt lat="43.55747" lon="1.44558">
        <ele>257</ele>
        <time>2025-02-15T09:33:54Z</time>
      </trkpt>
      <trkpt lat="43.55747" lon="1.44558">
        <ele>257</ele>
        <time>2025-02-15T09:33:55Z</time>
      </trkpt>
      <trkpt lat="43.5575" lon="1.4456">
        <ele>257</ele>
        <time>2025-02-15T09:33:56Z</time>
      </trkpt>
      <trkpt lat="43.5575" lon="1.4456">
        <ele>258</ele>
        <time>2025-02-15T09:33:57Z</time>
      </trkpt>
      <trkpt lat="43.55752" lon="1.44562">
        <ele>258</ele>
        <time>2025-02-15T09:33:58Z</time>
      </trkpt>
      <trkpt lat="43.55752" lon="1.44562">
        <ele>258</ele>
        <time>2025-02-15T09:33:59Z</time>
      </trkpt>
      <trkpt lat="43.55755" lon="1.44565">
        <ele>258</ele>
        <time>2025-02-15T09:34:00Z</time>
      </trkpt>
      <trkpt lat="43.55755" lon="1.44565">
        <ele>258</ele>
        <time>2025-02-15T09:34:01Z</time>
      </trkpt>
      <trkpt lat="43.55758" lon="1.44567">
        <ele>258</ele>
        <time>2025-02-15T09:34:02Z</time>
      </trkpt>
      <trkpt lat="43.55761" lon="1.44568">
        <ele>258</ele>
        <time>2025-02-15T09:34:04Z</time>
      </trkpt>
      <trkpt lat="43.55761" lon="1.44568">
        <ele>259</ele>
        <time>2025-02-15T09:34:05Z</time>
      </trkpt>
      <trkpt lat="43.55764" lon="1.4457">
        <ele>259</ele>
        <time>2025-02-15T09:34:06Z</time>
      </trkpt>
      <trkpt lat="43.55764" lon="1.4457">
        <ele>259</ele>
        <time>2025-02-15T09:34:07Z</time>
      </trkpt>
      <trkpt lat="43.55766" lon="1.44571">
        <ele>260</ele>
        <time>2025-02-15T09:34:08Z</time>
      </trkpt>
      <trkpt lat="43.55766" lon="1.44571">
        <ele>260</ele>
        <time>2025-02-15T09:34:09Z</time>
      </trkpt>
      <trkpt lat="43.55769" lon="1.44572">
        <ele>260</ele>
        <time>2025-02-15T09:34:10Z</time>
      </trkpt>
      <trkpt lat="43.55772" lon="1.44573">
        <ele>260</ele>
        <time>2025-02-15T09:34:12Z</time>
      </trkpt>
      <trkpt lat="43.55772" lon="1.44573">
        <ele>260</ele>
        <time>2025-02-15T09:34:13Z</time>
      </trkpt>
      <trkpt lat="43.55775" lon="1.44574">
        <ele>261</ele>
        <time>2025-02-15T09:34:14Z</time>
      </trkpt>
      <trkpt lat="43.55777" lon="1.44575">
        <ele>261</ele>
        <time>2025-02-15T09:34:16Z</time>
      </trkpt>
      <trkpt lat="43.5578" lon="1.44575">
        <ele>262</ele>
        <time>2025-02-15T09:34:18Z</time>
      </trkpt>
      <trkpt lat="43.5578" lon="1.44575">
        <ele>262</ele>
        <time>2025-02-15T09:34:19Z</time>
      </trkpt>
      <trkpt lat="43.55783" lon="1.44575">
        <ele>262</ele>
        <time>2025-02-15T09:34:20Z</time>
      </trkpt>
      <trkpt lat="43.55783" lon="1.44575">
        <ele>262</ele>
        <time>2025-02-15T09:34:21Z</time>
      </trkpt>
      <trkpt lat="43.55786" lon="1.44576">
        <ele>262</ele>
        <time>2025-02-15T09:34:22Z</time>
      </trkpt>
      <trkpt lat="43.55786" lon="1.44576">
        <ele>262</ele>
        <time>2025-02-15T09:34:23Z</time>
      </trkpt>
      <trkpt lat="43.55789" lon="1.44577">
        <ele>262</ele>
        <time>2025-02-15T09:34:24Z</time>
      </trkpt>
      <trkpt lat="43.55789" lon="1.44577">
        <ele>262</ele>
        <time>2025-02-15T09:34:25Z</time>
      </trkpt>
      <trkpt lat="43.55792" lon="1.44579">
        <ele>262</ele>
        <time>2025-02-15T09:34:26Z</time>
      </trkpt>
      <trkpt lat="43.55792" lon="1.44579">
        <ele>262</ele>
        <time>2025-02-15T09:34:27Z</time>
      </trkpt>
      <trkpt lat="43.55794" lon="1.44579">
        <ele>262</ele>
        <time>2025-02-15T09:34:28Z</time>
      </trkpt>
      <trkpt lat="43.55796" lon="1.44581">
        <ele>263</ele>
        <time>2025-02-15T09:34:30Z</time>
      </trkpt>
      <trkpt lat="43.55796" lon="1.44581">
        <ele>263</ele>
        <time>2025-02-15T09:34:31Z</time>
      </trkpt>
      <trkpt lat="43.55799" lon="1.44582">
        <ele>263</ele>
        <time>2025-02-15T09:34:32Z</time>
      </trkpt>
      <trkpt lat="43.55799" lon="1.44582">
        <ele>263</ele>
        <time>2025-02-15T09:34:33Z</time>
      </trkpt>
      <trkpt lat="43.55802" lon="1.44583">
        <ele>263</ele>
        <time>2025-02-15T09:34:34Z</time>
      </trkpt>
      <trkpt lat="43.55802" lon="1.44583">
        <ele>264</ele>
        <time>2025-02-15T09:34:35Z</time>
      </trkpt>
      <trkpt lat="43.55804" lon="1.44584">
        <ele>264</ele>
        <time>2025-02-15T09:34:36Z</time>
      </trkpt>
      <trkpt lat="43.55804" lon="1.44584">
        <ele>263</ele>
        <time>2025-02-15T09:34:37Z</time>
      </trkpt>
      <trkpt lat="43.55807" lon="1.44585">
        <ele>263</ele>
        <time>2025-02-15T09:34:38Z</time>
      </trkpt>
      <trkpt lat="43.55807" lon="1.44585">
        <ele>263</ele>
        <time>2025-02-15T09:34:39Z</time>
      </trkpt>
      <trkpt lat="43.55809" lon="1.44586">
        <ele>263</ele>
        <time>2025-02-15T09:34:40Z</time>
      </trkpt>
      <trkpt lat="43.55809" lon="1.44586">
        <ele>264</ele>
        <time>2025-02-15T09:34:41Z</time>
      </trkpt>
      <trkpt lat="43.55813" lon="1.44586">
        <ele>264</ele>
        <time>2025-02-15T09:34:42Z</time>
      </trkpt>
      <trkpt lat="43.55813" lon="1.44586">
        <ele>264</ele>
        <time>2025-02-15T09:34:43Z</time>
      </trkpt>
      <trkpt lat="43.55816" lon="1.44587">
        <ele>264</ele>
        <time>2025-02-15T09:34:44Z</time>
      </trkpt>
      <trkpt lat="43.55817" lon="1.44587">
        <ele>264</ele>
        <time>2025-02-15T09:34:45Z</time>
      </trkpt>
      <trkpt lat="43.55819" lon="1.44587">
        <ele>263</ele>
        <time>2025-02-15T09:34:46Z</time>
      </trkpt>
      <trkpt lat="43.55821" lon="1.44587">
        <ele>263</ele>
        <time>2025-02-15T09:34:47Z</time>
      </trkpt>
      <trkpt lat="43.55823" lon="1.44587">
        <ele>263</ele>
        <time>2025-02-15T09:34:48Z</time>
      </trkpt>
      <trkpt lat="43.55827" lon="1.44587">
        <ele>263</ele>
        <time>2025-02-15T09:34:49Z</time>
      </trkpt>
      <trkpt lat="43.55828" lon="1.44587">
        <ele>264</ele>
        <time>2025-02-15T09:34:50Z</time>
      </trkpt>
      <trkpt lat="43.5583" lon="1.44587">
        <ele>264</ele>
        <time>2025-02-15T09:34:51Z</time>
      </trkpt>
      <trkpt lat="43.55833" lon="1.44586">
        <ele>264</ele>
        <time>2025-02-15T09:34:52Z</time>
      </trkpt>
      <trkpt lat="43.55837" lon="1.44585">
        <ele>264</ele>
        <time>2025-02-15T09:34:53Z</time>
      </trkpt>
      <trkpt lat="43.55838" lon="1.44585">
        <ele>263</ele>
        <time>2025-02-15T09:34:54Z</time>
      </trkpt>
      <trkpt lat="43.55842" lon="1.44584">
        <ele>263</ele>
        <time>2025-02-15T09:34:55Z</time>
      </trkpt>
      <trkpt lat="43.55843" lon="1.44583">
        <ele>264</ele>
        <time>2025-02-15T09:34:56Z</time>
      </trkpt>
      <trkpt lat="43.55846" lon="1.44583">
        <ele>264</ele>
        <time>2025-02-15T09:34:57Z</time>
      </trkpt>
      <trkpt lat="43.55849" lon="1.44582">
        <ele>264</ele>
        <time>2025-02-15T09:34:58Z</time>
      </trkpt>
      <trkpt lat="43.55852" lon="1.44582">
        <ele>264</ele>
        <time>2025-02-15T09:34:59Z</time>
      </trkpt>
      <trkpt lat="43.55854" lon="1.44581">
        <ele>264</ele>
        <time>2025-02-15T09:35:00Z</time>
      </trkpt>
      <trkpt lat="43.55857" lon="1.4458">
        <ele>264</ele>
        <time>2025-02-15T09:35:01Z</time>
      </trkpt>
      <trkpt lat="43.5586" lon="1.4458">
        <ele>264</ele>
        <time>2025-02-15T09:35:02Z</time>
      </trkpt>
      <trkpt lat="43.55862" lon="1.44579">
        <ele>264</ele>
        <time>2025-02-15T09:35:03Z</time>
      </trkpt>
      <trkpt lat="43.55865" lon="1.44579">
        <ele>264</ele>
        <time>2025-02-15T09:35:04Z</time>
      </trkpt>
      <trkpt lat="43.55867" lon="1.44578">
        <ele>264</ele>
        <time>2025-02-15T09:35:05Z</time>
      </trkpt>
      <trkpt lat="43.55871" lon="1.44577">
        <ele>264</ele>
        <time>2025-02-15T09:35:06Z</time>
      </trkpt>
      <trkpt lat="43.55873" lon="1.44577">
        <ele>264</ele>
        <time>2025-02-15T09:35:07Z</time>
      </trkpt>
      <trkpt lat="43.55876" lon="1.44574">
        <ele>264</ele>
        <time>2025-02-15T09:35:08Z</time>
      </trkpt>
      <trkpt lat="43.55877" lon="1.44573">
        <ele>264</ele>
        <time>2025-02-15T09:35:09Z</time>
      </trkpt>
      <trkpt lat="43.5588" lon="1.44572">
        <ele>264</ele>
        <time>2025-02-15T09:35:10Z</time>
      </trkpt>
      <trkpt lat="43.55882" lon="1.4457">
        <ele>264</ele>
        <time>2025-02-15T09:35:11Z</time>
      </trkpt>
      <trkpt lat="43.55886" lon="1.44567">
        <ele>264</ele>
        <time>2025-02-15T09:35:12Z</time>
      </trkpt>
      <trkpt lat="43.55887" lon="1.44566">
        <ele>264</ele>
        <time>2025-02-15T09:35:13Z</time>
      </trkpt>
      <trkpt lat="43.55891" lon="1.44563">
        <ele>264</ele>
        <time>2025-02-15T09:35:14Z</time>
      </trkpt>
      <trkpt lat="43.55892" lon="1.44563">
        <ele>264</ele>
        <time>2025-02-15T09:35:15Z</time>
      </trkpt>
      <trkpt lat="43.55894" lon="1.44561">
        <ele>264</ele>
        <time>2025-02-15T09:35:16Z</time>
      </trkpt>
      <trkpt lat="43.55897" lon="1.44559">
        <ele>264</ele>
        <time>2025-02-15T09:35:17Z</time>
      </trkpt>
      <trkpt lat="43.55899" lon="1.44558">
        <ele>264</ele>
        <time>2025-02-15T09:35:18Z</time>
      </trkpt>
      <trkpt lat="43.55901" lon="1.44556">
        <ele>264</ele>
        <time>2025-02-15T09:35:19Z</time>
      </trkpt>
      <trkpt lat="43.55904" lon="1.44554">
        <ele>264</ele>
        <time>2025-02-15T09:35:20Z</time>
      </trkpt>
      <trkpt lat="43.55906" lon="1.44552">
        <ele>264</ele>
        <time>2025-02-15T09:35:21Z</time>
      </trkpt>
      <trkpt lat="43.5591" lon="1.4455">
        <ele>264</ele>
        <time>2025-02-15T09:35:22Z</time>
      </trkpt>
      <trkpt lat="43.55912" lon="1.44549">
        <ele>264</ele>
        <time>2025-02-15T09:35:23Z</time>
      </trkpt>
      <trkpt lat="43.55914" lon="1.44548">
        <ele>264</ele>
        <time>2025-02-15T09:35:24Z</time>
      </trkpt>
      <trkpt lat="43.55917" lon="1.44546">
        <ele>264</ele>
        <time>2025-02-15T09:35:25Z</time>
      </trkpt>
      <trkpt lat="43.5592" lon="1.44546">
        <ele>264</ele>
        <time>2025-02-15T09:35:26Z</time>
      </trkpt>
      <trkpt lat="43.55924" lon="1.44546">
        <ele>264</ele>
        <time>2025-02-15T09:35:27Z</time>
      </trkpt>
      <trkpt lat="43.55925" lon="1.44547">
        <ele>265</ele>
        <time>2025-02-15T09:35:28Z</time>
      </trkpt>
      <trkpt lat="43.55928" lon="1.44549">
        <ele>265</ele>
        <time>2025-02-15T09:35:29Z</time>
      </trkpt>
      <trkpt lat="43.55929" lon="1.44553">
        <ele>266</ele>
        <time>2025-02-15T09:35:30Z</time>
      </trkpt>
      <trkpt lat="43.5593" lon="1.44559">
        <ele>266</ele>
        <time>2025-02-15T09:35:31Z</time>
      </trkpt>
      <trkpt lat="43.55931" lon="1.44561">
        <ele>265</ele>
        <time>2025-02-15T09:35:32Z</time>
      </trkpt>
      <trkpt lat="43.5593" lon="1.44567">
        <ele>265</ele>
        <time>2025-02-15T09:35:33Z</time>
      </trkpt>
      <trkpt lat="43.5593" lon="1.44569">
        <ele>265</ele>
        <time>2025-02-15T09:35:34Z</time>
      </trkpt>
      <trkpt lat="43.5593" lon="1.44573">
        <ele>265</ele>
        <time>2025-02-15T09:35:35Z</time>
      </trkpt>
      <trkpt lat="43.5593" lon="1.44577">
        <ele>265</ele>
        <time>2025-02-15T09:35:36Z</time>
      </trkpt>
      <trkpt lat="43.5593" lon="1.44582">
        <ele>265</ele>
        <time>2025-02-15T09:35:37Z</time>
      </trkpt>
      <trkpt lat="43.5593" lon="1.44584">
        <ele>264</ele>
        <time>2025-02-15T09:35:38Z</time>
      </trkpt>
      <trkpt lat="43.55928" lon="1.4459">
        <ele>264</ele>
        <time>2025-02-15T09:35:39Z</time>
      </trkpt>
      <trkpt lat="43.55927" lon="1.44592">
        <ele>264</ele>
        <time>2025-02-15T09:35:40Z</time>
      </trkpt>
      <trkpt lat="43.55926" lon="1.44596">
        <ele>265</ele>
        <time>2025-02-15T09:35:41Z</time>
      </trkpt>
      <trkpt lat="43.55926" lon="1.44599">
        <ele>265</ele>
        <time>2025-02-15T09:35:42Z</time>
      </trkpt>
      <trkpt lat="43.55925" lon="1.44603">
        <ele>265</ele>
        <time>2025-02-15T09:35:43Z</time>
      </trkpt>
      <trkpt lat="43.55923" lon="1.44609">
        <ele>265</ele>
        <time>2025-02-15T09:35:44Z</time>
      </trkpt>
      <trkpt lat="43.55923" lon="1.44611">
        <ele>264</ele>
        <time>2025-02-15T09:35:45Z</time>
      </trkpt>
      <trkpt lat="43.55921" lon="1.44617">
        <ele>264</ele>
        <time>2025-02-15T09:35:46Z</time>
      </trkpt>
      <trkpt lat="43.55921" lon="1.44619">
        <ele>264</ele>
        <time>2025-02-15T09:35:47Z</time>
      </trkpt>
      <trkpt lat="43.5592" lon="1.44624">
        <ele>264</ele>
        <time>2025-02-15T09:35:48Z</time>
      </trkpt>
      <trkpt lat="43.5592" lon="1.44626">
        <ele>263</ele>
        <time>2025-02-15T09:35:49Z</time>
      </trkpt>
      <trkpt lat="43.55919" lon="1.4463">
        <ele>263</ele>
        <time>2025-02-15T09:35:50Z</time>
      </trkpt>
      <trkpt lat="43.55918" lon="1.44634">
        <ele>264</ele>
        <time>2025-02-15T09:35:51Z</time>
      </trkpt>
      <trkpt lat="43.55917" lon="1.44638">
        <ele>264</ele>
        <time>2025-02-15T09:35:52Z</time>
      </trkpt>
      <trkpt lat="43.55917" lon="1.44642">
        <ele>264</ele>
        <time>2025-02-15T09:35:53Z</time>
      </trkpt>
      <trkpt lat="43.55917" lon="1.44646">
        <ele>264</ele>
        <time>2025-02-15T09:35:54Z</time>
      </trkpt>
      <trkpt lat="43.55916" lon="1.44649">
        <ele>264</ele>
        <time>2025-02-15T09:35:55Z</time>
      </trkpt>
      <trkpt lat="43.55917" lon="1.44654">
        <ele>264</ele>
        <time>2025-02-15T09:35:56Z</time>
      </trkpt>
      <trkpt lat="43.55917" lon="1.44656">
        <ele>265</ele>
        <time>2025-02-15T09:35:57Z</time>
      </trkpt>
      <trkpt lat="43.55918" lon="1.44659">
        <ele>265</ele>
        <time>2025-02-15T09:35:58Z</time>
      </trkpt>
      <trkpt lat="43.5592" lon="1.44661">
        <ele>265</ele>
        <time>2025-02-15T09:35:59Z</time>
      </trkpt>
      <trkpt lat="43.55922" lon="1.44663">
        <ele>265</ele>
        <time>2025-02-15T09:36:00Z</time>
      </trkpt>
      <trkpt lat="43.55927" lon="1.44665">
        <ele>265</ele>
        <time>2025-02-15T09:36:01Z</time>
      </trkpt>
      <trkpt lat="43.55929" lon="1.44665">
        <ele>265</ele>
        <time>2025-02-15T09:36:02Z</time>
      </trkpt>
      <trkpt lat="43.55935" lon="1.44666">
        <ele>265</ele>
        <time>2025-02-15T09:36:03Z</time>
      </trkpt>
      <trkpt lat="43.55937" lon="1.44665">
        <ele>263</ele>
        <time>2025-02-15T09:36:04Z</time>
      </trkpt>
      <trkpt lat="43.55943" lon="1.44665">
        <ele>263</ele>
        <time>2025-02-15T09:36:05Z</time>
      </trkpt>
      <trkpt lat="43.55945" lon="1.44665">
        <ele>261</ele>
        <time>2025-02-15T09:36:06Z</time>
      </trkpt>
      <trkpt lat="43.55949" lon="1.44664">
        <ele>261</ele>
        <time>2025-02-15T09:36:07Z</time>
      </trkpt>
      <trkpt lat="43.55953" lon="1.44664">
        <ele>261</ele>
        <time>2025-02-15T09:36:08Z</time>
      </trkpt>
      <trkpt lat="43.55959" lon="1.44665">
        <ele>261</ele>
        <time>2025-02-15T09:36:09Z</time>
      </trkpt>
      <trkpt lat="43.55961" lon="1.44665">
        <ele>258</ele>
        <time>2025-02-15T09:36:10Z</time>
      </trkpt>
      <trkpt lat="43.55965" lon="1.44665">
        <ele>258</ele>
        <time>2025-02-15T09:36:11Z</time>
      </trkpt>
      <trkpt lat="43.55968" lon="1.44665">
        <ele>257</ele>
        <time>2025-02-15T09:36:12Z</time>
      </trkpt>
      <trkpt lat="43.55972" lon="1.44666">
        <ele>256</ele>
        <time>2025-02-15T09:36:13Z</time>
      </trkpt>
      <trkpt lat="43.55975" lon="1.44666">
        <ele>255</ele>
        <time>2025-02-15T09:36:14Z</time>
      </trkpt>
      <trkpt lat="43.55979" lon="1.44667">
        <ele>254</ele>
        <time>2025-02-15T09:36:15Z</time>
      </trkpt>
      <trkpt lat="43.55985" lon="1.44669">
        <ele>254</ele>
        <time>2025-02-15T09:36:16Z</time>
      </trkpt>
      <trkpt lat="43.55987" lon="1.4467">
        <ele>253</ele>
        <time>2025-02-15T09:36:17Z</time>
      </trkpt>
      <trkpt lat="43.55992" lon="1.44671">
        <ele>253</ele>
        <time>2025-02-15T09:36:18Z</time>
      </trkpt>
      <trkpt lat="43.55994" lon="1.44672">
        <ele>252</ele>
        <time>2025-02-15T09:36:19Z</time>
      </trkpt>
      <trkpt lat="43.55997" lon="1.44672">
        <ele>252</ele>
        <time>2025-02-15T09:36:20Z</time>
      </trkpt>
      <trkpt lat="43.56" lon="1.44673">
        <ele>251</ele>
        <time>2025-02-15T09:36:21Z</time>
      </trkpt>
      <trkpt lat="43.56003" lon="1.44674">
        <ele>251</ele>
        <time>2025-02-15T09:36:22Z</time>
      </trkpt>
      <trkpt lat="43.56006" lon="1.44675">
        <ele>251</ele>
        <time>2025-02-15T09:36:23Z</time>
      </trkpt>
      <trkpt lat="43.56009" lon="1.44677">
        <ele>251</ele>
        <time>2025-02-15T09:36:24Z</time>
      </trkpt>
      <trkpt lat="43.56013" lon="1.44678">
        <ele>250</ele>
        <time>2025-02-15T09:36:25Z</time>
      </trkpt>
      <trkpt lat="43.56016" lon="1.4468">
        <ele>250</ele>
        <time>2025-02-15T09:36:26Z</time>
      </trkpt>
      <trkpt lat="43.56019" lon="1.44682">
        <ele>250</ele>
        <time>2025-02-15T09:36:27Z</time>
      </trkpt>
      <trkpt lat="43.56023" lon="1.44684">
        <ele>250</ele>
        <time>2025-02-15T09:36:28Z</time>
      </trkpt>
      <trkpt lat="43.56025" lon="1.44685">
        <ele>250</ele>
        <time>2025-02-15T09:36:29Z</time>
      </trkpt>
      <trkpt lat="43.56029" lon="1.44688">
        <ele>250</ele>
        <time>2025-02-15T09:36:30Z</time>
      </trkpt>
      <trkpt lat="43.56031" lon="1.44689">
        <ele>249</ele>
        <time>2025-02-15T09:36:31Z</time>
      </trkpt>
      <trkpt lat="43.56034" lon="1.44692">
        <ele>249</ele>
        <time>2025-02-15T09:36:32Z</time>
      </trkpt>
      <trkpt lat="43.56037" lon="1.44694">
        <ele>249</ele>
        <time>2025-02-15T09:36:33Z</time>
      </trkpt>
      <trkpt lat="43.5604" lon="1.44695">
        <ele>248</ele>
        <time>2025-02-15T09:36:34Z</time>
      </trkpt>
      <trkpt lat="43.56044" lon="1.44697">
        <ele>248</ele>
        <time>2025-02-15T09:36:35Z</time>
      </trkpt>
      <trkpt lat="43.56045" lon="1.44698">
        <ele>248</ele>
        <time>2025-02-15T09:36:36Z</time>
      </trkpt>
      <trkpt lat="43.56049" lon="1.44699">
        <ele>248</ele>
        <time>2025-02-15T09:36:37Z</time>
      </trkpt>
      <trkpt lat="43.56051" lon="1.447">
        <ele>248</ele>
        <time>2025-02-15T09:36:38Z</time>
      </trkpt>
      <trkpt lat="43.56055" lon="1.44702">
        <ele>248</ele>
        <time>2025-02-15T09:36:39Z</time>
      </trkpt>
      <trkpt lat="43.56056" lon="1.44703">
        <ele>247</ele>
        <time>2025-02-15T09:36:40Z</time>
      </trkpt>
      <trkpt lat="43.5606" lon="1.44704">
        <ele>247</ele>
        <time>2025-02-15T09:36:41Z</time>
      </trkpt>
      <trkpt lat="43.56062" lon="1.44704">
        <ele>246</ele>
        <time>2025-02-15T09:36:42Z</time>
      </trkpt>
      <trkpt lat="43.56066" lon="1.44705">
        <ele>246</ele>
        <time>2025-02-15T09:36:43Z</time>
      </trkpt>
      <trkpt lat="43.56068" lon="1.44706">
        <ele>245</ele>
        <time>2025-02-15T09:36:44Z</time>
      </trkpt>
      <trkpt lat="43.56071" lon="1.44706">
        <ele>245</ele>
        <time>2025-02-15T09:36:45Z</time>
      </trkpt>
      <trkpt lat="43.56073" lon="1.44706">
        <ele>245</ele>
        <time>2025-02-15T09:36:46Z</time>
      </trkpt>
      <trkpt lat="43.56077" lon="1.44703">
        <ele>245</ele>
        <time>2025-02-15T09:36:47Z</time>
      </trkpt>
      <trkpt lat="43.56078" lon="1.44701">
        <ele>245</ele>
        <time>2025-02-15T09:36:48Z</time>
      </trkpt>
      <trkpt lat="43.56082" lon="1.44699">
        <ele>245</ele>
        <time>2025-02-15T09:36:49Z</time>
      </trkpt>
      <trkpt lat="43.56084" lon="1.44699">
        <ele>245</ele>
        <time>2025-02-15T09:36:50Z</time>
      </trkpt>
      <trkpt lat="43.56087" lon="1.44698">
        <ele>245</ele>
        <time>2025-02-15T09:36:51Z</time>
      </trkpt>
      <trkpt lat="43.5609" lon="1.44697">
        <ele>245</ele>
        <time>2025-02-15T09:36:52Z</time>
      </trkpt>
      <trkpt lat="43.56093" lon="1.44696">
        <ele>245</ele>
        <time>2025-02-15T09:36:53Z</time>
      </trkpt>
      <trkpt lat="43.56097" lon="1.44694">
        <ele>245</ele>
        <time>2025-02-15T09:36:54Z</time>
      </trkpt>
      <trkpt lat="43.56098" lon="1.44693">
        <ele>245</ele>
        <time>2025-02-15T09:36:55Z</time>
      </trkpt>
      <trkpt lat="43.56103" lon="1.44692">
        <ele>245</ele>
        <time>2025-02-15T09:36:56Z</time>
      </trkpt>
      <trkpt lat="43.56104" lon="1.44692">
        <ele>244</ele>
        <time>2025-02-15T09:36:57Z</time>
      </trkpt>
      <trkpt lat="43.56107" lon="1.44691">
        <ele>244</ele>
        <time>2025-02-15T09:36:58Z</time>
      </trkpt>
      <trkpt lat="43.5611" lon="1.44691">
        <ele>244</ele>
        <time>2025-02-15T09:36:59Z</time>
      </trkpt>
      <trkpt lat="43.56113" lon="1.44692">
        <ele>244</ele>
        <time>2025-02-15T09:37:00Z</time>
      </trkpt>
      <trkpt lat="43.56116" lon="1.44693">
        <ele>244</ele>
        <time>2025-02-15T09:37:01Z</time>
      </trkpt>
      <trkpt lat="43.5612" lon="1.44695">
        <ele>244</ele>
        <time>2025-02-15T09:37:02Z</time>
      </trkpt>
      <trkpt lat="43.56123" lon="1.44697">
        <ele>243</ele>
        <time>2025-02-15T09:37:03Z</time>
      </trkpt>
      <trkpt lat="43.56126" lon="1.44699">
        <ele>243</ele>
        <time>2025-02-15T09:37:04Z</time>
      </trkpt>
      <trkpt lat="43.56129" lon="1.44701">
        <ele>243</ele>
        <time>2025-02-15T09:37:05Z</time>
      </trkpt>
      <trkpt lat="43.56133" lon="1.44704">
        <ele>243</ele>
        <time>2025-02-15T09:37:06Z</time>
      </trkpt>
      <trkpt lat="43.56135" lon="1.44705">
        <ele>243</ele>
        <time>2025-02-15T09:37:07Z</time>
      </trkpt>
      <trkpt lat="43.56139" lon="1.44707">
        <ele>243</ele>
        <time>2025-02-15T09:37:08Z</time>
      </trkpt>
      <trkpt lat="43.5614" lon="1.44708">
        <ele>243</ele>
        <time>2025-02-15T09:37:09Z</time>
      </trkpt>
      <trkpt lat="43.56142" lon="1.44709">
        <ele>243</ele>
        <time>2025-02-15T09:37:10Z</time>
      </trkpt>
      <trkpt lat="43.56144" lon="1.44708">
        <ele>243</ele>
        <time>2025-02-15T09:37:11Z</time>
      </trkpt>
      <trkpt lat="43.56146" lon="1.44708">
        <ele>242</ele>
        <time>2025-02-15T09:37:12Z</time>
      </trkpt>
      <trkpt lat="43.5615" lon="1.44707">
        <ele>242</ele>
        <time>2025-02-15T09:37:13Z</time>
      </trkpt>
      <trkpt lat="43.56151" lon="1.44707">
        <ele>242</ele>
        <time>2025-02-15T09:37:14Z</time>
      </trkpt>
      <trkpt lat="43.56154" lon="1.44707">
        <ele>241</ele>
        <time>2025-02-15T09:37:15Z</time>
      </trkpt>
      <trkpt lat="43.56156" lon="1.44706">
        <ele>241</ele>
        <time>2025-02-15T09:37:16Z</time>
      </trkpt>
      <trkpt lat="43.56158" lon="1.44705">
        <ele>241</ele>
        <time>2025-02-15T09:37:17Z</time>
      </trkpt>
      <trkpt lat="43.56161" lon="1.44703">
        <ele>241</ele>
        <time>2025-02-15T09:37:18Z</time>
      </trkpt>
      <trkpt lat="43.56162" lon="1.44703">
        <ele>241</ele>
        <time>2025-02-15T09:37:19Z</time>
      </trkpt>
      <trkpt lat="43.56164" lon="1.44702">
        <ele>241</ele>
        <time>2025-02-15T09:37:20Z</time>
      </trkpt>
      <trkpt lat="43.56167" lon="1.44701">
        <ele>241</ele>
        <time>2025-02-15T09:37:21Z</time>
      </trkpt>
      <trkpt lat="43.5617" lon="1.447">
        <ele>240</ele>
        <time>2025-02-15T09:37:22Z</time>
      </trkpt>
      <trkpt lat="43.56173" lon="1.44699">
        <ele>240</ele>
        <time>2025-02-15T09:37:23Z</time>
      </trkpt>
      <trkpt lat="43.56175" lon="1.44698">
        <ele>241</ele>
        <time>2025-02-15T09:37:24Z</time>
      </trkpt>
      <trkpt lat="43.56178" lon="1.44697">
        <ele>242</ele>
        <time>2025-02-15T09:37:25Z</time>
      </trkpt>
      <trkpt lat="43.5618" lon="1.44695">
        <ele>242</ele>
        <time>2025-02-15T09:37:26Z</time>
      </trkpt>
      <trkpt lat="43.56184" lon="1.44693">
        <ele>242</ele>
        <time>2025-02-15T09:37:27Z</time>
      </trkpt>
      <trkpt lat="43.56185" lon="1.44693">
        <ele>242</ele>
        <time>2025-02-15T09:37:28Z</time>
      </trkpt>
      <trkpt lat="43.56189" lon="1.44691">
        <ele>242</ele>
        <time>2025-02-15T09:37:29Z</time>
      </trkpt>
      <trkpt lat="43.5619" lon="1.4469">
        <ele>242</ele>
        <time>2025-02-15T09:37:30Z</time>
      </trkpt>
      <trkpt lat="43.56193" lon="1.4469">
        <ele>243</ele>
        <time>2025-02-15T09:37:31Z</time>
      </trkpt>
      <trkpt lat="43.56197" lon="1.44689">
        <ele>243</ele>
        <time>2025-02-15T09:37:32Z</time>
      </trkpt>
      <trkpt lat="43.56199" lon="1.44689">
        <ele>243</ele>
        <time>2025-02-15T09:37:33Z</time>
      </trkpt>
      <trkpt lat="43.56203" lon="1.44688">
        <ele>243</ele>
        <time>2025-02-15T09:37:34Z</time>
      </trkpt>
      <trkpt lat="43.56204" lon="1.44687">
        <ele>243</ele>
        <time>2025-02-15T09:37:35Z</time>
      </trkpt>
      <trkpt lat="43.56207" lon="1.44687">
        <ele>243</ele>
        <time>2025-02-15T09:37:36Z</time>
      </trkpt>
      <trkpt lat="43.5621" lon="1.44686">
        <ele>243</ele>
        <time>2025-02-15T09:37:37Z</time>
      </trkpt>
      <trkpt lat="43.56213" lon="1.44685">
        <ele>243</ele>
        <time>2025-02-15T09:37:38Z</time>
      </trkpt>
      <trkpt lat="43.56215" lon="1.44684">
        <ele>243</ele>
        <time>2025-02-15T09:37:39Z</time>
      </trkpt>
      <trkpt lat="43.56218" lon="1.44683">
        <ele>243</ele>
        <time>2025-02-15T09:37:40Z</time>
      </trkpt>
      <trkpt lat="43.5622" lon="1.44682">
        <ele>243</ele>
        <time>2025-02-15T09:37:41Z</time>
      </trkpt>
      <trkpt lat="43.56223" lon="1.44681">
        <ele>243</ele>
        <time>2025-02-15T09:37:42Z</time>
      </trkpt>
      <trkpt lat="43.56225" lon="1.44679">
        <ele>243</ele>
        <time>2025-02-15T09:37:43Z</time>
      </trkpt>
      <trkpt lat="43.56229" lon="1.44678">
        <ele>243</ele>
        <time>2025-02-15T09:37:44Z</time>
      </trkpt>
      <trkpt lat="43.56231" lon="1.44677">
        <ele>243</ele>
        <time>2025-02-15T09:37:45Z</time>
      </trkpt>
      <trkpt lat="43.56235" lon="1.44676">
        <ele>243</ele>
        <time>2025-02-15T09:37:46Z</time>
      </trkpt>
      <trkpt lat="43.56236" lon="1.44675">
        <ele>243</ele>
        <time>2025-02-15T09:37:47Z</time>
      </trkpt>
      <trkpt lat="43.56239" lon="1.44675">
        <ele>243</ele>
        <time>2025-02-15T09:37:48Z</time>
      </trkpt>
      <trkpt lat="43.56242" lon="1.44675">
        <ele>243</ele>
        <time>2025-02-15T09:37:49Z</time>
      </trkpt>
      <trkpt lat="43.56246" lon="1.44673">
        <ele>243</ele>
        <time>2025-02-15T09:37:50Z</time>
      </trkpt>
      <trkpt lat="43.56247" lon="1.44673">
        <ele>243</ele>
        <time>2025-02-15T09:37:51Z</time>
      </trkpt>
      <trkpt lat="43.5625" lon="1.44671">
        <ele>243</ele>
        <time>2025-02-15T09:37:52Z</time>
      </trkpt>
      <trkpt lat="43.56252" lon="1.44671">
        <ele>243</ele>
        <time>2025-02-15T09:37:53Z</time>
      </trkpt>
      <trkpt lat="43.56254" lon="1.4467">
        <ele>243</ele>
        <time>2025-02-15T09:37:54Z</time>
      </trkpt>
      <trkpt lat="43.56256" lon="1.4467">
        <ele>243</ele>
        <time>2025-02-15T09:37:55Z</time>
      </trkpt>
      <trkpt lat="43.56259" lon="1.44668">
        <ele>243</ele>
        <time>2025-02-15T09:37:56Z</time>
      </trkpt>
      <trkpt lat="43.56263" lon="1.44666">
        <ele>243</ele>
        <time>2025-02-15T09:37:57Z</time>
      </trkpt>
      <trkpt lat="43.56264" lon="1.44665">
        <ele>243</ele>
        <time>2025-02-15T09:37:58Z</time>
      </trkpt>
      <trkpt lat="43.56268" lon="1.44663">
        <ele>243</ele>
        <time>2025-02-15T09:37:59Z</time>
      </trkpt>
      <trkpt lat="43.56269" lon="1.44662">
        <ele>243</ele>
        <time>2025-02-15T09:38:00Z</time>
      </trkpt>
      <trkpt lat="43.56273" lon="1.4466">
        <ele>243</ele>
        <time>2025-02-15T09:38:01Z</time>
      </trkpt>
      <trkpt lat="43.56274" lon="1.44659">
        <ele>243</ele>
        <time>2025-02-15T09:38:02Z</time>
      </trkpt>
      <trkpt lat="43.56276" lon="1.44658">
        <ele>243</ele>
        <time>2025-02-15T09:38:03Z</time>
      </trkpt>
      <trkpt lat="43.56279" lon="1.44656">
        <ele>243</ele>
        <time>2025-02-15T09:38:04Z</time>
      </trkpt>
      <trkpt lat="43.56282" lon="1.44655">
        <ele>243</ele>
        <time>2025-02-15T09:38:05Z</time>
      </trkpt>
      <trkpt lat="43.56285" lon="1.44654">
        <ele>243</ele>
        <time>2025-02-15T09:38:06Z</time>
      </trkpt>
      <trkpt lat="43.56287" lon="1.44652">
        <ele>243</ele>
        <time>2025-02-15T09:38:07Z</time>
      </trkpt>
      <trkpt lat="43.5629" lon="1.44651">
        <ele>243</ele>
        <time>2025-02-15T09:38:08Z</time>
      </trkpt>
      <trkpt lat="43.56292" lon="1.4465">
        <ele>243</ele>
        <time>2025-02-15T09:38:09Z</time>
      </trkpt>
      <trkpt lat="43.56294" lon="1.44648">
        <ele>243</ele>
        <time>2025-02-15T09:38:10Z</time>
      </trkpt>
      <trkpt lat="43.56298" lon="1.44645">
        <ele>243</ele>
        <time>2025-02-15T09:38:11Z</time>
      </trkpt>
      <trkpt lat="43.56299" lon="1.44644">
        <ele>243</ele>
        <time>2025-02-15T09:38:12Z</time>
      </trkpt>
      <trkpt lat="43.56301" lon="1.44642">
        <ele>243</ele>
        <time>2025-02-15T09:38:13Z</time>
      </trkpt>
      <trkpt lat="43.56304" lon="1.4464">
        <ele>243</ele>
        <time>2025-02-15T09:38:14Z</time>
      </trkpt>
      <trkpt lat="43.56306" lon="1.44637">
        <ele>243</ele>
        <time>2025-02-15T09:38:15Z</time>
      </trkpt>
      <trkpt lat="43.5631" lon="1.44634">
        <ele>243</ele>
        <time>2025-02-15T09:38:16Z</time>
      </trkpt>
      <trkpt lat="43.56311" lon="1.44633">
        <ele>243</ele>
        <time>2025-02-15T09:38:17Z</time>
      </trkpt>
      <trkpt lat="43.56315" lon="1.4463">
        <ele>243</ele>
        <time>2025-02-15T09:38:18Z</time>
      </trkpt>
      <trkpt lat="43.56316" lon="1.44628">
        <ele>242</ele>
        <time>2025-02-15T09:38:19Z</time>
      </trkpt>
      <trkpt lat="43.56319" lon="1.44626">
        <ele>242</ele>
        <time>2025-02-15T09:38:20Z</time>
      </trkpt>
      <trkpt lat="43.56321" lon="1.44624">
        <ele>242</ele>
        <time>2025-02-15T09:38:21Z</time>
      </trkpt>
      <trkpt lat="43.56326" lon="1.44621">
        <ele>242</ele>
        <time>2025-02-15T09:38:22Z</time>
      </trkpt>
      <trkpt lat="43.56328" lon="1.4462">
        <ele>242</ele>
        <time>2025-02-15T09:38:23Z</time>
      </trkpt>
      <trkpt lat="43.56331" lon="1.44616">
        <ele>242</ele>
        <time>2025-02-15T09:38:24Z</time>
      </trkpt>
      <trkpt lat="43.56334" lon="1.44613">
        <ele>241</ele>
        <time>2025-02-15T09:38:25Z</time>
      </trkpt>
      <trkpt lat="43.56336" lon="1.4461">
        <ele>240</ele>
        <time>2025-02-15T09:38:26Z</time>
      </trkpt>
      <trkpt lat="43.56339" lon="1.44606">
        <ele>240</ele>
        <time>2025-02-15T09:38:27Z</time>
      </trkpt>
      <trkpt lat="43.5634" lon="1.44604">
        <ele>240</ele>
        <time>2025-02-15T09:38:28Z</time>
      </trkpt>
      <trkpt lat="43.56343" lon="1.44602">
        <ele>239</ele>
        <time>2025-02-15T09:38:29Z</time>
      </trkpt>
      <trkpt lat="43.56345" lon="1.44599">
        <ele>239</ele>
        <time>2025-02-15T09:38:30Z</time>
      </trkpt>
      <trkpt lat="43.56347" lon="1.44597">
        <ele>239</ele>
        <time>2025-02-15T09:38:31Z</time>
      </trkpt>
      <trkpt lat="43.56351" lon="1.44593">
        <ele>239</ele>
        <time>2025-02-15T09:38:32Z</time>
      </trkpt>
      <trkpt lat="43.56352" lon="1.44592">
        <ele>239</ele>
        <time>2025-02-15T09:38:33Z</time>
      </trkpt>
      <trkpt lat="43.56356" lon="1.44589">
        <ele>239</ele>
        <time>2025-02-15T09:38:34Z</time>
      </trkpt>
      <trkpt lat="43.56357" lon="1.44588">
        <ele>240</ele>
        <time>2025-02-15T09:38:35Z</time>
      </trkpt>
      <trkpt lat="43.56359" lon="1.44587">
        <ele>240</ele>
        <time>2025-02-15T09:38:36Z</time>
      </trkpt>
      <trkpt lat="43.56361" lon="1.44585">
        <ele>240</ele>
        <time>2025-02-15T09:38:37Z</time>
      </trkpt>
      <trkpt lat="43.56363" lon="1.44583">
        <ele>240</ele>
        <time>2025-02-15T09:38:38Z</time>
      </trkpt>
      <trkpt lat="43.56365" lon="1.4458">
        <ele>240</ele>
        <time>2025-02-15T09:38:39Z</time>
      </trkpt>
      <trkpt lat="43.56368" lon="1.44579">
        <ele>240</ele>
        <time>2025-02-15T09:38:40Z</time>
      </trkpt>
      <trkpt lat="43.5637" lon="1.44577">
        <ele>240</ele>
        <time>2025-02-15T09:38:41Z</time>
      </trkpt>
      <trkpt lat="43.56373" lon="1.44575">
        <ele>240</ele>
        <time>2025-02-15T09:38:42Z</time>
      </trkpt>
      <trkpt lat="43.56376" lon="1.44572">
        <ele>240</ele>
        <time>2025-02-15T09:38:43Z</time>
      </trkpt>
      <trkpt lat="43.56378" lon="1.44571">
        <ele>240</ele>
        <time>2025-02-15T09:38:44Z</time>
      </trkpt>
      <trkpt lat="43.5638" lon="1.44569">
        <ele>240</ele>
        <time>2025-02-15T09:38:45Z</time>
      </trkpt>
      <trkpt lat="43.56383" lon="1.44567">
        <ele>240</ele>
        <time>2025-02-15T09:38:46Z</time>
      </trkpt>
      <trkpt lat="43.56385" lon="1.44565">
        <ele>240</ele>
        <time>2025-02-15T09:38:47Z</time>
      </trkpt>
      <trkpt lat="43.56389" lon="1.44561">
        <ele>240</ele>
        <time>2025-02-15T09:38:48Z</time>
      </trkpt>
      <trkpt lat="43.5639" lon="1.4456">
        <ele>239</ele>
        <time>2025-02-15T09:38:49Z</time>
      </trkpt>
      <trkpt lat="43.56393" lon="1.44557">
        <ele>239</ele>
        <time>2025-02-15T09:38:50Z</time>
      </trkpt>
      <trkpt lat="43.56395" lon="1.44556">
        <ele>239</ele>
        <time>2025-02-15T09:38:51Z</time>
      </trkpt>
      <trkpt lat="43.56397" lon="1.44554">
        <ele>239</ele>
        <time>2025-02-15T09:38:52Z</time>
      </trkpt>
      <trkpt lat="43.56399" lon="1.44552">
        <ele>239</ele>
        <time>2025-02-15T09:38:53Z</time>
      </trkpt>
      <trkpt lat="43.56401" lon="1.4455">
        <ele>239</ele>
        <time>2025-02-15T09:38:54Z</time>
      </trkpt>
      <trkpt lat="43.56404" lon="1.44548">
        <ele>239</ele>
        <time>2025-02-15T09:38:55Z</time>
      </trkpt>
      <trkpt lat="43.56406" lon="1.44547">
        <ele>239</ele>
        <time>2025-02-15T09:38:56Z</time>
      </trkpt>
      <trkpt lat="43.56408" lon="1.44545">
        <ele>239</ele>
        <time>2025-02-15T09:38:57Z</time>
      </trkpt>
      <trkpt lat="43.56411" lon="1.44543">
        <ele>239</ele>
        <time>2025-02-15T09:38:58Z</time>
      </trkpt>
      <trkpt lat="43.56414" lon="1.44541">
        <ele>240</ele>
        <time>2025-02-15T09:38:59Z</time>
      </trkpt>
      <trkpt lat="43.56418" lon="1.44539">
        <ele>240</ele>
        <time>2025-02-15T09:39:00Z</time>
      </trkpt>
      <trkpt lat="43.56419" lon="1.44538">
        <ele>240</ele>
        <time>2025-02-15T09:39:01Z</time>
      </trkpt>
      <trkpt lat="43.56421" lon="1.44536">
        <ele>240</ele>
        <time>2025-02-15T09:39:02Z</time>
      </trkpt>
      <trkpt lat="43.56424" lon="1.44534">
        <ele>240</ele>
        <time>2025-02-15T09:39:03Z</time>
      </trkpt>
      <trkpt lat="43.56426" lon="1.44532">
        <ele>241</ele>
        <time>2025-02-15T09:39:04Z</time>
      </trkpt>
      <trkpt lat="43.5643" lon="1.4453">
        <ele>241</ele>
        <time>2025-02-15T09:39:05Z</time>
      </trkpt>
      <trkpt lat="43.56431" lon="1.44529">
        <ele>241</ele>
        <time>2025-02-15T09:39:06Z</time>
      </trkpt>
      <trkpt lat="43.56435" lon="1.44526">
        <ele>241</ele>
        <time>2025-02-15T09:39:07Z</time>
      </trkpt>
      <trkpt lat="43.56437" lon="1.44525">
        <ele>241</ele>
        <time>2025-02-15T09:39:08Z</time>
      </trkpt>
      <trkpt lat="43.56439" lon="1.44523">
        <ele>241</ele>
        <time>2025-02-15T09:39:09Z</time>
      </trkpt>
      <trkpt lat="43.56441" lon="1.44521">
        <ele>241</ele>
        <time>2025-02-15T09:39:10Z</time>
      </trkpt>
      <trkpt lat="43.56444" lon="1.44519">
        <ele>241</ele>
        <time>2025-02-15T09:39:11Z</time>
      </trkpt>
      <trkpt lat="43.56448" lon="1.44516">
        <ele>241</ele>
        <time>2025-02-15T09:39:12Z</time>
      </trkpt>
      <trkpt lat="43.56449" lon="1.44515">
        <ele>240</ele>
        <time>2025-02-15T09:39:13Z</time>
      </trkpt>
      <trkpt lat="43.56451" lon="1.44514">
        <ele>240</ele>
        <time>2025-02-15T09:39:14Z</time>
      </trkpt>
      <trkpt lat="43.56454" lon="1.44512">
        <ele>240</ele>
        <time>2025-02-15T09:39:15Z</time>
      </trkpt>
      <trkpt lat="43.56456" lon="1.4451">
        <ele>240</ele>
        <time>2025-02-15T09:39:16Z</time>
      </trkpt>
      <trkpt lat="43.56458" lon="1.44508">
        <ele>240</ele>
        <time>2025-02-15T09:39:17Z</time>
      </trkpt>
      <trkpt lat="43.56462" lon="1.44505">
        <ele>240</ele>
        <time>2025-02-15T09:39:18Z</time>
      </trkpt>
      <trkpt lat="43.56463" lon="1.44504">
        <ele>240</ele>
        <time>2025-02-15T09:39:19Z</time>
      </trkpt>
      <trkpt lat="43.56466" lon="1.445">
        <ele>240</ele>
        <time>2025-02-15T09:39:20Z</time>
      </trkpt>
      <trkpt lat="43.56468" lon="1.44499">
        <ele>240</ele>
        <time>2025-02-15T09:39:21Z</time>
      </trkpt>
      <trkpt lat="43.5647" lon="1.44497">
        <ele>240</ele>
        <time>2025-02-15T09:39:22Z</time>
      </trkpt>
      <trkpt lat="43.56472" lon="1.44495">
        <ele>240</ele>
        <time>2025-02-15T09:39:23Z</time>
      </trkpt>
      <trkpt lat="43.56475" lon="1.44492">
        <ele>240</ele>
        <time>2025-02-15T09:39:24Z</time>
      </trkpt>
      <trkpt lat="43.56479" lon="1.44489">
        <ele>240</ele>
        <time>2025-02-15T09:39:25Z</time>
      </trkpt>
      <trkpt lat="43.5648" lon="1.44488">
        <ele>240</ele>
        <time>2025-02-15T09:39:26Z</time>
      </trkpt>
      <trkpt lat="43.56484" lon="1.44485">
        <ele>240</ele>
        <time>2025-02-15T09:39:27Z</time>
      </trkpt>
      <trkpt lat="43.56485" lon="1.44484">
        <ele>240</ele>
        <time>2025-02-15T09:39:28Z</time>
      </trkpt>
      <trkpt lat="43.56488" lon="1.44482">
        <ele>240</ele>
        <time>2025-02-15T09:39:29Z</time>
      </trkpt>
      <trkpt lat="43.5649" lon="1.4448">
        <ele>240</ele>
        <time>2025-02-15T09:39:30Z</time>
      </trkpt>
      <trkpt lat="43.56493" lon="1.44478">
        <ele>240</ele>
        <time>2025-02-15T09:39:31Z</time>
      </trkpt>
      <trkpt lat="43.56495" lon="1.44477">
        <ele>240</ele>
        <time>2025-02-15T09:39:32Z</time>
      </trkpt>
      <trkpt lat="43.56498" lon="1.44475">
        <ele>240</ele>
        <time>2025-02-15T09:39:33Z</time>
      </trkpt>
      <trkpt lat="43.565" lon="1.44473">
        <ele>240</ele>
        <time>2025-02-15T09:39:34Z</time>
      </trkpt>
      <trkpt lat="43.56503" lon="1.44471">
        <ele>240</ele>
        <time>2025-02-15T09:39:35Z</time>
      </trkpt>
      <trkpt lat="43.56505" lon="1.4447">
        <ele>240</ele>
        <time>2025-02-15T09:39:36Z</time>
      </trkpt>
      <trkpt lat="43.56508" lon="1.44467">
        <ele>240</ele>
        <time>2025-02-15T09:39:37Z</time>
      </trkpt>
      <trkpt lat="43.56509" lon="1.44466">
        <ele>240</ele>
        <time>2025-02-15T09:39:38Z</time>
      </trkpt>
      <trkpt lat="43.56512" lon="1.44464">
        <ele>240</ele>
        <time>2025-02-15T09:39:39Z</time>
      </trkpt>
      <trkpt lat="43.56514" lon="1.44462">
        <ele>240</ele>
        <time>2025-02-15T09:39:40Z</time>
      </trkpt>
      <trkpt lat="43.56517" lon="1.4446">
        <ele>240</ele>
        <time>2025-02-15T09:39:41Z</time>
      </trkpt>
      <trkpt lat="43.56521" lon="1.44457">
        <ele>240</ele>
        <time>2025-02-15T09:39:42Z</time>
      </trkpt>
      <trkpt lat="43.56522" lon="1.44456">
        <ele>239</ele>
        <time>2025-02-15T09:39:43Z</time>
      </trkpt>
      <trkpt lat="43.56526" lon="1.44452">
        <ele>239</ele>
        <time>2025-02-15T09:39:44Z</time>
      </trkpt>
      <trkpt lat="43.56528" lon="1.44451">
        <ele>239</ele>
        <time>2025-02-15T09:39:45Z</time>
      </trkpt>
      <trkpt lat="43.5653" lon="1.44449">
        <ele>239</ele>
        <time>2025-02-15T09:39:46Z</time>
      </trkpt>
      <trkpt lat="43.56533" lon="1.44448">
        <ele>239</ele>
        <time>2025-02-15T09:39:47Z</time>
      </trkpt>
      <trkpt lat="43.56535" lon="1.44446">
        <ele>239</ele>
        <time>2025-02-15T09:39:48Z</time>
      </trkpt>
      <trkpt lat="43.56538" lon="1.44444">
        <ele>239</ele>
        <time>2025-02-15T09:39:49Z</time>
      </trkpt>
      <trkpt lat="43.5654" lon="1.44443">
        <ele>239</ele>
        <time>2025-02-15T09:39:50Z</time>
      </trkpt>
      <trkpt lat="43.56543" lon="1.4444">
        <ele>239</ele>
        <time>2025-02-15T09:39:51Z</time>
      </trkpt>
      <trkpt lat="43.56545" lon="1.44439">
        <ele>239</ele>
        <time>2025-02-15T09:39:52Z</time>
      </trkpt>
      <trkpt lat="43.56547" lon="1.44437">
        <ele>239</ele>
        <time>2025-02-15T09:39:53Z</time>
      </trkpt>
      <trkpt lat="43.5655" lon="1.44435">
        <ele>239</ele>
        <time>2025-02-15T09:39:54Z</time>
      </trkpt>
      <trkpt lat="43.56553" lon="1.44433">
        <ele>239</ele>
        <time>2025-02-15T09:39:55Z</time>
      </trkpt>
      <trkpt lat="43.56556" lon="1.44432">
        <ele>239</ele>
        <time>2025-02-15T09:39:56Z</time>
      </trkpt>
      <trkpt lat="43.56558" lon="1.44431">
        <ele>239</ele>
        <time>2025-02-15T09:39:57Z</time>
      </trkpt>
      <trkpt lat="43.5656" lon="1.44429">
        <ele>239</ele>
        <time>2025-02-15T09:39:58Z</time>
      </trkpt>
      <trkpt lat="43.56563" lon="1.44428">
        <ele>238</ele>
        <time>2025-02-15T09:39:59Z</time>
      </trkpt>
      <trkpt lat="43.56568" lon="1.44426">
        <ele>238</ele>
        <time>2025-02-15T09:40:00Z</time>
      </trkpt>
      <trkpt lat="43.56569" lon="1.44425">
        <ele>238</ele>
        <time>2025-02-15T09:40:01Z</time>
      </trkpt>
      <trkpt lat="43.56572" lon="1.44424">
        <ele>239</ele>
        <time>2025-02-15T09:40:02Z</time>
      </trkpt>
      <trkpt lat="43.56574" lon="1.44422">
        <ele>239</ele>
        <time>2025-02-15T09:40:03Z</time>
      </trkpt>
      <trkpt lat="43.56577" lon="1.4442">
        <ele>239</ele>
        <time>2025-02-15T09:40:04Z</time>
      </trkpt>
      <trkpt lat="43.56581" lon="1.44418">
        <ele>239</ele>
        <time>2025-02-15T09:40:05Z</time>
      </trkpt>
      <trkpt lat="43.56582" lon="1.44417">
        <ele>238</ele>
        <time>2025-02-15T09:40:06Z</time>
      </trkpt>
      <trkpt lat="43.56586" lon="1.44414">
        <ele>238</ele>
        <time>2025-02-15T09:40:07Z</time>
      </trkpt>
      <trkpt lat="43.56587" lon="1.44413">
        <ele>238</ele>
        <time>2025-02-15T09:40:08Z</time>
      </trkpt>
      <trkpt lat="43.5659" lon="1.44411">
        <ele>238</ele>
        <time>2025-02-15T09:40:09Z</time>
      </trkpt>
      <trkpt lat="43.56592" lon="1.44409">
        <ele>238</ele>
        <time>2025-02-15T09:40:10Z</time>
      </trkpt>
      <trkpt lat="43.56594" lon="1.44407">
        <ele>238</ele>
        <time>2025-02-15T09:40:11Z</time>
      </trkpt>
      <trkpt lat="43.56597" lon="1.44403">
        <ele>238</ele>
        <time>2025-02-15T09:40:12Z</time>
      </trkpt>
      <trkpt lat="43.56597" lon="1.44402">
        <ele>236</ele>
        <time>2025-02-15T09:40:13Z</time>
      </trkpt>
      <trkpt lat="43.56598" lon="1.44397">
        <ele>236</ele>
        <time>2025-02-15T09:40:14Z</time>
      </trkpt>
      <trkpt lat="43.56598" lon="1.44395">
        <ele>236</ele>
        <time>2025-02-15T09:40:15Z</time>
      </trkpt>
      <trkpt lat="43.56599" lon="1.44391">
        <ele>236</ele>
        <time>2025-02-15T09:40:16Z</time>
      </trkpt>
      <trkpt lat="43.566" lon="1.44387">
        <ele>236</ele>
        <time>2025-02-15T09:40:17Z</time>
      </trkpt>
      <trkpt lat="43.56601" lon="1.44383">
        <ele>236</ele>
        <time>2025-02-15T09:40:18Z</time>
      </trkpt>
      <trkpt lat="43.56603" lon="1.44377">
        <ele>236</ele>
        <time>2025-02-15T09:40:19Z</time>
      </trkpt>
      <trkpt lat="43.56604" lon="1.44375">
        <ele>236</ele>
        <time>2025-02-15T09:40:20Z</time>
      </trkpt>
      <trkpt lat="43.56606" lon="1.44369">
        <ele>236</ele>
        <time>2025-02-15T09:40:21Z</time>
      </trkpt>
      <trkpt lat="43.56607" lon="1.44367">
        <ele>235</ele>
        <time>2025-02-15T09:40:22Z</time>
      </trkpt>
      <trkpt lat="43.56608" lon="1.44362">
        <ele>235</ele>
        <time>2025-02-15T09:40:23Z</time>
      </trkpt>
      <trkpt lat="43.56609" lon="1.44358">
        <ele>234</ele>
        <time>2025-02-15T09:40:24Z</time>
      </trkpt>
      <trkpt lat="43.56611" lon="1.44354">
        <ele>234</ele>
        <time>2025-02-15T09:40:25Z</time>
      </trkpt>
      <trkpt lat="43.56612" lon="1.4435">
        <ele>234</ele>
        <time>2025-02-15T09:40:26Z</time>
      </trkpt>
      <trkpt lat="43.56613" lon="1.44347">
        <ele>233</ele>
        <time>2025-02-15T09:40:27Z</time>
      </trkpt>
      <trkpt lat="43.56614" lon="1.44343">
        <ele>233</ele>
        <time>2025-02-15T09:40:28Z</time>
      </trkpt>
      <trkpt lat="43.56615" lon="1.44337">
        <ele>233</ele>
        <time>2025-02-15T09:40:29Z</time>
      </trkpt>
      <trkpt lat="43.56616" lon="1.44334">
        <ele>232</ele>
        <time>2025-02-15T09:40:30Z</time>
      </trkpt>
      <trkpt lat="43.56617" lon="1.44328">
        <ele>232</ele>
        <time>2025-02-15T09:40:31Z</time>
      </trkpt>
      <trkpt lat="43.56617" lon="1.44326">
        <ele>232</ele>
        <time>2025-02-15T09:40:32Z</time>
      </trkpt>
      <trkpt lat="43.56618" lon="1.44322">
        <ele>232</ele>
        <time>2025-02-15T09:40:33Z</time>
      </trkpt>
      <trkpt lat="43.56619" lon="1.44318">
        <ele>231</ele>
        <time>2025-02-15T09:40:34Z</time>
      </trkpt>
      <trkpt lat="43.5662" lon="1.44313">
        <ele>231</ele>
        <time>2025-02-15T09:40:35Z</time>
      </trkpt>
      <trkpt lat="43.56621" lon="1.44308">
        <ele>230</ele>
        <time>2025-02-15T09:40:36Z</time>
      </trkpt>
      <trkpt lat="43.56623" lon="1.44302">
        <ele>230</ele>
        <time>2025-02-15T09:40:37Z</time>
      </trkpt>
      <trkpt lat="43.56624" lon="1.443">
        <ele>230</ele>
        <time>2025-02-15T09:40:38Z</time>
      </trkpt>
      <trkpt lat="43.56625" lon="1.44296">
        <ele>230</ele>
        <time>2025-02-15T09:40:39Z</time>
      </trkpt>
      <trkpt lat="43.56627" lon="1.44292">
        <ele>230</ele>
        <time>2025-02-15T09:40:40Z</time>
      </trkpt>
      <trkpt lat="43.56629" lon="1.44288">
        <ele>229</ele>
        <time>2025-02-15T09:40:41Z</time>
      </trkpt>
      <trkpt lat="43.56632" lon="1.44283">
        <ele>229</ele>
        <time>2025-02-15T09:40:42Z</time>
      </trkpt>
      <trkpt lat="43.56633" lon="1.44281">
        <ele>229</ele>
        <time>2025-02-15T09:40:43Z</time>
      </trkpt>
      <trkpt lat="43.56635" lon="1.44277">
        <ele>229</ele>
        <time>2025-02-15T09:40:44Z</time>
      </trkpt>
      <trkpt lat="43.56636" lon="1.44275">
        <ele>229</ele>
        <time>2025-02-15T09:40:45Z</time>
      </trkpt>
      <trkpt lat="43.56638" lon="1.44272">
        <ele>229</ele>
        <time>2025-02-15T09:40:46Z</time>
      </trkpt>
      <trkpt lat="43.5664" lon="1.44269">
        <ele>229</ele>
        <time>2025-02-15T09:40:47Z</time>
      </trkpt>
      <trkpt lat="43.56642" lon="1.44266">
        <ele>229</ele>
        <time>2025-02-15T09:40:48Z</time>
      </trkpt>
      <trkpt lat="43.56643" lon="1.44263">
        <ele>229</ele>
        <time>2025-02-15T09:40:49Z</time>
      </trkpt>
      <trkpt lat="43.56645" lon="1.44261">
        <ele>229</ele>
        <time>2025-02-15T09:40:50Z</time>
      </trkpt>
      <trkpt lat="43.56647" lon="1.44258">
        <ele>228</ele>
        <time>2025-02-15T09:40:51Z</time>
      </trkpt>
      <trkpt lat="43.56649" lon="1.44256">
        <ele>228</ele>
        <time>2025-02-15T09:40:52Z</time>
      </trkpt>
      <trkpt lat="43.5665" lon="1.44253">
        <ele>228</ele>
        <time>2025-02-15T09:40:53Z</time>
      </trkpt>
      <trkpt lat="43.56653" lon="1.44248">
        <ele>228</ele>
        <time>2025-02-15T09:40:54Z</time>
      </trkpt>
      <trkpt lat="43.56654" lon="1.44246">
        <ele>227</ele>
        <time>2025-02-15T09:40:55Z</time>
      </trkpt>
      <trkpt lat="43.56657" lon="1.44242">
        <ele>227</ele>
        <time>2025-02-15T09:40:56Z</time>
      </trkpt>
      <trkpt lat="43.56658" lon="1.4424">
        <ele>227</ele>
        <time>2025-02-15T09:40:57Z</time>
      </trkpt>
      <trkpt lat="43.56659" lon="1.44237">
        <ele>227</ele>
        <time>2025-02-15T09:40:58Z</time>
      </trkpt>
      <trkpt lat="43.56661" lon="1.44233">
        <ele>226</ele>
        <time>2025-02-15T09:40:59Z</time>
      </trkpt>
      <trkpt lat="43.56664" lon="1.44228">
        <ele>226</ele>
        <time>2025-02-15T09:41:00Z</time>
      </trkpt>
      <trkpt lat="43.56664" lon="1.44227">
        <ele>226</ele>
        <time>2025-02-15T09:41:01Z</time>
      </trkpt>
      <trkpt lat="43.56666" lon="1.44223">
        <ele>226</ele>
        <time>2025-02-15T09:41:02Z</time>
      </trkpt>
      <trkpt lat="43.56667" lon="1.44221">
        <ele>225</ele>
        <time>2025-02-15T09:41:03Z</time>
      </trkpt>
      <trkpt lat="43.56668" lon="1.44219">
        <ele>225</ele>
        <time>2025-02-15T09:41:04Z</time>
      </trkpt>
      <trkpt lat="43.5667" lon="1.44216">
        <ele>224</ele>
        <time>2025-02-15T09:41:05Z</time>
      </trkpt>
      <trkpt lat="43.56671" lon="1.44215">
        <ele>223</ele>
        <time>2025-02-15T09:41:06Z</time>
      </trkpt>
      <trkpt lat="43.56673" lon="1.44213">
        <ele>223</ele>
        <time>2025-02-15T09:41:07Z</time>
      </trkpt>
      <trkpt lat="43.56673" lon="1.44213">
        <ele>223</ele>
        <time>2025-02-15T09:41:08Z</time>
      </trkpt>
      <trkpt lat="43.56678" lon="1.44212">
        <ele>223</ele>
        <time>2025-02-15T09:41:09Z</time>
      </trkpt>
      <trkpt lat="43.56679" lon="1.44212">
        <ele>223</ele>
        <time>2025-02-15T09:41:10Z</time>
      </trkpt>
      <trkpt lat="43.56682" lon="1.44212">
        <ele>223</ele>
        <time>2025-02-15T09:41:11Z</time>
      </trkpt>
      <trkpt lat="43.56683" lon="1.44212">
        <ele>224</ele>
        <time>2025-02-15T09:41:12Z</time>
      </trkpt>
      <trkpt lat="43.56686" lon="1.44212">
        <ele>224</ele>
        <time>2025-02-15T09:41:13Z</time>
      </trkpt>
      <trkpt lat="43.56688" lon="1.44212">
        <ele>224</ele>
        <time>2025-02-15T09:41:14Z</time>
      </trkpt>
      <trkpt lat="43.56691" lon="1.44212">
        <ele>224</ele>
        <time>2025-02-15T09:41:15Z</time>
      </trkpt>
      <trkpt lat="43.56694" lon="1.44212">
        <ele>224</ele>
        <time>2025-02-15T09:41:16Z</time>
      </trkpt>
      <trkpt lat="43.56697" lon="1.44211">
        <ele>224</ele>
        <time>2025-02-15T09:41:17Z</time>
      </trkpt>
      <trkpt lat="43.56701" lon="1.44211">
        <ele>224</ele>
        <time>2025-02-15T09:41:18Z</time>
      </trkpt>
      <trkpt lat="43.56702" lon="1.4421">
        <ele>224</ele>
        <time>2025-02-15T09:41:19Z</time>
      </trkpt>
      <trkpt lat="43.56705" lon="1.44211">
        <ele>224</ele>
        <time>2025-02-15T09:41:20Z</time>
      </trkpt>
      <trkpt lat="43.56709" lon="1.44211">
        <ele>224</ele>
        <time>2025-02-15T09:41:21Z</time>
      </trkpt>
      <trkpt lat="43.56711" lon="1.44211">
        <ele>224</ele>
        <time>2025-02-15T09:41:22Z</time>
      </trkpt>
      <trkpt lat="43.56715" lon="1.44212">
        <ele>224</ele>
        <time>2025-02-15T09:41:23Z</time>
      </trkpt>
      <trkpt lat="43.56717" lon="1.44212">
        <ele>224</ele>
        <time>2025-02-15T09:41:24Z</time>
      </trkpt>
      <trkpt lat="43.5672" lon="1.44212">
        <ele>224</ele>
        <time>2025-02-15T09:41:25Z</time>
      </trkpt>
      <trkpt lat="43.56723" lon="1.44212">
        <ele>224</ele>
        <time>2025-02-15T09:41:26Z</time>
      </trkpt>
      <trkpt lat="43.56726" lon="1.44213">
        <ele>224</ele>
        <time>2025-02-15T09:41:27Z</time>
      </trkpt>
      <trkpt lat="43.56731" lon="1.44212">
        <ele>224</ele>
        <time>2025-02-15T09:41:28Z</time>
      </trkpt>
      <trkpt lat="43.56733" lon="1.44212">
        <ele>224</ele>
        <time>2025-02-15T09:41:29Z</time>
      </trkpt>
      <trkpt lat="43.56736" lon="1.44213">
        <ele>224</ele>
        <time>2025-02-15T09:41:30Z</time>
      </trkpt>
      <trkpt lat="43.56739" lon="1.44214">
        <ele>224</ele>
        <time>2025-02-15T09:41:31Z</time>
      </trkpt>
      <trkpt lat="43.56742" lon="1.44214">
        <ele>225</ele>
        <time>2025-02-15T09:41:32Z</time>
      </trkpt>
      <trkpt lat="43.56746" lon="1.44214">
        <ele>225</ele>
        <time>2025-02-15T09:41:33Z</time>
      </trkpt>
      <trkpt lat="43.56747" lon="1.44214">
        <ele>225</ele>
        <time>2025-02-15T09:41:34Z</time>
      </trkpt>
      <trkpt lat="43.5675" lon="1.44215">
        <ele>225</ele>
        <time>2025-02-15T09:41:35Z</time>
      </trkpt>
      <trkpt lat="43.56753" lon="1.44216">
        <ele>225</ele>
        <time>2025-02-15T09:41:36Z</time>
      </trkpt>
      <trkpt lat="43.56755" lon="1.44216">
        <ele>225</ele>
        <time>2025-02-15T09:41:37Z</time>
      </trkpt>
      <trkpt lat="43.5676" lon="1.44216">
        <ele>225</ele>
        <time>2025-02-15T09:41:38Z</time>
      </trkpt>
      <trkpt lat="43.56761" lon="1.44216">
        <ele>226</ele>
        <time>2025-02-15T09:41:39Z</time>
      </trkpt>
      <trkpt lat="43.56763" lon="1.44217">
        <ele>227</ele>
        <time>2025-02-15T09:41:40Z</time>
      </trkpt>
      <trkpt lat="43.56766" lon="1.44218">
        <ele>227</ele>
        <time>2025-02-15T09:41:41Z</time>
      </trkpt>
      <trkpt lat="43.56769" lon="1.44218">
        <ele>227</ele>
        <time>2025-02-15T09:41:42Z</time>
      </trkpt>
      <trkpt lat="43.56773" lon="1.44219">
        <ele>227</ele>
        <time>2025-02-15T09:41:43Z</time>
      </trkpt>
      <trkpt lat="43.56774" lon="1.4422">
        <ele>227</ele>
        <time>2025-02-15T09:41:44Z</time>
      </trkpt>
      <trkpt lat="43.56778" lon="1.4422">
        <ele>227</ele>
        <time>2025-02-15T09:41:45Z</time>
      </trkpt>
      <trkpt lat="43.5678" lon="1.4422">
        <ele>227</ele>
        <time>2025-02-15T09:41:46Z</time>
      </trkpt>
      <trkpt lat="43.56782" lon="1.44221">
        <ele>227</ele>
        <time>2025-02-15T09:41:47Z</time>
      </trkpt>
      <trkpt lat="43.56784" lon="1.44222">
        <ele>227</ele>
        <time>2025-02-15T09:41:48Z</time>
      </trkpt>
      <trkpt lat="43.56786" lon="1.44224">
        <ele>227</ele>
        <time>2025-02-15T09:41:49Z</time>
      </trkpt>
      <trkpt lat="43.56788" lon="1.44225">
        <ele>227</ele>
        <time>2025-02-15T09:41:50Z</time>
      </trkpt>
      <trkpt lat="43.5679" lon="1.44226">
        <ele>227</ele>
        <time>2025-02-15T09:41:51Z</time>
      </trkpt>
      <trkpt lat="43.56793" lon="1.44226">
        <ele>227</ele>
        <time>2025-02-15T09:41:52Z</time>
      </trkpt>
      <trkpt lat="43.56797" lon="1.44227">
        <ele>227</ele>
        <time>2025-02-15T09:41:53Z</time>
      </trkpt>
      <trkpt lat="43.56798" lon="1.44228">
        <ele>228</ele>
        <time>2025-02-15T09:41:54Z</time>
      </trkpt>
      <trkpt lat="43.56801" lon="1.44229">
        <ele>228</ele>
        <time>2025-02-15T09:41:55Z</time>
      </trkpt>
      <trkpt lat="43.56804" lon="1.4423">
        <ele>228</ele>
        <time>2025-02-15T09:41:56Z</time>
      </trkpt>
      <trkpt lat="43.56807" lon="1.4423">
        <ele>228</ele>
        <time>2025-02-15T09:41:57Z</time>
      </trkpt>
      <trkpt lat="43.56811" lon="1.44231">
        <ele>228</ele>
        <time>2025-02-15T09:41:58Z</time>
      </trkpt>
      <trkpt lat="43.56813" lon="1.44231">
        <ele>228</ele>
        <time>2025-02-15T09:41:59Z</time>
      </trkpt>
      <trkpt lat="43.56816" lon="1.44231">
        <ele>228</ele>
        <time>2025-02-15T09:42:00Z</time>
      </trkpt>
      <trkpt lat="43.56819" lon="1.44232">
        <ele>228</ele>
        <time>2025-02-15T09:42:01Z</time>
      </trkpt>
      <trkpt lat="43.56822" lon="1.44232">
        <ele>228</ele>
        <time>2025-02-15T09:42:02Z</time>
      </trkpt>
      <trkpt lat="43.56825" lon="1.44231">
        <ele>228</ele>
        <time>2025-02-15T09:42:03Z</time>
      </trkpt>
      <trkpt lat="43.56826" lon="1.44231">
        <ele>228</ele>
        <time>2025-02-15T09:42:04Z</time>
      </trkpt>
      <trkpt lat="43.56829" lon="1.4423">
        <ele>228</ele>
        <time>2025-02-15T09:42:05Z</time>
      </trkpt>
      <trkpt lat="43.56831" lon="1.44229">
        <ele>228</ele>
        <time>2025-02-15T09:42:06Z</time>
      </trkpt>
      <trkpt lat="43.56833" lon="1.44228">
        <ele>228</ele>
        <time>2025-02-15T09:42:07Z</time>
      </trkpt>
      <trkpt lat="43.56836" lon="1.44227">
        <ele>228</ele>
        <time>2025-02-15T09:42:08Z</time>
      </trkpt>
      <trkpt lat="43.56838" lon="1.44226">
        <ele>227</ele>
        <time>2025-02-15T09:42:09Z</time>
      </trkpt>
      <trkpt lat="43.56842" lon="1.44224">
        <ele>227</ele>
        <time>2025-02-15T09:42:10Z</time>
      </trkpt>
      <trkpt lat="43.56843" lon="1.44223">
        <ele>227</ele>
        <time>2025-02-15T09:42:11Z</time>
      </trkpt>
      <trkpt lat="43.56847" lon="1.4422">
        <ele>227</ele>
        <time>2025-02-15T09:42:12Z</time>
      </trkpt>
      <trkpt lat="43.56848" lon="1.44219">
        <ele>227</ele>
        <time>2025-02-15T09:42:13Z</time>
      </trkpt>
      <trkpt lat="43.56851" lon="1.44218">
        <ele>227</ele>
        <time>2025-02-15T09:42:14Z</time>
      </trkpt>
      <trkpt lat="43.56856" lon="1.44218">
        <ele>227</ele>
        <time>2025-02-15T09:42:15Z</time>
      </trkpt>
      <trkpt lat="43.56858" lon="1.44217">
        <ele>228</ele>
        <time>2025-02-15T09:42:16Z</time>
      </trkpt>
      <trkpt lat="43.56862" lon="1.44217">
        <ele>228</ele>
        <time>2025-02-15T09:42:17Z</time>
      </trkpt>
      <trkpt lat="43.56863" lon="1.44217">
        <ele>227</ele>
        <time>2025-02-15T09:42:18Z</time>
      </trkpt>
      <trkpt lat="43.56866" lon="1.44216">
        <ele>227</ele>
        <time>2025-02-15T09:42:19Z</time>
      </trkpt>
      <trkpt lat="43.56868" lon="1.44216">
        <ele>227</ele>
        <time>2025-02-15T09:42:20Z</time>
      </trkpt>
      <trkpt lat="43.56871" lon="1.44215">
        <ele>227</ele>
        <time>2025-02-15T09:42:21Z</time>
      </trkpt>
      <trkpt lat="43.56876" lon="1.44214">
        <ele>227</ele>
        <time>2025-02-15T09:42:22Z</time>
      </trkpt>
      <trkpt lat="43.56877" lon="1.44214">
        <ele>227</ele>
        <time>2025-02-15T09:42:23Z</time>
      </trkpt>
      <trkpt lat="43.56881" lon="1.44213">
        <ele>227</ele>
        <time>2025-02-15T09:42:24Z</time>
      </trkpt>
      <trkpt lat="43.56884" lon="1.44212">
        <ele>227</ele>
        <time>2025-02-15T09:42:25Z</time>
      </trkpt>
      <trkpt lat="43.56887" lon="1.44212">
        <ele>227</ele>
        <time>2025-02-15T09:42:26Z</time>
      </trkpt>
      <trkpt lat="43.5689" lon="1.44211">
        <ele>227</ele>
        <time>2025-02-15T09:42:27Z</time>
      </trkpt>
      <trkpt lat="43.56893" lon="1.4421">
        <ele>226</ele>
        <time>2025-02-15T09:42:28Z</time>
      </trkpt>
      <trkpt lat="43.56896" lon="1.44209">
        <ele>225</ele>
        <time>2025-02-15T09:42:29Z</time>
      </trkpt>
      <trkpt lat="43.56899" lon="1.44209">
        <ele>224</ele>
        <time>2025-02-15T09:42:30Z</time>
      </trkpt>
      <trkpt lat="43.56904" lon="1.44209">
        <ele>224</ele>
        <time>2025-02-15T09:42:31Z</time>
      </trkpt>
      <trkpt lat="43.56905" lon="1.44209">
        <ele>224</ele>
        <time>2025-02-15T09:42:32Z</time>
      </trkpt>
      <trkpt lat="43.56908" lon="1.44208">
        <ele>223</ele>
        <time>2025-02-15T09:42:33Z</time>
      </trkpt>
      <trkpt lat="43.56911" lon="1.44207">
        <ele>223</ele>
        <time>2025-02-15T09:42:34Z</time>
      </trkpt>
      <trkpt lat="43.56914" lon="1.44207">
        <ele>223</ele>
        <time>2025-02-15T09:42:35Z</time>
      </trkpt>
      <trkpt lat="43.56918" lon="1.44206">
        <ele>223</ele>
        <time>2025-02-15T09:42:36Z</time>
      </trkpt>
      <trkpt lat="43.56919" lon="1.44205">
        <ele>222</ele>
        <time>2025-02-15T09:42:37Z</time>
      </trkpt>
      <trkpt lat="43.56924" lon="1.44205">
        <ele>222</ele>
        <time>2025-02-15T09:42:38Z</time>
      </trkpt>
      <trkpt lat="43.56925" lon="1.44204">
        <ele>222</ele>
        <time>2025-02-15T09:42:39Z</time>
      </trkpt>
      <trkpt lat="43.56928" lon="1.44204">
        <ele>222</ele>
        <time>2025-02-15T09:42:40Z</time>
      </trkpt>
      <trkpt lat="43.56931" lon="1.44204">
        <ele>221</ele>
        <time>2025-02-15T09:42:41Z</time>
      </trkpt>
      <trkpt lat="43.56934" lon="1.44204">
        <ele>221</ele>
        <time>2025-02-15T09:42:42Z</time>
      </trkpt>
      <trkpt lat="43.56937" lon="1.44204">
        <ele>221</ele>
        <time>2025-02-15T09:42:43Z</time>
      </trkpt>
      <trkpt lat="43.56939" lon="1.44203">
        <ele>221</ele>
        <time>2025-02-15T09:42:44Z</time>
      </trkpt>
      <trkpt lat="43.56942" lon="1.44203">
        <ele>220</ele>
        <time>2025-02-15T09:42:45Z</time>
      </trkpt>
      <trkpt lat="43.56946" lon="1.44203">
        <ele>220</ele>
        <time>2025-02-15T09:42:46Z</time>
      </trkpt>
      <trkpt lat="43.56947" lon="1.44203">
        <ele>220</ele>
        <time>2025-02-15T09:42:47Z</time>
      </trkpt>
      <trkpt lat="43.5695" lon="1.44203">
        <ele>219</ele>
        <time>2025-02-15T09:42:48Z</time>
      </trkpt>
      <trkpt lat="43.56955" lon="1.44203">
        <ele>219</ele>
        <time>2025-02-15T09:42:49Z</time>
      </trkpt>
      <trkpt lat="43.56956" lon="1.44202">
        <ele>218</ele>
        <time>2025-02-15T09:42:50Z</time>
      </trkpt>
      <trkpt lat="43.56961" lon="1.44202">
        <ele>218</ele>
        <time>2025-02-15T09:42:51Z</time>
      </trkpt>
      <trkpt lat="43.56963" lon="1.44202">
        <ele>218</ele>
        <time>2025-02-15T09:42:52Z</time>
      </trkpt>
      <trkpt lat="43.56966" lon="1.44202">
        <ele>218</ele>
        <time>2025-02-15T09:42:53Z</time>
      </trkpt>
      <trkpt lat="43.56969" lon="1.44201">
        <ele>217</ele>
        <time>2025-02-15T09:42:54Z</time>
      </trkpt>
      <trkpt lat="43.56973" lon="1.442">
        <ele>217</ele>
        <time>2025-02-15T09:42:55Z</time>
      </trkpt>
      <trkpt lat="43.56977" lon="1.44199">
        <ele>217</ele>
        <time>2025-02-15T09:42:56Z</time>
      </trkpt>
      <trkpt lat="43.56978" lon="1.44198">
        <ele>216</ele>
        <time>2025-02-15T09:42:57Z</time>
      </trkpt>
      <trkpt lat="43.56983" lon="1.44197">
        <ele>216</ele>
        <time>2025-02-15T09:42:58Z</time>
      </trkpt>
      <trkpt lat="43.56984" lon="1.44197">
        <ele>216</ele>
        <time>2025-02-15T09:42:59Z</time>
      </trkpt>
      <trkpt lat="43.56987" lon="1.44197">
        <ele>216</ele>
        <time>2025-02-15T09:43:00Z</time>
      </trkpt>
      <trkpt lat="43.5699" lon="1.44197">
        <ele>215</ele>
        <time>2025-02-15T09:43:01Z</time>
      </trkpt>
      <trkpt lat="43.56993" lon="1.44197">
        <ele>215</ele>
        <time>2025-02-15T09:43:02Z</time>
      </trkpt>
      <trkpt lat="43.56998" lon="1.44197">
        <ele>215</ele>
        <time>2025-02-15T09:43:03Z</time>
      </trkpt>
      <trkpt lat="43.56999" lon="1.44197">
        <ele>215</ele>
        <time>2025-02-15T09:43:04Z</time>
      </trkpt>
      <trkpt lat="43.57004" lon="1.44197">
        <ele>215</ele>
        <time>2025-02-15T09:43:05Z</time>
      </trkpt>
      <trkpt lat="43.57005" lon="1.44197">
        <ele>215</ele>
        <time>2025-02-15T09:43:06Z</time>
      </trkpt>
      <trkpt lat="43.57008" lon="1.44196">
        <ele>214</ele>
        <time>2025-02-15T09:43:07Z</time>
      </trkpt>
      <trkpt lat="43.57012" lon="1.44196">
        <ele>214</ele>
        <time>2025-02-15T09:43:08Z</time>
      </trkpt>
      <trkpt lat="43.57013" lon="1.44196">
        <ele>214</ele>
        <time>2025-02-15T09:43:09Z</time>
      </trkpt>
      <trkpt lat="43.57019" lon="1.44195">
        <ele>214</ele>
        <time>2025-02-15T09:43:10Z</time>
      </trkpt>
      <trkpt lat="43.5702" lon="1.44195">
        <ele>214</ele>
        <time>2025-02-15T09:43:11Z</time>
      </trkpt>
      <trkpt lat="43.57023" lon="1.44195">
        <ele>214</ele>
        <time>2025-02-15T09:43:12Z</time>
      </trkpt>
      <trkpt lat="43.57026" lon="1.44195">
        <ele>214</ele>
        <time>2025-02-15T09:43:13Z</time>
      </trkpt>
      <trkpt lat="43.57028" lon="1.44194">
        <ele>214</ele>
        <time>2025-02-15T09:43:14Z</time>
      </trkpt>
      <trkpt lat="43.57033" lon="1.44193">
        <ele>214</ele>
        <time>2025-02-15T09:43:15Z</time>
      </trkpt>
      <trkpt lat="43.57035" lon="1.44193">
        <ele>214</ele>
        <time>2025-02-15T09:43:16Z</time>
      </trkpt>
      <trkpt lat="43.5704" lon="1.44191">
        <ele>214</ele>
        <time>2025-02-15T09:43:17Z</time>
      </trkpt>
      <trkpt lat="43.57042" lon="1.4419">
        <ele>212</ele>
        <time>2025-02-15T09:43:18Z</time>
      </trkpt>
      <trkpt lat="43.57045" lon="1.44189">
        <ele>211</ele>
        <time>2025-02-15T09:43:19Z</time>
      </trkpt>
      <trkpt lat="43.57048" lon="1.44188">
        <ele>211</ele>
        <time>2025-02-15T09:43:20Z</time>
      </trkpt>
      <trkpt lat="43.57052" lon="1.44187">
        <ele>211</ele>
        <time>2025-02-15T09:43:21Z</time>
      </trkpt>
      <trkpt lat="43.57055" lon="1.44186">
        <ele>211</ele>
        <time>2025-02-15T09:43:22Z</time>
      </trkpt>
      <trkpt lat="43.57058" lon="1.44185">
        <ele>210</ele>
        <time>2025-02-15T09:43:23Z</time>
      </trkpt>
      <trkpt lat="43.57061" lon="1.44183">
        <ele>210</ele>
        <time>2025-02-15T09:43:24Z</time>
      </trkpt>
      <trkpt lat="43.57064" lon="1.44181">
        <ele>210</ele>
        <time>2025-02-15T09:43:25Z</time>
      </trkpt>
      <trkpt lat="43.57068" lon="1.44178">
        <ele>210</ele>
        <time>2025-02-15T09:43:26Z</time>
      </trkpt>
      <trkpt lat="43.57069" lon="1.44177">
        <ele>209</ele>
        <time>2025-02-15T09:43:27Z</time>
      </trkpt>
      <trkpt lat="43.57073" lon="1.44174">
        <ele>209</ele>
        <time>2025-02-15T09:43:28Z</time>
      </trkpt>
      <trkpt lat="43.57075" lon="1.44173">
        <ele>208</ele>
        <time>2025-02-15T09:43:29Z</time>
      </trkpt>
      <trkpt lat="43.57078" lon="1.44172">
        <ele>208</ele>
        <time>2025-02-15T09:43:30Z</time>
      </trkpt>
      <trkpt lat="43.57081" lon="1.44171">
        <ele>208</ele>
        <time>2025-02-15T09:43:31Z</time>
      </trkpt>
      <trkpt lat="43.57084" lon="1.44169">
        <ele>208</ele>
        <time>2025-02-15T09:43:32Z</time>
      </trkpt>
      <trkpt lat="43.57087" lon="1.44168">
        <ele>208</ele>
        <time>2025-02-15T09:43:33Z</time>
      </trkpt>
      <trkpt lat="43.5709" lon="1.44167">
        <ele>207</ele>
        <time>2025-02-15T09:43:34Z</time>
      </trkpt>
      <trkpt lat="43.57094" lon="1.44166">
        <ele>207</ele>
        <time>2025-02-15T09:43:35Z</time>
      </trkpt>
      <trkpt lat="43.57096" lon="1.44166">
        <ele>206</ele>
        <time>2025-02-15T09:43:36Z</time>
      </trkpt>
      <trkpt lat="43.571" lon="1.44165">
        <ele>206</ele>
        <time>2025-02-15T09:43:37Z</time>
      </trkpt>
      <trkpt lat="43.57102" lon="1.44164">
        <ele>206</ele>
        <time>2025-02-15T09:43:38Z</time>
      </trkpt>
      <trkpt lat="43.57106" lon="1.44163">
        <ele>206</ele>
        <time>2025-02-15T09:43:39Z</time>
      </trkpt>
      <trkpt lat="43.57107" lon="1.44163">
        <ele>205</ele>
        <time>2025-02-15T09:43:40Z</time>
      </trkpt>
      <trkpt lat="43.57111" lon="1.44162">
        <ele>205</ele>
        <time>2025-02-15T09:43:41Z</time>
      </trkpt>
      <trkpt lat="43.57112" lon="1.44161">
        <ele>204</ele>
        <time>2025-02-15T09:43:42Z</time>
      </trkpt>
      <trkpt lat="43.57115" lon="1.44159">
        <ele>204</ele>
        <time>2025-02-15T09:43:43Z</time>
      </trkpt>
      <trkpt lat="43.57117" lon="1.44158">
        <ele>204</ele>
        <time>2025-02-15T09:43:44Z</time>
      </trkpt>
      <trkpt lat="43.57122" lon="1.44158">
        <ele>204</ele>
        <time>2025-02-15T09:43:45Z</time>
      </trkpt>
      <trkpt lat="43.57123" lon="1.44158">
        <ele>203</ele>
        <time>2025-02-15T09:43:46Z</time>
      </trkpt>
      <trkpt lat="43.57127" lon="1.44158">
        <ele>203</ele>
        <time>2025-02-15T09:43:47Z</time>
      </trkpt>
      <trkpt lat="43.57129" lon="1.44158">
        <ele>203</ele>
        <time>2025-02-15T09:43:48Z</time>
      </trkpt>
      <trkpt lat="43.57132" lon="1.44157">
        <ele>202</ele>
        <time>2025-02-15T09:43:49Z</time>
      </trkpt>
      <trkpt lat="43.57134" lon="1.44155">
        <ele>202</ele>
        <time>2025-02-15T09:43:50Z</time>
      </trkpt>
      <trkpt lat="43.57136" lon="1.44153">
        <ele>202</ele>
        <time>2025-02-15T09:43:51Z</time>
      </trkpt>
      <trkpt lat="43.5714" lon="1.4415">
        <ele>202</ele>
        <time>2025-02-15T09:43:52Z</time>
      </trkpt>
      <trkpt lat="43.57142" lon="1.44149">
        <ele>201</ele>
        <time>2025-02-15T09:43:53Z</time>
      </trkpt>
      <trkpt lat="43.57147" lon="1.44147">
        <ele>201</ele>
        <time>2025-02-15T09:43:54Z</time>
      </trkpt>
      <trkpt lat="43.57148" lon="1.44146">
        <ele>200</ele>
        <time>2025-02-15T09:43:55Z</time>
      </trkpt>
      <trkpt lat="43.57151" lon="1.44146">
        <ele>200</ele>
        <time>2025-02-15T09:43:56Z</time>
      </trkpt>
      <trkpt lat="43.57156" lon="1.44147">
        <ele>200</ele>
        <time>2025-02-15T09:43:57Z</time>
      </trkpt>
      <trkpt lat="43.57157" lon="1.44147">
        <ele>198</ele>
        <time>2025-02-15T09:43:58Z</time>
      </trkpt>
      <trkpt lat="43.5716" lon="1.44147">
        <ele>198</ele>
        <time>2025-02-15T09:43:59Z</time>
      </trkpt>
      <trkpt lat="43.57163" lon="1.44147">
        <ele>197</ele>
        <time>2025-02-15T09:44:00Z</time>
      </trkpt>
      <trkpt lat="43.57166" lon="1.44147">
        <ele>197</ele>
        <time>2025-02-15T09:44:01Z</time>
      </trkpt>
      <trkpt lat="43.57169" lon="1.44147">
        <ele>197</ele>
        <time>2025-02-15T09:44:02Z</time>
      </trkpt>
      <trkpt lat="43.57172" lon="1.44147">
        <ele>197</ele>
        <time>2025-02-15T09:44:03Z</time>
      </trkpt>
      <trkpt lat="43.57176" lon="1.44146">
        <ele>197</ele>
        <time>2025-02-15T09:44:04Z</time>
      </trkpt>
      <trkpt lat="43.57177" lon="1.44145">
        <ele>195</ele>
        <time>2025-02-15T09:44:05Z</time>
      </trkpt>
      <trkpt lat="43.57182" lon="1.44144">
        <ele>195</ele>
        <time>2025-02-15T09:44:06Z</time>
      </trkpt>
      <trkpt lat="43.57183" lon="1.44144">
        <ele>195</ele>
        <time>2025-02-15T09:44:07Z</time>
      </trkpt>
      <trkpt lat="43.57186" lon="1.44143">
        <ele>194</ele>
        <time>2025-02-15T09:44:08Z</time>
      </trkpt>
      <trkpt lat="43.57189" lon="1.44143">
        <ele>194</ele>
        <time>2025-02-15T09:44:09Z</time>
      </trkpt>
      <trkpt lat="43.57192" lon="1.44142">
        <ele>194</ele>
        <time>2025-02-15T09:44:10Z</time>
      </trkpt>
      <trkpt lat="43.57196" lon="1.44141">
        <ele>194</ele>
        <time>2025-02-15T09:44:11Z</time>
      </trkpt>
      <trkpt lat="43.57198" lon="1.4414">
        <ele>193</ele>
        <time>2025-02-15T09:44:12Z</time>
      </trkpt>
      <trkpt lat="43.572" lon="1.44139">
        <ele>193</ele>
        <time>2025-02-15T09:44:13Z</time>
      </trkpt>
      <trkpt lat="43.57203" lon="1.44138">
        <ele>192</ele>
        <time>2025-02-15T09:44:14Z</time>
      </trkpt>
      <trkpt lat="43.57206" lon="1.44138">
        <ele>192</ele>
        <time>2025-02-15T09:44:15Z</time>
      </trkpt>
      <trkpt lat="43.57209" lon="1.44137">
        <ele>192</ele>
        <time>2025-02-15T09:44:16Z</time>
      </trkpt>
      <trkpt lat="43.57212" lon="1.44137">
        <ele>192</ele>
        <time>2025-02-15T09:44:17Z</time>
      </trkpt>
      <trkpt lat="43.57215" lon="1.44137">
        <ele>192</ele>
        <time>2025-02-15T09:44:18Z</time>
      </trkpt>
      <trkpt lat="43.57219" lon="1.44138">
        <ele>192</ele>
        <time>2025-02-15T09:44:19Z</time>
      </trkpt>
      <trkpt lat="43.57222" lon="1.44139">
        <ele>192</ele>
        <time>2025-02-15T09:44:20Z</time>
      </trkpt>
      <trkpt lat="43.57224" lon="1.4414">
        <ele>192</ele>
        <time>2025-02-15T09:44:21Z</time>
      </trkpt>
      <trkpt lat="43.57227" lon="1.4414">
        <ele>192</ele>
        <time>2025-02-15T09:44:22Z</time>
      </trkpt>
      <trkpt lat="43.5723" lon="1.4414">
        <ele>192</ele>
        <time>2025-02-15T09:44:23Z</time>
      </trkpt>
      <trkpt lat="43.57232" lon="1.44141">
        <ele>192</ele>
        <time>2025-02-15T09:44:24Z</time>
      </trkpt>
      <trkpt lat="43.57237" lon="1.44142">
        <ele>192</ele>
        <time>2025-02-15T09:44:25Z</time>
      </trkpt>
      <trkpt lat="43.57238" lon="1.44142">
        <ele>191</ele>
        <time>2025-02-15T09:44:26Z</time>
      </trkpt>
      <trkpt lat="43.57241" lon="1.44143">
        <ele>191</ele>
        <time>2025-02-15T09:44:27Z</time>
      </trkpt>
      <trkpt lat="43.57245" lon="1.44143">
        <ele>191</ele>
        <time>2025-02-15T09:44:28Z</time>
      </trkpt>
      <trkpt lat="43.57248" lon="1.44144">
        <ele>190</ele>
        <time>2025-02-15T09:44:29Z</time>
      </trkpt>
      <trkpt lat="43.57252" lon="1.44144">
        <ele>190</ele>
        <time>2025-02-15T09:44:30Z</time>
      </trkpt>
      <trkpt lat="43.57254" lon="1.44144">
        <ele>190</ele>
        <time>2025-02-15T09:44:31Z</time>
      </trkpt>
      <trkpt lat="43.57256" lon="1.44145">
        <ele>190</ele>
        <time>2025-02-15T09:44:32Z</time>
      </trkpt>
      <trkpt lat="43.57259" lon="1.44144">
        <ele>189</ele>
        <time>2025-02-15T09:44:33Z</time>
      </trkpt>
      <trkpt lat="43.57262" lon="1.44144">
        <ele>189</ele>
        <time>2025-02-15T09:44:34Z</time>
      </trkpt>
      <trkpt lat="43.57266" lon="1.44144">
        <ele>189</ele>
        <time>2025-02-15T09:44:35Z</time>
      </trkpt>
      <trkpt lat="43.57267" lon="1.44144">
        <ele>189</ele>
        <time>2025-02-15T09:44:36Z</time>
      </trkpt>
      <trkpt lat="43.5727" lon="1.44143">
        <ele>189</ele>
        <time>2025-02-15T09:44:37Z</time>
      </trkpt>
      <trkpt lat="43.57272" lon="1.44143">
        <ele>189</ele>
        <time>2025-02-15T09:44:38Z</time>
      </trkpt>
      <trkpt lat="43.57274" lon="1.44142">
        <ele>188</ele>
        <time>2025-02-15T09:44:39Z</time>
      </trkpt>
      <trkpt lat="43.57277" lon="1.44141">
        <ele>188</ele>
        <time>2025-02-15T09:44:40Z</time>
      </trkpt>
      <trkpt lat="43.57279" lon="1.4414">
        <ele>188</ele>
        <time>2025-02-15T09:44:41Z</time>
      </trkpt>
      <trkpt lat="43.57283" lon="1.44139">
        <ele>188</ele>
        <time>2025-02-15T09:44:42Z</time>
      </trkpt>
      <trkpt lat="43.57285" lon="1.44139">
        <ele>188</ele>
        <time>2025-02-15T09:44:43Z</time>
      </trkpt>
      <trkpt lat="43.5729" lon="1.44139">
        <ele>188</ele>
        <time>2025-02-15T09:44:44Z</time>
      </trkpt>
      <trkpt lat="43.57292" lon="1.44139">
        <ele>187</ele>
        <time>2025-02-15T09:44:45Z</time>
      </trkpt>
      <trkpt lat="43.57297" lon="1.44137">
        <ele>187</ele>
        <time>2025-02-15T09:44:46Z</time>
      </trkpt>
      <trkpt lat="43.57298" lon="1.44137">
        <ele>186</ele>
        <time>2025-02-15T09:44:47Z</time>
      </trkpt>
      <trkpt lat="43.57302" lon="1.44134">
        <ele>186</ele>
        <time>2025-02-15T09:44:48Z</time>
      </trkpt>
      <trkpt lat="43.57304" lon="1.44133">
        <ele>186</ele>
        <time>2025-02-15T09:44:49Z</time>
      </trkpt>
      <trkpt lat="43.57306" lon="1.44132">
        <ele>186</ele>
        <time>2025-02-15T09:44:50Z</time>
      </trkpt>
      <trkpt lat="43.57309" lon="1.4413">
        <ele>186</ele>
        <time>2025-02-15T09:44:51Z</time>
      </trkpt>
      <trkpt lat="43.57312" lon="1.44129">
        <ele>186</ele>
        <time>2025-02-15T09:44:52Z</time>
      </trkpt>
      <trkpt lat="43.57316" lon="1.44128">
        <ele>186</ele>
        <time>2025-02-15T09:44:53Z</time>
      </trkpt>
      <trkpt lat="43.57317" lon="1.44127">
        <ele>185</ele>
        <time>2025-02-15T09:44:54Z</time>
      </trkpt>
      <trkpt lat="43.57322" lon="1.44124">
        <ele>185</ele>
        <time>2025-02-15T09:44:55Z</time>
      </trkpt>
      <trkpt lat="43.57324" lon="1.44123">
        <ele>184</ele>
        <time>2025-02-15T09:44:56Z</time>
      </trkpt>
      <trkpt lat="43.57327" lon="1.4412">
        <ele>184</ele>
        <time>2025-02-15T09:44:57Z</time>
      </trkpt>
      <trkpt lat="43.57327" lon="1.4412">
        <ele>183</ele>
        <time>2025-02-15T09:44:58Z</time>
      </trkpt>
      <trkpt lat="43.57332" lon="1.44115">
        <ele>182</ele>
        <time>2025-02-15T09:44:59Z</time>
      </trkpt>
      <trkpt lat="43.57335" lon="1.44113">
        <ele>182</ele>
        <time>2025-02-15T09:45:00Z</time>
      </trkpt>
      <trkpt lat="43.57338" lon="1.44109">
        <ele>182</ele>
        <time>2025-02-15T09:45:01Z</time>
      </trkpt>
      <trkpt lat="43.57339" lon="1.44108">
        <ele>178</ele>
        <time>2025-02-15T09:45:02Z</time>
      </trkpt>
      <trkpt lat="43.57342" lon="1.44107">
        <ele>178</ele>
        <time>2025-02-15T09:45:03Z</time>
      </trkpt>
      <trkpt lat="43.57345" lon="1.44106">
        <ele>178</ele>
        <time>2025-02-15T09:45:04Z</time>
      </trkpt>
      <trkpt lat="43.5735" lon="1.44104">
        <ele>178</ele>
        <time>2025-02-15T09:45:05Z</time>
      </trkpt>
      <trkpt lat="43.57351" lon="1.44104">
        <ele>177</ele>
        <time>2025-02-15T09:45:06Z</time>
      </trkpt>
      <trkpt lat="43.57356" lon="1.44103">
        <ele>177</ele>
        <time>2025-02-15T09:45:07Z</time>
      </trkpt>
      <trkpt lat="43.57358" lon="1.44103">
        <ele>177</ele>
        <time>2025-02-15T09:45:08Z</time>
      </trkpt>
      <trkpt lat="43.57361" lon="1.44102">
        <ele>177</ele>
        <time>2025-02-15T09:45:09Z</time>
      </trkpt>
      <trkpt lat="43.57364" lon="1.44101">
        <ele>177</ele>
        <time>2025-02-15T09:45:10Z</time>
      </trkpt>
      <trkpt lat="43.57368" lon="1.44101">
        <ele>177</ele>
        <time>2025-02-15T09:45:11Z</time>
      </trkpt>
      <trkpt lat="43.57373" lon="1.441">
        <ele>177</ele>
        <time>2025-02-15T09:45:12Z</time>
      </trkpt>
      <trkpt lat="43.57374" lon="1.44099">
        <ele>176</ele>
        <time>2025-02-15T09:45:13Z</time>
      </trkpt>
      <trkpt lat="43.5738" lon="1.441">
        <ele>176</ele>
        <time>2025-02-15T09:45:14Z</time>
      </trkpt>
      <trkpt lat="43.57381" lon="1.441">
        <ele>176</ele>
        <time>2025-02-15T09:45:15Z</time>
      </trkpt>
      <trkpt lat="43.57385" lon="1.44102">
        <ele>176</ele>
        <time>2025-02-15T09:45:16Z</time>
      </trkpt>
      <trkpt lat="43.57387" lon="1.44106">
        <ele>175</ele>
        <time>2025-02-15T09:45:17Z</time>
      </trkpt>
      <trkpt lat="43.5739" lon="1.4411">
        <ele>175</ele>
        <time>2025-02-15T09:45:18Z</time>
      </trkpt>
      <trkpt lat="43.57394" lon="1.44115">
        <ele>175</ele>
        <time>2025-02-15T09:45:19Z</time>
      </trkpt>
      <trkpt lat="43.57395" lon="1.44117">
        <ele>173</ele>
        <time>2025-02-15T09:45:20Z</time>
      </trkpt>
      <trkpt lat="43.57398" lon="1.44119">
        <ele>172</ele>
        <time>2025-02-15T09:45:21Z</time>
      </trkpt>
      <trkpt lat="43.57402" lon="1.44121">
        <ele>172</ele>
        <time>2025-02-15T09:45:22Z</time>
      </trkpt>
      <trkpt lat="43.57405" lon="1.44123">
        <ele>172</ele>
        <time>2025-02-15T09:45:23Z</time>
      </trkpt>
      <trkpt lat="43.57409" lon="1.44127">
        <ele>172</ele>
        <time>2025-02-15T09:45:24Z</time>
      </trkpt>
      <trkpt lat="43.57411" lon="1.44129">
        <ele>171</ele>
        <time>2025-02-15T09:45:25Z</time>
      </trkpt>
      <trkpt lat="43.57414" lon="1.44134">
        <ele>171</ele>
        <time>2025-02-15T09:45:26Z</time>
      </trkpt>
      <trkpt lat="43.57416" lon="1.44136">
        <ele>171</ele>
        <time>2025-02-15T09:45:27Z</time>
      </trkpt>
      <trkpt lat="43.57418" lon="1.44139">
        <ele>170</ele>
        <time>2025-02-15T09:45:28Z</time>
      </trkpt>
      <trkpt lat="43.57421" lon="1.44143">
        <ele>169</ele>
        <time>2025-02-15T09:45:29Z</time>
      </trkpt>
      <trkpt lat="43.57424" lon="1.44146">
        <ele>168</ele>
        <time>2025-02-15T09:45:30Z</time>
      </trkpt>
      <trkpt lat="43.57429" lon="1.4415">
        <ele>168</ele>
        <time>2025-02-15T09:45:31Z</time>
      </trkpt>
      <trkpt lat="43.5743" lon="1.44151">
        <ele>168</ele>
        <time>2025-02-15T09:45:32Z</time>
      </trkpt>
      <trkpt lat="43.57433" lon="1.44154">
        <ele>168</ele>
        <time>2025-02-15T09:45:33Z</time>
      </trkpt>
      <trkpt lat="43.57433" lon="1.44154">
        <ele>165</ele>
        <time>2025-02-15T09:45:34Z</time>
      </trkpt>
      <trkpt lat="43.57442" lon="1.44163">
        <ele>165</ele>
        <time>2025-02-15T09:45:36Z</time>
      </trkpt>
      <trkpt lat="43.57442" lon="1.44163">
        <ele>165</ele>
        <time>2025-02-15T09:45:37Z</time>
      </trkpt>
      <trkpt lat="43.57446" lon="1.44167">
        <ele>164</ele>
        <time>2025-02-15T09:45:38Z</time>
      </trkpt>
      <trkpt lat="43.5745" lon="1.44171">
        <ele>163</ele>
        <time>2025-02-15T09:45:39Z</time>
      </trkpt>
      <trkpt lat="43.5745" lon="1.44171">
        <ele>162</ele>
        <time>2025-02-15T09:45:40Z</time>
      </trkpt>
      <trkpt lat="43.57459" lon="1.44179">
        <ele>161</ele>
        <time>2025-02-15T09:45:42Z</time>
      </trkpt>
      <trkpt lat="43.57462" lon="1.44182">
        <ele>160</ele>
        <time>2025-02-15T09:45:44Z</time>
      </trkpt>
      <trkpt lat="43.57464" lon="1.44186">
        <ele>160</ele>
        <time>2025-02-15T09:45:45Z</time>
      </trkpt>
      <trkpt lat="43.57467" lon="1.44189">
        <ele>159</ele>
        <time>2025-02-15T09:45:46Z</time>
      </trkpt>
      <trkpt lat="43.57472" lon="1.442">
        <ele>158</ele>
        <time>2025-02-15T09:45:48Z</time>
      </trkpt>
      <trkpt lat="43.57473" lon="1.44201">
        <ele>158</ele>
        <time>2025-02-15T09:45:49Z</time>
      </trkpt>
      <trkpt lat="43.57474" lon="1.44202">
        <ele>157</ele>
        <time>2025-02-15T09:45:50Z</time>
      </trkpt>
      <trkpt lat="43.57475" lon="1.44203">
        <ele>156</ele>
        <time>2025-02-15T09:45:51Z</time>
      </trkpt>
      <trkpt lat="43.57484" lon="1.44211">
        <ele>155</ele>
        <time>2025-02-15T09:45:53Z</time>
      </trkpt>
      <trkpt lat="43.57487" lon="1.44214">
        <ele>155</ele>
        <time>2025-02-15T09:45:54Z</time>
      </trkpt>
      <trkpt lat="43.57489" lon="1.44217">
        <ele>155</ele>
        <time>2025-02-15T09:45:55Z</time>
      </trkpt>
      <trkpt lat="43.57492" lon="1.4422">
        <ele>155</ele>
        <time>2025-02-15T09:45:56Z</time>
      </trkpt>
      <trkpt lat="43.57494" lon="1.44223">
        <ele>155</ele>
        <time>2025-02-15T09:45:57Z</time>
      </trkpt>
      <trkpt lat="43.57497" lon="1.44225">
        <ele>153</ele>
        <time>2025-02-15T09:45:58Z</time>
      </trkpt>
      <trkpt lat="43.57501" lon="1.44232">
        <ele>153</ele>
        <time>2025-02-15T09:45:59Z</time>
      </trkpt>
      <trkpt lat="43.57501" lon="1.44232">
        <ele>153</ele>
        <time>2025-02-15T09:46:00Z</time>
      </trkpt>
      <trkpt lat="43.57506" lon="1.4424">
        <ele>153</ele>
        <time>2025-02-15T09:46:01Z</time>
      </trkpt>
      <trkpt lat="43.57507" lon="1.44241">
        <ele>153</ele>
        <time>2025-02-15T09:46:02Z</time>
      </trkpt>
      <trkpt lat="43.57508" lon="1.44244">
        <ele>153</ele>
        <time>2025-02-15T09:46:03Z</time>
      </trkpt>
      <trkpt lat="43.57508" lon="1.44244">
        <ele>152</ele>
        <time>2025-02-15T09:46:04Z</time>
      </trkpt>
      <trkpt lat="43.5751" lon="1.44248">
        <ele>152</ele>
        <time>2025-02-15T09:46:05Z</time>
      </trkpt>
      <trkpt lat="43.57511" lon="1.44251">
        <ele>152</ele>
        <time>2025-02-15T09:46:06Z</time>
      </trkpt>
      <trkpt lat="43.57513" lon="1.44255">
        <ele>152</ele>
        <time>2025-02-15T09:46:07Z</time>
      </trkpt>
      <trkpt lat="43.57515" lon="1.44258">
        <ele>152</ele>
        <time>2025-02-15T09:46:08Z</time>
      </trkpt>
      <trkpt lat="43.57515" lon="1.44258">
        <ele>151</ele>
        <time>2025-02-15T09:46:09Z</time>
      </trkpt>
      <trkpt lat="43.57521" lon="1.44267">
        <ele>152</ele>
        <time>2025-02-15T09:46:11Z</time>
      </trkpt>
      <trkpt lat="43.57523" lon="1.4427">
        <ele>151</ele>
        <time>2025-02-15T09:46:12Z</time>
      </trkpt>
      <trkpt lat="43.57526" lon="1.44274">
        <ele>151</ele>
        <time>2025-02-15T09:46:13Z</time>
      </trkpt>
      <trkpt lat="43.57527" lon="1.44276">
        <ele>151</ele>
        <time>2025-02-15T09:46:14Z</time>
      </trkpt>
      <trkpt lat="43.57528" lon="1.44279">
        <ele>151</ele>
        <time>2025-02-15T09:46:16Z</time>
      </trkpt>
      <trkpt lat="43.5753" lon="1.44282">
        <ele>151</ele>
        <time>2025-02-15T09:46:17Z</time>
      </trkpt>
      <trkpt lat="43.57532" lon="1.44285">
        <ele>151</ele>
        <time>2025-02-15T09:46:18Z</time>
      </trkpt>
      <trkpt lat="43.57534" lon="1.4429">
        <ele>151</ele>
        <time>2025-02-15T09:46:20Z</time>
      </trkpt>
      <trkpt lat="43.57535" lon="1.44294">
        <ele>151</ele>
        <time>2025-02-15T09:46:21Z</time>
      </trkpt>
      <trkpt lat="43.57538" lon="1.44303">
        <ele>151</ele>
        <time>2025-02-15T09:46:22Z</time>
      </trkpt>
      <trkpt lat="43.57538" lon="1.44303">
        <ele>151</ele>
        <time>2025-02-15T09:46:23Z</time>
      </trkpt>
      <trkpt lat="43.57535" lon="1.44305">
        <ele>151</ele>
        <time>2025-02-15T09:46:24Z</time>
      </trkpt>
      <trkpt lat="43.57535" lon="1.44305">
        <ele>150</ele>
        <time>2025-02-15T09:46:25Z</time>
      </trkpt>
      <trkpt lat="43.57531" lon="1.44299">
        <ele>150</ele>
        <time>2025-02-15T09:46:27Z</time>
      </trkpt>
      <trkpt lat="43.5753" lon="1.44297">
        <ele>150</ele>
        <time>2025-02-15T09:46:28Z</time>
      </trkpt>
      <trkpt lat="43.57528" lon="1.44295">
        <ele>150</ele>
        <time>2025-02-15T09:46:29Z</time>
      </trkpt>
      <trkpt lat="43.57527" lon="1.44292">
        <ele>150</ele>
        <time>2025-02-15T09:46:30Z</time>
      </trkpt>
      <trkpt lat="43.57524" lon="1.4429">
        <ele>150</ele>
        <time>2025-02-15T09:46:31Z</time>
      </trkpt>
      <trkpt lat="43.57523" lon="1.44288">
        <ele>150</ele>
        <time>2025-02-15T09:46:32Z</time>
      </trkpt>
      <trkpt lat="43.57523" lon="1.44288">
        <ele>150</ele>
        <time>2025-02-15T09:46:33Z</time>
      </trkpt>
      <trkpt lat="43.57521" lon="1.44286">
        <ele>150</ele>
        <time>2025-02-15T09:46:34Z</time>
      </trkpt>
      <trkpt lat="43.57519" lon="1.44283">
        <ele>150</ele>
        <time>2025-02-15T09:46:35Z</time>
      </trkpt>
      <trkpt lat="43.57518" lon="1.44281">
        <ele>150</ele>
        <time>2025-02-15T09:46:36Z</time>
      </trkpt>
      <trkpt lat="43.57516" lon="1.44278">
        <ele>151</ele>
        <time>2025-02-15T09:46:37Z</time>
      </trkpt>
      <trkpt lat="43.57514" lon="1.44275">
        <ele>151</ele>
        <time>2025-02-15T09:46:39Z</time>
      </trkpt>
      <trkpt lat="43.57511" lon="1.44271">
        <ele>151</ele>
        <time>2025-02-15T09:46:40Z</time>
      </trkpt>
      <trkpt lat="43.57509" lon="1.44268">
        <ele>151</ele>
        <time>2025-02-15T09:46:41Z</time>
      </trkpt>
      <trkpt lat="43.57506" lon="1.44263">
        <ele>151</ele>
        <time>2025-02-15T09:46:43Z</time>
      </trkpt>
      <trkpt lat="43.57503" lon="1.44258">
        <ele>152</ele>
        <time>2025-02-15T09:46:44Z</time>
      </trkpt>
      <trkpt lat="43.57503" lon="1.44258">
        <ele>152</ele>
        <time>2025-02-15T09:46:45Z</time>
      </trkpt>
      <trkpt lat="43.57503" lon="1.44258">
        <ele>152</ele>
        <time>2025-02-15T09:46:46Z</time>
      </trkpt>
      <trkpt lat="43.57498" lon="1.44247">
        <ele>152</ele>
        <time>2025-02-15T09:46:48Z</time>
      </trkpt>
      <trkpt lat="43.57496" lon="1.44243">
        <ele>152</ele>
        <time>2025-02-15T09:46:49Z</time>
      </trkpt>
      <trkpt lat="43.57495" lon="1.44242">
        <ele>152</ele>
        <time>2025-02-15T09:46:50Z</time>
      </trkpt>
      <trkpt lat="43.57494" lon="1.4424">
        <ele>152</ele>
        <time>2025-02-15T09:46:52Z</time>
      </trkpt>
      <trkpt lat="43.57492" lon="1.44237">
        <ele>152</ele>
        <time>2025-02-15T09:46:53Z</time>
      </trkpt>
      <trkpt lat="43.57491" lon="1.44235">
        <ele>152</ele>
        <time>2025-02-15T09:46:54Z</time>
      </trkpt>
      <trkpt lat="43.5749" lon="1.44232">
        <ele>152</ele>
        <time>2025-02-15T09:46:55Z</time>
      </trkpt>
      <trkpt lat="43.5749" lon="1.44232">
        <ele>152</ele>
        <time>2025-02-15T09:46:56Z</time>
      </trkpt>
      <trkpt lat="43.57487" lon="1.44229">
        <ele>152</ele>
        <time>2025-02-15T09:46:57Z</time>
      </trkpt>
      <trkpt lat="43.57487" lon="1.44229">
        <ele>153</ele>
        <time>2025-02-15T09:46:58Z</time>
      </trkpt>
      <trkpt lat="43.57484" lon="1.44225">
        <ele>153</ele>
        <time>2025-02-15T09:46:59Z</time>
      </trkpt>
      <trkpt lat="43.57484" lon="1.44225">
        <ele>153</ele>
        <time>2025-02-15T09:47:00Z</time>
      </trkpt>
      <trkpt lat="43.57482" lon="1.44222">
        <ele>154</ele>
        <time>2025-02-15T09:47:01Z</time>
      </trkpt>
      <trkpt lat="43.57482" lon="1.44222">
        <ele>154</ele>
        <time>2025-02-15T09:47:02Z</time>
      </trkpt>
      <trkpt lat="43.57481" lon="1.44219">
        <ele>154</ele>
        <time>2025-02-15T09:47:03Z</time>
      </trkpt>
      <trkpt lat="43.57481" lon="1.44219">
        <ele>155</ele>
        <time>2025-02-15T09:47:04Z</time>
      </trkpt>
      <trkpt lat="43.57479" lon="1.44217">
        <ele>155</ele>
        <time>2025-02-15T09:47:05Z</time>
      </trkpt>
      <trkpt lat="43.57479" lon="1.44217">
        <ele>155</ele>
        <time>2025-02-15T09:47:06Z</time>
      </trkpt>
      <trkpt lat="43.57476" lon="1.44213">
        <ele>155</ele>
        <time>2025-02-15T09:47:07Z</time>
      </trkpt>
      <trkpt lat="43.57476" lon="1.44213">
        <ele>155</ele>
        <time>2025-02-15T09:47:08Z</time>
      </trkpt>
      <trkpt lat="43.57474" lon="1.44211">
        <ele>155</ele>
        <time>2025-02-15T09:47:09Z</time>
      </trkpt>
      <trkpt lat="43.57472" lon="1.44208">
        <ele>155</ele>
        <time>2025-02-15T09:47:10Z</time>
      </trkpt>
      <trkpt lat="43.57471" lon="1.44207">
        <ele>156</ele>
        <time>2025-02-15T09:47:11Z</time>
      </trkpt>
      <trkpt lat="43.57469" lon="1.44205">
        <ele>156</ele>
        <time>2025-02-15T09:47:12Z</time>
      </trkpt>
      <trkpt lat="43.57468" lon="1.44203">
        <ele>156</ele>
        <time>2025-02-15T09:47:13Z</time>
      </trkpt>
      <trkpt lat="43.57466" lon="1.44199">
        <ele>156</ele>
        <time>2025-02-15T09:47:15Z</time>
      </trkpt>
      <trkpt lat="43.57466" lon="1.44197">
        <ele>157</ele>
        <time>2025-02-15T09:47:17Z</time>
      </trkpt>
      <trkpt lat="43.57466" lon="1.44197">
        <ele>157</ele>
        <time>2025-02-15T09:47:18Z</time>
      </trkpt>
      <trkpt lat="43.57465" lon="1.44193">
        <ele>157</ele>
        <time>2025-02-15T09:47:19Z</time>
      </trkpt>
      <trkpt lat="43.57463" lon="1.44191">
        <ele>157</ele>
        <time>2025-02-15T09:47:20Z</time>
      </trkpt>
      <trkpt lat="43.57462" lon="1.4419">
        <ele>157</ele>
        <time>2025-02-15T09:47:21Z</time>
      </trkpt>
      <trkpt lat="43.57462" lon="1.4419">
        <ele>157</ele>
        <time>2025-02-15T09:47:22Z</time>
      </trkpt>
      <trkpt lat="43.5746" lon="1.44187">
        <ele>157</ele>
        <time>2025-02-15T09:47:23Z</time>
      </trkpt>
      <trkpt lat="43.5746" lon="1.44187">
        <ele>159</ele>
        <time>2025-02-15T09:47:24Z</time>
      </trkpt>
      <trkpt lat="43.57458" lon="1.44184">
        <ele>159</ele>
        <time>2025-02-15T09:47:25Z</time>
      </trkpt>
      <trkpt lat="43.57458" lon="1.44184">
        <ele>159</ele>
        <time>2025-02-15T09:47:26Z</time>
      </trkpt>
      <trkpt lat="43.57455" lon="1.44181">
        <ele>159</ele>
        <time>2025-02-15T09:47:27Z</time>
      </trkpt>
      <trkpt lat="43.57453" lon="1.44178">
        <ele>160</ele>
        <time>2025-02-15T09:47:29Z</time>
      </trkpt>
      <trkpt lat="43.57453" lon="1.44178">
        <ele>160</ele>
        <time>2025-02-15T09:47:30Z</time>
      </trkpt>
      <trkpt lat="43.5745" lon="1.44176">
        <ele>160</ele>
        <time>2025-02-15T09:47:31Z</time>
      </trkpt>
      <trkpt lat="43.5745" lon="1.44176">
        <ele>161</ele>
        <time>2025-02-15T09:47:32Z</time>
      </trkpt>
      <trkpt lat="43.57447" lon="1.44174">
        <ele>161</ele>
        <time>2025-02-15T09:47:33Z</time>
      </trkpt>
      <trkpt lat="43.57447" lon="1.44174">
        <ele>161</ele>
        <time>2025-02-15T09:47:34Z</time>
      </trkpt>
      <trkpt lat="43.57444" lon="1.44172">
        <ele>161</ele>
        <time>2025-02-15T09:47:35Z</time>
      </trkpt>
      <trkpt lat="43.57444" lon="1.44172">
        <ele>161</ele>
        <time>2025-02-15T09:47:36Z</time>
      </trkpt>
      <trkpt lat="43.57442" lon="1.4417">
        <ele>161</ele>
        <time>2025-02-15T09:47:37Z</time>
      </trkpt>
      <trkpt lat="43.57442" lon="1.4417">
        <ele>161</ele>
        <time>2025-02-15T09:47:38Z</time>
      </trkpt>
      <trkpt lat="43.5744" lon="1.44167">
        <ele>161</ele>
        <time>2025-02-15T09:47:39Z</time>
      </trkpt>
      <trkpt lat="43.5744" lon="1.44167">
        <ele>162</ele>
        <time>2025-02-15T09:47:40Z</time>
      </trkpt>
      <trkpt lat="43.57437" lon="1.44165">
        <ele>162</ele>
        <time>2025-02-15T09:47:41Z</time>
      </trkpt>
      <trkpt lat="43.57437" lon="1.44165">
        <ele>163</ele>
        <time>2025-02-15T09:47:42Z</time>
      </trkpt>
      <trkpt lat="43.57434" lon="1.44164">
        <ele>163</ele>
        <time>2025-02-15T09:47:43Z</time>
      </trkpt>
      <trkpt lat="43.57434" lon="1.44164">
        <ele>163</ele>
        <time>2025-02-15T09:47:44Z</time>
      </trkpt>
      <trkpt lat="43.57431" lon="1.44163">
        <ele>163</ele>
        <time>2025-02-15T09:47:45Z</time>
      </trkpt>
      <trkpt lat="43.57431" lon="1.44163">
        <ele>164</ele>
        <time>2025-02-15T09:47:46Z</time>
      </trkpt>
      <trkpt lat="43.57429" lon="1.44161">
        <ele>164</ele>
        <time>2025-02-15T09:47:47Z</time>
      </trkpt>
      <trkpt lat="43.57427" lon="1.44158">
        <ele>164</ele>
        <time>2025-02-15T09:47:49Z</time>
      </trkpt>
      <trkpt lat="43.57427" lon="1.44158">
        <ele>164</ele>
        <time>2025-02-15T09:47:50Z</time>
      </trkpt>
      <trkpt lat="43.57426" lon="1.44156">
        <ele>165</ele>
        <time>2025-02-15T09:47:51Z</time>
      </trkpt>
      <trkpt lat="43.57425" lon="1.44153">
        <ele>166</ele>
        <time>2025-02-15T09:47:53Z</time>
      </trkpt>
      <trkpt lat="43.57424" lon="1.44151">
        <ele>167</ele>
        <time>2025-02-15T09:47:55Z</time>
      </trkpt>
      <trkpt lat="43.57424" lon="1.44151">
        <ele>167</ele>
        <time>2025-02-15T09:47:56Z</time>
      </trkpt>
      <trkpt lat="43.57423" lon="1.44148">
        <ele>167</ele>
        <time>2025-02-15T09:47:57Z</time>
      </trkpt>
      <trkpt lat="43.57423" lon="1.44148">
        <ele>167</ele>
        <time>2025-02-15T09:47:58Z</time>
      </trkpt>
      <trkpt lat="43.57421" lon="1.44146">
        <ele>167</ele>
        <time>2025-02-15T09:47:59Z</time>
      </trkpt>
      <trkpt lat="43.57421" lon="1.44146">
        <ele>167</ele>
        <time>2025-02-15T09:48:00Z</time>
      </trkpt>
      <trkpt lat="43.57418" lon="1.44143">
        <ele>167</ele>
        <time>2025-02-15T09:48:01Z</time>
      </trkpt>
      <trkpt lat="43.57418" lon="1.44143">
        <ele>167</ele>
        <time>2025-02-15T09:48:02Z</time>
      </trkpt>
      <trkpt lat="43.57417" lon="1.44141">
        <ele>167</ele>
        <time>2025-02-15T09:48:03Z</time>
      </trkpt>
      <trkpt lat="43.57417" lon="1.44141">
        <ele>168</ele>
        <time>2025-02-15T09:48:04Z</time>
      </trkpt>
      <trkpt lat="43.57415" lon="1.44138">
        <ele>168</ele>
        <time>2025-02-15T09:48:05Z</time>
      </trkpt>
      <trkpt lat="43.57415" lon="1.44138">
        <ele>168</ele>
        <time>2025-02-15T09:48:06Z</time>
      </trkpt>
      <trkpt lat="43.57413" lon="1.44135">
        <ele>168</ele>
        <time>2025-02-15T09:48:07Z</time>
      </trkpt>
      <trkpt lat="43.57413" lon="1.44135">
        <ele>169</ele>
        <time>2025-02-15T09:48:08Z</time>
      </trkpt>
      <trkpt lat="43.57411" lon="1.44132">
        <ele>169</ele>
        <time>2025-02-15T09:48:09Z</time>
      </trkpt>
      <trkpt lat="43.57411" lon="1.44132">
        <ele>170</ele>
        <time>2025-02-15T09:48:10Z</time>
      </trkpt>
      <trkpt lat="43.57408" lon="1.44129">
        <ele>170</ele>
        <time>2025-02-15T09:48:11Z</time>
      </trkpt>
      <trkpt lat="43.57408" lon="1.44129">
        <ele>171</ele>
        <time>2025-02-15T09:48:12Z</time>
      </trkpt>
      <trkpt lat="43.57406" lon="1.44127">
        <ele>171</ele>
        <time>2025-02-15T09:48:13Z</time>
      </trkpt>
      <trkpt lat="43.57406" lon="1.44127">
        <ele>172</ele>
        <time>2025-02-15T09:48:14Z</time>
      </trkpt>
      <trkpt lat="43.57403" lon="1.44125">
        <ele>172</ele>
        <time>2025-02-15T09:48:15Z</time>
      </trkpt>
      <trkpt lat="43.57403" lon="1.44125">
        <ele>172</ele>
        <time>2025-02-15T09:48:16Z</time>
      </trkpt>
      <trkpt lat="43.57401" lon="1.44123">
        <ele>172</ele>
        <time>2025-02-15T09:48:17Z</time>
      </trkpt>
      <trkpt lat="43.57399" lon="1.44121">
        <ele>173</ele>
        <time>2025-02-15T09:48:19Z</time>
      </trkpt>
      <trkpt lat="43.57397" lon="1.44118">
        <ele>173</ele>
        <time>2025-02-15T09:48:21Z</time>
      </trkpt>
      <trkpt lat="43.57397" lon="1.44118">
        <ele>173</ele>
        <time>2025-02-15T09:48:22Z</time>
      </trkpt>
      <trkpt lat="43.57395" lon="1.44113">
        <ele>173</ele>
        <time>2025-02-15T09:48:23Z</time>
      </trkpt>
      <trkpt lat="43.57395" lon="1.44113">
        <ele>174</ele>
        <time>2025-02-15T09:48:24Z</time>
      </trkpt>
      <trkpt lat="43.57392" lon="1.4411">
        <ele>174</ele>
        <time>2025-02-15T09:48:25Z</time>
      </trkpt>
      <trkpt lat="43.57392" lon="1.4411">
        <ele>174</ele>
        <time>2025-02-15T09:48:26Z</time>
      </trkpt>
      <trkpt lat="43.57388" lon="1.44107">
        <ele>174</ele>
        <time>2025-02-15T09:48:27Z</time>
      </trkpt>
      <trkpt lat="43.57387" lon="1.44107">
        <ele>174</ele>
        <time>2025-02-15T09:48:28Z</time>
      </trkpt>
      <trkpt lat="43.57385" lon="1.44106">
        <ele>175</ele>
        <time>2025-02-15T09:48:29Z</time>
      </trkpt>
      <trkpt lat="43.57383" lon="1.44106">
        <ele>175</ele>
        <time>2025-02-15T09:48:30Z</time>
      </trkpt>
      <trkpt lat="43.57383" lon="1.44106">
        <ele>175</ele>
        <time>2025-02-15T09:48:31Z</time>
      </trkpt>
      <trkpt lat="43.5738" lon="1.44105">
        <ele>175</ele>
        <time>2025-02-15T09:48:32Z</time>
      </trkpt>
      <trkpt lat="43.5738" lon="1.44105">
        <ele>175</ele>
        <time>2025-02-15T09:48:33Z</time>
      </trkpt>
      <trkpt lat="43.57377" lon="1.44106">
        <ele>175</ele>
        <time>2025-02-15T09:48:34Z</time>
      </trkpt>
      <trkpt lat="43.57377" lon="1.44106">
        <ele>175</ele>
        <time>2025-02-15T09:48:35Z</time>
      </trkpt>
      <trkpt lat="43.57375" lon="1.44107">
        <ele>175</ele>
        <time>2025-02-15T09:48:36Z</time>
      </trkpt>
      <trkpt lat="43.57372" lon="1.44108">
        <ele>176</ele>
        <time>2025-02-15T09:48:38Z</time>
      </trkpt>
      <trkpt lat="43.5737" lon="1.44109">
        <ele>176</ele>
        <time>2025-02-15T09:48:40Z</time>
      </trkpt>
      <trkpt lat="43.5737" lon="1.44109">
        <ele>176</ele>
        <time>2025-02-15T09:48:41Z</time>
      </trkpt>
      <trkpt lat="43.57368" lon="1.4411">
        <ele>177</ele>
        <time>2025-02-15T09:48:42Z</time>
      </trkpt>
      <trkpt lat="43.57368" lon="1.4411">
        <ele>177</ele>
        <time>2025-02-15T09:48:43Z</time>
      </trkpt>
      <trkpt lat="43.57365" lon="1.4411">
        <ele>177</ele>
        <time>2025-02-15T09:48:44Z</time>
      </trkpt>
      <trkpt lat="43.57365" lon="1.4411">
        <ele>177</ele>
        <time>2025-02-15T09:48:45Z</time>
      </trkpt>
      <trkpt lat="43.57362" lon="1.44111">
        <ele>177</ele>
        <time>2025-02-15T09:48:46Z</time>
      </trkpt>
      <trkpt lat="43.57362" lon="1.44111">
        <ele>177</ele>
        <time>2025-02-15T09:48:47Z</time>
      </trkpt>
      <trkpt lat="43.57359" lon="1.44112">
        <ele>178</ele>
        <time>2025-02-15T09:48:48Z</time>
      </trkpt>
      <trkpt lat="43.57356" lon="1.44113">
        <ele>178</ele>
        <time>2025-02-15T09:48:50Z</time>
      </trkpt>
      <trkpt lat="43.57356" lon="1.44113">
        <ele>179</ele>
        <time>2025-02-15T09:48:51Z</time>
      </trkpt>
      <trkpt lat="43.57354" lon="1.44114">
        <ele>179</ele>
        <time>2025-02-15T09:48:52Z</time>
      </trkpt>
      <trkpt lat="43.57354" lon="1.44114">
        <ele>178</ele>
        <time>2025-02-15T09:48:53Z</time>
      </trkpt>
      <trkpt lat="43.57351" lon="1.44115">
        <ele>178</ele>
        <time>2025-02-15T09:48:54Z</time>
      </trkpt>
      <trkpt lat="43.57351" lon="1.44115">
        <ele>178</ele>
        <time>2025-02-15T09:48:55Z</time>
      </trkpt>
      <trkpt lat="43.57348" lon="1.44116">
        <ele>178</ele>
        <time>2025-02-15T09:48:56Z</time>
      </trkpt>
      <trkpt lat="43.57348" lon="1.44116">
        <ele>179</ele>
        <time>2025-02-15T09:48:57Z</time>
      </trkpt>
      <trkpt lat="43.57345" lon="1.44118">
        <ele>179</ele>
        <time>2025-02-15T09:48:58Z</time>
      </trkpt>
      <trkpt lat="43.57343" lon="1.44118">
        <ele>179</ele>
        <time>2025-02-15T09:48:59Z</time>
      </trkpt>
      <trkpt lat="43.57341" lon="1.44119">
        <ele>179</ele>
        <time>2025-02-15T09:49:00Z</time>
      </trkpt>
      <trkpt lat="43.57339" lon="1.44121">
        <ele>179</ele>
        <time>2025-02-15T09:49:02Z</time>
      </trkpt>
      <trkpt lat="43.57338" lon="1.44123">
        <ele>180</ele>
        <time>2025-02-15T09:49:04Z</time>
      </trkpt>
      <trkpt lat="43.57338" lon="1.44123">
        <ele>180</ele>
        <time>2025-02-15T09:49:05Z</time>
      </trkpt>
      <trkpt lat="43.57335" lon="1.44125">
        <ele>180</ele>
        <time>2025-02-15T09:49:06Z</time>
      </trkpt>
      <trkpt lat="43.57335" lon="1.44125">
        <ele>180</ele>
        <time>2025-02-15T09:49:07Z</time>
      </trkpt>
      <trkpt lat="43.57334" lon="1.44127">
        <ele>180</ele>
        <time>2025-02-15T09:49:08Z</time>
      </trkpt>
      <trkpt lat="43.57334" lon="1.44127">
        <ele>181</ele>
        <time>2025-02-15T09:49:09Z</time>
      </trkpt>
      <trkpt lat="43.57331" lon="1.44129">
        <ele>181</ele>
        <time>2025-02-15T09:49:10Z</time>
      </trkpt>
      <trkpt lat="43.57331" lon="1.44129">
        <ele>181</ele>
        <time>2025-02-15T09:49:11Z</time>
      </trkpt>
      <trkpt lat="43.57329" lon="1.44131">
        <ele>181</ele>
        <time>2025-02-15T09:49:12Z</time>
      </trkpt>
      <trkpt lat="43.57329" lon="1.44131">
        <ele>182</ele>
        <time>2025-02-15T09:49:13Z</time>
      </trkpt>
      <trkpt lat="43.57327" lon="1.44132">
        <ele>182</ele>
        <time>2025-02-15T09:49:14Z</time>
      </trkpt>
      <trkpt lat="43.57325" lon="1.44133">
        <ele>183</ele>
        <time>2025-02-15T09:49:16Z</time>
      </trkpt>
      <trkpt lat="43.57322" lon="1.44134">
        <ele>184</ele>
        <time>2025-02-15T09:49:18Z</time>
      </trkpt>
      <trkpt lat="43.57322" lon="1.44134">
        <ele>185</ele>
        <time>2025-02-15T09:49:19Z</time>
      </trkpt>
      <trkpt lat="43.57319" lon="1.44135">
        <ele>185</ele>
        <time>2025-02-15T09:49:20Z</time>
      </trkpt>
      <trkpt lat="43.57319" lon="1.44135">
        <ele>185</ele>
        <time>2025-02-15T09:49:21Z</time>
      </trkpt>
      <trkpt lat="43.57317" lon="1.44136">
        <ele>185</ele>
        <time>2025-02-15T09:49:22Z</time>
      </trkpt>
      <trkpt lat="43.57317" lon="1.44136">
        <ele>185</ele>
        <time>2025-02-15T09:49:23Z</time>
      </trkpt>
      <trkpt lat="43.57315" lon="1.44138">
        <ele>185</ele>
        <time>2025-02-15T09:49:24Z</time>
      </trkpt>
      <trkpt lat="43.57315" lon="1.44138">
        <ele>185</ele>
        <time>2025-02-15T09:49:25Z</time>
      </trkpt>
      <trkpt lat="43.57313" lon="1.44139">
        <ele>185</ele>
        <time>2025-02-15T09:49:26Z</time>
      </trkpt>
      <trkpt lat="43.57313" lon="1.44139">
        <ele>185</ele>
        <time>2025-02-15T09:49:27Z</time>
      </trkpt>
      <trkpt lat="43.5731" lon="1.4414">
        <ele>186</ele>
        <time>2025-02-15T09:49:28Z</time>
      </trkpt>
      <trkpt lat="43.57307" lon="1.44141">
        <ele>186</ele>
        <time>2025-02-15T09:49:30Z</time>
      </trkpt>
      <trkpt lat="43.57305" lon="1.44142">
        <ele>186</ele>
        <time>2025-02-15T09:49:31Z</time>
      </trkpt>
      <trkpt lat="43.57305" lon="1.44142">
        <ele>186</ele>
        <time>2025-02-15T09:49:32Z</time>
      </trkpt>
      <trkpt lat="43.57302" lon="1.44143">
        <ele>186</ele>
        <time>2025-02-15T09:49:33Z</time>
      </trkpt>
      <trkpt lat="43.57302" lon="1.44143">
        <ele>187</ele>
        <time>2025-02-15T09:49:34Z</time>
      </trkpt>
      <trkpt lat="43.57299" lon="1.44143">
        <ele>187</ele>
        <time>2025-02-15T09:49:35Z</time>
      </trkpt>
      <trkpt lat="43.57295" lon="1.44143">
        <ele>187</ele>
        <time>2025-02-15T09:49:37Z</time>
      </trkpt>
      <trkpt lat="43.57292" lon="1.44143">
        <ele>187</ele>
        <time>2025-02-15T09:49:39Z</time>
      </trkpt>
      <trkpt lat="43.57292" lon="1.44143">
        <ele>188</ele>
        <time>2025-02-15T09:49:40Z</time>
      </trkpt>
      <trkpt lat="43.5729" lon="1.44142">
        <ele>188</ele>
        <time>2025-02-15T09:49:41Z</time>
      </trkpt>
      <trkpt lat="43.57287" lon="1.44143">
        <ele>189</ele>
        <time>2025-02-15T09:49:43Z</time>
      </trkpt>
      <trkpt lat="43.57287" lon="1.44143">
        <ele>189</ele>
        <time>2025-02-15T09:49:44Z</time>
      </trkpt>
      <trkpt lat="43.57285" lon="1.44143">
        <ele>189</ele>
        <time>2025-02-15T09:49:45Z</time>
      </trkpt>
      <trkpt lat="43.57285" lon="1.44143">
        <ele>189</ele>
        <time>2025-02-15T09:49:46Z</time>
      </trkpt>
      <trkpt lat="43.57282" lon="1.44144">
        <ele>190</ele>
        <time>2025-02-15T09:49:47Z</time>
      </trkpt>
      <trkpt lat="43.57279" lon="1.44144">
        <ele>190</ele>
        <time>2025-02-15T09:49:49Z</time>
      </trkpt>
      <trkpt lat="43.57276" lon="1.44145">
        <ele>191</ele>
        <time>2025-02-15T09:49:51Z</time>
      </trkpt>
      <trkpt lat="43.57275" lon="1.44145">
        <ele>191</ele>
        <time>2025-02-15T09:49:52Z</time>
      </trkpt>
      <trkpt lat="43.57275" lon="1.44145">
        <ele>191</ele>
        <time>2025-02-15T09:49:53Z</time>
      </trkpt>
      <trkpt lat="43.57271" lon="1.44146">
        <ele>191</ele>
        <time>2025-02-15T09:49:54Z</time>
      </trkpt>
      <trkpt lat="43.57268" lon="1.44147">
        <ele>191</ele>
        <time>2025-02-15T09:49:56Z</time>
      </trkpt>
      <trkpt lat="43.57268" lon="1.44147">
        <ele>190</ele>
        <time>2025-02-15T09:49:57Z</time>
      </trkpt>
      <trkpt lat="43.57264" lon="1.44147">
        <ele>190</ele>
        <time>2025-02-15T09:49:58Z</time>
      </trkpt>
      <trkpt lat="43.57264" lon="1.44147">
        <ele>190</ele>
        <time>2025-02-15T09:49:59Z</time>
      </trkpt>
      <trkpt lat="43.57261" lon="1.44149">
        <ele>190</ele>
        <time>2025-02-15T09:50:00Z</time>
      </trkpt>
      <trkpt lat="43.57259" lon="1.44149">
        <ele>190</ele>
        <time>2025-02-15T09:50:01Z</time>
      </trkpt>
      <trkpt lat="43.57259" lon="1.44149">
        <ele>191</ele>
        <time>2025-02-15T09:50:02Z</time>
      </trkpt>
      <trkpt lat="43.57256" lon="1.44149">
        <ele>191</ele>
        <time>2025-02-15T09:50:03Z</time>
      </trkpt>
      <trkpt lat="43.57254" lon="1.44149">
        <ele>191</ele>
        <time>2025-02-15T09:50:04Z</time>
      </trkpt>
      <trkpt lat="43.57251" lon="1.44148">
        <ele>191</ele>
        <time>2025-02-15T09:50:06Z</time>
      </trkpt>
      <trkpt lat="43.57248" lon="1.44147">
        <ele>191</ele>
        <time>2025-02-15T09:50:08Z</time>
      </trkpt>
      <trkpt lat="43.57248" lon="1.44147">
        <ele>191</ele>
        <time>2025-02-15T09:50:09Z</time>
      </trkpt>
      <trkpt lat="43.57245" lon="1.44147">
        <ele>191</ele>
        <time>2025-02-15T09:50:10Z</time>
      </trkpt>
      <trkpt lat="43.57245" lon="1.44147">
        <ele>191</ele>
        <time>2025-02-15T09:50:11Z</time>
      </trkpt>
      <trkpt lat="43.57242" lon="1.44146">
        <ele>191</ele>
        <time>2025-02-15T09:50:12Z</time>
      </trkpt>
      <trkpt lat="43.57242" lon="1.44146">
        <ele>192</ele>
        <time>2025-02-15T09:50:13Z</time>
      </trkpt>
      <trkpt lat="43.57239" lon="1.44147">
        <ele>192</ele>
        <time>2025-02-15T09:50:14Z</time>
      </trkpt>
      <trkpt lat="43.57239" lon="1.44147">
        <ele>192</ele>
        <time>2025-02-15T09:50:15Z</time>
      </trkpt>
      <trkpt lat="43.57236" lon="1.44147">
        <ele>192</ele>
        <time>2025-02-15T09:50:16Z</time>
      </trkpt>
      <trkpt lat="43.57236" lon="1.44147">
        <ele>192</ele>
        <time>2025-02-15T09:50:17Z</time>
      </trkpt>
      <trkpt lat="43.57234" lon="1.44146">
        <ele>192</ele>
        <time>2025-02-15T09:50:18Z</time>
      </trkpt>
      <trkpt lat="43.57231" lon="1.44145">
        <ele>192</ele>
        <time>2025-02-15T09:50:20Z</time>
      </trkpt>
      <trkpt lat="43.57231" lon="1.44145">
        <ele>192</ele>
        <time>2025-02-15T09:50:21Z</time>
      </trkpt>
      <trkpt lat="43.57228" lon="1.44144">
        <ele>192</ele>
        <time>2025-02-15T09:50:22Z</time>
      </trkpt>
      <trkpt lat="43.57226" lon="1.44144">
        <ele>193</ele>
        <time>2025-02-15T09:50:23Z</time>
      </trkpt>
      <trkpt lat="43.57224" lon="1.44143">
        <ele>193</ele>
        <time>2025-02-15T09:50:24Z</time>
      </trkpt>
      <trkpt lat="43.57224" lon="1.44143">
        <ele>193</ele>
        <time>2025-02-15T09:50:25Z</time>
      </trkpt>
      <trkpt lat="43.5722" lon="1.44143">
        <ele>193</ele>
        <time>2025-02-15T09:50:26Z</time>
      </trkpt>
      <trkpt lat="43.5722" lon="1.44143">
        <ele>193</ele>
        <time>2025-02-15T09:50:27Z</time>
      </trkpt>
      <trkpt lat="43.57217" lon="1.44144">
        <ele>193</ele>
        <time>2025-02-15T09:50:28Z</time>
      </trkpt>
      <trkpt lat="43.57214" lon="1.44145">
        <ele>193</ele>
        <time>2025-02-15T09:50:30Z</time>
      </trkpt>
      <trkpt lat="43.57211" lon="1.44146">
        <ele>194</ele>
        <time>2025-02-15T09:50:32Z</time>
      </trkpt>
      <trkpt lat="43.57211" lon="1.44146">
        <ele>194</ele>
        <time>2025-02-15T09:50:33Z</time>
      </trkpt>
      <trkpt lat="43.57207" lon="1.44147">
        <ele>194</ele>
        <time>2025-02-15T09:50:34Z</time>
      </trkpt>
      <trkpt lat="43.57205" lon="1.44147">
        <ele>195</ele>
        <time>2025-02-15T09:50:35Z</time>
      </trkpt>
      <trkpt lat="43.57205" lon="1.44147">
        <ele>195</ele>
        <time>2025-02-15T09:50:36Z</time>
      </trkpt>
      <trkpt lat="43.57202" lon="1.44148">
        <ele>195</ele>
        <time>2025-02-15T09:50:37Z</time>
      </trkpt>
      <trkpt lat="43.57202" lon="1.44148">
        <ele>195</ele>
        <time>2025-02-15T09:50:38Z</time>
      </trkpt>
      <trkpt lat="43.572" lon="1.44148">
        <ele>195</ele>
        <time>2025-02-15T09:50:39Z</time>
      </trkpt>
      <trkpt lat="43.572" lon="1.44148">
        <ele>194</ele>
        <time>2025-02-15T09:50:40Z</time>
      </trkpt>
      <trkpt lat="43.57197" lon="1.44148">
        <ele>194</ele>
        <time>2025-02-15T09:50:41Z</time>
      </trkpt>
      <trkpt lat="43.57197" lon="1.44148">
        <ele>194</ele>
        <time>2025-02-15T09:50:42Z</time>
      </trkpt>
      <trkpt lat="43.57194" lon="1.4415">
        <ele>194</ele>
        <time>2025-02-15T09:50:43Z</time>
      </trkpt>
      <trkpt lat="43.57194" lon="1.4415">
        <ele>195</ele>
        <time>2025-02-15T09:50:44Z</time>
      </trkpt>
      <trkpt lat="43.57191" lon="1.4415">
        <ele>196</ele>
        <time>2025-02-15T09:50:45Z</time>
      </trkpt>
      <trkpt lat="43.57191" lon="1.4415">
        <ele>196</ele>
        <time>2025-02-15T09:50:46Z</time>
      </trkpt>
      <trkpt lat="43.57188" lon="1.44151">
        <ele>196</ele>
        <time>2025-02-15T09:50:47Z</time>
      </trkpt>
      <trkpt lat="43.57185" lon="1.44151">
        <ele>196</ele>
        <time>2025-02-15T09:50:49Z</time>
      </trkpt>
      <trkpt lat="43.57182" lon="1.44152">
        <ele>196</ele>
        <time>2025-02-15T09:50:51Z</time>
      </trkpt>
      <trkpt lat="43.57182" lon="1.44152">
        <ele>195</ele>
        <time>2025-02-15T09:50:52Z</time>
      </trkpt>
      <trkpt lat="43.5718" lon="1.44153">
        <ele>195</ele>
        <time>2025-02-15T09:50:53Z</time>
      </trkpt>
      <trkpt lat="43.5718" lon="1.44153">
        <ele>196</ele>
        <time>2025-02-15T09:50:54Z</time>
      </trkpt>
      <trkpt lat="43.57177" lon="1.44154">
        <ele>196</ele>
        <time>2025-02-15T09:50:55Z</time>
      </trkpt>
      <trkpt lat="43.57177" lon="1.44154">
        <ele>196</ele>
        <time>2025-02-15T09:50:56Z</time>
      </trkpt>
      <trkpt lat="43.57174" lon="1.44153">
        <ele>196</ele>
        <time>2025-02-15T09:50:57Z</time>
      </trkpt>
      <trkpt lat="43.57174" lon="1.44153">
        <ele>196</ele>
        <time>2025-02-15T09:50:58Z</time>
      </trkpt>
      <trkpt lat="43.57171" lon="1.44153">
        <ele>196</ele>
        <time>2025-02-15T09:50:59Z</time>
      </trkpt>
      <trkpt lat="43.57171" lon="1.44153">
        <ele>196</ele>
        <time>2025-02-15T09:51:00Z</time>
      </trkpt>
      <trkpt lat="43.57168" lon="1.44153">
        <ele>197</ele>
        <time>2025-02-15T09:51:01Z</time>
      </trkpt>
      <trkpt lat="43.57165" lon="1.44153">
        <ele>197</ele>
        <time>2025-02-15T09:51:03Z</time>
      </trkpt>
      <trkpt lat="43.57165" lon="1.44153">
        <ele>197</ele>
        <time>2025-02-15T09:51:04Z</time>
      </trkpt>
      <trkpt lat="43.57161" lon="1.44152">
        <ele>197</ele>
        <time>2025-02-15T09:51:05Z</time>
      </trkpt>
      <trkpt lat="43.57161" lon="1.44152">
        <ele>198</ele>
        <time>2025-02-15T09:51:06Z</time>
      </trkpt>
      <trkpt lat="43.57158" lon="1.44152">
        <ele>198</ele>
        <time>2025-02-15T09:51:07Z</time>
      </trkpt>
      <trkpt lat="43.57158" lon="1.44152">
        <ele>198</ele>
        <time>2025-02-15T09:51:08Z</time>
      </trkpt>
      <trkpt lat="43.57154" lon="1.44152">
        <ele>198</ele>
        <time>2025-02-15T09:51:09Z</time>
      </trkpt>
      <trkpt lat="43.57153" lon="1.44152">
        <ele>199</ele>
        <time>2025-02-15T09:51:10Z</time>
      </trkpt>
      <trkpt lat="43.57153" lon="1.44152">
        <ele>199</ele>
        <time>2025-02-15T09:51:11Z</time>
      </trkpt>
      <trkpt lat="43.5715" lon="1.44152">
        <ele>199</ele>
        <time>2025-02-15T09:51:12Z</time>
      </trkpt>
      <trkpt lat="43.5715" lon="1.44152">
        <ele>199</ele>
        <time>2025-02-15T09:51:13Z</time>
      </trkpt>
      <trkpt lat="43.57147" lon="1.44153">
        <ele>199</ele>
        <time>2025-02-15T09:51:14Z</time>
      </trkpt>
      <trkpt lat="43.57147" lon="1.44153">
        <ele>200</ele>
        <time>2025-02-15T09:51:15Z</time>
      </trkpt>
      <trkpt lat="43.57145" lon="1.44155">
        <ele>200</ele>
        <time>2025-02-15T09:51:16Z</time>
      </trkpt>
      <trkpt lat="43.57145" lon="1.44155">
        <ele>201</ele>
        <time>2025-02-15T09:51:17Z</time>
      </trkpt>
      <trkpt lat="43.57142" lon="1.44157">
        <ele>201</ele>
        <time>2025-02-15T09:51:18Z</time>
      </trkpt>
      <trkpt lat="43.57142" lon="1.44157">
        <ele>201</ele>
        <time>2025-02-15T09:51:19Z</time>
      </trkpt>
      <trkpt lat="43.57139" lon="1.44158">
        <ele>201</ele>
        <time>2025-02-15T09:51:20Z</time>
      </trkpt>
      <trkpt lat="43.57139" lon="1.44158">
        <ele>201</ele>
        <time>2025-02-15T09:51:21Z</time>
      </trkpt>
      <trkpt lat="43.57136" lon="1.44159">
        <ele>202</ele>
        <time>2025-02-15T09:51:22Z</time>
      </trkpt>
      <trkpt lat="43.57133" lon="1.44162">
        <ele>203</ele>
        <time>2025-02-15T09:51:24Z</time>
      </trkpt>
      <trkpt lat="43.57131" lon="1.44163">
        <ele>203</ele>
        <time>2025-02-15T09:51:25Z</time>
      </trkpt>
      <trkpt lat="43.57131" lon="1.44163">
        <ele>203</ele>
        <time>2025-02-15T09:51:26Z</time>
      </trkpt>
      <trkpt lat="43.57128" lon="1.44163">
        <ele>203</ele>
        <time>2025-02-15T09:51:27Z</time>
      </trkpt>
      <trkpt lat="43.57126" lon="1.44163">
        <ele>203</ele>
        <time>2025-02-15T09:51:28Z</time>
      </trkpt>
      <trkpt lat="43.57126" lon="1.44163">
        <ele>203</ele>
        <time>2025-02-15T09:51:29Z</time>
      </trkpt>
      <trkpt lat="43.57122" lon="1.44163">
        <ele>203</ele>
        <time>2025-02-15T09:51:30Z</time>
      </trkpt>
      <trkpt lat="43.57122" lon="1.44163">
        <ele>204</ele>
        <time>2025-02-15T09:51:31Z</time>
      </trkpt>
      <trkpt lat="43.57119" lon="1.44164">
        <ele>204</ele>
        <time>2025-02-15T09:51:32Z</time>
      </trkpt>
      <trkpt lat="43.57119" lon="1.44164">
        <ele>204</ele>
        <time>2025-02-15T09:51:33Z</time>
      </trkpt>
      <trkpt lat="43.57116" lon="1.44165">
        <ele>204</ele>
        <time>2025-02-15T09:51:34Z</time>
      </trkpt>
      <trkpt lat="43.57116" lon="1.44165">
        <ele>205</ele>
        <time>2025-02-15T09:51:35Z</time>
      </trkpt>
      <trkpt lat="43.57113" lon="1.44167">
        <ele>205</ele>
        <time>2025-02-15T09:51:36Z</time>
      </trkpt>
      <trkpt lat="43.57113" lon="1.44167">
        <ele>206</ele>
        <time>2025-02-15T09:51:37Z</time>
      </trkpt>
      <trkpt lat="43.5711" lon="1.44168">
        <ele>206</ele>
        <time>2025-02-15T09:51:38Z</time>
      </trkpt>
      <trkpt lat="43.5711" lon="1.44168">
        <ele>206</ele>
        <time>2025-02-15T09:51:39Z</time>
      </trkpt>
      <trkpt lat="43.57107" lon="1.44168">
        <ele>206</ele>
        <time>2025-02-15T09:51:40Z</time>
      </trkpt>
      <trkpt lat="43.57107" lon="1.44168">
        <ele>206</ele>
        <time>2025-02-15T09:51:41Z</time>
      </trkpt>
      <trkpt lat="43.57104" lon="1.44168">
        <ele>206</ele>
        <time>2025-02-15T09:51:42Z</time>
      </trkpt>
      <trkpt lat="43.57104" lon="1.44168">
        <ele>206</ele>
        <time>2025-02-15T09:51:43Z</time>
      </trkpt>
      <trkpt lat="43.57104" lon="1.44168">
        <ele>206</ele>
        <time>2025-02-15T09:51:44Z</time>
      </trkpt>
      <trkpt lat="43.57104" lon="1.44168">
        <ele>206</ele>
        <time>2025-02-15T09:51:45Z</time>
      </trkpt>
      <trkpt lat="43.57101" lon="1.44169">
        <ele>206</ele>
        <time>2025-02-15T09:51:46Z</time>
      </trkpt>
      <trkpt lat="43.57099" lon="1.4417">
        <ele>206</ele>
        <time>2025-02-15T09:51:47Z</time>
      </trkpt>
      <trkpt lat="43.57099" lon="1.4417">
        <ele>206</ele>
        <time>2025-02-15T09:51:48Z</time>
      </trkpt>
      <trkpt lat="43.57095" lon="1.4417">
        <ele>206</ele>
        <time>2025-02-15T09:51:49Z</time>
      </trkpt>
      <trkpt lat="43.57095" lon="1.4417">
        <ele>207</ele>
        <time>2025-02-15T09:51:50Z</time>
      </trkpt>
      <trkpt lat="43.57092" lon="1.4417">
        <ele>207</ele>
        <time>2025-02-15T09:51:51Z</time>
      </trkpt>
      <trkpt lat="43.57092" lon="1.4417">
        <ele>207</ele>
        <time>2025-02-15T09:51:52Z</time>
      </trkpt>
      <trkpt lat="43.57089" lon="1.44171">
        <ele>207</ele>
        <time>2025-02-15T09:51:53Z</time>
      </trkpt>
      <trkpt lat="43.57086" lon="1.44173">
        <ele>207</ele>
        <time>2025-02-15T09:51:55Z</time>
      </trkpt>
      <trkpt lat="43.57086" lon="1.44173">
        <ele>207</ele>
        <time>2025-02-15T09:51:56Z</time>
      </trkpt>
      <trkpt lat="43.57086" lon="1.44173">
        <ele>207</ele>
        <time>2025-02-15T09:51:57Z</time>
      </trkpt>
      <trkpt lat="43.57086" lon="1.44173">
        <ele>208</ele>
        <time>2025-02-15T09:51:58Z</time>
      </trkpt>
      <trkpt lat="43.57083" lon="1.44174">
        <ele>208</ele>
        <time>2025-02-15T09:51:59Z</time>
      </trkpt>
      <trkpt lat="43.57081" lon="1.44175">
        <ele>209</ele>
        <time>2025-02-15T09:52:00Z</time>
      </trkpt>
      <trkpt lat="43.57079" lon="1.44175">
        <ele>209</ele>
        <time>2025-02-15T09:52:01Z</time>
      </trkpt>
      <trkpt lat="43.57079" lon="1.44175">
        <ele>209</ele>
        <time>2025-02-15T09:52:02Z</time>
      </trkpt>
      <trkpt lat="43.57076" lon="1.44177">
        <ele>209</ele>
        <time>2025-02-15T09:52:03Z</time>
      </trkpt>
      <trkpt lat="43.57076" lon="1.44177">
        <ele>209</ele>
        <time>2025-02-15T09:52:04Z</time>
      </trkpt>
      <trkpt lat="43.57073" lon="1.44177">
        <ele>209</ele>
        <time>2025-02-15T09:52:05Z</time>
      </trkpt>
      <trkpt lat="43.57073" lon="1.44177">
        <ele>209</ele>
        <time>2025-02-15T09:52:06Z</time>
      </trkpt>
      <trkpt lat="43.5707" lon="1.44179">
        <ele>209</ele>
        <time>2025-02-15T09:52:07Z</time>
      </trkpt>
      <trkpt lat="43.5707" lon="1.44179">
        <ele>210</ele>
        <time>2025-02-15T09:52:08Z</time>
      </trkpt>
      <trkpt lat="43.57067" lon="1.44181">
        <ele>210</ele>
        <time>2025-02-15T09:52:09Z</time>
      </trkpt>
      <trkpt lat="43.57067" lon="1.44181">
        <ele>210</ele>
        <time>2025-02-15T09:52:10Z</time>
      </trkpt>
      <trkpt lat="43.57064" lon="1.44183">
        <ele>211</ele>
        <time>2025-02-15T09:52:11Z</time>
      </trkpt>
      <trkpt lat="43.57061" lon="1.44185">
        <ele>211</ele>
        <time>2025-02-15T09:52:13Z</time>
      </trkpt>
      <trkpt lat="43.57058" lon="1.44187">
        <ele>211</ele>
        <time>2025-02-15T09:52:15Z</time>
      </trkpt>
      <trkpt lat="43.57058" lon="1.44187">
        <ele>211</ele>
        <time>2025-02-15T09:52:16Z</time>
      </trkpt>
      <trkpt lat="43.57055" lon="1.44188">
        <ele>211</ele>
        <time>2025-02-15T09:52:17Z</time>
      </trkpt>
      <trkpt lat="43.57055" lon="1.44188">
        <ele>212</ele>
        <time>2025-02-15T09:52:18Z</time>
      </trkpt>
      <trkpt lat="43.57052" lon="1.4419">
        <ele>212</ele>
        <time>2025-02-15T09:52:19Z</time>
      </trkpt>
      <trkpt lat="43.57052" lon="1.4419">
        <ele>212</ele>
        <time>2025-02-15T09:52:20Z</time>
      </trkpt>
      <trkpt lat="43.57049" lon="1.44191">
        <ele>212</ele>
        <time>2025-02-15T09:52:21Z</time>
      </trkpt>
      <trkpt lat="43.57049" lon="1.44191">
        <ele>212</ele>
        <time>2025-02-15T09:52:22Z</time>
      </trkpt>
      <trkpt lat="43.57047" lon="1.44194">
        <ele>212</ele>
        <time>2025-02-15T09:52:23Z</time>
      </trkpt>
      <trkpt lat="43.57045" lon="1.44195">
        <ele>212</ele>
        <time>2025-02-15T09:52:24Z</time>
      </trkpt>
      <trkpt lat="43.57043" lon="1.44196">
        <ele>212</ele>
        <time>2025-02-15T09:52:25Z</time>
      </trkpt>
      <trkpt lat="43.5704" lon="1.44197">
        <ele>212</ele>
        <time>2025-02-15T09:52:27Z</time>
      </trkpt>
      <trkpt lat="43.5704" lon="1.44197">
        <ele>212</ele>
        <time>2025-02-15T09:52:28Z</time>
      </trkpt>
      <trkpt lat="43.57037" lon="1.44198">
        <ele>212</ele>
        <time>2025-02-15T09:52:29Z</time>
      </trkpt>
      <trkpt lat="43.57037" lon="1.44198">
        <ele>212</ele>
        <time>2025-02-15T09:52:30Z</time>
      </trkpt>
      <trkpt lat="43.57037" lon="1.44198">
        <ele>212</ele>
        <time>2025-02-15T09:52:31Z</time>
      </trkpt>
      <trkpt lat="43.57035" lon="1.44197">
        <ele>213</ele>
        <time>2025-02-15T09:52:32Z</time>
      </trkpt>
      <trkpt lat="43.57032" lon="1.44197">
        <ele>214</ele>
        <time>2025-02-15T09:52:34Z</time>
      </trkpt>
      <trkpt lat="43.57032" lon="1.44197">
        <ele>214</ele>
        <time>2025-02-15T09:52:35Z</time>
      </trkpt>
      <trkpt lat="43.57029" lon="1.44198">
        <ele>214</ele>
        <time>2025-02-15T09:52:36Z</time>
      </trkpt>
      <trkpt lat="43.57027" lon="1.44198">
        <ele>214</ele>
        <time>2025-02-15T09:52:37Z</time>
      </trkpt>
      <trkpt lat="43.57025" lon="1.44198">
        <ele>214</ele>
        <time>2025-02-15T09:52:38Z</time>
      </trkpt>
      <trkpt lat="43.57023" lon="1.44199">
        <ele>214</ele>
        <time>2025-02-15T09:52:39Z</time>
      </trkpt>
      <trkpt lat="43.57022" lon="1.44199">
        <ele>214</ele>
        <time>2025-02-15T09:52:40Z</time>
      </trkpt>
      <trkpt lat="43.5702" lon="1.44199">
        <ele>215</ele>
        <time>2025-02-15T09:52:41Z</time>
      </trkpt>
      <trkpt lat="43.57018" lon="1.44199">
        <ele>215</ele>
        <time>2025-02-15T09:52:42Z</time>
      </trkpt>
      <trkpt lat="43.57016" lon="1.44199">
        <ele>215</ele>
        <time>2025-02-15T09:52:43Z</time>
      </trkpt>
      <trkpt lat="43.57016" lon="1.44199">
        <ele>215</ele>
        <time>2025-02-15T09:52:44Z</time>
      </trkpt>
      <trkpt lat="43.57011" lon="1.44199">
        <ele>215</ele>
        <time>2025-02-15T09:52:45Z</time>
      </trkpt>
      <trkpt lat="43.5701" lon="1.44199">
        <ele>216</ele>
        <time>2025-02-15T09:52:46Z</time>
      </trkpt>
      <trkpt lat="43.57008" lon="1.44199">
        <ele>216</ele>
        <time>2025-02-15T09:52:47Z</time>
      </trkpt>
      <trkpt lat="43.57006" lon="1.44199">
        <ele>216</ele>
        <time>2025-02-15T09:52:48Z</time>
      </trkpt>
      <trkpt lat="43.57004" lon="1.44199">
        <ele>216</ele>
        <time>2025-02-15T09:52:49Z</time>
      </trkpt>
      <trkpt lat="43.57001" lon="1.44199">
        <ele>216</ele>
        <time>2025-02-15T09:52:51Z</time>
      </trkpt>
      <trkpt lat="43.56998" lon="1.44199">
        <ele>216</ele>
        <time>2025-02-15T09:52:53Z</time>
      </trkpt>
      <trkpt lat="43.56995" lon="1.44199">
        <ele>216</ele>
        <time>2025-02-15T09:52:55Z</time>
      </trkpt>
      <trkpt lat="43.56991" lon="1.44199">
        <ele>218</ele>
        <time>2025-02-15T09:52:57Z</time>
      </trkpt>
      <trkpt lat="43.56991" lon="1.44199">
        <ele>218</ele>
        <time>2025-02-15T09:52:58Z</time>
      </trkpt>
      <trkpt lat="43.56988" lon="1.44198">
        <ele>218</ele>
        <time>2025-02-15T09:52:59Z</time>
      </trkpt>
      <trkpt lat="43.56988" lon="1.44198">
        <ele>218</ele>
        <time>2025-02-15T09:53:00Z</time>
      </trkpt>
      <trkpt lat="43.56985" lon="1.44198">
        <ele>218</ele>
        <time>2025-02-15T09:53:01Z</time>
      </trkpt>
      <trkpt lat="43.56985" lon="1.44198">
        <ele>218</ele>
        <time>2025-02-15T09:53:02Z</time>
      </trkpt>
      <trkpt lat="43.56982" lon="1.44199">
        <ele>218</ele>
        <time>2025-02-15T09:53:03Z</time>
      </trkpt>
      <trkpt lat="43.56982" lon="1.44199">
        <ele>218</ele>
        <time>2025-02-15T09:53:04Z</time>
      </trkpt>
      <trkpt lat="43.56979" lon="1.442">
        <ele>218</ele>
        <time>2025-02-15T09:53:05Z</time>
      </trkpt>
      <trkpt lat="43.56979" lon="1.442">
        <ele>218</ele>
        <time>2025-02-15T09:53:06Z</time>
      </trkpt>
      <trkpt lat="43.56976" lon="1.442">
        <ele>218</ele>
        <time>2025-02-15T09:53:07Z</time>
      </trkpt>
      <trkpt lat="43.56976" lon="1.442">
        <ele>218</ele>
        <time>2025-02-15T09:53:08Z</time>
      </trkpt>
      <trkpt lat="43.56973" lon="1.44201">
        <ele>218</ele>
        <time>2025-02-15T09:53:09Z</time>
      </trkpt>
      <trkpt lat="43.56973" lon="1.44201">
        <ele>218</ele>
        <time>2025-02-15T09:53:10Z</time>
      </trkpt>
      <trkpt lat="43.5697" lon="1.44202">
        <ele>218</ele>
        <time>2025-02-15T09:53:11Z</time>
      </trkpt>
      <trkpt lat="43.5697" lon="1.44202">
        <ele>218</ele>
        <time>2025-02-15T09:53:12Z</time>
      </trkpt>
      <trkpt lat="43.56967" lon="1.44203">
        <ele>219</ele>
        <time>2025-02-15T09:53:13Z</time>
      </trkpt>
      <trkpt lat="43.56967" lon="1.44203">
        <ele>219</ele>
        <time>2025-02-15T09:53:14Z</time>
      </trkpt>
      <trkpt lat="43.56964" lon="1.44203">
        <ele>219</ele>
        <time>2025-02-15T09:53:15Z</time>
      </trkpt>
      <trkpt lat="43.56964" lon="1.44203">
        <ele>219</ele>
        <time>2025-02-15T09:53:16Z</time>
      </trkpt>
      <trkpt lat="43.56961" lon="1.44203">
        <ele>219</ele>
        <time>2025-02-15T09:53:17Z</time>
      </trkpt>
      <trkpt lat="43.56961" lon="1.44203">
        <ele>219</ele>
        <time>2025-02-15T09:53:18Z</time>
      </trkpt>
      <trkpt lat="43.56958" lon="1.44204">
        <ele>219</ele>
        <time>2025-02-15T09:53:19Z</time>
      </trkpt>
      <trkpt lat="43.56958" lon="1.44204">
        <ele>220</ele>
        <time>2025-02-15T09:53:20Z</time>
      </trkpt>
      <trkpt lat="43.56954" lon="1.44204">
        <ele>220</ele>
        <time>2025-02-15T09:53:21Z</time>
      </trkpt>
      <trkpt lat="43.56952" lon="1.44204">
        <ele>220</ele>
        <time>2025-02-15T09:53:22Z</time>
      </trkpt>
      <trkpt lat="43.56952" lon="1.44204">
        <ele>220</ele>
        <time>2025-02-15T09:53:23Z</time>
      </trkpt>
      <trkpt lat="43.56949" lon="1.44204">
        <ele>220</ele>
        <time>2025-02-15T09:53:24Z</time>
      </trkpt>
      <trkpt lat="43.56949" lon="1.44204">
        <ele>220</ele>
        <time>2025-02-15T09:53:25Z</time>
      </trkpt>
      <trkpt lat="43.56946" lon="1.44203">
        <ele>220</ele>
        <time>2025-02-15T09:53:26Z</time>
      </trkpt>
      <trkpt lat="43.56946" lon="1.44203">
        <ele>220</ele>
        <time>2025-02-15T09:53:27Z</time>
      </trkpt>
      <trkpt lat="43.56943" lon="1.44203">
        <ele>220</ele>
        <time>2025-02-15T09:53:28Z</time>
      </trkpt>
      <trkpt lat="43.56943" lon="1.44203">
        <ele>221</ele>
        <time>2025-02-15T09:53:29Z</time>
      </trkpt>
      <trkpt lat="43.5694" lon="1.44204">
        <ele>221</ele>
        <time>2025-02-15T09:53:30Z</time>
      </trkpt>
      <trkpt lat="43.5694" lon="1.44204">
        <ele>222</ele>
        <time>2025-02-15T09:53:31Z</time>
      </trkpt>
      <trkpt lat="43.56937" lon="1.44204">
        <ele>222</ele>
        <time>2025-02-15T09:53:32Z</time>
      </trkpt>
      <trkpt lat="43.56937" lon="1.44204">
        <ele>221</ele>
        <time>2025-02-15T09:53:33Z</time>
      </trkpt>
      <trkpt lat="43.56934" lon="1.44204">
        <ele>221</ele>
        <time>2025-02-15T09:53:34Z</time>
      </trkpt>
      <trkpt lat="43.56934" lon="1.44204">
        <ele>221</ele>
        <time>2025-02-15T09:53:35Z</time>
      </trkpt>
      <trkpt lat="43.5693" lon="1.44204">
        <ele>222</ele>
        <time>2025-02-15T09:53:36Z</time>
      </trkpt>
      <trkpt lat="43.56927" lon="1.44205">
        <ele>222</ele>
        <time>2025-02-15T09:53:38Z</time>
      </trkpt>
      <trkpt lat="43.56927" lon="1.44205">
        <ele>222</ele>
        <time>2025-02-15T09:53:39Z</time>
      </trkpt>
      <trkpt lat="43.56924" lon="1.44205">
        <ele>222</ele>
        <time>2025-02-15T09:53:40Z</time>
      </trkpt>
      <trkpt lat="43.56924" lon="1.44205">
        <ele>223</ele>
        <time>2025-02-15T09:53:41Z</time>
      </trkpt>
      <trkpt lat="43.56924" lon="1.44205">
        <ele>223</ele>
        <time>2025-02-15T09:53:42Z</time>
      </trkpt>
      <trkpt lat="43.56924" lon="1.44205">
        <ele>223</ele>
        <time>2025-02-15T09:53:43Z</time>
      </trkpt>
      <trkpt lat="43.56921" lon="1.44206">
        <ele>223</ele>
        <time>2025-02-15T09:53:44Z</time>
      </trkpt>
      <trkpt lat="43.56917" lon="1.44207">
        <ele>224</ele>
        <time>2025-02-15T09:53:46Z</time>
      </trkpt>
      <trkpt lat="43.56914" lon="1.44208">
        <ele>224</ele>
        <time>2025-02-15T09:53:48Z</time>
      </trkpt>
      <trkpt lat="43.56912" lon="1.44209">
        <ele>224</ele>
        <time>2025-02-15T09:53:50Z</time>
      </trkpt>
      <trkpt lat="43.56908" lon="1.4421">
        <ele>224</ele>
        <time>2025-02-15T09:53:52Z</time>
      </trkpt>
      <trkpt lat="43.56907" lon="1.4421">
        <ele>224</ele>
        <time>2025-02-15T09:53:53Z</time>
      </trkpt>
      <trkpt lat="43.56907" lon="1.4421">
        <ele>225</ele>
        <time>2025-02-15T09:53:54Z</time>
      </trkpt>
      <trkpt lat="43.56904" lon="1.44212">
        <ele>225</ele>
        <time>2025-02-15T09:53:55Z</time>
      </trkpt>
      <trkpt lat="43.56902" lon="1.44212">
        <ele>225</ele>
        <time>2025-02-15T09:53:56Z</time>
      </trkpt>
      <trkpt lat="43.56902" lon="1.44212">
        <ele>225</ele>
        <time>2025-02-15T09:53:57Z</time>
      </trkpt>
      <trkpt lat="43.56898" lon="1.44212">
        <ele>225</ele>
        <time>2025-02-15T09:53:58Z</time>
      </trkpt>
      <trkpt lat="43.56898" lon="1.44212">
        <ele>226</ele>
        <time>2025-02-15T09:53:59Z</time>
      </trkpt>
      <trkpt lat="43.56895" lon="1.44213">
        <ele>226</ele>
        <time>2025-02-15T09:54:00Z</time>
      </trkpt>
      <trkpt lat="43.56895" lon="1.44213">
        <ele>226</ele>
        <time>2025-02-15T09:54:01Z</time>
      </trkpt>
      <trkpt lat="43.56892" lon="1.44213">
        <ele>226</ele>
        <time>2025-02-15T09:54:02Z</time>
      </trkpt>
      <trkpt lat="43.56892" lon="1.44213">
        <ele>226</ele>
        <time>2025-02-15T09:54:03Z</time>
      </trkpt>
      <trkpt lat="43.56888" lon="1.44214">
        <ele>226</ele>
        <time>2025-02-15T09:54:04Z</time>
      </trkpt>
      <trkpt lat="43.56885" lon="1.44214">
        <ele>226</ele>
        <time>2025-02-15T09:54:06Z</time>
      </trkpt>
      <trkpt lat="43.56883" lon="1.44214">
        <ele>226</ele>
        <time>2025-02-15T09:54:07Z</time>
      </trkpt>
      <trkpt lat="43.56883" lon="1.44214">
        <ele>226</ele>
        <time>2025-02-15T09:54:08Z</time>
      </trkpt>
      <trkpt lat="43.56879" lon="1.44215">
        <ele>227</ele>
        <time>2025-02-15T09:54:09Z</time>
      </trkpt>
      <trkpt lat="43.56879" lon="1.44215">
        <ele>227</ele>
        <time>2025-02-15T09:54:10Z</time>
      </trkpt>
      <trkpt lat="43.56877" lon="1.44215">
        <ele>227</ele>
        <time>2025-02-15T09:54:11Z</time>
      </trkpt>
      <trkpt lat="43.56877" lon="1.44215">
        <ele>227</ele>
        <time>2025-02-15T09:54:12Z</time>
      </trkpt>
      <trkpt lat="43.56874" lon="1.44216">
        <ele>227</ele>
        <time>2025-02-15T09:54:13Z</time>
      </trkpt>
      <trkpt lat="43.56874" lon="1.44216">
        <ele>228</ele>
        <time>2025-02-15T09:54:14Z</time>
      </trkpt>
      <trkpt lat="43.5687" lon="1.44217">
        <ele>228</ele>
        <time>2025-02-15T09:54:15Z</time>
      </trkpt>
      <trkpt lat="43.5687" lon="1.44217">
        <ele>229</ele>
        <time>2025-02-15T09:54:16Z</time>
      </trkpt>
      <trkpt lat="43.56867" lon="1.44217">
        <ele>229</ele>
        <time>2025-02-15T09:54:17Z</time>
      </trkpt>
      <trkpt lat="43.56865" lon="1.44218">
        <ele>228</ele>
        <time>2025-02-15T09:54:19Z</time>
      </trkpt>
      <trkpt lat="43.56862" lon="1.44218">
        <ele>228</ele>
        <time>2025-02-15T09:54:21Z</time>
      </trkpt>
      <trkpt lat="43.56862" lon="1.44218">
        <ele>228</ele>
        <time>2025-02-15T09:54:22Z</time>
      </trkpt>
      <trkpt lat="43.56859" lon="1.44219">
        <ele>228</ele>
        <time>2025-02-15T09:54:23Z</time>
      </trkpt>
      <trkpt lat="43.56856" lon="1.44219">
        <ele>229</ele>
        <time>2025-02-15T09:54:24Z</time>
      </trkpt>
      <trkpt lat="43.56853" lon="1.4422">
        <ele>229</ele>
        <time>2025-02-15T09:54:25Z</time>
      </trkpt>
      <trkpt lat="43.56852" lon="1.4422">
        <ele>229</ele>
        <time>2025-02-15T09:54:26Z</time>
      </trkpt>
      <trkpt lat="43.56849" lon="1.44221">
        <ele>229</ele>
        <time>2025-02-15T09:54:27Z</time>
      </trkpt>
      <trkpt lat="43.56848" lon="1.44222">
        <ele>229</ele>
        <time>2025-02-15T09:54:28Z</time>
      </trkpt>
      <trkpt lat="43.56845" lon="1.44223">
        <ele>229</ele>
        <time>2025-02-15T09:54:29Z</time>
      </trkpt>
      <trkpt lat="43.56842" lon="1.44225">
        <ele>229</ele>
        <time>2025-02-15T09:54:30Z</time>
      </trkpt>
      <trkpt lat="43.56841" lon="1.44225">
        <ele>230</ele>
        <time>2025-02-15T09:54:31Z</time>
      </trkpt>
      <trkpt lat="43.56837" lon="1.44227">
        <ele>230</ele>
        <time>2025-02-15T09:54:32Z</time>
      </trkpt>
      <trkpt lat="43.56835" lon="1.44227">
        <ele>230</ele>
        <time>2025-02-15T09:54:33Z</time>
      </trkpt>
      <trkpt lat="43.56833" lon="1.44229">
        <ele>229</ele>
        <time>2025-02-15T09:54:34Z</time>
      </trkpt>
      <trkpt lat="43.56829" lon="1.4423">
        <ele>229</ele>
        <time>2025-02-15T09:54:35Z</time>
      </trkpt>
      <trkpt lat="43.56828" lon="1.44231">
        <ele>229</ele>
        <time>2025-02-15T09:54:36Z</time>
      </trkpt>
      <trkpt lat="43.56824" lon="1.44232">
        <ele>229</ele>
        <time>2025-02-15T09:54:37Z</time>
      </trkpt>
      <trkpt lat="43.56823" lon="1.44233">
        <ele>230</ele>
        <time>2025-02-15T09:54:38Z</time>
      </trkpt>
      <trkpt lat="43.5682" lon="1.44233">
        <ele>230</ele>
        <time>2025-02-15T09:54:39Z</time>
      </trkpt>
      <trkpt lat="43.56817" lon="1.44233">
        <ele>230</ele>
        <time>2025-02-15T09:54:40Z</time>
      </trkpt>
      <trkpt lat="43.56814" lon="1.44232">
        <ele>230</ele>
        <time>2025-02-15T09:54:41Z</time>
      </trkpt>
      <trkpt lat="43.5681" lon="1.44232">
        <ele>230</ele>
        <time>2025-02-15T09:54:42Z</time>
      </trkpt>
      <trkpt lat="43.56809" lon="1.44232">
        <ele>230</ele>
        <time>2025-02-15T09:54:43Z</time>
      </trkpt>
      <trkpt lat="43.56805" lon="1.4423">
        <ele>230</ele>
        <time>2025-02-15T09:54:44Z</time>
      </trkpt>
      <trkpt lat="43.56803" lon="1.4423">
        <ele>229</ele>
        <time>2025-02-15T09:54:45Z</time>
      </trkpt>
      <trkpt lat="43.56798" lon="1.44229">
        <ele>229</ele>
        <time>2025-02-15T09:54:46Z</time>
      </trkpt>
      <trkpt lat="43.56797" lon="1.44228">
        <ele>230</ele>
        <time>2025-02-15T09:54:47Z</time>
      </trkpt>
      <trkpt lat="43.56794" lon="1.44228">
        <ele>230</ele>
        <time>2025-02-15T09:54:48Z</time>
      </trkpt>
      <trkpt lat="43.56791" lon="1.44227">
        <ele>230</ele>
        <time>2025-02-15T09:54:49Z</time>
      </trkpt>
      <trkpt lat="43.56786" lon="1.44225">
        <ele>230</ele>
        <time>2025-02-15T09:54:50Z</time>
      </trkpt>
      <trkpt lat="43.56785" lon="1.44225">
        <ele>229</ele>
        <time>2025-02-15T09:54:51Z</time>
      </trkpt>
      <trkpt lat="43.56782" lon="1.44224">
        <ele>229</ele>
        <time>2025-02-15T09:54:52Z</time>
      </trkpt>
      <trkpt lat="43.56779" lon="1.44223">
        <ele>229</ele>
        <time>2025-02-15T09:54:53Z</time>
      </trkpt>
      <trkpt lat="43.56775" lon="1.44223">
        <ele>229</ele>
        <time>2025-02-15T09:54:54Z</time>
      </trkpt>
      <trkpt lat="43.56771" lon="1.44222">
        <ele>229</ele>
        <time>2025-02-15T09:54:55Z</time>
      </trkpt>
      <trkpt lat="43.56769" lon="1.44222">
        <ele>229</ele>
        <time>2025-02-15T09:54:56Z</time>
      </trkpt>
      <trkpt lat="43.56766" lon="1.44221">
        <ele>229</ele>
        <time>2025-02-15T09:54:57Z</time>
      </trkpt>
      <trkpt lat="43.56763" lon="1.44221">
        <ele>229</ele>
        <time>2025-02-15T09:54:58Z</time>
      </trkpt>
      <trkpt lat="43.56759" lon="1.44221">
        <ele>228</ele>
        <time>2025-02-15T09:54:59Z</time>
      </trkpt>
      <trkpt lat="43.56754" lon="1.4422">
        <ele>228</ele>
        <time>2025-02-15T09:55:00Z</time>
      </trkpt>
      <trkpt lat="43.56752" lon="1.4422">
        <ele>228</ele>
        <time>2025-02-15T09:55:01Z</time>
      </trkpt>
      <trkpt lat="43.56748" lon="1.44219">
        <ele>228</ele>
        <time>2025-02-15T09:55:02Z</time>
      </trkpt>
      <trkpt lat="43.56746" lon="1.44219">
        <ele>227</ele>
        <time>2025-02-15T09:55:03Z</time>
      </trkpt>
      <trkpt lat="43.56743" lon="1.44218">
        <ele>227</ele>
        <time>2025-02-15T09:55:04Z</time>
      </trkpt>
      <trkpt lat="43.56738" lon="1.44217">
        <ele>227</ele>
        <time>2025-02-15T09:55:05Z</time>
      </trkpt>
      <trkpt lat="43.56736" lon="1.44217">
        <ele>227</ele>
        <time>2025-02-15T09:55:06Z</time>
      </trkpt>
      <trkpt lat="43.56733" lon="1.44217">
        <ele>227</ele>
        <time>2025-02-15T09:55:07Z</time>
      </trkpt>
      <trkpt lat="43.5673" lon="1.44217">
        <ele>227</ele>
        <time>2025-02-15T09:55:08Z</time>
      </trkpt>
      <trkpt lat="43.56728" lon="1.44217">
        <ele>227</ele>
        <time>2025-02-15T09:55:09Z</time>
      </trkpt>
      <trkpt lat="43.56725" lon="1.44217">
        <ele>227</ele>
        <time>2025-02-15T09:55:10Z</time>
      </trkpt>
      <trkpt lat="43.56723" lon="1.44216">
        <ele>227</ele>
        <time>2025-02-15T09:55:11Z</time>
      </trkpt>
      <trkpt lat="43.5672" lon="1.44216">
        <ele>227</ele>
        <time>2025-02-15T09:55:12Z</time>
      </trkpt>
      <trkpt lat="43.56716" lon="1.44215">
        <ele>227</ele>
        <time>2025-02-15T09:55:13Z</time>
      </trkpt>
      <trkpt lat="43.56715" lon="1.44215">
        <ele>227</ele>
        <time>2025-02-15T09:55:14Z</time>
      </trkpt>
      <trkpt lat="43.56711" lon="1.44214">
        <ele>227</ele>
        <time>2025-02-15T09:55:15Z</time>
      </trkpt>
      <trkpt lat="43.5671" lon="1.44214">
        <ele>227</ele>
        <time>2025-02-15T09:55:16Z</time>
      </trkpt>
      <trkpt lat="43.56707" lon="1.44213">
        <ele>227</ele>
        <time>2025-02-15T09:55:17Z</time>
      </trkpt>
      <trkpt lat="43.56704" lon="1.44213">
        <ele>227</ele>
        <time>2025-02-15T09:55:18Z</time>
      </trkpt>
      <trkpt lat="43.56702" lon="1.44213">
        <ele>227</ele>
        <time>2025-02-15T09:55:19Z</time>
      </trkpt>
      <trkpt lat="43.56697" lon="1.44212">
        <ele>227</ele>
        <time>2025-02-15T09:55:20Z</time>
      </trkpt>
      <trkpt lat="43.56696" lon="1.44212">
        <ele>227</ele>
        <time>2025-02-15T09:55:21Z</time>
      </trkpt>
      <trkpt lat="43.56692" lon="1.44212">
        <ele>227</ele>
        <time>2025-02-15T09:55:22Z</time>
      </trkpt>
      <trkpt lat="43.5669" lon="1.44212">
        <ele>226</ele>
        <time>2025-02-15T09:55:23Z</time>
      </trkpt>
      <trkpt lat="43.56687" lon="1.44213">
        <ele>226</ele>
        <time>2025-02-15T09:55:24Z</time>
      </trkpt>
      <trkpt lat="43.56685" lon="1.44213">
        <ele>226</ele>
        <time>2025-02-15T09:55:25Z</time>
      </trkpt>
      <trkpt lat="43.56683" lon="1.44213">
        <ele>226</ele>
        <time>2025-02-15T09:55:26Z</time>
      </trkpt>
      <trkpt lat="43.5668" lon="1.44216">
        <ele>226</ele>
        <time>2025-02-15T09:55:27Z</time>
      </trkpt>
      <trkpt lat="43.56679" lon="1.44216">
        <ele>226</ele>
        <time>2025-02-15T09:55:28Z</time>
      </trkpt>
      <trkpt lat="43.56677" lon="1.44219">
        <ele>226</ele>
        <time>2025-02-15T09:55:29Z</time>
      </trkpt>
      <trkpt lat="43.56676" lon="1.44221">
        <ele>226</ele>
        <time>2025-02-15T09:55:30Z</time>
      </trkpt>
      <trkpt lat="43.56675" lon="1.44224">
        <ele>226</ele>
        <time>2025-02-15T09:55:31Z</time>
      </trkpt>
      <trkpt lat="43.56674" lon="1.44227">
        <ele>226</ele>
        <time>2025-02-15T09:55:32Z</time>
      </trkpt>
      <trkpt lat="43.56674" lon="1.4423">
        <ele>227</ele>
        <time>2025-02-15T09:55:33Z</time>
      </trkpt>
      <trkpt lat="43.56673" lon="1.44234">
        <ele>227</ele>
        <time>2025-02-15T09:55:35Z</time>
      </trkpt>
      <trkpt lat="43.56671" lon="1.44237">
        <ele>227</ele>
        <time>2025-02-15T09:55:37Z</time>
      </trkpt>
      <trkpt lat="43.56671" lon="1.44237">
        <ele>227</ele>
        <time>2025-02-15T09:55:38Z</time>
      </trkpt>
      <trkpt lat="43.56669" lon="1.44241">
        <ele>227</ele>
        <time>2025-02-15T09:55:39Z</time>
      </trkpt>
      <trkpt lat="43.56668" lon="1.44243">
        <ele>227</ele>
        <time>2025-02-15T09:55:40Z</time>
      </trkpt>
      <trkpt lat="43.56666" lon="1.44245">
        <ele>227</ele>
        <time>2025-02-15T09:55:41Z</time>
      </trkpt>
      <trkpt lat="43.56666" lon="1.44245">
        <ele>227</ele>
        <time>2025-02-15T09:55:42Z</time>
      </trkpt>
      <trkpt lat="43.56664" lon="1.44248">
        <ele>227</ele>
        <time>2025-02-15T09:55:43Z</time>
      </trkpt>
      <trkpt lat="43.56664" lon="1.44248">
        <ele>227</ele>
        <time>2025-02-15T09:55:44Z</time>
      </trkpt>
      <trkpt lat="43.56661" lon="1.4425">
        <ele>227</ele>
        <time>2025-02-15T09:55:45Z</time>
      </trkpt>
      <trkpt lat="43.56659" lon="1.44254">
        <ele>228</ele>
        <time>2025-02-15T09:55:47Z</time>
      </trkpt>
      <trkpt lat="43.56656" lon="1.44257">
        <ele>229</ele>
        <time>2025-02-15T09:55:49Z</time>
      </trkpt>
      <trkpt lat="43.56656" lon="1.44257">
        <ele>229</ele>
        <time>2025-02-15T09:55:50Z</time>
      </trkpt>
      <trkpt lat="43.56654" lon="1.44259">
        <ele>229</ele>
        <time>2025-02-15T09:55:51Z</time>
      </trkpt>
      <trkpt lat="43.56654" lon="1.44259">
        <ele>229</ele>
        <time>2025-02-15T09:55:52Z</time>
      </trkpt>
      <trkpt lat="43.56652" lon="1.44262">
        <ele>229</ele>
        <time>2025-02-15T09:55:53Z</time>
      </trkpt>
      <trkpt lat="43.56652" lon="1.44262">
        <ele>229</ele>
        <time>2025-02-15T09:55:54Z</time>
      </trkpt>
      <trkpt lat="43.56649" lon="1.44265">
        <ele>229</ele>
        <time>2025-02-15T09:55:55Z</time>
      </trkpt>
      <trkpt lat="43.56649" lon="1.44265">
        <ele>230</ele>
        <time>2025-02-15T09:55:56Z</time>
      </trkpt>
      <trkpt lat="43.56647" lon="1.44268">
        <ele>230</ele>
        <time>2025-02-15T09:55:57Z</time>
      </trkpt>
      <trkpt lat="43.56647" lon="1.44268">
        <ele>230</ele>
        <time>2025-02-15T09:55:58Z</time>
      </trkpt>
      <trkpt lat="43.56645" lon="1.44272">
        <ele>230</ele>
        <time>2025-02-15T09:55:59Z</time>
      </trkpt>
      <trkpt lat="43.56643" lon="1.44275">
        <ele>231</ele>
        <time>2025-02-15T09:56:01Z</time>
      </trkpt>
      <trkpt lat="43.56641" lon="1.44277">
        <ele>231</ele>
        <time>2025-02-15T09:56:03Z</time>
      </trkpt>
      <trkpt lat="43.56641" lon="1.44277">
        <ele>231</ele>
        <time>2025-02-15T09:56:04Z</time>
      </trkpt>
      <trkpt lat="43.56639" lon="1.44281">
        <ele>231</ele>
        <time>2025-02-15T09:56:05Z</time>
      </trkpt>
      <trkpt lat="43.56639" lon="1.44281">
        <ele>231</ele>
        <time>2025-02-15T09:56:06Z</time>
      </trkpt>
      <trkpt lat="43.56637" lon="1.44284">
        <ele>231</ele>
        <time>2025-02-15T09:56:07Z</time>
      </trkpt>
      <trkpt lat="43.56637" lon="1.44284">
        <ele>232</ele>
        <time>2025-02-15T09:56:08Z</time>
      </trkpt>
      <trkpt lat="43.56635" lon="1.44289">
        <ele>232</ele>
        <time>2025-02-15T09:56:09Z</time>
      </trkpt>
      <trkpt lat="43.56634" lon="1.4429">
        <ele>232</ele>
        <time>2025-02-15T09:56:10Z</time>
      </trkpt>
      <trkpt lat="43.56634" lon="1.4429">
        <ele>232</ele>
        <time>2025-02-15T09:56:11Z</time>
      </trkpt>
      <trkpt lat="43.56632" lon="1.44293">
        <ele>232</ele>
        <time>2025-02-15T09:56:12Z</time>
      </trkpt>
      <trkpt lat="43.56632" lon="1.44293">
        <ele>232</ele>
        <time>2025-02-15T09:56:13Z</time>
      </trkpt>
      <trkpt lat="43.56629" lon="1.44296">
        <ele>232</ele>
        <time>2025-02-15T09:56:14Z</time>
      </trkpt>
      <trkpt lat="43.56629" lon="1.44296">
        <ele>232</ele>
        <time>2025-02-15T09:56:15Z</time>
      </trkpt>
      <trkpt lat="43.56627" lon="1.44299">
        <ele>232</ele>
        <time>2025-02-15T09:56:16Z</time>
      </trkpt>
      <trkpt lat="43.56627" lon="1.44299">
        <ele>233</ele>
        <time>2025-02-15T09:56:17Z</time>
      </trkpt>
      <trkpt lat="43.56625" lon="1.44303">
        <ele>233</ele>
        <time>2025-02-15T09:56:18Z</time>
      </trkpt>
      <trkpt lat="43.56625" lon="1.44303">
        <ele>233</ele>
        <time>2025-02-15T09:56:19Z</time>
      </trkpt>
      <trkpt lat="43.56623" lon="1.44306">
        <ele>233</ele>
        <time>2025-02-15T09:56:20Z</time>
      </trkpt>
      <trkpt lat="43.56622" lon="1.4431">
        <ele>233</ele>
        <time>2025-02-15T09:56:22Z</time>
      </trkpt>
      <trkpt lat="43.56622" lon="1.4431">
        <ele>233</ele>
        <time>2025-02-15T09:56:23Z</time>
      </trkpt>
      <trkpt lat="43.5662" lon="1.44314">
        <ele>233</ele>
        <time>2025-02-15T09:56:24Z</time>
      </trkpt>
      <trkpt lat="43.5662" lon="1.44314">
        <ele>233</ele>
        <time>2025-02-15T09:56:25Z</time>
      </trkpt>
      <trkpt lat="43.56619" lon="1.44318">
        <ele>233</ele>
        <time>2025-02-15T09:56:26Z</time>
      </trkpt>
      <trkpt lat="43.56619" lon="1.44318">
        <ele>233</ele>
        <time>2025-02-15T09:56:27Z</time>
      </trkpt>
      <trkpt lat="43.56618" lon="1.44321">
        <ele>233</ele>
        <time>2025-02-15T09:56:28Z</time>
      </trkpt>
      <trkpt lat="43.56618" lon="1.44321">
        <ele>233</ele>
        <time>2025-02-15T09:56:29Z</time>
      </trkpt>
      <trkpt lat="43.56617" lon="1.44325">
        <ele>233</ele>
        <time>2025-02-15T09:56:30Z</time>
      </trkpt>
      <trkpt lat="43.56617" lon="1.44325">
        <ele>233</ele>
        <time>2025-02-15T09:56:31Z</time>
      </trkpt>
      <trkpt lat="43.56616" lon="1.44329">
        <ele>233</ele>
        <time>2025-02-15T09:56:32Z</time>
      </trkpt>
      <trkpt lat="43.56615" lon="1.44334">
        <ele>234</ele>
        <time>2025-02-15T09:56:34Z</time>
      </trkpt>
      <trkpt lat="43.56614" lon="1.44338">
        <ele>234</ele>
        <time>2025-02-15T09:56:36Z</time>
      </trkpt>
      <trkpt lat="43.56614" lon="1.44338">
        <ele>234</ele>
        <time>2025-02-15T09:56:37Z</time>
      </trkpt>
      <trkpt lat="43.56613" lon="1.44342">
        <ele>234</ele>
        <time>2025-02-15T09:56:38Z</time>
      </trkpt>
      <trkpt lat="43.56613" lon="1.44342">
        <ele>234</ele>
        <time>2025-02-15T09:56:39Z</time>
      </trkpt>
      <trkpt lat="43.56613" lon="1.44346">
        <ele>234</ele>
        <time>2025-02-15T09:56:40Z</time>
      </trkpt>
      <trkpt lat="43.56613" lon="1.44346">
        <ele>234</ele>
        <time>2025-02-15T09:56:41Z</time>
      </trkpt>
      <trkpt lat="43.56612" lon="1.44349">
        <ele>234</ele>
        <time>2025-02-15T09:56:42Z</time>
      </trkpt>
      <trkpt lat="43.56612" lon="1.44349">
        <ele>235</ele>
        <time>2025-02-15T09:56:43Z</time>
      </trkpt>
      <trkpt lat="43.56611" lon="1.44352">
        <ele>235</ele>
        <time>2025-02-15T09:56:44Z</time>
      </trkpt>
      <trkpt lat="43.56611" lon="1.44352">
        <ele>236</ele>
        <time>2025-02-15T09:56:45Z</time>
      </trkpt>
      <trkpt lat="43.5661" lon="1.44356">
        <ele>237</ele>
        <time>2025-02-15T09:56:46Z</time>
      </trkpt>
      <trkpt lat="43.5661" lon="1.44356">
        <ele>237</ele>
        <time>2025-02-15T09:56:47Z</time>
      </trkpt>
      <trkpt lat="43.56609" lon="1.4436">
        <ele>237</ele>
        <time>2025-02-15T09:56:48Z</time>
      </trkpt>
      <trkpt lat="43.56608" lon="1.44364">
        <ele>237</ele>
        <time>2025-02-15T09:56:50Z</time>
      </trkpt>
      <trkpt lat="43.56607" lon="1.44367">
        <ele>237</ele>
        <time>2025-02-15T09:56:52Z</time>
      </trkpt>
      <trkpt lat="43.56607" lon="1.44367">
        <ele>237</ele>
        <time>2025-02-15T09:56:53Z</time>
      </trkpt>
      <trkpt lat="43.56606" lon="1.44371">
        <ele>237</ele>
        <time>2025-02-15T09:56:54Z</time>
      </trkpt>
      <trkpt lat="43.56606" lon="1.44371">
        <ele>238</ele>
        <time>2025-02-15T09:56:55Z</time>
      </trkpt>
      <trkpt lat="43.56605" lon="1.44375">
        <ele>238</ele>
        <time>2025-02-15T09:56:56Z</time>
      </trkpt>
      <trkpt lat="43.56605" lon="1.44375">
        <ele>238</ele>
        <time>2025-02-15T09:56:57Z</time>
      </trkpt>
      <trkpt lat="43.56604" lon="1.44379">
        <ele>238</ele>
        <time>2025-02-15T09:56:58Z</time>
      </trkpt>
      <trkpt lat="43.56604" lon="1.44379">
        <ele>238</ele>
        <time>2025-02-15T09:56:59Z</time>
      </trkpt>
      <trkpt lat="43.56604" lon="1.44384">
        <ele>238</ele>
        <time>2025-02-15T09:57:00Z</time>
      </trkpt>
      <trkpt lat="43.56604" lon="1.44384">
        <ele>238</ele>
        <time>2025-02-15T09:57:01Z</time>
      </trkpt>
      <trkpt lat="43.56603" lon="1.44387">
        <ele>238</ele>
        <time>2025-02-15T09:57:02Z</time>
      </trkpt>
      <trkpt lat="43.56602" lon="1.44391">
        <ele>238</ele>
        <time>2025-02-15T09:57:04Z</time>
      </trkpt>
      <trkpt lat="43.56602" lon="1.44391">
        <ele>239</ele>
        <time>2025-02-15T09:57:05Z</time>
      </trkpt>
      <trkpt lat="43.566" lon="1.44395">
        <ele>239</ele>
        <time>2025-02-15T09:57:06Z</time>
      </trkpt>
      <trkpt lat="43.566" lon="1.44395">
        <ele>239</ele>
        <time>2025-02-15T09:57:07Z</time>
      </trkpt>
      <trkpt lat="43.56598" lon="1.44399">
        <ele>239</ele>
        <time>2025-02-15T09:57:08Z</time>
      </trkpt>
      <trkpt lat="43.56598" lon="1.44399">
        <ele>239</ele>
        <time>2025-02-15T09:57:09Z</time>
      </trkpt>
      <trkpt lat="43.56597" lon="1.44403">
        <ele>239</ele>
        <time>2025-02-15T09:57:10Z</time>
      </trkpt>
      <trkpt lat="43.56597" lon="1.44403">
        <ele>240</ele>
        <time>2025-02-15T09:57:11Z</time>
      </trkpt>
      <trkpt lat="43.56594" lon="1.44407">
        <ele>240</ele>
        <time>2025-02-15T09:57:12Z</time>
      </trkpt>
      <trkpt lat="43.56594" lon="1.44407">
        <ele>239</ele>
        <time>2025-02-15T09:57:13Z</time>
      </trkpt>
      <trkpt lat="43.56591" lon="1.44409">
        <ele>239</ele>
        <time>2025-02-15T09:57:14Z</time>
      </trkpt>
      <trkpt lat="43.56588" lon="1.44411">
        <ele>239</ele>
        <time>2025-02-15T09:57:15Z</time>
      </trkpt>
      <trkpt lat="43.56587" lon="1.44412">
        <ele>240</ele>
        <time>2025-02-15T09:57:16Z</time>
      </trkpt>
      <trkpt lat="43.56584" lon="1.44414">
        <ele>240</ele>
        <time>2025-02-15T09:57:17Z</time>
      </trkpt>
      <trkpt lat="43.56582" lon="1.44415">
        <ele>240</ele>
        <time>2025-02-15T09:57:18Z</time>
      </trkpt>
      <trkpt lat="43.5658" lon="1.44417">
        <ele>241</ele>
        <time>2025-02-15T09:57:19Z</time>
      </trkpt>
      <trkpt lat="43.56578" lon="1.44418">
        <ele>241</ele>
        <time>2025-02-15T09:57:20Z</time>
      </trkpt>
      <trkpt lat="43.56575" lon="1.44419">
        <ele>241</ele>
        <time>2025-02-15T09:57:21Z</time>
      </trkpt>
      <trkpt lat="43.56571" lon="1.44421">
        <ele>241</ele>
        <time>2025-02-15T09:57:22Z</time>
      </trkpt>
      <trkpt lat="43.5657" lon="1.44421">
        <ele>241</ele>
        <time>2025-02-15T09:57:23Z</time>
      </trkpt>
      <trkpt lat="43.56566" lon="1.44423">
        <ele>241</ele>
        <time>2025-02-15T09:57:24Z</time>
      </trkpt>
      <trkpt lat="43.56564" lon="1.44423">
        <ele>241</ele>
        <time>2025-02-15T09:57:25Z</time>
      </trkpt>
      <trkpt lat="43.56562" lon="1.44425">
        <ele>241</ele>
        <time>2025-02-15T09:57:26Z</time>
      </trkpt>
      <trkpt lat="43.56558" lon="1.44427">
        <ele>241</ele>
        <time>2025-02-15T09:57:27Z</time>
      </trkpt>
      <trkpt lat="43.56557" lon="1.44428">
        <ele>241</ele>
        <time>2025-02-15T09:57:28Z</time>
      </trkpt>
      <trkpt lat="43.56553" lon="1.44431">
        <ele>241</ele>
        <time>2025-02-15T09:57:29Z</time>
      </trkpt>
      <trkpt lat="43.56552" lon="1.44433">
        <ele>241</ele>
        <time>2025-02-15T09:57:30Z</time>
      </trkpt>
      <trkpt lat="43.5655" lon="1.44435">
        <ele>241</ele>
        <time>2025-02-15T09:57:31Z</time>
      </trkpt>
      <trkpt lat="43.56547" lon="1.44436">
        <ele>241</ele>
        <time>2025-02-15T09:57:32Z</time>
      </trkpt>
      <trkpt lat="43.56545" lon="1.44438">
        <ele>241</ele>
        <time>2025-02-15T09:57:33Z</time>
      </trkpt>
      <trkpt lat="43.56542" lon="1.4444">
        <ele>241</ele>
        <time>2025-02-15T09:57:34Z</time>
      </trkpt>
      <trkpt lat="43.56541" lon="1.44441">
        <ele>241</ele>
        <time>2025-02-15T09:57:35Z</time>
      </trkpt>
      <trkpt lat="43.56539" lon="1.44443">
        <ele>241</ele>
        <time>2025-02-15T09:57:36Z</time>
      </trkpt>
      <trkpt lat="43.56537" lon="1.44445">
        <ele>241</ele>
        <time>2025-02-15T09:57:37Z</time>
      </trkpt>
      <trkpt lat="43.56534" lon="1.44447">
        <ele>241</ele>
        <time>2025-02-15T09:57:38Z</time>
      </trkpt>
      <trkpt lat="43.56532" lon="1.44448">
        <ele>241</ele>
        <time>2025-02-15T09:57:39Z</time>
      </trkpt>
      <trkpt lat="43.56529" lon="1.4445">
        <ele>241</ele>
        <time>2025-02-15T09:57:40Z</time>
      </trkpt>
      <trkpt lat="43.56526" lon="1.44454">
        <ele>241</ele>
        <time>2025-02-15T09:57:41Z</time>
      </trkpt>
      <trkpt lat="43.56525" lon="1.44455">
        <ele>241</ele>
        <time>2025-02-15T09:57:42Z</time>
      </trkpt>
      <trkpt lat="43.56523" lon="1.44459">
        <ele>241</ele>
        <time>2025-02-15T09:57:43Z</time>
      </trkpt>
      <trkpt lat="43.56522" lon="1.4446">
        <ele>241</ele>
        <time>2025-02-15T09:57:44Z</time>
      </trkpt>
      <trkpt lat="43.5652" lon="1.44462">
        <ele>241</ele>
        <time>2025-02-15T09:57:45Z</time>
      </trkpt>
      <trkpt lat="43.56518" lon="1.44466">
        <ele>241</ele>
        <time>2025-02-15T09:57:46Z</time>
      </trkpt>
      <trkpt lat="43.56517" lon="1.44468">
        <ele>241</ele>
        <time>2025-02-15T09:57:47Z</time>
      </trkpt>
      <trkpt lat="43.56515" lon="1.44472">
        <ele>241</ele>
        <time>2025-02-15T09:57:48Z</time>
      </trkpt>
      <trkpt lat="43.56514" lon="1.44473">
        <ele>241</ele>
        <time>2025-02-15T09:57:49Z</time>
      </trkpt>
      <trkpt lat="43.56513" lon="1.44476">
        <ele>241</ele>
        <time>2025-02-15T09:57:50Z</time>
      </trkpt>
      <trkpt lat="43.56512" lon="1.44479">
        <ele>241</ele>
        <time>2025-02-15T09:57:51Z</time>
      </trkpt>
      <trkpt lat="43.5651" lon="1.44482">
        <ele>241</ele>
        <time>2025-02-15T09:57:52Z</time>
      </trkpt>
      <trkpt lat="43.56508" lon="1.44487">
        <ele>241</ele>
        <time>2025-02-15T09:57:53Z</time>
      </trkpt>
      <trkpt lat="43.56507" lon="1.44489">
        <ele>242</ele>
        <time>2025-02-15T09:57:54Z</time>
      </trkpt>
      <trkpt lat="43.56506" lon="1.44492">
        <ele>242</ele>
        <time>2025-02-15T09:57:55Z</time>
      </trkpt>
      <trkpt lat="43.56504" lon="1.44495">
        <ele>242</ele>
        <time>2025-02-15T09:57:56Z</time>
      </trkpt>
      <trkpt lat="43.56502" lon="1.44497">
        <ele>242</ele>
        <time>2025-02-15T09:57:57Z</time>
      </trkpt>
      <trkpt lat="43.565" lon="1.445">
        <ele>242</ele>
        <time>2025-02-15T09:57:58Z</time>
      </trkpt>
      <trkpt lat="43.56498" lon="1.44502">
        <ele>242</ele>
        <time>2025-02-15T09:57:59Z</time>
      </trkpt>
      <trkpt lat="43.56495" lon="1.44505">
        <ele>242</ele>
        <time>2025-02-15T09:58:00Z</time>
      </trkpt>
      <trkpt lat="43.56493" lon="1.44506">
        <ele>241</ele>
        <time>2025-02-15T09:58:01Z</time>
      </trkpt>
      <trkpt lat="43.5649" lon="1.44509">
        <ele>241</ele>
        <time>2025-02-15T09:58:02Z</time>
      </trkpt>
      <trkpt lat="43.56489" lon="1.4451">
        <ele>242</ele>
        <time>2025-02-15T09:58:03Z</time>
      </trkpt>
      <trkpt lat="43.56487" lon="1.44511">
        <ele>242</ele>
        <time>2025-02-15T09:58:04Z</time>
      </trkpt>
      <trkpt lat="43.56484" lon="1.44512">
        <ele>242</ele>
        <time>2025-02-15T09:58:05Z</time>
      </trkpt>
      <trkpt lat="43.56483" lon="1.44513">
        <ele>242</ele>
        <time>2025-02-15T09:58:06Z</time>
      </trkpt>
      <trkpt lat="43.56479" lon="1.44515">
        <ele>242</ele>
        <time>2025-02-15T09:58:07Z</time>
      </trkpt>
      <trkpt lat="43.56478" lon="1.44516">
        <ele>242</ele>
        <time>2025-02-15T09:58:08Z</time>
      </trkpt>
      <trkpt lat="43.56475" lon="1.44517">
        <ele>242</ele>
        <time>2025-02-15T09:58:09Z</time>
      </trkpt>
      <trkpt lat="43.56473" lon="1.44519">
        <ele>242</ele>
        <time>2025-02-15T09:58:10Z</time>
      </trkpt>
      <trkpt lat="43.56471" lon="1.44521">
        <ele>242</ele>
        <time>2025-02-15T09:58:11Z</time>
      </trkpt>
      <trkpt lat="43.56467" lon="1.44523">
        <ele>242</ele>
        <time>2025-02-15T09:58:12Z</time>
      </trkpt>
      <trkpt lat="43.56466" lon="1.44524">
        <ele>242</ele>
        <time>2025-02-15T09:58:13Z</time>
      </trkpt>
      <trkpt lat="43.56464" lon="1.44526">
        <ele>242</ele>
        <time>2025-02-15T09:58:14Z</time>
      </trkpt>
      <trkpt lat="43.56462" lon="1.44528">
        <ele>243</ele>
        <time>2025-02-15T09:58:15Z</time>
      </trkpt>
      <trkpt lat="43.5646" lon="1.44529">
        <ele>243</ele>
        <time>2025-02-15T09:58:16Z</time>
      </trkpt>
      <trkpt lat="43.56457" lon="1.44531">
        <ele>243</ele>
        <time>2025-02-15T09:58:17Z</time>
      </trkpt>
      <trkpt lat="43.56455" lon="1.44533">
        <ele>243</ele>
        <time>2025-02-15T09:58:18Z</time>
      </trkpt>
      <trkpt lat="43.56451" lon="1.44535">
        <ele>243</ele>
        <time>2025-02-15T09:58:19Z</time>
      </trkpt>
      <trkpt lat="43.5645" lon="1.44536">
        <ele>244</ele>
        <time>2025-02-15T09:58:20Z</time>
      </trkpt>
      <trkpt lat="43.56447" lon="1.44538">
        <ele>244</ele>
        <time>2025-02-15T09:58:21Z</time>
      </trkpt>
      <trkpt lat="43.56445" lon="1.4454">
        <ele>244</ele>
        <time>2025-02-15T09:58:22Z</time>
      </trkpt>
      <trkpt lat="43.56442" lon="1.44542">
        <ele>244</ele>
        <time>2025-02-15T09:58:23Z</time>
      </trkpt>
      <trkpt lat="43.56439" lon="1.44544">
        <ele>244</ele>
        <time>2025-02-15T09:58:24Z</time>
      </trkpt>
      <trkpt lat="43.56438" lon="1.44545">
        <ele>244</ele>
        <time>2025-02-15T09:58:25Z</time>
      </trkpt>
      <trkpt lat="43.56435" lon="1.44546">
        <ele>244</ele>
        <time>2025-02-15T09:58:26Z</time>
      </trkpt>
      <trkpt lat="43.56433" lon="1.44548">
        <ele>243</ele>
        <time>2025-02-15T09:58:27Z</time>
      </trkpt>
      <trkpt lat="43.56431" lon="1.44549">
        <ele>242</ele>
        <time>2025-02-15T09:58:28Z</time>
      </trkpt>
      <trkpt lat="43.56427" lon="1.44551">
        <ele>242</ele>
        <time>2025-02-15T09:58:29Z</time>
      </trkpt>
      <trkpt lat="43.56426" lon="1.44552">
        <ele>243</ele>
        <time>2025-02-15T09:58:30Z</time>
      </trkpt>
      <trkpt lat="43.56422" lon="1.44554">
        <ele>243</ele>
        <time>2025-02-15T09:58:31Z</time>
      </trkpt>
      <trkpt lat="43.5642" lon="1.44554">
        <ele>244</ele>
        <time>2025-02-15T09:58:32Z</time>
      </trkpt>
      <trkpt lat="43.56417" lon="1.44556">
        <ele>244</ele>
        <time>2025-02-15T09:58:33Z</time>
      </trkpt>
      <trkpt lat="43.56413" lon="1.44558">
        <ele>244</ele>
        <time>2025-02-15T09:58:34Z</time>
      </trkpt>
      <trkpt lat="43.56411" lon="1.44559">
        <ele>244</ele>
        <time>2025-02-15T09:58:35Z</time>
      </trkpt>
      <trkpt lat="43.56409" lon="1.4456">
        <ele>244</ele>
        <time>2025-02-15T09:58:36Z</time>
      </trkpt>
      <trkpt lat="43.56406" lon="1.44561">
        <ele>244</ele>
        <time>2025-02-15T09:58:37Z</time>
      </trkpt>
      <trkpt lat="43.56403" lon="1.44564">
        <ele>244</ele>
        <time>2025-02-15T09:58:38Z</time>
      </trkpt>
      <trkpt lat="43.56401" lon="1.44565">
        <ele>244</ele>
        <time>2025-02-15T09:58:39Z</time>
      </trkpt>
      <trkpt lat="43.56398" lon="1.44568">
        <ele>244</ele>
        <time>2025-02-15T09:58:40Z</time>
      </trkpt>
      <trkpt lat="43.56397" lon="1.44569">
        <ele>243</ele>
        <time>2025-02-15T09:58:41Z</time>
      </trkpt>
      <trkpt lat="43.56395" lon="1.44571">
        <ele>243</ele>
        <time>2025-02-15T09:58:42Z</time>
      </trkpt>
      <trkpt lat="43.56392" lon="1.44573">
        <ele>243</ele>
        <time>2025-02-15T09:58:43Z</time>
      </trkpt>
      <trkpt lat="43.5639" lon="1.44576">
        <ele>243</ele>
        <time>2025-02-15T09:58:44Z</time>
      </trkpt>
      <trkpt lat="43.56387" lon="1.44579">
        <ele>243</ele>
        <time>2025-02-15T09:58:45Z</time>
      </trkpt>
      <trkpt lat="43.56386" lon="1.4458">
        <ele>243</ele>
        <time>2025-02-15T09:58:46Z</time>
      </trkpt>
      <trkpt lat="43.56383" lon="1.44584">
        <ele>243</ele>
        <time>2025-02-15T09:58:47Z</time>
      </trkpt>
      <trkpt lat="43.56382" lon="1.44586">
        <ele>244</ele>
        <time>2025-02-15T09:58:48Z</time>
      </trkpt>
      <trkpt lat="43.56381" lon="1.44588">
        <ele>244</ele>
        <time>2025-02-15T09:58:49Z</time>
      </trkpt>
      <trkpt lat="43.56379" lon="1.44591">
        <ele>244</ele>
        <time>2025-02-15T09:58:50Z</time>
      </trkpt>
      <trkpt lat="43.56377" lon="1.44593">
        <ele>244</ele>
        <time>2025-02-15T09:58:51Z</time>
      </trkpt>
      <trkpt lat="43.56375" lon="1.44596">
        <ele>244</ele>
        <time>2025-02-15T09:58:52Z</time>
      </trkpt>
      <trkpt lat="43.56373" lon="1.44599">
        <ele>244</ele>
        <time>2025-02-15T09:58:53Z</time>
      </trkpt>
      <trkpt lat="43.56372" lon="1.44602">
        <ele>243</ele>
        <time>2025-02-15T09:58:54Z</time>
      </trkpt>
      <trkpt lat="43.5637" lon="1.44605">
        <ele>243</ele>
        <time>2025-02-15T09:58:55Z</time>
      </trkpt>
      <trkpt lat="43.56368" lon="1.44608">
        <ele>244</ele>
        <time>2025-02-15T09:58:56Z</time>
      </trkpt>
      <trkpt lat="43.56367" lon="1.4461">
        <ele>245</ele>
        <time>2025-02-15T09:58:57Z</time>
      </trkpt>
      <trkpt lat="43.56364" lon="1.44615">
        <ele>245</ele>
        <time>2025-02-15T09:58:58Z</time>
      </trkpt>
      <trkpt lat="43.56363" lon="1.44616">
        <ele>245</ele>
        <time>2025-02-15T09:58:59Z</time>
      </trkpt>
      <trkpt lat="43.56361" lon="1.4462">
        <ele>245</ele>
        <time>2025-02-15T09:59:00Z</time>
      </trkpt>
      <trkpt lat="43.56359" lon="1.44621">
        <ele>246</ele>
        <time>2025-02-15T09:59:01Z</time>
      </trkpt>
      <trkpt lat="43.56357" lon="1.44623">
        <ele>246</ele>
        <time>2025-02-15T09:59:02Z</time>
      </trkpt>
      <trkpt lat="43.56355" lon="1.44625">
        <ele>246</ele>
        <time>2025-02-15T09:59:03Z</time>
      </trkpt>
      <trkpt lat="43.56353" lon="1.44628">
        <ele>246</ele>
        <time>2025-02-15T09:59:04Z</time>
      </trkpt>
      <trkpt lat="43.5635" lon="1.44632">
        <ele>246</ele>
        <time>2025-02-15T09:59:05Z</time>
      </trkpt>
      <trkpt lat="43.56349" lon="1.44633">
        <ele>247</ele>
        <time>2025-02-15T09:59:06Z</time>
      </trkpt>
      <trkpt lat="43.56346" lon="1.44637">
        <ele>247</ele>
        <time>2025-02-15T09:59:07Z</time>
      </trkpt>
      <trkpt lat="43.56345" lon="1.44638">
        <ele>246</ele>
        <time>2025-02-15T09:59:08Z</time>
      </trkpt>
      <trkpt lat="43.56343" lon="1.44641">
        <ele>246</ele>
        <time>2025-02-15T09:59:09Z</time>
      </trkpt>
      <trkpt lat="43.56342" lon="1.44644">
        <ele>245</ele>
        <time>2025-02-15T09:59:10Z</time>
      </trkpt>
      <trkpt lat="43.5634" lon="1.44647">
        <ele>245</ele>
        <time>2025-02-15T09:59:11Z</time>
      </trkpt>
      <trkpt lat="43.56338" lon="1.44651">
        <ele>245</ele>
        <time>2025-02-15T09:59:12Z</time>
      </trkpt>
      <trkpt lat="43.56337" lon="1.44653">
        <ele>246</ele>
        <time>2025-02-15T09:59:13Z</time>
      </trkpt>
      <trkpt lat="43.56333" lon="1.44655">
        <ele>246</ele>
        <time>2025-02-15T09:59:14Z</time>
      </trkpt>
      <trkpt lat="43.56332" lon="1.44656">
        <ele>246</ele>
        <time>2025-02-15T09:59:15Z</time>
      </trkpt>
      <trkpt lat="43.56329" lon="1.44656">
        <ele>246</ele>
        <time>2025-02-15T09:59:16Z</time>
      </trkpt>
      <trkpt lat="43.56327" lon="1.44657">
        <ele>247</ele>
        <time>2025-02-15T09:59:17Z</time>
      </trkpt>
      <trkpt lat="43.56323" lon="1.44657">
        <ele>247</ele>
        <time>2025-02-15T09:59:18Z</time>
      </trkpt>
      <trkpt lat="43.56319" lon="1.44656">
        <ele>247</ele>
        <time>2025-02-15T09:59:19Z</time>
      </trkpt>
      <trkpt lat="43.56318" lon="1.44656">
        <ele>247</ele>
        <time>2025-02-15T09:59:20Z</time>
      </trkpt>
      <trkpt lat="43.56315" lon="1.44656">
        <ele>247</ele>
        <time>2025-02-15T09:59:21Z</time>
      </trkpt>
      <trkpt lat="43.56312" lon="1.44655">
        <ele>247</ele>
        <time>2025-02-15T09:59:22Z</time>
      </trkpt>
      <trkpt lat="43.56309" lon="1.44654">
        <ele>247</ele>
        <time>2025-02-15T09:59:23Z</time>
      </trkpt>
      <trkpt lat="43.56305" lon="1.44654">
        <ele>247</ele>
        <time>2025-02-15T09:59:24Z</time>
      </trkpt>
      <trkpt lat="43.56304" lon="1.44654">
        <ele>247</ele>
        <time>2025-02-15T09:59:25Z</time>
      </trkpt>
      <trkpt lat="43.563" lon="1.44653">
        <ele>247</ele>
        <time>2025-02-15T09:59:26Z</time>
      </trkpt>
      <trkpt lat="43.56298" lon="1.44653">
        <ele>247</ele>
        <time>2025-02-15T09:59:27Z</time>
      </trkpt>
      <trkpt lat="43.56295" lon="1.44653">
        <ele>247</ele>
        <time>2025-02-15T09:59:28Z</time>
      </trkpt>
      <trkpt lat="43.56292" lon="1.44654">
        <ele>246</ele>
        <time>2025-02-15T09:59:29Z</time>
      </trkpt>
      <trkpt lat="43.56289" lon="1.44654">
        <ele>246</ele>
        <time>2025-02-15T09:59:30Z</time>
      </trkpt>
      <trkpt lat="43.56285" lon="1.44656">
        <ele>246</ele>
        <time>2025-02-15T09:59:31Z</time>
      </trkpt>
      <trkpt lat="43.56284" lon="1.44656">
        <ele>246</ele>
        <time>2025-02-15T09:59:32Z</time>
      </trkpt>
      <trkpt lat="43.56282" lon="1.44657">
        <ele>246</ele>
        <time>2025-02-15T09:59:33Z</time>
      </trkpt>
      <trkpt lat="43.56279" lon="1.44659">
        <ele>246</ele>
        <time>2025-02-15T09:59:34Z</time>
      </trkpt>
      <trkpt lat="43.56276" lon="1.44662">
        <ele>246</ele>
        <time>2025-02-15T09:59:35Z</time>
      </trkpt>
      <trkpt lat="43.56275" lon="1.44662">
        <ele>247</ele>
        <time>2025-02-15T09:59:36Z</time>
      </trkpt>
      <trkpt lat="43.56272" lon="1.44664">
        <ele>246</ele>
        <time>2025-02-15T09:59:37Z</time>
      </trkpt>
      <trkpt lat="43.5627" lon="1.44665">
        <ele>246</ele>
        <time>2025-02-15T09:59:38Z</time>
      </trkpt>
      <trkpt lat="43.56267" lon="1.44666">
        <ele>246</ele>
        <time>2025-02-15T09:59:39Z</time>
      </trkpt>
      <trkpt lat="43.56264" lon="1.44668">
        <ele>246</ele>
        <time>2025-02-15T09:59:40Z</time>
      </trkpt>
      <trkpt lat="43.56262" lon="1.44669">
        <ele>247</ele>
        <time>2025-02-15T09:59:41Z</time>
      </trkpt>
      <trkpt lat="43.56259" lon="1.4467">
        <ele>247</ele>
        <time>2025-02-15T09:59:42Z</time>
      </trkpt>
      <trkpt lat="43.56258" lon="1.4467">
        <ele>247</ele>
        <time>2025-02-15T09:59:43Z</time>
      </trkpt>
      <trkpt lat="43.56256" lon="1.44671">
        <ele>247</ele>
        <time>2025-02-15T09:59:44Z</time>
      </trkpt>
      <trkpt lat="43.56253" lon="1.44673">
        <ele>247</ele>
        <time>2025-02-15T09:59:45Z</time>
      </trkpt>
      <trkpt lat="43.56251" lon="1.44674">
        <ele>246</ele>
        <time>2025-02-15T09:59:46Z</time>
      </trkpt>
      <trkpt lat="43.56247" lon="1.44676">
        <ele>246</ele>
        <time>2025-02-15T09:59:47Z</time>
      </trkpt>
      <trkpt lat="43.56245" lon="1.44676">
        <ele>246</ele>
        <time>2025-02-15T09:59:48Z</time>
      </trkpt>
      <trkpt lat="43.56243" lon="1.44677">
        <ele>246</ele>
        <time>2025-02-15T09:59:49Z</time>
      </trkpt>
      <trkpt lat="43.5624" lon="1.44678">
        <ele>246</ele>
        <time>2025-02-15T09:59:50Z</time>
      </trkpt>
      <trkpt lat="43.56238" lon="1.4468">
        <ele>246</ele>
        <time>2025-02-15T09:59:51Z</time>
      </trkpt>
      <trkpt lat="43.56235" lon="1.44681">
        <ele>246</ele>
        <time>2025-02-15T09:59:52Z</time>
      </trkpt>
      <trkpt lat="43.56232" lon="1.44681">
        <ele>246</ele>
        <time>2025-02-15T09:59:53Z</time>
      </trkpt>
      <trkpt lat="43.56229" lon="1.44683">
        <ele>246</ele>
        <time>2025-02-15T09:59:54Z</time>
      </trkpt>
      <trkpt lat="43.56226" lon="1.44684">
        <ele>246</ele>
        <time>2025-02-15T09:59:55Z</time>
      </trkpt>
      <trkpt lat="43.56224" lon="1.44685">
        <ele>246</ele>
        <time>2025-02-15T09:59:56Z</time>
      </trkpt>
      <trkpt lat="43.56221" lon="1.44686">
        <ele>246</ele>
        <time>2025-02-15T09:59:57Z</time>
      </trkpt>
      <trkpt lat="43.56218" lon="1.44687">
        <ele>246</ele>
        <time>2025-02-15T09:59:58Z</time>
      </trkpt>
      <trkpt lat="43.56216" lon="1.44688">
        <ele>246</ele>
        <time>2025-02-15T09:59:59Z</time>
      </trkpt>
      <trkpt lat="43.56213" lon="1.44689">
        <ele>246</ele>
        <time>2025-02-15T10:00:00Z</time>
      </trkpt>
      <trkpt lat="43.5621" lon="1.4469">
        <ele>246</ele>
        <time>2025-02-15T10:00:01Z</time>
      </trkpt>
      <trkpt lat="43.56207" lon="1.4469">
        <ele>246</ele>
        <time>2025-02-15T10:00:02Z</time>
      </trkpt>
      <trkpt lat="43.56205" lon="1.44691">
        <ele>246</ele>
        <time>2025-02-15T10:00:03Z</time>
      </trkpt>
      <trkpt lat="43.56203" lon="1.44691">
        <ele>246</ele>
        <time>2025-02-15T10:00:04Z</time>
      </trkpt>
      <trkpt lat="43.56203" lon="1.44691">
        <ele>246</ele>
        <time>2025-02-15T10:00:05Z</time>
      </trkpt>
      <trkpt lat="43.56202" lon="1.44692">
        <ele>246</ele>
        <time>2025-02-15T10:00:06Z</time>
      </trkpt>
    </trkseg>
  </trk>
</gpx>